<?xml version='1.0' encoding='UTF-8'?><gpx version="1.1" creator="JPX - https://github.com/jenetics/jpx" xmlns="http://www.topografix.com/GPX/1/1"><trk><trkseg><trkpt lat="37.39223716237135" lon="14.372531114865579"><ele>703.0</ele><time>2026-04-30T06:45:08.999Z</time></trkpt><trkpt lat="37.392328552604496" lon="14.372571134570354"><ele>703.0</ele><time>2026-04-30T06:45:10.999Z</time></trkpt><trkpt lat="37.39239283913397" lon="14.372573970685698"><ele>703.0</ele><time>2026-04-30T06:45:12.999Z</time></trkpt><trkpt lat="37.392505136230184" lon="14.372613925432798"><ele>703.0</ele><time>2026-04-30T06:45:14.999Z</time></trkpt><trkpt lat="37.39260992182594" lon="14.372672239430985"><ele>703.0</ele><time>2026-04-30T06:45:16.999Z</time></trkpt><trkpt lat="37.392675335929184" lon="14.3726995069507"><ele>703.0</ele><time>2026-04-30T06:45:17.999Z</time></trkpt><trkpt lat="37.39275935683016" lon="14.372730692239998"><ele>703.0</ele><time>2026-04-30T06:45:18.999Z</time></trkpt><trkpt lat="37.392843356114554" lon="14.37277446621469"><ele>703.0</ele><time>2026-04-30T06:45:19.999Z</time></trkpt><trkpt lat="37.39291182649177" lon="14.372811062702102"><ele>703.0</ele><time>2026-04-30T06:45:20.999Z</time></trkpt><trkpt lat="37.39301443579806" lon="14.372864300647972"><ele>703.0</ele><time>2026-04-30T06:45:22.999Z</time></trkpt><trkpt lat="37.393122951198364" lon="14.372910412244973"><ele>703.1666666666667</ele><time>2026-04-30T06:45:24.999Z</time></trkpt><trkpt lat="37.39321371493931" lon="14.372923402231798"><ele>703.3333333333334</ele><time>2026-04-30T06:45:26.999Z</time></trkpt><trkpt lat="37.39328502748841" lon="14.372953155134658"><ele>703.5</ele><time>2026-04-30T06:45:28.999Z</time></trkpt><trkpt lat="37.39332518535392" lon="14.372880596573843"><ele>703.6666666666666</ele><time>2026-04-30T06:45:29.999Z</time></trkpt><trkpt lat="37.39331212270197" lon="14.37276193114113"><ele>703.8333333333333</ele><time>2026-04-30T06:45:31.999Z</time></trkpt><trkpt lat="37.39326395610731" lon="14.372692495163735"><ele>704.0</ele><time>2026-04-30T06:45:32.999Z</time></trkpt><trkpt lat="37.393191349760286" lon="14.372621320257908"><ele>704.0</ele><time>2026-04-30T06:45:33.999Z</time></trkpt><trkpt lat="37.39310537848097" lon="14.37254499201202"><ele>704.0</ele><time>2026-04-30T06:45:34.999Z</time></trkpt><trkpt lat="37.39301233257633" lon="14.37247481637885"><ele>704.0</ele><time>2026-04-30T06:45:35.999Z</time></trkpt><trkpt lat="37.392918813007235" lon="14.372409966479177"><ele>704.0</ele><time>2026-04-30T06:45:36.999Z</time></trkpt><trkpt lat="37.392832556474126" lon="14.372338078486635"><ele>704.0</ele><time>2026-04-30T06:45:37.999Z</time></trkpt><trkpt lat="37.392749734461816" lon="14.372304557068308"><ele>703.8000000000001</ele><time>2026-04-30T06:45:38.999Z</time></trkpt><trkpt lat="37.392675991445465" lon="14.37226723610847"><ele>703.6</ele><time>2026-04-30T06:45:39.999Z</time></trkpt><trkpt lat="37.392618039191156" lon="14.372229455745904"><ele>703.4</ele><time>2026-04-30T06:45:40.999Z</time></trkpt><trkpt lat="37.392528964558046" lon="14.372164103296914"><ele>703.2</ele><time>2026-04-30T06:45:42.999Z</time></trkpt><trkpt lat="37.392442671773914" lon="14.372133675443681"><ele>703.0</ele><time>2026-04-30T06:45:44.999Z</time></trkpt><trkpt lat="37.392319246975035" lon="14.372078137288662"><ele>702.5999999999999</ele><time>2026-04-30T06:45:46.999Z</time></trkpt><trkpt lat="37.39221996034108" lon="14.372006652258198"><ele>702.1999999999999</ele><time>2026-04-30T06:45:48.999Z</time></trkpt><trkpt lat="37.392136008413026" lon="14.371942349169668"><ele>701.8</ele><time>2026-04-30T06:45:50.999Z</time></trkpt><trkpt lat="37.39205927164841" lon="14.371912044864603"><ele>701.4</ele><time>2026-04-30T06:45:52.999Z</time></trkpt><trkpt lat="37.39198803895342" lon="14.371885890480744"><ele>701.0</ele><time>2026-04-30T06:45:54.999Z</time></trkpt><trkpt lat="37.39191257291802" lon="14.371838618038051"><ele>701.0</ele><time>2026-04-30T06:45:56.999Z</time></trkpt><trkpt lat="37.39184226911472" lon="14.371796131332717"><ele>701.0</ele><time>2026-04-30T06:45:58.999Z</time></trkpt><trkpt lat="37.39176554986436" lon="14.371750498837699"><ele>701.0</ele><time>2026-04-30T06:46:00.999Z</time></trkpt><trkpt lat="37.39165158193888" lon="14.371679787419458"><ele>701.0</ele><time>2026-04-30T06:46:02.999Z</time></trkpt><trkpt lat="37.391587507339196" lon="14.371660177887112"><ele>701.0</ele><time>2026-04-30T06:46:03.999Z</time></trkpt><trkpt lat="37.39152465324901" lon="14.371633041247582"><ele>701.0</ele><time>2026-04-30T06:46:04.999Z</time></trkpt><trkpt lat="37.39145922568302" lon="14.37159727220877"><ele>701.0</ele><time>2026-04-30T06:46:05.999Z</time></trkpt><trkpt lat="37.39136546822695" lon="14.371633878747588"><ele>701.0</ele><time>2026-04-30T06:46:06.999Z</time></trkpt><trkpt lat="37.39128888100363" lon="14.371624344812775"><ele>701.0</ele><time>2026-04-30T06:46:07.999Z</time></trkpt><trkpt lat="37.39120543527157" lon="14.371617155720458"><ele>701.0</ele><time>2026-04-30T06:46:08.999Z</time></trkpt><trkpt lat="37.39112740211143" lon="14.371609348069196"><ele>701.0</ele><time>2026-04-30T06:46:09.999Z</time></trkpt><trkpt lat="37.39105268980641" lon="14.371593209679192"><ele>701.0</ele><time>2026-04-30T06:46:10.999Z</time></trkpt><trkpt lat="37.39098675752811" lon="14.371572162886695"><ele>700.8</ele><time>2026-04-30T06:46:11.999Z</time></trkpt><trkpt lat="37.39086771181347" lon="14.37154362937615"><ele>700.5999999999999</ele><time>2026-04-30T06:46:13.999Z</time></trkpt><trkpt lat="37.39080043512325" lon="14.371534555255009"><ele>700.4</ele><time>2026-04-30T06:46:14.999Z</time></trkpt><trkpt lat="37.39073654821801" lon="14.371519933281881"><ele>700.2</ele><time>2026-04-30T06:46:15.999Z</time></trkpt><trkpt lat="37.39062747669031" lon="14.371478019223684"><ele>700.0</ele><time>2026-04-30T06:46:17.999Z</time></trkpt><trkpt lat="37.39050720830856" lon="14.37147165843994"><ele>700.0</ele><time>2026-04-30T06:46:19.999Z</time></trkpt><trkpt lat="37.390444110246015" lon="14.371473589837361"><ele>700.0</ele><time>2026-04-30T06:46:20.999Z</time></trkpt><trkpt lat="37.390378537831026" lon="14.371471411324851"><ele>700.0</ele><time>2026-04-30T06:46:21.999Z</time></trkpt><trkpt lat="37.390314800086415" lon="14.371462311863855"><ele>700.0</ele><time>2026-04-30T06:46:22.999Z</time></trkpt><trkpt lat="37.39024866383762" lon="14.37145982648442"><ele>700.0</ele><time>2026-04-30T06:46:23.999Z</time></trkpt><trkpt lat="37.39017499059699" lon="14.371449270115846"><ele>700.0</ele><time>2026-04-30T06:46:25.999Z</time></trkpt><trkpt lat="37.390107901305655" lon="14.37141828521509"><ele>700.0</ele><time>2026-04-30T06:46:29.998Z</time></trkpt><trkpt lat="37.38999502122847" lon="14.3713964634279"><ele>700.0</ele><time>2026-04-30T06:46:31.998Z</time></trkpt><trkpt lat="37.389920754048596" lon="14.371383535437504"><ele>700.0</ele><time>2026-04-30T06:46:32.998Z</time></trkpt><trkpt lat="37.38983988807588" lon="14.371388827317482"><ele>700.0</ele><time>2026-04-30T06:46:34Z</time></trkpt><trkpt lat="37.389766171116186" lon="14.371372263991006"><ele>700.0</ele><time>2026-04-30T06:46:35Z</time></trkpt><trkpt lat="37.38969727645901" lon="14.371342250510912"><ele>700.0</ele><time>2026-04-30T06:46:36Z</time></trkpt><trkpt lat="37.38963278005602" lon="14.371330002189973"><ele>700.0</ele><time>2026-04-30T06:46:37Z</time></trkpt><trkpt lat="37.3895121554924" lon="14.371306823262723"><ele>699.6</ele><time>2026-04-30T06:46:39Z</time></trkpt><trkpt lat="37.38939718024013" lon="14.371284704095643"><ele>699.2</ele><time>2026-04-30T06:46:41Z</time></trkpt><trkpt lat="37.389278575570515" lon="14.371261886692173"><ele>698.8</ele><time>2026-04-30T06:46:43Z</time></trkpt><trkpt lat="37.389215260910596" lon="14.371249706086962"><ele>698.4</ele><time>2026-04-30T06:46:44Z</time></trkpt><trkpt lat="37.38907831198256" lon="14.371290442608526"><ele>698.0</ele><time>2026-04-30T06:46:46Z</time></trkpt><trkpt lat="37.388981917688916" lon="14.37126570851165"><ele>698.0</ele><time>2026-04-30T06:46:48Z</time></trkpt><trkpt lat="37.38890594097446" lon="14.37119395706577"><ele>698.0</ele><time>2026-04-30T06:46:50Z</time></trkpt><trkpt lat="37.38883585953548" lon="14.371180328652798"><ele>698.0</ele><time>2026-04-30T06:46:53Z</time></trkpt><trkpt lat="37.38874333513336" lon="14.371163008156342"><ele>698.0</ele><time>2026-04-30T06:46:57Z</time></trkpt><trkpt lat="37.388675259478354" lon="14.371150264447195"><ele>698.0</ele><time>2026-04-30T06:46:59Z</time></trkpt><trkpt lat="37.388609423605004" lon="14.371137940022432"><ele>698.0</ele><time>2026-04-30T06:47:00.999Z</time></trkpt><trkpt lat="37.38852569127279" lon="14.371122265394783"><ele>698.0</ele><time>2026-04-30T06:47:02.999Z</time></trkpt><trkpt lat="37.38844040885334" lon="14.3711063205936"><ele>698.0</ele><time>2026-04-30T06:47:04.999Z</time></trkpt><trkpt lat="37.388355674440795" lon="14.371110895695663"><ele>698.0</ele><time>2026-04-30T06:47:06.999Z</time></trkpt><trkpt lat="37.38827889586821" lon="14.371077884331156"><ele>698.0</ele><time>2026-04-30T06:47:09.999Z</time></trkpt><trkpt lat="37.388159826649215" lon="14.371056920786767"><ele>698.0</ele><time>2026-04-30T06:47:11.999Z</time></trkpt><trkpt lat="37.38809672326338" lon="14.371065153726812"><ele>698.0</ele><time>2026-04-30T06:47:12.999Z</time></trkpt><trkpt lat="37.38800058235094" lon="14.371039907974291"><ele>696.2</ele><time>2026-04-30T06:47:14.999Z</time></trkpt><trkpt lat="37.387913867199096" lon="14.371011280419655"><ele>694.4</ele><time>2026-04-30T06:47:16.999Z</time></trkpt><trkpt lat="37.38781972730891" lon="14.37102747211126"><ele>692.6</ele><time>2026-04-30T06:47:18.999Z</time></trkpt><trkpt lat="37.38773615232668" lon="14.371012059838469"><ele>690.8000000000001</ele><time>2026-04-30T06:47:20.999Z</time></trkpt><trkpt lat="37.387631539473134" lon="14.37099479398029"><ele>689.0</ele><time>2026-04-30T06:47:22.999Z</time></trkpt><trkpt lat="37.38754977801064" lon="14.370974893784624"><ele>689.0</ele><time>2026-04-30T06:47:23.999Z</time></trkpt><trkpt lat="37.38743978677411" lon="14.37094708449538"><ele>689.0</ele><time>2026-04-30T06:47:24.999Z</time></trkpt><trkpt lat="37.387321117868446" lon="14.370907766045379"><ele>689.0</ele><time>2026-04-30T06:47:25.999Z</time></trkpt><trkpt lat="37.3872010812696" lon="14.370878086998184"><ele>689.0</ele><time>2026-04-30T06:47:26.999Z</time></trkpt><trkpt lat="37.38709473259616" lon="14.370842294690085"><ele>689.1666666666666</ele><time>2026-04-30T06:47:27.999Z</time></trkpt><trkpt lat="37.38700586912656" lon="14.370830531277262"><ele>689.3333333333333</ele><time>2026-04-30T06:47:28.999Z</time></trkpt><trkpt lat="37.386917562790316" lon="14.370808606565879"><ele>689.5</ele><time>2026-04-30T06:47:29.999Z</time></trkpt><trkpt lat="37.38683573936226" lon="14.370794410064482"><ele>689.6666666666666</ele><time>2026-04-30T06:47:30.999Z</time></trkpt><trkpt lat="37.386753521235846" lon="14.370781975069935"><ele>689.8333333333334</ele><time>2026-04-30T06:47:31.999Z</time></trkpt><trkpt lat="37.38666652631123" lon="14.370764321460213"><ele>690.0</ele><time>2026-04-30T06:47:32.999Z</time></trkpt><trkpt lat="37.38658444806767" lon="14.370755598302752"><ele>690.0</ele><time>2026-04-30T06:47:33.999Z</time></trkpt><trkpt lat="37.386495418997846" lon="14.37073786351816"><ele>690.0</ele><time>2026-04-30T06:47:34.999Z</time></trkpt><trkpt lat="37.386400029998484" lon="14.370722568922313"><ele>690.0</ele><time>2026-04-30T06:47:35.999Z</time></trkpt><trkpt lat="37.386305878781954" lon="14.370706963178883"><ele>690.0</ele><time>2026-04-30T06:47:36.999Z</time></trkpt><trkpt lat="37.38622329612307" lon="14.37069594022755"><ele>690.0</ele><time>2026-04-30T06:47:37.999Z</time></trkpt><trkpt lat="37.38613717593554" lon="14.370681471501651"><ele>691.4</ele><time>2026-04-30T06:47:38.999Z</time></trkpt><trkpt lat="37.38605526896464" lon="14.370662890472623"><ele>692.8</ele><time>2026-04-30T06:47:39.999Z</time></trkpt><trkpt lat="37.385968973555165" lon="14.370636233020978"><ele>694.2</ele><time>2026-04-30T06:47:40.999Z</time></trkpt><trkpt lat="37.3858781839582" lon="14.370622502615417"><ele>695.6</ele><time>2026-04-30T06:47:41.999Z</time></trkpt><trkpt lat="37.385779177167365" lon="14.370611082487121"><ele>697.0</ele><time>2026-04-30T06:47:42.999Z</time></trkpt><trkpt lat="37.38567347786628" lon="14.37059299964311"><ele>697.0</ele><time>2026-04-30T06:47:43.999Z</time></trkpt><trkpt lat="37.38555573438631" lon="14.37056194076775"><ele>697.0</ele><time>2026-04-30T06:47:44.999Z</time></trkpt><trkpt lat="37.38543310546665" lon="14.370523050756908"><ele>697.0</ele><time>2026-04-30T06:47:45.999Z</time></trkpt><trkpt lat="37.38531257264494" lon="14.370483173668026"><ele>697.0</ele><time>2026-04-30T06:47:46.999Z</time></trkpt><trkpt lat="37.38518649932615" lon="14.370468048715916"><ele>698.0</ele><time>2026-04-30T06:47:47.999Z</time></trkpt><trkpt lat="37.38506930761302" lon="14.37044808703904"><ele>699.0</ele><time>2026-04-30T06:47:48.999Z</time></trkpt><trkpt lat="37.38495654640749" lon="14.3704250579246"><ele>700.0</ele><time>2026-04-30T06:47:49.999Z</time></trkpt><trkpt lat="37.38484580736128" lon="14.370402194370461"><ele>701.0</ele><time>2026-04-30T06:47:50.999Z</time></trkpt><trkpt lat="37.38473275593796" lon="14.370383219903992"><ele>700.1999999999999</ele><time>2026-04-30T06:47:51.999Z</time></trkpt><trkpt lat="37.38462322458032" lon="14.370364497520109"><ele>699.4</ele><time>2026-04-30T06:47:52.999Z</time></trkpt><trkpt lat="37.38451901387345" lon="14.370340755690444"><ele>698.6</ele><time>2026-04-30T06:47:53.999Z</time></trkpt><trkpt lat="37.38441990902821" lon="14.370334059340172"><ele>697.8</ele><time>2026-04-30T06:47:54.999Z</time></trkpt><trkpt lat="37.38432562488934" lon="14.370300083782313"><ele>697.0</ele><time>2026-04-30T06:47:55.999Z</time></trkpt><trkpt lat="37.384249587285275" lon="14.370300277442288"><ele>697.0</ele><time>2026-04-30T06:47:56.999Z</time></trkpt><trkpt lat="37.38415375873981" lon="14.37027895738853"><ele>697.0</ele><time>2026-04-30T06:47:57.999Z</time></trkpt><trkpt lat="37.384068807354105" lon="14.370262574806173"><ele>697.0</ele><time>2026-04-30T06:47:58.999Z</time></trkpt><trkpt lat="37.383999828092534" lon="14.370248213910003"><ele>697.0</ele><time>2026-04-30T06:47:59.999Z</time></trkpt><trkpt lat="37.38393765091695" lon="14.37023443142704"><ele>697.0</ele><time>2026-04-30T06:48:00.999Z</time></trkpt><trkpt lat="37.38387483617059" lon="14.370223630585322"><ele>697.0</ele><time>2026-04-30T06:48:01.999Z</time></trkpt><trkpt lat="37.383811416619615" lon="14.370215317929478"><ele>697.0</ele><time>2026-04-30T06:48:02.999Z</time></trkpt><trkpt lat="37.38369111271642" lon="14.370198593879179"><ele>694.8333333333334</ele><time>2026-04-30T06:48:04.999Z</time></trkpt><trkpt lat="37.383575503398184" lon="14.370176162218351"><ele>692.6666666666667</ele><time>2026-04-30T06:48:06.999Z</time></trkpt><trkpt lat="37.383462510576905" lon="14.370151729934076"><ele>690.5</ele><time>2026-04-30T06:48:08.999Z</time></trkpt><trkpt lat="37.38339811174964" lon="14.370139412748786"><ele>688.3333333333334</ele><time>2026-04-30T06:48:09.999Z</time></trkpt><trkpt lat="37.383329597057916" lon="14.370103088561892"><ele>686.1666666666666</ele><time>2026-04-30T06:48:10.999Z</time></trkpt><trkpt lat="37.383272577694214" lon="14.370058219199422"><ele>684.0</ele><time>2026-04-30T06:48:11.999Z</time></trkpt><trkpt lat="37.383188823077035" lon="14.37000790007664"><ele>684.0</ele><time>2026-04-30T06:48:13.999Z</time></trkpt><trkpt lat="37.38308566752883" lon="14.369990447907623"><ele>684.0</ele><time>2026-04-30T06:48:15.999Z</time></trkpt><trkpt lat="37.38300043530613" lon="14.369940665252788"><ele>684.0</ele><time>2026-04-30T06:48:17.999Z</time></trkpt><trkpt lat="37.38297369367494" lon="14.369824219206835"><ele>684.0</ele><time>2026-04-30T06:48:19.999Z</time></trkpt><trkpt lat="37.382997767654544" lon="14.36971370469445"><ele>684.0</ele><time>2026-04-30T06:48:20.999Z</time></trkpt><trkpt lat="37.38302973520217" lon="14.369611161129926"><ele>683.6</ele><time>2026-04-30T06:48:21.999Z</time></trkpt><trkpt lat="37.38305699823618" lon="14.369516561485232"><ele>683.2</ele><time>2026-04-30T06:48:22.999Z</time></trkpt><trkpt lat="37.383076888463854" lon="14.36941151086997"><ele>682.8000000000001</ele><time>2026-04-30T06:48:23.999Z</time></trkpt><trkpt lat="37.3830806314848" lon="14.369292023170694"><ele>682.4000000000001</ele><time>2026-04-30T06:48:24.998Z</time></trkpt><trkpt lat="37.38306726273066" lon="14.369171246263607"><ele>682.0</ele><time>2026-04-30T06:48:25.998Z</time></trkpt><trkpt lat="37.383047047395515" lon="14.369057062137564"><ele>682.0</ele><time>2026-04-30T06:48:26.998Z</time></trkpt><trkpt lat="37.38302158924482" lon="14.368962745027723"><ele>682.0</ele><time>2026-04-30T06:48:27.998Z</time></trkpt><trkpt lat="37.38299495731933" lon="14.368826160650197"><ele>682.0</ele><time>2026-04-30T06:48:29.998Z</time></trkpt><trkpt lat="37.383011102246485" lon="14.36868910993193"><ele>682.0</ele><time>2026-04-30T06:48:31.998Z</time></trkpt><trkpt lat="37.38312033849358" lon="14.368683408753288"><ele>682.0</ele><time>2026-04-30T06:48:32.998Z</time></trkpt><trkpt lat="37.38311222000667" lon="14.368595595072367"><ele>681.6666666666667</ele><time>2026-04-30T06:48:33.998Z</time></trkpt><trkpt lat="37.38317532257432" lon="14.368576872743844"><ele>681.3333333333334</ele><time>2026-04-30T06:48:34.998Z</time></trkpt><trkpt lat="37.38323972713129" lon="14.368446268633853"><ele>681.0</ele><time>2026-04-30T06:48:36.998Z</time></trkpt><trkpt lat="37.3832442357873" lon="14.368357989898907"><ele>680.6666666666666</ele><time>2026-04-30T06:48:37.998Z</time></trkpt><trkpt lat="37.38322514876606" lon="14.368262074984198"><ele>680.3333333333333</ele><time>2026-04-30T06:48:38.998Z</time></trkpt><trkpt lat="37.38320130442704" lon="14.36817385075697"><ele>680.0</ele><time>2026-04-30T06:48:40Z</time></trkpt><trkpt lat="37.38317763484058" lon="14.368092258388389"><ele>681.0</ele><time>2026-04-30T06:48:41Z</time></trkpt><trkpt lat="37.38314888559006" lon="14.368013978211081"><ele>682.0</ele><time>2026-04-30T06:48:42Z</time></trkpt><trkpt lat="37.38311139658461" lon="14.367938656817122"><ele>683.0</ele><time>2026-04-30T06:48:43Z</time></trkpt><trkpt lat="37.38306273603306" lon="14.367868838171024"><ele>684.0</ele><time>2026-04-30T06:48:44Z</time></trkpt><trkpt lat="37.38299420880444" lon="14.367798781783183"><ele>685.0</ele><time>2026-04-30T06:48:45Z</time></trkpt><trkpt lat="37.38290833579498" lon="14.367736248211113"><ele>686.0</ele><time>2026-04-30T06:48:46Z</time></trkpt><trkpt lat="37.382828853563964" lon="14.367673216970937"><ele>681.8</ele><time>2026-04-30T06:48:47Z</time></trkpt><trkpt lat="37.38276681753872" lon="14.367591702176721"><ele>677.5999999999999</ele><time>2026-04-30T06:48:48Z</time></trkpt><trkpt lat="37.382714365052564" lon="14.367489170688806"><ele>673.4</ele><time>2026-04-30T06:48:49Z</time></trkpt><trkpt lat="37.382660296720346" lon="14.367382132198513"><ele>669.2</ele><time>2026-04-30T06:48:50Z</time></trkpt><trkpt lat="37.38259925873604" lon="14.36727818119519"><ele>665.0</ele><time>2026-04-30T06:48:51Z</time></trkpt><trkpt lat="37.382541336638795" lon="14.367181440230357"><ele>664.4</ele><time>2026-04-30T06:48:52Z</time></trkpt><trkpt lat="37.38248186313404" lon="14.367085709584485"><ele>663.8</ele><time>2026-04-30T06:48:53Z</time></trkpt><trkpt lat="37.38241896484726" lon="14.366988576634787"><ele>663.2</ele><time>2026-04-30T06:48:54Z</time></trkpt><trkpt lat="37.38235342646382" lon="14.366886262208263"><ele>662.6</ele><time>2026-04-30T06:48:55Z</time></trkpt><trkpt lat="37.38228813799788" lon="14.366792372315699"><ele>662.0</ele><time>2026-04-30T06:48:56Z</time></trkpt><trkpt lat="37.3822229951248" lon="14.36669489323691"><ele>662.6666666666666</ele><time>2026-04-30T06:48:57Z</time></trkpt><trkpt lat="37.382165811510575" lon="14.36659715511925"><ele>663.3333333333333</ele><time>2026-04-30T06:48:58Z</time></trkpt><trkpt lat="37.382117712680156" lon="14.36649761746026"><ele>664.0</ele><time>2026-04-30T06:48:59Z</time></trkpt><trkpt lat="37.38209740469944" lon="14.366382251001173"><ele>664.6666666666666</ele><time>2026-04-30T06:49:00Z</time></trkpt><trkpt lat="37.38210696453956" lon="14.366272080701764"><ele>665.3333333333334</ele><time>2026-04-30T06:49:01Z</time></trkpt><trkpt lat="37.38209056286953" lon="14.36618612549669"><ele>666.0</ele><time>2026-04-30T06:49:02Z</time></trkpt><trkpt lat="37.38202875636378" lon="14.366116794320961"><ele>663.5999999999999</ele><time>2026-04-30T06:49:03Z</time></trkpt><trkpt lat="37.38193765088352" lon="14.36606356656716"><ele>661.2</ele><time>2026-04-30T06:49:04Z</time></trkpt><trkpt lat="37.381832461359906" lon="14.366024697327747"><ele>658.8</ele><time>2026-04-30T06:49:05Z</time></trkpt><trkpt lat="37.38173744025291" lon="14.365977249825871"><ele>656.4000000000001</ele><time>2026-04-30T06:49:06Z</time></trkpt><trkpt lat="37.381641872102854" lon="14.365913660370316"><ele>654.0</ele><time>2026-04-30T06:49:07Z</time></trkpt><trkpt lat="37.381540481005416" lon="14.365845840563917"><ele>654.0</ele><time>2026-04-30T06:49:07.999Z</time></trkpt><trkpt lat="37.38144133506238" lon="14.365768771327653"><ele>654.0</ele><time>2026-04-30T06:49:08.999Z</time></trkpt><trkpt lat="37.38134187749409" lon="14.365694877207922"><ele>654.0</ele><time>2026-04-30T06:49:09.999Z</time></trkpt><trkpt lat="37.381248694247176" lon="14.36562607980903"><ele>654.0</ele><time>2026-04-30T06:49:10.999Z</time></trkpt><trkpt lat="37.38115453610485" lon="14.365558316113182"><ele>654.0</ele><time>2026-04-30T06:49:11.999Z</time></trkpt><trkpt lat="37.3810634931929" lon="14.365491050111059"><ele>652.6666666666666</ele><time>2026-04-30T06:49:12.999Z</time></trkpt><trkpt lat="37.38098017243754" lon="14.365432390804228"><ele>651.3333333333334</ele><time>2026-04-30T06:49:13.999Z</time></trkpt><trkpt lat="37.38089991777125" lon="14.365375456439672"><ele>650.0</ele><time>2026-04-30T06:49:14.999Z</time></trkpt><trkpt lat="37.38082539941589" lon="14.365318707492625"><ele>648.6666666666667</ele><time>2026-04-30T06:49:15.999Z</time></trkpt><trkpt lat="37.38076274387435" lon="14.365268219551137"><ele>647.3333333333334</ele><time>2026-04-30T06:49:16.999Z</time></trkpt><trkpt lat="37.38071689048065" lon="14.365187079469331"><ele>646.0</ele><time>2026-04-30T06:49:18.999Z</time></trkpt><trkpt lat="37.38074960858934" lon="14.365049392678081"><ele>646.0</ele><time>2026-04-30T06:49:20.999Z</time></trkpt><trkpt lat="37.38078436527801" lon="14.364950503516758"><ele>646.0</ele><time>2026-04-30T06:49:21.999Z</time></trkpt><trkpt lat="37.38081225406891" lon="14.364833314693328"><ele>646.0</ele><time>2026-04-30T06:49:22.999Z</time></trkpt><trkpt lat="37.38085129690458" lon="14.364715587327009"><ele>646.0</ele><time>2026-04-30T06:49:23.999Z</time></trkpt><trkpt lat="37.38090745826783" lon="14.364605506612833"><ele>646.0</ele><time>2026-04-30T06:49:24.999Z</time></trkpt><trkpt lat="37.380959560690584" lon="14.364501335071397"><ele>645.5999999999999</ele><time>2026-04-30T06:49:25.999Z</time></trkpt><trkpt lat="37.381005816652056" lon="14.364395428097163"><ele>645.2</ele><time>2026-04-30T06:49:26.999Z</time></trkpt><trkpt lat="37.381044850020885" lon="14.364275390402105"><ele>644.8</ele><time>2026-04-30T06:49:27.999Z</time></trkpt><trkpt lat="37.38107742990156" lon="14.364144129016138"><ele>644.4000000000001</ele><time>2026-04-30T06:49:28.999Z</time></trkpt><trkpt lat="37.38109970429981" lon="14.363999852697736"><ele>644.0</ele><time>2026-04-30T06:49:29.999Z</time></trkpt><trkpt lat="37.38111106381781" lon="14.363840789689034"><ele>643.25</ele><time>2026-04-30T06:49:30.999Z</time></trkpt><trkpt lat="37.38111503821426" lon="14.363670993977655"><ele>642.5</ele><time>2026-04-30T06:49:31.999Z</time></trkpt><trkpt lat="37.38111947590786" lon="14.363496874561857"><ele>641.75</ele><time>2026-04-30T06:49:32.999Z</time></trkpt><trkpt lat="37.38112267147234" lon="14.363315217557206"><ele>641.0</ele><time>2026-04-30T06:49:33.999Z</time></trkpt><trkpt lat="37.38112621421366" lon="14.363126503696952"><ele>640.3333333333333</ele><time>2026-04-30T06:49:34.999Z</time></trkpt><trkpt lat="37.381131274902295" lon="14.362934352090678"><ele>639.6666666666666</ele><time>2026-04-30T06:49:35.999Z</time></trkpt><trkpt lat="37.381140077506416" lon="14.362744118279311"><ele>639.0</ele><time>2026-04-30T06:49:36.999Z</time></trkpt><trkpt lat="37.38116109362023" lon="14.362557448640631"><ele>639.0</ele><time>2026-04-30T06:49:37.999Z</time></trkpt><trkpt lat="37.381202777420256" lon="14.362370376923767"><ele>639.0</ele><time>2026-04-30T06:49:38.999Z</time></trkpt><trkpt lat="37.38126043401657" lon="14.362183772423263"><ele>639.0</ele><time>2026-04-30T06:49:39.999Z</time></trkpt><trkpt lat="37.381338530827016" lon="14.361993876966944"><ele>640.0</ele><time>2026-04-30T06:49:40.999Z</time></trkpt><trkpt lat="37.381411398460415" lon="14.361811347229168"><ele>641.0</ele><time>2026-04-30T06:49:41.999Z</time></trkpt><trkpt lat="37.381476122538245" lon="14.361645365714146"><ele>642.0</ele><time>2026-04-30T06:49:42.999Z</time></trkpt><trkpt lat="37.38153656478088" lon="14.361491816670105"><ele>643.0</ele><time>2026-04-30T06:49:43.999Z</time></trkpt><trkpt lat="37.38159084954225" lon="14.36134863154224"><ele>640.0</ele><time>2026-04-30T06:49:44.999Z</time></trkpt><trkpt lat="37.38164773864951" lon="14.361219970188692"><ele>637.0</ele><time>2026-04-30T06:49:45.999Z</time></trkpt><trkpt lat="37.38172203409041" lon="14.361107206303373"><ele>634.0</ele><time>2026-04-30T06:49:46.999Z</time></trkpt><trkpt lat="37.38181979356852" lon="14.361009396578114"><ele>631.0</ele><time>2026-04-30T06:49:47.999Z</time></trkpt><trkpt lat="37.38191692136059" lon="14.360928657141795"><ele>631.0</ele><time>2026-04-30T06:49:48.999Z</time></trkpt><trkpt lat="37.38200099231993" lon="14.360845892395993"><ele>631.0</ele><time>2026-04-30T06:49:49.999Z</time></trkpt><trkpt lat="37.38206192416506" lon="14.360737854101076"><ele>631.0</ele><time>2026-04-30T06:49:50.999Z</time></trkpt><trkpt lat="37.38209764659283" lon="14.360596226135407"><ele>631.0</ele><time>2026-04-30T06:49:51.999Z</time></trkpt><trkpt lat="37.3821188193741" lon="14.360435422899087"><ele>630.25</ele><time>2026-04-30T06:49:52.999Z</time></trkpt><trkpt lat="37.38213683800017" lon="14.360266911471943"><ele>629.5</ele><time>2026-04-30T06:49:53.999Z</time></trkpt><trkpt lat="37.382156984622824" lon="14.360099974896912"><ele>628.75</ele><time>2026-04-30T06:49:54.999Z</time></trkpt><trkpt lat="37.38217958261959" lon="14.3599439444056"><ele>628.0</ele><time>2026-04-30T06:49:55.999Z</time></trkpt><trkpt lat="37.38220663194192" lon="14.359807750719083"><ele>627.1999999999999</ele><time>2026-04-30T06:49:56.999Z</time></trkpt><trkpt lat="37.382243369408116" lon="14.359691508879335"><ele>626.4</ele><time>2026-04-30T06:49:57.999Z</time></trkpt><trkpt lat="37.382311275675136" lon="14.359596890069188"><ele>625.5999999999999</ele><time>2026-04-30T06:49:58.999Z</time></trkpt><trkpt lat="37.38241288126049" lon="14.359521976247963"><ele>624.8</ele><time>2026-04-30T06:49:59.999Z</time></trkpt><trkpt lat="37.38253394117333" lon="14.359472955835495"><ele>624.0</ele><time>2026-04-30T06:50:00.999Z</time></trkpt><trkpt lat="37.382658715122936" lon="14.359440327360081"><ele>624.0</ele><time>2026-04-30T06:50:01.999Z</time></trkpt><trkpt lat="37.38278135889015" lon="14.35940087695392"><ele>624.0</ele><time>2026-04-30T06:50:02.999Z</time></trkpt><trkpt lat="37.382901488525135" lon="14.359352474265929"><ele>624.0</ele><time>2026-04-30T06:50:03.999Z</time></trkpt><trkpt lat="37.38302225147865" lon="14.359302020754141"><ele>624.0</ele><time>2026-04-30T06:50:04.999Z</time></trkpt><trkpt lat="37.38314023391056" lon="14.359232595978987"><ele>624.0</ele><time>2026-04-30T06:50:05.999Z</time></trkpt><trkpt lat="37.38325510662499" lon="14.359137015418408"><ele>624.0</ele><time>2026-04-30T06:50:06.999Z</time></trkpt><trkpt lat="37.38336368232027" lon="14.359024962613013"><ele>624.0</ele><time>2026-04-30T06:50:07.999Z</time></trkpt><trkpt lat="37.383462510670476" lon="14.358906356202167"><ele>624.0</ele><time>2026-04-30T06:50:08.999Z</time></trkpt><trkpt lat="37.383551563588014" lon="14.358794822696913"><ele>621.75</ele><time>2026-04-30T06:50:09.999Z</time></trkpt><trkpt lat="37.383628933040875" lon="14.358683118757236"><ele>619.5</ele><time>2026-04-30T06:50:10.999Z</time></trkpt><trkpt lat="37.3836894302045" lon="14.358562409822659"><ele>617.25</ele><time>2026-04-30T06:50:11.999Z</time></trkpt><trkpt lat="37.38372152426835" lon="14.358417220133619"><ele>615.0</ele><time>2026-04-30T06:50:12.999Z</time></trkpt><trkpt lat="37.38372138657881" lon="14.358253073881897"><ele>615.0</ele><time>2026-04-30T06:50:13.999Z</time></trkpt><trkpt lat="37.38369840939537" lon="14.35809260284061"><ele>615.0</ele><time>2026-04-30T06:50:14.999Z</time></trkpt><trkpt lat="37.3836698847495" lon="14.357947477568624"><ele>615.0</ele><time>2026-04-30T06:50:15.999Z</time></trkpt><trkpt lat="37.383650096599865" lon="14.357815496832917"><ele>615.0</ele><time>2026-04-30T06:50:16.999Z</time></trkpt><trkpt lat="37.38362946550017" lon="14.357696260326772"><ele>616.0</ele><time>2026-04-30T06:50:17.999Z</time></trkpt><trkpt lat="37.38360043444723" lon="14.35759139292893"><ele>617.0</ele><time>2026-04-30T06:50:18.999Z</time></trkpt><trkpt lat="37.38355994151376" lon="14.357520431891414"><ele>618.0</ele><time>2026-04-30T06:50:19.999Z</time></trkpt><trkpt lat="37.38350046539568" lon="14.357393869015736"><ele>619.0</ele><time>2026-04-30T06:50:21.999Z</time></trkpt><trkpt lat="37.383559713630405" lon="14.357275643010327"><ele>620.0</ele><time>2026-04-30T06:50:23.999Z</time></trkpt><trkpt lat="37.383636842497374" lon="14.35724252428704"><ele>621.5</ele><time>2026-04-30T06:50:24.999Z</time></trkpt><trkpt lat="37.38374581860007" lon="14.357200705448712"><ele>623.0</ele><time>2026-04-30T06:50:25.999Z</time></trkpt><trkpt lat="37.383857375169164" lon="14.357152296769764"><ele>624.5</ele><time>2026-04-30T06:50:26.999Z</time></trkpt><trkpt lat="37.38397015502403" lon="14.357096695267234"><ele>626.0</ele><time>2026-04-30T06:50:27.999Z</time></trkpt><trkpt lat="37.38408015432396" lon="14.35703348442332"><ele>627.0</ele><time>2026-04-30T06:50:28.999Z</time></trkpt><trkpt lat="37.384188841674714" lon="14.356983402634679"><ele>628.0</ele><time>2026-04-30T06:50:29.999Z</time></trkpt><trkpt lat="37.384302223516215" lon="14.356929395478321"><ele>629.0</ele><time>2026-04-30T06:50:30.999Z</time></trkpt><trkpt lat="37.38442028054734" lon="14.356882210559062"><ele>630.0</ele><time>2026-04-30T06:50:31.999Z</time></trkpt><trkpt lat="37.384550243938996" lon="14.356844939299396"><ele>630.5</ele><time>2026-04-30T06:50:32.998Z</time></trkpt><trkpt lat="37.384684560415394" lon="14.356817242393015"><ele>631.0</ele><time>2026-04-30T06:50:33.998Z</time></trkpt><trkpt lat="37.38482061728522" lon="14.356784217650073"><ele>631.5</ele><time>2026-04-30T06:50:34.998Z</time></trkpt><trkpt lat="37.38495141073072" lon="14.356741546988214"><ele>632.0</ele><time>2026-04-30T06:50:35.998Z</time></trkpt><trkpt lat="37.38506572575471" lon="14.356688321382492"><ele>632.0</ele><time>2026-04-30T06:50:36.998Z</time></trkpt><trkpt lat="37.38517272856509" lon="14.356613533673904"><ele>632.0</ele><time>2026-04-30T06:50:37.998Z</time></trkpt><trkpt lat="37.38529271977358" lon="14.356551923154155"><ele>632.0</ele><time>2026-04-30T06:50:38.998Z</time></trkpt><trkpt lat="37.38541508526416" lon="14.356486805880738"><ele>632.0</ele><time>2026-04-30T06:50:39.998Z</time></trkpt><trkpt lat="37.38554440356778" lon="14.35648264140242"><ele>631.5</ele><time>2026-04-30T06:50:40.998Z</time></trkpt><trkpt lat="37.38569894220643" lon="14.356485597287486"><ele>631.0</ele><time>2026-04-30T06:50:41.998Z</time></trkpt><trkpt lat="37.38585130617154" lon="14.356487973467406"><ele>630.5</ele><time>2026-04-30T06:50:42.998Z</time></trkpt><trkpt lat="37.38598685393474" lon="14.356506194194035"><ele>630.0</ele><time>2026-04-30T06:50:43.998Z</time></trkpt><trkpt lat="37.38612252331754" lon="14.356530621006153"><ele>630.0</ele><time>2026-04-30T06:50:44.998Z</time></trkpt><trkpt lat="37.386267930994464" lon="14.356557631846346"><ele>630.0</ele><time>2026-04-30T06:50:46Z</time></trkpt><trkpt lat="37.38642383574251" lon="14.356568835080314"><ele>630.0</ele><time>2026-04-30T06:50:47Z</time></trkpt><trkpt lat="37.38659093041119" lon="14.356566081638437"><ele>630.0</ele><time>2026-04-30T06:50:48Z</time></trkpt><trkpt lat="37.386750126734185" lon="14.35654916505088"><ele>630.0</ele><time>2026-04-30T06:50:49Z</time></trkpt><trkpt lat="37.38690704735626" lon="14.356525689429393"><ele>630.0</ele><time>2026-04-30T06:50:50Z</time></trkpt><trkpt lat="37.38706682399509" lon="14.356501491904833"><ele>631.3333333333334</ele><time>2026-04-30T06:50:51Z</time></trkpt><trkpt lat="37.38723202185616" lon="14.356480628583245"><ele>632.6666666666667</ele><time>2026-04-30T06:50:52Z</time></trkpt><trkpt lat="37.387394879254884" lon="14.356460605936526"><ele>634.0</ele><time>2026-04-30T06:50:53Z</time></trkpt><trkpt lat="37.38755232822071" lon="14.356443315097009"><ele>634.0</ele><time>2026-04-30T06:50:54Z</time></trkpt><trkpt lat="37.387696399295166" lon="14.35644234869546"><ele>634.0</ele><time>2026-04-30T06:50:55Z</time></trkpt><trkpt lat="37.38783363551377" lon="14.356490212065095"><ele>634.0</ele><time>2026-04-30T06:50:56Z</time></trkpt><trkpt lat="37.38797939385136" lon="14.356516918521883"><ele>634.0</ele><time>2026-04-30T06:50:57Z</time></trkpt><trkpt lat="37.388128453921944" lon="14.35655728010868"><ele>635.3333333333334</ele><time>2026-04-30T06:50:58Z</time></trkpt><trkpt lat="37.38828463940463" lon="14.356590931488913"><ele>636.6666666666666</ele><time>2026-04-30T06:50:59Z</time></trkpt><trkpt lat="37.38844162800936" lon="14.356626009758354"><ele>638.0</ele><time>2026-04-30T06:51:00Z</time></trkpt><trkpt lat="37.3885965518706" lon="14.356660855759568"><ele>638.0</ele><time>2026-04-30T06:51:01Z</time></trkpt><trkpt lat="37.388752984086615" lon="14.356689904735212"><ele>638.0</ele><time>2026-04-30T06:51:02Z</time></trkpt><trkpt lat="37.3889092952482" lon="14.356709669001338"><ele>638.0</ele><time>2026-04-30T06:51:03Z</time></trkpt><trkpt lat="37.38906912513047" lon="14.35673119073326"><ele>639.3333333333333</ele><time>2026-04-30T06:51:04Z</time></trkpt><trkpt lat="37.38923349651858" lon="14.356755112539377"><ele>640.6666666666666</ele><time>2026-04-30T06:51:05Z</time></trkpt><trkpt lat="37.38940520909824" lon="14.356759285568256"><ele>642.0</ele><time>2026-04-30T06:51:06Z</time></trkpt><trkpt lat="37.38957571982112" lon="14.356728933116601"><ele>642.6666666666666</ele><time>2026-04-30T06:51:07Z</time></trkpt><trkpt lat="37.38974892755061" lon="14.356654378979522"><ele>643.3333333333333</ele><time>2026-04-30T06:51:08Z</time></trkpt><trkpt lat="37.389912796192526" lon="14.35657219176105"><ele>644.0</ele><time>2026-04-30T06:51:09Z</time></trkpt><trkpt lat="37.39007214689475" lon="14.356502813076714"><ele>644.0</ele><time>2026-04-30T06:51:10Z</time></trkpt><trkpt lat="37.39022343063421" lon="14.356436666192502"><ele>644.0</ele><time>2026-04-30T06:51:11Z</time></trkpt><trkpt lat="37.39037251911881" lon="14.356369350177866"><ele>644.0</ele><time>2026-04-30T06:51:12Z</time></trkpt><trkpt lat="37.390517868794035" lon="14.356293213074151"><ele>650.3333333333333</ele><time>2026-04-30T06:51:13Z</time></trkpt><trkpt lat="37.39066366085678" lon="14.356217777436601"><ele>656.6666666666666</ele><time>2026-04-30T06:51:14Z</time></trkpt><trkpt lat="37.390807288979495" lon="14.356148791545923"><ele>663.0</ele><time>2026-04-30T06:51:14.999Z</time></trkpt><trkpt lat="37.39094919009159" lon="14.356084436957257"><ele>663.0</ele><time>2026-04-30T06:51:15.999Z</time></trkpt><trkpt lat="37.39108842706843" lon="14.356025411189036"><ele>663.0</ele><time>2026-04-30T06:51:16.999Z</time></trkpt><trkpt lat="37.391228947969445" lon="14.355960688938367"><ele>663.0</ele><time>2026-04-30T06:51:17.999Z</time></trkpt><trkpt lat="37.39136480342839" lon="14.355892170105474"><ele>663.0</ele><time>2026-04-30T06:51:18.999Z</time></trkpt><trkpt lat="37.39149929590367" lon="14.355827358362973"><ele>663.75</ele><time>2026-04-30T06:51:19.999Z</time></trkpt><trkpt lat="37.39162996738317" lon="14.355768320035937"><ele>664.5</ele><time>2026-04-30T06:51:20.999Z</time></trkpt><trkpt lat="37.3917630227376" lon="14.355714465097472"><ele>665.25</ele><time>2026-04-30T06:51:21.999Z</time></trkpt><trkpt lat="37.391895384991074" lon="14.355667934407371"><ele>666.0</ele><time>2026-04-30T06:51:22.999Z</time></trkpt><trkpt lat="37.39202821015825" lon="14.355624919533039"><ele>666.0</ele><time>2026-04-30T06:51:23.999Z</time></trkpt><trkpt lat="37.39216011053711" lon="14.355575712468399"><ele>666.0</ele><time>2026-04-30T06:51:24.999Z</time></trkpt><trkpt lat="37.39229244822303" lon="14.35552514571381"><ele>666.0</ele><time>2026-04-30T06:51:25.999Z</time></trkpt><trkpt lat="37.39242188153319" lon="14.355486694608969"><ele>666.0</ele><time>2026-04-30T06:51:26.999Z</time></trkpt><trkpt lat="37.39254672525248" lon="14.355453287404837"><ele>668.5999999999999</ele><time>2026-04-30T06:51:27.999Z</time></trkpt><trkpt lat="37.39265738919618" lon="14.355422999173447"><ele>671.2</ele><time>2026-04-30T06:51:28.999Z</time></trkpt><trkpt lat="37.39276320945849" lon="14.355379645630522"><ele>673.8</ele><time>2026-04-30T06:51:29.999Z</time></trkpt><trkpt lat="37.392865310158555" lon="14.355322260836983"><ele>676.4000000000001</ele><time>2026-04-30T06:51:30.999Z</time></trkpt><trkpt lat="37.39295733154777" lon="14.355250210639435"><ele>679.0</ele><time>2026-04-30T06:51:31.999Z</time></trkpt><trkpt lat="37.39303222814046" lon="14.355173245197902"><ele>679.0</ele><time>2026-04-30T06:51:32.999Z</time></trkpt><trkpt lat="37.39309045495157" lon="14.355088993755665"><ele>679.0</ele><time>2026-04-30T06:51:33.999Z</time></trkpt><trkpt lat="37.393136376095896" lon="14.354996753726192"><ele>679.0</ele><time>2026-04-30T06:51:34.999Z</time></trkpt><trkpt lat="37.39316915173933" lon="14.35488737840089"><ele>679.0</ele><time>2026-04-30T06:51:35.999Z</time></trkpt><trkpt lat="37.39318596926233" lon="14.354777649581868"><ele>679.0</ele><time>2026-04-30T06:51:36.999Z</time></trkpt><trkpt lat="37.393193224359315" lon="14.354681177814472"><ele>679.0</ele><time>2026-04-30T06:51:37.999Z</time></trkpt><trkpt lat="37.393205376404296" lon="14.354599792547802"><ele>680.5</ele><time>2026-04-30T06:51:38.999Z</time></trkpt><trkpt lat="37.393256904160914" lon="14.35446077773776"><ele>682.0</ele><time>2026-04-30T06:51:40.999Z</time></trkpt><trkpt lat="37.393306262296406" lon="14.354407252062218"><ele>683.5</ele><time>2026-04-30T06:51:41.999Z</time></trkpt><trkpt lat="37.39342618002259" lon="14.354378966623164"><ele>685.0</ele><time>2026-04-30T06:51:43.999Z</time></trkpt><trkpt lat="37.39349021099406" lon="14.354395873063236"><ele>686.5</ele><time>2026-04-30T06:51:44.999Z</time></trkpt><trkpt lat="37.39355151334265" lon="14.354437223653042"><ele>688.0</ele><time>2026-04-30T06:51:45.999Z</time></trkpt><trkpt lat="37.39360347779933" lon="14.354503551493782"><ele>688.0</ele><time>2026-04-30T06:51:46.999Z</time></trkpt><trkpt lat="37.39365510180249" lon="14.3545760472392"><ele>688.0</ele><time>2026-04-30T06:51:47.999Z</time></trkpt><trkpt lat="37.39370720749857" lon="14.354644682653356"><ele>688.0</ele><time>2026-04-30T06:51:48.999Z</time></trkpt><trkpt lat="37.393756594622516" lon="14.354714488278264"><ele>688.0</ele><time>2026-04-30T06:51:49.999Z</time></trkpt><trkpt lat="37.39380758157066" lon="14.354784338359782"><ele>688.0</ele><time>2026-04-30T06:51:50.999Z</time></trkpt><trkpt lat="37.393882491112194" lon="14.354863553891533"><ele>688.0</ele><time>2026-04-30T06:51:52.999Z</time></trkpt><trkpt lat="37.39391635727772" lon="14.354657403052922"><ele>688.0</ele><time>2026-04-30T06:51:57.999Z</time></trkpt><trkpt lat="37.393897306389796" lon="14.354576494241194"><ele>688.0</ele><time>2026-04-30T06:51:58.999Z</time></trkpt><trkpt lat="37.39381748101381" lon="14.354480963876195"><ele>688.0</ele><time>2026-04-30T06:51:59.999Z</time></trkpt><trkpt lat="37.39376995773298" lon="14.354367966223668"><ele>688.0</ele><time>2026-04-30T06:52:00.999Z</time></trkpt><trkpt lat="37.39372904712944" lon="14.354250857365962"><ele>688.0</ele><time>2026-04-30T06:52:01.999Z</time></trkpt><trkpt lat="37.39369619618692" lon="14.354125470794102"><ele>688.0</ele><time>2026-04-30T06:52:02.999Z</time></trkpt><trkpt lat="37.39366410366084" lon="14.35399736424094"><ele>688.0</ele><time>2026-04-30T06:52:03.999Z</time></trkpt><trkpt lat="37.39363267027537" lon="14.353860079098464"><ele>688.0</ele><time>2026-04-30T06:52:04.999Z</time></trkpt><trkpt lat="37.393610330566865" lon="14.353718909307124"><ele>688.0</ele><time>2026-04-30T06:52:05.999Z</time></trkpt><trkpt lat="37.39357904222694" lon="14.35358498280185"><ele>688.0</ele><time>2026-04-30T06:52:06.999Z</time></trkpt><trkpt lat="37.393524693618126" lon="14.353485895491318"><ele>690.5999999999999</ele><time>2026-04-30T06:52:07.999Z</time></trkpt><trkpt lat="37.39344699893649" lon="14.353407247214617"><ele>693.1999999999999</ele><time>2026-04-30T06:52:08.999Z</time></trkpt><trkpt lat="37.393349121493586" lon="14.353346107005269"><ele>695.8</ele><time>2026-04-30T06:52:09.999Z</time></trkpt><trkpt lat="37.39323665874394" lon="14.353320838865676"><ele>698.4</ele><time>2026-04-30T06:52:10.999Z</time></trkpt><trkpt lat="37.3931307806513" lon="14.353353262428355"><ele>701.0</ele><time>2026-04-30T06:52:11.999Z</time></trkpt><trkpt lat="37.39303760090794" lon="14.353355061638323"><ele>703.5999999999999</ele><time>2026-04-30T06:52:12.999Z</time></trkpt><trkpt lat="37.39296908993835" lon="14.353355910627874"><ele>706.2</ele><time>2026-04-30T06:52:13.999Z</time></trkpt><trkpt lat="37.392913701475926" lon="14.353308731353918"><ele>708.8</ele><time>2026-04-30T06:52:14.999Z</time></trkpt><trkpt lat="37.39288050011438" lon="14.35318026805354"><ele>711.4000000000001</ele><time>2026-04-30T06:52:15.999Z</time></trkpt><trkpt lat="37.39287561279778" lon="14.353041425098208"><ele>714.0</ele><time>2026-04-30T06:52:16.999Z</time></trkpt><trkpt lat="37.39290916378089" lon="14.352926194997194"><ele>714.6666666666666</ele><time>2026-04-30T06:52:17.999Z</time></trkpt><trkpt lat="37.39299870718117" lon="14.352855717544726"><ele>715.3333333333334</ele><time>2026-04-30T06:52:18.999Z</time></trkpt><trkpt lat="37.393058340255834" lon="14.352778558752826"><ele>716.0</ele><time>2026-04-30T06:52:19.999Z</time></trkpt><trkpt lat="37.39312359867011" lon="14.35271838513157"><ele>716.6666666666667</ele><time>2026-04-30T06:52:20.999Z</time></trkpt><trkpt lat="37.393182760924645" lon="14.352661650431802"><ele>717.3333333333334</ele><time>2026-04-30T06:52:21.999Z</time></trkpt><trkpt lat="37.393259708227625" lon="14.352632794877621"><ele>718.0</ele><time>2026-04-30T06:52:22.999Z</time></trkpt><trkpt lat="37.39336333092141" lon="14.352640042894414"><ele>718.0</ele><time>2026-04-30T06:52:23.999Z</time></trkpt><trkpt lat="37.39348032074485" lon="14.352701536499003"><ele>718.0</ele><time>2026-04-30T06:52:24.999Z</time></trkpt><trkpt lat="37.393604219788166" lon="14.352728362116133"><ele>718.0</ele><time>2026-04-30T06:52:25.999Z</time></trkpt><trkpt lat="37.393714513660704" lon="14.352777526371895"><ele>718.0</ele><time>2026-04-30T06:52:26.999Z</time></trkpt><trkpt lat="37.39383756510811" lon="14.352832631081512"><ele>720.5</ele><time>2026-04-30T06:52:27.999Z</time></trkpt><trkpt lat="37.39396366572688" lon="14.352879413314183"><ele>723.0</ele><time>2026-04-30T06:52:28.999Z</time></trkpt><trkpt lat="37.39408810398756" lon="14.352921028388662"><ele>725.5</ele><time>2026-04-30T06:52:29.999Z</time></trkpt><trkpt lat="37.39422107870617" lon="14.352955397319569"><ele>728.0</ele><time>2026-04-30T06:52:30.999Z</time></trkpt><trkpt lat="37.394366466590284" lon="14.352970836651634"><ele>728.0</ele><time>2026-04-30T06:52:31.999Z</time></trkpt><trkpt lat="37.3945176358241" lon="14.35298244846222"><ele>728.0</ele><time>2026-04-30T06:52:32.999Z</time></trkpt><trkpt lat="37.39467150011517" lon="14.353007815497346"><ele>728.0</ele><time>2026-04-30T06:52:33.999Z</time></trkpt><trkpt lat="37.39482939085823" lon="14.353036585521128"><ele>729.25</ele><time>2026-04-30T06:52:34.999Z</time></trkpt><trkpt lat="37.39498463999471" lon="14.353060311974899"><ele>730.5</ele><time>2026-04-30T06:52:35.999Z</time></trkpt><trkpt lat="37.39512341347606" lon="14.353076328805605"><ele>731.75</ele><time>2026-04-30T06:52:36.999Z</time></trkpt><trkpt lat="37.39525563207088" lon="14.353075191507644"><ele>733.0</ele><time>2026-04-30T06:52:37.999Z</time></trkpt><trkpt lat="37.39537250094632" lon="14.353056433397459"><ele>734.25</ele><time>2026-04-30T06:52:38.999Z</time></trkpt><trkpt lat="37.39548085188248" lon="14.353022376285432"><ele>735.5</ele><time>2026-04-30T06:52:39.998Z</time></trkpt><trkpt lat="37.39559095495816" lon="14.352968899668372"><ele>736.75</ele><time>2026-04-30T06:52:40.998Z</time></trkpt><trkpt lat="37.395705559566125" lon="14.352892075626809"><ele>738.0</ele><time>2026-04-30T06:52:41.998Z</time></trkpt><trkpt lat="37.395824981617885" lon="14.352794751810059"><ele>739.3333333333334</ele><time>2026-04-30T06:52:42.998Z</time></trkpt><trkpt lat="37.395943581578955" lon="14.352674507402586"><ele>740.6666666666667</ele><time>2026-04-30T06:52:43.998Z</time></trkpt><trkpt lat="37.39605466804305" lon="14.352529682511296"><ele>742.0</ele><time>2026-04-30T06:52:44.998Z</time></trkpt><trkpt lat="37.39615806567679" lon="14.352377311871184"><ele>742.0</ele><time>2026-04-30T06:52:45.998Z</time></trkpt><trkpt lat="37.39625460464421" lon="14.352216235732959"><ele>742.0</ele><time>2026-04-30T06:52:46.998Z</time></trkpt><trkpt lat="37.396339033352156" lon="14.352044614497974"><ele>742.0</ele><time>2026-04-30T06:52:47.998Z</time></trkpt><trkpt lat="37.39639542970529" lon="14.351862469580341"><ele>744.0</ele><time>2026-04-30T06:52:48.998Z</time></trkpt><trkpt lat="37.39643223561257" lon="14.351686090933281"><ele>746.0</ele><time>2026-04-30T06:52:49.998Z</time></trkpt><trkpt lat="37.396466760536" lon="14.351515627173612"><ele>748.0</ele><time>2026-04-30T06:52:50.998Z</time></trkpt><trkpt lat="37.39650899187776" lon="14.351362260719949"><ele>750.0</ele><time>2026-04-30T06:52:52Z</time></trkpt><trkpt lat="37.39656464417576" lon="14.351234154562961"><ele>750.0</ele><time>2026-04-30T06:52:53Z</time></trkpt><trkpt lat="37.39664417358652" lon="14.351146556339113"><ele>750.0</ele><time>2026-04-30T06:52:54Z</time></trkpt><trkpt lat="37.3967254883181" lon="14.35104613919851"><ele>750.0</ele><time>2026-04-30T06:52:55Z</time></trkpt><trkpt lat="37.39681999686117" lon="14.350921882692157"><ele>750.0</ele><time>2026-04-30T06:52:56Z</time></trkpt><trkpt lat="37.39693145188437" lon="14.35079914949425"><ele>750.0</ele><time>2026-04-30T06:52:57Z</time></trkpt><trkpt lat="37.397049356494676" lon="14.350665114451624"><ele>750.0</ele><time>2026-04-30T06:52:58Z</time></trkpt><trkpt lat="37.39716391271557" lon="14.350530338218809"><ele>750.0</ele><time>2026-04-30T06:52:59Z</time></trkpt><trkpt lat="37.39727770496018" lon="14.350395918298814"><ele>748.6666666666666</ele><time>2026-04-30T06:53:00Z</time></trkpt><trkpt lat="37.397390844693376" lon="14.350261836793273"><ele>747.3333333333333</ele><time>2026-04-30T06:53:01Z</time></trkpt><trkpt lat="37.39750432589212" lon="14.350123567919779"><ele>746.0</ele><time>2026-04-30T06:53:02Z</time></trkpt><trkpt lat="37.39762484258321" lon="14.34998580007357"><ele>746.0</ele><time>2026-04-30T06:53:03Z</time></trkpt><trkpt lat="37.397748516296076" lon="14.349839018666682"><ele>746.0</ele><time>2026-04-30T06:53:04Z</time></trkpt><trkpt lat="37.39786942478617" lon="14.349692985216631"><ele>746.0</ele><time>2026-04-30T06:53:05Z</time></trkpt><trkpt lat="37.397986702205976" lon="14.349549718925203"><ele>748.3333333333333</ele><time>2026-04-30T06:53:06Z</time></trkpt><trkpt lat="37.3981046911229" lon="14.349411103740906"><ele>750.6666666666666</ele><time>2026-04-30T06:53:07Z</time></trkpt><trkpt lat="37.398224403630955" lon="14.349278066731195"><ele>753.0</ele><time>2026-04-30T06:53:08Z</time></trkpt><trkpt lat="37.398341628249796" lon="14.349149972817385"><ele>753.0</ele><time>2026-04-30T06:53:09Z</time></trkpt><trkpt lat="37.398464176296756" lon="14.349022041225451"><ele>753.0</ele><time>2026-04-30T06:53:10Z</time></trkpt><trkpt lat="37.39858860000733" lon="14.348903602494074"><ele>753.0</ele><time>2026-04-30T06:53:11Z</time></trkpt><trkpt lat="37.398709024713014" lon="14.348792933331088"><ele>753.25</ele><time>2026-04-30T06:53:12Z</time></trkpt><trkpt lat="37.39881965581869" lon="14.348685761213398"><ele>753.5</ele><time>2026-04-30T06:53:13Z</time></trkpt><trkpt lat="37.39892629915798" lon="14.348581512937647"><ele>753.75</ele><time>2026-04-30T06:53:14Z</time></trkpt><trkpt lat="37.39903234823309" lon="14.348479622720722"><ele>754.0</ele><time>2026-04-30T06:53:15Z</time></trkpt><trkpt lat="37.39914824009767" lon="14.34836796497482"><ele>754.0</ele><time>2026-04-30T06:53:16Z</time></trkpt><trkpt lat="37.39926586100221" lon="14.348248828457294"><ele>754.0</ele><time>2026-04-30T06:53:17Z</time></trkpt><trkpt lat="37.39938056071502" lon="14.348136310869437"><ele>754.0</ele><time>2026-04-30T06:53:18Z</time></trkpt><trkpt lat="37.399488296800314" lon="14.348029975456749"><ele>754.0</ele><time>2026-04-30T06:53:19Z</time></trkpt><trkpt lat="37.39958671875853" lon="14.347918037658086"><ele>755.0</ele><time>2026-04-30T06:53:20Z</time></trkpt><trkpt lat="37.39966398213003" lon="14.347779596282225"><ele>756.0</ele><time>2026-04-30T06:53:20.999Z</time></trkpt><trkpt lat="37.39973779621905" lon="14.347632501599113"><ele>757.0</ele><time>2026-04-30T06:53:21.999Z</time></trkpt><trkpt lat="37.39980466492675" lon="14.347471615111644"><ele>758.0</ele><time>2026-04-30T06:53:22.999Z</time></trkpt><trkpt lat="37.3998611360445" lon="14.347288452836924"><ele>754.0</ele><time>2026-04-30T06:53:23.999Z</time></trkpt><trkpt lat="37.399911031120645" lon="14.347095891655588"><ele>750.0</ele><time>2026-04-30T06:53:24.999Z</time></trkpt><trkpt lat="37.3999621585939" lon="14.346914023426045"><ele>746.0</ele><time>2026-04-30T06:53:25.999Z</time></trkpt><trkpt lat="37.400012305625125" lon="14.346737885558404"><ele>746.0</ele><time>2026-04-30T06:53:26.999Z</time></trkpt><trkpt lat="37.4000446238908" lon="14.346558104728413"><ele>746.0</ele><time>2026-04-30T06:53:27.999Z</time></trkpt><trkpt lat="37.40005046119882" lon="14.346376697663972"><ele>746.0</ele><time>2026-04-30T06:53:28.999Z</time></trkpt><trkpt lat="37.40002157947643" lon="14.346190645084524"><ele>746.0</ele><time>2026-04-30T06:53:29.999Z</time></trkpt><trkpt lat="37.39998335768388" lon="14.346003232211421"><ele>745.6666666666666</ele><time>2026-04-30T06:53:30.999Z</time></trkpt><trkpt lat="37.39997462920805" lon="14.345815519344251"><ele>745.3333333333334</ele><time>2026-04-30T06:53:31.999Z</time></trkpt><trkpt lat="37.399956463951796" lon="14.345614113485793"><ele>745.0</ele><time>2026-04-30T06:53:32.999Z</time></trkpt><trkpt lat="37.39994078702744" lon="14.34541308507095"><ele>745.0</ele><time>2026-04-30T06:53:33.999Z</time></trkpt><trkpt lat="37.39991081441108" lon="14.34522750438324"><ele>745.0</ele><time>2026-04-30T06:53:34.999Z</time></trkpt><trkpt lat="37.39989619889364" lon="14.345047315494176"><ele>745.0</ele><time>2026-04-30T06:53:35.999Z</time></trkpt><trkpt lat="37.399852981018974" lon="14.344864832006504"><ele>745.0</ele><time>2026-04-30T06:53:36.999Z</time></trkpt><trkpt lat="37.399787862093426" lon="14.34468785873642"><ele>744.5</ele><time>2026-04-30T06:53:37.999Z</time></trkpt><trkpt lat="37.399720881617824" lon="14.344528705711976"><ele>744.0</ele><time>2026-04-30T06:53:38.999Z</time></trkpt><trkpt lat="37.399662348787196" lon="14.344378591610143"><ele>743.5</ele><time>2026-04-30T06:53:39.999Z</time></trkpt><trkpt lat="37.39961289980178" lon="14.344230563568637"><ele>743.0</ele><time>2026-04-30T06:53:40.999Z</time></trkpt><trkpt lat="37.39957140727052" lon="14.344082351759976"><ele>743.0</ele><time>2026-04-30T06:53:41.999Z</time></trkpt><trkpt lat="37.39954775707358" lon="14.343917115641247"><ele>743.0</ele><time>2026-04-30T06:53:42.999Z</time></trkpt><trkpt lat="37.39951391785745" lon="14.343749935779787"><ele>743.0</ele><time>2026-04-30T06:53:43.999Z</time></trkpt><trkpt lat="37.3994815340309" lon="14.343581396071942"><ele>743.0</ele><time>2026-04-30T06:53:44.999Z</time></trkpt><trkpt lat="37.399439426549506" lon="14.34342691524529"><ele>741.75</ele><time>2026-04-30T06:53:45.999Z</time></trkpt><trkpt lat="37.39941217197654" lon="14.343282965840967"><ele>740.5</ele><time>2026-04-30T06:53:46.999Z</time></trkpt><trkpt lat="37.39938139933395" lon="14.34315070615085"><ele>739.25</ele><time>2026-04-30T06:53:47.999Z</time></trkpt><trkpt lat="37.39934841782979" lon="14.34301617108134"><ele>738.0</ele><time>2026-04-30T06:53:48.999Z</time></trkpt><trkpt lat="37.399325149208416" lon="14.342874172852452"><ele>738.0</ele><time>2026-04-30T06:53:49.999Z</time></trkpt><trkpt lat="37.39931559459444" lon="14.34271434602353"><ele>738.0</ele><time>2026-04-30T06:53:50.999Z</time></trkpt><trkpt lat="37.399326545764005" lon="14.342554239253356"><ele>738.0</ele><time>2026-04-30T06:53:51.999Z</time></trkpt><trkpt lat="37.39935881235968" lon="14.342413691298383"><ele>738.0</ele><time>2026-04-30T06:53:52.999Z</time></trkpt><trkpt lat="37.39939854363341" lon="14.342297903304692"><ele>739.2</ele><time>2026-04-30T06:53:53.999Z</time></trkpt><trkpt lat="37.399447631414056" lon="14.342208344860145"><ele>740.4</ele><time>2026-04-30T06:53:54.999Z</time></trkpt><trkpt lat="37.399508110119314" lon="14.342138680055681"><ele>741.6</ele><time>2026-04-30T06:53:55.999Z</time></trkpt><trkpt lat="37.3995943522103" lon="14.342065713487978"><ele>742.8000000000001</ele><time>2026-04-30T06:53:56.999Z</time></trkpt><trkpt lat="37.399695239440355" lon="14.341983456252661"><ele>744.0</ele><time>2026-04-30T06:53:57.999Z</time></trkpt><trkpt lat="37.39979353311251" lon="14.341885720820951"><ele>744.0</ele><time>2026-04-30T06:53:58.999Z</time></trkpt><trkpt lat="37.39989215872796" lon="14.34177357051084"><ele>744.0</ele><time>2026-04-30T06:53:59.999Z</time></trkpt><trkpt lat="37.39999432683107" lon="14.341637429623143"><ele>744.0</ele><time>2026-04-30T06:54:00.999Z</time></trkpt><trkpt lat="37.400098008272735" lon="14.341498739545179"><ele>744.0</ele><time>2026-04-30T06:54:01.999Z</time></trkpt><trkpt lat="37.40020318969668" lon="14.341361348544932"><ele>741.6666666666666</ele><time>2026-04-30T06:54:02.999Z</time></trkpt><trkpt lat="37.40031088925498" lon="14.34122166638761"><ele>739.3333333333333</ele><time>2026-04-30T06:54:03.999Z</time></trkpt><trkpt lat="37.400415277770776" lon="14.341083704592206"><ele>737.0</ele><time>2026-04-30T06:54:04.999Z</time></trkpt><trkpt lat="37.40053017043067" lon="14.340961642796021"><ele>737.0</ele><time>2026-04-30T06:54:05.999Z</time></trkpt><trkpt lat="37.40062944232916" lon="14.340816313134555"><ele>737.0</ele><time>2026-04-30T06:54:06.999Z</time></trkpt><trkpt lat="37.40074287670487" lon="14.340682268874247"><ele>737.0</ele><time>2026-04-30T06:54:07.999Z</time></trkpt><trkpt lat="37.40085548063286" lon="14.34054867188381"><ele>734.75</ele><time>2026-04-30T06:54:08.999Z</time></trkpt><trkpt lat="37.400967800993755" lon="14.34041547794964"><ele>732.5</ele><time>2026-04-30T06:54:09.999Z</time></trkpt><trkpt lat="37.40107549147396" lon="14.340282193719819"><ele>730.25</ele><time>2026-04-30T06:54:10.999Z</time></trkpt><trkpt lat="37.40114905916734" lon="14.340181131666185"><ele>728.0</ele><time>2026-04-30T06:54:11.999Z</time></trkpt><trkpt lat="37.40122158915544" lon="14.340117992272813"><ele>728.0</ele><time>2026-04-30T06:54:12.999Z</time></trkpt><trkpt lat="37.40129305216079" lon="14.340030657131067"><ele>728.0</ele><time>2026-04-30T06:54:13.999Z</time></trkpt><trkpt lat="37.401377788461254" lon="14.339919338270326"><ele>728.0</ele><time>2026-04-30T06:54:14.999Z</time></trkpt><trkpt lat="37.40146818658964" lon="14.339794592547351"><ele>728.0</ele><time>2026-04-30T06:54:15.999Z</time></trkpt><trkpt lat="37.40155397230473" lon="14.339672407928582"><ele>727.5</ele><time>2026-04-30T06:54:16.999Z</time></trkpt><trkpt lat="37.40163358256278" lon="14.339553132022228"><ele>727.0</ele><time>2026-04-30T06:54:17.999Z</time></trkpt><trkpt lat="37.4016996661931" lon="14.339427672393379"><ele>726.5</ele><time>2026-04-30T06:54:18.999Z</time></trkpt><trkpt lat="37.40177517560644" lon="14.339316484041007"><ele>726.0</ele><time>2026-04-30T06:54:19.999Z</time></trkpt><trkpt lat="37.40185482559374" lon="14.33920867808483"><ele>726.0</ele><time>2026-04-30T06:54:20.999Z</time></trkpt><trkpt lat="37.401952718246946" lon="14.339122405883948"><ele>726.0</ele><time>2026-04-30T06:54:21.999Z</time></trkpt><trkpt lat="37.40203294382187" lon="14.339006595986298"><ele>726.0</ele><time>2026-04-30T06:54:22.999Z</time></trkpt><trkpt lat="37.402124495879995" lon="14.338908946906349"><ele>726.0</ele><time>2026-04-30T06:54:23.999Z</time></trkpt><trkpt lat="37.40220477662997" lon="14.33882057448949"><ele>723.1999999999999</ele><time>2026-04-30T06:54:24.999Z</time></trkpt><trkpt lat="37.402271596992406" lon="14.338734402402682"><ele>720.4</ele><time>2026-04-30T06:54:25.999Z</time></trkpt><trkpt lat="37.402314746574085" lon="14.338636379803615"><ele>717.6</ele><time>2026-04-30T06:54:26.999Z</time></trkpt><trkpt lat="37.40232433644257" lon="14.338527970177072"><ele>714.8</ele><time>2026-04-30T06:54:27.999Z</time></trkpt><trkpt lat="37.402296836265336" lon="14.338413778450565"><ele>712.0</ele><time>2026-04-30T06:54:28.999Z</time></trkpt><trkpt lat="37.40224504614377" lon="14.338293321281999"><ele>712.0</ele><time>2026-04-30T06:54:29.999Z</time></trkpt><trkpt lat="37.40218701692701" lon="14.338169840643959"><ele>712.0</ele><time>2026-04-30T06:54:30.999Z</time></trkpt><trkpt lat="37.40213170322632" lon="14.338044602270804"><ele>712.0</ele><time>2026-04-30T06:54:31.999Z</time></trkpt><trkpt lat="37.402068975175524" lon="14.33792133948892"><ele>712.0</ele><time>2026-04-30T06:54:32.999Z</time></trkpt><trkpt lat="37.40199492880053" lon="14.337800734127466"><ele>711.0</ele><time>2026-04-30T06:54:33.999Z</time></trkpt><trkpt lat="37.40190837950034" lon="14.337685642058652"><ele>710.0</ele><time>2026-04-30T06:54:34.999Z</time></trkpt><trkpt lat="37.40182155305747" lon="14.33757214880074"><ele>709.0</ele><time>2026-04-30T06:54:35.999Z</time></trkpt><trkpt lat="37.40173525664211" lon="14.337474737478873"><ele>708.0</ele><time>2026-04-30T06:54:36.999Z</time></trkpt><trkpt lat="37.401636556662304" lon="14.337404597105511"><ele>708.0</ele><time>2026-04-30T06:54:37.999Z</time></trkpt><trkpt lat="37.40153685271302" lon="14.337373768635556"><ele>708.0</ele><time>2026-04-30T06:54:38.999Z</time></trkpt><trkpt lat="37.40146646371037" lon="14.337360793172756"><ele>708.0</ele><time>2026-04-30T06:54:39.999Z</time></trkpt><trkpt lat="37.40140018690566" lon="14.337419723175564"><ele>708.0</ele><time>2026-04-30T06:54:41.999Z</time></trkpt><trkpt lat="37.40134722102685" lon="14.337508067569331"><ele>708.0</ele><time>2026-04-30T06:54:42.999Z</time></trkpt><trkpt lat="37.40135870164678" lon="14.337668690673311"><ele>708.0</ele><time>2026-04-30T06:54:43.999Z</time></trkpt><trkpt lat="37.40136597653524" lon="14.337810613025805"><ele>708.0</ele><time>2026-04-30T06:54:44.999Z</time></trkpt><trkpt lat="37.40138569168544" lon="14.337944575572429"><ele>708.0</ele><time>2026-04-30T06:54:45.998Z</time></trkpt><trkpt lat="37.40139407151686" lon="14.338079041818311"><ele>708.0</ele><time>2026-04-30T06:54:46.998Z</time></trkpt><trkpt lat="37.40140868718942" lon="14.3381935167404"><ele>708.0</ele><time>2026-04-30T06:54:47.998Z</time></trkpt><trkpt lat="37.40140862570593" lon="14.338281881762859"><ele>709.3333333333334</ele><time>2026-04-30T06:54:48.998Z</time></trkpt><trkpt lat="37.40139883209836" lon="14.338363172927993"><ele>710.6666666666666</ele><time>2026-04-30T06:54:49.998Z</time></trkpt><trkpt lat="37.40132689431472" lon="14.338416661184366"><ele>712.0</ele><time>2026-04-30T06:54:50.998Z</time></trkpt><trkpt lat="37.401220780373706" lon="14.338411856886081"><ele>713.3333333333333</ele><time>2026-04-30T06:54:51.998Z</time></trkpt><trkpt lat="37.40112913508497" lon="14.338443693659482"><ele>714.6666666666666</ele><time>2026-04-30T06:54:52.998Z</time></trkpt><trkpt lat="37.40106913929761" lon="14.338410225060626"><ele>716.0</ele><time>2026-04-30T06:54:53.998Z</time></trkpt><trkpt lat="37.40104155961592" lon="14.338233223430976"><ele>712.4</ele><time>2026-04-30T06:54:55.998Z</time></trkpt><trkpt lat="37.40107085810454" lon="14.338101953789772"><ele>708.8</ele><time>2026-04-30T06:54:56.998Z</time></trkpt><trkpt lat="37.401076482692794" lon="14.337943820562591"><ele>705.1999999999999</ele><time>2026-04-30T06:54:58Z</time></trkpt><trkpt lat="37.40107399926187" lon="14.337803273246136"><ele>701.5999999999999</ele><time>2026-04-30T06:54:59Z</time></trkpt><trkpt lat="37.40104313557636" lon="14.337679303304142"><ele>698.0</ele><time>2026-04-30T06:55:00Z</time></trkpt><trkpt lat="37.401001514178695" lon="14.337580158682558"><ele>696.75</ele><time>2026-04-30T06:55:01Z</time></trkpt><trkpt lat="37.400957118433816" lon="14.337522775536346"><ele>695.5</ele><time>2026-04-30T06:55:02Z</time></trkpt><trkpt lat="37.40081078766714" lon="14.337511970765187"><ele>694.25</ele><time>2026-04-30T06:55:04Z</time></trkpt><trkpt lat="37.400740555342495" lon="14.337632072268907"><ele>693.0</ele><time>2026-04-30T06:55:05Z</time></trkpt><trkpt lat="37.400680137026846" lon="14.337772177246876"><ele>693.0</ele><time>2026-04-30T06:55:06Z</time></trkpt><trkpt lat="37.40061057818216" lon="14.33791434789321"><ele>693.0</ele><time>2026-04-30T06:55:07Z</time></trkpt><trkpt lat="37.40056530759956" lon="14.338036249588715"><ele>693.0</ele><time>2026-04-30T06:55:08Z</time></trkpt><trkpt lat="37.400525528624186" lon="14.338128194425034"><ele>693.0</ele><time>2026-04-30T06:55:09Z</time></trkpt><trkpt lat="37.40045494505841" lon="14.338177282243272"><ele>693.0</ele><time>2026-04-30T06:55:10Z</time></trkpt><trkpt lat="37.4003653173243" lon="14.338152746361958"><ele>691.2</ele><time>2026-04-30T06:55:11Z</time></trkpt><trkpt lat="37.40026598689631" lon="14.33815566437379"><ele>689.4</ele><time>2026-04-30T06:55:12Z</time></trkpt><trkpt lat="37.40017723766069" lon="14.3381523321225"><ele>687.6</ele><time>2026-04-30T06:55:13Z</time></trkpt><trkpt lat="37.40008159258456" lon="14.338109021275425"><ele>685.8000000000001</ele><time>2026-04-30T06:55:15Z</time></trkpt><trkpt lat="37.40008920596909" lon="14.33800961491013"><ele>684.0</ele><time>2026-04-30T06:55:16Z</time></trkpt><trkpt lat="37.400169590708956" lon="14.337909335596656"><ele>682.0</ele><time>2026-04-30T06:55:17Z</time></trkpt><trkpt lat="37.40024313895411" lon="14.337798705764571"><ele>680.0</ele><time>2026-04-30T06:55:18Z</time></trkpt><trkpt lat="37.4003058386438" lon="14.337705471316282"><ele>678.0</ele><time>2026-04-30T06:55:19Z</time></trkpt><trkpt lat="37.40031310060777" lon="14.337572909797275"><ele>676.0</ele><time>2026-04-30T06:55:20Z</time></trkpt><trkpt lat="37.40027569442526" lon="14.337429670600926"><ele>674.0</ele><time>2026-04-30T06:55:21Z</time></trkpt><trkpt lat="37.40023027854476" lon="14.337301101918337"><ele>672.0</ele><time>2026-04-30T06:55:22Z</time></trkpt><trkpt lat="37.40019239635826" lon="14.337187336236672"><ele>670.0</ele><time>2026-04-30T06:55:23Z</time></trkpt><trkpt lat="37.40014719681605" lon="14.337102222410454"><ele>668.0</ele><time>2026-04-30T06:55:24Z</time></trkpt><trkpt lat="37.40009997034837" lon="14.337037043905296"><ele>666.0</ele><time>2026-04-30T06:55:25Z</time></trkpt><trkpt lat="37.39999834004407" lon="14.337037371675716"><ele>664.0</ele><time>2026-04-30T06:55:25.999Z</time></trkpt><trkpt lat="37.39989828352964" lon="14.337113437136022"><ele>664.0</ele><time>2026-04-30T06:55:26.999Z</time></trkpt><trkpt lat="37.39979893115918" lon="14.337211724472475"><ele>664.0</ele><time>2026-04-30T06:55:27.999Z</time></trkpt><trkpt lat="37.39969830807985" lon="14.337275853969123"><ele>664.0</ele><time>2026-04-30T06:55:28.999Z</time></trkpt><trkpt lat="37.39961951173576" lon="14.337337492724345"><ele>664.0</ele><time>2026-04-30T06:55:29.999Z</time></trkpt><trkpt lat="37.39955273176316" lon="14.33735948646234"><ele>664.0</ele><time>2026-04-30T06:55:30.999Z</time></trkpt><trkpt lat="37.39948505319836" lon="14.337340930075959"><ele>665.2</ele><time>2026-04-30T06:55:31.999Z</time></trkpt><trkpt lat="37.399425483601306" lon="14.337275298591837"><ele>666.4000000000001</ele><time>2026-04-30T06:55:32.999Z</time></trkpt><trkpt lat="37.39938279054906" lon="14.33718399212033"><ele>667.6</ele><time>2026-04-30T06:55:33.999Z</time></trkpt><trkpt lat="37.39940500641316" lon="14.337079551551081"><ele>668.8</ele><time>2026-04-30T06:55:34.999Z</time></trkpt><trkpt lat="37.39947211676455" lon="14.336984334195234"><ele>670.0</ele><time>2026-04-30T06:55:35.999Z</time></trkpt><trkpt lat="37.399566563126406" lon="14.336884127607139"><ele>668.5</ele><time>2026-04-30T06:55:36.999Z</time></trkpt><trkpt lat="37.39964858379749" lon="14.336763470478266"><ele>667.0</ele><time>2026-04-30T06:55:37.999Z</time></trkpt><trkpt lat="37.399721355292584" lon="14.336641892072494"><ele>665.5</ele><time>2026-04-30T06:55:38.999Z</time></trkpt><trkpt lat="37.39979117117124" lon="14.336524679540254"><ele>664.0</ele><time>2026-04-30T06:55:39.999Z</time></trkpt><trkpt lat="37.39985545378793" lon="14.336410815550765"><ele>661.8000000000001</ele><time>2026-04-30T06:55:40.999Z</time></trkpt><trkpt lat="37.39991073353848" lon="14.336312546466226"><ele>659.6</ele><time>2026-04-30T06:55:41.999Z</time></trkpt><trkpt lat="37.39996302731856" lon="14.336221429513241"><ele>657.4</ele><time>2026-04-30T06:55:42.999Z</time></trkpt><trkpt lat="37.40002245011308" lon="14.336130087594514"><ele>655.2</ele><time>2026-04-30T06:55:43.999Z</time></trkpt><trkpt lat="37.400102653505606" lon="14.336060785114594"><ele>653.0</ele><time>2026-04-30T06:55:44.999Z</time></trkpt><trkpt lat="37.40017011005852" lon="14.335966802968256"><ele>653.0</ele><time>2026-04-30T06:55:45.999Z</time></trkpt><trkpt lat="37.400235680502995" lon="14.335876810628024"><ele>653.0</ele><time>2026-04-30T06:55:46.999Z</time></trkpt><trkpt lat="37.40027871123435" lon="14.33576516488693"><ele>653.0</ele><time>2026-04-30T06:55:47.999Z</time></trkpt><trkpt lat="37.400300087215705" lon="14.335657421412485"><ele>653.0</ele><time>2026-04-30T06:55:48.999Z</time></trkpt><trkpt lat="37.40031038676517" lon="14.335567223792332"><ele>653.0</ele><time>2026-04-30T06:55:49.999Z</time></trkpt><trkpt lat="37.400257129348134" lon="14.335421388455847"><ele>655.2</ele><time>2026-04-30T06:55:51.999Z</time></trkpt><trkpt lat="37.40016850304134" lon="14.335367096656753"><ele>657.4</ele><time>2026-04-30T06:55:52.999Z</time></trkpt><trkpt lat="37.400063420171925" lon="14.335320176047576"><ele>659.6</ele><time>2026-04-30T06:55:53.999Z</time></trkpt><trkpt lat="37.39995457561073" lon="14.335293261531243"><ele>661.8000000000001</ele><time>2026-04-30T06:55:54.999Z</time></trkpt><trkpt lat="37.39985698001692" lon="14.335266399479632"><ele>664.0</ele><time>2026-04-30T06:55:55.999Z</time></trkpt><trkpt lat="37.39976387565334" lon="14.335238595550331"><ele>664.0</ele><time>2026-04-30T06:55:56.999Z</time></trkpt><trkpt lat="37.399668840690246" lon="14.335195047731156"><ele>664.0</ele><time>2026-04-30T06:55:57.999Z</time></trkpt><trkpt lat="37.39957642317853" lon="14.335113151231631"><ele>664.0</ele><time>2026-04-30T06:55:58.999Z</time></trkpt><trkpt lat="37.399490518104116" lon="14.33499834801068"><ele>664.0</ele><time>2026-04-30T06:55:59.999Z</time></trkpt><trkpt lat="37.39943347605875" lon="14.334857810498065"><ele>665.4000000000001</ele><time>2026-04-30T06:56:00.999Z</time></trkpt><trkpt lat="37.39936850969946" lon="14.334730600326012"><ele>666.8</ele><time>2026-04-30T06:56:01.999Z</time></trkpt><trkpt lat="37.39927727067061" lon="14.334657153177584"><ele>668.2</ele><time>2026-04-30T06:56:02.999Z</time></trkpt><trkpt lat="37.39917256054489" lon="14.334599136327826"><ele>669.5999999999999</ele><time>2026-04-30T06:56:03.999Z</time></trkpt><trkpt lat="37.39908180075437" lon="14.33453498930475"><ele>671.0</ele><time>2026-04-30T06:56:04.999Z</time></trkpt><trkpt lat="37.399042549162154" lon="14.33440727861732"><ele>671.0</ele><time>2026-04-30T06:56:05.999Z</time></trkpt><trkpt lat="37.399026758689985" lon="14.334252323399214"><ele>671.0</ele><time>2026-04-30T06:56:06.999Z</time></trkpt><trkpt lat="37.398997437608394" lon="14.334073731780046"><ele>671.0</ele><time>2026-04-30T06:56:07.999Z</time></trkpt><trkpt lat="37.398968296687066" lon="14.333884140693595"><ele>671.0</ele><time>2026-04-30T06:56:08.999Z</time></trkpt><trkpt lat="37.398943740733394" lon="14.333701646401028"><ele>673.75</ele><time>2026-04-30T06:56:09.999Z</time></trkpt><trkpt lat="37.39892948937008" lon="14.33352891587055"><ele>676.5</ele><time>2026-04-30T06:56:10.999Z</time></trkpt><trkpt lat="37.39892093187745" lon="14.333349665618648"><ele>679.25</ele><time>2026-04-30T06:56:11.999Z</time></trkpt><trkpt lat="37.3989166889463" lon="14.333180268810052"><ele>682.0</ele><time>2026-04-30T06:56:12.999Z</time></trkpt><trkpt lat="37.39891308191576" lon="14.333011423158101"><ele>682.25</ele><time>2026-04-30T06:56:13.999Z</time></trkpt><trkpt lat="37.39891017247606" lon="14.332850449571854"><ele>682.5</ele><time>2026-04-30T06:56:14.999Z</time></trkpt><trkpt lat="37.398908136424446" lon="14.332688852015428"><ele>682.75</ele><time>2026-04-30T06:56:15.999Z</time></trkpt><trkpt lat="37.39890753934254" lon="14.332528655373933"><ele>683.0</ele><time>2026-04-30T06:56:16.999Z</time></trkpt><trkpt lat="37.39891188628161" lon="14.332367489022841"><ele>681.0</ele><time>2026-04-30T06:56:17.999Z</time></trkpt><trkpt lat="37.39893933722515" lon="14.33221260718383"><ele>679.0</ele><time>2026-04-30T06:56:18.999Z</time></trkpt><trkpt lat="37.39898705210353" lon="14.33207221805758"><ele>677.0</ele><time>2026-04-30T06:56:19.999Z</time></trkpt><trkpt lat="37.399048397716875" lon="14.331917596667052"><ele>675.0</ele><time>2026-04-30T06:56:20.999Z</time></trkpt><trkpt lat="37.39911695162838" lon="14.331764650713566"><ele>675.0</ele><time>2026-04-30T06:56:21.999Z</time></trkpt><trkpt lat="37.39918662754844" lon="14.331597596169766"><ele>675.0</ele><time>2026-04-30T06:56:22.999Z</time></trkpt><trkpt lat="37.399282636026655" lon="14.331438240023203"><ele>675.0</ele><time>2026-04-30T06:56:23.999Z</time></trkpt><trkpt lat="37.39939415861087" lon="14.331288874958608"><ele>678.0</ele><time>2026-04-30T06:56:24.999Z</time></trkpt><trkpt lat="37.3994903197718" lon="14.33113170908919"><ele>681.0</ele><time>2026-04-30T06:56:25.999Z</time></trkpt><trkpt lat="37.39958390330714" lon="14.330978756493538"><ele>684.0</ele><time>2026-04-30T06:56:26.999Z</time></trkpt><trkpt lat="37.399677901985164" lon="14.330820968507668"><ele>684.0</ele><time>2026-04-30T06:56:27.999Z</time></trkpt><trkpt lat="37.39977254943048" lon="14.330655340272196"><ele>684.0</ele><time>2026-04-30T06:56:28.999Z</time></trkpt><trkpt lat="37.399869060921695" lon="14.330485555759607"><ele>684.0</ele><time>2026-04-30T06:56:29.999Z</time></trkpt><trkpt lat="37.39996854051515" lon="14.330313954562726"><ele>680.3333333333334</ele><time>2026-04-30T06:56:30.999Z</time></trkpt><trkpt lat="37.400070006719055" lon="14.330150743134652"><ele>676.6666666666667</ele><time>2026-04-30T06:56:31.999Z</time></trkpt><trkpt lat="37.40016196745281" lon="14.32999388409801"><ele>673.0</ele><time>2026-04-30T06:56:32.999Z</time></trkpt><trkpt lat="37.40023465874402" lon="14.329834053092384"><ele>674.3333333333334</ele><time>2026-04-30T06:56:33.999Z</time></trkpt><trkpt lat="37.400319563014854" lon="14.329685223418265"><ele>675.6666666666666</ele><time>2026-04-30T06:56:34.999Z</time></trkpt><trkpt lat="37.40041968737172" lon="14.329540113877178"><ele>677.0</ele><time>2026-04-30T06:56:35.999Z</time></trkpt><trkpt lat="37.40051611549113" lon="14.32938494562761"><ele>677.0</ele><time>2026-04-30T06:56:36.999Z</time></trkpt><trkpt lat="37.40061185917813" lon="14.329234926946311"><ele>677.0</ele><time>2026-04-30T06:56:37.999Z</time></trkpt><trkpt lat="37.40070708467478" lon="14.329091331542697"><ele>677.0</ele><time>2026-04-30T06:56:38.999Z</time></trkpt><trkpt lat="37.40080597798048" lon="14.328950208378867"><ele>675.3333333333333</ele><time>2026-04-30T06:56:39.999Z</time></trkpt><trkpt lat="37.40090590702327" lon="14.32881073951363"><ele>673.6666666666666</ele><time>2026-04-30T06:56:40.999Z</time></trkpt><trkpt lat="37.40099717938044" lon="14.328664440028783"><ele>672.0</ele><time>2026-04-30T06:56:41.999Z</time></trkpt><trkpt lat="37.40109856047837" lon="14.328519384143322"><ele>672.0</ele><time>2026-04-30T06:56:42.999Z</time></trkpt><trkpt lat="37.40121362630918" lon="14.328389752699163"><ele>672.0</ele><time>2026-04-30T06:56:43.999Z</time></trkpt><trkpt lat="37.40130561966838" lon="14.328259581029835"><ele>672.0</ele><time>2026-04-30T06:56:44.999Z</time></trkpt><trkpt lat="37.401386002599665" lon="14.32814749176482"><ele>672.0</ele><time>2026-04-30T06:56:45.999Z</time></trkpt><trkpt lat="37.401452688766945" lon="14.328055987110393"><ele>673.5</ele><time>2026-04-30T06:56:46.999Z</time></trkpt><trkpt lat="37.40150619698468" lon="14.327985393397107"><ele>675.0</ele><time>2026-04-30T06:56:47.999Z</time></trkpt><trkpt lat="37.4015465111411" lon="14.327915900874135"><ele>676.5</ele><time>2026-04-30T06:56:48.999Z</time></trkpt><trkpt lat="37.40161252139441" lon="14.327888224362246"><ele>678.0</ele><time>2026-04-30T06:56:49.999Z</time></trkpt><trkpt lat="37.40167426836292" lon="14.327868702832617"><ele>679.5</ele><time>2026-04-30T06:56:50.999Z</time></trkpt><trkpt lat="37.40174934523288" lon="14.327892113737482"><ele>681.0</ele><time>2026-04-30T06:56:51.999Z</time></trkpt><trkpt lat="37.40186910321083" lon="14.32791685844112"><ele>681.0</ele><time>2026-04-30T06:56:52.998Z</time></trkpt><trkpt lat="37.40199964517445" lon="14.327950709009762"><ele>681.0</ele><time>2026-04-30T06:56:53.998Z</time></trkpt><trkpt lat="37.40212437470965" lon="14.327982162603726"><ele>681.0</ele><time>2026-04-30T06:56:54.998Z</time></trkpt><trkpt lat="37.402233396190574" lon="14.328029073849303"><ele>681.0</ele><time>2026-04-30T06:56:55.998Z</time></trkpt><trkpt lat="37.402350236045635" lon="14.328074515989924"><ele>680.75</ele><time>2026-04-30T06:56:56.998Z</time></trkpt><trkpt lat="37.40247025504837" lon="14.32812537861535"><ele>680.5</ele><time>2026-04-30T06:56:57.998Z</time></trkpt><trkpt lat="37.40260261856415" lon="14.328187148252034"><ele>680.25</ele><time>2026-04-30T06:56:58.998Z</time></trkpt><trkpt lat="37.40274672858416" lon="14.32825393064646"><ele>680.0</ele><time>2026-04-30T06:56:59.998Z</time></trkpt><trkpt lat="37.40288791403513" lon="14.328317889157464"><ele>675.75</ele><time>2026-04-30T06:57:00.998Z</time></trkpt><trkpt lat="37.403026015464555" lon="14.328380214701546"><ele>671.5</ele><time>2026-04-30T06:57:01.998Z</time></trkpt><trkpt lat="37.40316090691469" lon="14.328441091600531"><ele>667.25</ele><time>2026-04-30T06:57:02.998Z</time></trkpt><trkpt lat="37.403294628824675" lon="14.328501524020382"><ele>663.0</ele><time>2026-04-30T06:57:04Z</time></trkpt><trkpt lat="37.40342644075328" lon="14.328561719642355"><ele>663.0</ele><time>2026-04-30T06:57:05Z</time></trkpt><trkpt lat="37.403553236656116" lon="14.328619624491862"><ele>663.0</ele><time>2026-04-30T06:57:06Z</time></trkpt><trkpt lat="37.40366563203792" lon="14.328662235734162"><ele>663.0</ele><time>2026-04-30T06:57:07Z</time></trkpt><trkpt lat="37.40377027304369" lon="14.328674578830165"><ele>663.0</ele><time>2026-04-30T06:57:08Z</time></trkpt><trkpt lat="37.403883526249" lon="14.328694192084615"><ele>661.0</ele><time>2026-04-30T06:57:09Z</time></trkpt><trkpt lat="37.40401025818241" lon="14.328609409942942"><ele>659.0</ele><time>2026-04-30T06:57:10Z</time></trkpt><trkpt lat="37.40413697851215" lon="14.328559883669048"><ele>657.0</ele><time>2026-04-30T06:57:11Z</time></trkpt><trkpt lat="37.40425597022325" lon="14.328503734988875"><ele>655.0</ele><time>2026-04-30T06:57:12Z</time></trkpt><trkpt lat="37.40437322315609" lon="14.328447006690691"><ele>655.0</ele><time>2026-04-30T06:57:13Z</time></trkpt><trkpt lat="37.40448926157551" lon="14.3283879654042"><ele>655.0</ele><time>2026-04-30T06:57:14Z</time></trkpt><trkpt lat="37.40461306018449" lon="14.328324185305446"><ele>655.0</ele><time>2026-04-30T06:57:15Z</time></trkpt><trkpt lat="37.404740541361505" lon="14.328259773053656"><ele>655.0</ele><time>2026-04-30T06:57:16Z</time></trkpt><trkpt lat="37.40488395874354" lon="14.328193072464543"><ele>656.6666666666667</ele><time>2026-04-30T06:57:17Z</time></trkpt><trkpt lat="37.40503428386411" lon="14.328124689493652"><ele>658.3333333333334</ele><time>2026-04-30T06:57:18Z</time></trkpt><trkpt lat="37.405183035979526" lon="14.328058855568838"><ele>660.0</ele><time>2026-04-30T06:57:19Z</time></trkpt><trkpt lat="37.405337656974034" lon="14.327993567856591"><ele>651.0</ele><time>2026-04-30T06:57:20Z</time></trkpt><trkpt lat="37.405496225015646" lon="14.327928807919745"><ele>642.0</ele><time>2026-04-30T06:57:21Z</time></trkpt><trkpt lat="37.40564597596693" lon="14.327867648950162"><ele>633.0</ele><time>2026-04-30T06:57:22Z</time></trkpt><trkpt lat="37.40578852061057" lon="14.327806056272383"><ele>633.0</ele><time>2026-04-30T06:57:23Z</time></trkpt><trkpt lat="37.405926307154346" lon="14.327761107183917"><ele>633.0</ele><time>2026-04-30T06:57:24Z</time></trkpt><trkpt lat="37.406066372141396" lon="14.3277416317628"><ele>633.0</ele><time>2026-04-30T06:57:25Z</time></trkpt><trkpt lat="37.4062262964056" lon="14.32772910425464"><ele>633.0</ele><time>2026-04-30T06:57:26Z</time></trkpt><trkpt lat="37.40640487001697" lon="14.327720368351475"><ele>632.0</ele><time>2026-04-30T06:57:27Z</time></trkpt><trkpt lat="37.40658211430678" lon="14.327718374092562"><ele>631.0</ele><time>2026-04-30T06:57:28Z</time></trkpt><trkpt lat="37.40675414098591" lon="14.327717793557404"><ele>630.0</ele><time>2026-04-30T06:57:29Z</time></trkpt><trkpt lat="37.40692455992525" lon="14.327710513264469"><ele>630.0</ele><time>2026-04-30T06:57:30Z</time></trkpt><trkpt lat="37.407093836047856" lon="14.327685098892704"><ele>630.0</ele><time>2026-04-30T06:57:31Z</time></trkpt><trkpt lat="37.40726071513599" lon="14.327620882883219"><ele>630.0</ele><time>2026-04-30T06:57:32Z</time></trkpt><trkpt lat="37.40741893012319" lon="14.32755700699989"><ele>629.6666666666666</ele><time>2026-04-30T06:57:33Z</time></trkpt><trkpt lat="37.40756876681071" lon="14.327502538161232"><ele>629.3333333333333</ele><time>2026-04-30T06:57:33.999Z</time></trkpt><trkpt lat="37.40771072503175" lon="14.32744060354479"><ele>629.0</ele><time>2026-04-30T06:57:34.999Z</time></trkpt><trkpt lat="37.40783664588791" lon="14.32734030721607"><ele>627.3333333333333</ele><time>2026-04-30T06:57:35.999Z</time></trkpt><trkpt lat="37.40795968887172" lon="14.327226499238515"><ele>625.6666666666666</ele><time>2026-04-30T06:57:36.999Z</time></trkpt><trkpt lat="37.40807973570135" lon="14.327093907705024"><ele>624.0</ele><time>2026-04-30T06:57:37.999Z</time></trkpt><trkpt lat="37.4082152679969" lon="14.326977303171066"><ele>624.0</ele><time>2026-04-30T06:57:38.999Z</time></trkpt><trkpt lat="37.408338287790755" lon="14.326854379047784"><ele>624.0</ele><time>2026-04-30T06:57:39.999Z</time></trkpt><trkpt lat="37.40846666451575" lon="14.326733530632849"><ele>624.0</ele><time>2026-04-30T06:57:40.999Z</time></trkpt><trkpt lat="37.408601297345655" lon="14.32660968920776"><ele>624.0</ele><time>2026-04-30T06:57:41.999Z</time></trkpt><trkpt lat="37.40872903958778" lon="14.326472760786547"><ele>624.0</ele><time>2026-04-30T06:57:42.999Z</time></trkpt><trkpt lat="37.40886177011923" lon="14.326361569923122"><ele>624.0</ele><time>2026-04-30T06:57:43.999Z</time></trkpt><trkpt lat="37.408986723477256" lon="14.326250030614089"><ele>622.0</ele><time>2026-04-30T06:57:44.999Z</time></trkpt><trkpt lat="37.40910667615335" lon="14.326139959474013"><ele>620.0</ele><time>2026-04-30T06:57:45.999Z</time></trkpt><trkpt lat="37.40922510860057" lon="14.326032690344565"><ele>618.0</ele><time>2026-04-30T06:57:46.999Z</time></trkpt><trkpt lat="37.409335842400544" lon="14.32592392487605"><ele>616.0</ele><time>2026-04-30T06:57:47.999Z</time></trkpt><trkpt lat="37.4094333728806" lon="14.325796044301484"><ele>616.0</ele><time>2026-04-30T06:57:48.999Z</time></trkpt><trkpt lat="37.40952347921014" lon="14.325661684369926"><ele>616.0</ele><time>2026-04-30T06:57:49.999Z</time></trkpt><trkpt lat="37.409618209206975" lon="14.32553798195458"><ele>616.0</ele><time>2026-04-30T06:57:50.999Z</time></trkpt><trkpt lat="37.40969758675059" lon="14.325445539124674"><ele>616.0</ele><time>2026-04-30T06:57:51.999Z</time></trkpt><trkpt lat="37.40976934142104" lon="14.325410423444142"><ele>615.2</ele><time>2026-04-30T06:57:52.999Z</time></trkpt><trkpt lat="37.409826904330494" lon="14.325372979950384"><ele>614.4000000000001</ele><time>2026-04-30T06:57:53.999Z</time></trkpt><trkpt lat="37.40991198623586" lon="14.325443447233827"><ele>613.6</ele><time>2026-04-30T06:57:54.999Z</time></trkpt><trkpt lat="37.41002504418923" lon="14.325500273979939"><ele>612.8000000000001</ele><time>2026-04-30T06:57:55.999Z</time></trkpt><trkpt lat="37.410155304855216" lon="14.32556356778662"><ele>612.0</ele><time>2026-04-30T06:57:56.999Z</time></trkpt><trkpt lat="37.41028446848664" lon="14.325624559920676"><ele>612.0</ele><time>2026-04-30T06:57:57.999Z</time></trkpt><trkpt lat="37.410404087230006" lon="14.325675499425468"><ele>612.0</ele><time>2026-04-30T06:57:58.999Z</time></trkpt><trkpt lat="37.410511858936125" lon="14.32568976260078"><ele>612.0</ele><time>2026-04-30T06:57:59.999Z</time></trkpt><trkpt lat="37.41062175037491" lon="14.3257049165978"><ele>612.0</ele><time>2026-04-30T06:58:00.999Z</time></trkpt><trkpt lat="37.41073212275862" lon="14.325678069448832"><ele>610.6</ele><time>2026-04-30T06:58:01.999Z</time></trkpt><trkpt lat="37.410839515129155" lon="14.325626841012259"><ele>609.2</ele><time>2026-04-30T06:58:02.999Z</time></trkpt><trkpt lat="37.41094330681044" lon="14.325580864046097"><ele>607.8</ele><time>2026-04-30T06:58:03.999Z</time></trkpt><trkpt lat="37.41103574239096" lon="14.325544960473518"><ele>606.4</ele><time>2026-04-30T06:58:04.999Z</time></trkpt><trkpt lat="37.41110742229499" lon="14.325499958316527"><ele>605.0</ele><time>2026-04-30T06:58:05.999Z</time></trkpt><trkpt lat="37.411144727944" lon="14.325417053949861"><ele>601.75</ele><time>2026-04-30T06:58:06.999Z</time></trkpt><trkpt lat="37.4111376965548" lon="14.32530874696164"><ele>598.5</ele><time>2026-04-30T06:58:07.999Z</time></trkpt><trkpt lat="37.41109683456693" lon="14.325168204834991"><ele>595.25</ele><time>2026-04-30T06:58:08.999Z</time></trkpt><trkpt lat="37.41105543486951" lon="14.324985443743634"><ele>592.0</ele><time>2026-04-30T06:58:09.999Z</time></trkpt><trkpt lat="37.41102375725463" lon="14.324805798636373"><ele>591.25</ele><time>2026-04-30T06:58:10.999Z</time></trkpt><trkpt lat="37.410992957913365" lon="14.32462218553392"><ele>590.5</ele><time>2026-04-30T06:58:11.999Z</time></trkpt><trkpt lat="37.41096254906932" lon="14.324445262737724"><ele>589.75</ele><time>2026-04-30T06:58:12.999Z</time></trkpt><trkpt lat="37.41093772199522" lon="14.324300252939317"><ele>589.0</ele><time>2026-04-30T06:58:13.999Z</time></trkpt><trkpt lat="37.410925621928854" lon="14.324178197504981"><ele>589.0</ele><time>2026-04-30T06:58:14.999Z</time></trkpt><trkpt lat="37.41096305062028" lon="14.324064011611359"><ele>589.0</ele><time>2026-04-30T06:58:15.999Z</time></trkpt><trkpt lat="37.41104158093225" lon="14.323961636832784"><ele>589.0</ele><time>2026-04-30T06:58:16.999Z</time></trkpt><trkpt lat="37.41113366890961" lon="14.323835152428869"><ele>589.0</ele><time>2026-04-30T06:58:17.999Z</time></trkpt><trkpt lat="37.41122158137441" lon="14.323699768557072"><ele>588.6</ele><time>2026-04-30T06:58:18.999Z</time></trkpt><trkpt lat="37.41129684008049" lon="14.323594614456098"><ele>588.2</ele><time>2026-04-30T06:58:19.999Z</time></trkpt><trkpt lat="37.4113686719706" lon="14.323511901146855"><ele>587.8000000000001</ele><time>2026-04-30T06:58:20.999Z</time></trkpt><trkpt lat="37.41147671054932" lon="14.3234888751669"><ele>587.4</ele><time>2026-04-30T06:58:21.999Z</time></trkpt><trkpt lat="37.411597134798384" lon="14.323487519807326"><ele>587.0</ele><time>2026-04-30T06:58:22.999Z</time></trkpt><trkpt lat="37.41172323651456" lon="14.323488840487654"><ele>587.0</ele><time>2026-04-30T06:58:23.999Z</time></trkpt><trkpt lat="37.41184424136347" lon="14.323476317234023"><ele>587.0</ele><time>2026-04-30T06:58:24.999Z</time></trkpt><trkpt lat="37.411951872118685" lon="14.323483122471808"><ele>587.0</ele><time>2026-04-30T06:58:25.999Z</time></trkpt><trkpt lat="37.412048913058086" lon="14.323480264554641"><ele>587.0</ele><time>2026-04-30T06:58:26.999Z</time></trkpt><trkpt lat="37.41214160406993" lon="14.32344996399062"><ele>587.0</ele><time>2026-04-30T06:58:27.999Z</time></trkpt><trkpt lat="37.41223778340005" lon="14.323387003043843"><ele>587.0</ele><time>2026-04-30T06:58:28.999Z</time></trkpt><trkpt lat="37.41233599769852" lon="14.323282344296311"><ele>587.0</ele><time>2026-04-30T06:58:29.999Z</time></trkpt><trkpt lat="37.412429947614726" lon="14.32314408975973"><ele>587.0</ele><time>2026-04-30T06:58:30.999Z</time></trkpt><trkpt lat="37.41252453547047" lon="14.323003385286949"><ele>587.0</ele><time>2026-04-30T06:58:31.999Z</time></trkpt><trkpt lat="37.41263754651957" lon="14.322888816434059"><ele>584.5</ele><time>2026-04-30T06:58:32.999Z</time></trkpt><trkpt lat="37.41272465472016" lon="14.32275314558847"><ele>582.0</ele><time>2026-04-30T06:58:33.999Z</time></trkpt><trkpt lat="37.41281146838868" lon="14.322645767708147"><ele>579.5</ele><time>2026-04-30T06:58:34.999Z</time></trkpt><trkpt lat="37.41288831784914" lon="14.322536192381842"><ele>577.0</ele><time>2026-04-30T06:58:35.999Z</time></trkpt><trkpt lat="37.412955489782014" lon="14.322403246453774"><ele>577.25</ele><time>2026-04-30T06:58:36.999Z</time></trkpt><trkpt lat="37.413018828648475" lon="14.322248207397374"><ele>577.5</ele><time>2026-04-30T06:58:37.999Z</time></trkpt><trkpt lat="37.41307984637956" lon="14.32207593905833"><ele>577.75</ele><time>2026-04-30T06:58:38.999Z</time></trkpt><trkpt lat="37.413139526182626" lon="14.321910368971395"><ele>578.0</ele><time>2026-04-30T06:58:39.999Z</time></trkpt><trkpt lat="37.41320568407873" lon="14.321755572332536"><ele>578.0</ele><time>2026-04-30T06:58:40.999Z</time></trkpt><trkpt lat="37.41327217486102" lon="14.321599825954591"><ele>578.0</ele><time>2026-04-30T06:58:41.999Z</time></trkpt><trkpt lat="37.4133350939974" lon="14.321443047056576"><ele>578.0</ele><time>2026-04-30T06:58:42.999Z</time></trkpt><trkpt lat="37.41339936298677" lon="14.321285902838122"><ele>578.0</ele><time>2026-04-30T06:58:43.999Z</time></trkpt><trkpt lat="37.41345778063456" lon="14.321148363848115"><ele>576.0</ele><time>2026-04-30T06:58:44.999Z</time></trkpt><trkpt lat="37.4135093998717" lon="14.321029983918985"><ele>574.0</ele><time>2026-04-30T06:58:45.999Z</time></trkpt><trkpt lat="37.41355027539174" lon="14.320912799749225"><ele>572.0</ele><time>2026-04-30T06:58:46.999Z</time></trkpt><trkpt lat="37.41356119481329" lon="14.320786674530204"><ele>570.0</ele><time>2026-04-30T06:58:47.999Z</time></trkpt><trkpt lat="37.413525396123326" lon="14.320663240923071"><ele>568.0</ele><time>2026-04-30T06:58:48.999Z</time></trkpt><trkpt lat="37.41346409611667" lon="14.320558196390003"><ele>566.8</ele><time>2026-04-30T06:58:49.999Z</time></trkpt><trkpt lat="37.413418433119794" lon="14.320461988671344"><ele>565.5999999999999</ele><time>2026-04-30T06:58:50.999Z</time></trkpt><trkpt lat="37.41338733605084" lon="14.32036446033304"><ele>564.4000000000001</ele><time>2026-04-30T06:58:51.999Z</time></trkpt><trkpt lat="37.41335474783077" lon="14.320242321796782"><ele>563.2</ele><time>2026-04-30T06:58:52.999Z</time></trkpt><trkpt lat="37.413362167386865" lon="14.320091218088695"><ele>562.0</ele><time>2026-04-30T06:58:53.999Z</time></trkpt><trkpt lat="37.4133774219233" lon="14.319917903167141"><ele>559.3333333333334</ele><time>2026-04-30T06:58:54.999Z</time></trkpt><trkpt lat="37.41338341227627" lon="14.31972394837518"><ele>556.6666666666666</ele><time>2026-04-30T06:58:55.999Z</time></trkpt><trkpt lat="37.413406121362485" lon="14.3195341739469"><ele>554.0</ele><time>2026-04-30T06:58:56.999Z</time></trkpt><trkpt lat="37.41342294493405" lon="14.319345135774702"><ele>554.0</ele><time>2026-04-30T06:58:57.999Z</time></trkpt><trkpt lat="37.413438360810844" lon="14.319164519762227"><ele>554.0</ele><time>2026-04-30T06:58:58.999Z</time></trkpt><trkpt lat="37.4134462167013" lon="14.318991854092046"><ele>554.0</ele><time>2026-04-30T06:58:59.998Z</time></trkpt><trkpt lat="37.41343580336935" lon="14.318826323495038"><ele>554.0</ele><time>2026-04-30T06:59:00.998Z</time></trkpt><trkpt lat="37.41340570736659" lon="14.31866295776626"><ele>552.75</ele><time>2026-04-30T06:59:01.998Z</time></trkpt><trkpt lat="37.413369029948015" lon="14.318508588838545"><ele>551.5</ele><time>2026-04-30T06:59:02.998Z</time></trkpt><trkpt lat="37.413340677619054" lon="14.31836699895789"><ele>550.25</ele><time>2026-04-30T06:59:03.998Z</time></trkpt><trkpt lat="37.41335251797987" lon="14.318222661507386"><ele>549.0</ele><time>2026-04-30T06:59:04.998Z</time></trkpt><trkpt lat="37.41337086778433" lon="14.318071499947747"><ele>546.75</ele><time>2026-04-30T06:59:05.998Z</time></trkpt><trkpt lat="37.41346658166175" lon="14.317936395685194"><ele>544.5</ele><time>2026-04-30T06:59:06.998Z</time></trkpt><trkpt lat="37.413558750349246" lon="14.31777945377596"><ele>542.25</ele><time>2026-04-30T06:59:07.998Z</time></trkpt><trkpt lat="37.41363492132922" lon="14.317616280419266"><ele>540.0</ele><time>2026-04-30T06:59:08.998Z</time></trkpt><trkpt lat="37.413716789821066" lon="14.317463463458967"><ele>540.0</ele><time>2026-04-30T06:59:10Z</time></trkpt><trkpt lat="37.41380077509335" lon="14.317306705379593"><ele>540.0</ele><time>2026-04-30T06:59:11Z</time></trkpt><trkpt lat="37.41388212983536" lon="14.317156970619138"><ele>540.0</ele><time>2026-04-30T06:59:12Z</time></trkpt><trkpt lat="37.413961257900205" lon="14.31701776235451"><ele>540.0</ele><time>2026-04-30T06:59:13Z</time></trkpt><trkpt lat="37.414036424468" lon="14.316884959405431"><ele>540.75</ele><time>2026-04-30T06:59:14Z</time></trkpt><trkpt lat="37.41410153174442" lon="14.316755784826452"><ele>541.5</ele><time>2026-04-30T06:59:15Z</time></trkpt><trkpt lat="37.41416725552275" lon="14.316634606607623"><ele>542.25</ele><time>2026-04-30T06:59:16Z</time></trkpt><trkpt lat="37.414231328422254" lon="14.316519099588964"><ele>543.0</ele><time>2026-04-30T06:59:17Z</time></trkpt><trkpt lat="37.414294106719666" lon="14.316414420468853"><ele>543.0</ele><time>2026-04-30T06:59:18Z</time></trkpt><trkpt lat="37.4143598624653" lon="14.316343764612832"><ele>543.0</ele><time>2026-04-30T06:59:19Z</time></trkpt><trkpt lat="37.414431457750176" lon="14.316331786373002"><ele>543.0</ele><time>2026-04-30T06:59:20Z</time></trkpt><trkpt lat="37.41450238106232" lon="14.31641126752812"><ele>543.0</ele><time>2026-04-30T06:59:21Z</time></trkpt><trkpt lat="37.41458230228542" lon="14.316504126391077"><ele>543.0</ele><time>2026-04-30T06:59:22Z</time></trkpt><trkpt lat="37.41468227291615" lon="14.316582990474874"><ele>544.75</ele><time>2026-04-30T06:59:23Z</time></trkpt><trkpt lat="37.41478116291292" lon="14.316666031806015"><ele>546.5</ele><time>2026-04-30T06:59:24Z</time></trkpt><trkpt lat="37.41488283423355" lon="14.316743396642309"><ele>548.25</ele><time>2026-04-30T06:59:25Z</time></trkpt><trkpt lat="37.41498525890528" lon="14.316815527938214"><ele>550.0</ele><time>2026-04-30T06:59:26Z</time></trkpt><trkpt lat="37.41507808739616" lon="14.31688068101472"><ele>550.0</ele><time>2026-04-30T06:59:27Z</time></trkpt><trkpt lat="37.415154139537385" lon="14.316939500612389"><ele>550.0</ele><time>2026-04-30T06:59:28Z</time></trkpt><trkpt lat="37.415220325628205" lon="14.316994458156204"><ele>550.0</ele><time>2026-04-30T06:59:29Z</time></trkpt><trkpt lat="37.41528335177138" lon="14.317059571892145"><ele>550.0</ele><time>2026-04-30T06:59:30Z</time></trkpt><trkpt lat="37.415353550486856" lon="14.31711105637757"><ele>550.0</ele><time>2026-04-30T06:59:31Z</time></trkpt><trkpt lat="37.41541244562319" lon="14.317153853723283"><ele>550.0</ele><time>2026-04-30T06:59:32Z</time></trkpt><trkpt lat="37.415470310836916" lon="14.317197196389387"><ele>552.25</ele><time>2026-04-30T06:59:32.999Z</time></trkpt><trkpt lat="37.415540589970014" lon="14.31724586936767"><ele>554.5</ele><time>2026-04-30T06:59:33.999Z</time></trkpt><trkpt lat="37.41562832058228" lon="14.317315816311012"><ele>556.75</ele><time>2026-04-30T06:59:34.999Z</time></trkpt><trkpt lat="37.415745100315426" lon="14.317410732109591"><ele>559.0</ele><time>2026-04-30T06:59:35.999Z</time></trkpt><trkpt lat="37.415865358440485" lon="14.317506662395386"><ele>559.0</ele><time>2026-04-30T06:59:36.999Z</time></trkpt><trkpt lat="37.41593803085736" lon="14.317631328483174"><ele>559.0</ele><time>2026-04-30T06:59:37.999Z</time></trkpt><trkpt lat="37.416001192690054" lon="14.317757337190452"><ele>559.0</ele><time>2026-04-30T06:59:38.999Z</time></trkpt><trkpt lat="37.41607331924243" lon="14.31792107300966"><ele>559.0</ele><time>2026-04-30T06:59:39.999Z</time></trkpt><trkpt lat="37.41615433929036" lon="14.31809915771678"><ele>559.25</ele><time>2026-04-30T06:59:40.999Z</time></trkpt><trkpt lat="37.41621316286711" lon="14.318265767646597"><ele>559.5</ele><time>2026-04-30T06:59:41.999Z</time></trkpt><trkpt lat="37.41624802598684" lon="14.318432216574198"><ele>559.75</ele><time>2026-04-30T06:59:42.999Z</time></trkpt><trkpt lat="37.416279694395605" lon="14.318625051693584"><ele>560.0</ele><time>2026-04-30T06:59:43.999Z</time></trkpt><trkpt lat="37.41632147928394" lon="14.318862041121623"><ele>554.6666666666666</ele><time>2026-04-30T06:59:44.999Z</time></trkpt><trkpt lat="37.416363922964" lon="14.319108981641566"><ele>549.3333333333334</ele><time>2026-04-30T06:59:45.999Z</time></trkpt><trkpt lat="37.41640059922622" lon="14.319333770550008"><ele>544.0</ele><time>2026-04-30T06:59:46.999Z</time></trkpt><trkpt lat="37.41643302052968" lon="14.31953426780711"><ele>544.0</ele><time>2026-04-30T06:59:47.999Z</time></trkpt><trkpt lat="37.41646100600869" lon="14.319713147048073"><ele>544.0</ele><time>2026-04-30T06:59:48.999Z</time></trkpt><trkpt lat="37.41648539328225" lon="14.319881725565166"><ele>544.0</ele><time>2026-04-30T06:59:49.999Z</time></trkpt><trkpt lat="37.416530168179214" lon="14.32005083218542"><ele>544.0</ele><time>2026-04-30T06:59:50.999Z</time></trkpt><trkpt lat="37.416536523581726" lon="14.320217106328075"><ele>544.0</ele><time>2026-04-30T06:59:51.999Z</time></trkpt><trkpt lat="37.416550090464604" lon="14.320373963281408"><ele>544.0</ele><time>2026-04-30T06:59:52.999Z</time></trkpt><trkpt lat="37.41657447461955" lon="14.320550889213765"><ele>544.0</ele><time>2026-04-30T06:59:53.999Z</time></trkpt><trkpt lat="37.416614471253645" lon="14.320758717540606"><ele>544.0</ele><time>2026-04-30T06:59:54.999Z</time></trkpt><trkpt lat="37.41667035927133" lon="14.320975005388407"><ele>544.0</ele><time>2026-04-30T06:59:55.999Z</time></trkpt><trkpt lat="37.41671136777749" lon="14.321180610528554"><ele>544.0</ele><time>2026-04-30T06:59:56.999Z</time></trkpt><trkpt lat="37.416752188356725" lon="14.321361189270776"><ele>544.0</ele><time>2026-04-30T06:59:57.999Z</time></trkpt><trkpt lat="37.416797824446455" lon="14.32151261807815"><ele>544.0</ele><time>2026-04-30T06:59:58.999Z</time></trkpt><trkpt lat="37.4168514337161" lon="14.321617042267343"><ele>543.25</ele><time>2026-04-30T06:59:59.999Z</time></trkpt><trkpt lat="37.41691991674055" lon="14.32171081455617"><ele>542.5</ele><time>2026-04-30T07:00:00.999Z</time></trkpt><trkpt lat="37.417019206449325" lon="14.321812420637446"><ele>541.75</ele><time>2026-04-30T07:00:01.999Z</time></trkpt><trkpt lat="37.417168185767174" lon="14.321924594491941"><ele>541.0</ele><time>2026-04-30T07:00:02.999Z</time></trkpt><trkpt lat="37.41733421034639" lon="14.322051658444705"><ele>541.0</ele><time>2026-04-30T07:00:03.999Z</time></trkpt><trkpt lat="37.417506379472485" lon="14.322223454049967"><ele>541.0</ele><time>2026-04-30T07:00:04.999Z</time></trkpt><trkpt lat="37.41765820402955" lon="14.322356789561876"><ele>541.0</ele><time>2026-04-30T07:00:05.999Z</time></trkpt><trkpt lat="37.417791892475336" lon="14.322476643844512"><ele>541.5</ele><time>2026-04-30T07:00:06.999Z</time></trkpt><trkpt lat="37.41790586890202" lon="14.32257884132722"><ele>542.0</ele><time>2026-04-30T07:00:07.999Z</time></trkpt><trkpt lat="37.41800123264913" lon="14.322689184576767"><ele>542.5</ele><time>2026-04-30T07:00:08.999Z</time></trkpt><trkpt lat="37.418102586961496" lon="14.32282469304748"><ele>543.0</ele><time>2026-04-30T07:00:09.999Z</time></trkpt><trkpt lat="37.41816269161611" lon="14.322938525392649"><ele>543.0</ele><time>2026-04-30T07:00:10.999Z</time></trkpt><trkpt lat="37.418195042612915" lon="14.323042259586655"><ele>543.0</ele><time>2026-04-30T07:00:11.999Z</time></trkpt><trkpt lat="37.41820712239409" lon="14.323145884147992"><ele>543.0</ele><time>2026-04-30T07:00:12.999Z</time></trkpt><trkpt lat="37.41819625581901" lon="14.3232408538522"><ele>543.0</ele><time>2026-04-30T07:00:13.999Z</time></trkpt><trkpt lat="37.41818092721769" lon="14.323322849266123"><ele>543.0</ele><time>2026-04-30T07:00:14.999Z</time></trkpt><trkpt lat="37.41817945275472" lon="14.323445475489333"><ele>543.0</ele><time>2026-04-30T07:00:16.999Z</time></trkpt><trkpt lat="37.41815005532423" lon="14.323532497396164"><ele>544.1666666666666</ele><time>2026-04-30T07:00:18.999Z</time></trkpt><trkpt lat="37.41813329303555" lon="14.32365340067451"><ele>545.3333333333334</ele><time>2026-04-30T07:00:20.999Z</time></trkpt><trkpt lat="37.418117379851964" lon="14.323768179503249"><ele>546.5</ele><time>2026-04-30T07:00:22.999Z</time></trkpt><trkpt lat="37.41812154649486" lon="14.323854766804363"><ele>547.6666666666667</ele><time>2026-04-30T07:00:24.999Z</time></trkpt><trkpt lat="37.41811384318187" lon="14.323934697791836"><ele>548.8333333333334</ele><time>2026-04-30T07:00:26.999Z</time></trkpt><trkpt lat="37.41809422035434" lon="14.324011245291866"><ele>550.0</ele><time>2026-04-30T07:00:29.999Z</time></trkpt><trkpt lat="37.41811853247599" lon="14.324112620484687"><ele>550.5</ele><time>2026-04-30T07:00:34.999Z</time></trkpt><trkpt lat="37.4181701336232" lon="14.324270905426488"><ele>551.0</ele><time>2026-04-30T07:00:42.999Z</time></trkpt><trkpt lat="37.418230154381575" lon="14.324411606726356"><ele>551.5</ele><time>2026-04-30T07:00:43.999Z</time></trkpt><trkpt lat="37.41825694807301" lon="14.324597658532838"><ele>552.0</ele><time>2026-04-30T07:00:44.999Z</time></trkpt><trkpt lat="37.41831831143583" lon="14.324787898522308"><ele>554.5</ele><time>2026-04-30T07:00:45.999Z</time></trkpt><trkpt lat="37.41837662573799" lon="14.324966563678426"><ele>557.0</ele><time>2026-04-30T07:00:46.999Z</time></trkpt><trkpt lat="37.418416028789316" lon="14.32511741265888"><ele>559.5</ele><time>2026-04-30T07:00:47.999Z</time></trkpt><trkpt lat="37.41843614564399" lon="14.325268052309177"><ele>562.0</ele><time>2026-04-30T07:00:48.999Z</time></trkpt><trkpt lat="37.41844732043159" lon="14.325455216853356"><ele>564.6666666666667</ele><time>2026-04-30T07:00:49.999Z</time></trkpt><trkpt lat="37.41845211402231" lon="14.325670349652269"><ele>567.3333333333334</ele><time>2026-04-30T07:00:50.999Z</time></trkpt><trkpt lat="37.41845314675818" lon="14.325882060130276"><ele>570.0</ele><time>2026-04-30T07:00:51.999Z</time></trkpt><trkpt lat="37.418468536527214" lon="14.326046395838379"><ele>570.0</ele><time>2026-04-30T07:00:52.999Z</time></trkpt><trkpt lat="37.41846743147496" lon="14.326159263850787"><ele>570.0</ele><time>2026-04-30T07:00:53.999Z</time></trkpt><trkpt lat="37.418481468721595" lon="14.326247312174441"><ele>570.0</ele><time>2026-04-30T07:00:54.999Z</time></trkpt><trkpt lat="37.41848900491872" lon="14.326363659020338"><ele>570.0</ele><time>2026-04-30T07:00:56.999Z</time></trkpt><trkpt lat="37.41870226775062" lon="14.326344258885397"><ele>570.0</ele><time>2026-04-30T07:00:57.999Z</time></trkpt><trkpt lat="37.41877244819951" lon="14.326303660916514"><ele>570.0</ele><time>2026-04-30T07:00:58.999Z</time></trkpt><trkpt lat="37.41883550276037" lon="14.32623326419235"><ele>570.0</ele><time>2026-04-30T07:01:00.999Z</time></trkpt><trkpt lat="37.418897992482144" lon="14.326166565109896"><ele>570.0</ele><time>2026-04-30T07:01:03.998Z</time></trkpt><trkpt lat="37.418989498838535" lon="14.32608385450402"><ele>570.0</ele><time>2026-04-30T07:01:46.999Z</time></trkpt><trkpt lat="37.4190458244192" lon="14.32600264816558"><ele>570.0</ele><time>2026-04-30T07:01:47.999Z</time></trkpt><trkpt lat="37.4190877793603" lon="14.325938285984243"><ele>570.2</ele><time>2026-04-30T07:01:48.999Z</time></trkpt><trkpt lat="37.41913747363533" lon="14.325879919707651"><ele>570.4</ele><time>2026-04-30T07:01:57.999Z</time></trkpt><trkpt lat="37.419175448624834" lon="14.325804663123769"><ele>570.6</ele><time>2026-04-30T07:01:58.999Z</time></trkpt><trkpt lat="37.41923046024899" lon="14.325685953403552"><ele>570.8</ele><time>2026-04-30T07:01:59.999Z</time></trkpt><trkpt lat="37.41929362222382" lon="14.325543522293966"><ele>571.0</ele><time>2026-04-30T07:02:00.999Z</time></trkpt><trkpt lat="37.419361544649696" lon="14.32536280158413"><ele>572.5</ele><time>2026-04-30T07:02:01.999Z</time></trkpt><trkpt lat="37.419448557255606" lon="14.325190598833299"><ele>574.0</ele><time>2026-04-30T07:02:02.999Z</time></trkpt><trkpt lat="37.41954006349167" lon="14.325049410383322"><ele>575.5</ele><time>2026-04-30T07:02:03.999Z</time></trkpt><trkpt lat="37.41964514607695" lon="14.324945323221938"><ele>577.0</ele><time>2026-04-30T07:02:04.999Z</time></trkpt><trkpt lat="37.419739598090224" lon="14.324848509223326"><ele>577.0</ele><time>2026-04-30T07:02:05.999Z</time></trkpt><trkpt lat="37.41982787981058" lon="14.324754354450873"><ele>577.0</ele><time>2026-04-30T07:02:06.999Z</time></trkpt><trkpt lat="37.41992980906729" lon="14.32467487449119"><ele>577.0</ele><time>2026-04-30T07:02:07.999Z</time></trkpt><trkpt lat="37.42004694153734" lon="14.324605700884726"><ele>577.0</ele><time>2026-04-30T07:02:08.999Z</time></trkpt><trkpt lat="37.420158147705386" lon="14.32454058065464"><ele>575.25</ele><time>2026-04-30T07:02:09.999Z</time></trkpt><trkpt lat="37.42032149002783" lon="14.32464399961076"><ele>573.5</ele><time>2026-04-30T07:02:10.999Z</time></trkpt><trkpt lat="37.420430884929445" lon="14.324653933539063"><ele>571.75</ele><time>2026-04-30T07:02:11.999Z</time></trkpt><trkpt lat="37.4205350316012" lon="14.324689007937883"><ele>570.0</ele><time>2026-04-30T07:02:12.999Z</time></trkpt><trkpt lat="37.420631579856796" lon="14.324760972075584"><ele>573.0</ele><time>2026-04-30T07:02:13.999Z</time></trkpt><trkpt lat="37.42072677453211" lon="14.324827814213485"><ele>576.0</ele><time>2026-04-30T07:02:14.999Z</time></trkpt><trkpt lat="37.420820163995195" lon="14.324862075762098"><ele>579.0</ele><time>2026-04-30T07:02:15.999Z</time></trkpt><trkpt lat="37.420906106101945" lon="14.324886649281375"><ele>582.0</ele><time>2026-04-30T07:02:16.999Z</time></trkpt><trkpt lat="37.42098563977229" lon="14.32491151513382"><ele>585.0</ele><time>2026-04-30T07:02:17.999Z</time></trkpt><trkpt lat="37.42106422155305" lon="14.324848589618352"><ele>585.0</ele><time>2026-04-30T07:02:18.999Z</time></trkpt><trkpt lat="37.421137729577744" lon="14.324775496491071"><ele>585.0</ele><time>2026-04-30T07:02:19.999Z</time></trkpt><trkpt lat="37.421208362439536" lon="14.324666787648876"><ele>585.0</ele><time>2026-04-30T07:02:20.999Z</time></trkpt><trkpt lat="37.42126622272604" lon="14.324523462270236"><ele>585.0</ele><time>2026-04-30T07:02:21.999Z</time></trkpt><trkpt lat="37.42131899576276" lon="14.324375942936069"><ele>585.2</ele><time>2026-04-30T07:02:22.999Z</time></trkpt><trkpt lat="37.42137651179262" lon="14.324255014108125"><ele>585.4</ele><time>2026-04-30T07:02:23.999Z</time></trkpt><trkpt lat="37.42144462516009" lon="14.324147736609866"><ele>585.6</ele><time>2026-04-30T07:02:24.999Z</time></trkpt><trkpt lat="37.42151979902395" lon="14.32404945827611"><ele>585.8</ele><time>2026-04-30T07:02:25.999Z</time></trkpt><trkpt lat="37.42160431157811" lon="14.323956500352871"><ele>586.0</ele><time>2026-04-30T07:02:26.999Z</time></trkpt><trkpt lat="37.421702109106484" lon="14.323881839101073"><ele>581.0</ele><time>2026-04-30T07:02:27.999Z</time></trkpt><trkpt lat="37.42182523112838" lon="14.323856660868996"><ele>576.0</ele><time>2026-04-30T07:02:28.999Z</time></trkpt><trkpt lat="37.42194456271921" lon="14.323834684191032"><ele>571.0</ele><time>2026-04-30T07:02:29.999Z</time></trkpt><trkpt lat="37.4220490616619" lon="14.323839097500873"><ele>566.0</ele><time>2026-04-30T07:02:30.999Z</time></trkpt><trkpt lat="37.42214514803381" lon="14.323879076633709"><ele>571.5</ele><time>2026-04-30T07:02:31.999Z</time></trkpt><trkpt lat="37.42225434443653" lon="14.323945454049355"><ele>577.0</ele><time>2026-04-30T07:02:32.999Z</time></trkpt><trkpt lat="37.42236389688753" lon="14.324016328861847"><ele>582.5</ele><time>2026-04-30T07:02:33.999Z</time></trkpt><trkpt lat="37.422468127876606" lon="14.324091309868994"><ele>588.0</ele><time>2026-04-30T07:02:34.999Z</time></trkpt><trkpt lat="37.42257559502282" lon="14.324152931142871"><ele>588.0</ele><time>2026-04-30T07:02:35.999Z</time></trkpt><trkpt lat="37.422670262342514" lon="14.324235831317614"><ele>588.0</ele><time>2026-04-30T07:02:36.999Z</time></trkpt><trkpt lat="37.42274807730751" lon="14.324346327648204"><ele>588.0</ele><time>2026-04-30T07:02:37.999Z</time></trkpt><trkpt lat="37.422825923397276" lon="14.324455819569469"><ele>588.0</ele><time>2026-04-30T07:02:38.999Z</time></trkpt><trkpt lat="37.422891433817746" lon="14.324588545009341"><ele>587.0</ele><time>2026-04-30T07:02:39.999Z</time></trkpt><trkpt lat="37.42296342356836" lon="14.324734252438715"><ele>586.0</ele><time>2026-04-30T07:02:40.999Z</time></trkpt><trkpt lat="37.42304462962566" lon="14.324866591239754"><ele>585.0</ele><time>2026-04-30T07:02:41.999Z</time></trkpt><trkpt lat="37.42310892053795" lon="14.32499355315819"><ele>584.0</ele><time>2026-04-30T07:02:42.999Z</time></trkpt><trkpt lat="37.42315659457034" lon="14.325137348173891"><ele>584.0</ele><time>2026-04-30T07:02:43.999Z</time></trkpt><trkpt lat="37.423201436193814" lon="14.325290685710414"><ele>584.0</ele><time>2026-04-30T07:02:44.999Z</time></trkpt><trkpt lat="37.42323251767799" lon="14.325456179599522"><ele>584.0</ele><time>2026-04-30T07:02:45.999Z</time></trkpt><trkpt lat="37.42325260921925" lon="14.325612336215045"><ele>584.0</ele><time>2026-04-30T07:02:46.999Z</time></trkpt><trkpt lat="37.42326315275044" lon="14.32575098945761"><ele>585.75</ele><time>2026-04-30T07:02:47.999Z</time></trkpt><trkpt lat="37.42325589164977" lon="14.325891282083527"><ele>587.5</ele><time>2026-04-30T07:02:48.999Z</time></trkpt><trkpt lat="37.42323087857557" lon="14.326039067235437"><ele>589.25</ele><time>2026-04-30T07:02:49.999Z</time></trkpt><trkpt lat="37.42319743904849" lon="14.32618881070328"><ele>591.0</ele><time>2026-04-30T07:02:50.999Z</time></trkpt><trkpt lat="37.42316295698788" lon="14.32632920943477"><ele>591.25</ele><time>2026-04-30T07:02:51.999Z</time></trkpt><trkpt lat="37.423136605788365" lon="14.326467257286977"><ele>591.5</ele><time>2026-04-30T07:02:52.999Z</time></trkpt><trkpt lat="37.423110497091436" lon="14.326608478304498"><ele>591.75</ele><time>2026-04-30T07:02:53.999Z</time></trkpt><trkpt lat="37.42308179215055" lon="14.32676205576197"><ele>592.0</ele><time>2026-04-30T07:02:54.999Z</time></trkpt><trkpt lat="37.42304908516795" lon="14.326925846917108"><ele>592.0</ele><time>2026-04-30T07:02:55.999Z</time></trkpt><trkpt lat="37.42300535283858" lon="14.327093828949927"><ele>592.0</ele><time>2026-04-30T07:02:56.999Z</time></trkpt><trkpt lat="37.422940126851834" lon="14.327255462130099"><ele>592.0</ele><time>2026-04-30T07:02:57.999Z</time></trkpt><trkpt lat="37.42286282859595" lon="14.327425702699394"><ele>592.0</ele><time>2026-04-30T07:02:58.999Z</time></trkpt><trkpt lat="37.42278446407353" lon="14.327583120740163"><ele>596.75</ele><time>2026-04-30T07:02:59.999Z</time></trkpt><trkpt lat="37.422710866913526" lon="14.327721193244477"><ele>601.5</ele><time>2026-04-30T07:03:00.999Z</time></trkpt><trkpt lat="37.42264542884584" lon="14.327854670801946"><ele>606.25</ele><time>2026-04-30T07:03:01.999Z</time></trkpt><trkpt lat="37.42259215359721" lon="14.327998164713746"><ele>611.0</ele><time>2026-04-30T07:03:02.999Z</time></trkpt><trkpt lat="37.42255228979612" lon="14.328156877836113"><ele>611.0</ele><time>2026-04-30T07:03:03.999Z</time></trkpt><trkpt lat="37.42256267252298" lon="14.328336436384049"><ele>611.0</ele><time>2026-04-30T07:03:04.999Z</time></trkpt><trkpt lat="37.422552551691" lon="14.328500331600065"><ele>611.0</ele><time>2026-04-30T07:03:05.999Z</time></trkpt><trkpt lat="37.42257375290668" lon="14.328670109748526"><ele>611.0</ele><time>2026-04-30T07:03:06.998Z</time></trkpt><trkpt lat="37.42263082431143" lon="14.328821970752587"><ele>612.0</ele><time>2026-04-30T07:03:07.998Z</time></trkpt><trkpt lat="37.42267997067959" lon="14.328949337074025"><ele>613.0</ele><time>2026-04-30T07:03:08.998Z</time></trkpt><trkpt lat="37.42276375206447" lon="14.329056894898107"><ele>614.0</ele><time>2026-04-30T07:03:09.998Z</time></trkpt><trkpt lat="37.42288449336214" lon="14.329163344978772"><ele>615.0</ele><time>2026-04-30T07:03:10.998Z</time></trkpt><trkpt lat="37.423007256893044" lon="14.329267061120596"><ele>612.6</ele><time>2026-04-30T07:03:11.998Z</time></trkpt><trkpt lat="37.42309520160946" lon="14.329376497034582"><ele>610.2</ele><time>2026-04-30T07:03:12.998Z</time></trkpt><trkpt lat="37.42316102883975" lon="14.329478847653647"><ele>607.8</ele><time>2026-04-30T07:03:13.998Z</time></trkpt><trkpt lat="37.42319151919324" lon="14.329595725029861"><ele>605.4</ele><time>2026-04-30T07:03:14.998Z</time></trkpt><trkpt lat="37.42321074603833" lon="14.329728835626302"><ele>603.0</ele><time>2026-04-30T07:03:15.998Z</time></trkpt><trkpt lat="37.42320629815959" lon="14.329858772973257"><ele>603.0</ele><time>2026-04-30T07:03:16.998Z</time></trkpt><trkpt lat="37.4231813894031" lon="14.3299997937745"><ele>603.0</ele><time>2026-04-30T07:03:17.998Z</time></trkpt><trkpt lat="37.423145984851615" lon="14.330165274424976"><ele>603.0</ele><time>2026-04-30T07:03:18.998Z</time></trkpt><trkpt lat="37.42311265393931" lon="14.330336291095128"><ele>603.0</ele><time>2026-04-30T07:03:20Z</time></trkpt><trkpt lat="37.423082427096695" lon="14.330489542189527"><ele>602.0</ele><time>2026-04-30T07:03:21Z</time></trkpt><trkpt lat="37.42305449557031" lon="14.330626356472706"><ele>601.0</ele><time>2026-04-30T07:03:22Z</time></trkpt><trkpt lat="37.42302646993847" lon="14.330750681910951"><ele>600.0</ele><time>2026-04-30T07:03:23Z</time></trkpt><trkpt lat="37.42298485175004" lon="14.33085712573427"><ele>599.0</ele><time>2026-04-30T07:03:24Z</time></trkpt><trkpt lat="37.422925227620944" lon="14.330941339900862"><ele>598.0</ele><time>2026-04-30T07:03:25Z</time></trkpt><trkpt lat="37.42284283139313" lon="14.330983358001687"><ele>602.1999999999999</ele><time>2026-04-30T07:03:26Z</time></trkpt><trkpt lat="37.42273792993945" lon="14.330996301639194"><ele>606.4</ele><time>2026-04-30T07:03:27Z</time></trkpt><trkpt lat="37.42263364825566" lon="14.330980753327687"><ele>610.5999999999999</ele><time>2026-04-30T07:03:28Z</time></trkpt><trkpt lat="37.42254186388024" lon="14.330971502307879"><ele>614.8</ele><time>2026-04-30T07:03:29Z</time></trkpt><trkpt lat="37.42245599268517" lon="14.33098728353578"><ele>619.0</ele><time>2026-04-30T07:03:30Z</time></trkpt><trkpt lat="37.42237225266098" lon="14.331079579964857"><ele>619.0</ele><time>2026-04-30T07:03:31Z</time></trkpt><trkpt lat="37.4223211382701" lon="14.331217253655204"><ele>619.0</ele><time>2026-04-30T07:03:32Z</time></trkpt><trkpt lat="37.42232430768708" lon="14.331357557436933"><ele>619.0</ele><time>2026-04-30T07:03:33Z</time></trkpt><trkpt lat="37.42229320033851" lon="14.331484981678688"><ele>619.0</ele><time>2026-04-30T07:03:34Z</time></trkpt><trkpt lat="37.422274220141595" lon="14.331623090511684"><ele>619.0</ele><time>2026-04-30T07:03:35Z</time></trkpt><trkpt lat="37.42223755597495" lon="14.331762922806362"><ele>620.75</ele><time>2026-04-30T07:03:36Z</time></trkpt><trkpt lat="37.42216615514979" lon="14.33190040411415"><ele>622.5</ele><time>2026-04-30T07:03:37Z</time></trkpt><trkpt lat="37.42206802981855" lon="14.332029165470004"><ele>624.25</ele><time>2026-04-30T07:03:38Z</time></trkpt><trkpt lat="37.42197733729457" lon="14.332155293351224"><ele>626.0</ele><time>2026-04-30T07:03:39Z</time></trkpt><trkpt lat="37.42188970366291" lon="14.332276073910203"><ele>626.0</ele><time>2026-04-30T07:03:40Z</time></trkpt><trkpt lat="37.42181232679605" lon="14.332432779595084"><ele>626.0</ele><time>2026-04-30T07:03:41Z</time></trkpt><trkpt lat="37.421740257137" lon="14.33260155556883"><ele>626.0</ele><time>2026-04-30T07:03:42Z</time></trkpt><trkpt lat="37.4216715731275" lon="14.332756134445455"><ele>626.0</ele><time>2026-04-30T07:03:43Z</time></trkpt><trkpt lat="37.421595181934286" lon="14.332897697346713"><ele>626.0</ele><time>2026-04-30T07:03:44Z</time></trkpt><trkpt lat="37.42151606779342" lon="14.333020856484932"><ele>626.0</ele><time>2026-04-30T07:03:44.999Z</time></trkpt><trkpt lat="37.42143211074703" lon="14.333126674415073"><ele>626.0</ele><time>2026-04-30T07:03:45.999Z</time></trkpt><trkpt lat="37.42133630687648" lon="14.333231601895253"><ele>626.0</ele><time>2026-04-30T07:03:46.999Z</time></trkpt><trkpt lat="37.421233179846176" lon="14.333317973790688"><ele>628.0</ele><time>2026-04-30T07:03:47.999Z</time></trkpt><trkpt lat="37.42112773789787" lon="14.333404192948052"><ele>630.0</ele><time>2026-04-30T07:03:48.999Z</time></trkpt><trkpt lat="37.42102560184795" lon="14.333488772127765"><ele>632.0</ele><time>2026-04-30T07:03:49.999Z</time></trkpt><trkpt lat="37.42092214531732" lon="14.333574556314382"><ele>634.0</ele><time>2026-04-30T07:03:50.999Z</time></trkpt><trkpt lat="37.42082398090044" lon="14.333664688362141"><ele>634.0</ele><time>2026-04-30T07:03:51.999Z</time></trkpt><trkpt lat="37.420743987966425" lon="14.33375853524891"><ele>634.0</ele><time>2026-04-30T07:03:52.999Z</time></trkpt><trkpt lat="37.42068270196279" lon="14.3338681295474"><ele>634.0</ele><time>2026-04-30T07:03:53.999Z</time></trkpt><trkpt lat="37.42064886561574" lon="14.334004292185085"><ele>634.0</ele><time>2026-04-30T07:03:54.999Z</time></trkpt><trkpt lat="37.42061573101675" lon="14.334122331742165"><ele>634.0</ele><time>2026-04-30T07:03:55.999Z</time></trkpt><trkpt lat="37.420585050935536" lon="14.334231627211208"><ele>631.75</ele><time>2026-04-30T07:03:56.999Z</time></trkpt><trkpt lat="37.42055446460889" lon="14.334340588667668"><ele>629.5</ele><time>2026-04-30T07:03:57.999Z</time></trkpt><trkpt lat="37.42069335761028" lon="14.334534201152875"><ele>627.25</ele><time>2026-04-30T07:03:58.999Z</time></trkpt><trkpt lat="37.42061696530129" lon="14.334652693267495"><ele>625.0</ele><time>2026-04-30T07:03:59.999Z</time></trkpt><trkpt lat="37.420508773478296" lon="14.334755272600425"><ele>628.0</ele><time>2026-04-30T07:04:00.999Z</time></trkpt><trkpt lat="37.420391262887435" lon="14.334837430180583"><ele>631.0</ele><time>2026-04-30T07:04:01.999Z</time></trkpt><trkpt lat="37.42026589457713" lon="14.334897890049305"><ele>634.0</ele><time>2026-04-30T07:04:02.999Z</time></trkpt><trkpt lat="37.420149984026224" lon="14.334939231026723"><ele>637.0</ele><time>2026-04-30T07:04:03.999Z</time></trkpt><trkpt lat="37.420045424881934" lon="14.334980570316636"><ele>637.0</ele><time>2026-04-30T07:04:04.999Z</time></trkpt><trkpt lat="37.4199485704064" lon="14.33505034524512"><ele>637.0</ele><time>2026-04-30T07:04:05.999Z</time></trkpt><trkpt lat="37.419882185873625" lon="14.335153286225053"><ele>637.0</ele><time>2026-04-30T07:04:06.999Z</time></trkpt><trkpt lat="37.419856178602025" lon="14.33526394099799"><ele>637.0</ele><time>2026-04-30T07:04:07.999Z</time></trkpt><trkpt lat="37.419880951403286" lon="14.33539282135923"><ele>637.0</ele><time>2026-04-30T07:04:08.999Z</time></trkpt><trkpt lat="37.41994698714424" lon="14.33553028537453"><ele>637.75</ele><time>2026-04-30T07:04:09.999Z</time></trkpt><trkpt lat="37.420022111507656" lon="14.335664894924095"><ele>638.5</ele><time>2026-04-30T07:04:10.999Z</time></trkpt><trkpt lat="37.42009066958454" lon="14.335803257776725"><ele>639.25</ele><time>2026-04-30T07:04:11.999Z</time></trkpt><trkpt lat="37.42014326974197" lon="14.335940048669249"><ele>640.0</ele><time>2026-04-30T07:04:12.999Z</time></trkpt><trkpt lat="37.42018764917838" lon="14.336067952355833"><ele>640.0</ele><time>2026-04-30T07:04:13.999Z</time></trkpt><trkpt lat="37.42023424961001" lon="14.336186967852695"><ele>640.0</ele><time>2026-04-30T07:04:14.999Z</time></trkpt><trkpt lat="37.420326124705454" lon="14.336260994098106"><ele>640.0</ele><time>2026-04-30T07:04:15.999Z</time></trkpt><trkpt lat="37.4203940460106" lon="14.336352983859616"><ele>640.0</ele><time>2026-04-30T07:04:16.999Z</time></trkpt><trkpt lat="37.42046074943643" lon="14.336455078480675"><ele>640.0</ele><time>2026-04-30T07:04:17.999Z</time></trkpt><trkpt lat="37.420510563968634" lon="14.336591178098578"><ele>641.0</ele><time>2026-04-30T07:04:18.999Z</time></trkpt><trkpt lat="37.42053816017282" lon="14.336754373683227"><ele>642.0</ele><time>2026-04-30T07:04:19.999Z</time></trkpt><trkpt lat="37.42056430939349" lon="14.33692875010957"><ele>643.0</ele><time>2026-04-30T07:04:20.999Z</time></trkpt><trkpt lat="37.420581626126385" lon="14.337088766590869"><ele>644.0</ele><time>2026-04-30T07:04:21.999Z</time></trkpt><trkpt lat="37.42059685883661" lon="14.337241385391511"><ele>644.0</ele><time>2026-04-30T07:04:22.999Z</time></trkpt><trkpt lat="37.42061298090375" lon="14.337386216567"><ele>644.0</ele><time>2026-04-30T07:04:23.999Z</time></trkpt><trkpt lat="37.42066563409792" lon="14.337514248541176"><ele>644.0</ele><time>2026-04-30T07:04:24.999Z</time></trkpt><trkpt lat="37.42071859487414" lon="14.337642046417137"><ele>644.0</ele><time>2026-04-30T07:04:25.999Z</time></trkpt><trkpt lat="37.42082300312117" lon="14.337707993890033"><ele>644.0</ele><time>2026-04-30T07:04:26.999Z</time></trkpt><trkpt lat="37.4209243655222" lon="14.337757816599199"><ele>644.0</ele><time>2026-04-30T07:04:27.999Z</time></trkpt><trkpt lat="37.42104658341706" lon="14.33775517281616"><ele>644.0</ele><time>2026-04-30T07:04:28.999Z</time></trkpt><trkpt lat="37.421181403859066" lon="14.337720722979022"><ele>644.0</ele><time>2026-04-30T07:04:29.999Z</time></trkpt><trkpt lat="37.42132136604905" lon="14.337684223406812"><ele>644.0</ele><time>2026-04-30T07:04:30.999Z</time></trkpt><trkpt lat="37.4214531628295" lon="14.337663496748862"><ele>644.0</ele><time>2026-04-30T07:04:31.999Z</time></trkpt><trkpt lat="37.4215841914458" lon="14.337659017098147"><ele>644.0</ele><time>2026-04-30T07:04:32.999Z</time></trkpt><trkpt lat="37.421718677852795" lon="14.337668546313393"><ele>644.0</ele><time>2026-04-30T07:04:33.999Z</time></trkpt><trkpt lat="37.42185260093884" lon="14.33768333700765"><ele>644.0</ele><time>2026-04-30T07:04:34.999Z</time></trkpt><trkpt lat="37.421979295865015" lon="14.33771452517871"><ele>644.0</ele><time>2026-04-30T07:04:35.999Z</time></trkpt><trkpt lat="37.422094202349676" lon="14.337749324648867"><ele>644.0</ele><time>2026-04-30T07:04:36.999Z</time></trkpt><trkpt lat="37.42219525746557" lon="14.337813933298827"><ele>644.0</ele><time>2026-04-30T07:04:37.999Z</time></trkpt><trkpt lat="37.42230074019304" lon="14.337861329747199"><ele>642.5</ele><time>2026-04-30T07:04:38.999Z</time></trkpt><trkpt lat="37.42238626914604" lon="14.337988576265252"><ele>641.0</ele><time>2026-04-30T07:04:39.999Z</time></trkpt><trkpt lat="37.422477119291976" lon="14.338120073012567"><ele>639.5</ele><time>2026-04-30T07:04:40.999Z</time></trkpt><trkpt lat="37.422575227151285" lon="14.338247781188631"><ele>638.0</ele><time>2026-04-30T07:04:41.999Z</time></trkpt><trkpt lat="37.42269672256182" lon="14.338335966145914"><ele>639.25</ele><time>2026-04-30T07:04:42.999Z</time></trkpt><trkpt lat="37.422817893194086" lon="14.338424581341311"><ele>640.5</ele><time>2026-04-30T07:04:43.999Z</time></trkpt><trkpt lat="37.42294310942882" lon="14.338512652358506"><ele>641.75</ele><time>2026-04-30T07:04:44.999Z</time></trkpt><trkpt lat="37.42305918687107" lon="14.338626480513074"><ele>643.0</ele><time>2026-04-30T07:04:45.999Z</time></trkpt><trkpt lat="37.42319002341538" lon="14.338713529620337"><ele>643.0</ele><time>2026-04-30T07:04:46.999Z</time></trkpt><trkpt lat="37.423296773096055" lon="14.338818041045993"><ele>643.0</ele><time>2026-04-30T07:04:47.999Z</time></trkpt><trkpt lat="37.42339502737024" lon="14.33890904044777"><ele>643.0</ele><time>2026-04-30T07:04:48.999Z</time></trkpt><trkpt lat="37.42349969054425" lon="14.33899195641338"><ele>643.0</ele><time>2026-04-30T07:04:49.999Z</time></trkpt><trkpt lat="37.42361640135046" lon="14.339036527494466"><ele>647.0</ele><time>2026-04-30T07:04:50.999Z</time></trkpt><trkpt lat="37.42374907584384" lon="14.339040165526674"><ele>651.0</ele><time>2026-04-30T07:04:51.999Z</time></trkpt><trkpt lat="37.423875728166124" lon="14.33901515599999"><ele>655.0</ele><time>2026-04-30T07:04:52.999Z</time></trkpt><trkpt lat="37.423984153359974" lon="14.33901786894643"><ele>659.0</ele><time>2026-04-30T07:04:53.999Z</time></trkpt><trkpt lat="37.42407677133075" lon="14.339089244679734"><ele>659.0</ele><time>2026-04-30T07:04:54.999Z</time></trkpt><trkpt lat="37.42416836156375" lon="14.339173719149416"><ele>659.0</ele><time>2026-04-30T07:04:55.999Z</time></trkpt><trkpt lat="37.424262537499736" lon="14.339227281325082"><ele>659.0</ele><time>2026-04-30T07:04:56.999Z</time></trkpt><trkpt lat="37.42434959263101" lon="14.339250531526936"><ele>659.0</ele><time>2026-04-30T07:04:57.999Z</time></trkpt><trkpt lat="37.424451453524526" lon="14.339210707195127"><ele>659.0</ele><time>2026-04-30T07:04:58.999Z</time></trkpt><trkpt lat="37.42454820164903" lon="14.339139846838984"><ele>659.0</ele><time>2026-04-30T07:04:59.999Z</time></trkpt><trkpt lat="37.424637559738166" lon="14.339061597938464"><ele>659.0</ele><time>2026-04-30T07:05:00.999Z</time></trkpt><trkpt lat="37.42471517985044" lon="14.338948539391877"><ele>659.0</ele><time>2026-04-30T07:05:01.999Z</time></trkpt><trkpt lat="37.424772613105375" lon="14.338798088038663"><ele>659.0</ele><time>2026-04-30T07:05:02.999Z</time></trkpt><trkpt lat="37.4248102233948" lon="14.338644119881515"><ele>658.8000000000001</ele><time>2026-04-30T07:05:03.999Z</time></trkpt><trkpt lat="37.42484116243434" lon="14.338502205079676"><ele>658.6</ele><time>2026-04-30T07:05:04.999Z</time></trkpt><trkpt lat="37.424876242772434" lon="14.338373568517337"><ele>658.4</ele><time>2026-04-30T07:05:05.999Z</time></trkpt><trkpt lat="37.424917302866824" lon="14.338266811438427"><ele>658.2</ele><time>2026-04-30T07:05:06.999Z</time></trkpt><trkpt lat="37.424977725163735" lon="14.338176606940571"><ele>658.0</ele><time>2026-04-30T07:05:07.999Z</time></trkpt><trkpt lat="37.42505782907621" lon="14.33809997302395"><ele>661.4</ele><time>2026-04-30T07:05:08.999Z</time></trkpt><trkpt lat="37.425153741682784" lon="14.338038239535543"><ele>664.8</ele><time>2026-04-30T07:05:09.999Z</time></trkpt><trkpt lat="37.425257443105124" lon="14.338040421868039"><ele>668.2</ele><time>2026-04-30T07:05:10.999Z</time></trkpt><trkpt lat="37.42535443694343" lon="14.338043142408862"><ele>671.6</ele><time>2026-04-30T07:05:11.999Z</time></trkpt><trkpt lat="37.42546179808621" lon="14.33804009370067"><ele>675.0</ele><time>2026-04-30T07:05:12.999Z</time></trkpt><trkpt lat="37.42556004107565" lon="14.338052054855257"><ele>670.2</ele><time>2026-04-30T07:05:13.999Z</time></trkpt><trkpt lat="37.42565773203279" lon="14.338041139318687"><ele>665.4</ele><time>2026-04-30T07:05:14.999Z</time></trkpt><trkpt lat="37.425757811845465" lon="14.337982428051617"><ele>660.5999999999999</ele><time>2026-04-30T07:05:15.998Z</time></trkpt><trkpt lat="37.42584773158097" lon="14.337875657920858"><ele>655.8</ele><time>2026-04-30T07:05:16.998Z</time></trkpt><trkpt lat="37.4259140532916" lon="14.337754129050973"><ele>651.0</ele><time>2026-04-30T07:05:17.998Z</time></trkpt><trkpt lat="37.425995211603464" lon="14.337651743643388"><ele>651.0</ele><time>2026-04-30T07:05:18.998Z</time></trkpt><trkpt lat="37.426061236590364" lon="14.337525145389318"><ele>651.0</ele><time>2026-04-30T07:05:19.998Z</time></trkpt><trkpt lat="37.42615705137669" lon="14.337419354008748"><ele>651.0</ele><time>2026-04-30T07:05:20.998Z</time></trkpt><trkpt lat="37.42626212502742" lon="14.337327162763101"><ele>651.0</ele><time>2026-04-30T07:05:21.998Z</time></trkpt><trkpt lat="37.42637319297615" lon="14.337258803816555"><ele>651.25</ele><time>2026-04-30T07:05:22.998Z</time></trkpt><trkpt lat="37.426489441698045" lon="14.337215815076354"><ele>651.5</ele><time>2026-04-30T07:05:23.998Z</time></trkpt><trkpt lat="37.426599296948794" lon="14.337181208108982"><ele>651.75</ele><time>2026-04-30T07:05:24.998Z</time></trkpt><trkpt lat="37.42669404214236" lon="14.337113594345478"><ele>652.0</ele><time>2026-04-30T07:05:25.999Z</time></trkpt><trkpt lat="37.4267705720133" lon="14.337005072279066"><ele>652.0</ele><time>2026-04-30T07:05:26.999Z</time></trkpt><trkpt lat="37.42685140754547" lon="14.336888018522139"><ele>652.0</ele><time>2026-04-30T07:05:27.999Z</time></trkpt><trkpt lat="37.426922349061556" lon="14.336777030616526"><ele>652.0</ele><time>2026-04-30T07:05:28.999Z</time></trkpt><trkpt lat="37.4269992299552" lon="14.336698488979302"><ele>652.0</ele><time>2026-04-30T07:05:29.999Z</time></trkpt><trkpt lat="37.427081230817855" lon="14.336645694656896"><ele>652.0</ele><time>2026-04-30T07:05:30.999Z</time></trkpt><trkpt lat="37.42717449237718" lon="14.336645687321463"><ele>654.75</ele><time>2026-04-30T07:05:31.999Z</time></trkpt><trkpt lat="37.427284189965604" lon="14.336663670915899"><ele>657.5</ele><time>2026-04-30T07:05:32.999Z</time></trkpt><trkpt lat="37.42740233585578" lon="14.336679508634466"><ele>660.25</ele><time>2026-04-30T07:05:33.999Z</time></trkpt><trkpt lat="37.42752090042918" lon="14.336707473655014"><ele>663.0</ele><time>2026-04-30T07:05:34.999Z</time></trkpt><trkpt lat="37.42764269022509" lon="14.336720201770463"><ele>663.0</ele><time>2026-04-30T07:05:35.999Z</time></trkpt><trkpt lat="37.427769284077314" lon="14.336714594326283"><ele>663.0</ele><time>2026-04-30T07:05:36.999Z</time></trkpt><trkpt lat="37.42789804165052" lon="14.336697553244326"><ele>663.0</ele><time>2026-04-30T07:05:37.999Z</time></trkpt><trkpt lat="37.42802053201574" lon="14.336681747110239"><ele>663.0</ele><time>2026-04-30T07:05:38.999Z</time></trkpt><trkpt lat="37.428137388848654" lon="14.33668393790113"><ele>662.75</ele><time>2026-04-30T07:05:39.999Z</time></trkpt><trkpt lat="37.428251792508824" lon="14.336730343751144"><ele>662.5</ele><time>2026-04-30T07:05:40.999Z</time></trkpt><trkpt lat="37.42836402686481" lon="14.336770310394764"><ele>662.25</ele><time>2026-04-30T07:05:41.999Z</time></trkpt><trkpt lat="37.428465626760214" lon="14.336840690394807"><ele>662.0</ele><time>2026-04-30T07:05:42.999Z</time></trkpt><trkpt lat="37.4285735152425" lon="14.33692743330286"><ele>662.0</ele><time>2026-04-30T07:05:43.999Z</time></trkpt><trkpt lat="37.42868698008982" lon="14.337023795341969"><ele>662.0</ele><time>2026-04-30T07:05:44.999Z</time></trkpt><trkpt lat="37.42880449557814" lon="14.337102989902885"><ele>662.0</ele><time>2026-04-30T07:05:45.999Z</time></trkpt><trkpt lat="37.42891162775419" lon="14.337202292512673"><ele>662.0</ele><time>2026-04-30T07:05:46.999Z</time></trkpt><trkpt lat="37.429002425344144" lon="14.337330379713544"><ele>663.75</ele><time>2026-04-30T07:05:47.999Z</time></trkpt><trkpt lat="37.429099805698435" lon="14.337449700564466"><ele>665.5</ele><time>2026-04-30T07:05:48.999Z</time></trkpt><trkpt lat="37.42919374322187" lon="14.33757639604076"><ele>667.25</ele><time>2026-04-30T07:05:49.999Z</time></trkpt><trkpt lat="37.42928682388415" lon="14.337706710162085"><ele>669.0</ele><time>2026-04-30T07:05:50.999Z</time></trkpt><trkpt lat="37.42937487478321" lon="14.337830917693402"><ele>669.0</ele><time>2026-04-30T07:05:51.999Z</time></trkpt><trkpt lat="37.429471234935946" lon="14.337937582201018"><ele>669.0</ele><time>2026-04-30T07:05:52.999Z</time></trkpt><trkpt lat="37.42955447397658" lon="14.338052566636394"><ele>669.0</ele><time>2026-04-30T07:05:53.999Z</time></trkpt><trkpt lat="37.429641278487466" lon="14.338160347802198"><ele>669.0</ele><time>2026-04-30T07:05:54.999Z</time></trkpt><trkpt lat="37.429724312182465" lon="14.338261137018819"><ele>668.5</ele><time>2026-04-30T07:05:55.999Z</time></trkpt><trkpt lat="37.429802685319665" lon="14.338372677649001"><ele>668.0</ele><time>2026-04-30T07:05:56.999Z</time></trkpt><trkpt lat="37.4298735660451" lon="14.33849198693709"><ele>667.5</ele><time>2026-04-30T07:05:57.999Z</time></trkpt><trkpt lat="37.42991927228945" lon="14.338635336133814"><ele>667.0</ele><time>2026-04-30T07:05:58.999Z</time></trkpt><trkpt lat="37.429973523529036" lon="14.338782754807962"><ele>672.0</ele><time>2026-04-30T07:05:59.999Z</time></trkpt><trkpt lat="37.43003374313642" lon="14.338933889541359"><ele>677.0</ele><time>2026-04-30T07:06:00.999Z</time></trkpt><trkpt lat="37.430110919095426" lon="14.33906336107044"><ele>682.0</ele><time>2026-04-30T07:06:01.999Z</time></trkpt><trkpt lat="37.43017457678214" lon="14.339186750671066"><ele>687.0</ele><time>2026-04-30T07:06:02.999Z</time></trkpt><trkpt lat="37.43022230593103" lon="14.339311780191021"><ele>687.0</ele><time>2026-04-30T07:06:03.999Z</time></trkpt><trkpt lat="37.43028774560443" lon="14.33940988383603"><ele>687.0</ele><time>2026-04-30T07:06:04.999Z</time></trkpt><trkpt lat="37.430383725310136" lon="14.339455063406906"><ele>687.0</ele><time>2026-04-30T07:06:05.999Z</time></trkpt><trkpt lat="37.43047955044589" lon="14.339475469465102"><ele>687.0</ele><time>2026-04-30T07:06:06.999Z</time></trkpt><trkpt lat="37.430588681553594" lon="14.339450499857502"><ele>687.0</ele><time>2026-04-30T07:06:07.999Z</time></trkpt><trkpt lat="37.43068946828229" lon="14.339392397145083"><ele>685.75</ele><time>2026-04-30T07:06:08.999Z</time></trkpt><trkpt lat="37.43078731001348" lon="14.339318615423734"><ele>684.5</ele><time>2026-04-30T07:06:09.999Z</time></trkpt><trkpt lat="37.430886283051635" lon="14.339239781406395"><ele>683.25</ele><time>2026-04-30T07:06:10.999Z</time></trkpt><trkpt lat="37.430987021761936" lon="14.339153442385445"><ele>682.0</ele><time>2026-04-30T07:06:11.999Z</time></trkpt><trkpt lat="37.431084850587595" lon="14.33905836713606"><ele>682.0</ele><time>2026-04-30T07:06:12.999Z</time></trkpt><trkpt lat="37.43117395908587" lon="14.338958780853337"><ele>682.0</ele><time>2026-04-30T07:06:13.999Z</time></trkpt><trkpt lat="37.43124065112101" lon="14.338845403949689"><ele>682.0</ele><time>2026-04-30T07:06:14.999Z</time></trkpt><trkpt lat="37.431294407601186" lon="14.338724756569869"><ele>682.0</ele><time>2026-04-30T07:06:15.999Z</time></trkpt><trkpt lat="37.431343667448694" lon="14.338593538434338"><ele>683.0</ele><time>2026-04-30T07:06:16.999Z</time></trkpt><trkpt lat="37.43139695952046" lon="14.33845790750973"><ele>684.0</ele><time>2026-04-30T07:06:17.999Z</time></trkpt><trkpt lat="37.43148370311269" lon="14.338342778083017"><ele>685.0</ele><time>2026-04-30T07:06:18.999Z</time></trkpt><trkpt lat="37.431579301867565" lon="14.338218357663271"><ele>686.0</ele><time>2026-04-30T07:06:19.999Z</time></trkpt><trkpt lat="37.431685898000644" lon="14.338084086956458"><ele>680.3333333333333</ele><time>2026-04-30T07:06:20.999Z</time></trkpt><trkpt lat="37.431782828741134" lon="14.337930435392686"><ele>674.6666666666666</ele><time>2026-04-30T07:06:21.999Z</time></trkpt><trkpt lat="37.431891130825306" lon="14.33779414307501"><ele>669.0</ele><time>2026-04-30T07:06:22.999Z</time></trkpt><trkpt lat="37.43199685419753" lon="14.33765635237124"><ele>669.0</ele><time>2026-04-30T07:06:23.999Z</time></trkpt><trkpt lat="37.43209873024376" lon="14.337522946930195"><ele>669.0</ele><time>2026-04-30T07:06:24.999Z</time></trkpt><trkpt lat="37.43219274069662" lon="14.33740663335685"><ele>669.0</ele><time>2026-04-30T07:06:25.999Z</time></trkpt><trkpt lat="37.43227915621855" lon="14.33732099789516"><ele>669.0</ele><time>2026-04-30T07:06:26.999Z</time></trkpt><trkpt lat="37.432371843057865" lon="14.337283234476107"><ele>672.6</ele><time>2026-04-30T07:06:27.999Z</time></trkpt><trkpt lat="37.43246820789604" lon="14.337322583670657"><ele>676.2</ele><time>2026-04-30T07:06:28.999Z</time></trkpt><trkpt lat="37.4325651146817" lon="14.337351847026303"><ele>679.8000000000001</ele><time>2026-04-30T07:06:29.999Z</time></trkpt><trkpt lat="37.4326716204508" lon="14.33735862723716"><ele>683.4000000000001</ele><time>2026-04-30T07:06:30.999Z</time></trkpt><trkpt lat="37.4327684299739" lon="14.337389442465593"><ele>687.0</ele><time>2026-04-30T07:06:31.999Z</time></trkpt><trkpt lat="37.43285931430421" lon="14.337411951964572"><ele>687.0</ele><time>2026-04-30T07:06:32.999Z</time></trkpt><trkpt lat="37.43294406230599" lon="14.33743014916266"><ele>687.0</ele><time>2026-04-30T07:06:33.999Z</time></trkpt><trkpt lat="37.43303218912599" lon="14.33745307299373"><ele>687.0</ele><time>2026-04-30T07:06:34.999Z</time></trkpt><trkpt lat="37.433133419793386" lon="14.33746906461701"><ele>687.0</ele><time>2026-04-30T07:06:35.999Z</time></trkpt><trkpt lat="37.433234587050194" lon="14.337466508765383"><ele>687.0</ele><time>2026-04-30T07:06:36.999Z</time></trkpt><trkpt lat="37.43332933948219" lon="14.337437541548663"><ele>688.0</ele><time>2026-04-30T07:06:37.999Z</time></trkpt><trkpt lat="37.43341053911789" lon="14.337390696850749"><ele>689.0</ele><time>2026-04-30T07:06:38.999Z</time></trkpt><trkpt lat="37.43345210988275" lon="14.337285877593862"><ele>690.0</ele><time>2026-04-30T07:06:39.999Z</time></trkpt><trkpt lat="37.43350137429202" lon="14.337196749197698"><ele>691.0</ele><time>2026-04-30T07:06:40.999Z</time></trkpt><trkpt lat="37.43355564348319" lon="14.33708055737564"><ele>692.0</ele><time>2026-04-30T07:06:41.999Z</time></trkpt><trkpt lat="37.43361546743874" lon="14.336930372912288"><ele>694.0</ele><time>2026-04-30T07:06:42.999Z</time></trkpt><trkpt lat="37.433692249350685" lon="14.336800710585925"><ele>696.0</ele><time>2026-04-30T07:06:43.999Z</time></trkpt><trkpt lat="37.43373101532225" lon="14.33665944067966"><ele>698.0</ele><time>2026-04-30T07:06:44.999Z</time></trkpt><trkpt lat="37.433772433734134" lon="14.336528497872603"><ele>700.0</ele><time>2026-04-30T07:06:45.999Z</time></trkpt><trkpt lat="37.43380746833026" lon="14.336391867091205"><ele>698.5</ele><time>2026-04-30T07:06:46.999Z</time></trkpt><trkpt lat="37.43384330943146" lon="14.336250162796311"><ele>697.0</ele><time>2026-04-30T07:06:47.999Z</time></trkpt><trkpt lat="37.43389149961385" lon="14.336104680643578"><ele>695.5</ele><time>2026-04-30T07:06:48.999Z</time></trkpt><trkpt lat="37.43395319517565" lon="14.335961688857639"><ele>694.0</ele><time>2026-04-30T07:06:49.999Z</time></trkpt><trkpt lat="37.43403723265105" lon="14.335853648791435"><ele>694.0</ele><time>2026-04-30T07:06:50.999Z</time></trkpt><trkpt lat="37.43411038976213" lon="14.33571883282582"><ele>694.0</ele><time>2026-04-30T07:06:51.999Z</time></trkpt><trkpt lat="37.434197239513374" lon="14.33560092941235"><ele>694.0</ele><time>2026-04-30T07:06:52.999Z</time></trkpt><trkpt lat="37.43427952885806" lon="14.33549733538822"><ele>694.0</ele><time>2026-04-30T07:06:53.999Z</time></trkpt><trkpt lat="37.43435376366544" lon="14.335403834964731"><ele>693.0</ele><time>2026-04-30T07:06:54.999Z</time></trkpt><trkpt lat="37.43440108774605" lon="14.33533434392527"><ele>692.0</ele><time>2026-04-30T07:06:55.999Z</time></trkpt><trkpt lat="37.434493161606085" lon="14.335233577909598"><ele>691.0</ele><time>2026-04-30T07:06:57.999Z</time></trkpt><trkpt lat="37.43457135608902" lon="14.335166021994882"><ele>690.0</ele><time>2026-04-30T07:06:59.999Z</time></trkpt><trkpt lat="37.43462315916456" lon="14.335114991875571"><ele>689.0</ele><time>2026-04-30T07:07:06.999Z</time></trkpt><trkpt lat="37.43454101354499" lon="14.335163878261657"><ele>688.0</ele><time>2026-04-30T07:07:24.998Z</time></trkpt><trkpt lat="37.43447688884218" lon="14.335237080042797"><ele>688.0</ele><time>2026-04-30T07:07:25.998Z</time></trkpt><trkpt lat="37.43440567396601" lon="14.335331951667067"><ele>688.0</ele><time>2026-04-30T07:07:26.998Z</time></trkpt><trkpt lat="37.43432020309549" lon="14.33544780097929"><ele>688.0</ele><time>2026-04-30T07:07:27.998Z</time></trkpt><trkpt lat="37.434256935255306" lon="14.335535746993585"><ele>688.0</ele><time>2026-04-30T07:07:28.998Z</time></trkpt><trkpt lat="37.434176649303645" lon="14.33557771385042"><ele>688.0</ele><time>2026-04-30T07:07:30.998Z</time></trkpt><trkpt lat="37.43414914524835" lon="14.33547157068953"><ele>688.0</ele><time>2026-04-30T07:07:32.999Z</time></trkpt><trkpt lat="37.434205687294586" lon="14.335370057934949"><ele>688.0</ele><time>2026-04-30T07:07:33.999Z</time></trkpt><trkpt lat="37.434259128640875" lon="14.335228973932846"><ele>688.0</ele><time>2026-04-30T07:07:34.999Z</time></trkpt><trkpt lat="37.43434765852097" lon="14.33509357065091"><ele>688.0</ele><time>2026-04-30T07:07:35.999Z</time></trkpt><trkpt lat="37.43444882491249" lon="14.334928818234106"><ele>688.0</ele><time>2026-04-30T07:07:36.999Z</time></trkpt><trkpt lat="37.4345755244452" lon="14.334760410383662"><ele>688.0</ele><time>2026-04-30T07:07:37.999Z</time></trkpt><trkpt lat="37.4347057069609" lon="14.334589542602295"><ele>688.0</ele><time>2026-04-30T07:07:39Z</time></trkpt><trkpt lat="37.43485208499992" lon="14.334408163572377"><ele>687.3333333333334</ele><time>2026-04-30T07:07:39.999Z</time></trkpt><trkpt lat="37.43501257001492" lon="14.334259371699462"><ele>686.6666666666666</ele><time>2026-04-30T07:07:41Z</time></trkpt><trkpt lat="37.43515654275616" lon="14.334115434431084"><ele>686.0</ele><time>2026-04-30T07:07:42Z</time></trkpt><trkpt lat="37.43530247052418" lon="14.333998265938725"><ele>681.3333333333333</ele><time>2026-04-30T07:07:43Z</time></trkpt><trkpt lat="37.435437748838226" lon="14.33386814174289"><ele>676.6666666666666</ele><time>2026-04-30T07:07:44Z</time></trkpt><trkpt lat="37.435571778414534" lon="14.33373800840418"><ele>672.0</ele><time>2026-04-30T07:07:45Z</time></trkpt><trkpt lat="37.43572112747851" lon="14.333593000890069"><ele>672.0</ele><time>2026-04-30T07:07:46Z</time></trkpt><trkpt lat="37.435885794785776" lon="14.333433121296126"><ele>672.0</ele><time>2026-04-30T07:07:47Z</time></trkpt><trkpt lat="37.43605024976081" lon="14.333273243585673"><ele>672.0</ele><time>2026-04-30T07:07:48Z</time></trkpt><trkpt lat="37.436201048139374" lon="14.333124910199441"><ele>669.0</ele><time>2026-04-30T07:07:48.999Z</time></trkpt><trkpt lat="37.43635397866292" lon="14.332974479778464"><ele>666.0</ele><time>2026-04-30T07:07:49.999Z</time></trkpt><trkpt lat="37.436502510640175" lon="14.33282813874107"><ele>663.0</ele><time>2026-04-30T07:07:50.999Z</time></trkpt><trkpt lat="37.43664583849808" lon="14.332684961362952"><ele>663.0</ele><time>2026-04-30T07:07:51.999Z</time></trkpt><trkpt lat="37.43678329603178" lon="14.332541134320019"><ele>663.0</ele><time>2026-04-30T07:07:52.999Z</time></trkpt><trkpt lat="37.43690509057912" lon="14.332409353267767"><ele>663.0</ele><time>2026-04-30T07:07:53.999Z</time></trkpt><trkpt lat="37.43700368976867" lon="14.332301773846497"><ele>660.5999999999999</ele><time>2026-04-30T07:07:54.999Z</time></trkpt><trkpt lat="37.437077659566896" lon="14.332197177358612"><ele>658.1999999999999</ele><time>2026-04-30T07:07:55.999Z</time></trkpt><trkpt lat="37.437150344956045" lon="14.332110939846329"><ele>655.8</ele><time>2026-04-30T07:07:56.999Z</time></trkpt><trkpt lat="37.437188017114245" lon="14.331998083143432"><ele>653.4</ele><time>2026-04-30T07:07:57.999Z</time></trkpt><trkpt lat="37.43721272997555" lon="14.331861960585664"><ele>651.0</ele><time>2026-04-30T07:07:58.999Z</time></trkpt><trkpt lat="37.43715847303072" lon="14.331728113743228"><ele>650.8</ele><time>2026-04-30T07:07:59.999Z</time></trkpt><trkpt lat="37.43708445165635" lon="14.331628297575618"><ele>650.5999999999999</ele><time>2026-04-30T07:08:00.999Z</time></trkpt><trkpt lat="37.43699740107632" lon="14.331565979374382"><ele>650.4</ele><time>2026-04-30T07:08:01.999Z</time></trkpt><trkpt lat="37.43689924389215" lon="14.331552487245256"><ele>650.2</ele><time>2026-04-30T07:08:02.999Z</time></trkpt><trkpt lat="37.4367978173929" lon="14.331589140447266"><ele>650.0</ele><time>2026-04-30T07:08:03.999Z</time></trkpt><trkpt lat="37.436693087643725" lon="14.331668900748975"><ele>650.0</ele><time>2026-04-30T07:08:04.999Z</time></trkpt><trkpt lat="37.43658990901828" lon="14.331760456400572"><ele>650.0</ele><time>2026-04-30T07:08:05.999Z</time></trkpt><trkpt lat="37.4364833937117" lon="14.331854017427345"><ele>650.0</ele><time>2026-04-30T07:08:06.999Z</time></trkpt><trkpt lat="37.43636299562838" lon="14.331925785808046"><ele>650.0</ele><time>2026-04-30T07:08:07.999Z</time></trkpt><trkpt lat="37.436224456155095" lon="14.331981820598498"><ele>648.5</ele><time>2026-04-30T07:08:08.999Z</time></trkpt><trkpt lat="37.436072716789205" lon="14.332019270305898"><ele>647.0</ele><time>2026-04-30T07:08:09.999Z</time></trkpt><trkpt lat="37.43592015565138" lon="14.33205078444739"><ele>645.5</ele><time>2026-04-30T07:08:10.999Z</time></trkpt><trkpt lat="37.43578499846735" lon="14.33207469066923"><ele>644.0</ele><time>2026-04-30T07:08:11.999Z</time></trkpt><trkpt lat="37.435672078867256" lon="14.332090218835337"><ele>644.0</ele><time>2026-04-30T07:08:12.999Z</time></trkpt><trkpt lat="37.43557263553186" lon="14.332092798922849"><ele>644.0</ele><time>2026-04-30T07:08:13.999Z</time></trkpt><trkpt lat="37.43548941493669" lon="14.332083026286082"><ele>644.0</ele><time>2026-04-30T07:08:14.999Z</time></trkpt><trkpt lat="37.43540993281257" lon="14.332045487614202"><ele>644.0</ele><time>2026-04-30T07:08:15.999Z</time></trkpt><trkpt lat="37.43534905015739" lon="14.331972153845447"><ele>644.0</ele><time>2026-04-30T07:08:16.999Z</time></trkpt><trkpt lat="37.435314543360555" lon="14.331882660951253"><ele>644.0</ele><time>2026-04-30T07:08:17.999Z</time></trkpt><trkpt lat="37.43528734051455" lon="14.331764609332959"><ele>644.0</ele><time>2026-04-30T07:08:18.999Z</time></trkpt><trkpt lat="37.435295167131024" lon="14.33164200447408"><ele>644.0</ele><time>2026-04-30T07:08:19.999Z</time></trkpt><trkpt lat="37.435369437562954" lon="14.331565700329284"><ele>644.0</ele><time>2026-04-30T07:08:20.999Z</time></trkpt><trkpt lat="37.43544083011272" lon="14.331486243597196"><ele>644.0</ele><time>2026-04-30T07:08:21.999Z</time></trkpt><trkpt lat="37.43551108464436" lon="14.331393343461238"><ele>644.0</ele><time>2026-04-30T07:08:22.999Z</time></trkpt><trkpt lat="37.435601605165516" lon="14.331326880624943"><ele>643.8000000000001</ele><time>2026-04-30T07:08:23.999Z</time></trkpt><trkpt lat="37.43567573290222" lon="14.331246556287276"><ele>643.6</ele><time>2026-04-30T07:08:24.999Z</time></trkpt><trkpt lat="37.43572917651776" lon="14.331131648693182"><ele>643.4</ele><time>2026-04-30T07:08:25.999Z</time></trkpt><trkpt lat="37.43575126212879" lon="14.330997851907425"><ele>643.2</ele><time>2026-04-30T07:08:26.999Z</time></trkpt><trkpt lat="37.435728003956896" lon="14.330854037369935"><ele>643.0</ele><time>2026-04-30T07:08:27.999Z</time></trkpt><trkpt lat="37.435665708516396" lon="14.33070754803384"><ele>643.0</ele><time>2026-04-30T07:08:28.999Z</time></trkpt><trkpt lat="37.435582513135685" lon="14.330564214910206"><ele>643.0</ele><time>2026-04-30T07:08:29.999Z</time></trkpt><trkpt lat="37.43552064358429" lon="14.330404187038841"><ele>643.0</ele><time>2026-04-30T07:08:30.999Z</time></trkpt><trkpt lat="37.43544825357645" lon="14.330256862361821"><ele>643.0</ele><time>2026-04-30T07:08:31.999Z</time></trkpt><trkpt lat="37.43537549849064" lon="14.330112641684492"><ele>639.5</ele><time>2026-04-30T07:08:32.999Z</time></trkpt><trkpt lat="37.435298217618474" lon="14.329959449557316"><ele>636.0</ele><time>2026-04-30T07:08:33.999Z</time></trkpt><trkpt lat="37.43521699401714" lon="14.32979844140839"><ele>632.5</ele><time>2026-04-30T07:08:34.999Z</time></trkpt><trkpt lat="37.43513690512446" lon="14.329637574197227"><ele>629.0</ele><time>2026-04-30T07:08:35.999Z</time></trkpt><trkpt lat="37.43506091162616" lon="14.329484394838772"><ele>629.0</ele><time>2026-04-30T07:08:36.999Z</time></trkpt><trkpt lat="37.434984513922245" lon="14.329330400733967"><ele>629.0</ele><time>2026-04-30T07:08:37.999Z</time></trkpt><trkpt lat="37.434909812689796" lon="14.32917982619148"><ele>629.0</ele><time>2026-04-30T07:08:38.999Z</time></trkpt><trkpt lat="37.43483584017194" lon="14.329030720505237"><ele>629.0</ele><time>2026-04-30T07:08:39.999Z</time></trkpt><trkpt lat="37.43476508120358" lon="14.32887582678705"><ele>629.0</ele><time>2026-04-30T07:08:40.999Z</time></trkpt><trkpt lat="37.43469653556591" lon="14.328707028567385"><ele>629.0</ele><time>2026-04-30T07:08:41.999Z</time></trkpt><trkpt lat="37.434624162599675" lon="14.328528805285256"><ele>629.0</ele><time>2026-04-30T07:08:42.999Z</time></trkpt><trkpt lat="37.434548433011855" lon="14.328342316098492"><ele>622.0</ele><time>2026-04-30T07:08:43.999Z</time></trkpt><trkpt lat="37.43446218234992" lon="14.32815662699586"><ele>615.0</ele><time>2026-04-30T07:08:44.999Z</time></trkpt><trkpt lat="37.43438719959574" lon="14.32796602069179"><ele>608.0</ele><time>2026-04-30T07:08:45.999Z</time></trkpt><trkpt lat="37.434313256177795" lon="14.327777421655073"><ele>607.6666666666666</ele><time>2026-04-30T07:08:46.999Z</time></trkpt><trkpt lat="37.43425465486933" lon="14.327582008535702"><ele>607.3333333333334</ele><time>2026-04-30T07:08:47.999Z</time></trkpt><trkpt lat="37.434185887799245" lon="14.327393690047366"><ele>607.0</ele><time>2026-04-30T07:08:48.999Z</time></trkpt><trkpt lat="37.434120756830914" lon="14.327210366945213"><ele>607.0</ele><time>2026-04-30T07:08:49.999Z</time></trkpt><trkpt lat="37.43406584019571" lon="14.327046902645533"><ele>607.0</ele><time>2026-04-30T07:08:50.999Z</time></trkpt><trkpt lat="37.43401808042293" lon="14.326876432401125"><ele>607.0</ele><time>2026-04-30T07:08:51.999Z</time></trkpt><trkpt lat="37.433985861978414" lon="14.32669968712245"><ele>607.0</ele><time>2026-04-30T07:08:52.999Z</time></trkpt><trkpt lat="37.433980556585894" lon="14.32651404251558"><ele>607.0</ele><time>2026-04-30T07:08:53.999Z</time></trkpt><trkpt lat="37.433959548751126" lon="14.32631916679828"><ele>607.0</ele><time>2026-04-30T07:08:54.999Z</time></trkpt><trkpt lat="37.433957267384876" lon="14.326116073260478"><ele>607.0</ele><time>2026-04-30T07:08:55.999Z</time></trkpt><trkpt lat="37.43395062935447" lon="14.325906596086751"><ele>607.0</ele><time>2026-04-30T07:08:56.999Z</time></trkpt><trkpt lat="37.433943663111215" lon="14.325693831427776"><ele>607.0</ele><time>2026-04-30T07:08:57.999Z</time></trkpt><trkpt lat="37.43393656836627" lon="14.32548451857456"><ele>607.0</ele><time>2026-04-30T07:08:58.999Z</time></trkpt><trkpt lat="37.43392605378741" lon="14.325282081242706"><ele>605.3333333333334</ele><time>2026-04-30T07:08:59.999Z</time></trkpt><trkpt lat="37.433914854771956" lon="14.325077712837707"><ele>603.6666666666666</ele><time>2026-04-30T07:09:00.999Z</time></trkpt><trkpt lat="37.4339072225254" lon="14.324875063622777"><ele>602.0</ele><time>2026-04-30T07:09:01.999Z</time></trkpt><trkpt lat="37.43390116267178" lon="14.32467000193229"><ele>600.3333333333333</ele><time>2026-04-30T07:09:02.999Z</time></trkpt><trkpt lat="37.43390332456833" lon="14.324468521741741"><ele>598.6666666666666</ele><time>2026-04-30T07:09:03.999Z</time></trkpt><trkpt lat="37.43390550871028" lon="14.324275519764072"><ele>597.0</ele><time>2026-04-30T07:09:04.999Z</time></trkpt><trkpt lat="37.43390605012383" lon="14.324096089578738"><ele>597.0</ele><time>2026-04-30T07:09:05.999Z</time></trkpt><trkpt lat="37.43390351568269" lon="14.323918969934985"><ele>597.0</ele><time>2026-04-30T07:09:06.999Z</time></trkpt><trkpt lat="37.43390405298549" lon="14.323730537137774"><ele>597.0</ele><time>2026-04-30T07:09:07.999Z</time></trkpt><trkpt lat="37.43391184235119" lon="14.323544823301326"><ele>597.0</ele><time>2026-04-30T07:09:08.999Z</time></trkpt><trkpt lat="37.43390871067788" lon="14.323354158237338"><ele>596.6666666666666</ele><time>2026-04-30T07:09:09.999Z</time></trkpt><trkpt lat="37.433905383475306" lon="14.32315251525263"><ele>596.3333333333333</ele><time>2026-04-30T07:09:10.999Z</time></trkpt><trkpt lat="37.43390212836247" lon="14.322957411805744"><ele>596.0</ele><time>2026-04-30T07:09:11.999Z</time></trkpt><trkpt lat="37.433898955479" lon="14.322767236971298"><ele>595.6666666666666</ele><time>2026-04-30T07:09:12.999Z</time></trkpt><trkpt lat="37.43389594497405" lon="14.322577860177068"><ele>595.3333333333334</ele><time>2026-04-30T07:09:13.999Z</time></trkpt><trkpt lat="37.43389310632351" lon="14.322389215332272"><ele>595.0</ele><time>2026-04-30T07:09:14.999Z</time></trkpt><trkpt lat="37.43388870751538" lon="14.32219755709291"><ele>594.0</ele><time>2026-04-30T07:09:15.999Z</time></trkpt><trkpt lat="37.43388447347078" lon="14.32201307769254"><ele>593.0</ele><time>2026-04-30T07:09:16.999Z</time></trkpt><trkpt lat="37.43388021798447" lon="14.321827664022745"><ele>592.0</ele><time>2026-04-30T07:09:17.999Z</time></trkpt><trkpt lat="37.433877988769595" lon="14.321634735691461"><ele>591.0</ele><time>2026-04-30T07:09:18.999Z</time></trkpt><trkpt lat="37.43387852017889" lon="14.321433387750137"><ele>588.0</ele><time>2026-04-30T07:09:19.999Z</time></trkpt><trkpt lat="37.433870370674995" lon="14.321240704139322"><ele>585.0</ele><time>2026-04-30T07:09:20.999Z</time></trkpt><trkpt lat="37.43389353161582" lon="14.321057397532197"><ele>582.0</ele><time>2026-04-30T07:09:21.999Z</time></trkpt><trkpt lat="37.43394059826947" lon="14.320882859085312"><ele>579.0</ele><time>2026-04-30T07:09:22.999Z</time></trkpt><trkpt lat="37.43399692440238" lon="14.320707387523498"><ele>575.25</ele><time>2026-04-30T07:09:23.999Z</time></trkpt><trkpt lat="37.43404272363788" lon="14.320537182822356"><ele>571.5</ele><time>2026-04-30T07:09:24.999Z</time></trkpt><trkpt lat="37.43407635598225" lon="14.32036904730135"><ele>567.75</ele><time>2026-04-30T07:09:25.999Z</time></trkpt><trkpt lat="37.43412243543065" lon="14.320211764645437"><ele>564.0</ele><time>2026-04-30T07:09:26.999Z</time></trkpt><trkpt lat="37.434165263956345" lon="14.320073851440767"><ele>564.0</ele><time>2026-04-30T07:09:27.999Z</time></trkpt><trkpt lat="37.43422934067444" lon="14.319980159615259"><ele>564.0</ele><time>2026-04-30T07:09:28.998Z</time></trkpt><trkpt lat="37.434292482663864" lon="14.31990385749772"><ele>564.0</ele><time>2026-04-30T07:09:29.998Z</time></trkpt><trkpt lat="37.434383131091714" lon="14.319866436619884"><ele>564.0</ele><time>2026-04-30T07:09:30.998Z</time></trkpt><trkpt lat="37.43447931383868" lon="14.31986712525014"><ele>564.0</ele><time>2026-04-30T07:09:31.998Z</time></trkpt><trkpt lat="37.434585533954625" lon="14.319864233427234"><ele>564.8</ele><time>2026-04-30T07:09:32.998Z</time></trkpt><trkpt lat="37.434697460149536" lon="14.319851530421005"><ele>565.5999999999999</ele><time>2026-04-30T07:09:33.998Z</time></trkpt><trkpt lat="37.43480726636017" lon="14.319868909680189"><ele>566.4</ele><time>2026-04-30T07:09:34.998Z</time></trkpt><trkpt lat="37.43491738726583" lon="14.319868255945623"><ele>567.1999999999999</ele><time>2026-04-30T07:09:35.998Z</time></trkpt><trkpt lat="37.43502942070956" lon="14.319859243760568"><ele>568.0</ele><time>2026-04-30T07:09:36.998Z</time></trkpt><trkpt lat="37.435139919954615" lon="14.319866523594333"><ele>568.0</ele><time>2026-04-30T07:09:38Z</time></trkpt><trkpt lat="37.435237598057064" lon="14.319829334546693"><ele>568.0</ele><time>2026-04-30T07:09:39Z</time></trkpt><trkpt lat="37.43531288193279" lon="14.31975691378924"><ele>568.0</ele><time>2026-04-30T07:09:40Z</time></trkpt><trkpt lat="37.43533423821113" lon="14.319630659382383"><ele>568.0</ele><time>2026-04-30T07:09:41Z</time></trkpt><trkpt lat="37.435334708231736" lon="14.319530829010285"><ele>568.0</ele><time>2026-04-30T07:09:42Z</time></trkpt><trkpt lat="37.43530168842483" lon="14.319426677933281"><ele>563.6</ele><time>2026-04-30T07:09:43Z</time></trkpt><trkpt lat="37.43524091809538" lon="14.319329835527686"><ele>559.1999999999999</ele><time>2026-04-30T07:09:44Z</time></trkpt><trkpt lat="37.43516052969409" lon="14.31926810350877"><ele>554.8</ele><time>2026-04-30T07:09:45Z</time></trkpt><trkpt lat="37.43505932232261" lon="14.319252089579756"><ele>550.4</ele><time>2026-04-30T07:09:46Z</time></trkpt><trkpt lat="37.434946306496805" lon="14.319260409943231"><ele>546.0</ele><time>2026-04-30T07:09:47Z</time></trkpt><trkpt lat="37.43484031954614" lon="14.31925832921353"><ele>546.0</ele><time>2026-04-30T07:09:48Z</time></trkpt><trkpt lat="37.43474621693036" lon="14.319243690966607"><ele>546.0</ele><time>2026-04-30T07:09:49Z</time></trkpt><trkpt lat="37.4346378443628" lon="14.31920699494304"><ele>546.0</ele><time>2026-04-30T07:09:50Z</time></trkpt><trkpt lat="37.434536946387816" lon="14.319135148785655"><ele>546.0</ele><time>2026-04-30T07:09:51Z</time></trkpt><trkpt lat="37.434448802363995" lon="14.319082033825051"><ele>546.0</ele><time>2026-04-30T07:09:52Z</time></trkpt><trkpt lat="37.43437491806543" lon="14.319005767134554"><ele>543.6</ele><time>2026-04-30T07:09:53Z</time></trkpt><trkpt lat="37.43432887938699" lon="14.318893708575647"><ele>541.2</ele><time>2026-04-30T07:09:54Z</time></trkpt><trkpt lat="37.43431261866895" lon="14.318768826924371"><ele>538.8</ele><time>2026-04-30T07:09:55Z</time></trkpt><trkpt lat="37.43436052470021" lon="14.318654835938782"><ele>536.4</ele><time>2026-04-30T07:09:56Z</time></trkpt><trkpt lat="37.43440719440304" lon="14.3185683917542"><ele>534.0</ele><time>2026-04-30T07:09:57Z</time></trkpt><trkpt lat="37.434462010170066" lon="14.318486256987146"><ele>534.0</ele><time>2026-04-30T07:09:58Z</time></trkpt><trkpt lat="37.434535590954454" lon="14.318426403867607"><ele>534.0</ele><time>2026-04-30T07:09:59Z</time></trkpt><trkpt lat="37.43462951240827" lon="14.318411149093988"><ele>534.0</ele><time>2026-04-30T07:10:00Z</time></trkpt><trkpt lat="37.434726477870434" lon="14.318484026286576"><ele>534.0</ele><time>2026-04-30T07:10:00.999Z</time></trkpt><trkpt lat="37.43482241094252" lon="14.31853537444526"><ele>534.0</ele><time>2026-04-30T07:10:01.999Z</time></trkpt><trkpt lat="37.434935919674736" lon="14.318598954692435"><ele>533.0</ele><time>2026-04-30T07:10:02.999Z</time></trkpt><trkpt lat="37.43505266127096" lon="14.318668148918118"><ele>532.0</ele><time>2026-04-30T07:10:03.999Z</time></trkpt><trkpt lat="37.435166163517906" lon="14.318737945237844"><ele>531.0</ele><time>2026-04-30T07:10:04.999Z</time></trkpt><trkpt lat="37.435277384018455" lon="14.3188054102377"><ele>530.0</ele><time>2026-04-30T07:10:05.999Z</time></trkpt><trkpt lat="37.4353904782726" lon="14.318873053549398"><ele>529.5</ele><time>2026-04-30T07:10:06.999Z</time></trkpt><trkpt lat="37.43550810665708" lon="14.318942421158818"><ele>529.0</ele><time>2026-04-30T07:10:07.999Z</time></trkpt><trkpt lat="37.435620953357436" lon="14.319010139712432"><ele>528.5</ele><time>2026-04-30T07:10:08.999Z</time></trkpt><trkpt lat="37.43573285468837" lon="14.319078014299611"><ele>528.0</ele><time>2026-04-30T07:10:09.999Z</time></trkpt><trkpt lat="37.43583475506164" lon="14.319138224413988"><ele>528.0</ele><time>2026-04-30T07:10:10.999Z</time></trkpt><trkpt lat="37.43594119471566" lon="14.319195601521304"><ele>528.0</ele><time>2026-04-30T07:10:11.999Z</time></trkpt><trkpt lat="37.436055208584165" lon="14.319242449243179"><ele>528.0</ele><time>2026-04-30T07:10:12.999Z</time></trkpt><trkpt lat="37.43617211873216" lon="14.31926953477997"><ele>528.0</ele><time>2026-04-30T07:10:13.999Z</time></trkpt><trkpt lat="37.436282380273525" lon="14.319258778050218"><ele>526.6</ele><time>2026-04-30T07:10:14.999Z</time></trkpt><trkpt lat="37.43637541365253" lon="14.319167602094073"><ele>525.1999999999999</ele><time>2026-04-30T07:10:15.999Z</time></trkpt><trkpt lat="37.43646615388577" lon="14.319071836333826"><ele>523.8</ele><time>2026-04-30T07:10:16.999Z</time></trkpt><trkpt lat="37.43653777593519" lon="14.31897018215733"><ele>522.4</ele><time>2026-04-30T07:10:17.999Z</time></trkpt><trkpt lat="37.43658660348179" lon="14.318864531365948"><ele>521.0</ele><time>2026-04-30T07:10:18.999Z</time></trkpt><trkpt lat="37.43664085086929" lon="14.318755860418518"><ele>521.0</ele><time>2026-04-30T07:10:19.999Z</time></trkpt><trkpt lat="37.436691258986855" lon="14.31863008358687"><ele>521.0</ele><time>2026-04-30T07:10:20.999Z</time></trkpt><trkpt lat="37.436746022694074" lon="14.318497583228787"><ele>521.0</ele><time>2026-04-30T07:10:21.999Z</time></trkpt><trkpt lat="37.43677559892955" lon="14.318336911341202"><ele>521.0</ele><time>2026-04-30T07:10:22.999Z</time></trkpt><trkpt lat="37.436790290255395" lon="14.318183638105095"><ele>521.0</ele><time>2026-04-30T07:10:23.999Z</time></trkpt><trkpt lat="37.43677727053768" lon="14.318031888496716"><ele>521.0</ele><time>2026-04-30T07:10:24.999Z</time></trkpt><trkpt lat="37.43673853580862" lon="14.317893905146592"><ele>521.0</ele><time>2026-04-30T07:10:25.999Z</time></trkpt><trkpt lat="37.436688796283526" lon="14.317761962766115"><ele>521.0</ele><time>2026-04-30T07:10:26.999Z</time></trkpt><trkpt lat="37.436623851322416" lon="14.317623817130011"><ele>521.0</ele><time>2026-04-30T07:10:27.999Z</time></trkpt><trkpt lat="37.43655374190167" lon="14.317479758556734"><ele>521.0</ele><time>2026-04-30T07:10:28.999Z</time></trkpt><trkpt lat="37.43647854725307" lon="14.31733218379106"><ele>521.0</ele><time>2026-04-30T07:10:29.999Z</time></trkpt><trkpt lat="37.43639427416018" lon="14.31718004125113"><ele>521.0</ele><time>2026-04-30T07:10:30.999Z</time></trkpt><trkpt lat="37.43631004883942" lon="14.317035474043106"><ele>520.5</ele><time>2026-04-30T07:10:31.999Z</time></trkpt><trkpt lat="37.43622797695106" lon="14.316895442244872"><ele>520.0</ele><time>2026-04-30T07:10:32.999Z</time></trkpt><trkpt lat="37.43612957748121" lon="14.31676242733134"><ele>519.5</ele><time>2026-04-30T07:10:33.999Z</time></trkpt><trkpt lat="37.43605967703728" lon="14.316604407888924"><ele>519.0</ele><time>2026-04-30T07:10:34.999Z</time></trkpt><trkpt lat="37.43597374420722" lon="14.316453509995421"><ele>522.3333333333334</ele><time>2026-04-30T07:10:35.999Z</time></trkpt><trkpt lat="37.43588666875194" lon="14.316296709349059"><ele>525.6666666666667</ele><time>2026-04-30T07:10:36.999Z</time></trkpt><trkpt lat="37.435787990329494" lon="14.316147317255146"><ele>529.0</ele><time>2026-04-30T07:10:37.999Z</time></trkpt><trkpt lat="37.43569606366288" lon="14.315981455196084"><ele>529.0</ele><time>2026-04-30T07:10:38.999Z</time></trkpt><trkpt lat="37.43559626221905" lon="14.315811224548266"><ele>529.0</ele><time>2026-04-30T07:10:39.999Z</time></trkpt><trkpt lat="37.43550983765544" lon="14.315621029981475"><ele>529.0</ele><time>2026-04-30T07:10:40.999Z</time></trkpt><trkpt lat="37.435409376724145" lon="14.315440897883589"><ele>528.0</ele><time>2026-04-30T07:10:41.999Z</time></trkpt><trkpt lat="37.4353073863766" lon="14.315258023445676"><ele>527.0</ele><time>2026-04-30T07:10:42.999Z</time></trkpt><trkpt lat="37.435208446038324" lon="14.315078330101795"><ele>526.0</ele><time>2026-04-30T07:10:43.999Z</time></trkpt><trkpt lat="37.43511720911468" lon="14.314910712831335"><ele>526.0</ele><time>2026-04-30T07:10:44.999Z</time></trkpt><trkpt lat="37.43502566463445" lon="14.314743891529789"><ele>526.0</ele><time>2026-04-30T07:10:45.999Z</time></trkpt><trkpt lat="37.43493521118686" lon="14.31458247827976"><ele>526.0</ele><time>2026-04-30T07:10:46.999Z</time></trkpt><trkpt lat="37.43483437897483" lon="14.314438692341763"><ele>527.3333333333334</ele><time>2026-04-30T07:10:47.999Z</time></trkpt><trkpt lat="37.43474792595437" lon="14.314278423294605"><ele>528.6666666666666</ele><time>2026-04-30T07:10:48.999Z</time></trkpt><trkpt lat="37.43467092589016" lon="14.314099513809024"><ele>530.0</ele><time>2026-04-30T07:10:49.999Z</time></trkpt><trkpt lat="37.43458658489434" lon="14.313940772517205"><ele>527.0</ele><time>2026-04-30T07:10:50.999Z</time></trkpt><trkpt lat="37.434498067834774" lon="14.313780695972042"><ele>524.0</ele><time>2026-04-30T07:10:51.999Z</time></trkpt><trkpt lat="37.434404216542106" lon="14.313612275300217"><ele>521.0</ele><time>2026-04-30T07:10:52.999Z</time></trkpt><trkpt lat="37.43430899511629" lon="14.313441395857824"><ele>521.0</ele><time>2026-04-30T07:10:53.999Z</time></trkpt><trkpt lat="37.43421792975687" lon="14.313274760553497"><ele>521.0</ele><time>2026-04-30T07:10:54.999Z</time></trkpt><trkpt lat="37.43413481647006" lon="14.313118683280631"><ele>521.0</ele><time>2026-04-30T07:10:55.999Z</time></trkpt><trkpt lat="37.43405884074021" lon="14.312963256195475"><ele>523.25</ele><time>2026-04-30T07:10:56.999Z</time></trkpt><trkpt lat="37.4339830679078" lon="14.312812014371849"><ele>525.5</ele><time>2026-04-30T07:10:57.999Z</time></trkpt><trkpt lat="37.43392117635501" lon="14.312667616182063"><ele>527.75</ele><time>2026-04-30T07:10:58.999Z</time></trkpt><trkpt lat="37.43388141276795" lon="14.31251966777665"><ele>530.0</ele><time>2026-04-30T07:10:59.999Z</time></trkpt><trkpt lat="37.43385662535388" lon="14.312365891235956"><ele>529.25</ele><time>2026-04-30T07:11:00.999Z</time></trkpt><trkpt lat="37.433833760253556" lon="14.312206785884644"><ele>528.5</ele><time>2026-04-30T07:11:01.999Z</time></trkpt><trkpt lat="37.433817922187835" lon="14.312054649320665"><ele>527.75</ele><time>2026-04-30T07:11:02.999Z</time></trkpt><trkpt lat="37.43380793865296" lon="14.311898551464127"><ele>527.0</ele><time>2026-04-30T07:11:03.999Z</time></trkpt><trkpt lat="37.43379966639968" lon="14.311730487797476"><ele>527.0</ele><time>2026-04-30T07:11:04.999Z</time></trkpt><trkpt lat="37.433792321364756" lon="14.311553938801525"><ele>527.0</ele><time>2026-04-30T07:11:05.999Z</time></trkpt><trkpt lat="37.43378444281019" lon="14.311369138316763"><ele>527.0</ele><time>2026-04-30T07:11:06.999Z</time></trkpt><trkpt lat="37.43377309965773" lon="14.311186560593756"><ele>527.0</ele><time>2026-04-30T07:11:07.999Z</time></trkpt><trkpt lat="37.433744560829716" lon="14.311015655478549"><ele>527.0</ele><time>2026-04-30T07:11:08.999Z</time></trkpt><trkpt lat="37.43373434487761" lon="14.310839150250112"><ele>527.0</ele><time>2026-04-30T07:11:09.999Z</time></trkpt><trkpt lat="37.43372229037585" lon="14.310659416082158"><ele>527.0</ele><time>2026-04-30T07:11:10.999Z</time></trkpt><trkpt lat="37.43372734206892" lon="14.310475616650347"><ele>527.0</ele><time>2026-04-30T07:11:11.999Z</time></trkpt><trkpt lat="37.4337195098669" lon="14.310285799340388"><ele>527.0</ele><time>2026-04-30T07:11:12.999Z</time></trkpt><trkpt lat="37.43371818317237" lon="14.310082345623979"><ele>527.0</ele><time>2026-04-30T07:11:13.999Z</time></trkpt><trkpt lat="37.43370624330589" lon="14.309866063324005"><ele>527.0</ele><time>2026-04-30T07:11:14.999Z</time></trkpt><trkpt lat="37.433692082929284" lon="14.309644177088822"><ele>528.0</ele><time>2026-04-30T07:11:15.999Z</time></trkpt><trkpt lat="37.433678098467404" lon="14.309417268806236"><ele>529.0</ele><time>2026-04-30T07:11:16.999Z</time></trkpt><trkpt lat="37.43367078444883" lon="14.309206130137007"><ele>530.0</ele><time>2026-04-30T07:11:17.999Z</time></trkpt><trkpt lat="37.43366647672064" lon="14.309002144579223"><ele>530.3333333333333</ele><time>2026-04-30T07:11:18.999Z</time></trkpt><trkpt lat="37.433661277551764" lon="14.308802529482504"><ele>530.6666666666666</ele><time>2026-04-30T07:11:19.999Z</time></trkpt><trkpt lat="37.43364861582605" lon="14.30860814128026"><ele>531.0</ele><time>2026-04-30T07:11:20.999Z</time></trkpt><trkpt lat="37.433635896084525" lon="14.308421984873688"><ele>531.0</ele><time>2026-04-30T07:11:21.999Z</time></trkpt><trkpt lat="37.433616244418076" lon="14.308242042065087"><ele>531.0</ele><time>2026-04-30T07:11:22.999Z</time></trkpt><trkpt lat="37.43361547709922" lon="14.308061966286346"><ele>531.0</ele><time>2026-04-30T07:11:23.999Z</time></trkpt><trkpt lat="37.433621411974656" lon="14.307883222261262"><ele>531.0</ele><time>2026-04-30T07:11:24.999Z</time></trkpt><trkpt lat="37.43363659748578" lon="14.307710607297441"><ele>531.0</ele><time>2026-04-30T07:11:25.999Z</time></trkpt><trkpt lat="37.43365298333423" lon="14.307544881248578"><ele>531.0</ele><time>2026-04-30T07:11:26.999Z</time></trkpt><trkpt lat="37.43366581734798" lon="14.307388136351284"><ele>531.0</ele><time>2026-04-30T07:11:27.999Z</time></trkpt><trkpt lat="37.43367642595121" lon="14.307238009831842"><ele>531.0</ele><time>2026-04-30T07:11:28.999Z</time></trkpt><trkpt lat="37.43370558685978" lon="14.307098875988956"><ele>530.0</ele><time>2026-04-30T07:11:29.999Z</time></trkpt><trkpt lat="37.433721579776496" lon="14.306969967878214"><ele>529.0</ele><time>2026-04-30T07:11:30.999Z</time></trkpt><trkpt lat="37.4337368607183" lon="14.30684679852713"><ele>528.0</ele><time>2026-04-30T07:11:31.999Z</time></trkpt><trkpt lat="37.43375270850763" lon="14.306719060183474"><ele>527.0</ele><time>2026-04-30T07:11:32.999Z</time></trkpt><trkpt lat="37.43376824051136" lon="14.306593867185676"><ele>526.0</ele><time>2026-04-30T07:11:33.999Z</time></trkpt><trkpt lat="37.43378364070798" lon="14.306469736599645"><ele>526.2</ele><time>2026-04-30T07:11:34.999Z</time></trkpt><trkpt lat="37.43379845450558" lon="14.30634023218719"><ele>526.4000000000001</ele><time>2026-04-30T07:11:35.999Z</time></trkpt><trkpt lat="37.4338136866203" lon="14.30620415465389"><ele>526.6</ele><time>2026-04-30T07:11:36.999Z</time></trkpt><trkpt lat="37.43382923591933" lon="14.306065243531666"><ele>526.8000000000001</ele><time>2026-04-30T07:11:37.999Z</time></trkpt><trkpt lat="37.43384441743245" lon="14.305938020705595"><ele>527.0</ele><time>2026-04-30T07:11:38.999Z</time></trkpt><trkpt lat="37.43385996582752" lon="14.305819725971487"><ele>529.0</ele><time>2026-04-30T07:11:39.998Z</time></trkpt><trkpt lat="37.43387557982208" lon="14.305702469346741"><ele>531.0</ele><time>2026-04-30T07:11:40.998Z</time></trkpt><trkpt lat="37.43389149790024" lon="14.305583238809795"><ele>533.0</ele><time>2026-04-30T07:11:41.998Z</time></trkpt><trkpt lat="37.43390870974904" lon="14.305454327988796"><ele>535.0</ele><time>2026-04-30T07:11:42.998Z</time></trkpt><trkpt lat="37.433928486563694" lon="14.305306207885591"><ele>537.0</ele><time>2026-04-30T07:11:44Z</time></trkpt><trkpt lat="37.43394994513863" lon="14.305145491963392"><ele>537.0</ele><time>2026-04-30T07:11:45Z</time></trkpt><trkpt lat="37.43397339814972" lon="14.304969838319924"><ele>537.0</ele><time>2026-04-30T07:11:46Z</time></trkpt><trkpt lat="37.433999725627075" lon="14.304772656087005"><ele>537.0</ele><time>2026-04-30T07:11:47Z</time></trkpt><trkpt lat="37.43402707480694" lon="14.304567821711238"><ele>537.0</ele><time>2026-04-30T07:11:48Z</time></trkpt><trkpt lat="37.43402553050317" lon="14.304371066076806"><ele>537.0</ele><time>2026-04-30T07:11:49Z</time></trkpt><trkpt lat="37.43405785123726" lon="14.304184179146564"><ele>537.0</ele><time>2026-04-30T07:11:50Z</time></trkpt><trkpt lat="37.434085645504" lon="14.304000629032354"><ele>535.0</ele><time>2026-04-30T07:11:51Z</time></trkpt><trkpt lat="37.434108531102446" lon="14.303815037086505"><ele>533.0</ele><time>2026-04-30T07:11:52Z</time></trkpt><trkpt lat="37.43412449813651" lon="14.303620218308113"><ele>531.0</ele><time>2026-04-30T07:11:53Z</time></trkpt><trkpt lat="37.43414362704416" lon="14.303409074094118"><ele>531.0</ele><time>2026-04-30T07:11:54Z</time></trkpt><trkpt lat="37.434156291886595" lon="14.303190633918424"><ele>531.0</ele><time>2026-04-30T07:11:55Z</time></trkpt><trkpt lat="37.43414648358082" lon="14.30297013799509"><ele>531.0</ele><time>2026-04-30T07:11:56Z</time></trkpt><trkpt lat="37.43412591543325" lon="14.30275675674039"><ele>529.3333333333334</ele><time>2026-04-30T07:11:57Z</time></trkpt><trkpt lat="37.4341037717431" lon="14.302539686519724"><ele>527.6666666666667</ele><time>2026-04-30T07:11:58Z</time></trkpt><trkpt lat="37.43407695005573" lon="14.302322982342636"><ele>526.0</ele><time>2026-04-30T07:11:59Z</time></trkpt><trkpt lat="37.434047663236704" lon="14.30211414401522"><ele>524.0</ele><time>2026-04-30T07:12:00Z</time></trkpt><trkpt lat="37.434020002580965" lon="14.301905981068758"><ele>522.0</ele><time>2026-04-30T07:12:01Z</time></trkpt><trkpt lat="37.433992212521915" lon="14.301698268224154"><ele>520.0</ele><time>2026-04-30T07:12:02Z</time></trkpt><trkpt lat="37.43396527136353" lon="14.301494040623616"><ele>520.6666666666667</ele><time>2026-04-30T07:12:03Z</time></trkpt><trkpt lat="37.43393871674766" lon="14.301286360206149"><ele>521.3333333333334</ele><time>2026-04-30T07:12:04Z</time></trkpt><trkpt lat="37.43391302993795" lon="14.30107669880183"><ele>522.0</ele><time>2026-04-30T07:12:05Z</time></trkpt><trkpt lat="37.43388782280159" lon="14.300881655021287"><ele>522.0</ele><time>2026-04-30T07:12:06Z</time></trkpt><trkpt lat="37.43386541297173" lon="14.300689116537159"><ele>522.0</ele><time>2026-04-30T07:12:07Z</time></trkpt><trkpt lat="37.43384433297272" lon="14.300484361122693"><ele>522.0</ele><time>2026-04-30T07:12:08Z</time></trkpt><trkpt lat="37.43382207837606" lon="14.300275673319382"><ele>524.3333333333334</ele><time>2026-04-30T07:12:09Z</time></trkpt><trkpt lat="37.43379900076817" lon="14.30006404526587"><ele>526.6666666666667</ele><time>2026-04-30T07:12:10Z</time></trkpt><trkpt lat="37.43377323555949" lon="14.299856022057297"><ele>529.0</ele><time>2026-04-30T07:12:11Z</time></trkpt><trkpt lat="37.43374471416834" lon="14.29964594890271"><ele>531.3333333333334</ele><time>2026-04-30T07:12:11.999Z</time></trkpt><trkpt lat="37.433715980551106" lon="14.29943618590417"><ele>533.6666666666666</ele><time>2026-04-30T07:12:12.999Z</time></trkpt><trkpt lat="37.43368913995242" lon="14.299236484755582"><ele>536.0</ele><time>2026-04-30T07:12:13.999Z</time></trkpt><trkpt lat="37.43365957700439" lon="14.299042132642906"><ele>536.6666666666666</ele><time>2026-04-30T07:12:14.999Z</time></trkpt><trkpt lat="37.433631952766355" lon="14.298847442715301"><ele>537.3333333333334</ele><time>2026-04-30T07:12:15.999Z</time></trkpt><trkpt lat="37.43360810592063" lon="14.298654725654334"><ele>538.0</ele><time>2026-04-30T07:12:16.999Z</time></trkpt><trkpt lat="37.433590456876445" lon="14.298463716640724"><ele>538.0</ele><time>2026-04-30T07:12:17.999Z</time></trkpt><trkpt lat="37.43357643985742" lon="14.29827404652281"><ele>538.0</ele><time>2026-04-30T07:12:18.999Z</time></trkpt><trkpt lat="37.433572429015975" lon="14.298080059169198"><ele>538.0</ele><time>2026-04-30T07:12:19.999Z</time></trkpt><trkpt lat="37.43357321732924" lon="14.297898171752502"><ele>539.0</ele><time>2026-04-30T07:12:20.999Z</time></trkpt><trkpt lat="37.43359838835031" lon="14.297723169175049"><ele>540.0</ele><time>2026-04-30T07:12:21.999Z</time></trkpt><trkpt lat="37.43364394684581" lon="14.297552901343519"><ele>541.0</ele><time>2026-04-30T07:12:22.999Z</time></trkpt><trkpt lat="37.433697863007474" lon="14.297387789643508"><ele>542.0</ele><time>2026-04-30T07:12:23.999Z</time></trkpt><trkpt lat="37.43375635213443" lon="14.297232840063458"><ele>541.75</ele><time>2026-04-30T07:12:24.999Z</time></trkpt><trkpt lat="37.43382391449422" lon="14.297093598284656"><ele>541.5</ele><time>2026-04-30T07:12:25.999Z</time></trkpt><trkpt lat="37.43390606748473" lon="14.296959254878281"><ele>541.25</ele><time>2026-04-30T07:12:26.999Z</time></trkpt><trkpt lat="37.43399820229502" lon="14.296829337190289"><ele>541.0</ele><time>2026-04-30T07:12:27.999Z</time></trkpt><trkpt lat="37.434088659100624" lon="14.296700654006543"><ele>541.0</ele><time>2026-04-30T07:12:28.999Z</time></trkpt><trkpt lat="37.43418319293802" lon="14.296582636997186"><ele>541.0</ele><time>2026-04-30T07:12:29.999Z</time></trkpt><trkpt lat="37.434280003251466" lon="14.296456485005029"><ele>541.0</ele><time>2026-04-30T07:12:30.999Z</time></trkpt><trkpt lat="37.43437384332511" lon="14.296323356060656"><ele>541.0</ele><time>2026-04-30T07:12:31.999Z</time></trkpt><trkpt lat="37.434463923690345" lon="14.296183316988198"><ele>542.25</ele><time>2026-04-30T07:12:32.999Z</time></trkpt><trkpt lat="37.434555264751864" lon="14.296048580294167"><ele>543.5</ele><time>2026-04-30T07:12:33.999Z</time></trkpt><trkpt lat="37.434645459626516" lon="14.29591315484277"><ele>544.75</ele><time>2026-04-30T07:12:34.999Z</time></trkpt><trkpt lat="37.434735766479854" lon="14.29577085299525"><ele>546.0</ele><time>2026-04-30T07:12:35.999Z</time></trkpt><trkpt lat="37.43483598836037" lon="14.29562703623435"><ele>550.3333333333334</ele><time>2026-04-30T07:12:36.999Z</time></trkpt><trkpt lat="37.43494088393609" lon="14.295481748481691"><ele>554.6666666666667</ele><time>2026-04-30T07:12:37.999Z</time></trkpt><trkpt lat="37.43504663121985" lon="14.295336708269009"><ele>559.0</ele><time>2026-04-30T07:12:38.999Z</time></trkpt><trkpt lat="37.43515312228874" lon="14.295185453841073"><ele>559.0</ele><time>2026-04-30T07:12:39.999Z</time></trkpt><trkpt lat="37.43525736174635" lon="14.29503581251242"><ele>559.0</ele><time>2026-04-30T07:12:40.999Z</time></trkpt><trkpt lat="37.43536017998838" lon="14.29488745348659"><ele>559.0</ele><time>2026-04-30T07:12:41.999Z</time></trkpt><trkpt lat="37.43546412761775" lon="14.294740377134918"><ele>559.3333333333334</ele><time>2026-04-30T07:12:42.999Z</time></trkpt><trkpt lat="37.435569748466804" lon="14.294591955339415"><ele>559.6666666666666</ele><time>2026-04-30T07:12:43.999Z</time></trkpt><trkpt lat="37.43567973820423" lon="14.294434963634645"><ele>560.0</ele><time>2026-04-30T07:12:44.999Z</time></trkpt><trkpt lat="37.43579598846722" lon="14.294272652449065"><ele>560.0</ele><time>2026-04-30T07:12:45.999Z</time></trkpt><trkpt lat="37.43591318431486" lon="14.29411054462233"><ele>560.0</ele><time>2026-04-30T07:12:46.999Z</time></trkpt><trkpt lat="37.43602972394132" lon="14.29395508324333"><ele>560.0</ele><time>2026-04-30T07:12:47.999Z</time></trkpt><trkpt lat="37.43614421010148" lon="14.293806811392798"><ele>560.0</ele><time>2026-04-30T07:12:48.999Z</time></trkpt><trkpt lat="37.436256057502504" lon="14.293664311540383"><ele>560.0</ele><time>2026-04-30T07:12:49.999Z</time></trkpt><trkpt lat="37.436366317485025" lon="14.293527281531569"><ele>560.0</ele><time>2026-04-30T07:12:50.999Z</time></trkpt><trkpt lat="37.43647996704855" lon="14.293402985712437"><ele>560.0</ele><time>2026-04-30T07:12:51.999Z</time></trkpt><trkpt lat="37.43659326329706" lon="14.293277775067645"><ele>560.0</ele><time>2026-04-30T07:12:52.999Z</time></trkpt><trkpt lat="37.4367071519001" lon="14.29313989912667"><ele>560.0</ele><time>2026-04-30T07:12:53.999Z</time></trkpt><trkpt lat="37.436822133234905" lon="14.292996644275515"><ele>564.3333333333333</ele><time>2026-04-30T07:12:54.999Z</time></trkpt><trkpt lat="37.436944331937404" lon="14.292851326921651"><ele>568.6666666666666</ele><time>2026-04-30T07:12:55.999Z</time></trkpt><trkpt lat="37.43707629813474" lon="14.292707199605777"><ele>573.0</ele><time>2026-04-30T07:12:56.999Z</time></trkpt><trkpt lat="37.437209014131895" lon="14.29256186032479"><ele>573.0</ele><time>2026-04-30T07:12:57.999Z</time></trkpt><trkpt lat="37.437343195109534" lon="14.2924127687829"><ele>573.0</ele><time>2026-04-30T07:12:58.999Z</time></trkpt><trkpt lat="37.43747295885634" lon="14.292271466881349"><ele>573.0</ele><time>2026-04-30T07:12:59.999Z</time></trkpt><trkpt lat="37.437602074954455" lon="14.292141379776975"><ele>576.3333333333334</ele><time>2026-04-30T07:13:00.999Z</time></trkpt><trkpt lat="37.437733445881314" lon="14.29201223604557"><ele>579.6666666666667</ele><time>2026-04-30T07:13:01.999Z</time></trkpt><trkpt lat="37.43786429461285" lon="14.291880350002204"><ele>583.0</ele><time>2026-04-30T07:13:02.999Z</time></trkpt><trkpt lat="37.43798954007444" lon="14.291751158348028"><ele>583.3333333333334</ele><time>2026-04-30T07:13:03.999Z</time></trkpt><trkpt lat="37.438113856807384" lon="14.291625792450857"><ele>583.6666666666666</ele><time>2026-04-30T07:13:04.999Z</time></trkpt><trkpt lat="37.43824036001477" lon="14.291493469448088"><ele>584.0</ele><time>2026-04-30T07:13:05.999Z</time></trkpt><trkpt lat="37.438368622169584" lon="14.291341276786433"><ele>585.6666666666666</ele><time>2026-04-30T07:13:06.999Z</time></trkpt><trkpt lat="37.43848277327678" lon="14.291174383503678"><ele>587.3333333333334</ele><time>2026-04-30T07:13:07.999Z</time></trkpt><trkpt lat="37.43858409949555" lon="14.290996949320718"><ele>589.0</ele><time>2026-04-30T07:13:08.999Z</time></trkpt><trkpt lat="37.43867787617202" lon="14.290812324399571"><ele>589.0</ele><time>2026-04-30T07:13:09.999Z</time></trkpt><trkpt lat="37.438763510236235" lon="14.290616173444079"><ele>589.0</ele><time>2026-04-30T07:13:10.999Z</time></trkpt><trkpt lat="37.43884354679419" lon="14.2904213834967"><ele>589.0</ele><time>2026-04-30T07:13:11.999Z</time></trkpt><trkpt lat="37.438917707338696" lon="14.29024734210942"><ele>587.5</ele><time>2026-04-30T07:13:12.999Z</time></trkpt><trkpt lat="37.43898991838389" lon="14.290091164394102"><ele>586.0</ele><time>2026-04-30T07:13:13.999Z</time></trkpt><trkpt lat="37.439061039504196" lon="14.289948269242934"><ele>584.5</ele><time>2026-04-30T07:13:14.999Z</time></trkpt><trkpt lat="37.43914543280977" lon="14.289811771183345"><ele>583.0</ele><time>2026-04-30T07:13:15.999Z</time></trkpt><trkpt lat="37.43924255742711" lon="14.289677024141378"><ele>581.6666666666667</ele><time>2026-04-30T07:13:16.999Z</time></trkpt><trkpt lat="37.43935403164884" lon="14.28954344901194"><ele>580.3333333333334</ele><time>2026-04-30T07:13:17.999Z</time></trkpt><trkpt lat="37.43947333187426" lon="14.289403830077255"><ele>579.0</ele><time>2026-04-30T07:13:18.999Z</time></trkpt><trkpt lat="37.43959210420443" lon="14.289261453456806"><ele>579.0</ele><time>2026-04-30T07:13:19.999Z</time></trkpt><trkpt lat="37.43970950296351" lon="14.289120444284894"><ele>579.0</ele><time>2026-04-30T07:13:20.999Z</time></trkpt><trkpt lat="37.439831264199086" lon="14.288979822473085"><ele>579.0</ele><time>2026-04-30T07:13:21.999Z</time></trkpt><trkpt lat="37.43995005966134" lon="14.2888346947737"><ele>577.6666666666666</ele><time>2026-04-30T07:13:22.999Z</time></trkpt><trkpt lat="37.44007458053977" lon="14.288692330743745"><ele>576.3333333333333</ele><time>2026-04-30T07:13:23.999Z</time></trkpt><trkpt lat="37.44020133478739" lon="14.288549047432145"><ele>575.0</ele><time>2026-04-30T07:13:24.999Z</time></trkpt><trkpt lat="37.44033080882144" lon="14.288403156573626"><ele>575.0</ele><time>2026-04-30T07:13:25.999Z</time></trkpt><trkpt lat="37.44045625045234" lon="14.288258457426766"><ele>575.0</ele><time>2026-04-30T07:13:26.999Z</time></trkpt><trkpt lat="37.44057751230581" lon="14.288121775545589"><ele>575.0</ele><time>2026-04-30T07:13:27.999Z</time></trkpt><trkpt lat="37.440698555972006" lon="14.287987757963734"><ele>573.0</ele><time>2026-04-30T07:13:28.999Z</time></trkpt><trkpt lat="37.44082318263253" lon="14.287852625569938"><ele>571.0</ele><time>2026-04-30T07:13:29.999Z</time></trkpt><trkpt lat="37.44095472168633" lon="14.287715741105357"><ele>569.0</ele><time>2026-04-30T07:13:30.999Z</time></trkpt><trkpt lat="37.44109949072036" lon="14.287576962774134"><ele>569.0</ele><time>2026-04-30T07:13:31.999Z</time></trkpt><trkpt lat="37.44124733832248" lon="14.287442290019412"><ele>569.0</ele><time>2026-04-30T07:13:32.999Z</time></trkpt><trkpt lat="37.44139477132161" lon="14.287309960500618"><ele>569.0</ele><time>2026-04-30T07:13:33.999Z</time></trkpt><trkpt lat="37.44154260561141" lon="14.287180482480649"><ele>566.6666666666666</ele><time>2026-04-30T07:13:34.999Z</time></trkpt><trkpt lat="37.44168424997468" lon="14.287054569768651"><ele>564.3333333333334</ele><time>2026-04-30T07:13:35.999Z</time></trkpt><trkpt lat="37.44182038849296" lon="14.28693332403407"><ele>562.0</ele><time>2026-04-30T07:13:36.999Z</time></trkpt><trkpt lat="37.44195336685112" lon="14.286814484520054"><ele>562.0</ele><time>2026-04-30T07:13:37.999Z</time></trkpt><trkpt lat="37.44209155959286" lon="14.286712581676419"><ele>562.0</ele><time>2026-04-30T07:13:38.999Z</time></trkpt><trkpt lat="37.44221967862148" lon="14.28659840503141"><ele>562.0</ele><time>2026-04-30T07:13:39.999Z</time></trkpt><trkpt lat="37.442343411773315" lon="14.28647537562359"><ele>561.3333333333334</ele><time>2026-04-30T07:13:40.999Z</time></trkpt><trkpt lat="37.442458379721124" lon="14.286337800571012"><ele>560.6666666666666</ele><time>2026-04-30T07:13:41.999Z</time></trkpt><trkpt lat="37.44255295372719" lon="14.286173440513881"><ele>560.0</ele><time>2026-04-30T07:13:42.999Z</time></trkpt><trkpt lat="37.4426471815887" lon="14.286009317462922"><ele>560.0</ele><time>2026-04-30T07:13:43.999Z</time></trkpt><trkpt lat="37.44273178605804" lon="14.285834344683693"><ele>560.0</ele><time>2026-04-30T07:13:44.999Z</time></trkpt><trkpt lat="37.442817301773324" lon="14.285642218658856"><ele>560.0</ele><time>2026-04-30T07:13:45.999Z</time></trkpt><trkpt lat="37.442879342111006" lon="14.285425858213705"><ele>560.3333333333333</ele><time>2026-04-30T07:13:46.998Z</time></trkpt><trkpt lat="37.442927950163906" lon="14.285191694102503"><ele>560.6666666666666</ele><time>2026-04-30T07:13:47.998Z</time></trkpt><trkpt lat="37.44297247745792" lon="14.284949192052846"><ele>561.0</ele><time>2026-04-30T07:13:48.998Z</time></trkpt><trkpt lat="37.44301415162494" lon="14.284706802665367"><ele>563.6666666666666</ele><time>2026-04-30T07:13:50Z</time></trkpt><trkpt lat="37.44305642494969" lon="14.284463698084725"><ele>566.3333333333333</ele><time>2026-04-30T07:13:51Z</time></trkpt><trkpt lat="37.44309768627417" lon="14.284218017450808"><ele>569.0</ele><time>2026-04-30T07:13:52Z</time></trkpt><trkpt lat="37.44313623489314" lon="14.283973545664027"><ele>566.3333333333333</ele><time>2026-04-30T07:13:53Z</time></trkpt><trkpt lat="37.44316081655782" lon="14.283722222036008"><ele>563.6666666666666</ele><time>2026-04-30T07:13:54Z</time></trkpt><trkpt lat="37.44320052099879" lon="14.283475512013043"><ele>561.0</ele><time>2026-04-30T07:13:55Z</time></trkpt><trkpt lat="37.4432403091471" lon="14.28324572413746"><ele>558.0</ele><time>2026-04-30T07:13:56Z</time></trkpt><trkpt lat="37.44328650176112" lon="14.283027582388652"><ele>555.0</ele><time>2026-04-30T07:13:57Z</time></trkpt><trkpt lat="37.44333500816407" lon="14.282820725869223"><ele>552.0</ele><time>2026-04-30T07:13:58Z</time></trkpt><trkpt lat="37.44337463786911" lon="14.282615185847606"><ele>552.0</ele><time>2026-04-30T07:13:59Z</time></trkpt><trkpt lat="37.443401015950236" lon="14.28240272711748"><ele>552.0</ele><time>2026-04-30T07:14:00Z</time></trkpt><trkpt lat="37.44345021355641" lon="14.282207970571006"><ele>552.0</ele><time>2026-04-30T07:14:01Z</time></trkpt><trkpt lat="37.44350392240822" lon="14.282018783711509"><ele>552.6666666666666</ele><time>2026-04-30T07:14:02Z</time></trkpt><trkpt lat="37.44358072377009" lon="14.28184132678014"><ele>553.3333333333333</ele><time>2026-04-30T07:14:03Z</time></trkpt><trkpt lat="37.44364786968854" lon="14.28165929856239"><ele>554.0</ele><time>2026-04-30T07:14:04Z</time></trkpt><trkpt lat="37.44371471027781" lon="14.281474631888955"><ele>556.0</ele><time>2026-04-30T07:14:05Z</time></trkpt><trkpt lat="37.44378194464055" lon="14.281281827510467"><ele>558.0</ele><time>2026-04-30T07:14:06Z</time></trkpt><trkpt lat="37.44383109763389" lon="14.281088571575731"><ele>560.0</ele><time>2026-04-30T07:14:07Z</time></trkpt><trkpt lat="37.44389114490878" lon="14.280891625156524"><ele>560.0</ele><time>2026-04-30T07:14:08Z</time></trkpt><trkpt lat="37.44396237467561" lon="14.280697056966854"><ele>560.0</ele><time>2026-04-30T07:14:09Z</time></trkpt><trkpt lat="37.44400275534908" lon="14.28048972851277"><ele>560.0</ele><time>2026-04-30T07:14:10Z</time></trkpt><trkpt lat="37.44402573318764" lon="14.280276379274039"><ele>560.6666666666666</ele><time>2026-04-30T07:14:10.999Z</time></trkpt><trkpt lat="37.44403609608572" lon="14.280052029957924"><ele>561.3333333333334</ele><time>2026-04-30T07:14:11.999Z</time></trkpt><trkpt lat="37.44403067444137" lon="14.279821607280212"><ele>562.0</ele><time>2026-04-30T07:14:12.999Z</time></trkpt><trkpt lat="37.44404160455383" lon="14.279586212617245"><ele>562.0</ele><time>2026-04-30T07:14:13.999Z</time></trkpt><trkpt lat="37.44405135886973" lon="14.279346193326882"><ele>562.0</ele><time>2026-04-30T07:14:14.999Z</time></trkpt><trkpt lat="37.44406247047737" lon="14.279104663611776"><ele>562.0</ele><time>2026-04-30T07:14:15.999Z</time></trkpt><trkpt lat="37.44407276512791" lon="14.27886118765759"><ele>560.3333333333334</ele><time>2026-04-30T07:14:16.999Z</time></trkpt><trkpt lat="37.444086746989974" lon="14.27862029578457"><ele>558.6666666666666</ele><time>2026-04-30T07:14:17.999Z</time></trkpt><trkpt lat="37.44409828531729" lon="14.278381860369523"><ele>557.0</ele><time>2026-04-30T07:14:18.999Z</time></trkpt><trkpt lat="37.44410835827822" lon="14.278144767146188"><ele>556.6666666666666</ele><time>2026-04-30T07:14:19.999Z</time></trkpt><trkpt lat="37.4441159424133" lon="14.277911603766277"><ele>556.3333333333334</ele><time>2026-04-30T07:14:20.999Z</time></trkpt><trkpt lat="37.44412441217036" lon="14.277688772268775"><ele>556.0</ele><time>2026-04-30T07:14:21.999Z</time></trkpt><trkpt lat="37.444151596379946" lon="14.277479331910234"><ele>557.3333333333334</ele><time>2026-04-30T07:14:22.999Z</time></trkpt><trkpt lat="37.44416680684479" lon="14.277265252898266"><ele>558.6666666666666</ele><time>2026-04-30T07:14:23.999Z</time></trkpt><trkpt lat="37.444183055078256" lon="14.27705146034742"><ele>560.0</ele><time>2026-04-30T07:14:24.999Z</time></trkpt><trkpt lat="37.44420189512425" lon="14.276832204225277"><ele>560.0</ele><time>2026-04-30T07:14:25.999Z</time></trkpt><trkpt lat="37.44422450459536" lon="14.276613914001475"><ele>560.0</ele><time>2026-04-30T07:14:26.999Z</time></trkpt><trkpt lat="37.44425086364099" lon="14.276389427608338"><ele>560.0</ele><time>2026-04-30T07:14:27.999Z</time></trkpt><trkpt lat="37.44428217423619" lon="14.276164535920442"><ele>558.6666666666666</ele><time>2026-04-30T07:14:28.999Z</time></trkpt><trkpt lat="37.44430171300781" lon="14.275934960704541"><ele>557.3333333333334</ele><time>2026-04-30T07:14:29.999Z</time></trkpt><trkpt lat="37.44434128853077" lon="14.27571085781225"><ele>556.0</ele><time>2026-04-30T07:14:30.999Z</time></trkpt><trkpt lat="37.444395714920674" lon="14.275491961232197"><ele>555.0</ele><time>2026-04-30T07:14:31.999Z</time></trkpt><trkpt lat="37.44443452008688" lon="14.275270820357013"><ele>554.0</ele><time>2026-04-30T07:14:32.999Z</time></trkpt><trkpt lat="37.44447122077138" lon="14.275045883520994"><ele>553.0</ele><time>2026-04-30T07:14:33.999Z</time></trkpt><trkpt lat="37.444506273741986" lon="14.274819683411192"><ele>553.0</ele><time>2026-04-30T07:14:34.999Z</time></trkpt><trkpt lat="37.4445396532894" lon="14.27459677378398"><ele>553.0</ele><time>2026-04-30T07:14:35.999Z</time></trkpt><trkpt lat="37.44457248813316" lon="14.27437658131963"><ele>553.0</ele><time>2026-04-30T07:14:36.999Z</time></trkpt><trkpt lat="37.444604230884345" lon="14.274163712503315"><ele>553.0</ele><time>2026-04-30T07:14:37.999Z</time></trkpt><trkpt lat="37.44461892660955" lon="14.273956191950093"><ele>553.0</ele><time>2026-04-30T07:14:38.999Z</time></trkpt><trkpt lat="37.44465065624493" lon="14.273764938524058"><ele>553.0</ele><time>2026-04-30T07:14:39.999Z</time></trkpt><trkpt lat="37.44468160498322" lon="14.27358098418421"><ele>554.5</ele><time>2026-04-30T07:14:40.999Z</time></trkpt><trkpt lat="37.44471361134622" lon="14.273398666253868"><ele>556.0</ele><time>2026-04-30T07:14:41.999Z</time></trkpt><trkpt lat="37.44474175454101" lon="14.273215645902642"><ele>557.5</ele><time>2026-04-30T07:14:42.999Z</time></trkpt><trkpt lat="37.44476194292135" lon="14.27303967426634"><ele>559.0</ele><time>2026-04-30T07:14:43.999Z</time></trkpt><trkpt lat="37.44479994177033" lon="14.272881819338805"><ele>559.0</ele><time>2026-04-30T07:14:44.999Z</time></trkpt><trkpt lat="37.44481797534164" lon="14.272767032710451"><ele>559.0</ele><time>2026-04-30T07:14:45.999Z</time></trkpt><trkpt lat="37.444892425922106" lon="14.272759396981405"><ele>559.0</ele><time>2026-04-30T07:14:46.999Z</time></trkpt><trkpt lat="37.44484489488933" lon="14.272554286101006"><ele>559.0</ele><time>2026-04-30T07:14:48.999Z</time></trkpt><trkpt lat="37.44480525383765" lon="14.272449748524698"><ele>559.0</ele><time>2026-04-30T07:14:50.999Z</time></trkpt><trkpt lat="37.44476174998435" lon="14.272380303311023"><ele>559.0</ele><time>2026-04-30T07:14:51.999Z</time></trkpt><trkpt lat="37.444740611900066" lon="14.272277629036344"><ele>559.0</ele><time>2026-04-30T07:14:52.999Z</time></trkpt><trkpt lat="37.44470924284206" lon="14.272169509416065"><ele>559.0</ele><time>2026-04-30T07:14:53.999Z</time></trkpt><trkpt lat="37.44465895430655" lon="14.272042362506639"><ele>559.0</ele><time>2026-04-30T07:14:54.999Z</time></trkpt><trkpt lat="37.444600471658944" lon="14.271905915256271"><ele>559.0</ele><time>2026-04-30T07:14:55.999Z</time></trkpt><trkpt lat="37.444539246384224" lon="14.271765027529748"><ele>558.5</ele><time>2026-04-30T07:14:56.999Z</time></trkpt><trkpt lat="37.44448340675761" lon="14.271613846936827"><ele>558.0</ele><time>2026-04-30T07:14:57.999Z</time></trkpt><trkpt lat="37.44443215389462" lon="14.271456599991744"><ele>557.5</ele><time>2026-04-30T07:14:58.999Z</time></trkpt><trkpt lat="37.44438202680926" lon="14.27129080705064"><ele>557.0</ele><time>2026-04-30T07:14:59.999Z</time></trkpt><trkpt lat="37.44432900586125" lon="14.271110007990451"><ele>557.0</ele><time>2026-04-30T07:15:00.999Z</time></trkpt><trkpt lat="37.44427583764514" lon="14.27092742206778"><ele>557.0</ele><time>2026-04-30T07:15:01.999Z</time></trkpt><trkpt lat="37.44422634809226" lon="14.270727702638371"><ele>557.0</ele><time>2026-04-30T07:15:02.999Z</time></trkpt><trkpt lat="37.44417806064315" lon="14.27051415642568"><ele>558.0</ele><time>2026-04-30T07:15:03.999Z</time></trkpt><trkpt lat="37.444127127140064" lon="14.270297529186047"><ele>559.0</ele><time>2026-04-30T07:15:04.999Z</time></trkpt><trkpt lat="37.44407392902388" lon="14.270076134035442"><ele>560.0</ele><time>2026-04-30T07:15:05.999Z</time></trkpt><trkpt lat="37.44402196728966" lon="14.269856774880624"><ele>561.0</ele><time>2026-04-30T07:15:06.999Z</time></trkpt><trkpt lat="37.44397296058319" lon="14.269636162346874"><ele>562.0</ele><time>2026-04-30T07:15:07.999Z</time></trkpt><trkpt lat="37.44392190745352" lon="14.269422249861542"><ele>563.0</ele><time>2026-04-30T07:15:08.999Z</time></trkpt><trkpt lat="37.443872318187054" lon="14.269211746185682"><ele>563.0</ele><time>2026-04-30T07:15:09.999Z</time></trkpt><trkpt lat="37.44382451366957" lon="14.269005867752478"><ele>563.0</ele><time>2026-04-30T07:15:10.999Z</time></trkpt><trkpt lat="37.443777536778676" lon="14.268803643826915"><ele>563.0</ele><time>2026-04-30T07:15:11.999Z</time></trkpt><trkpt lat="37.4437267886224" lon="14.268602805708769"><ele>562.6666666666666</ele><time>2026-04-30T07:15:12.999Z</time></trkpt><trkpt lat="37.44367910027527" lon="14.268399912756932"><ele>562.3333333333334</ele><time>2026-04-30T07:15:13.999Z</time></trkpt><trkpt lat="37.44363106183299" lon="14.26819302249042"><ele>562.0</ele><time>2026-04-30T07:15:14.999Z</time></trkpt><trkpt lat="37.44358053897299" lon="14.267979677379072"><ele>562.6666666666667</ele><time>2026-04-30T07:15:15.999Z</time></trkpt><trkpt lat="37.443526365071165" lon="14.267760058879693"><ele>563.3333333333334</ele><time>2026-04-30T07:15:16.999Z</time></trkpt><trkpt lat="37.44346966808853" lon="14.267533421312415"><ele>564.0</ele><time>2026-04-30T07:15:17.999Z</time></trkpt><trkpt lat="37.44341233780008" lon="14.267301240417062"><ele>565.3333333333334</ele><time>2026-04-30T07:15:18.999Z</time></trkpt><trkpt lat="37.44336147701517" lon="14.267073170935486"><ele>566.6666666666667</ele><time>2026-04-30T07:15:19.999Z</time></trkpt><trkpt lat="37.443314498713285" lon="14.266858112482456"><ele>568.0</ele><time>2026-04-30T07:15:20.999Z</time></trkpt><trkpt lat="37.443268733932825" lon="14.266647323422932"><ele>571.6666666666667</ele><time>2026-04-30T07:15:21.999Z</time></trkpt><trkpt lat="37.44322007269568" lon="14.266434878721325"><ele>575.3333333333334</ele><time>2026-04-30T07:15:22.999Z</time></trkpt><trkpt lat="37.44316675817734" lon="14.266217274108152"><ele>579.0</ele><time>2026-04-30T07:15:23.999Z</time></trkpt><trkpt lat="37.443113594759566" lon="14.265990107104088"><ele>579.0</ele><time>2026-04-30T07:15:24.999Z</time></trkpt><trkpt lat="37.44306430272421" lon="14.265759183367098"><ele>579.0</ele><time>2026-04-30T07:15:25.999Z</time></trkpt><trkpt lat="37.443014095623596" lon="14.26553873130776"><ele>579.0</ele><time>2026-04-30T07:15:26.999Z</time></trkpt><trkpt lat="37.4429649240415" lon="14.265326646238382"><ele>577.3333333333334</ele><time>2026-04-30T07:15:27.999Z</time></trkpt><trkpt lat="37.44291743415697" lon="14.265115147263044"><ele>575.6666666666667</ele><time>2026-04-30T07:15:28.999Z</time></trkpt><trkpt lat="37.44286905326503" lon="14.264903889246845"><ele>574.0</ele><time>2026-04-30T07:15:29.999Z</time></trkpt><trkpt lat="37.44282112947272" lon="14.264695556501751"><ele>574.0</ele><time>2026-04-30T07:15:30.999Z</time></trkpt><trkpt lat="37.44278752603257" lon="14.26449099310736"><ele>574.0</ele><time>2026-04-30T07:15:31.999Z</time></trkpt><trkpt lat="37.44277100326613" lon="14.264280705466467"><ele>574.0</ele><time>2026-04-30T07:15:32.999Z</time></trkpt><trkpt lat="37.44277994400386" lon="14.26406740514778"><ele>572.6666666666667</ele><time>2026-04-30T07:15:33.999Z</time></trkpt><trkpt lat="37.44281044825555" lon="14.263858895411639"><ele>571.3333333333334</ele><time>2026-04-30T07:15:34.999Z</time></trkpt><trkpt lat="37.44285230973246" lon="14.263657337692333"><ele>570.0</ele><time>2026-04-30T07:15:35.999Z</time></trkpt><trkpt lat="37.44289143441625" lon="14.263467442927737"><ele>570.0</ele><time>2026-04-30T07:15:36.999Z</time></trkpt><trkpt lat="37.44291989615698" lon="14.26328652485351"><ele>570.0</ele><time>2026-04-30T07:15:37.999Z</time></trkpt><trkpt lat="37.442935127228104" lon="14.263099257320052"><ele>570.0</ele><time>2026-04-30T07:15:38.999Z</time></trkpt><trkpt lat="37.44293205862075" lon="14.262902906170233"><ele>571.0</ele><time>2026-04-30T07:15:39.999Z</time></trkpt><trkpt lat="37.44290491313148" lon="14.262704651666228"><ele>572.0</ele><time>2026-04-30T07:15:40.999Z</time></trkpt><trkpt lat="37.44285094089581" lon="14.262503843719236"><ele>573.0</ele><time>2026-04-30T07:15:41.999Z</time></trkpt><trkpt lat="37.442785707370525" lon="14.262305349184935"><ele>574.0</ele><time>2026-04-30T07:15:42.999Z</time></trkpt><trkpt lat="37.44273156739706" lon="14.262119373013524"><ele>575.0</ele><time>2026-04-30T07:15:43.999Z</time></trkpt><trkpt lat="37.44268417696069" lon="14.261946337007922"><ele>576.0</ele><time>2026-04-30T07:15:44.999Z</time></trkpt><trkpt lat="37.44263258120153" lon="14.261765305267643"><ele>576.0</ele><time>2026-04-30T07:15:45.999Z</time></trkpt><trkpt lat="37.44257854274151" lon="14.261577259278486"><ele>576.0</ele><time>2026-04-30T07:15:46.999Z</time></trkpt><trkpt lat="37.44252968273068" lon="14.261387343365485"><ele>576.0</ele><time>2026-04-30T07:15:47.999Z</time></trkpt><trkpt lat="37.44249243588537" lon="14.261194895042062"><ele>577.6666666666666</ele><time>2026-04-30T07:15:48.999Z</time></trkpt><trkpt lat="37.442468802003354" lon="14.261001317716966"><ele>579.3333333333333</ele><time>2026-04-30T07:15:49.998Z</time></trkpt><trkpt lat="37.44245802045798" lon="14.260799115531261"><ele>581.0</ele><time>2026-04-30T07:15:50.998Z</time></trkpt><trkpt lat="37.44246385803265" lon="14.260589531704305"><ele>581.0</ele><time>2026-04-30T07:15:51.998Z</time></trkpt><trkpt lat="37.44248364736813" lon="14.260370662244647"><ele>581.0</ele><time>2026-04-30T07:15:52.998Z</time></trkpt><trkpt lat="37.442495750787316" lon="14.260153568114355"><ele>581.0</ele><time>2026-04-30T07:15:53.998Z</time></trkpt><trkpt lat="37.44250416817609" lon="14.259946652505423"><ele>580.0</ele><time>2026-04-30T07:15:54.999Z</time></trkpt><trkpt lat="37.44252307880659" lon="14.259747002719557"><ele>579.0</ele><time>2026-04-30T07:15:55.999Z</time></trkpt><trkpt lat="37.442553701488194" lon="14.259539701827725"><ele>578.0</ele><time>2026-04-30T07:15:56.999Z</time></trkpt><trkpt lat="37.44259493145658" lon="14.259323116991874"><ele>578.0</ele><time>2026-04-30T07:15:57.999Z</time></trkpt><trkpt lat="37.44264116534426" lon="14.259114281849461"><ele>578.0</ele><time>2026-04-30T07:15:58.999Z</time></trkpt><trkpt lat="37.442689853726236" lon="14.258906915306618"><ele>578.0</ele><time>2026-04-30T07:15:59.999Z</time></trkpt><trkpt lat="37.442742975620234" lon="14.258699244597416"><ele>578.3333333333333</ele><time>2026-04-30T07:16:00.999Z</time></trkpt><trkpt lat="37.44279410776834" lon="14.258499010357301"><ele>578.6666666666666</ele><time>2026-04-30T07:16:01.999Z</time></trkpt><trkpt lat="37.442839235311844" lon="14.25830125972519"><ele>579.0</ele><time>2026-04-30T07:16:02.999Z</time></trkpt><trkpt lat="37.4428909349051" lon="14.25809560880924"><ele>577.3333333333334</ele><time>2026-04-30T07:16:03.999Z</time></trkpt><trkpt lat="37.44295670754588" lon="14.257882623050444"><ele>575.6666666666667</ele><time>2026-04-30T07:16:04.999Z</time></trkpt><trkpt lat="37.44303203470693" lon="14.257667100744316"><ele>574.0</ele><time>2026-04-30T07:16:05.999Z</time></trkpt><trkpt lat="37.44311482001097" lon="14.257448107115877"><ele>573.6666666666667</ele><time>2026-04-30T07:16:06.999Z</time></trkpt><trkpt lat="37.44319925973073" lon="14.257228121784257"><ele>573.3333333333334</ele><time>2026-04-30T07:16:07.999Z</time></trkpt><trkpt lat="37.44328955051456" lon="14.257011407350834"><ele>573.0</ele><time>2026-04-30T07:16:08.999Z</time></trkpt><trkpt lat="37.443383405658466" lon="14.256795028578646"><ele>573.0</ele><time>2026-04-30T07:16:09.999Z</time></trkpt><trkpt lat="37.443474873171624" lon="14.256589896463755"><ele>573.0</ele><time>2026-04-30T07:16:10.999Z</time></trkpt><trkpt lat="37.443562030741745" lon="14.256385915033647"><ele>573.0</ele><time>2026-04-30T07:16:11.999Z</time></trkpt><trkpt lat="37.44364714623961" lon="14.256185845790117"><ele>572.3333333333334</ele><time>2026-04-30T07:16:12.999Z</time></trkpt><trkpt lat="37.44373086292493" lon="14.255993570633663"><ele>571.6666666666667</ele><time>2026-04-30T07:16:13.999Z</time></trkpt><trkpt lat="37.44381553475934" lon="14.25580433314257"><ele>571.0</ele><time>2026-04-30T07:16:14.999Z</time></trkpt><trkpt lat="37.44389240414853" lon="14.255624822328775"><ele>570.3333333333334</ele><time>2026-04-30T07:16:15.999Z</time></trkpt><trkpt lat="37.443963092451014" lon="14.255445777065505"><ele>569.6666666666666</ele><time>2026-04-30T07:16:16.999Z</time></trkpt><trkpt lat="37.444028322870324" lon="14.255274200886737"><ele>569.0</ele><time>2026-04-30T07:16:17.999Z</time></trkpt><trkpt lat="37.44409597623313" lon="14.255106260549592"><ele>569.0</ele><time>2026-04-30T07:16:18.999Z</time></trkpt><trkpt lat="37.444163501782874" lon="14.254947165102271"><ele>569.0</ele><time>2026-04-30T07:16:19.999Z</time></trkpt><trkpt lat="37.444233565542966" lon="14.254772155676587"><ele>569.0</ele><time>2026-04-30T07:16:20.999Z</time></trkpt><trkpt lat="37.44431314245708" lon="14.2545869925071"><ele>569.6666666666666</ele><time>2026-04-30T07:16:21.999Z</time></trkpt><trkpt lat="37.44440500078821" lon="14.25441163263579"><ele>570.3333333333334</ele><time>2026-04-30T07:16:22.999Z</time></trkpt><trkpt lat="37.44450535105084" lon="14.254241594508803"><ele>571.0</ele><time>2026-04-30T07:16:23.999Z</time></trkpt><trkpt lat="37.44462204409023" lon="14.254080067227177"><ele>568.3333333333334</ele><time>2026-04-30T07:16:24.999Z</time></trkpt><trkpt lat="37.44474479020812" lon="14.253924353563104"><ele>565.6666666666666</ele><time>2026-04-30T07:16:25.999Z</time></trkpt><trkpt lat="37.44487546511183" lon="14.253776008653906"><ele>563.0</ele><time>2026-04-30T07:16:26.999Z</time></trkpt><trkpt lat="37.44500494112758" lon="14.25362208346496"><ele>563.0</ele><time>2026-04-30T07:16:27.999Z</time></trkpt><trkpt lat="37.4451292838027" lon="14.253468571281793"><ele>563.0</ele><time>2026-04-30T07:16:28.999Z</time></trkpt><trkpt lat="37.44524833330477" lon="14.253320807894315"><ele>563.0</ele><time>2026-04-30T07:16:29.999Z</time></trkpt><trkpt lat="37.44536534421513" lon="14.253176248036587"><ele>561.3333333333333</ele><time>2026-04-30T07:16:30.999Z</time></trkpt><trkpt lat="37.4454845088133" lon="14.253029341057422"><ele>559.6666666666666</ele><time>2026-04-30T07:16:31.999Z</time></trkpt><trkpt lat="37.44560253029255" lon="14.252886143446231"><ele>558.0</ele><time>2026-04-30T07:16:32.999Z</time></trkpt><trkpt lat="37.44571762686701" lon="14.252751939523295"><ele>558.0</ele><time>2026-04-30T07:16:33.999Z</time></trkpt><trkpt lat="37.44583100529649" lon="14.252622408706038"><ele>558.0</ele><time>2026-04-30T07:16:34.999Z</time></trkpt><trkpt lat="37.4459412639092" lon="14.252485506875642"><ele>558.0</ele><time>2026-04-30T07:16:35.999Z</time></trkpt><trkpt lat="37.446046484309896" lon="14.252344275100416"><ele>558.0</ele><time>2026-04-30T07:16:36.999Z</time></trkpt><trkpt lat="37.44614601803886" lon="14.252207655240031"><ele>558.0</ele><time>2026-04-30T07:16:37.999Z</time></trkpt><trkpt lat="37.446235991891776" lon="14.252068635071714"><ele>558.0</ele><time>2026-04-30T07:16:38.999Z</time></trkpt><trkpt lat="37.44629879123257" lon="14.251896610228451"><ele>558.0</ele><time>2026-04-30T07:16:39.999Z</time></trkpt><trkpt lat="37.446334988795535" lon="14.25170910744851"><ele>558.0</ele><time>2026-04-30T07:16:40.999Z</time></trkpt><trkpt lat="37.44634141072714" lon="14.25151457700141"><ele>558.0</ele><time>2026-04-30T07:16:41.999Z</time></trkpt><trkpt lat="37.446314339475826" lon="14.251321047096807"><ele>558.0</ele><time>2026-04-30T07:16:42.999Z</time></trkpt><trkpt lat="37.446252021001506" lon="14.25113144313264"><ele>555.3333333333334</ele><time>2026-04-30T07:16:43.999Z</time></trkpt><trkpt lat="37.44617394752847" lon="14.250933617421037"><ele>552.6666666666667</ele><time>2026-04-30T07:16:44.999Z</time></trkpt><trkpt lat="37.44609727527962" lon="14.250731241524418"><ele>550.0</ele><time>2026-04-30T07:16:45.999Z</time></trkpt><trkpt lat="37.44602569951188" lon="14.250540864151382"><ele>549.0</ele><time>2026-04-30T07:16:46.999Z</time></trkpt><trkpt lat="37.445951376913825" lon="14.250351940100789"><ele>548.0</ele><time>2026-04-30T07:16:47.999Z</time></trkpt><trkpt lat="37.44587769424033" lon="14.250152340251734"><ele>547.0</ele><time>2026-04-30T07:16:48.999Z</time></trkpt><trkpt lat="37.445804687859514" lon="14.249945547339324"><ele>545.3333333333334</ele><time>2026-04-30T07:16:49.999Z</time></trkpt><trkpt lat="37.44572790764037" lon="14.249739478965598"><ele>543.6666666666666</ele><time>2026-04-30T07:16:50.999Z</time></trkpt><trkpt lat="37.445650960056675" lon="14.249537266159367"><ele>542.0</ele><time>2026-04-30T07:16:51.999Z</time></trkpt><trkpt lat="37.445582934604765" lon="14.249339310997097"><ele>542.0</ele><time>2026-04-30T07:16:52.999Z</time></trkpt><trkpt lat="37.445516394269994" lon="14.249146702585069"><ele>542.0</ele><time>2026-04-30T07:16:53.999Z</time></trkpt><trkpt lat="37.445450072528054" lon="14.248959823507924"><ele>542.0</ele><time>2026-04-30T07:16:54.999Z</time></trkpt><trkpt lat="37.445384726536" lon="14.2487753720098"><ele>542.0</ele><time>2026-04-30T07:16:55.999Z</time></trkpt><trkpt lat="37.445326199798295" lon="14.248594108487868"><ele>542.0</ele><time>2026-04-30T07:16:56.999Z</time></trkpt><trkpt lat="37.44528378392827" lon="14.248398043281048"><ele>542.0</ele><time>2026-04-30T07:16:57.999Z</time></trkpt><trkpt lat="37.445275678267066" lon="14.24818471307919"><ele>541.0</ele><time>2026-04-30T07:16:58.999Z</time></trkpt><trkpt lat="37.44528787424044" lon="14.247960967180358"><ele>540.0</ele><time>2026-04-30T07:16:59.999Z</time></trkpt><trkpt lat="37.445324811856544" lon="14.24775432754066"><ele>539.0</ele><time>2026-04-30T07:17:00.999Z</time></trkpt><trkpt lat="37.44537762583964" lon="14.247559495022658"><ele>539.0</ele><time>2026-04-30T07:17:01.999Z</time></trkpt><trkpt lat="37.44545174949979" lon="14.247354498458254"><ele>539.0</ele><time>2026-04-30T07:17:02.999Z</time></trkpt><trkpt lat="37.44551753915611" lon="14.247151914029548"><ele>539.0</ele><time>2026-04-30T07:17:03.999Z</time></trkpt><trkpt lat="37.4455745894349" lon="14.246955443281056"><ele>536.6666666666666</ele><time>2026-04-30T07:17:04.999Z</time></trkpt><trkpt lat="37.44563094938202" lon="14.246756603791678"><ele>534.3333333333334</ele><time>2026-04-30T07:17:05.999Z</time></trkpt><trkpt lat="37.44568770352467" lon="14.246561872662571"><ele>532.0</ele><time>2026-04-30T07:17:06.999Z</time></trkpt><trkpt lat="37.44573835463912" lon="14.246384329163316"><ele>531.8000000000001</ele><time>2026-04-30T07:17:07.999Z</time></trkpt><trkpt lat="37.44578183144251" lon="14.246234403181282"><ele>531.6</ele><time>2026-04-30T07:17:08.999Z</time></trkpt><trkpt lat="37.445822068411665" lon="14.24610180846009"><ele>531.4000000000001</ele><time>2026-04-30T07:17:09.999Z</time></trkpt><trkpt lat="37.44585997715677" lon="14.245991082254518"><ele>531.2</ele><time>2026-04-30T07:17:10.999Z</time></trkpt><trkpt lat="37.44586940391951" lon="14.245892960981978"><ele>531.0</ele><time>2026-04-30T07:17:11.999Z</time></trkpt><trkpt lat="37.44587745105494" lon="14.245812713131427"><ele>531.0</ele><time>2026-04-30T07:17:12.999Z</time></trkpt><trkpt lat="37.44590089555161" lon="14.245697709822293"><ele>531.0</ele><time>2026-04-30T07:17:14.999Z</time></trkpt><trkpt lat="37.44586249461304" lon="14.245624834751208"><ele>531.0</ele><time>2026-04-30T07:17:15.999Z</time></trkpt><trkpt lat="37.4457887926476" lon="14.245579400000684"><ele>531.0</ele><time>2026-04-30T07:17:16.999Z</time></trkpt><trkpt lat="37.445683344166255" lon="14.245540615952468"><ele>531.0</ele><time>2026-04-30T07:17:17.999Z</time></trkpt><trkpt lat="37.44556884472506" lon="14.24546201310948"><ele>532.25</ele><time>2026-04-30T07:17:18.999Z</time></trkpt><trkpt lat="37.445449451557806" lon="14.24539917558473"><ele>533.5</ele><time>2026-04-30T07:17:19.999Z</time></trkpt><trkpt lat="37.44534671881888" lon="14.245315269922953"><ele>534.75</ele><time>2026-04-30T07:17:20.999Z</time></trkpt><trkpt lat="37.44524291741997" lon="14.245239632076352"><ele>536.0</ele><time>2026-04-30T07:17:21.999Z</time></trkpt><trkpt lat="37.445147176365126" lon="14.24517842563322"><ele>536.0</ele><time>2026-04-30T07:17:22.999Z</time></trkpt><trkpt lat="37.44506404647904" lon="14.245123811920797"><ele>536.0</ele><time>2026-04-30T07:17:23.999Z</time></trkpt><trkpt lat="37.44498852157537" lon="14.245074758223153"><ele>536.0</ele><time>2026-04-30T07:17:24.999Z</time></trkpt><trkpt lat="37.444919680511305" lon="14.245033663504598"><ele>536.0</ele><time>2026-04-30T07:17:25.999Z</time></trkpt><trkpt lat="37.444845907978454" lon="14.244989821904749"><ele>536.0</ele><time>2026-04-30T07:17:26.999Z</time></trkpt><trkpt lat="37.44475571624987" lon="14.24494221670857"><ele>536.0</ele><time>2026-04-30T07:17:27.999Z</time></trkpt><trkpt lat="37.44465522998058" lon="14.24486727077441"><ele>537.0</ele><time>2026-04-30T07:17:28.999Z</time></trkpt><trkpt lat="37.44455466291336" lon="14.244817108581575"><ele>538.0</ele><time>2026-04-30T07:17:29.999Z</time></trkpt><trkpt lat="37.44447221521865" lon="14.24477937628855"><ele>539.0</ele><time>2026-04-30T07:17:30.999Z</time></trkpt><trkpt lat="37.44439532762208" lon="14.244745723891446"><ele>540.0</ele><time>2026-04-30T07:17:31.999Z</time></trkpt><trkpt lat="37.444318787483375" lon="14.244713233169316"><ele>541.0</ele><time>2026-04-30T07:17:32.999Z</time></trkpt><trkpt lat="37.44424651589777" lon="14.244682554419372"><ele>542.0</ele><time>2026-04-30T07:17:33.999Z</time></trkpt><trkpt lat="37.44416953046884" lon="14.244649874677686"><ele>542.0</ele><time>2026-04-30T07:17:34.999Z</time></trkpt><trkpt lat="37.44408571510682" lon="14.244611892271099"><ele>542.0</ele><time>2026-04-30T07:17:35.999Z</time></trkpt><trkpt lat="37.443999259009054" lon="14.244572007046598"><ele>542.0</ele><time>2026-04-30T07:17:36.999Z</time></trkpt><trkpt lat="37.44392752968201" lon="14.24452872777525"><ele>542.0</ele><time>2026-04-30T07:17:37.999Z</time></trkpt><trkpt lat="37.44385910696263" lon="14.244480457501433"><ele>542.0</ele><time>2026-04-30T07:17:38.999Z</time></trkpt><trkpt lat="37.44379463237524" lon="14.244420058812674"><ele>542.0</ele><time>2026-04-30T07:17:39.999Z</time></trkpt><trkpt lat="37.44373166663211" lon="14.244352015093904"><ele>544.1666666666666</ele><time>2026-04-30T07:17:40.999Z</time></trkpt><trkpt lat="37.443663073851184" lon="14.244290070792266"><ele>546.3333333333333</ele><time>2026-04-30T07:17:41.999Z</time></trkpt><trkpt lat="37.443609831867796" lon="14.244202044122808"><ele>548.5</ele><time>2026-04-30T07:17:42.999Z</time></trkpt><trkpt lat="37.443560258766894" lon="14.244112423908053"><ele>550.6666666666666</ele><time>2026-04-30T07:17:43.999Z</time></trkpt><trkpt lat="37.44351991010573" lon="14.2440188939913"><ele>552.8333333333334</ele><time>2026-04-30T07:17:44.999Z</time></trkpt><trkpt lat="37.44348862318778" lon="14.243925248267287"><ele>555.0</ele><time>2026-04-30T07:17:45.999Z</time></trkpt><trkpt lat="37.44346189721744" lon="14.243838742400044"><ele>555.1666666666666</ele><time>2026-04-30T07:17:46.999Z</time></trkpt><trkpt lat="37.44344913815507" lon="14.243740127137835"><ele>555.3333333333334</ele><time>2026-04-30T07:17:47.999Z</time></trkpt><trkpt lat="37.443423474182715" lon="14.243638219000097"><ele>555.5</ele><time>2026-04-30T07:17:48.999Z</time></trkpt><trkpt lat="37.44338608104691" lon="14.243534408861954"><ele>555.6666666666667</ele><time>2026-04-30T07:17:49.999Z</time></trkpt><trkpt lat="37.44336863631505" lon="14.243417877297743"><ele>555.8333333333334</ele><time>2026-04-30T07:17:50.998Z</time></trkpt><trkpt lat="37.443352812572506" lon="14.24329714253748"><ele>556.0</ele><time>2026-04-30T07:17:51.998Z</time></trkpt><trkpt lat="37.443341631212995" lon="14.243157026494186"><ele>556.4</ele><time>2026-04-30T07:17:52.998Z</time></trkpt><trkpt lat="37.44333205302513" lon="14.243008468654223"><ele>556.8</ele><time>2026-04-30T07:17:53.998Z</time></trkpt><trkpt lat="37.443329533843695" lon="14.242859792020779"><ele>557.1999999999999</ele><time>2026-04-30T07:17:54.998Z</time></trkpt><trkpt lat="37.44333279896721" lon="14.242723689165803"><ele>557.6</ele><time>2026-04-30T07:17:55.998Z</time></trkpt><trkpt lat="37.443334384720686" lon="14.242615821867057"><ele>558.0</ele><time>2026-04-30T07:17:56.998Z</time></trkpt><trkpt lat="37.44333665517211" lon="14.242532741966745"><ele>558.0</ele><time>2026-04-30T07:17:57.998Z</time></trkpt><trkpt lat="37.44334118543204" lon="14.242445901582432"><ele>558.0</ele><time>2026-04-30T07:17:59.999Z</time></trkpt><trkpt lat="37.44334871979613" lon="14.242272268413167"><ele>558.0</ele><time>2026-04-30T07:19:28.999Z</time></trkpt><trkpt lat="37.44334214721387" lon="14.242148870435736"><ele>558.0</ele><time>2026-04-30T07:19:29.999Z</time></trkpt><trkpt lat="37.44333834283824" lon="14.241986375232036"><ele>558.0</ele><time>2026-04-30T07:19:30.999Z</time></trkpt><trkpt lat="37.443333993066595" lon="14.241803158749647"><ele>558.25</ele><time>2026-04-30T07:19:31.999Z</time></trkpt><trkpt lat="37.44332419654917" lon="14.241624272006277"><ele>558.5</ele><time>2026-04-30T07:19:32.999Z</time></trkpt><trkpt lat="37.443302873921525" lon="14.241440029836651"><ele>558.75</ele><time>2026-04-30T07:19:33.999Z</time></trkpt><trkpt lat="37.44326490590121" lon="14.24124975730103"><ele>559.0</ele><time>2026-04-30T07:19:34.999Z</time></trkpt><trkpt lat="37.44320314245018" lon="14.241048678016922"><ele>561.0</ele><time>2026-04-30T07:19:35.999Z</time></trkpt><trkpt lat="37.44312531920231" lon="14.240841696635234"><ele>563.0</ele><time>2026-04-30T07:19:36.999Z</time></trkpt><trkpt lat="37.44303541672174" lon="14.240640897154591"><ele>565.0</ele><time>2026-04-30T07:19:37.999Z</time></trkpt><trkpt lat="37.442946857394126" lon="14.24046147725729"><ele>566.6666666666667</ele><time>2026-04-30T07:19:38.999Z</time></trkpt><trkpt lat="37.44286374559595" lon="14.240279414547706"><ele>568.3333333333334</ele><time>2026-04-30T07:19:39.999Z</time></trkpt><trkpt lat="37.44276820658292" lon="14.240071469750104"><ele>570.0</ele><time>2026-04-30T07:19:40.999Z</time></trkpt><trkpt lat="37.44266517207829" lon="14.23985979194378"><ele>567.3333333333334</ele><time>2026-04-30T07:19:41.999Z</time></trkpt><trkpt lat="37.44256974213588" lon="14.239658335248654"><ele>564.6666666666667</ele><time>2026-04-30T07:19:42.999Z</time></trkpt><trkpt lat="37.442477654165685" lon="14.239463657919732"><ele>562.0</ele><time>2026-04-30T07:19:43.999Z</time></trkpt><trkpt lat="37.4423848044449" lon="14.239264780083618"><ele>562.0</ele><time>2026-04-30T07:19:44.999Z</time></trkpt><trkpt lat="37.442284978603546" lon="14.239046139586279"><ele>562.0</ele><time>2026-04-30T07:19:45.999Z</time></trkpt><trkpt lat="37.442179263944226" lon="14.238828845774863"><ele>562.0</ele><time>2026-04-30T07:19:46.999Z</time></trkpt><trkpt lat="37.44206939757682" lon="14.238618636666317"><ele>563.3333333333334</ele><time>2026-04-30T07:19:47.999Z</time></trkpt><trkpt lat="37.441959736400335" lon="14.238424506240587"><ele>564.6666666666666</ele><time>2026-04-30T07:19:48.999Z</time></trkpt><trkpt lat="37.441857213353444" lon="14.238229863981514"><ele>566.0</ele><time>2026-04-30T07:19:49.999Z</time></trkpt><trkpt lat="37.441760467414376" lon="14.238036785294579"><ele>566.0</ele><time>2026-04-30T07:19:50.999Z</time></trkpt><trkpt lat="37.441666545359055" lon="14.237856922893352"><ele>566.0</ele><time>2026-04-30T07:19:51.999Z</time></trkpt><trkpt lat="37.44157203650965" lon="14.237675407170682"><ele>566.0</ele><time>2026-04-30T07:19:52.999Z</time></trkpt><trkpt lat="37.44147504222521" lon="14.237496805897258"><ele>566.0</ele><time>2026-04-30T07:19:53.999Z</time></trkpt><trkpt lat="37.44138690737957" lon="14.237322911302327"><ele>566.0</ele><time>2026-04-30T07:19:54.999Z</time></trkpt><trkpt lat="37.441303039769586" lon="14.237162065865746"><ele>566.0</ele><time>2026-04-30T07:19:55.998Z</time></trkpt><trkpt lat="37.44120838897412" lon="14.237015748603342"><ele>566.6666666666666</ele><time>2026-04-30T07:19:56.998Z</time></trkpt><trkpt lat="37.44109026292072" lon="14.23688218258107"><ele>567.3333333333334</ele><time>2026-04-30T07:19:57.998Z</time></trkpt><trkpt lat="37.440940390139964" lon="14.236772766970935"><ele>568.0</ele><time>2026-04-30T07:19:58.998Z</time></trkpt><trkpt lat="37.44077736214064" lon="14.236672146043269"><ele>568.0</ele><time>2026-04-30T07:19:59.998Z</time></trkpt><trkpt lat="37.440614971133854" lon="14.236566746845444"><ele>568.0</ele><time>2026-04-30T07:20:00.998Z</time></trkpt><trkpt lat="37.44046207725238" lon="14.236456769194666"><ele>568.0</ele><time>2026-04-30T07:20:01.998Z</time></trkpt><trkpt lat="37.44031370486975" lon="14.236348135773937"><ele>568.0</ele><time>2026-04-30T07:20:02.998Z</time></trkpt><trkpt lat="37.4401688484124" lon="14.236231721600703"><ele>568.0</ele><time>2026-04-30T07:20:03.998Z</time></trkpt><trkpt lat="37.440027496486735" lon="14.23610452893888"><ele>568.0</ele><time>2026-04-30T07:20:04.998Z</time></trkpt><trkpt lat="37.43989663218445" lon="14.235970218323214"><ele>568.0</ele><time>2026-04-30T07:20:06Z</time></trkpt><trkpt lat="37.43977000659109" lon="14.235831124435212"><ele>568.0</ele><time>2026-04-30T07:20:07Z</time></trkpt><trkpt lat="37.43964099866007" lon="14.235702198463677"><ele>568.0</ele><time>2026-04-30T07:20:08Z</time></trkpt><trkpt lat="37.43951912358374" lon="14.235594255176771"><ele>567.75</ele><time>2026-04-30T07:20:09Z</time></trkpt><trkpt lat="37.43939957143284" lon="14.235528744055639"><ele>567.5</ele><time>2026-04-30T07:20:10Z</time></trkpt><trkpt lat="37.43925921955795" lon="14.235496731873416"><ele>567.25</ele><time>2026-04-30T07:20:11Z</time></trkpt><trkpt lat="37.43909691096322" lon="14.23550617873732"><ele>567.0</ele><time>2026-04-30T07:20:12Z</time></trkpt><trkpt lat="37.43892695569609" lon="14.235530043103982"><ele>568.3333333333334</ele><time>2026-04-30T07:20:13Z</time></trkpt><trkpt lat="37.4387562349859" lon="14.235498575163362"><ele>569.6666666666667</ele><time>2026-04-30T07:20:14Z</time></trkpt><trkpt lat="37.43860097939567" lon="14.23542097069969"><ele>571.0</ele><time>2026-04-30T07:20:15Z</time></trkpt><trkpt lat="37.43843749680331" lon="14.235325677251375"><ele>571.0</ele><time>2026-04-30T07:20:16Z</time></trkpt><trkpt lat="37.43826720383431" lon="14.23522043524704"><ele>571.0</ele><time>2026-04-30T07:20:17Z</time></trkpt><trkpt lat="37.43810291421902" lon="14.23511890330811"><ele>571.0</ele><time>2026-04-30T07:20:18Z</time></trkpt><trkpt lat="37.43794351213494" lon="14.23502022899945"><ele>569.3333333333334</ele><time>2026-04-30T07:20:19Z</time></trkpt><trkpt lat="37.43778650842134" lon="14.234918789447475"><ele>567.6666666666666</ele><time>2026-04-30T07:20:20Z</time></trkpt><trkpt lat="37.43762132125114" lon="14.234824468444874"><ele>566.0</ele><time>2026-04-30T07:20:21Z</time></trkpt><trkpt lat="37.43746419717045" lon="14.234705731113394"><ele>566.0</ele><time>2026-04-30T07:20:22Z</time></trkpt><trkpt lat="37.437303569805174" lon="14.234582451668604"><ele>566.0</ele><time>2026-04-30T07:20:23Z</time></trkpt><trkpt lat="37.437152647686666" lon="14.234441383830678"><ele>566.0</ele><time>2026-04-30T07:20:24Z</time></trkpt><trkpt lat="37.43699060086691" lon="14.23433554613035"><ele>567.3333333333333</ele><time>2026-04-30T07:20:24.999Z</time></trkpt><trkpt lat="37.43684896258734" lon="14.234215521405865"><ele>568.6666666666666</ele><time>2026-04-30T07:20:25.999Z</time></trkpt><trkpt lat="37.43671224401917" lon="14.234099521397193"><ele>570.0</ele><time>2026-04-30T07:20:26.999Z</time></trkpt><trkpt lat="37.43659517313642" lon="14.23396464702185"><ele>570.0</ele><time>2026-04-30T07:20:27.999Z</time></trkpt><trkpt lat="37.43648570238503" lon="14.233804028912452"><ele>570.0</ele><time>2026-04-30T07:20:28.999Z</time></trkpt><trkpt lat="37.436387972587696" lon="14.233612899031808"><ele>570.0</ele><time>2026-04-30T07:20:29.999Z</time></trkpt><trkpt lat="37.4362806362184" lon="14.23343548627272"><ele>575.0</ele><time>2026-04-30T07:20:30.999Z</time></trkpt><trkpt lat="37.436180072674716" lon="14.233263887366773"><ele>580.0</ele><time>2026-04-30T07:20:31.999Z</time></trkpt><trkpt lat="37.43609490354639" lon="14.233089708335132"><ele>585.0</ele><time>2026-04-30T07:20:32.999Z</time></trkpt><trkpt lat="37.436033608358365" lon="14.232895123996634"><ele>585.0</ele><time>2026-04-30T07:20:33.999Z</time></trkpt><trkpt lat="37.43597116770672" lon="14.232681977103192"><ele>585.0</ele><time>2026-04-30T07:20:34.999Z</time></trkpt><trkpt lat="37.4359006281935" lon="14.232469498946632"><ele>585.0</ele><time>2026-04-30T07:20:35.999Z</time></trkpt><trkpt lat="37.43584797762399" lon="14.23227032642632"><ele>582.6666666666666</ele><time>2026-04-30T07:20:36.999Z</time></trkpt><trkpt lat="37.43579027130092" lon="14.232089839372358"><ele>580.3333333333333</ele><time>2026-04-30T07:20:37.999Z</time></trkpt><trkpt lat="37.435711284343704" lon="14.2319173924542"><ele>578.0</ele><time>2026-04-30T07:20:38.999Z</time></trkpt><trkpt lat="37.43559201514253" lon="14.231738041348471"><ele>579.6666666666666</ele><time>2026-04-30T07:20:39.999Z</time></trkpt><trkpt lat="37.43543365485274" lon="14.231562990244646"><ele>581.3333333333334</ele><time>2026-04-30T07:20:40.999Z</time></trkpt><trkpt lat="37.435281398126534" lon="14.231399669927045"><ele>583.0</ele><time>2026-04-30T07:20:41.999Z</time></trkpt><trkpt lat="37.43516439976352" lon="14.231227944700652"><ele>583.0</ele><time>2026-04-30T07:20:42.999Z</time></trkpt><trkpt lat="37.43503349868065" lon="14.231097311714217"><ele>583.0</ele><time>2026-04-30T07:20:43.999Z</time></trkpt><trkpt lat="37.43491894151276" lon="14.230949644083225"><ele>583.0</ele><time>2026-04-30T07:20:44.999Z</time></trkpt><trkpt lat="37.434802686229496" lon="14.230804694159357"><ele>583.0</ele><time>2026-04-30T07:20:45.999Z</time></trkpt><trkpt lat="37.43465896682889" lon="14.230674657239867"><ele>583.0</ele><time>2026-04-30T07:20:46.999Z</time></trkpt><trkpt lat="37.434486504049424" lon="14.230569271577819"><ele>583.0</ele><time>2026-04-30T07:20:47.999Z</time></trkpt><trkpt lat="37.434307260792174" lon="14.230471170377996"><ele>585.0</ele><time>2026-04-30T07:20:48.999Z</time></trkpt><trkpt lat="37.43415725021294" lon="14.23035365612794"><ele>587.0</ele><time>2026-04-30T07:20:49.999Z</time></trkpt><trkpt lat="37.434012962482825" lon="14.23025770318831"><ele>589.0</ele><time>2026-04-30T07:20:50.999Z</time></trkpt><trkpt lat="37.43386655683366" lon="14.230183206397276"><ele>590.3333333333334</ele><time>2026-04-30T07:20:51.999Z</time></trkpt><trkpt lat="37.433720295732684" lon="14.230086053940258"><ele>591.6666666666666</ele><time>2026-04-30T07:20:52.999Z</time></trkpt><trkpt lat="37.43356124695144" lon="14.229990882004403"><ele>593.0</ele><time>2026-04-30T07:20:53.999Z</time></trkpt><trkpt lat="37.43338862040716" lon="14.229913457896195"><ele>593.0</ele><time>2026-04-30T07:20:54.999Z</time></trkpt><trkpt lat="37.43320377612605" lon="14.22985135098628"><ele>593.0</ele><time>2026-04-30T07:20:55.999Z</time></trkpt><trkpt lat="37.43301710629935" lon="14.229798252236888"><ele>593.0</ele><time>2026-04-30T07:20:56.999Z</time></trkpt><trkpt lat="37.43283414599312" lon="14.229722963212518"><ele>592.6666666666666</ele><time>2026-04-30T07:20:57.999Z</time></trkpt><trkpt lat="37.43264617722754" lon="14.22966795445301"><ele>592.3333333333334</ele><time>2026-04-30T07:20:58.999Z</time></trkpt><trkpt lat="37.432463884553684" lon="14.22961506634682"><ele>592.0</ele><time>2026-04-30T07:20:59.999Z</time></trkpt><trkpt lat="37.432290287898894" lon="14.229564701117852"><ele>590.6666666666667</ele><time>2026-04-30T07:21:00.999Z</time></trkpt><trkpt lat="37.43212397306544" lon="14.229516448558499"><ele>589.3333333333334</ele><time>2026-04-30T07:21:01.999Z</time></trkpt><trkpt lat="37.431963551998116" lon="14.229467744344689"><ele>588.0</ele><time>2026-04-30T07:21:02.999Z</time></trkpt><trkpt lat="37.43180670389119" lon="14.22941821911257"><ele>588.0</ele><time>2026-04-30T07:21:03.999Z</time></trkpt><trkpt lat="37.431645376621006" lon="14.229388511182332"><ele>588.0</ele><time>2026-04-30T07:21:04.999Z</time></trkpt><trkpt lat="37.43148340394092" lon="14.229338819413483"><ele>588.0</ele><time>2026-04-30T07:21:05.999Z</time></trkpt><trkpt lat="37.431321490269134" lon="14.229295928276334"><ele>586.3333333333334</ele><time>2026-04-30T07:21:06.999Z</time></trkpt><trkpt lat="37.4311562029786" lon="14.229276585819742"><ele>584.6666666666667</ele><time>2026-04-30T07:21:07.999Z</time></trkpt><trkpt lat="37.430998655765855" lon="14.229284831653114"><ele>583.0</ele><time>2026-04-30T07:21:08.999Z</time></trkpt><trkpt lat="37.430838339288734" lon="14.22933794033975"><ele>583.0</ele><time>2026-04-30T07:21:09.999Z</time></trkpt><trkpt lat="37.43067620954288" lon="14.229431392687877"><ele>583.0</ele><time>2026-04-30T07:21:10.999Z</time></trkpt><trkpt lat="37.430514953677154" lon="14.22955456621794"><ele>583.0</ele><time>2026-04-30T07:21:11.999Z</time></trkpt><trkpt lat="37.4303542751019" lon="14.229655016400123"><ele>581.6666666666667</ele><time>2026-04-30T07:21:12.999Z</time></trkpt><trkpt lat="37.43019455926335" lon="14.229762677266654"><ele>580.3333333333334</ele><time>2026-04-30T07:21:13.999Z</time></trkpt><trkpt lat="37.43003376337862" lon="14.229862386663507"><ele>579.0</ele><time>2026-04-30T07:21:14.999Z</time></trkpt><trkpt lat="37.42986922693177" lon="14.229945974509823"><ele>579.0</ele><time>2026-04-30T07:21:15.999Z</time></trkpt><trkpt lat="37.429706813272006" lon="14.230015656946724"><ele>579.0</ele><time>2026-04-30T07:21:16.999Z</time></trkpt><trkpt lat="37.42954627776536" lon="14.230074862994174"><ele>579.0</ele><time>2026-04-30T07:21:17.999Z</time></trkpt><trkpt lat="37.42938557525458" lon="14.230125174075342"><ele>577.25</ele><time>2026-04-30T07:21:18.999Z</time></trkpt><trkpt lat="37.429232349369826" lon="14.230140509904432"><ele>575.5</ele><time>2026-04-30T07:21:19.999Z</time></trkpt><trkpt lat="37.4290885684628" lon="14.230138273144155"><ele>573.75</ele><time>2026-04-30T07:21:20.999Z</time></trkpt><trkpt lat="37.42895219497497" lon="14.230107602289628"><ele>572.0</ele><time>2026-04-30T07:21:21.999Z</time></trkpt><trkpt lat="37.42882416231386" lon="14.23004231499765"><ele>571.2</ele><time>2026-04-30T07:21:22.999Z</time></trkpt><trkpt lat="37.42870865333026" lon="14.229957529134719"><ele>570.4000000000001</ele><time>2026-04-30T07:21:23.999Z</time></trkpt><trkpt lat="37.42860529195679" lon="14.229889663506162"><ele>569.5999999999999</ele><time>2026-04-30T07:21:24.999Z</time></trkpt><trkpt lat="37.42854351981911" lon="14.229801221177654"><ele>568.8</ele><time>2026-04-30T07:21:25.999Z</time></trkpt><trkpt lat="37.42849782449725" lon="14.229700603241158"><ele>568.0</ele><time>2026-04-30T07:21:26.999Z</time></trkpt><trkpt lat="37.42848512542517" lon="14.229572693431688"><ele>567.8333333333334</ele><time>2026-04-30T07:21:27.999Z</time></trkpt><trkpt lat="37.42848412311775" lon="14.229453120047598"><ele>567.6666666666667</ele><time>2026-04-30T07:21:28.999Z</time></trkpt><trkpt lat="37.42846915941398" lon="14.229360454522665"><ele>567.5</ele><time>2026-04-30T07:21:29.999Z</time></trkpt><trkpt lat="37.428480235725196" lon="14.229272567027458"><ele>567.3333333333334</ele><time>2026-04-30T07:21:30.999Z</time></trkpt><trkpt lat="37.42848734990099" lon="14.229150551312268"><ele>567.1666666666666</ele><time>2026-04-30T07:21:32.999Z</time></trkpt><trkpt lat="37.42849769768793" lon="14.229061347418115"><ele>567.0</ele><time>2026-04-30T07:21:36.999Z</time></trkpt><trkpt lat="37.4284829018312" lon="14.228952040791476"><ele>566.8333333333334</ele><time>2026-04-30T07:21:39.999Z</time></trkpt><trkpt lat="37.42847570907757" lon="14.22886154642219"><ele>566.6666666666666</ele><time>2026-04-30T07:21:41.999Z</time></trkpt><trkpt lat="37.42847865990324" lon="14.228748101177036"><ele>566.5</ele><time>2026-04-30T07:21:43.999Z</time></trkpt><trkpt lat="37.428472437758785" lon="14.228646390742112"><ele>566.3333333333333</ele><time>2026-04-30T07:21:45.999Z</time></trkpt><trkpt lat="37.42846246560788" lon="14.22853751660952"><ele>566.1666666666666</ele><time>2026-04-30T07:21:48.999Z</time></trkpt><trkpt lat="37.42847476868802" lon="14.22845189944914"><ele>566.0</ele><time>2026-04-30T07:22:01.999Z</time></trkpt><trkpt lat="37.42845455977623" lon="14.228329629245499"><ele>566.0</ele><time>2026-04-30T07:22:03.999Z</time></trkpt><trkpt lat="37.42843255315795" lon="14.228238700493884"><ele>566.0</ele><time>2026-04-30T07:22:04.999Z</time></trkpt><trkpt lat="37.42839744432387" lon="14.228109739807442"><ele>566.0</ele><time>2026-04-30T07:22:05.999Z</time></trkpt><trkpt lat="37.42835526665232" lon="14.227927172624842"><ele>566.0</ele><time>2026-04-30T07:22:06.999Z</time></trkpt><trkpt lat="37.42830769875096" lon="14.227751907724274"><ele>567.0</ele><time>2026-04-30T07:22:07.999Z</time></trkpt><trkpt lat="37.428260919030805" lon="14.227576836581392"><ele>568.0</ele><time>2026-04-30T07:22:08.999Z</time></trkpt><trkpt lat="37.42821488157235" lon="14.227388046133221"><ele>569.0</ele><time>2026-04-30T07:22:09.999Z</time></trkpt><trkpt lat="37.428170582058954" lon="14.227188479663107"><ele>570.6666666666666</ele><time>2026-04-30T07:22:10.999Z</time></trkpt><trkpt lat="37.4281183061249" lon="14.226982657060425"><ele>572.3333333333334</ele><time>2026-04-30T07:22:12Z</time></trkpt><trkpt lat="37.42806880862362" lon="14.226776219375758"><ele>574.0</ele><time>2026-04-30T07:22:13Z</time></trkpt><trkpt lat="37.428021416166764" lon="14.226572689400284"><ele>573.3333333333334</ele><time>2026-04-30T07:22:14Z</time></trkpt><trkpt lat="37.427978161678524" lon="14.22636989671164"><ele>572.6666666666666</ele><time>2026-04-30T07:22:15Z</time></trkpt><trkpt lat="37.42793881561828" lon="14.22616336564138"><ele>572.0</ele><time>2026-04-30T07:22:16Z</time></trkpt><trkpt lat="37.42790196919765" lon="14.225969144415592"><ele>572.0</ele><time>2026-04-30T07:22:17Z</time></trkpt><trkpt lat="37.427864803625134" lon="14.225785102021959"><ele>572.0</ele><time>2026-04-30T07:22:18Z</time></trkpt><trkpt lat="37.4278339249703" lon="14.225609580272785"><ele>572.0</ele><time>2026-04-30T07:22:19Z</time></trkpt><trkpt lat="37.42781329270704" lon="14.22543289069552"><ele>572.0</ele><time>2026-04-30T07:22:20Z</time></trkpt><trkpt lat="37.42780305982692" lon="14.225248084646386"><ele>572.3333333333333</ele><time>2026-04-30T07:22:21Z</time></trkpt><trkpt lat="37.427802452625016" lon="14.225059997671025"><ele>572.6666666666666</ele><time>2026-04-30T07:22:22Z</time></trkpt><trkpt lat="37.42781596573323" lon="14.224864648445939"><ele>573.0</ele><time>2026-04-30T07:22:23Z</time></trkpt><trkpt lat="37.42783598289953" lon="14.22467029727093"><ele>573.0</ele><time>2026-04-30T07:22:24Z</time></trkpt><trkpt lat="37.42786489521485" lon="14.224477042191147"><ele>573.0</ele><time>2026-04-30T07:22:25Z</time></trkpt><trkpt lat="37.42790604021691" lon="14.224288032659157"><ele>573.0</ele><time>2026-04-30T07:22:26Z</time></trkpt><trkpt lat="37.42796269548227" lon="14.224115606863508"><ele>574.3333333333334</ele><time>2026-04-30T07:22:27Z</time></trkpt><trkpt lat="37.428043013045446" lon="14.223960212659474"><ele>575.6666666666667</ele><time>2026-04-30T07:22:27.999Z</time></trkpt><trkpt lat="37.4281436181459" lon="14.223817127617723"><ele>577.0</ele><time>2026-04-30T07:22:28.999Z</time></trkpt><trkpt lat="37.428248761760216" lon="14.223675696969686"><ele>577.0</ele><time>2026-04-30T07:22:29.999Z</time></trkpt><trkpt lat="37.4283478828218" lon="14.223522818916129"><ele>577.0</ele><time>2026-04-30T07:22:30.999Z</time></trkpt><trkpt lat="37.428451601668186" lon="14.22336926923988"><ele>577.0</ele><time>2026-04-30T07:22:31.999Z</time></trkpt><trkpt lat="37.428557268469234" lon="14.223209896708664"><ele>578.0</ele><time>2026-04-30T07:22:32.999Z</time></trkpt><trkpt lat="37.42866353543509" lon="14.223045603311963"><ele>579.0</ele><time>2026-04-30T07:22:33.999Z</time></trkpt><trkpt lat="37.428777370961114" lon="14.222881392708764"><ele>580.0</ele><time>2026-04-30T07:22:34.999Z</time></trkpt><trkpt lat="37.42889653655322" lon="14.222722561208856"><ele>580.0</ele><time>2026-04-30T07:22:35.999Z</time></trkpt><trkpt lat="37.42901979579303" lon="14.222570325700707"><ele>580.0</ele><time>2026-04-30T07:22:36.999Z</time></trkpt><trkpt lat="37.42914805824319" lon="14.222422119597288"><ele>580.0</ele><time>2026-04-30T07:22:37.999Z</time></trkpt><trkpt lat="37.4292853768431" lon="14.222282828768844"><ele>579.6666666666667</ele><time>2026-04-30T07:22:38.999Z</time></trkpt><trkpt lat="37.42943442564089" lon="14.222151974635905"><ele>579.3333333333334</ele><time>2026-04-30T07:22:39.999Z</time></trkpt><trkpt lat="37.42958609052503" lon="14.222027980074557"><ele>579.0</ele><time>2026-04-30T07:22:40.999Z</time></trkpt><trkpt lat="37.42973283367043" lon="14.2219032231724"><ele>579.0</ele><time>2026-04-30T07:22:41.999Z</time></trkpt><trkpt lat="37.429873610328904" lon="14.22177221833077"><ele>579.0</ele><time>2026-04-30T07:22:42.999Z</time></trkpt><trkpt lat="37.43000989973582" lon="14.221641308042793"><ele>579.0</ele><time>2026-04-30T07:22:43.999Z</time></trkpt><trkpt lat="37.43014292420482" lon="14.221517438168025"><ele>578.3333333333334</ele><time>2026-04-30T07:22:44.999Z</time></trkpt><trkpt lat="37.43026783673961" lon="14.221398841516862"><ele>577.6666666666667</ele><time>2026-04-30T07:22:45.999Z</time></trkpt><trkpt lat="37.430388381935636" lon="14.221281985498994"><ele>577.0</ele><time>2026-04-30T07:22:46.999Z</time></trkpt><trkpt lat="37.43049461637494" lon="14.221162393245388"><ele>577.0</ele><time>2026-04-30T07:22:47.999Z</time></trkpt><trkpt lat="37.430586810942" lon="14.221024476815394"><ele>577.0</ele><time>2026-04-30T07:22:48.999Z</time></trkpt><trkpt lat="37.430657357429126" lon="14.220870233008222"><ele>577.0</ele><time>2026-04-30T07:22:49.999Z</time></trkpt><trkpt lat="37.430714883538116" lon="14.22070989836484"><ele>577.0</ele><time>2026-04-30T07:22:50.999Z</time></trkpt><trkpt lat="37.430751828397376" lon="14.220537277303164"><ele>576.5</ele><time>2026-04-30T07:22:51.999Z</time></trkpt><trkpt lat="37.43076924805666" lon="14.2203589174709"><ele>576.0</ele><time>2026-04-30T07:22:52.999Z</time></trkpt><trkpt lat="37.43076101744715" lon="14.220169882121809"><ele>575.5</ele><time>2026-04-30T07:22:53.999Z</time></trkpt><trkpt lat="37.43073828693399" lon="14.219977941651289"><ele>575.0</ele><time>2026-04-30T07:22:54.999Z</time></trkpt><trkpt lat="37.43071890114505" lon="14.219820139922355"><ele>576.5</ele><time>2026-04-30T07:22:55.999Z</time></trkpt><trkpt lat="37.43069289486027" lon="14.219657601559037"><ele>578.0</ele><time>2026-04-30T07:22:56.999Z</time></trkpt><trkpt lat="37.4306457859499" lon="14.219501724010223"><ele>579.5</ele><time>2026-04-30T07:22:57.999Z</time></trkpt><trkpt lat="37.4305783118421" lon="14.219355650201713"><ele>581.0</ele><time>2026-04-30T07:22:58.999Z</time></trkpt><trkpt lat="37.43050387624763" lon="14.219227222396837"><ele>580.0</ele><time>2026-04-30T07:22:59.999Z</time></trkpt><trkpt lat="37.4304145986523" lon="14.219126718133264"><ele>579.0</ele><time>2026-04-30T07:23:00.999Z</time></trkpt><trkpt lat="37.43030495065619" lon="14.219066618211855"><ele>578.0</ele><time>2026-04-30T07:23:01.999Z</time></trkpt><trkpt lat="37.43017764850184" lon="14.219047326101236"><ele>577.0</ele><time>2026-04-30T07:23:02.999Z</time></trkpt><trkpt lat="37.430037484343245" lon="14.219057338606884"><ele>577.0</ele><time>2026-04-30T07:23:03.999Z</time></trkpt><trkpt lat="37.429886263441375" lon="14.219080406502284"><ele>577.0</ele><time>2026-04-30T07:23:04.999Z</time></trkpt><trkpt lat="37.42973539121331" lon="14.219114953774655"><ele>577.0</ele><time>2026-04-30T07:23:05.999Z</time></trkpt><trkpt lat="37.42959113522271" lon="14.219181074164641"><ele>579.6666666666667</ele><time>2026-04-30T07:23:06.999Z</time></trkpt><trkpt lat="37.42945412219889" lon="14.219274928465916"><ele>582.3333333333334</ele><time>2026-04-30T07:23:07.999Z</time></trkpt><trkpt lat="37.42932779041016" lon="14.219388374813253"><ele>585.0</ele><time>2026-04-30T07:23:08.999Z</time></trkpt><trkpt lat="37.42918857901639" lon="14.219474969258616"><ele>585.0</ele><time>2026-04-30T07:23:09.999Z</time></trkpt><trkpt lat="37.429063638709046" lon="14.219571530238948"><ele>585.0</ele><time>2026-04-30T07:23:10.999Z</time></trkpt><trkpt lat="37.42893554139307" lon="14.219655921960161"><ele>585.0</ele><time>2026-04-30T07:23:11.999Z</time></trkpt><trkpt lat="37.42879723619081" lon="14.2197208955208"><ele>585.0</ele><time>2026-04-30T07:23:12.999Z</time></trkpt><trkpt lat="37.42865015040069" lon="14.219777818892915"><ele>582.0</ele><time>2026-04-30T07:23:13.999Z</time></trkpt><trkpt lat="37.42849537066505" lon="14.219837261395307"><ele>579.0</ele><time>2026-04-30T07:23:14.999Z</time></trkpt><trkpt lat="37.42833407229592" lon="14.219899811956592"><ele>576.0</ele><time>2026-04-30T07:23:15.999Z</time></trkpt><trkpt lat="37.42816961421234" lon="14.219964115474236"><ele>576.0</ele><time>2026-04-30T07:23:16.999Z</time></trkpt><trkpt lat="37.42801198739189" lon="14.22002528296792"><ele>576.0</ele><time>2026-04-30T07:23:17.999Z</time></trkpt><trkpt lat="37.42786757559702" lon="14.220080946331413"><ele>576.0</ele><time>2026-04-30T07:23:18.999Z</time></trkpt><trkpt lat="37.427727851449674" lon="14.220129751093529"><ele>577.6666666666666</ele><time>2026-04-30T07:23:19.999Z</time></trkpt><trkpt lat="37.42758791982765" lon="14.22015882375356"><ele>579.3333333333333</ele><time>2026-04-30T07:23:20.999Z</time></trkpt><trkpt lat="37.42743663423346" lon="14.220150395066753"><ele>581.0</ele><time>2026-04-30T07:23:21.999Z</time></trkpt><trkpt lat="37.42727052916561" lon="14.220116394281664"><ele>578.5</ele><time>2026-04-30T07:23:22.999Z</time></trkpt><trkpt lat="37.42711170675415" lon="14.220086622534051"><ele>576.0</ele><time>2026-04-30T07:23:23.999Z</time></trkpt><trkpt lat="37.426969999475574" lon="14.220058301575081"><ele>573.5</ele><time>2026-04-30T07:23:24.999Z</time></trkpt><trkpt lat="37.4268503640869" lon="14.220018214378854"><ele>571.0</ele><time>2026-04-30T07:23:25.999Z</time></trkpt><trkpt lat="37.42674975071704" lon="14.21993607856952"><ele>571.0</ele><time>2026-04-30T07:23:26.999Z</time></trkpt><trkpt lat="37.42664861108905" lon="14.219826260299754"><ele>571.0</ele><time>2026-04-30T07:23:27.999Z</time></trkpt><trkpt lat="37.42655370821607" lon="14.21970392447183"><ele>571.0</ele><time>2026-04-30T07:23:28.999Z</time></trkpt><trkpt lat="37.42649501041812" lon="14.21956002403294"><ele>571.0</ele><time>2026-04-30T07:23:29.999Z</time></trkpt><trkpt lat="37.42647157023636" lon="14.219404913499577"><ele>571.25</ele><time>2026-04-30T07:23:30.999Z</time></trkpt><trkpt lat="37.42648401663557" lon="14.219245709578455"><ele>571.5</ele><time>2026-04-30T07:23:31.999Z</time></trkpt><trkpt lat="37.42652619358323" lon="14.219085083175022"><ele>571.75</ele><time>2026-04-30T07:23:32.999Z</time></trkpt><trkpt lat="37.42658559203437" lon="14.218922809290335"><ele>572.0</ele><time>2026-04-30T07:23:33.999Z</time></trkpt><trkpt lat="37.42663887908088" lon="14.21875330349627"><ele>572.0</ele><time>2026-04-30T07:23:34.999Z</time></trkpt><trkpt lat="37.42668767594687" lon="14.218573062883586"><ele>572.0</ele><time>2026-04-30T07:23:35.999Z</time></trkpt><trkpt lat="37.42674471761988" lon="14.218385157258176"><ele>572.0</ele><time>2026-04-30T07:23:36.999Z</time></trkpt><trkpt lat="37.426807984298335" lon="14.218185844969362"><ele>570.6666666666666</ele><time>2026-04-30T07:23:37.999Z</time></trkpt><trkpt lat="37.42686907657045" lon="14.21797455810482"><ele>569.3333333333334</ele><time>2026-04-30T07:23:38.999Z</time></trkpt><trkpt lat="37.42692491766118" lon="14.217766538369402"><ele>568.0</ele><time>2026-04-30T07:23:39.999Z</time></trkpt><trkpt lat="37.426983920981094" lon="14.21755862314217"><ele>568.0</ele><time>2026-04-30T07:23:40.999Z</time></trkpt><trkpt lat="37.427042306205664" lon="14.217356159463927"><ele>568.0</ele><time>2026-04-30T07:23:41.999Z</time></trkpt><trkpt lat="37.42709839013039" lon="14.217163861751638"><ele>568.0</ele><time>2026-04-30T07:23:42.999Z</time></trkpt><trkpt lat="37.427142439275414" lon="14.216975362383575"><ele>569.5</ele><time>2026-04-30T07:23:43.999Z</time></trkpt><trkpt lat="37.42717038873315" lon="14.216791897494883"><ele>571.0</ele><time>2026-04-30T07:23:44.999Z</time></trkpt><trkpt lat="37.427177877613346" lon="14.21661459958951"><ele>572.5</ele><time>2026-04-30T07:23:45.999Z</time></trkpt><trkpt lat="37.42716193049849" lon="14.21644516246888"><ele>574.0</ele><time>2026-04-30T07:23:46.999Z</time></trkpt><trkpt lat="37.42711205286946" lon="14.216302916486942"><ele>574.0</ele><time>2026-04-30T07:23:47.999Z</time></trkpt><trkpt lat="37.42702142454297" lon="14.216205492482832"><ele>574.0</ele><time>2026-04-30T07:23:48.999Z</time></trkpt><trkpt lat="37.42689883050587" lon="14.216148516430957"><ele>574.0</ele><time>2026-04-30T07:23:49.999Z</time></trkpt><trkpt lat="37.42676566903316" lon="14.216102199575078"><ele>574.0</ele><time>2026-04-30T07:23:50.999Z</time></trkpt><trkpt lat="37.426628815365284" lon="14.216052912081643"><ele>574.0</ele><time>2026-04-30T07:23:51.999Z</time></trkpt><trkpt lat="37.426492489630554" lon="14.215994217550248"><ele>574.0</ele><time>2026-04-30T07:23:52.999Z</time></trkpt><trkpt lat="37.4263769873665" lon="14.215912005587434"><ele>574.0</ele><time>2026-04-30T07:23:53.999Z</time></trkpt><trkpt lat="37.42626535203545" lon="14.215865186946433"><ele>574.0</ele><time>2026-04-30T07:23:54.999Z</time></trkpt><trkpt lat="37.42618204757865" lon="14.215773321599555"><ele>572.75</ele><time>2026-04-30T07:23:55.999Z</time></trkpt><trkpt lat="37.42612831262825" lon="14.215651163513865"><ele>571.5</ele><time>2026-04-30T07:23:56.999Z</time></trkpt><trkpt lat="37.42610806061654" lon="14.215510812937328"><ele>570.25</ele><time>2026-04-30T07:23:57.999Z</time></trkpt><trkpt lat="37.42613065214322" lon="14.215351064901458"><ele>569.0</ele><time>2026-04-30T07:23:58.999Z</time></trkpt><trkpt lat="37.426166064435506" lon="14.215183940900395"><ele>569.0</ele><time>2026-04-30T07:23:59.999Z</time></trkpt><trkpt lat="37.426213408451524" lon="14.215007671992142"><ele>569.0</ele><time>2026-04-30T07:24:00.999Z</time></trkpt><trkpt lat="37.42626576367884" lon="14.214832169434631"><ele>569.0</ele><time>2026-04-30T07:24:01.999Z</time></trkpt><trkpt lat="37.42634150182546" lon="14.214651438728497"><ele>570.0</ele><time>2026-04-30T07:24:02.999Z</time></trkpt><trkpt lat="37.42643353140271" lon="14.214463782187199"><ele>571.0</ele><time>2026-04-30T07:24:03.999Z</time></trkpt><trkpt lat="37.42652905915983" lon="14.214271744706005"><ele>572.0</ele><time>2026-04-30T07:24:04.999Z</time></trkpt><trkpt lat="37.426620262896286" lon="14.214084952575666"><ele>571.3333333333333</ele><time>2026-04-30T07:24:05.999Z</time></trkpt><trkpt lat="37.42671223352859" lon="14.213901432323567"><ele>570.6666666666666</ele><time>2026-04-30T07:24:06.999Z</time></trkpt><trkpt lat="37.42680245259444" lon="14.213720404645898"><ele>570.0</ele><time>2026-04-30T07:24:07.999Z</time></trkpt><trkpt lat="37.42689047871738" lon="14.213536479793872"><ele>570.0</ele><time>2026-04-30T07:24:08.999Z</time></trkpt><trkpt lat="37.426979653382745" lon="14.213348510638902"><ele>570.0</ele><time>2026-04-30T07:24:09.999Z</time></trkpt><trkpt lat="37.4270739179061" lon="14.213168551386945"><ele>570.0</ele><time>2026-04-30T07:24:10.999Z</time></trkpt><trkpt lat="37.42716230167119" lon="14.212997377005786"><ele>570.6666666666666</ele><time>2026-04-30T07:24:11.999Z</time></trkpt><trkpt lat="37.42724489907515" lon="14.212828668032955"><ele>571.3333333333333</ele><time>2026-04-30T07:24:12.999Z</time></trkpt><trkpt lat="37.42730769362801" lon="14.212649156324181"><ele>572.0</ele><time>2026-04-30T07:24:13.999Z</time></trkpt><trkpt lat="37.427352044609236" lon="14.212454801165768"><ele>571.0</ele><time>2026-04-30T07:24:14.999Z</time></trkpt><trkpt lat="37.42737940906106" lon="14.212247137307996"><ele>570.0</ele><time>2026-04-30T07:24:15.999Z</time></trkpt><trkpt lat="37.42739805238273" lon="14.212034603699319"><ele>569.0</ele><time>2026-04-30T07:24:16.999Z</time></trkpt><trkpt lat="37.42740296117339" lon="14.21181952271434"><ele>569.0</ele><time>2026-04-30T07:24:17.999Z</time></trkpt><trkpt lat="37.427413484983894" lon="14.211615184745721"><ele>569.0</ele><time>2026-04-30T07:24:18.999Z</time></trkpt><trkpt lat="37.427428905658324" lon="14.21143290643155"><ele>569.0</ele><time>2026-04-30T07:24:19.999Z</time></trkpt><trkpt lat="37.42745158712329" lon="14.211253400179796"><ele>568.3333333333333</ele><time>2026-04-30T07:24:20.999Z</time></trkpt><trkpt lat="37.42747863150021" lon="14.211066782298733"><ele>567.6666666666666</ele><time>2026-04-30T07:24:21.999Z</time></trkpt><trkpt lat="37.42752482086803" lon="14.210884803605879"><ele>567.0</ele><time>2026-04-30T07:24:22.999Z</time></trkpt><trkpt lat="37.42758646650024" lon="14.210705831967987"><ele>566.5</ele><time>2026-04-30T07:24:23.999Z</time></trkpt><trkpt lat="37.42766251824408" lon="14.21054134315834"><ele>566.0</ele><time>2026-04-30T07:24:24.999Z</time></trkpt><trkpt lat="37.42772912560203" lon="14.210408386220008"><ele>565.5</ele><time>2026-04-30T07:24:25.999Z</time></trkpt><trkpt lat="37.42776597879295" lon="14.210284652240079"><ele>565.0</ele><time>2026-04-30T07:24:26.999Z</time></trkpt><trkpt lat="37.427755542528054" lon="14.210159037670905"><ele>565.0</ele><time>2026-04-30T07:24:27.999Z</time></trkpt><trkpt lat="37.427705097246" lon="14.210044034590528"><ele>565.0</ele><time>2026-04-30T07:24:28.999Z</time></trkpt><trkpt lat="37.42762914667083" lon="14.209976395313928"><ele>565.0</ele><time>2026-04-30T07:24:29.999Z</time></trkpt><trkpt lat="37.427548976877596" lon="14.20993714918626"><ele>565.0</ele><time>2026-04-30T07:24:31.999Z</time></trkpt><trkpt lat="37.427662426865574" lon="14.20990716175296"><ele>565.0</ele><time>2026-04-30T07:24:38.999Z</time></trkpt><trkpt lat="37.42773290509285" lon="14.209878016833963"><ele>565.0</ele><time>2026-04-30T07:24:39.999Z</time></trkpt><trkpt lat="37.427818493590046" lon="14.209869112681407"><ele>565.0</ele><time>2026-04-30T07:24:40.999Z</time></trkpt><trkpt lat="37.427906568706675" lon="14.209854452279677"><ele>565.0</ele><time>2026-04-30T07:24:41.999Z</time></trkpt><trkpt lat="37.42800488585136" lon="14.209829832622523"><ele>565.0</ele><time>2026-04-30T07:24:42.999Z</time></trkpt><trkpt lat="37.42811923082016" lon="14.209790293946874"><ele>565.0</ele><time>2026-04-30T07:24:43.999Z</time></trkpt><trkpt lat="37.42823772543712" lon="14.209752216254927"><ele>568.5</ele><time>2026-04-30T07:24:44.999Z</time></trkpt><trkpt lat="37.42834101000817" lon="14.209726639461902"><ele>572.0</ele><time>2026-04-30T07:24:45.999Z</time></trkpt><trkpt lat="37.42844474489962" lon="14.209697578415655"><ele>575.5</ele><time>2026-04-30T07:24:46.999Z</time></trkpt><trkpt lat="37.428558188502464" lon="14.20964239647329"><ele>579.0</ele><time>2026-04-30T07:24:47.999Z</time></trkpt><trkpt lat="37.42868605080172" lon="14.209619121856997"><ele>579.0</ele><time>2026-04-30T07:24:48.999Z</time></trkpt><trkpt lat="37.428806645690386" lon="14.209590203492244"><ele>579.0</ele><time>2026-04-30T07:24:49.999Z</time></trkpt><trkpt lat="37.42893408964179" lon="14.209559850422938"><ele>579.0</ele><time>2026-04-30T07:24:50.999Z</time></trkpt><trkpt lat="37.42906123334479" lon="14.209510921374704"><ele>579.0</ele><time>2026-04-30T07:24:51.999Z</time></trkpt><trkpt lat="37.429180337725434" lon="14.209482190360928"><ele>580.5</ele><time>2026-04-30T07:24:52.999Z</time></trkpt><trkpt lat="37.42929848006191" lon="14.209460491436031"><ele>582.0</ele><time>2026-04-30T07:24:53.999Z</time></trkpt><trkpt lat="37.42941798485081" lon="14.209439927264933"><ele>583.5</ele><time>2026-04-30T07:24:54.999Z</time></trkpt><trkpt lat="37.42953928372783" lon="14.20940026671783"><ele>585.0</ele><time>2026-04-30T07:24:55.999Z</time></trkpt><trkpt lat="37.42965781881476" lon="14.209366096044056"><ele>586.0</ele><time>2026-04-30T07:24:56.999Z</time></trkpt><trkpt lat="37.429768318223445" lon="14.209334524925517"><ele>587.0</ele><time>2026-04-30T07:24:57.999Z</time></trkpt><trkpt lat="37.42988725092413" lon="14.209286209661503"><ele>588.0</ele><time>2026-04-30T07:24:58.999Z</time></trkpt><trkpt lat="37.43001199428223" lon="14.209237442650759"><ele>589.0</ele><time>2026-04-30T07:24:59.999Z</time></trkpt><trkpt lat="37.4301306446498" lon="14.209185420688387"><ele>589.0</ele><time>2026-04-30T07:25:00.999Z</time></trkpt><trkpt lat="37.43022876911111" lon="14.209134201104535"><ele>589.0</ele><time>2026-04-30T07:25:01.999Z</time></trkpt><trkpt lat="37.4303197798798" lon="14.209085295742822"><ele>589.0</ele><time>2026-04-30T07:25:02.999Z</time></trkpt><trkpt lat="37.43041916838949" lon="14.209031104732643"><ele>589.0</ele><time>2026-04-30T07:25:03.999Z</time></trkpt><trkpt lat="37.43054014673351" lon="14.208974962738079"><ele>589.0</ele><time>2026-04-30T07:25:04.999Z</time></trkpt><trkpt lat="37.43065037059689" lon="14.20892748440472"><ele>590.75</ele><time>2026-04-30T07:25:05.999Z</time></trkpt><trkpt lat="37.430739003474216" lon="14.208878352356946"><ele>592.5</ele><time>2026-04-30T07:25:06.999Z</time></trkpt><trkpt lat="37.43085774516652" lon="14.208805858099169"><ele>594.25</ele><time>2026-04-30T07:25:07.999Z</time></trkpt><trkpt lat="37.43097573635091" lon="14.208720697352343"><ele>596.0</ele><time>2026-04-30T07:25:08.999Z</time></trkpt><trkpt lat="37.43108939810638" lon="14.208629556714543"><ele>596.0</ele><time>2026-04-30T07:25:09.999Z</time></trkpt><trkpt lat="37.4311905632169" lon="14.208541603095133"><ele>596.0</ele><time>2026-04-30T07:25:10.999Z</time></trkpt><trkpt lat="37.43128164453736" lon="14.20845675505046"><ele>596.0</ele><time>2026-04-30T07:25:11.999Z</time></trkpt><trkpt lat="37.43137349058842" lon="14.208385799380382"><ele>596.0</ele><time>2026-04-30T07:25:12.999Z</time></trkpt><trkpt lat="37.431425681780375" lon="14.208333250158239"><ele>596.0</ele><time>2026-04-30T07:25:13.999Z</time></trkpt><trkpt lat="37.431474659023635" lon="14.208278905672872"><ele>596.8</ele><time>2026-04-30T07:25:15.999Z</time></trkpt><trkpt lat="37.431537637076026" lon="14.208195928858956"><ele>597.6</ele><time>2026-04-30T07:25:20.999Z</time></trkpt><trkpt lat="37.4315807594973" lon="14.208126746973788"><ele>598.4</ele><time>2026-04-30T07:25:21.999Z</time></trkpt><trkpt lat="37.43163176285755" lon="14.208041098489288"><ele>599.2</ele><time>2026-04-30T07:25:22.999Z</time></trkpt><trkpt lat="37.43169952377425" lon="14.2079410713659"><ele>600.0</ele><time>2026-04-30T07:25:23.999Z</time></trkpt><trkpt lat="37.43178464388751" lon="14.20783118664287"><ele>600.0</ele><time>2026-04-30T07:25:24.999Z</time></trkpt><trkpt lat="37.431876816534526" lon="14.207718441564941"><ele>600.0</ele><time>2026-04-30T07:25:25.999Z</time></trkpt><trkpt lat="37.43195690793318" lon="14.207622853592225"><ele>600.0</ele><time>2026-04-30T07:25:26.999Z</time></trkpt><trkpt lat="37.43203047425209" lon="14.207535499193927"><ele>600.0</ele><time>2026-04-30T07:25:27.999Z</time></trkpt><trkpt lat="37.432098841404404" lon="14.20745431749977"><ele>600.0</ele><time>2026-04-30T07:25:28.999Z</time></trkpt><trkpt lat="37.432172487890526" lon="14.207366866867657"><ele>598.5</ele><time>2026-04-30T07:25:29.999Z</time></trkpt><trkpt lat="37.432250678544214" lon="14.207258003877502"><ele>597.0</ele><time>2026-04-30T07:25:30.999Z</time></trkpt><trkpt lat="37.432348042509965" lon="14.207157666923957"><ele>595.5</ele><time>2026-04-30T07:25:31.999Z</time></trkpt><trkpt lat="37.43244627035608" lon="14.207060846417354"><ele>594.0</ele><time>2026-04-30T07:25:32.999Z</time></trkpt><trkpt lat="37.432537879588935" lon="14.206953076513173"><ele>594.0</ele><time>2026-04-30T07:25:33.999Z</time></trkpt><trkpt lat="37.432692708034985" lon="14.206914504794055"><ele>594.0</ele><time>2026-04-30T07:25:34.999Z</time></trkpt><trkpt lat="37.432842623343" lon="14.206834043168213"><ele>594.0</ele><time>2026-04-30T07:25:35.999Z</time></trkpt><trkpt lat="37.43299758703328" lon="14.206750872031675"><ele>594.5</ele><time>2026-04-30T07:25:36.999Z</time></trkpt><trkpt lat="37.433141634167626" lon="14.20667355995721"><ele>595.0</ele><time>2026-04-30T07:25:37.999Z</time></trkpt><trkpt lat="37.433271915765225" lon="14.206588101856257"><ele>595.5</ele><time>2026-04-30T07:25:38.999Z</time></trkpt><trkpt lat="37.43340406980089" lon="14.206518534338123"><ele>596.0</ele><time>2026-04-30T07:25:39.999Z</time></trkpt><trkpt lat="37.43354251073682" lon="14.206443740201118"><ele>593.5</ele><time>2026-04-30T07:25:40.999Z</time></trkpt><trkpt lat="37.43367186385459" lon="14.206374203655235"><ele>591.0</ele><time>2026-04-30T07:25:41.999Z</time></trkpt><trkpt lat="37.433795046072724" lon="14.206313713933808"><ele>588.5</ele><time>2026-04-30T07:25:42.999Z</time></trkpt><trkpt lat="37.43391959514457" lon="14.206259281328768"><ele>586.0</ele><time>2026-04-30T07:25:43.999Z</time></trkpt><trkpt lat="37.43405317342273" lon="14.206250953905203"><ele>586.0</ele><time>2026-04-30T07:25:44.999Z</time></trkpt><trkpt lat="37.43417723724859" lon="14.206260965882569"><ele>586.0</ele><time>2026-04-30T07:25:45.999Z</time></trkpt><trkpt lat="37.434295382113234" lon="14.206292384371316"><ele>586.0</ele><time>2026-04-30T07:25:46.999Z</time></trkpt><trkpt lat="37.434412146187135" lon="14.20632416115154"><ele>586.0</ele><time>2026-04-30T07:25:47.999Z</time></trkpt><trkpt lat="37.43453353835101" lon="14.206336798864365"><ele>584.25</ele><time>2026-04-30T07:25:48.999Z</time></trkpt><trkpt lat="37.434656221328666" lon="14.206348580087527"><ele>582.5</ele><time>2026-04-30T07:25:49.999Z</time></trkpt><trkpt lat="37.434774587853475" lon="14.206334978098724"><ele>580.75</ele><time>2026-04-30T07:25:50.999Z</time></trkpt><trkpt lat="37.434882757218205" lon="14.206307906357107"><ele>579.0</ele><time>2026-04-30T07:25:51.999Z</time></trkpt><trkpt lat="37.43499502679095" lon="14.20629175786214"><ele>579.0</ele><time>2026-04-30T07:25:52.999Z</time></trkpt><trkpt lat="37.4350887992057" lon="14.206314373549422"><ele>579.0</ele><time>2026-04-30T07:25:53.999Z</time></trkpt><trkpt lat="37.43518089921916" lon="14.206344092295154"><ele>579.0</ele><time>2026-04-30T07:25:54.999Z</time></trkpt><trkpt lat="37.43527367275392" lon="14.206396175462832"><ele>579.0</ele><time>2026-04-30T07:25:55.999Z</time></trkpt><trkpt lat="37.43534511952025" lon="14.206461732822657"><ele>579.0</ele><time>2026-04-30T07:25:56.999Z</time></trkpt><trkpt lat="37.43537691424103" lon="14.206543286444647"><ele>579.4</ele><time>2026-04-30T07:25:57.999Z</time></trkpt><trkpt lat="37.4353883798372" lon="14.206634960174267"><ele>579.8</ele><time>2026-04-30T07:25:58.999Z</time></trkpt><trkpt lat="37.43537936928002" lon="14.206732867543922"><ele>580.2</ele><time>2026-04-30T07:25:59.999Z</time></trkpt><trkpt lat="37.435378342641684" lon="14.206858951035805"><ele>580.6</ele><time>2026-04-30T07:26:00.999Z</time></trkpt><trkpt lat="37.43537729409556" lon="14.206987725101214"><ele>581.0</ele><time>2026-04-30T07:26:01.999Z</time></trkpt><trkpt lat="37.43537733436854" lon="14.207123486660675"><ele>581.0</ele><time>2026-04-30T07:26:02.999Z</time></trkpt><trkpt lat="37.435376788871686" lon="14.207264679213468"><ele>581.0</ele><time>2026-04-30T07:26:03.999Z</time></trkpt><trkpt lat="37.43536849758837" lon="14.207401986510956"><ele>581.0</ele><time>2026-04-30T07:26:04.999Z</time></trkpt><trkpt lat="37.4353558653724" lon="14.207496626598562"><ele>581.0</ele><time>2026-04-30T07:26:05.999Z</time></trkpt><trkpt lat="37.435340611320235" lon="14.207607456943213"><ele>581.0</ele><time>2026-04-30T07:26:07.999Z</time></trkpt><trkpt lat="37.43532029562625" lon="14.20773286935243"><ele>580.8333333333333</ele><time>2026-04-30T07:26:09.999Z</time></trkpt><trkpt lat="37.435303841611486" lon="14.20783560451951"><ele>580.6666666666666</ele><time>2026-04-30T07:26:11.999Z</time></trkpt><trkpt lat="37.43535036456032" lon="14.207971176829513"><ele>580.5</ele><time>2026-04-30T07:26:13.999Z</time></trkpt><trkpt lat="37.435357531117624" lon="14.208051578777264"><ele>580.3333333333334</ele><time>2026-04-30T07:26:14.999Z</time></trkpt><trkpt lat="37.435362722602854" lon="14.208138906244862"><ele>580.1666666666667</ele><time>2026-04-30T07:26:15.999Z</time></trkpt><trkpt lat="37.435374551293556" lon="14.208225150707825"><ele>580.0</ele><time>2026-04-30T07:26:16.999Z</time></trkpt><trkpt lat="37.43542134115243" lon="14.208312994944835"><ele>574.6666666666667</ele><time>2026-04-30T07:26:17.999Z</time></trkpt><trkpt lat="37.43547268605313" lon="14.208390036978813"><ele>569.3333333333334</ele><time>2026-04-30T07:26:18.999Z</time></trkpt><trkpt lat="37.43553209835267" lon="14.208463972649852"><ele>564.0</ele><time>2026-04-30T07:26:19.999Z</time></trkpt><trkpt lat="37.4355906439565" lon="14.208536154580182"><ele>558.6666666666666</ele><time>2026-04-30T07:26:20.998Z</time></trkpt><trkpt lat="37.43565664621156" lon="14.208590168952066"><ele>553.3333333333333</ele><time>2026-04-30T07:26:21.998Z</time></trkpt><trkpt lat="37.43573184081948" lon="14.208599308849625"><ele>548.0</ele><time>2026-04-30T07:26:22.998Z</time></trkpt><trkpt lat="37.43580197010743" lon="14.208635517301468"><ele>548.0</ele><time>2026-04-30T07:26:23.999Z</time></trkpt><trkpt lat="37.43587387411904" lon="14.208672637450151"><ele>548.0</ele><time>2026-04-30T07:26:24.999Z</time></trkpt><trkpt lat="37.43593574199398" lon="14.208707472109591"><ele>548.0</ele><time>2026-04-30T07:26:25.999Z</time></trkpt><trkpt lat="37.43600008663826" lon="14.208749574769493"><ele>548.0</ele><time>2026-04-30T07:26:26.999Z</time></trkpt><trkpt lat="37.43607194219636" lon="14.208811241281103"><ele>548.0</ele><time>2026-04-30T07:26:27.999Z</time></trkpt><trkpt lat="37.43614178849933" lon="14.208884692945832"><ele>548.0</ele><time>2026-04-30T07:26:28.999Z</time></trkpt><trkpt lat="37.43621047424154" lon="14.208958577833013"><ele>546.8333333333333</ele><time>2026-04-30T07:26:29.999Z</time></trkpt><trkpt lat="37.43627651726215" lon="14.20904339631181"><ele>545.6666666666666</ele><time>2026-04-30T07:26:30.999Z</time></trkpt><trkpt lat="37.43635683339443" lon="14.20910426882014"><ele>544.5</ele><time>2026-04-30T07:26:31.999Z</time></trkpt><trkpt lat="37.43644007906003" lon="14.209136516098619"><ele>543.3333333333334</ele><time>2026-04-30T07:26:32.999Z</time></trkpt><trkpt lat="37.43651218795833" lon="14.20918434616485"><ele>542.1666666666667</ele><time>2026-04-30T07:26:33.999Z</time></trkpt><trkpt lat="37.43657322272879" lon="14.209250415697316"><ele>541.0</ele><time>2026-04-30T07:26:34.999Z</time></trkpt><trkpt lat="37.43661083581499" lon="14.209346182978324"><ele>538.6666666666667</ele><time>2026-04-30T07:26:35.999Z</time></trkpt><trkpt lat="37.4366600341955" lon="14.209426208390182"><ele>536.3333333333334</ele><time>2026-04-30T07:26:36.999Z</time></trkpt><trkpt lat="37.436726058687185" lon="14.209494909373229"><ele>534.0</ele><time>2026-04-30T07:26:37.999Z</time></trkpt><trkpt lat="37.43677661192313" lon="14.209573036500807"><ele>531.6666666666666</ele><time>2026-04-30T07:26:38.999Z</time></trkpt><trkpt lat="37.43682561365506" lon="14.209645770065405"><ele>529.3333333333333</ele><time>2026-04-30T07:26:39.999Z</time></trkpt><trkpt lat="37.43687090990625" lon="14.209719001709113"><ele>527.0</ele><time>2026-04-30T07:26:40.999Z</time></trkpt><trkpt lat="37.436945010651314" lon="14.20976528173931"><ele>527.0</ele><time>2026-04-30T07:26:41.999Z</time></trkpt><trkpt lat="37.43703318823812" lon="14.209800136853108"><ele>527.0</ele><time>2026-04-30T07:26:42.999Z</time></trkpt><trkpt lat="37.43712159899439" lon="14.209825324959368"><ele>527.0</ele><time>2026-04-30T07:26:43.999Z</time></trkpt><trkpt lat="37.43720333375381" lon="14.20985584859666"><ele>527.0</ele><time>2026-04-30T07:26:44.999Z</time></trkpt><trkpt lat="37.437285248547575" lon="14.209895586451248"><ele>527.0</ele><time>2026-04-30T07:26:45.999Z</time></trkpt><trkpt lat="37.437364821871796" lon="14.209942464920115"><ele>527.0</ele><time>2026-04-30T07:26:46.999Z</time></trkpt><trkpt lat="37.43744490960567" lon="14.209977845413265"><ele>522.8000000000001</ele><time>2026-04-30T07:26:47.999Z</time></trkpt><trkpt lat="37.43753148482616" lon="14.209990576060516"><ele>518.6</ele><time>2026-04-30T07:26:48.999Z</time></trkpt><trkpt lat="37.43761926336765" lon="14.2099683753288"><ele>514.4000000000001</ele><time>2026-04-30T07:26:49.999Z</time></trkpt><trkpt lat="37.437738890454355" lon="14.209979096100001"><ele>510.20000000000005</ele><time>2026-04-30T07:26:50.999Z</time></trkpt><trkpt lat="37.437845343775166" lon="14.209995218191393"><ele>506.0</ele><time>2026-04-30T07:26:51.999Z</time></trkpt><trkpt lat="37.4379350237947" lon="14.210014069039257"><ele>504.0</ele><time>2026-04-30T07:26:52.999Z</time></trkpt><trkpt lat="37.43803508970899" lon="14.210036402218876"><ele>502.0</ele><time>2026-04-30T07:26:53.999Z</time></trkpt><trkpt lat="37.43813532592874" lon="14.210045263345974"><ele>500.0</ele><time>2026-04-30T07:26:54.999Z</time></trkpt><trkpt lat="37.43822687372568" lon="14.210079283666326"><ele>498.0</ele><time>2026-04-30T07:26:55.999Z</time></trkpt><trkpt lat="37.438320477215335" lon="14.210119871519037"><ele>496.0</ele><time>2026-04-30T07:26:56.999Z</time></trkpt><trkpt lat="37.43841598372953" lon="14.210166965891633"><ele>496.00000000000006</ele><time>2026-04-30T07:26:57.999Z</time></trkpt><trkpt lat="37.43851116398067" lon="14.210204153024224"><ele>496.0</ele><time>2026-04-30T07:26:58.999Z</time></trkpt><trkpt lat="37.43860654895698" lon="14.210223925051043"><ele>496.0</ele><time>2026-04-30T07:26:59.999Z</time></trkpt><trkpt lat="37.43869388205528" lon="14.21022779865826"><ele>496.0</ele><time>2026-04-30T07:27:00.999Z</time></trkpt><trkpt lat="37.43876582113405" lon="14.210215679168147"><ele>496.00000000000006</ele><time>2026-04-30T07:27:01.999Z</time></trkpt><trkpt lat="37.438844067851434" lon="14.210210432871683"><ele>496.0</ele><time>2026-04-30T07:27:02.999Z</time></trkpt><trkpt lat="37.43892694413319" lon="14.21019172681641"><ele>494.50000000000006</ele><time>2026-04-30T07:27:03.999Z</time></trkpt><trkpt lat="37.439007965388484" lon="14.210180591818778"><ele>493.0</ele><time>2026-04-30T07:27:04.999Z</time></trkpt><trkpt lat="37.43909456367483" lon="14.210173305042481"><ele>491.5</ele><time>2026-04-30T07:27:05.999Z</time></trkpt><trkpt lat="37.439181249929526" lon="14.210168028097565"><ele>490.0</ele><time>2026-04-30T07:27:06.999Z</time></trkpt><trkpt lat="37.439271634011654" lon="14.210163936391124"><ele>488.50000000000006</ele><time>2026-04-30T07:27:07.999Z</time></trkpt><trkpt lat="37.439367331572264" lon="14.210185761176366"><ele>487.0</ele><time>2026-04-30T07:27:08.999Z</time></trkpt><trkpt lat="37.43946164588982" lon="14.210202225396634"><ele>487.0</ele><time>2026-04-30T07:27:09.999Z</time></trkpt><trkpt lat="37.43955553705486" lon="14.210221919886134"><ele>487.00000000000006</ele><time>2026-04-30T07:27:10.999Z</time></trkpt><trkpt lat="37.439647742423595" lon="14.210210831751352"><ele>487.00000000000006</ele><time>2026-04-30T07:27:11.999Z</time></trkpt><trkpt lat="37.43974493051862" lon="14.210212002522262"><ele>487.0</ele><time>2026-04-30T07:27:12.999Z</time></trkpt><trkpt lat="37.43982931932003" lon="14.210203092828417"><ele>487.0</ele><time>2026-04-30T07:27:13.999Z</time></trkpt><trkpt lat="37.4399109444233" lon="14.210182404142888"><ele>484.40000000000003</ele><time>2026-04-30T07:27:14.999Z</time></trkpt><trkpt lat="37.43999166792086" lon="14.210135166018388"><ele>481.80000000000007</ele><time>2026-04-30T07:27:15.999Z</time></trkpt><trkpt lat="37.440088798477255" lon="14.210085279457749"><ele>479.2</ele><time>2026-04-30T07:27:16.999Z</time></trkpt><trkpt lat="37.4401819522023" lon="14.210037694457105"><ele>476.6</ele><time>2026-04-30T07:27:17.999Z</time></trkpt><trkpt lat="37.44026655901431" lon="14.209995554523495"><ele>474.0</ele><time>2026-04-30T07:27:18.999Z</time></trkpt><trkpt lat="37.44034554185627" lon="14.209965137764549"><ele>473.99999999999994</ele><time>2026-04-30T07:27:19.999Z</time></trkpt><trkpt lat="37.44042155090951" lon="14.209919406956349"><ele>474.0</ele><time>2026-04-30T07:27:20.999Z</time></trkpt><trkpt lat="37.44049363125772" lon="14.209891333568038"><ele>473.99999999999994</ele><time>2026-04-30T07:27:21.999Z</time></trkpt><trkpt lat="37.44055424135532" lon="14.209868433681953"><ele>473.99999999999994</ele><time>2026-04-30T07:27:22.999Z</time></trkpt><trkpt lat="37.44063734571272" lon="14.209895401928842"><ele>474.0</ele><time>2026-04-30T07:27:24.999Z</time></trkpt><trkpt lat="37.44070841917422" lon="14.209917444125352"><ele>473.99999999999994</ele><time>2026-04-30T07:27:26.999Z</time></trkpt><trkpt lat="37.44076776685622" lon="14.209944577705445"><ele>473.99999999999994</ele><time>2026-04-30T07:27:28.999Z</time></trkpt><trkpt lat="37.4408984610998" lon="14.210011932335474"><ele>469.6</ele><time>2026-04-30T07:27:31.999Z</time></trkpt><trkpt lat="37.44096335307442" lon="14.209989216317068"><ele>465.2</ele><time>2026-04-30T07:27:32.999Z</time></trkpt><trkpt lat="37.440991392407696" lon="14.210068521098506"><ele>460.80000000000007</ele><time>2026-04-30T07:27:33.999Z</time></trkpt><trkpt lat="37.44105102911712" lon="14.21010389091993"><ele>456.40000000000003</ele><time>2026-04-30T07:27:34.999Z</time></trkpt><trkpt lat="37.44117718480711" lon="14.210097490303307"><ele>452.0</ele><time>2026-04-30T07:27:36.999Z</time></trkpt><trkpt lat="37.441286245073556" lon="14.210165208652679"><ele>449.6</ele><time>2026-04-30T07:27:38.999Z</time></trkpt><trkpt lat="37.441379529229316" lon="14.210243664763851"><ele>447.20000000000005</ele><time>2026-04-30T07:27:40.999Z</time></trkpt><trkpt lat="37.44146565978684" lon="14.210324692593499"><ele>444.8</ele><time>2026-04-30T07:27:42.999Z</time></trkpt><trkpt lat="37.441542982137676" lon="14.210421030533878"><ele>442.4</ele><time>2026-04-30T07:27:44.999Z</time></trkpt><trkpt lat="37.441607706968526" lon="14.210528721135422"><ele>440.0</ele><time>2026-04-30T07:27:46.999Z</time></trkpt><trkpt lat="37.4416516283184" lon="14.21065355053934"><ele>439.2</ele><time>2026-04-30T07:27:48.999Z</time></trkpt><trkpt lat="37.44172734925508" lon="14.210751782231899"><ele>438.4</ele><time>2026-04-30T07:27:50.999Z</time></trkpt><trkpt lat="37.441777561458494" lon="14.21087078628852"><ele>437.6</ele><time>2026-04-30T07:27:52.999Z</time></trkpt><trkpt lat="37.44183093426262" lon="14.21095830965506"><ele>436.8</ele><time>2026-04-30T07:27:54.999Z</time></trkpt><trkpt lat="37.44190694570861" lon="14.210862085825378"><ele>436.0</ele><time>2026-04-30T07:27:58.999Z</time></trkpt><trkpt lat="37.44192378431893" lon="14.210765960081968"><ele>436.6666666666667</ele><time>2026-04-30T07:28:00.999Z</time></trkpt><trkpt lat="37.44193806787923" lon="14.210650371429647"><ele>437.33333333333337</ele><time>2026-04-30T07:28:03.999Z</time></trkpt><trkpt lat="37.44194437048594" lon="14.210554938982495"><ele>438.0</ele><time>2026-04-30T07:28:05.999Z</time></trkpt><trkpt lat="37.44195380270669" lon="14.210435381390127"><ele>438.66666666666663</ele><time>2026-04-30T07:28:07.999Z</time></trkpt><trkpt lat="37.441961119368486" lon="14.210354508647704"><ele>439.3333333333333</ele><time>2026-04-30T07:28:08.999Z</time></trkpt><trkpt lat="37.441968905089546" lon="14.210273141285233"><ele>440.0</ele><time>2026-04-30T07:28:09.999Z</time></trkpt><trkpt lat="37.44197099729413" lon="14.210189245217226"><ele>439.99999999999994</ele><time>2026-04-30T07:28:10.999Z</time></trkpt><trkpt lat="37.44197059453455" lon="14.210107426654117"><ele>440.0</ele><time>2026-04-30T07:28:11.999Z</time></trkpt><trkpt lat="37.44198540276856" lon="14.210016646567965"><ele>440.0</ele><time>2026-04-30T07:28:12.999Z</time></trkpt><trkpt lat="37.44196469204452" lon="14.209918589391892"><ele>440.0</ele><time>2026-04-30T07:28:13.999Z</time></trkpt><trkpt lat="37.4419606711189" lon="14.209811820306157"><ele>439.99999999999994</ele><time>2026-04-30T07:28:14.999Z</time></trkpt><trkpt lat="37.44194349587543" lon="14.209712219014904"><ele>440.0</ele><time>2026-04-30T07:28:15.999Z</time></trkpt><trkpt lat="37.44192305825338" lon="14.209613590403846"><ele>439.4</ele><time>2026-04-30T07:28:16.999Z</time></trkpt><trkpt lat="37.4419022883091" lon="14.209499953451994"><ele>438.8</ele><time>2026-04-30T07:28:17.999Z</time></trkpt><trkpt lat="37.44187295206017" lon="14.209376443415337"><ele>438.20000000000005</ele><time>2026-04-30T07:28:18.999Z</time></trkpt><trkpt lat="37.441859395983805" lon="14.209249320054708"><ele>437.6</ele><time>2026-04-30T07:28:19.999Z</time></trkpt><trkpt lat="37.44181848088475" lon="14.209142934587854"><ele>437.0</ele><time>2026-04-30T07:28:20.999Z</time></trkpt><trkpt lat="37.44180374083252" lon="14.209060149201806"><ele>436.49999999999994</ele><time>2026-04-30T07:28:21.999Z</time></trkpt><trkpt lat="37.441782796738615" lon="14.208917892734684"><ele>436.0</ele><time>2026-04-30T07:28:23.999Z</time></trkpt><trkpt lat="37.44176014510267" lon="14.208832940683692"><ele>435.5</ele><time>2026-04-30T07:28:24.999Z</time></trkpt><trkpt lat="37.441743891856916" lon="14.208754892392509"><ele>435.0</ele><time>2026-04-30T07:28:25.999Z</time></trkpt><trkpt lat="37.441722361973554" lon="14.208674255933301"><ele>434.49999999999994</ele><time>2026-04-30T07:28:26.999Z</time></trkpt><trkpt lat="37.44169558787432" lon="14.20858014511756"><ele>434.0</ele><time>2026-04-30T07:28:27.999Z</time></trkpt><trkpt lat="37.44166064592724" lon="14.208478291739702"><ele>433.99999999999994</ele><time>2026-04-30T07:28:28.999Z</time></trkpt><trkpt lat="37.44164678560382" lon="14.208364862808791"><ele>434.0</ele><time>2026-04-30T07:28:29.999Z</time></trkpt><trkpt lat="37.44162953126837" lon="14.208257642875516"><ele>434.0</ele><time>2026-04-30T07:28:30.999Z</time></trkpt><trkpt lat="37.44160783660241" lon="14.208161564461122"><ele>434.0</ele><time>2026-04-30T07:28:31.999Z</time></trkpt><trkpt lat="37.4415876914325" lon="14.208069991472641"><ele>433.99999999999994</ele><time>2026-04-30T07:28:32.999Z</time></trkpt><trkpt lat="37.441595114736934" lon="14.20798402791871"><ele>434.0</ele><time>2026-04-30T07:28:33.999Z</time></trkpt><trkpt lat="37.441588778183025" lon="14.207903814355394"><ele>433.66666666666663</ele><time>2026-04-30T07:28:34.999Z</time></trkpt><trkpt lat="37.44156438751239" lon="14.207751300716579"><ele>433.3333333333333</ele><time>2026-04-30T07:28:36.999Z</time></trkpt><trkpt lat="37.4415664073335" lon="14.207664624643671"><ele>433.0</ele><time>2026-04-30T07:28:37.999Z</time></trkpt><trkpt lat="37.44155510808754" lon="14.20757327066159"><ele>432.66666666666663</ele><time>2026-04-30T07:28:38.999Z</time></trkpt><trkpt lat="37.44153706687539" lon="14.207485291227165"><ele>432.3333333333333</ele><time>2026-04-30T07:28:39.999Z</time></trkpt><trkpt lat="37.44153569201516" lon="14.207397648413485"><ele>432.0</ele><time>2026-04-30T07:28:40.999Z</time></trkpt><trkpt lat="37.44152018120294" lon="14.207315816964089"><ele>431.6666666666667</ele><time>2026-04-30T07:28:41.999Z</time></trkpt><trkpt lat="37.44150173070437" lon="14.207237167576446"><ele>431.33333333333337</ele><time>2026-04-30T07:28:42.999Z</time></trkpt><trkpt lat="37.44147658783812" lon="14.207152153574073"><ele>431.0</ele><time>2026-04-30T07:28:43.999Z</time></trkpt><trkpt lat="37.441441663052224" lon="14.20706695296985"><ele>430.6666666666667</ele><time>2026-04-30T07:28:44.999Z</time></trkpt><trkpt lat="37.44137455478696" lon="14.207012897887541"><ele>430.33333333333337</ele><time>2026-04-30T07:28:45.999Z</time></trkpt><trkpt lat="37.441344260053526" lon="14.20694254561473"><ele>430.0</ele><time>2026-04-30T07:28:46.999Z</time></trkpt><trkpt lat="37.44132130909777" lon="14.206774238736031"><ele>430.0</ele><time>2026-04-30T07:28:48.999Z</time></trkpt><trkpt lat="37.441304078378835" lon="14.206672562461417"><ele>430.0</ele><time>2026-04-30T07:28:49.999Z</time></trkpt><trkpt lat="37.44127800688806" lon="14.206583893729377"><ele>430.0</ele><time>2026-04-30T07:28:50.999Z</time></trkpt><trkpt lat="37.44125825885197" lon="14.20650577793704"><ele>430.0</ele><time>2026-04-30T07:28:51.999Z</time></trkpt><trkpt lat="37.441276570574225" lon="14.206380723953103"><ele>430.0</ele><time>2026-04-30T07:28:53.999Z</time></trkpt><trkpt lat="37.44137973163977" lon="14.20627827257092"><ele>429.83333333333337</ele><time>2026-04-30T07:28:55.999Z</time></trkpt><trkpt lat="37.4414439836394" lon="14.206223361674482"><ele>429.6666666666667</ele><time>2026-04-30T07:28:56.999Z</time></trkpt><trkpt lat="37.441507621622804" lon="14.206165610021221"><ele>429.5</ele><time>2026-04-30T07:28:57.999Z</time></trkpt><trkpt lat="37.441569091643906" lon="14.206098621015206"><ele>429.33333333333337</ele><time>2026-04-30T07:28:58.999Z</time></trkpt><trkpt lat="37.44162402736604" lon="14.206025349708778"><ele>429.1666666666667</ele><time>2026-04-30T07:28:59.999Z</time></trkpt><trkpt lat="37.44167095956605" lon="14.20594887530724"><ele>429.0</ele><time>2026-04-30T07:29:00.999Z</time></trkpt><trkpt lat="37.44171246440805" lon="14.205869721196231"><ele>429.0</ele><time>2026-04-30T07:29:01.999Z</time></trkpt><trkpt lat="37.44175229968088" lon="14.205791069555492"><ele>429.0</ele><time>2026-04-30T07:29:02.999Z</time></trkpt><trkpt lat="37.44178157919119" lon="14.205710153403086"><ele>429.0</ele><time>2026-04-30T07:29:03.999Z</time></trkpt><trkpt lat="37.44180593329576" lon="14.205623353317632"><ele>429.0</ele><time>2026-04-30T07:29:04.999Z</time></trkpt><trkpt lat="37.44182880219235" lon="14.205526498950613"><ele>429.0</ele><time>2026-04-30T07:29:05.999Z</time></trkpt><trkpt lat="37.44187083773105" lon="14.205429124219236"><ele>429.0</ele><time>2026-04-30T07:29:06.999Z</time></trkpt><trkpt lat="37.441884552844385" lon="14.205312909507015"><ele>428.6</ele><time>2026-04-30T07:29:07.999Z</time></trkpt><trkpt lat="37.44193351986082" lon="14.20521128028093"><ele>428.2</ele><time>2026-04-30T07:29:08.999Z</time></trkpt><trkpt lat="37.441969481411775" lon="14.205094706894796"><ele>427.80000000000007</ele><time>2026-04-30T07:29:09.999Z</time></trkpt><trkpt lat="37.44200215150053" lon="14.204980650833708"><ele>427.40000000000003</ele><time>2026-04-30T07:29:10.999Z</time></trkpt><trkpt lat="37.44201758753266" lon="14.204867883776219"><ele>427.0</ele><time>2026-04-30T07:29:11.999Z</time></trkpt><trkpt lat="37.442045486540216" lon="14.204765378948379"><ele>427.83333333333337</ele><time>2026-04-30T07:29:12.999Z</time></trkpt><trkpt lat="37.442061851645924" lon="14.20465841759557"><ele>428.6666666666667</ele><time>2026-04-30T07:29:13.999Z</time></trkpt><trkpt lat="37.44207074084591" lon="14.20453756865491"><ele>429.5</ele><time>2026-04-30T07:29:14.999Z</time></trkpt><trkpt lat="37.44209297981045" lon="14.204423595389065"><ele>430.33333333333337</ele><time>2026-04-30T07:29:15.999Z</time></trkpt><trkpt lat="37.44208711193077" lon="14.204318177046552"><ele>431.1666666666667</ele><time>2026-04-30T07:29:16.999Z</time></trkpt><trkpt lat="37.44209558002267" lon="14.204215989994179"><ele>432.0</ele><time>2026-04-30T07:29:17.999Z</time></trkpt><trkpt lat="37.44210295831333" lon="14.204121563395617"><ele>432.0</ele><time>2026-04-30T07:29:18.999Z</time></trkpt><trkpt lat="37.44211871382094" lon="14.204023265827576"><ele>432.00000000000006</ele><time>2026-04-30T07:29:19.999Z</time></trkpt><trkpt lat="37.44212398716466" lon="14.203936911681398"><ele>432.00000000000006</ele><time>2026-04-30T07:29:20.999Z</time></trkpt><trkpt lat="37.442118182092365" lon="14.203747665307317"><ele>432.0</ele><time>2026-04-30T07:29:22.999Z</time></trkpt><trkpt lat="37.442124621683035" lon="14.203631564767749"><ele>432.0</ele><time>2026-04-30T07:29:23.999Z</time></trkpt><trkpt lat="37.44212676294509" lon="14.203526463557807"><ele>431.6</ele><time>2026-04-30T07:29:24.999Z</time></trkpt><trkpt lat="37.44212867901622" lon="14.203431643930548"><ele>431.20000000000005</ele><time>2026-04-30T07:29:25.999Z</time></trkpt><trkpt lat="37.442129342400605" lon="14.203334115016062"><ele>430.8</ele><time>2026-04-30T07:29:27.999Z</time></trkpt><trkpt lat="37.442138360595685" lon="14.20324778720192"><ele>430.4</ele><time>2026-04-30T07:29:29.999Z</time></trkpt><trkpt lat="37.44212822984904" lon="14.203108758648229"><ele>430.0</ele><time>2026-04-30T07:29:31.999Z</time></trkpt><trkpt lat="37.44212914264093" lon="14.202931402624472"><ele>429.83333333333337</ele><time>2026-04-30T07:29:33.999Z</time></trkpt><trkpt lat="37.442128287950325" lon="14.202821257037161"><ele>429.6666666666667</ele><time>2026-04-30T07:29:34.999Z</time></trkpt><trkpt lat="37.44212032288216" lon="14.2027381825735"><ele>429.5</ele><time>2026-04-30T07:29:35.999Z</time></trkpt><trkpt lat="37.44211140263285" lon="14.202576422414683"><ele>429.33333333333337</ele><time>2026-04-30T07:29:37.999Z</time></trkpt><trkpt lat="37.44211027045757" lon="14.202491406810108"><ele>429.1666666666667</ele><time>2026-04-30T07:29:38.999Z</time></trkpt><trkpt lat="37.44210911126286" lon="14.202409551946088"><ele>429.0</ele><time>2026-04-30T07:29:39.999Z</time></trkpt><trkpt lat="37.44210978740777" lon="14.202315742723375"><ele>428.6666666666667</ele><time>2026-04-30T07:29:40.999Z</time></trkpt><trkpt lat="37.4421096158689" lon="14.202210083608316"><ele>428.33333333333337</ele><time>2026-04-30T07:29:41.999Z</time></trkpt><trkpt lat="37.44211196363855" lon="14.202089258280074"><ele>428.0</ele><time>2026-04-30T07:29:42.999Z</time></trkpt><trkpt lat="37.44211390996678" lon="14.201981592825927"><ele>427.6666666666667</ele><time>2026-04-30T07:29:43.999Z</time></trkpt><trkpt lat="37.44211191949254" lon="14.20188795000627"><ele>427.33333333333337</ele><time>2026-04-30T07:29:44.999Z</time></trkpt><trkpt lat="37.442126131680375" lon="14.20180892055599"><ele>427.0</ele><time>2026-04-30T07:29:45.999Z</time></trkpt><trkpt lat="37.44212299614105" lon="14.201704754124853"><ele>427.00000000000006</ele><time>2026-04-30T07:29:46.999Z</time></trkpt><trkpt lat="37.442116860318976" lon="14.2015831472188"><ele>427.0</ele><time>2026-04-30T07:29:47.999Z</time></trkpt><trkpt lat="37.442110770733954" lon="14.201477034660204"><ele>427.0</ele><time>2026-04-30T07:29:48.999Z</time></trkpt><trkpt lat="37.44210461184823" lon="14.201382553173042"><ele>427.0</ele><time>2026-04-30T07:29:49.999Z</time></trkpt><trkpt lat="37.44209902609653" lon="14.201288567568195"><ele>427.00000000000006</ele><time>2026-04-30T07:29:50.999Z</time></trkpt><trkpt lat="37.44210827991347" lon="14.201193377321209"><ele>427.0</ele><time>2026-04-30T07:29:51.999Z</time></trkpt><trkpt lat="37.44214180607922" lon="14.2011217652859"><ele>424.40000000000003</ele><time>2026-04-30T07:29:52.999Z</time></trkpt><trkpt lat="37.442167903747496" lon="14.200978521882304"><ele>421.80000000000007</ele><time>2026-04-30T07:29:54.999Z</time></trkpt><trkpt lat="37.442220849280076" lon="14.200818412605301"><ele>419.2</ele><time>2026-04-30T07:29:56.999Z</time></trkpt><trkpt lat="37.44223674646378" lon="14.20072517242359"><ele>416.6</ele><time>2026-04-30T07:29:57.999Z</time></trkpt><trkpt lat="37.442249668049605" lon="14.200634205172175"><ele>414.0</ele><time>2026-04-30T07:29:58.999Z</time></trkpt><trkpt lat="37.44225651058201" lon="14.200546226208548"><ele>414.0</ele><time>2026-04-30T07:29:59.999Z</time></trkpt><trkpt lat="37.442264011582274" lon="14.2004607217218"><ele>414.0</ele><time>2026-04-30T07:30:00.999Z</time></trkpt><trkpt lat="37.44225797246469" lon="14.200362149134417"><ele>414.0</ele><time>2026-04-30T07:30:01.999Z</time></trkpt><trkpt lat="37.44227549222062" lon="14.20026441557992"><ele>414.0</ele><time>2026-04-30T07:30:02.999Z</time></trkpt><trkpt lat="37.44229547576021" lon="14.200162773404218"><ele>414.0</ele><time>2026-04-30T07:30:03.999Z</time></trkpt><trkpt lat="37.44232235624612" lon="14.20006962468663"><ele>414.0</ele><time>2026-04-30T07:30:04.999Z</time></trkpt><trkpt lat="37.4423453844303" lon="14.199974433301447"><ele>414.0</ele><time>2026-04-30T07:30:05.999Z</time></trkpt><trkpt lat="37.44236390821902" lon="14.199879038536341"><ele>414.0</ele><time>2026-04-30T07:30:06.999Z</time></trkpt><trkpt lat="37.44238403231532" lon="14.199775026375871"><ele>414.0</ele><time>2026-04-30T07:30:07.999Z</time></trkpt><trkpt lat="37.442403963380606" lon="14.199668926694805"><ele>414.0</ele><time>2026-04-30T07:30:08.999Z</time></trkpt><trkpt lat="37.4424226998877" lon="14.199554480010471"><ele>414.0</ele><time>2026-04-30T07:30:09.999Z</time></trkpt><trkpt lat="37.442440578369975" lon="14.19943417210752"><ele>414.0</ele><time>2026-04-30T07:30:10.999Z</time></trkpt><trkpt lat="37.44246049954276" lon="14.19932539562579"><ele>414.1666666666667</ele><time>2026-04-30T07:30:11.999Z</time></trkpt><trkpt lat="37.44249026319318" lon="14.199229451420653"><ele>414.33333333333337</ele><time>2026-04-30T07:30:12.999Z</time></trkpt><trkpt lat="37.44252736259487" lon="14.199137714372213"><ele>414.5</ele><time>2026-04-30T07:30:13.999Z</time></trkpt><trkpt lat="37.442563140995354" lon="14.199040057883808"><ele>414.6666666666667</ele><time>2026-04-30T07:30:14.999Z</time></trkpt><trkpt lat="37.44260546628371" lon="14.198941175803686"><ele>414.83333333333337</ele><time>2026-04-30T07:30:15.999Z</time></trkpt><trkpt lat="37.44263447763316" lon="14.198847905494798"><ele>415.0</ele><time>2026-04-30T07:30:16.999Z</time></trkpt><trkpt lat="37.44264219946729" lon="14.198756377898357"><ele>415.00000000000006</ele><time>2026-04-30T07:30:17.999Z</time></trkpt><trkpt lat="37.44263409935038" lon="14.198658973623594"><ele>415.0</ele><time>2026-04-30T07:30:18.999Z</time></trkpt><trkpt lat="37.44263116556606" lon="14.198560076404448"><ele>415.0</ele><time>2026-04-30T07:30:19.999Z</time></trkpt><trkpt lat="37.442605870469876" lon="14.198444314842197"><ele>415.0</ele><time>2026-04-30T07:30:21.999Z</time></trkpt><trkpt lat="37.44259053957951" lon="14.198311706868203"><ele>415.00000000000006</ele><time>2026-04-30T07:30:23.999Z</time></trkpt><trkpt lat="37.44256734540611" lon="14.198212401564522"><ele>415.0</ele><time>2026-04-30T07:30:24.999Z</time></trkpt><trkpt lat="37.442536788289345" lon="14.198120329025885"><ele>414.50000000000006</ele><time>2026-04-30T07:30:25.999Z</time></trkpt><trkpt lat="37.44249798471503" lon="14.198040207085578"><ele>414.0</ele><time>2026-04-30T07:30:26.999Z</time></trkpt><trkpt lat="37.44246853137962" lon="14.19796707783014"><ele>413.5</ele><time>2026-04-30T07:30:27.999Z</time></trkpt><trkpt lat="37.44244740471579" lon="14.197891536063374"><ele>413.0</ele><time>2026-04-30T07:30:28.999Z</time></trkpt><trkpt lat="37.44243009965419" lon="14.197815224735905"><ele>412.50000000000006</ele><time>2026-04-30T07:30:29.999Z</time></trkpt><trkpt lat="37.44243182327859" lon="14.197673008754233"><ele>412.0</ele><time>2026-04-30T07:30:31.999Z</time></trkpt><trkpt lat="37.44245216975072" lon="14.19757915840842"><ele>412.00000000000006</ele><time>2026-04-30T07:30:33.999Z</time></trkpt><trkpt lat="37.44246565064804" lon="14.197497626809657"><ele>412.0</ele><time>2026-04-30T07:30:36Z</time></trkpt><trkpt lat="37.44246721857404" lon="14.197379408880424"><ele>412.0</ele><time>2026-04-30T07:30:38Z</time></trkpt><trkpt lat="37.44246697366291" lon="14.197276215425063"><ele>412.0</ele><time>2026-04-30T07:30:40Z</time></trkpt><trkpt lat="37.44245323598462" lon="14.197116119964207"><ele>412.00000000000006</ele><time>2026-04-30T07:30:42Z</time></trkpt><trkpt lat="37.442453995162055" lon="14.197024711275905"><ele>412.0</ele><time>2026-04-30T07:30:43Z</time></trkpt><trkpt lat="37.44245014929369" lon="14.19694212942466"><ele>411.83333333333337</ele><time>2026-04-30T07:30:44Z</time></trkpt><trkpt lat="37.44245026319695" lon="14.196861426778696"><ele>411.6666666666667</ele><time>2026-04-30T07:30:45Z</time></trkpt><trkpt lat="37.442438040639786" lon="14.196781397432947"><ele>411.5</ele><time>2026-04-30T07:30:47Z</time></trkpt><trkpt lat="37.442413369510014" lon="14.19666408339806"><ele>411.33333333333337</ele><time>2026-04-30T07:30:58.999Z</time></trkpt><trkpt lat="37.442388334803134" lon="14.196576200413523"><ele>411.1666666666667</ele><time>2026-04-30T07:30:59.999Z</time></trkpt><trkpt lat="37.44236317555668" lon="14.196475305013806"><ele>411.0</ele><time>2026-04-30T07:31:00.999Z</time></trkpt><trkpt lat="37.442341388124724" lon="14.196372073388012"><ele>410.5</ele><time>2026-04-30T07:31:01.999Z</time></trkpt><trkpt lat="37.44232335508757" lon="14.196277414237063"><ele>410.0</ele><time>2026-04-30T07:31:02.999Z</time></trkpt><trkpt lat="37.442303575535895" lon="14.196172947590108"><ele>409.5</ele><time>2026-04-30T07:31:03.999Z</time></trkpt><trkpt lat="37.44229269259695" lon="14.196065424822851"><ele>409.0</ele><time>2026-04-30T07:31:04.999Z</time></trkpt><trkpt lat="37.442292040434495" lon="14.195961626957505"><ele>408.5</ele><time>2026-04-30T07:31:05.999Z</time></trkpt><trkpt lat="37.44228794116865" lon="14.195860842870845"><ele>408.0</ele><time>2026-04-30T07:31:06.999Z</time></trkpt><trkpt lat="37.442269097003944" lon="14.19578112675269"><ele>408.0</ele><time>2026-04-30T07:31:07.999Z</time></trkpt><trkpt lat="37.44223204554699" lon="14.195702327934253"><ele>408.0</ele><time>2026-04-30T07:31:08.999Z</time></trkpt><trkpt lat="37.44218264573213" lon="14.195635537412107"><ele>408.0</ele><time>2026-04-30T07:31:09.999Z</time></trkpt><trkpt lat="37.44215573645638" lon="14.195515402548219"><ele>408.0</ele><time>2026-04-30T07:31:11.999Z</time></trkpt><trkpt lat="37.44220937707604" lon="14.195381305829976"><ele>408.0</ele><time>2026-04-30T07:31:13.999Z</time></trkpt><trkpt lat="37.44224227465667" lon="14.195288991652284"><ele>408.0</ele><time>2026-04-30T07:31:14.999Z</time></trkpt><trkpt lat="37.44226480985522" lon="14.195201028520138"><ele>408.14285714285717</ele><time>2026-04-30T07:31:15.999Z</time></trkpt><trkpt lat="37.4422796359651" lon="14.195110858711578"><ele>408.28571428571433</ele><time>2026-04-30T07:31:16.999Z</time></trkpt><trkpt lat="37.4422883375144" lon="14.195005581957112"><ele>408.42857142857144</ele><time>2026-04-30T07:31:17.999Z</time></trkpt><trkpt lat="37.442294251434355" lon="14.194907767469463"><ele>408.57142857142856</ele><time>2026-04-30T07:31:18.999Z</time></trkpt><trkpt lat="37.44230438514704" lon="14.194815278863825"><ele>408.7142857142857</ele><time>2026-04-30T07:31:19.999Z</time></trkpt><trkpt lat="37.442311407450696" lon="14.194728867773271"><ele>408.85714285714283</ele><time>2026-04-30T07:31:20.999Z</time></trkpt><trkpt lat="37.44229944419975" lon="14.19464299554964"><ele>409.0</ele><time>2026-04-30T07:31:21.999Z</time></trkpt><trkpt lat="37.44228014400042" lon="14.194558255301311"><ele>408.6</ele><time>2026-04-30T07:31:22.999Z</time></trkpt><trkpt lat="37.442250481416885" lon="14.194459641338893"><ele>408.2</ele><time>2026-04-30T07:31:23.999Z</time></trkpt><trkpt lat="37.442227223066574" lon="14.194349495721942"><ele>407.8</ele><time>2026-04-30T07:31:24.999Z</time></trkpt><trkpt lat="37.44221705508253" lon="14.194227907753543"><ele>407.40000000000003</ele><time>2026-04-30T07:31:25.999Z</time></trkpt><trkpt lat="37.44220264925181" lon="14.19409576902385"><ele>407.0</ele><time>2026-04-30T07:31:26.999Z</time></trkpt><trkpt lat="37.44217879395932" lon="14.193953922835089"><ele>406.5</ele><time>2026-04-30T07:31:27.999Z</time></trkpt><trkpt lat="37.44215000322318" lon="14.193805437451411"><ele>406.0</ele><time>2026-04-30T07:31:28.999Z</time></trkpt><trkpt lat="37.44211999755241" lon="14.193654514740913"><ele>405.5</ele><time>2026-04-30T07:31:29.999Z</time></trkpt><trkpt lat="37.442091653733506" lon="14.19351004857405"><ele>405.0</ele><time>2026-04-30T07:31:30.999Z</time></trkpt><trkpt lat="37.442064417787954" lon="14.193362976491514"><ele>406.0</ele><time>2026-04-30T07:31:31.999Z</time></trkpt><trkpt lat="37.44204105340549" lon="14.193215979469885"><ele>407.0</ele><time>2026-04-30T07:31:32.999Z</time></trkpt><trkpt lat="37.442014205932765" lon="14.193064856772793"><ele>408.0</ele><time>2026-04-30T07:31:33.999Z</time></trkpt><trkpt lat="37.441985555451986" lon="14.192911273229342"><ele>409.0</ele><time>2026-04-30T07:31:34.999Z</time></trkpt><trkpt lat="37.44195583176883" lon="14.192763334268776"><ele>409.0</ele><time>2026-04-30T07:31:35.999Z</time></trkpt><trkpt lat="37.44192925755864" lon="14.192625954888944"><ele>409.0</ele><time>2026-04-30T07:31:36.999Z</time></trkpt><trkpt lat="37.441901094577375" lon="14.192483436905112"><ele>409.0</ele><time>2026-04-30T07:31:37.999Z</time></trkpt><trkpt lat="37.44186586948261" lon="14.192327960137677"><ele>409.0</ele><time>2026-04-30T07:31:38.999Z</time></trkpt><trkpt lat="37.441829119038125" lon="14.192182859463113"><ele>408.79999999999995</ele><time>2026-04-30T07:31:39.999Z</time></trkpt><trkpt lat="37.44178482212672" lon="14.192043780552462"><ele>408.59999999999997</ele><time>2026-04-30T07:31:40.999Z</time></trkpt><trkpt lat="37.44172895439406" lon="14.191888915498469"><ele>408.4</ele><time>2026-04-30T07:31:41.999Z</time></trkpt><trkpt lat="37.441677889951386" lon="14.191752649232576"><ele>408.2</ele><time>2026-04-30T07:31:42.999Z</time></trkpt><trkpt lat="37.44164856534166" lon="14.191680463187017"><ele>408.0</ele><time>2026-04-30T07:31:43.999Z</time></trkpt><trkpt lat="37.441672942148614" lon="14.191600862643044"><ele>408.0</ele><time>2026-04-30T07:31:46.999Z</time></trkpt><trkpt lat="37.441715608273356" lon="14.191537356327794"><ele>408.0</ele><time>2026-04-30T07:31:48.999Z</time></trkpt><trkpt lat="37.44177277362226" lon="14.191481075290197"><ele>408.0</ele><time>2026-04-30T07:31:50.999Z</time></trkpt><trkpt lat="37.44184770901744" lon="14.191459533922483"><ele>408.0</ele><time>2026-04-30T07:31:52.999Z</time></trkpt><trkpt lat="37.44193091979356" lon="14.191394017118443"><ele>408.0</ele><time>2026-04-30T07:31:54.999Z</time></trkpt><trkpt lat="37.44197588176481" lon="14.191321503435788"><ele>408.0</ele><time>2026-04-30T07:31:56.999Z</time></trkpt><trkpt lat="37.44202678427057" lon="14.191243710870705"><ele>407.79999999999995</ele><time>2026-04-30T07:31:58.999Z</time></trkpt><trkpt lat="37.442081318198255" lon="14.19114362749364"><ele>407.6</ele><time>2026-04-30T07:32:00.999Z</time></trkpt><trkpt lat="37.442139765235254" lon="14.191010446210129"><ele>407.4</ele><time>2026-04-30T07:32:02.999Z</time></trkpt><trkpt lat="37.44217230597551" lon="14.19090605304039"><ele>407.20000000000005</ele><time>2026-04-30T07:32:04.999Z</time></trkpt><trkpt lat="37.44219275012839" lon="14.190795258941595"><ele>407.0</ele><time>2026-04-30T07:32:06.999Z</time></trkpt><trkpt lat="37.442217229227545" lon="14.19066745398967"><ele>407.8</ele><time>2026-04-30T07:32:08.999Z</time></trkpt><trkpt lat="37.442243018873185" lon="14.190534333054998"><ele>408.6</ele><time>2026-04-30T07:32:10.999Z</time></trkpt><trkpt lat="37.442257098122695" lon="14.190410209837662"><ele>409.40000000000003</ele><time>2026-04-30T07:32:12.999Z</time></trkpt><trkpt lat="37.44230166729989" lon="14.190269201479156"><ele>410.20000000000005</ele><time>2026-04-30T07:32:14.999Z</time></trkpt><trkpt lat="37.44231832512732" lon="14.190185119464324"><ele>411.0</ele><time>2026-04-30T07:32:15.999Z</time></trkpt><trkpt lat="37.44233940519176" lon="14.190095773311837"><ele>411.0</ele><time>2026-04-30T07:32:16.999Z</time></trkpt><trkpt lat="37.44236375370391" lon="14.19000973694095"><ele>411.0</ele><time>2026-04-30T07:32:17.999Z</time></trkpt><trkpt lat="37.44239214364667" lon="14.189920895223937"><ele>411.0</ele><time>2026-04-30T07:32:18.999Z</time></trkpt><trkpt lat="37.44242465626479" lon="14.189836264221851"><ele>411.0</ele><time>2026-04-30T07:32:19.999Z</time></trkpt><trkpt lat="37.442461511631834" lon="14.189747514198404"><ele>411.0</ele><time>2026-04-30T07:32:20.999Z</time></trkpt><trkpt lat="37.44249864108659" lon="14.189661460633713"><ele>411.0</ele><time>2026-04-30T07:32:21.999Z</time></trkpt><trkpt lat="37.44253638312744" lon="14.189577743311222"><ele>412.4</ele><time>2026-04-30T07:32:22.999Z</time></trkpt><trkpt lat="37.442573200326855" lon="14.189501144268634"><ele>413.8</ele><time>2026-04-30T07:32:23.999Z</time></trkpt><trkpt lat="37.4426052987719" lon="14.189428145251382"><ele>415.2</ele><time>2026-04-30T07:32:24.999Z</time></trkpt><trkpt lat="37.44267020906657" lon="14.189281700194686"><ele>416.59999999999997</ele><time>2026-04-30T07:32:26.999Z</time></trkpt><trkpt lat="37.44270294419498" lon="14.189201135372507"><ele>418.0</ele><time>2026-04-30T07:32:27.999Z</time></trkpt><trkpt lat="37.442754126119766" lon="14.18905121344783"><ele>419.4</ele><time>2026-04-30T07:32:29.999Z</time></trkpt><trkpt lat="37.442778073238905" lon="14.188975797845126"><ele>420.79999999999995</ele><time>2026-04-30T07:32:30.999Z</time></trkpt><trkpt lat="37.44281702671691" lon="14.188850126968443"><ele>422.2</ele><time>2026-04-30T07:32:32.999Z</time></trkpt><trkpt lat="37.442880192017" lon="14.188771171151803"><ele>423.6</ele><time>2026-04-30T07:32:34.999Z</time></trkpt><trkpt lat="37.442974313743896" lon="14.188711149795136"><ele>425.0</ele><time>2026-04-30T07:32:36.999Z</time></trkpt><trkpt lat="37.44306740399421" lon="14.188645002572372"><ele>421.6</ele><time>2026-04-30T07:32:38.999Z</time></trkpt><trkpt lat="37.44315786947329" lon="14.188570411859564"><ele>418.2</ele><time>2026-04-30T07:32:40.999Z</time></trkpt><trkpt lat="37.44323962066661" lon="14.18848772238447"><ele>414.79999999999995</ele><time>2026-04-30T07:32:42.999Z</time></trkpt><trkpt lat="37.44331093755729" lon="14.188395454169752"><ele>411.4</ele><time>2026-04-30T07:32:44.999Z</time></trkpt><trkpt lat="37.44336376623543" lon="14.188315177983078"><ele>408.0</ele><time>2026-04-30T07:32:46.999Z</time></trkpt><trkpt lat="37.44340275228166" lon="14.188243321609503"><ele>408.3333333333333</ele><time>2026-04-30T07:32:48.999Z</time></trkpt><trkpt lat="37.44343669126758" lon="14.188176151444942"><ele>408.66666666666663</ele><time>2026-04-30T07:32:50.999Z</time></trkpt><trkpt lat="37.44348815406631" lon="14.188097277976633"><ele>409.0</ele><time>2026-04-30T07:32:52.999Z</time></trkpt><trkpt lat="37.44352018325326" lon="14.188025690240561"><ele>409.3333333333333</ele><time>2026-04-30T07:32:54.999Z</time></trkpt><trkpt lat="37.44355454278528" lon="14.187913735324177"><ele>409.66666666666663</ele><time>2026-04-30T07:32:56.999Z</time></trkpt><trkpt lat="37.443614761667675" lon="14.187783200435058"><ele>410.0</ele><time>2026-04-30T07:32:58.999Z</time></trkpt><trkpt lat="37.443659390115464" lon="14.187644779018111"><ele>410.0</ele><time>2026-04-30T07:33:00.999Z</time></trkpt><trkpt lat="37.443693915902756" lon="14.187506230245443"><ele>410.0</ele><time>2026-04-30T07:33:02.999Z</time></trkpt><trkpt lat="37.44371695871377" lon="14.187394553855883"><ele>410.0</ele><time>2026-04-30T07:33:04.999Z</time></trkpt><trkpt lat="37.44373373497534" lon="14.187298181518633"><ele>410.0</ele><time>2026-04-30T07:33:07.999Z</time></trkpt><trkpt lat="37.44378259976814" lon="14.187178945821488"><ele>410.0</ele><time>2026-04-30T07:33:09.999Z</time></trkpt><trkpt lat="37.443856047942745" lon="14.187106371144818"><ele>406.8333333333333</ele><time>2026-04-30T07:33:11.999Z</time></trkpt><trkpt lat="37.44391121910725" lon="14.187060315059108"><ele>403.66666666666663</ele><time>2026-04-30T07:33:13.999Z</time></trkpt><trkpt lat="37.44396556073802" lon="14.18701297029216"><ele>400.5</ele><time>2026-04-30T07:33:16.999Z</time></trkpt><trkpt lat="37.44402063580627" lon="14.186965777937967"><ele>397.33333333333337</ele><time>2026-04-30T07:33:19.999Z</time></trkpt><trkpt lat="37.44409000639985" lon="14.186908568620376"><ele>394.1666666666667</ele><time>2026-04-30T07:33:22.999Z</time></trkpt><trkpt lat="37.44416694298228" lon="14.186841638257011"><ele>391.0</ele><time>2026-04-30T07:33:25.999Z</time></trkpt><trkpt lat="37.444250649548565" lon="14.186768761470331"><ele>391.00000000000006</ele><time>2026-04-30T07:33:28.999Z</time></trkpt><trkpt lat="37.44430657137413" lon="14.186710329225043"><ele>391.0</ele><time>2026-04-30T07:33:30.999Z</time></trkpt><trkpt lat="37.444356955679154" lon="14.18664940807612"><ele>391.0</ele><time>2026-04-30T07:33:32.999Z</time></trkpt><trkpt lat="37.44441450476428" lon="14.186589822045814"><ele>391.0</ele><time>2026-04-30T07:33:34.999Z</time></trkpt><trkpt lat="37.4444708595912" lon="14.186517415033746"><ele>391.00000000000006</ele><time>2026-04-30T07:33:36.999Z</time></trkpt><trkpt lat="37.44453271645288" lon="14.186441977912088"><ele>391.0</ele><time>2026-04-30T07:33:39.999Z</time></trkpt><trkpt lat="37.44458909468637" lon="14.186362480159715"><ele>390.20000000000005</ele><time>2026-04-30T07:33:42.999Z</time></trkpt><trkpt lat="37.44464757323852" lon="14.186301045290156"><ele>389.40000000000003</ele><time>2026-04-30T07:33:44.999Z</time></trkpt><trkpt lat="37.4447183322525" lon="14.18620934759438"><ele>388.6</ele><time>2026-04-30T07:33:46.999Z</time></trkpt><trkpt lat="37.44478835535775" lon="14.186119017917257"><ele>387.8</ele><time>2026-04-30T07:33:50.999Z</time></trkpt><trkpt lat="37.44487377172671" lon="14.186017808849654"><ele>387.0</ele><time>2026-04-30T07:33:52.999Z</time></trkpt><trkpt lat="37.44495519085333" lon="14.185917607677428"><ele>387.0</ele><time>2026-04-30T07:33:54.999Z</time></trkpt><trkpt lat="37.44502829179267" lon="14.185836964393854"><ele>387.0</ele><time>2026-04-30T07:33:56.999Z</time></trkpt><trkpt lat="37.44510322062695" lon="14.185754699634526"><ele>387.0</ele><time>2026-04-30T07:33:58.999Z</time></trkpt><trkpt lat="37.445170835456715" lon="14.185674292729304"><ele>387.0</ele><time>2026-04-30T07:34:00.999Z</time></trkpt><trkpt lat="37.44521515390788" lon="14.185609982103985"><ele>387.0</ele><time>2026-04-30T07:34:03.999Z</time></trkpt><trkpt lat="37.445294907316764" lon="14.185525343173667"><ele>386.8</ele><time>2026-04-30T07:34:05.999Z</time></trkpt><trkpt lat="37.445365772518095" lon="14.18545422855518"><ele>386.6</ele><time>2026-04-30T07:34:07.999Z</time></trkpt><trkpt lat="37.44542925469708" lon="14.185384662936967"><ele>386.40000000000003</ele><time>2026-04-30T07:34:09.999Z</time></trkpt><trkpt lat="37.44549311942002" lon="14.185317822701668"><ele>386.20000000000005</ele><time>2026-04-30T07:34:11.999Z</time></trkpt><trkpt lat="37.44557564974224" lon="14.185224287452352"><ele>386.0</ele><time>2026-04-30T07:34:13.999Z</time></trkpt><trkpt lat="37.445656467906566" lon="14.18513321717674"><ele>386.0</ele><time>2026-04-30T07:34:15.999Z</time></trkpt><trkpt lat="37.44573391863655" lon="14.185040926995564"><ele>386.0</ele><time>2026-04-30T07:34:17.999Z</time></trkpt><trkpt lat="37.44579200559422" lon="14.184950636719398"><ele>386.0</ele><time>2026-04-30T07:34:19.999Z</time></trkpt><trkpt lat="37.44586217696906" lon="14.184847974791479"><ele>386.0</ele><time>2026-04-30T07:34:21.999Z</time></trkpt><trkpt lat="37.44591680445627" lon="14.184764290649275"><ele>386.0</ele><time>2026-04-30T07:34:23.999Z</time></trkpt><trkpt lat="37.445966012024236" lon="14.18465395290549"><ele>386.20000000000005</ele><time>2026-04-30T07:34:25.999Z</time></trkpt><trkpt lat="37.446029450809895" lon="14.184533599654666"><ele>386.40000000000003</ele><time>2026-04-30T07:34:27.999Z</time></trkpt><trkpt lat="37.44606310229534" lon="14.184463007330242"><ele>386.6</ele><time>2026-04-30T07:34:28.999Z</time></trkpt><trkpt lat="37.44611202549607" lon="14.184348511373033"><ele>386.8</ele><time>2026-04-30T07:34:30.999Z</time></trkpt><trkpt lat="37.446156543146465" lon="14.184247510033563"><ele>387.0</ele><time>2026-04-30T07:34:33.999Z</time></trkpt><trkpt lat="37.44622686711394" lon="14.18419174252393"><ele>386.6</ele><time>2026-04-30T07:34:35.999Z</time></trkpt><trkpt lat="37.44633164595998" lon="14.184156689981418"><ele>386.20000000000005</ele><time>2026-04-30T07:34:37.999Z</time></trkpt><trkpt lat="37.446387900006016" lon="14.184108438316965"><ele>385.8</ele><time>2026-04-30T07:34:54.999Z</time></trkpt><trkpt lat="37.44650832038875" lon="14.184057976940233"><ele>385.4</ele><time>2026-04-30T07:34:56.999Z</time></trkpt><trkpt lat="37.44662760383879" lon="14.183998869805594"><ele>385.0</ele><time>2026-04-30T07:34:58.999Z</time></trkpt><trkpt lat="37.446693345256996" lon="14.183958262372055"><ele>386.8</ele><time>2026-04-30T07:34:59.999Z</time></trkpt><trkpt lat="37.44675331252671" lon="14.18392316561119"><ele>388.6</ele><time>2026-04-30T07:35:00.999Z</time></trkpt><trkpt lat="37.446867275392236" lon="14.183857366319707"><ele>390.4</ele><time>2026-04-30T07:35:02.999Z</time></trkpt><trkpt lat="37.446942921562396" lon="14.183814244960674"><ele>392.2</ele><time>2026-04-30T07:35:03.999Z</time></trkpt><trkpt lat="37.44702457794332" lon="14.183765519541975"><ele>394.0</ele><time>2026-04-30T07:35:04.999Z</time></trkpt><trkpt lat="37.44711282238489" lon="14.183714161774544"><ele>392.83333333333337</ele><time>2026-04-30T07:35:05.999Z</time></trkpt><trkpt lat="37.4471910950912" lon="14.183664969138091"><ele>391.6666666666667</ele><time>2026-04-30T07:35:06.999Z</time></trkpt><trkpt lat="37.44725610322708" lon="14.183620805597663"><ele>390.5</ele><time>2026-04-30T07:35:07.999Z</time></trkpt><trkpt lat="37.44731083405897" lon="14.183579468071017"><ele>389.33333333333337</ele><time>2026-04-30T07:35:08.999Z</time></trkpt><trkpt lat="37.4473975856007" lon="14.183499618124591"><ele>388.1666666666667</ele><time>2026-04-30T07:35:10.999Z</time></trkpt><trkpt lat="37.447466262931925" lon="14.183411310210005"><ele>387.0</ele><time>2026-04-30T07:35:12.999Z</time></trkpt><trkpt lat="37.44754163067631" lon="14.183357951394585"><ele>387.0</ele><time>2026-04-30T07:35:14.999Z</time></trkpt><trkpt lat="37.447642229440454" lon="14.18327497434656"><ele>387.0</ele><time>2026-04-30T07:35:16.999Z</time></trkpt><trkpt lat="37.447700813591176" lon="14.183216192407544"><ele>387.0</ele><time>2026-04-30T07:35:17.999Z</time></trkpt><trkpt lat="37.44775916270903" lon="14.18314468803771"><ele>387.0</ele><time>2026-04-30T07:35:18.999Z</time></trkpt><trkpt lat="37.44781019196421" lon="14.183061815300034"><ele>387.0</ele><time>2026-04-30T07:35:19.999Z</time></trkpt><trkpt lat="37.44786201628314" lon="14.18297161522356"><ele>387.0</ele><time>2026-04-30T07:35:20.999Z</time></trkpt><trkpt lat="37.447910417519296" lon="14.18287913745189"><ele>386.40000000000003</ele><time>2026-04-30T07:35:21.999Z</time></trkpt><trkpt lat="37.44796073065127" lon="14.182785082154876"><ele>385.8</ele><time>2026-04-30T07:35:22.999Z</time></trkpt><trkpt lat="37.44801014130247" lon="14.182683214908407"><ele>385.2</ele><time>2026-04-30T07:35:23.999Z</time></trkpt><trkpt lat="37.448060775053364" lon="14.182573681863316"><ele>384.6</ele><time>2026-04-30T07:35:24.999Z</time></trkpt><trkpt lat="37.448109866476784" lon="14.18246872731823"><ele>384.0</ele><time>2026-04-30T07:35:25.999Z</time></trkpt><trkpt lat="37.44815297337268" lon="14.182383566960658"><ele>384.5</ele><time>2026-04-30T07:35:26.999Z</time></trkpt><trkpt lat="37.448192148359546" lon="14.182317355046584"><ele>385.0</ele><time>2026-04-30T07:35:27.999Z</time></trkpt><trkpt lat="37.448246141975496" lon="14.182248800651731"><ele>385.5</ele><time>2026-04-30T07:35:28.999Z</time></trkpt><trkpt lat="37.44832385507882" lon="14.182172286188617"><ele>386.0</ele><time>2026-04-30T07:35:29.999Z</time></trkpt><trkpt lat="37.448387846558056" lon="14.182084589895114"><ele>386.5</ele><time>2026-04-30T07:35:30.999Z</time></trkpt><trkpt lat="37.44843895769452" lon="14.181981240319242"><ele>387.0</ele><time>2026-04-30T07:35:31.999Z</time></trkpt><trkpt lat="37.448485658662975" lon="14.18188959648365"><ele>387.0</ele><time>2026-04-30T07:35:32.999Z</time></trkpt><trkpt lat="37.44852848696054" lon="14.181817300902924"><ele>387.0</ele><time>2026-04-30T07:35:33.999Z</time></trkpt><trkpt lat="37.44857604950898" lon="14.181756943732235"><ele>387.0</ele><time>2026-04-30T07:35:34.999Z</time></trkpt><trkpt lat="37.44863878906307" lon="14.181699651843536"><ele>387.0</ele><time>2026-04-30T07:35:35.999Z</time></trkpt><trkpt lat="37.44870992657113" lon="14.181656585713556"><ele>387.0</ele><time>2026-04-30T07:35:36.999Z</time></trkpt><trkpt lat="37.44877992324061" lon="14.181613570591894"><ele>387.0</ele><time>2026-04-30T07:35:37.999Z</time></trkpt><trkpt lat="37.44883872969523" lon="14.181574209115059"><ele>387.0</ele><time>2026-04-30T07:35:38.999Z</time></trkpt><trkpt lat="37.448912870452425" lon="14.181505675046647"><ele>388.40000000000003</ele><time>2026-04-30T07:35:40.999Z</time></trkpt><trkpt lat="37.44897209577404" lon="14.181367433413111"><ele>389.8</ele><time>2026-04-30T07:35:42.999Z</time></trkpt><trkpt lat="37.44901417054524" lon="14.18127769480896"><ele>391.2</ele><time>2026-04-30T07:35:43.999Z</time></trkpt><trkpt lat="37.44907264865864" lon="14.181217904605836"><ele>392.6</ele><time>2026-04-30T07:35:44.999Z</time></trkpt><trkpt lat="37.449155660737894" lon="14.181159058606378"><ele>394.0</ele><time>2026-04-30T07:35:45.999Z</time></trkpt><trkpt lat="37.44922125411754" lon="14.181099565638817"><ele>394.0</ele><time>2026-04-30T07:35:46.999Z</time></trkpt><trkpt lat="37.44926310487362" lon="14.181018534385856"><ele>394.0</ele><time>2026-04-30T07:35:47.999Z</time></trkpt><trkpt lat="37.449289762208" lon="14.180904891391842"><ele>394.0</ele><time>2026-04-30T07:35:48.999Z</time></trkpt><trkpt lat="37.44930573511627" lon="14.180764394606095"><ele>394.0</ele><time>2026-04-30T07:35:49.999Z</time></trkpt><trkpt lat="37.449308577940215" lon="14.18061553468341"><ele>394.0</ele><time>2026-04-30T07:35:50.999Z</time></trkpt><trkpt lat="37.449310683156824" lon="14.180473390587451"><ele>395.75</ele><time>2026-04-30T07:35:51.999Z</time></trkpt><trkpt lat="37.4493144523954" lon="14.180332008702779"><ele>397.5</ele><time>2026-04-30T07:35:52.999Z</time></trkpt><trkpt lat="37.44931104796819" lon="14.180183564850388"><ele>399.25</ele><time>2026-04-30T07:35:53.999Z</time></trkpt><trkpt lat="37.44928997896449" lon="14.180024651763445"><ele>401.0</ele><time>2026-04-30T07:35:54.999Z</time></trkpt><trkpt lat="37.449252112539085" lon="14.17985997067934"><ele>401.6</ele><time>2026-04-30T07:35:55.999Z</time></trkpt><trkpt lat="37.4492123301276" lon="14.179710398139767"><ele>402.20000000000005</ele><time>2026-04-30T07:35:56.999Z</time></trkpt><trkpt lat="37.449169109352766" lon="14.179588957706741"><ele>402.79999999999995</ele><time>2026-04-30T07:35:57.999Z</time></trkpt><trkpt lat="37.44912530545158" lon="14.179514720388756"><ele>403.4</ele><time>2026-04-30T07:35:58.999Z</time></trkpt><trkpt lat="37.44906782773557" lon="14.179471212517315"><ele>404.0</ele><time>2026-04-30T07:35:59.999Z</time></trkpt><trkpt lat="37.448988975554904" lon="14.179470899162325"><ele>404.0</ele><time>2026-04-30T07:36:00.999Z</time></trkpt><trkpt lat="37.4488927893671" lon="14.179506774251006"><ele>404.0</ele><time>2026-04-30T07:36:01.999Z</time></trkpt><trkpt lat="37.448794748284655" lon="14.179577031132911"><ele>404.0</ele><time>2026-04-30T07:36:02.999Z</time></trkpt><trkpt lat="37.44869007686605" lon="14.17964111381217"><ele>404.0</ele><time>2026-04-30T07:36:03.999Z</time></trkpt><trkpt lat="37.44858000075906" lon="14.179685520821636"><ele>404.0</ele><time>2026-04-30T07:36:04.999Z</time></trkpt><trkpt lat="37.44848268344572" lon="14.179718794200681"><ele>406.0</ele><time>2026-04-30T07:36:05.999Z</time></trkpt><trkpt lat="37.44839503481654" lon="14.179729566101365"><ele>408.0</ele><time>2026-04-30T07:36:06.999Z</time></trkpt><trkpt lat="37.44831358931336" lon="14.179705012967009"><ele>410.0</ele><time>2026-04-30T07:36:07.999Z</time></trkpt><trkpt lat="37.44825215983403" lon="14.179634536587614"><ele>412.0</ele><time>2026-04-30T07:36:08.999Z</time></trkpt><trkpt lat="37.448207017659286" lon="14.179523137589786"><ele>414.0</ele><time>2026-04-30T07:36:09.999Z</time></trkpt><trkpt lat="37.44817566001544" lon="14.1794006107766"><ele>414.0</ele><time>2026-04-30T07:36:10.999Z</time></trkpt><trkpt lat="37.44816734466206" lon="14.179275719499026"><ele>414.0</ele><time>2026-04-30T07:36:11.999Z</time></trkpt><trkpt lat="37.448182387130316" lon="14.179154442824007"><ele>414.0</ele><time>2026-04-30T07:36:12.999Z</time></trkpt><trkpt lat="37.44821893759165" lon="14.179038541617953"><ele>414.0</ele><time>2026-04-30T07:36:13.999Z</time></trkpt><trkpt lat="37.44828873564749" lon="14.178934142395994"><ele>414.0</ele><time>2026-04-30T07:36:14.999Z</time></trkpt><trkpt lat="37.44837274963915" lon="14.17884451957483"><ele>414.6</ele><time>2026-04-30T07:36:15.999Z</time></trkpt><trkpt lat="37.44846422493324" lon="14.178753333281424"><ele>415.2</ele><time>2026-04-30T07:36:16.999Z</time></trkpt><trkpt lat="37.448542620458056" lon="14.178658304064857"><ele>415.8</ele><time>2026-04-30T07:36:17.999Z</time></trkpt><trkpt lat="37.4485970573187" lon="14.178570150598196"><ele>416.40000000000003</ele><time>2026-04-30T07:36:18.999Z</time></trkpt><trkpt lat="37.44862761048944" lon="14.17847865523138"><ele>417.0</ele><time>2026-04-30T07:36:19.999Z</time></trkpt><trkpt lat="37.448633943871414" lon="14.178378989835124"><ele>417.0</ele><time>2026-04-30T07:36:20.999Z</time></trkpt><trkpt lat="37.44861485691086" lon="14.178265141118816"><ele>417.0</ele><time>2026-04-30T07:36:21.999Z</time></trkpt><trkpt lat="37.44858487654563" lon="14.1781441153273"><ele>417.0</ele><time>2026-04-30T07:36:22.999Z</time></trkpt><trkpt lat="37.44855996148362" lon="14.178025826312757"><ele>417.0</ele><time>2026-04-30T07:36:23.999Z</time></trkpt><trkpt lat="37.448541784592464" lon="14.177926921249666"><ele>417.0</ele><time>2026-04-30T07:36:24.999Z</time></trkpt><trkpt lat="37.44852345513259" lon="14.177845291035776"><ele>417.0</ele><time>2026-04-30T07:36:25.999Z</time></trkpt><trkpt lat="37.44848061522998" lon="14.177729944187035"><ele>417.20000000000005</ele><time>2026-04-30T07:36:27.999Z</time></trkpt><trkpt lat="37.448477611122804" lon="14.177647003931718"><ele>417.4</ele><time>2026-04-30T07:36:29.999Z</time></trkpt><trkpt lat="37.44855525039069" lon="14.177576325686223"><ele>417.6</ele><time>2026-04-30T07:36:31.999Z</time></trkpt><trkpt lat="37.44866005796242" lon="14.177554241254489"><ele>417.79999999999995</ele><time>2026-04-30T07:36:32.999Z</time></trkpt><trkpt lat="37.448800990598635" lon="14.177553635552725"><ele>418.0</ele><time>2026-04-30T07:36:33.999Z</time></trkpt><trkpt lat="37.448945776761725" lon="14.177552833158423"><ele>418.0</ele><time>2026-04-30T07:36:34.999Z</time></trkpt><trkpt lat="37.449089962935695" lon="14.177536750480277"><ele>418.0</ele><time>2026-04-30T07:36:35.999Z</time></trkpt><trkpt lat="37.449238311460306" lon="14.177513306243652"><ele>418.0</ele><time>2026-04-30T07:36:36.999Z</time></trkpt><trkpt lat="37.4494104880218" lon="14.177493914365625"><ele>418.0</ele><time>2026-04-30T07:36:37.999Z</time></trkpt><trkpt lat="37.44958936863729" lon="14.17748199272337"><ele>418.0</ele><time>2026-04-30T07:36:38.999Z</time></trkpt><trkpt lat="37.449759621261954" lon="14.177471125766784"><ele>418.0</ele><time>2026-04-30T07:36:39.999Z</time></trkpt><trkpt lat="37.44990967065002" lon="14.177459594584205"><ele>418.0</ele><time>2026-04-30T07:36:40.999Z</time></trkpt><trkpt lat="37.450049980816296" lon="14.177449048613532"><ele>418.0</ele><time>2026-04-30T07:36:41.999Z</time></trkpt><trkpt lat="37.45017937823987" lon="14.177426925466888"><ele>418.0</ele><time>2026-04-30T07:36:42.999Z</time></trkpt><trkpt lat="37.4502955464844" lon="14.177392255085929"><ele>418.0</ele><time>2026-04-30T07:36:43.999Z</time></trkpt><trkpt lat="37.450395053428686" lon="14.17734263890146"><ele>418.0</ele><time>2026-04-30T07:36:44.999Z</time></trkpt><trkpt lat="37.45048154137452" lon="14.177281951853917"><ele>418.0</ele><time>2026-04-30T07:36:45.999Z</time></trkpt><trkpt lat="37.45056229368263" lon="14.177212247505077"><ele>418.0</ele><time>2026-04-30T07:36:46.999Z</time></trkpt><trkpt lat="37.45064660445496" lon="14.177124838631144"><ele>418.0</ele><time>2026-04-30T07:36:47.999Z</time></trkpt><trkpt lat="37.4507310481183" lon="14.177004523834812"><ele>418.0</ele><time>2026-04-30T07:36:48.999Z</time></trkpt><trkpt lat="37.45080864011007" lon="14.176868979928047"><ele>418.0</ele><time>2026-04-30T07:36:49.999Z</time></trkpt><trkpt lat="37.4508810457152" lon="14.176716312253868"><ele>418.0</ele><time>2026-04-30T07:36:50.999Z</time></trkpt><trkpt lat="37.45095388595078" lon="14.176551257480755"><ele>418.0</ele><time>2026-04-30T07:36:51.999Z</time></trkpt><trkpt lat="37.451027628121885" lon="14.176381949885235"><ele>418.0</ele><time>2026-04-30T07:36:52.999Z</time></trkpt><trkpt lat="37.451100193847964" lon="14.176224552250535"><ele>417.75</ele><time>2026-04-30T07:36:53.999Z</time></trkpt><trkpt lat="37.45117733992114" lon="14.176082117532493"><ele>417.5</ele><time>2026-04-30T07:36:54.999Z</time></trkpt><trkpt lat="37.4512703223491" lon="14.175955687461856"><ele>417.25</ele><time>2026-04-30T07:36:55.999Z</time></trkpt><trkpt lat="37.451380318651225" lon="14.175852157116253"><ele>417.0</ele><time>2026-04-30T07:36:56.999Z</time></trkpt><trkpt lat="37.45149856839828" lon="14.175768580776522"><ele>417.0</ele><time>2026-04-30T07:36:57.999Z</time></trkpt><trkpt lat="37.45161975509444" lon="14.175706211120428"><ele>417.0</ele><time>2026-04-30T07:36:58.999Z</time></trkpt><trkpt lat="37.451743594312006" lon="14.17566093836849"><ele>417.0</ele><time>2026-04-30T07:36:59.999Z</time></trkpt><trkpt lat="37.45187604029668" lon="14.175638251241251"><ele>417.0</ele><time>2026-04-30T07:37:00.999Z</time></trkpt><trkpt lat="37.45201475292296" lon="14.175642278925583"><ele>417.0</ele><time>2026-04-30T07:37:01.999Z</time></trkpt><trkpt lat="37.452157626742505" lon="14.17567821621405"><ele>417.0</ele><time>2026-04-30T07:37:02.999Z</time></trkpt><trkpt lat="37.45229507041931" lon="14.175729580412492"><ele>417.0</ele><time>2026-04-30T07:37:03.999Z</time></trkpt><trkpt lat="37.45242898822489" lon="14.17580870363253"><ele>417.0</ele><time>2026-04-30T07:37:04.999Z</time></trkpt><trkpt lat="37.45255609053434" lon="14.175919127429868"><ele>417.0</ele><time>2026-04-30T07:37:05.999Z</time></trkpt><trkpt lat="37.45267169203448" lon="14.176050618196895"><ele>417.0</ele><time>2026-04-30T07:37:06.999Z</time></trkpt><trkpt lat="37.45277023250811" lon="14.17620858638209"><ele>417.0</ele><time>2026-04-30T07:37:07.999Z</time></trkpt><trkpt lat="37.45285654093821" lon="14.176373114155702"><ele>415.33333333333337</ele><time>2026-04-30T07:37:08.999Z</time></trkpt><trkpt lat="37.45294056149523" lon="14.176537518919075"><ele>413.6666666666667</ele><time>2026-04-30T07:37:09.999Z</time></trkpt><trkpt lat="37.45303133219599" lon="14.17668951464042"><ele>412.0</ele><time>2026-04-30T07:37:10.999Z</time></trkpt><trkpt lat="37.45312580841384" lon="14.176836090402231"><ele>416.0</ele><time>2026-04-30T07:37:11.999Z</time></trkpt><trkpt lat="37.45321933071916" lon="14.1769818622887"><ele>420.0</ele><time>2026-04-30T07:37:12.999Z</time></trkpt><trkpt lat="37.45331784446871" lon="14.177128419792119"><ele>424.0</ele><time>2026-04-30T07:37:13.999Z</time></trkpt><trkpt lat="37.45344364035202" lon="14.177261579810583"><ele>422.6666666666667</ele><time>2026-04-30T07:37:14.999Z</time></trkpt><trkpt lat="37.45359162811465" lon="14.177359900884722"><ele>421.33333333333337</ele><time>2026-04-30T07:37:15.999Z</time></trkpt><trkpt lat="37.45374809056406" lon="14.17742379378036"><ele>420.0</ele><time>2026-04-30T07:37:16.999Z</time></trkpt><trkpt lat="37.453905725246244" lon="14.177447996894813"><ele>420.0</ele><time>2026-04-30T07:37:17.999Z</time></trkpt><trkpt lat="37.45406607041336" lon="14.177433890876705"><ele>420.0</ele><time>2026-04-30T07:37:18.999Z</time></trkpt><trkpt lat="37.45422895132889" lon="14.1773803786969"><ele>420.0</ele><time>2026-04-30T07:37:19.999Z</time></trkpt><trkpt lat="37.45439587406959" lon="14.177301974176634"><ele>420.33333333333337</ele><time>2026-04-30T07:37:20.999Z</time></trkpt><trkpt lat="37.45456528495418" lon="14.177213679483375"><ele>420.6666666666667</ele><time>2026-04-30T07:37:21.999Z</time></trkpt><trkpt lat="37.454734455719205" lon="14.177135027954078"><ele>421.0</ele><time>2026-04-30T07:37:22.999Z</time></trkpt><trkpt lat="37.45490215521237" lon="14.177065577011025"><ele>421.0</ele><time>2026-04-30T07:37:23.999Z</time></trkpt><trkpt lat="37.45506637696679" lon="14.176999537779265"><ele>421.0</ele><time>2026-04-30T07:37:24.999Z</time></trkpt><trkpt lat="37.455224780349134" lon="14.176934413200113"><ele>421.0</ele><time>2026-04-30T07:37:25.999Z</time></trkpt><trkpt lat="37.45538077731376" lon="14.176868217250277"><ele>419.0</ele><time>2026-04-30T07:37:26.999Z</time></trkpt><trkpt lat="37.4555378146085" lon="14.176793898896982"><ele>417.0</ele><time>2026-04-30T07:37:27.999Z</time></trkpt><trkpt lat="37.45569841230857" lon="14.176716697646032"><ele>415.0</ele><time>2026-04-30T07:37:28.999Z</time></trkpt><trkpt lat="37.45586459731724" lon="14.176649472134898"><ele>415.0</ele><time>2026-04-30T07:37:29.999Z</time></trkpt><trkpt lat="37.456032414294114" lon="14.176583335230863"><ele>415.0</ele><time>2026-04-30T07:37:30.999Z</time></trkpt><trkpt lat="37.45620176057072" lon="14.176508776104214"><ele>415.0</ele><time>2026-04-30T07:37:31.999Z</time></trkpt><trkpt lat="37.45637150499757" lon="14.176433664785014"><ele>414.6666666666667</ele><time>2026-04-30T07:37:32.999Z</time></trkpt><trkpt lat="37.456543383061636" lon="14.17636110380128"><ele>414.33333333333337</ele><time>2026-04-30T07:37:33.999Z</time></trkpt><trkpt lat="37.456715725408" lon="14.176287869409197"><ele>414.0</ele><time>2026-04-30T07:37:34.999Z</time></trkpt><trkpt lat="37.45688719948965" lon="14.176211788421591"><ele>414.0</ele><time>2026-04-30T07:37:35.999Z</time></trkpt><trkpt lat="37.45706145506519" lon="14.176138657909517"><ele>414.0</ele><time>2026-04-30T07:37:36.999Z</time></trkpt><trkpt lat="37.457234791599554" lon="14.176066466564382"><ele>414.0</ele><time>2026-04-30T07:37:37.999Z</time></trkpt><trkpt lat="37.45739867277941" lon="14.175999957445036"><ele>414.0</ele><time>2026-04-30T07:37:38.999Z</time></trkpt><trkpt lat="37.457555865127674" lon="14.175936034000504"><ele>414.0</ele><time>2026-04-30T07:37:39.999Z</time></trkpt><trkpt lat="37.45770838157053" lon="14.175892094354303"><ele>414.0</ele><time>2026-04-30T07:37:40.999Z</time></trkpt><trkpt lat="37.457864891331695" lon="14.17587403591848"><ele>413.66666666666663</ele><time>2026-04-30T07:37:41.999Z</time></trkpt><trkpt lat="37.458018443399205" lon="14.175880079161423"><ele>413.3333333333333</ele><time>2026-04-30T07:37:42.999Z</time></trkpt><trkpt lat="37.45818148795235" lon="14.175915432040432"><ele>413.0</ele><time>2026-04-30T07:37:43.999Z</time></trkpt><trkpt lat="37.4583413036748" lon="14.175967909090337"><ele>413.0</ele><time>2026-04-30T07:37:44.999Z</time></trkpt><trkpt lat="37.45850332698623" lon="14.176041617002888"><ele>413.0</ele><time>2026-04-30T07:37:45.999Z</time></trkpt><trkpt lat="37.458667399681595" lon="14.176131802360587"><ele>413.0</ele><time>2026-04-30T07:37:46.999Z</time></trkpt><trkpt lat="37.4588273589791" lon="14.176225391580177"><ele>410.0</ele><time>2026-04-30T07:37:47.999Z</time></trkpt><trkpt lat="37.45898290064945" lon="14.17631364023173"><ele>407.0</ele><time>2026-04-30T07:37:48.999Z</time></trkpt><trkpt lat="37.459137062699796" lon="14.176399456367427"><ele>404.0</ele><time>2026-04-30T07:37:49.999Z</time></trkpt><trkpt lat="37.459294736112035" lon="14.176486268259803"><ele>405.0</ele><time>2026-04-30T07:37:50.999Z</time></trkpt><trkpt lat="37.45945647377021" lon="14.176579171483759"><ele>406.0</ele><time>2026-04-30T07:37:51.999Z</time></trkpt><trkpt lat="37.45962144323854" lon="14.176671118113363"><ele>407.0</ele><time>2026-04-30T07:37:52.999Z</time></trkpt><trkpt lat="37.459789503108645" lon="14.176767348111225"><ele>405.0</ele><time>2026-04-30T07:37:53.999Z</time></trkpt><trkpt lat="37.45995777627276" lon="14.176863657141993"><ele>403.0</ele><time>2026-04-30T07:37:54.999Z</time></trkpt><trkpt lat="37.46012032893572" lon="14.176952351622194"><ele>401.0</ele><time>2026-04-30T07:37:55.999Z</time></trkpt><trkpt lat="37.46027790902957" lon="14.177035063159817"><ele>401.0</ele><time>2026-04-30T07:37:56.999Z</time></trkpt><trkpt lat="37.46042852900885" lon="14.177117574378823"><ele>401.0</ele><time>2026-04-30T07:37:57.999Z</time></trkpt><trkpt lat="37.4605609313622" lon="14.177198116305835"><ele>401.0</ele><time>2026-04-30T07:37:58.999Z</time></trkpt><trkpt lat="37.460686356922935" lon="14.177254407916628"><ele>401.0</ele><time>2026-04-30T07:37:59.999Z</time></trkpt><trkpt lat="37.46081519442884" lon="14.177265695344065"><ele>398.75</ele><time>2026-04-30T07:38:00.999Z</time></trkpt><trkpt lat="37.46094417062099" lon="14.17722663293249"><ele>396.5</ele><time>2026-04-30T07:38:01.999Z</time></trkpt><trkpt lat="37.461063843037834" lon="14.177151238899837"><ele>394.25</ele><time>2026-04-30T07:38:02.999Z</time></trkpt><trkpt lat="37.461169265966916" lon="14.177054566693066"><ele>392.0</ele><time>2026-04-30T07:38:03.999Z</time></trkpt><trkpt lat="37.461254832316776" lon="14.176916215434392"><ele>390.5</ele><time>2026-04-30T07:38:04.999Z</time></trkpt><trkpt lat="37.46131307878643" lon="14.17675080006898"><ele>389.0</ele><time>2026-04-30T07:38:05.999Z</time></trkpt><trkpt lat="37.46134330484029" lon="14.176577330754233"><ele>387.5</ele><time>2026-04-30T07:38:06.999Z</time></trkpt><trkpt lat="37.461348945389666" lon="14.1764055441839"><ele>386.0</ele><time>2026-04-30T07:38:07.999Z</time></trkpt><trkpt lat="37.461350618135896" lon="14.176239490759851"><ele>385.0</ele><time>2026-04-30T07:38:08.999Z</time></trkpt><trkpt lat="37.461369195271544" lon="14.176079945698023"><ele>384.0</ele><time>2026-04-30T07:38:09.999Z</time></trkpt><trkpt lat="37.46141330470864" lon="14.175933954675326"><ele>383.0</ele><time>2026-04-30T07:38:10.999Z</time></trkpt><trkpt lat="37.461478133109324" lon="14.17579820111205"><ele>382.0</ele><time>2026-04-30T07:38:11.999Z</time></trkpt><trkpt lat="37.46157511391527" lon="14.17567375192122"><ele>381.25</ele><time>2026-04-30T07:38:12.999Z</time></trkpt><trkpt lat="37.461687083885316" lon="14.175564405132258"><ele>380.5</ele><time>2026-04-30T07:38:13.999Z</time></trkpt><trkpt lat="37.4618142056093" lon="14.175480412543719"><ele>379.75</ele><time>2026-04-30T07:38:14.999Z</time></trkpt><trkpt lat="37.46195964269881" lon="14.175426245890414"><ele>379.0</ele><time>2026-04-30T07:38:15.999Z</time></trkpt><trkpt lat="37.46211055635559" lon="14.175396010754918"><ele>377.3333333333333</ele><time>2026-04-30T07:38:16.999Z</time></trkpt><trkpt lat="37.4622563834088" lon="14.175376350051486"><ele>375.6666666666667</ele><time>2026-04-30T07:38:17.999Z</time></trkpt><trkpt lat="37.46240677896059" lon="14.17535104102447"><ele>374.0</ele><time>2026-04-30T07:38:18.999Z</time></trkpt><trkpt lat="37.462563387634795" lon="14.175312101431048"><ele>374.0</ele><time>2026-04-30T07:38:19.999Z</time></trkpt><trkpt lat="37.46272157154774" lon="14.175274005454206"><ele>374.0</ele><time>2026-04-30T07:38:20.999Z</time></trkpt><trkpt lat="37.46287833994697" lon="14.175235379666665"><ele>374.0</ele><time>2026-04-30T07:38:21.999Z</time></trkpt><trkpt lat="37.46304125110576" lon="14.175196555867549"><ele>375.0</ele><time>2026-04-30T07:38:22.999Z</time></trkpt><trkpt lat="37.46320513797638" lon="14.175159149551053"><ele>376.0</ele><time>2026-04-30T07:38:23.999Z</time></trkpt><trkpt lat="37.46336764066657" lon="14.175121007444634"><ele>377.0</ele><time>2026-04-30T07:38:24.999Z</time></trkpt><trkpt lat="37.463530254409044" lon="14.17508192066844"><ele>377.0</ele><time>2026-04-30T07:38:25.999Z</time></trkpt><trkpt lat="37.46368966968443" lon="14.175042889380867"><ele>377.0</ele><time>2026-04-30T07:38:26.999Z</time></trkpt><trkpt lat="37.463844936358264" lon="14.17498837012985"><ele>377.0</ele><time>2026-04-30T07:38:27.999Z</time></trkpt><trkpt lat="37.463994363882854" lon="14.17490308159405"><ele>375.33333333333337</ele><time>2026-04-30T07:38:28.999Z</time></trkpt><trkpt lat="37.46413601225366" lon="14.17478896110769"><ele>373.6666666666667</ele><time>2026-04-30T07:38:29.999Z</time></trkpt><trkpt lat="37.46426947056901" lon="14.174640389783907"><ele>372.0</ele><time>2026-04-30T07:38:30.999Z</time></trkpt><trkpt lat="37.46439277796567" lon="14.17446785610108"><ele>372.0</ele><time>2026-04-30T07:38:31.999Z</time></trkpt><trkpt lat="37.46450920202445" lon="14.174288702869877"><ele>372.0</ele><time>2026-04-30T07:38:32.999Z</time></trkpt><trkpt lat="37.46462300593366" lon="14.174101424868816"><ele>372.0</ele><time>2026-04-30T07:38:33.999Z</time></trkpt><trkpt lat="37.46474441213629" lon="14.173927606244927"><ele>371.6666666666667</ele><time>2026-04-30T07:38:34.999Z</time></trkpt><trkpt lat="37.46486536043701" lon="14.173770280546927"><ele>371.33333333333337</ele><time>2026-04-30T07:38:35.999Z</time></trkpt><trkpt lat="37.46497453456369" lon="14.1736125956441"><ele>371.0</ele><time>2026-04-30T07:38:36.999Z</time></trkpt><trkpt lat="37.46507863017937" lon="14.1734565999198"><ele>371.0</ele><time>2026-04-30T07:38:37.999Z</time></trkpt><trkpt lat="37.46519468636597" lon="14.17331507091621"><ele>371.0</ele><time>2026-04-30T07:38:38.999Z</time></trkpt><trkpt lat="37.46533271500915" lon="14.173199730516473"><ele>371.0</ele><time>2026-04-30T07:38:39.999Z</time></trkpt><trkpt lat="37.465494785374325" lon="14.17312231517147"><ele>366.6666666666667</ele><time>2026-04-30T07:38:40.999Z</time></trkpt><trkpt lat="37.46566983075403" lon="14.173073127699817"><ele>362.3333333333333</ele><time>2026-04-30T07:38:41.999Z</time></trkpt><trkpt lat="37.46585549180185" lon="14.17307114208409"><ele>358.0</ele><time>2026-04-30T07:38:42.999Z</time></trkpt><trkpt lat="37.466034884031444" lon="14.173116966964852"><ele>358.0</ele><time>2026-04-30T07:38:43.999Z</time></trkpt><trkpt lat="37.466202867842014" lon="14.173180156935237"><ele>358.0</ele><time>2026-04-30T07:38:44.999Z</time></trkpt><trkpt lat="37.46636433327648" lon="14.173228896289958"><ele>358.0</ele><time>2026-04-30T07:38:45.999Z</time></trkpt><trkpt lat="37.466538660790135" lon="14.173230255282645"><ele>357.3333333333333</ele><time>2026-04-30T07:38:46.999Z</time></trkpt><trkpt lat="37.46672604058037" lon="14.173205020156844"><ele>356.6666666666667</ele><time>2026-04-30T07:38:47.999Z</time></trkpt><trkpt lat="37.46691830958961" lon="14.173158660143908"><ele>356.0</ele><time>2026-04-30T07:38:48.999Z</time></trkpt><trkpt lat="37.467102249047656" lon="14.173101445447978"><ele>357.0</ele><time>2026-04-30T07:38:49.999Z</time></trkpt><trkpt lat="37.4672818257906" lon="14.17304777216979"><ele>358.0</ele><time>2026-04-30T07:38:50.999Z</time></trkpt><trkpt lat="37.46746055493737" lon="14.172990605755626"><ele>359.0</ele><time>2026-04-30T07:38:51.999Z</time></trkpt><trkpt lat="37.46763744394953" lon="14.172938066576824"><ele>359.0</ele><time>2026-04-30T07:38:52.999Z</time></trkpt><trkpt lat="37.46781470462547" lon="14.172888532156422"><ele>359.0</ele><time>2026-04-30T07:38:53.999Z</time></trkpt><trkpt lat="37.46799328830821" lon="14.172838049388012"><ele>359.0</ele><time>2026-04-30T07:38:54.999Z</time></trkpt><trkpt lat="37.468170593166214" lon="14.172785782510907"><ele>357.6666666666667</ele><time>2026-04-30T07:38:55.999Z</time></trkpt><trkpt lat="37.46834646719965" lon="14.172731166657076"><ele>356.3333333333333</ele><time>2026-04-30T07:38:56.999Z</time></trkpt><trkpt lat="37.46852306854905" lon="14.172677247002106"><ele>355.0</ele><time>2026-04-30T07:38:57.999Z</time></trkpt><trkpt lat="37.468700538795396" lon="14.172622011435536"><ele>354.66666666666663</ele><time>2026-04-30T07:38:58.999Z</time></trkpt><trkpt lat="37.468879659129364" lon="14.172567392819884"><ele>354.3333333333333</ele><time>2026-04-30T07:38:59.999Z</time></trkpt><trkpt lat="37.46906011856341" lon="14.172515545053386"><ele>354.0</ele><time>2026-04-30T07:39:00.999Z</time></trkpt><trkpt lat="37.469240332424604" lon="14.172459342676124"><ele>354.0</ele><time>2026-04-30T07:39:01.999Z</time></trkpt><trkpt lat="37.46941879933173" lon="14.1724046650417"><ele>354.0</ele><time>2026-04-30T07:39:02.999Z</time></trkpt><trkpt lat="37.469595942639714" lon="14.172354672719816"><ele>354.0</ele><time>2026-04-30T07:39:03.999Z</time></trkpt><trkpt lat="37.4697730585177" lon="14.172301610306233"><ele>350.3333333333333</ele><time>2026-04-30T07:39:04.999Z</time></trkpt><trkpt lat="37.469952737205695" lon="14.172248797455346"><ele>346.66666666666663</ele><time>2026-04-30T07:39:05.999Z</time></trkpt><trkpt lat="37.470132982069444" lon="14.172193962069983"><ele>343.0</ele><time>2026-04-30T07:39:06.999Z</time></trkpt><trkpt lat="37.470305347429615" lon="14.17214049335351"><ele>341.3333333333333</ele><time>2026-04-30T07:39:07.999Z</time></trkpt><trkpt lat="37.470470648859134" lon="14.172081698771953"><ele>339.6666666666667</ele><time>2026-04-30T07:39:08.999Z</time></trkpt><trkpt lat="37.47062397972211" lon="14.171996318825105"><ele>338.0</ele><time>2026-04-30T07:39:09.999Z</time></trkpt><trkpt lat="37.47075797758545" lon="14.171872973786838"><ele>338.0</ele><time>2026-04-30T07:39:10.999Z</time></trkpt><trkpt lat="37.47087334085445" lon="14.17170763333959"><ele>338.0</ele><time>2026-04-30T07:39:11.999Z</time></trkpt><trkpt lat="37.47097692093665" lon="14.171512854925668"><ele>338.0</ele><time>2026-04-30T07:39:12.999Z</time></trkpt><trkpt lat="37.47106329027131" lon="14.17128221877884"><ele>335.6666666666667</ele><time>2026-04-30T07:39:13.999Z</time></trkpt><trkpt lat="37.47114673564603" lon="14.171039960400536"><ele>333.3333333333333</ele><time>2026-04-30T07:39:14.999Z</time></trkpt><trkpt lat="37.47123813283691" lon="14.170810335304573"><ele>331.0</ele><time>2026-04-30T07:39:15.999Z</time></trkpt><trkpt lat="37.47133696536597" lon="14.170585645511379"><ele>330.3333333333333</ele><time>2026-04-30T07:39:16.999Z</time></trkpt><trkpt lat="37.47142802578877" lon="14.170368712552758"><ele>329.6666666666667</ele><time>2026-04-30T07:39:17.999Z</time></trkpt><trkpt lat="37.471519222816" lon="14.170151131000287"><ele>329.0</ele><time>2026-04-30T07:39:18.999Z</time></trkpt><trkpt lat="37.47161129876362" lon="14.169933649256052"><ele>329.33333333333337</ele><time>2026-04-30T07:39:19.999Z</time></trkpt><trkpt lat="37.471698401194246" lon="14.16971852101447"><ele>329.6666666666667</ele><time>2026-04-30T07:39:20.999Z</time></trkpt><trkpt lat="37.47178199212401" lon="14.169506385317227"><ele>330.0</ele><time>2026-04-30T07:39:21.999Z</time></trkpt><trkpt lat="37.47186827207404" lon="14.169297191670552"><ele>330.0</ele><time>2026-04-30T07:39:22.999Z</time></trkpt><trkpt lat="37.4719571517384" lon="14.169090673351384"><ele>330.0</ele><time>2026-04-30T07:39:23.999Z</time></trkpt><trkpt lat="37.47204145917431" lon="14.168885478422315"><ele>330.0</ele><time>2026-04-30T07:39:24.999Z</time></trkpt><trkpt lat="37.47212211644027" lon="14.168682308075054"><ele>327.6666666666667</ele><time>2026-04-30T07:39:25.999Z</time></trkpt><trkpt lat="37.472200397935694" lon="14.168479361450228"><ele>325.33333333333337</ele><time>2026-04-30T07:39:26.999Z</time></trkpt><trkpt lat="37.47227785849681" lon="14.168275507146769"><ele>323.0</ele><time>2026-04-30T07:39:27.999Z</time></trkpt><trkpt lat="37.47235901778077" lon="14.168073660902133"><ele>323.0</ele><time>2026-04-30T07:39:28.999Z</time></trkpt><trkpt lat="37.47243726124839" lon="14.167863351178498"><ele>323.0</ele><time>2026-04-30T07:39:29.999Z</time></trkpt><trkpt lat="37.47251026775868" lon="14.167646462095224"><ele>323.0</ele><time>2026-04-30T07:39:30.999Z</time></trkpt><trkpt lat="37.4725831740002" lon="14.167427093560768"><ele>320.6666666666667</ele><time>2026-04-30T07:39:31.999Z</time></trkpt><trkpt lat="37.47264287866064" lon="14.167196905920978"><ele>318.3333333333333</ele><time>2026-04-30T07:39:32.999Z</time></trkpt><trkpt lat="37.472701741679884" lon="14.166966547157095"><ele>316.0</ele><time>2026-04-30T07:39:33.999Z</time></trkpt><trkpt lat="37.47276417280206" lon="14.166730861733463"><ele>314.66666666666663</ele><time>2026-04-30T07:39:34.999Z</time></trkpt><trkpt lat="37.47283015848385" lon="14.166491040144706"><ele>313.3333333333333</ele><time>2026-04-30T07:39:35.999Z</time></trkpt><trkpt lat="37.47289519254265" lon="14.166246795664794"><ele>312.0</ele><time>2026-04-30T07:39:36.999Z</time></trkpt><trkpt lat="37.47295866148218" lon="14.166001884233152"><ele>311.0</ele><time>2026-04-30T07:39:37.999Z</time></trkpt><trkpt lat="37.47302039958695" lon="14.165771404871732"><ele>310.0</ele><time>2026-04-30T07:39:38.999Z</time></trkpt><trkpt lat="37.4730797900638" lon="14.165548611338918"><ele>309.0</ele><time>2026-04-30T07:39:39.999Z</time></trkpt><trkpt lat="37.473137065889155" lon="14.165338646402034"><ele>309.0</ele><time>2026-04-30T07:39:40.999Z</time></trkpt><trkpt lat="37.47319933677287" lon="14.165144677422516"><ele>309.0</ele><time>2026-04-30T07:39:41.999Z</time></trkpt><trkpt lat="37.473278050610936" lon="14.164978964720458"><ele>309.0</ele><time>2026-04-30T07:39:42.999Z</time></trkpt><trkpt lat="37.473383521222424" lon="14.164835027896775"><ele>308.6666666666667</ele><time>2026-04-30T07:39:43.999Z</time></trkpt><trkpt lat="37.47351126773236" lon="14.164705002178318"><ele>308.33333333333337</ele><time>2026-04-30T07:39:44.999Z</time></trkpt><trkpt lat="37.47364806117097" lon="14.164601436791642"><ele>308.0</ele><time>2026-04-30T07:39:45.999Z</time></trkpt><trkpt lat="37.473803608004275" lon="14.164539609709191"><ele>308.0</ele><time>2026-04-30T07:39:46.999Z</time></trkpt><trkpt lat="37.4739703078479" lon="14.164505210631535"><ele>308.0</ele><time>2026-04-30T07:39:47.999Z</time></trkpt><trkpt lat="37.47413633863619" lon="14.1645071513102"><ele>308.0</ele><time>2026-04-30T07:39:48.999Z</time></trkpt><trkpt lat="37.47429627267875" lon="14.164532386485732"><ele>308.0</ele><time>2026-04-30T07:39:49.999Z</time></trkpt><trkpt lat="37.47445495297011" lon="14.164548784192956"><ele>308.0</ele><time>2026-04-30T07:39:50.999Z</time></trkpt><trkpt lat="37.474616430578685" lon="14.16456081483938"><ele>308.0</ele><time>2026-04-30T07:39:51.999Z</time></trkpt><trkpt lat="37.474769849222106" lon="14.16456375128308"><ele>307.0</ele><time>2026-04-30T07:39:52.999Z</time></trkpt><trkpt lat="37.474908336642656" lon="14.164559083534009"><ele>306.0</ele><time>2026-04-30T07:39:53.999Z</time></trkpt><trkpt lat="37.47504722378485" lon="14.164528347057175"><ele>305.0</ele><time>2026-04-30T07:39:54.999Z</time></trkpt><trkpt lat="37.475194008213904" lon="14.164462144079693"><ele>304.0</ele><time>2026-04-30T07:39:55.999Z</time></trkpt><trkpt lat="37.47533305518514" lon="14.164377970798174"><ele>300.3333333333333</ele><time>2026-04-30T07:39:56.999Z</time></trkpt><trkpt lat="37.47546546634341" lon="14.164278180368065"><ele>296.6666666666667</ele><time>2026-04-30T07:39:57.999Z</time></trkpt><trkpt lat="37.475587602288016" lon="14.16414657771858"><ele>293.0</ele><time>2026-04-30T07:39:58.999Z</time></trkpt><trkpt lat="37.47569549985677" lon="14.163990049008362"><ele>293.0</ele><time>2026-04-30T07:39:59.999Z</time></trkpt><trkpt lat="37.475780758173244" lon="14.163823672472773"><ele>293.0</ele><time>2026-04-30T07:40:00.999Z</time></trkpt><trkpt lat="37.475840336284335" lon="14.163674994243403"><ele>293.0</ele><time>2026-04-30T07:40:01.999Z</time></trkpt><trkpt lat="37.47589036762142" lon="14.163560039602356"><ele>293.0</ele><time>2026-04-30T07:40:02.999Z</time></trkpt><trkpt lat="37.47594526314303" lon="14.16345103136249"><ele>293.0</ele><time>2026-04-30T07:40:03.999Z</time></trkpt><trkpt lat="37.475990774336516" lon="14.163366700762545"><ele>293.0</ele><time>2026-04-30T07:40:04.999Z</time></trkpt><trkpt lat="37.47603169893502" lon="14.163305171834502"><ele>293.0</ele><time>2026-04-30T07:40:06.999Z</time></trkpt><trkpt lat="37.47608326863497" lon="14.163156134219525"><ele>293.0</ele><time>2026-04-30T07:41:16Z</time></trkpt><trkpt lat="37.47615256037974" lon="14.163020268701375"><ele>293.0</ele><time>2026-04-30T07:41:17Z</time></trkpt><trkpt lat="37.47624282333273" lon="14.162836738858745"><ele>292.6666666666667</ele><time>2026-04-30T07:41:18Z</time></trkpt><trkpt lat="37.47634205314718" lon="14.162641850974147"><ele>292.3333333333333</ele><time>2026-04-30T07:41:19Z</time></trkpt><trkpt lat="37.47646881787882" lon="14.162450502106637"><ele>292.0</ele><time>2026-04-30T07:41:20Z</time></trkpt><trkpt lat="37.476624932843855" lon="14.162263884494896"><ele>292.0</ele><time>2026-04-30T07:41:21Z</time></trkpt><trkpt lat="37.476807178261424" lon="14.162095320337277"><ele>292.0</ele><time>2026-04-30T07:41:22Z</time></trkpt><trkpt lat="37.477027895416484" lon="14.161936826998645"><ele>286.0</ele><time>2026-04-30T07:41:22.999Z</time></trkpt><trkpt lat="37.477272447815054" lon="14.161766258614092"><ele>280.0</ele><time>2026-04-30T07:41:23.999Z</time></trkpt><trkpt lat="37.47750385597782" lon="14.161597657573678"><ele>278.0</ele><time>2026-04-30T07:41:24.999Z</time></trkpt><trkpt lat="37.47770314043139" lon="14.16145006986807"><ele>276.0</ele><time>2026-04-30T07:41:25.999Z</time></trkpt><trkpt lat="37.47788712387508" lon="14.161311209061008"><ele>274.0</ele><time>2026-04-30T07:41:26.999Z</time></trkpt><trkpt lat="37.47806002873665" lon="14.161188692520984"><ele>274.0</ele><time>2026-04-30T07:41:27.999Z</time></trkpt><trkpt lat="37.4782124597419" lon="14.161089157813663"><ele>274.0</ele><time>2026-04-30T07:41:28.999Z</time></trkpt><trkpt lat="37.47836073284434" lon="14.161016900861371"><ele>274.0</ele><time>2026-04-30T07:41:29.999Z</time></trkpt><trkpt lat="37.47851720260468" lon="14.160964678515535"><ele>274.0</ele><time>2026-04-30T07:41:30.999Z</time></trkpt><trkpt lat="37.47868060548232" lon="14.160909433932652"><ele>274.0</ele><time>2026-04-30T07:41:31.999Z</time></trkpt><trkpt lat="37.47884519728945" lon="14.160840648598837"><ele>274.0</ele><time>2026-04-30T07:41:32.999Z</time></trkpt><trkpt lat="37.47900207388575" lon="14.160787381449685"><ele>271.0</ele><time>2026-04-30T07:41:33.999Z</time></trkpt><trkpt lat="37.47915847043194" lon="14.160733371076939"><ele>268.0</ele><time>2026-04-30T07:41:34.999Z</time></trkpt><trkpt lat="37.479304204070026" lon="14.160677079065868"><ele>265.0</ele><time>2026-04-30T07:41:35.999Z</time></trkpt><trkpt lat="37.47944328579359" lon="14.16063132417579"><ele>265.0</ele><time>2026-04-30T07:41:36.999Z</time></trkpt><trkpt lat="37.4795815453913" lon="14.16060289166611"><ele>265.0</ele><time>2026-04-30T07:41:37.999Z</time></trkpt><trkpt lat="37.479728325780755" lon="14.160596910323289"><ele>265.0</ele><time>2026-04-30T07:41:38.999Z</time></trkpt><trkpt lat="37.47986701388587" lon="14.160619661483738"><ele>265.0</ele><time>2026-04-30T07:41:39.999Z</time></trkpt><trkpt lat="37.48000286092045" lon="14.16066381933197"><ele>265.0</ele><time>2026-04-30T07:41:40.999Z</time></trkpt><trkpt lat="37.48013416436881" lon="14.160724062932351"><ele>265.0</ele><time>2026-04-30T07:41:41.999Z</time></trkpt><trkpt lat="37.48026648795841" lon="14.160785238469021"><ele>265.0</ele><time>2026-04-30T07:41:42.999Z</time></trkpt><trkpt lat="37.480399062426834" lon="14.160848895896882"><ele>265.0</ele><time>2026-04-30T07:41:43.999Z</time></trkpt><trkpt lat="37.48052660622465" lon="14.160926978231904"><ele>265.0</ele><time>2026-04-30T07:41:44.999Z</time></trkpt><trkpt lat="37.48062812348386" lon="14.161036813338297"><ele>265.0</ele><time>2026-04-30T07:41:45.999Z</time></trkpt><trkpt lat="37.48071706393299" lon="14.161150523252086"><ele>265.0</ele><time>2026-04-30T07:41:46.999Z</time></trkpt><trkpt lat="37.48081363981097" lon="14.161245186890916"><ele>265.0</ele><time>2026-04-30T07:41:47.999Z</time></trkpt><trkpt lat="37.48092348564767" lon="14.161312070591126"><ele>265.0</ele><time>2026-04-30T07:41:48.999Z</time></trkpt><trkpt lat="37.48104260572053" lon="14.161349491852187"><ele>265.0</ele><time>2026-04-30T07:41:49.999Z</time></trkpt><trkpt lat="37.48117014221292" lon="14.161364808321073"><ele>265.0</ele><time>2026-04-30T07:41:50.999Z</time></trkpt><trkpt lat="37.48130044733474" lon="14.161360038625208"><ele>265.0</ele><time>2026-04-30T07:41:51.999Z</time></trkpt><trkpt lat="37.48143454527612" lon="14.161333746822935"><ele>265.75</ele><time>2026-04-30T07:41:52.999Z</time></trkpt><trkpt lat="37.481571211830584" lon="14.161288962691758"><ele>266.5</ele><time>2026-04-30T07:41:53.999Z</time></trkpt><trkpt lat="37.481707221970886" lon="14.161220562026571"><ele>267.25</ele><time>2026-04-30T07:41:54.999Z</time></trkpt><trkpt lat="37.481841718092056" lon="14.161137326110866"><ele>268.0</ele><time>2026-04-30T07:41:55.999Z</time></trkpt><trkpt lat="37.48198067473656" lon="14.161049150604367"><ele>268.3333333333333</ele><time>2026-04-30T07:41:56.999Z</time></trkpt><trkpt lat="37.48212644010443" lon="14.16096155424021"><ele>268.6666666666667</ele><time>2026-04-30T07:41:57.999Z</time></trkpt><trkpt lat="37.48227939683457" lon="14.160876860206042"><ele>269.0</ele><time>2026-04-30T07:41:58.999Z</time></trkpt><trkpt lat="37.48243451357616" lon="14.16078946674049"><ele>269.0</ele><time>2026-04-30T07:41:59.999Z</time></trkpt><trkpt lat="37.482592618544786" lon="14.160700849550766"><ele>269.0</ele><time>2026-04-30T07:42:00.999Z</time></trkpt><trkpt lat="37.48275202944376" lon="14.160608449771972"><ele>269.0</ele><time>2026-04-30T07:42:01.999Z</time></trkpt><trkpt lat="37.482912150654755" lon="14.160515791741503"><ele>267.33333333333337</ele><time>2026-04-30T07:42:02.999Z</time></trkpt><trkpt lat="37.48307156617067" lon="14.160424072610724"><ele>265.6666666666667</ele><time>2026-04-30T07:42:03.999Z</time></trkpt><trkpt lat="37.48323000923647" lon="14.160325790644624"><ele>264.0</ele><time>2026-04-30T07:42:04.999Z</time></trkpt><trkpt lat="37.48338793997756" lon="14.160221111513247"><ele>264.0</ele><time>2026-04-30T07:42:05.999Z</time></trkpt><trkpt lat="37.48355184028946" lon="14.160103592679086"><ele>264.0</ele><time>2026-04-30T07:42:06.999Z</time></trkpt><trkpt lat="37.48372263717487" lon="14.159969123707784"><ele>264.0</ele><time>2026-04-30T07:42:07.999Z</time></trkpt><trkpt lat="37.48389777637667" lon="14.159815924595172"><ele>264.6666666666667</ele><time>2026-04-30T07:42:08.999Z</time></trkpt><trkpt lat="37.4840654225305" lon="14.15965485995429"><ele>265.33333333333337</ele><time>2026-04-30T07:42:09.999Z</time></trkpt><trkpt lat="37.484225757211455" lon="14.159490169253123"><ele>266.0</ele><time>2026-04-30T07:42:10.999Z</time></trkpt><trkpt lat="37.4843820728317" lon="14.159334054416433"><ele>266.0</ele><time>2026-04-30T07:42:11.999Z</time></trkpt><trkpt lat="37.484535535434595" lon="14.159180568996106"><ele>266.0</ele><time>2026-04-30T07:42:12.999Z</time></trkpt><trkpt lat="37.48468664822849" lon="14.159029471466503"><ele>266.0</ele><time>2026-04-30T07:42:13.999Z</time></trkpt><trkpt lat="37.4848393824258" lon="14.158877430911822"><ele>266.6666666666667</ele><time>2026-04-30T07:42:14.999Z</time></trkpt><trkpt lat="37.48499366953774" lon="14.158727865185657"><ele>267.3333333333333</ele><time>2026-04-30T07:42:15.999Z</time></trkpt><trkpt lat="37.48514822310745" lon="14.158576195938481"><ele>268.0</ele><time>2026-04-30T07:42:16.999Z</time></trkpt><trkpt lat="37.485303618952145" lon="14.158422843243793"><ele>268.0</ele><time>2026-04-30T07:42:17.999Z</time></trkpt><trkpt lat="37.48546026801229" lon="14.158267415642612"><ele>268.0</ele><time>2026-04-30T07:42:18.999Z</time></trkpt><trkpt lat="37.48561839764281" lon="14.15811139698081"><ele>268.0</ele><time>2026-04-30T07:42:19.999Z</time></trkpt><trkpt lat="37.48577473028455" lon="14.157955724691854"><ele>268.0</ele><time>2026-04-30T07:42:20.999Z</time></trkpt><trkpt lat="37.485931291662276" lon="14.157798766772215"><ele>268.0</ele><time>2026-04-30T07:42:21.999Z</time></trkpt><trkpt lat="37.486087934877034" lon="14.15764520871245"><ele>268.0</ele><time>2026-04-30T07:42:22.999Z</time></trkpt><trkpt lat="37.48624407201614" lon="14.15748917964582"><ele>268.0</ele><time>2026-04-30T07:42:23.999Z</time></trkpt><trkpt lat="37.48639783979329" lon="14.157331743862125"><ele>268.0</ele><time>2026-04-30T07:42:24.999Z</time></trkpt><trkpt lat="37.48655083342489" lon="14.157177547342378"><ele>268.0</ele><time>2026-04-30T07:42:25.999Z</time></trkpt><trkpt lat="37.48670444247556" lon="14.15702722000282"><ele>268.0</ele><time>2026-04-30T07:42:26.999Z</time></trkpt><trkpt lat="37.486854495848235" lon="14.156877870669735"><ele>268.0</ele><time>2026-04-30T07:42:27.999Z</time></trkpt><trkpt lat="37.48699202662957" lon="14.156736026013624"><ele>268.0</ele><time>2026-04-30T07:42:28.999Z</time></trkpt><trkpt lat="37.4871157391703" lon="14.156600869899693"><ele>268.3333333333333</ele><time>2026-04-30T07:42:29.999Z</time></trkpt><trkpt lat="37.48723952141896" lon="14.156480241434606"><ele>268.6666666666667</ele><time>2026-04-30T07:42:30.999Z</time></trkpt><trkpt lat="37.48736579393314" lon="14.156361967177196"><ele>269.0</ele><time>2026-04-30T07:42:31.999Z</time></trkpt><trkpt lat="37.48750180992512" lon="14.15623307137955"><ele>269.0</ele><time>2026-04-30T07:42:32.999Z</time></trkpt><trkpt lat="37.48764936774611" lon="14.156089353348861"><ele>269.0</ele><time>2026-04-30T07:42:33.999Z</time></trkpt><trkpt lat="37.48780315267566" lon="14.155935924069528"><ele>269.0</ele><time>2026-04-30T07:42:34.999Z</time></trkpt><trkpt lat="37.48796680738384" lon="14.155774149373912"><ele>270.0</ele><time>2026-04-30T07:42:35.999Z</time></trkpt><trkpt lat="37.488123384724574" lon="14.15560456940873"><ele>271.0</ele><time>2026-04-30T07:42:36.999Z</time></trkpt><trkpt lat="37.48827887982515" lon="14.155447298537776"><ele>272.0</ele><time>2026-04-30T07:42:37.999Z</time></trkpt><trkpt lat="37.48843405952776" lon="14.155297445943518"><ele>272.0</ele><time>2026-04-30T07:42:38.999Z</time></trkpt><trkpt lat="37.48859173555133" lon="14.155139172363134"><ele>272.0</ele><time>2026-04-30T07:42:39.999Z</time></trkpt><trkpt lat="37.48875170779995" lon="14.154974739653921"><ele>272.0</ele><time>2026-04-30T07:42:40.999Z</time></trkpt><trkpt lat="37.48891386029744" lon="14.154811661450614"><ele>271.33333333333337</ele><time>2026-04-30T07:42:41.999Z</time></trkpt><trkpt lat="37.48907744102501" lon="14.154656038424124"><ele>270.6666666666667</ele><time>2026-04-30T07:42:42.999Z</time></trkpt><trkpt lat="37.48923923571938" lon="14.15450256055429"><ele>270.0</ele><time>2026-04-30T07:42:43.999Z</time></trkpt><trkpt lat="37.489395826894736" lon="14.154347006165207"><ele>270.0</ele><time>2026-04-30T07:42:44.999Z</time></trkpt><trkpt lat="37.4895479395309" lon="14.154191010534932"><ele>270.0</ele><time>2026-04-30T07:42:45.999Z</time></trkpt><trkpt lat="37.48970038629091" lon="14.154034078481015"><ele>270.0</ele><time>2026-04-30T07:42:46.999Z</time></trkpt><trkpt lat="37.489859452619235" lon="14.153878131859415"><ele>269.0</ele><time>2026-04-30T07:42:47.999Z</time></trkpt><trkpt lat="37.490026622078666" lon="14.15372079690135"><ele>268.0</ele><time>2026-04-30T07:42:48.999Z</time></trkpt><trkpt lat="37.49019389793163" lon="14.153555599810765"><ele>267.0</ele><time>2026-04-30T07:42:49.999Z</time></trkpt><trkpt lat="37.490360657902514" lon="14.153385370909911"><ele>266.6666666666667</ele><time>2026-04-30T07:42:50.999Z</time></trkpt><trkpt lat="37.490530627400005" lon="14.15321342771154"><ele>266.33333333333337</ele><time>2026-04-30T07:42:51.999Z</time></trkpt><trkpt lat="37.490707496007396" lon="14.153042753479314"><ele>266.0</ele><time>2026-04-30T07:42:52.999Z</time></trkpt><trkpt lat="37.490881209163355" lon="14.152875252032109"><ele>267.33333333333337</ele><time>2026-04-30T07:42:53.999Z</time></trkpt><trkpt lat="37.49105386383165" lon="14.152702360110645"><ele>268.6666666666667</ele><time>2026-04-30T07:42:54.999Z</time></trkpt><trkpt lat="37.49122081227809" lon="14.15252210955059"><ele>270.0</ele><time>2026-04-30T07:42:55.999Z</time></trkpt><trkpt lat="37.491383558989696" lon="14.152339549430325"><ele>270.6666666666667</ele><time>2026-04-30T07:42:56.999Z</time></trkpt><trkpt lat="37.49154433209529" lon="14.152156617774727"><ele>271.33333333333337</ele><time>2026-04-30T07:42:57.999Z</time></trkpt><trkpt lat="37.491701931224206" lon="14.151965544358035"><ele>272.0</ele><time>2026-04-30T07:42:58.999Z</time></trkpt><trkpt lat="37.491850795997046" lon="14.15176322646188"><ele>272.0</ele><time>2026-04-30T07:42:59.999Z</time></trkpt><trkpt lat="37.49199384353427" lon="14.15154986295849"><ele>272.0</ele><time>2026-04-30T07:43:00.999Z</time></trkpt><trkpt lat="37.49213138663549" lon="14.151331484974065"><ele>272.0</ele><time>2026-04-30T07:43:01.999Z</time></trkpt><trkpt lat="37.49225764960235" lon="14.151125974331325"><ele>272.33333333333337</ele><time>2026-04-30T07:43:02.999Z</time></trkpt><trkpt lat="37.49237665175015" lon="14.150942142509356"><ele>272.6666666666667</ele><time>2026-04-30T07:43:03.999Z</time></trkpt><trkpt lat="37.49247181859267" lon="14.150806803353808"><ele>273.0</ele><time>2026-04-30T07:43:04.999Z</time></trkpt><trkpt lat="37.49254995829484" lon="14.150693843822808"><ele>273.3333333333333</ele><time>2026-04-30T07:43:05.999Z</time></trkpt><trkpt lat="37.492612052734025" lon="14.150598151668584"><ele>273.6666666666667</ele><time>2026-04-30T07:43:06.999Z</time></trkpt><trkpt lat="37.49266432746047" lon="14.150524565354708"><ele>274.0</ele><time>2026-04-30T07:43:07.999Z</time></trkpt><trkpt lat="37.492722415683964" lon="14.150478755832962"><ele>274.33333333333337</ele><time>2026-04-30T07:43:08.999Z</time></trkpt><trkpt lat="37.492801190447985" lon="14.150462987221244"><ele>274.6666666666667</ele><time>2026-04-30T07:43:10Z</time></trkpt><trkpt lat="37.49287501482916" lon="14.150485102448735"><ele>275.0</ele><time>2026-04-30T07:43:11Z</time></trkpt><trkpt lat="37.49294783244079" lon="14.150537488727007"><ele>276.5</ele><time>2026-04-30T07:43:12Z</time></trkpt><trkpt lat="37.493001003425825" lon="14.150645263112057"><ele>278.0</ele><time>2026-04-30T07:43:13Z</time></trkpt><trkpt lat="37.49299296230545" lon="14.150821964275933"><ele>279.5</ele><time>2026-04-30T07:43:14Z</time></trkpt><trkpt lat="37.49303972109608" lon="14.15104234380877"><ele>281.0</ele><time>2026-04-30T07:43:15Z</time></trkpt><trkpt lat="37.49309534643324" lon="14.151304512395424"><ele>282.5</ele><time>2026-04-30T07:43:16Z</time></trkpt><trkpt lat="37.493169682896024" lon="14.151594077765491"><ele>284.0</ele><time>2026-04-30T07:43:17Z</time></trkpt><trkpt lat="37.4932465266288" lon="14.151880773749713"><ele>284.0</ele><time>2026-04-30T07:43:18Z</time></trkpt><trkpt lat="37.49334865608776" lon="14.152148889677221"><ele>284.0</ele><time>2026-04-30T07:43:19Z</time></trkpt><trkpt lat="37.49346856262698" lon="14.152381221594268"><ele>282.5</ele><time>2026-04-30T07:43:20Z</time></trkpt><trkpt lat="37.493617266240356" lon="14.152603613316462"><ele>281.0</ele><time>2026-04-30T07:43:21Z</time></trkpt><trkpt lat="37.49378243947485" lon="14.152798206284173"><ele>285.6666666666667</ele><time>2026-04-30T07:43:22Z</time></trkpt><trkpt lat="37.49394194823942" lon="14.152936845306895"><ele>290.3333333333333</ele><time>2026-04-30T07:43:23Z</time></trkpt><trkpt lat="37.494083248725666" lon="14.153039764104653"><ele>295.0</ele><time>2026-04-30T07:43:24Z</time></trkpt><trkpt lat="37.494213057709146" lon="14.153116070639786"><ele>295.0</ele><time>2026-04-30T07:43:25Z</time></trkpt><trkpt lat="37.49433253005674" lon="14.153181274522685"><ele>295.0</ele><time>2026-04-30T07:43:26Z</time></trkpt><trkpt lat="37.494425421264886" lon="14.153208128202017"><ele>295.0</ele><time>2026-04-30T07:43:27Z</time></trkpt><trkpt lat="37.49449042162424" lon="14.153212453818398"><ele>295.0</ele><time>2026-04-30T07:43:28Z</time></trkpt><trkpt lat="37.49452181154261" lon="14.153041972103546"><ele>295.0</ele><time>2026-04-30T07:43:31.999Z</time></trkpt><trkpt lat="37.494451603375644" lon="14.152963740469431"><ele>295.0</ele><time>2026-04-30T07:43:33.999Z</time></trkpt><trkpt lat="37.49439035201218" lon="14.152936003262292"><ele>295.0</ele><time>2026-04-30T07:43:34.999Z</time></trkpt><trkpt lat="37.494327771236954" lon="14.152887805404127"><ele>295.0</ele><time>2026-04-30T07:43:35.999Z</time></trkpt><trkpt lat="37.49425165344283" lon="14.152831959260253"><ele>295.0</ele><time>2026-04-30T07:43:36.999Z</time></trkpt><trkpt lat="37.49417852622799" lon="14.152762912383958"><ele>295.0</ele><time>2026-04-30T07:43:37.999Z</time></trkpt><trkpt lat="37.49412889453774" lon="14.152701049910588"><ele>295.0</ele><time>2026-04-30T07:43:38.999Z</time></trkpt><trkpt lat="37.494039400713014" lon="14.152581669815161"><ele>295.00000000000006</ele><time>2026-04-30T07:43:40.999Z</time></trkpt><trkpt lat="37.494008182461535" lon="14.152490508669677"><ele>295.0</ele><time>2026-04-30T07:43:41.999Z</time></trkpt><trkpt lat="37.49398392394086" lon="14.152398802865044"><ele>295.0</ele><time>2026-04-30T07:43:42.999Z</time></trkpt><trkpt lat="37.4939710634033" lon="14.15231589994309"><ele>295.0</ele><time>2026-04-30T07:43:43.999Z</time></trkpt><trkpt lat="37.49396517408713" lon="14.152224750676002"><ele>295.0</ele><time>2026-04-30T07:43:44.999Z</time></trkpt><trkpt lat="37.49396973396431" lon="14.152135254822786"><ele>295.00000000000006</ele><time>2026-04-30T07:43:45.999Z</time></trkpt><trkpt lat="37.49398653925936" lon="14.15203246038025"><ele>295.0</ele><time>2026-04-30T07:43:46.999Z</time></trkpt><trkpt lat="37.49400583463756" lon="14.151903459242785"><ele>297.75</ele><time>2026-04-30T07:43:47.999Z</time></trkpt><trkpt lat="37.49402227529222" lon="14.151748920684396"><ele>300.5</ele><time>2026-04-30T07:43:48.999Z</time></trkpt><trkpt lat="37.49404004198437" lon="14.151601657304429"><ele>303.25</ele><time>2026-04-30T07:43:49.999Z</time></trkpt><trkpt lat="37.494052302669736" lon="14.151469693784511"><ele>306.0</ele><time>2026-04-30T07:43:50.999Z</time></trkpt><trkpt lat="37.49405950071769" lon="14.151329519195704"><ele>306.8</ele><time>2026-04-30T07:43:51.999Z</time></trkpt><trkpt lat="37.49404797349544" lon="14.151186778743835"><ele>307.6</ele><time>2026-04-30T07:43:52.999Z</time></trkpt><trkpt lat="37.49404294795375" lon="14.151063811751744"><ele>308.4</ele><time>2026-04-30T07:43:53.999Z</time></trkpt><trkpt lat="37.49404713963676" lon="14.150968564333665"><ele>309.2</ele><time>2026-04-30T07:43:54.999Z</time></trkpt><trkpt lat="37.494117808162656" lon="14.150841378100665"><ele>310.0</ele><time>2026-04-30T07:43:56.999Z</time></trkpt><trkpt lat="37.494174090010304" lon="14.150773809653234"><ele>310.0</ele><time>2026-04-30T07:43:57.999Z</time></trkpt><trkpt lat="37.49422641767746" lon="14.150714968878258"><ele>310.0</ele><time>2026-04-30T07:43:58.999Z</time></trkpt><trkpt lat="37.49429021522143" lon="14.150634912688862"><ele>310.0</ele><time>2026-04-30T07:43:59.999Z</time></trkpt><trkpt lat="37.49434813987318" lon="14.150532325098467"><ele>310.0</ele><time>2026-04-30T07:44:00.999Z</time></trkpt><trkpt lat="37.494396021468724" lon="14.150430422322799"><ele>310.0</ele><time>2026-04-30T07:44:01.999Z</time></trkpt><trkpt lat="37.49443829074393" lon="14.150323878737954"><ele>310.0</ele><time>2026-04-30T07:44:02.999Z</time></trkpt><trkpt lat="37.49448600808938" lon="14.150220463419023"><ele>308.2</ele><time>2026-04-30T07:44:03.999Z</time></trkpt><trkpt lat="37.49452261435329" lon="14.150135697576866"><ele>306.4</ele><time>2026-04-30T07:44:04.999Z</time></trkpt><trkpt lat="37.494589036377256" lon="14.150075128870789"><ele>304.6</ele><time>2026-04-30T07:44:06.999Z</time></trkpt><trkpt lat="37.4947206494194" lon="14.150042620125475"><ele>302.8</ele><time>2026-04-30T07:44:08.999Z</time></trkpt><trkpt lat="37.49481188641099" lon="14.14999923976518"><ele>301.0</ele><time>2026-04-30T07:44:09.999Z</time></trkpt><trkpt lat="37.4948910588751" lon="14.149963313036093"><ele>303.6</ele><time>2026-04-30T07:44:10.999Z</time></trkpt><trkpt lat="37.49496891823876" lon="14.149938703163228"><ele>306.20000000000005</ele><time>2026-04-30T07:44:11.999Z</time></trkpt><trkpt lat="37.495088222626194" lon="14.149900637829454"><ele>308.79999999999995</ele><time>2026-04-30T07:44:12.999Z</time></trkpt><trkpt lat="37.495195064963745" lon="14.149868451549644"><ele>311.4</ele><time>2026-04-30T07:44:13.999Z</time></trkpt><trkpt lat="37.4952811158695" lon="14.149855006785256"><ele>314.0</ele><time>2026-04-30T07:44:14.999Z</time></trkpt><trkpt lat="37.49536328508514" lon="14.149852872267143"><ele>317.33333333333337</ele><time>2026-04-30T07:44:15.999Z</time></trkpt><trkpt lat="37.495432886903224" lon="14.149838294474236"><ele>320.6666666666667</ele><time>2026-04-30T07:44:16.999Z</time></trkpt><trkpt lat="37.49550063066708" lon="14.149799303586764"><ele>324.0</ele><time>2026-04-30T07:44:17.999Z</time></trkpt><trkpt lat="37.49556805778113" lon="14.149725360307732"><ele>327.3333333333333</ele><time>2026-04-30T07:44:18.999Z</time></trkpt><trkpt lat="37.49564463567353" lon="14.149621553508762"><ele>330.66666666666663</ele><time>2026-04-30T07:44:19.999Z</time></trkpt><trkpt lat="37.49571311229224" lon="14.149540834263604"><ele>334.0</ele><time>2026-04-30T07:44:20.999Z</time></trkpt><trkpt lat="37.495777841205104" lon="14.14949055432546"><ele>334.0</ele><time>2026-04-30T07:44:21.999Z</time></trkpt><trkpt lat="37.49584901195009" lon="14.14954735390376"><ele>334.0</ele><time>2026-04-30T07:44:22.999Z</time></trkpt><trkpt lat="37.49592820147478" lon="14.149548427136617"><ele>334.0</ele><time>2026-04-30T07:44:23.999Z</time></trkpt><trkpt lat="37.496042135818264" lon="14.149547026138556"><ele>334.0</ele><time>2026-04-30T07:44:24.999Z</time></trkpt><trkpt lat="37.4961610778194" lon="14.149509150586024"><ele>334.0</ele><time>2026-04-30T07:44:25.999Z</time></trkpt><trkpt lat="37.49627351843385" lon="14.149484449112089"><ele>335.6</ele><time>2026-04-30T07:44:26.999Z</time></trkpt><trkpt lat="37.496373084155714" lon="14.149452633050782"><ele>337.2</ele><time>2026-04-30T07:44:27.999Z</time></trkpt><trkpt lat="37.49647459376501" lon="14.14940411385038"><ele>338.8</ele><time>2026-04-30T07:44:28.999Z</time></trkpt><trkpt lat="37.4965742583129" lon="14.1493478356659"><ele>340.40000000000003</ele><time>2026-04-30T07:44:29.999Z</time></trkpt><trkpt lat="37.49665434088917" lon="14.149289893238173"><ele>342.0</ele><time>2026-04-30T07:44:30.999Z</time></trkpt><trkpt lat="37.49674185754289" lon="14.14922035745429"><ele>342.0</ele><time>2026-04-30T07:44:31.999Z</time></trkpt><trkpt lat="37.49685120449358" lon="14.149176483640971"><ele>342.0</ele><time>2026-04-30T07:44:32.999Z</time></trkpt><trkpt lat="37.49694533061972" lon="14.149098624609065"><ele>342.0</ele><time>2026-04-30T07:44:33.999Z</time></trkpt><trkpt lat="37.497043076224486" lon="14.149036159529048"><ele>342.0</ele><time>2026-04-30T07:44:34.999Z</time></trkpt><trkpt lat="37.49714139846165" lon="14.148961424244433"><ele>343.20000000000005</ele><time>2026-04-30T07:44:35.999Z</time></trkpt><trkpt lat="37.49722625913898" lon="14.1488981606966"><ele>344.4</ele><time>2026-04-30T07:44:36.999Z</time></trkpt><trkpt lat="37.497323496953264" lon="14.148822948148636"><ele>345.6</ele><time>2026-04-30T07:44:37.999Z</time></trkpt><trkpt lat="37.49742229937117" lon="14.148798017480868"><ele>346.79999999999995</ele><time>2026-04-30T07:44:38.999Z</time></trkpt><trkpt lat="37.497528400104805" lon="14.14876236740152"><ele>348.0</ele><time>2026-04-30T07:44:39.999Z</time></trkpt><trkpt lat="37.497624157188206" lon="14.148716831394156"><ele>348.0</ele><time>2026-04-30T07:44:40.999Z</time></trkpt><trkpt lat="37.497731017005165" lon="14.148699190639705"><ele>348.0</ele><time>2026-04-30T07:44:41.999Z</time></trkpt><trkpt lat="37.497847016956484" lon="14.14868114440648"><ele>348.0</ele><time>2026-04-30T07:44:42.999Z</time></trkpt><trkpt lat="37.49795436666865" lon="14.148661994716399"><ele>348.0</ele><time>2026-04-30T07:44:43.999Z</time></trkpt><trkpt lat="37.49807474863773" lon="14.148637860476986"><ele>350.5</ele><time>2026-04-30T07:44:44.999Z</time></trkpt><trkpt lat="37.498192435126796" lon="14.14860269156935"><ele>353.0</ele><time>2026-04-30T07:44:45.999Z</time></trkpt><trkpt lat="37.49829572198072" lon="14.148567176056977"><ele>355.5</ele><time>2026-04-30T07:44:46.999Z</time></trkpt><trkpt lat="37.49840104612253" lon="14.14852483122318"><ele>358.0</ele><time>2026-04-30T07:44:47.999Z</time></trkpt><trkpt lat="37.49852168850932" lon="14.148475585065837"><ele>358.0</ele><time>2026-04-30T07:44:48.999Z</time></trkpt><trkpt lat="37.49862276790473" lon="14.148424126874328"><ele>358.0</ele><time>2026-04-30T07:44:49.999Z</time></trkpt><trkpt lat="37.49872910931205" lon="14.148387206917013"><ele>358.0</ele><time>2026-04-30T07:44:50.999Z</time></trkpt><trkpt lat="37.498835107379634" lon="14.148350907990848"><ele>358.0</ele><time>2026-04-30T07:44:51.999Z</time></trkpt><trkpt lat="37.498919846583036" lon="14.148336378732315"><ele>358.0</ele><time>2026-04-30T07:44:52.999Z</time></trkpt><trkpt lat="37.499023252771686" lon="14.148377530062945"><ele>360.0</ele><time>2026-04-30T07:44:54.999Z</time></trkpt><trkpt lat="37.49910060495625" lon="14.148468082544944"><ele>362.0</ele><time>2026-04-30T07:44:56.999Z</time></trkpt><trkpt lat="37.499163923090315" lon="14.148548145341133"><ele>364.0</ele><time>2026-04-30T07:44:57.999Z</time></trkpt><trkpt lat="37.499252348696025" lon="14.14862531800813"><ele>366.0</ele><time>2026-04-30T07:44:58.999Z</time></trkpt><trkpt lat="37.49934068454599" lon="14.148690872569327"><ele>368.0</ele><time>2026-04-30T07:44:59.999Z</time></trkpt><trkpt lat="37.499445165618745" lon="14.148763426150087"><ele>368.0</ele><time>2026-04-30T07:45:00.999Z</time></trkpt><trkpt lat="37.49953767869711" lon="14.148839646271126"><ele>368.0</ele><time>2026-04-30T07:45:01.999Z</time></trkpt><trkpt lat="37.499623817238245" lon="14.148912684280186"><ele>368.0</ele><time>2026-04-30T07:45:02.999Z</time></trkpt><trkpt lat="37.499709069475216" lon="14.148976532751973"><ele>368.0</ele><time>2026-04-30T07:45:04Z</time></trkpt><trkpt lat="37.499793078117186" lon="14.149028237319202"><ele>368.0</ele><time>2026-04-30T07:45:05Z</time></trkpt><trkpt lat="37.49986303687462" lon="14.149091637504425"><ele>370.0</ele><time>2026-04-30T07:45:06Z</time></trkpt><trkpt lat="37.499933362495554" lon="14.149147617922674"><ele>372.0</ele><time>2026-04-30T07:45:07Z</time></trkpt><trkpt lat="37.4999757336069" lon="14.14923941198972"><ele>374.0</ele><time>2026-04-30T07:45:08Z</time></trkpt><trkpt lat="37.50001360969309" lon="14.14932598713738"><ele>376.0</ele><time>2026-04-30T07:45:09Z</time></trkpt><trkpt lat="37.500048372338924" lon="14.149420322874613"><ele>378.0</ele><time>2026-04-30T07:45:10Z</time></trkpt><trkpt lat="37.500103085325755" lon="14.149540989042576"><ele>380.0</ele><time>2026-04-30T07:45:11Z</time></trkpt><trkpt lat="37.50019075441562" lon="14.149669159948239"><ele>380.0</ele><time>2026-04-30T07:45:12Z</time></trkpt><trkpt lat="37.500267204380165" lon="14.14979017473602"><ele>380.0</ele><time>2026-04-30T07:45:13Z</time></trkpt><trkpt lat="37.50035172162184" lon="14.149905679171447"><ele>380.0</ele><time>2026-04-30T07:45:14Z</time></trkpt><trkpt lat="37.500413967429196" lon="14.150039707656743"><ele>380.0</ele><time>2026-04-30T07:45:15.001Z</time></trkpt><trkpt lat="37.500481390831766" lon="14.15015476599003"><ele>380.4</ele><time>2026-04-30T07:45:16.001Z</time></trkpt><trkpt lat="37.500566693060684" lon="14.150257201378732"><ele>380.8</ele><time>2026-04-30T07:45:17.001Z</time></trkpt><trkpt lat="37.50063194908383" lon="14.15036167881921"><ele>381.20000000000005</ele><time>2026-04-30T07:45:18.001Z</time></trkpt><trkpt lat="37.500704184642906" lon="14.150428613145488"><ele>381.6</ele><time>2026-04-30T07:45:19.001Z</time></trkpt><trkpt lat="37.50077983432177" lon="14.150493287423727"><ele>382.0</ele><time>2026-04-30T07:45:20.001Z</time></trkpt><trkpt lat="37.5008672220799" lon="14.150564498728285"><ele>382.0</ele><time>2026-04-30T07:45:21.001Z</time></trkpt><trkpt lat="37.50096433401737" lon="14.150640419510163"><ele>382.0</ele><time>2026-04-30T07:45:22.001Z</time></trkpt><trkpt lat="37.501063631767536" lon="14.150722070650975"><ele>382.0</ele><time>2026-04-30T07:45:23.001Z</time></trkpt><trkpt lat="37.501157326219875" lon="14.150796169387156"><ele>382.0</ele><time>2026-04-30T07:45:24.001Z</time></trkpt><trkpt lat="37.50124529798241" lon="14.150857731305278"><ele>382.0</ele><time>2026-04-30T07:45:25.001Z</time></trkpt><trkpt lat="37.50134176964686" lon="14.15092478190226"><ele>383.0</ele><time>2026-04-30T07:45:26.001Z</time></trkpt><trkpt lat="37.50143788804924" lon="14.15098504083822"><ele>384.0</ele><time>2026-04-30T07:45:27.001Z</time></trkpt><trkpt lat="37.50154248029333" lon="14.151043274807794"><ele>385.0</ele><time>2026-04-30T07:45:28.001Z</time></trkpt><trkpt lat="37.50165414005182" lon="14.151097127708747"><ele>386.0</ele><time>2026-04-30T07:45:29.001Z</time></trkpt><trkpt lat="37.50175774983975" lon="14.151140887695522"><ele>386.0</ele><time>2026-04-30T07:45:30.001Z</time></trkpt><trkpt lat="37.50186117141295" lon="14.151201004333101"><ele>386.0</ele><time>2026-04-30T07:45:31.001Z</time></trkpt><trkpt lat="37.50196326835564" lon="14.151259775804208"><ele>386.0</ele><time>2026-04-30T07:45:32.001Z</time></trkpt><trkpt lat="37.50208338227302" lon="14.151312754908082"><ele>386.0</ele><time>2026-04-30T07:45:33.001Z</time></trkpt><trkpt lat="37.50221048568396" lon="14.151347256563874"><ele>385.6</ele><time>2026-04-30T07:45:34.001Z</time></trkpt><trkpt lat="37.50232260187312" lon="14.151373587932689"><ele>385.20000000000005</ele><time>2026-04-30T07:45:35.001Z</time></trkpt><trkpt lat="37.50242172483834" lon="14.15140692759606"><ele>384.79999999999995</ele><time>2026-04-30T07:45:36Z</time></trkpt><trkpt lat="37.50251520317848" lon="14.151439224822301"><ele>384.4</ele><time>2026-04-30T07:45:37Z</time></trkpt><trkpt lat="37.50260009976272" lon="14.15150102373158"><ele>384.0</ele><time>2026-04-30T07:45:38Z</time></trkpt><trkpt lat="37.50269239683097" lon="14.151551918849494"><ele>386.0</ele><time>2026-04-30T07:45:39Z</time></trkpt><trkpt lat="37.50278860522434" lon="14.151604969851041"><ele>388.0</ele><time>2026-04-30T07:45:40Z</time></trkpt><trkpt lat="37.5028766940161" lon="14.151648101114473"><ele>390.0</ele><time>2026-04-30T07:45:41Z</time></trkpt><trkpt lat="37.502955924504796" lon="14.15169409342512"><ele>392.0</ele><time>2026-04-30T07:45:42Z</time></trkpt><trkpt lat="37.50302944430549" lon="14.151748442398164"><ele>394.0</ele><time>2026-04-30T07:45:43Z</time></trkpt><trkpt lat="37.5031214235472" lon="14.151805814947119"><ele>394.0</ele><time>2026-04-30T07:45:44Z</time></trkpt><trkpt lat="37.5032160513439" lon="14.15187454688057"><ele>394.0</ele><time>2026-04-30T07:45:45Z</time></trkpt><trkpt lat="37.503319789166156" lon="14.151948770870069"><ele>394.0</ele><time>2026-04-30T07:45:46Z</time></trkpt><trkpt lat="37.50342961143913" lon="14.151995100444568"><ele>394.0</ele><time>2026-04-30T07:45:47Z</time></trkpt><trkpt lat="37.50351235527998" lon="14.152056842274744"><ele>394.0</ele><time>2026-04-30T07:45:48Z</time></trkpt><trkpt lat="37.50357563163792" lon="14.152138477825662"><ele>394.00000000000006</ele><time>2026-04-30T07:45:49Z</time></trkpt><trkpt lat="37.50364898625419" lon="14.152218746726767"><ele>394.0</ele><time>2026-04-30T07:45:50Z</time></trkpt><trkpt lat="37.503719163280955" lon="14.152288427527981"><ele>394.0</ele><time>2026-04-30T07:45:51Z</time></trkpt><trkpt lat="37.50380720389054" lon="14.152351254725817"><ele>394.0</ele><time>2026-04-30T07:45:52Z</time></trkpt><trkpt lat="37.50386019077341" lon="14.15242845807732"><ele>394.00000000000006</ele><time>2026-04-30T07:45:53Z</time></trkpt><trkpt lat="37.5039224809595" lon="14.152472970094209"><ele>394.0</ele><time>2026-04-30T07:45:54Z</time></trkpt><trkpt lat="37.50396757955241" lon="14.152541513405119"><ele>396.4</ele><time>2026-04-30T07:45:55Z</time></trkpt><trkpt lat="37.5040286378932" lon="14.15260725662862"><ele>398.79999999999995</ele><time>2026-04-30T07:45:56Z</time></trkpt><trkpt lat="37.50410994315766" lon="14.152693518884542"><ele>401.20000000000005</ele><time>2026-04-30T07:45:57Z</time></trkpt><trkpt lat="37.50418288705589" lon="14.152767873122343"><ele>403.6</ele><time>2026-04-30T07:45:58Z</time></trkpt><trkpt lat="37.504252716938566" lon="14.152839053111956"><ele>406.0</ele><time>2026-04-30T07:45:59Z</time></trkpt><trkpt lat="37.5043295332468" lon="14.15291844434182"><ele>406.0</ele><time>2026-04-30T07:46:00Z</time></trkpt><trkpt lat="37.50442349628247" lon="14.153019472269179"><ele>406.0</ele><time>2026-04-30T07:46:01Z</time></trkpt><trkpt lat="37.5045134986462" lon="14.153120493423907"><ele>406.0</ele><time>2026-04-30T07:46:02Z</time></trkpt><trkpt lat="37.504589320320086" lon="14.15321864112802"><ele>406.0</ele><time>2026-04-30T07:46:03Z</time></trkpt><trkpt lat="37.50467398150587" lon="14.153337650886106"><ele>408.5</ele><time>2026-04-30T07:46:04Z</time></trkpt><trkpt lat="37.50477409636041" lon="14.153451835232483"><ele>411.0</ele><time>2026-04-30T07:46:05Z</time></trkpt><trkpt lat="37.50484301994249" lon="14.153550455302604"><ele>413.5</ele><time>2026-04-30T07:46:06Z</time></trkpt><trkpt lat="37.50491069153791" lon="14.153648117797431"><ele>416.0</ele><time>2026-04-30T07:46:07Z</time></trkpt><trkpt lat="37.505000870382986" lon="14.153752125081525"><ele>416.0</ele><time>2026-04-30T07:46:08Z</time></trkpt><trkpt lat="37.505082606405544" lon="14.1538272494776"><ele>416.0</ele><time>2026-04-30T07:46:09Z</time></trkpt><trkpt lat="37.50516593384902" lon="14.153836171826283"><ele>416.0</ele><time>2026-04-30T07:46:10Z</time></trkpt><trkpt lat="37.505235341028396" lon="14.153819615933086"><ele>416.0</ele><time>2026-04-30T07:46:11Z</time></trkpt><trkpt lat="37.50532615975786" lon="14.153809406722019"><ele>416.0</ele><time>2026-04-30T07:46:12Z</time></trkpt><trkpt lat="37.50544437638905" lon="14.153815613921706"><ele>417.0</ele><time>2026-04-30T07:46:13Z</time></trkpt><trkpt lat="37.50557542325802" lon="14.153810464326858"><ele>418.0</ele><time>2026-04-30T07:46:14Z</time></trkpt><trkpt lat="37.50572284227336" lon="14.153827432589813"><ele>419.0</ele><time>2026-04-30T07:46:15Z</time></trkpt><trkpt lat="37.50586792410419" lon="14.15384798108447"><ele>420.0</ele><time>2026-04-30T07:46:16Z</time></trkpt><trkpt lat="37.505992581257786" lon="14.15388567363711"><ele>420.0</ele><time>2026-04-30T07:46:17Z</time></trkpt><trkpt lat="37.5061083335566" lon="14.153877523187619"><ele>420.0</ele><time>2026-04-30T07:46:18Z</time></trkpt><trkpt lat="37.50620606519292" lon="14.153891888170538"><ele>420.0</ele><time>2026-04-30T07:46:19Z</time></trkpt><trkpt lat="37.50628295260524" lon="14.153904662662294"><ele>420.0</ele><time>2026-04-30T07:46:20Z</time></trkpt><trkpt lat="37.50635351541877" lon="14.154012394010278"><ele>420.0</ele><time>2026-04-30T07:46:22Z</time></trkpt><trkpt lat="37.50642244277271" lon="14.154089561757504"><ele>420.8333333333333</ele><time>2026-04-30T07:46:23Z</time></trkpt><trkpt lat="37.50649268716154" lon="14.154168203720893"><ele>421.66666666666663</ele><time>2026-04-30T07:46:24Z</time></trkpt><trkpt lat="37.506563750361686" lon="14.154231365747606"><ele>422.5</ele><time>2026-04-30T07:46:25Z</time></trkpt><trkpt lat="37.50663847553614" lon="14.154265674453002"><ele>423.3333333333333</ele><time>2026-04-30T07:46:26Z</time></trkpt><trkpt lat="37.506712092788185" lon="14.154339682625986"><ele>424.16666666666663</ele><time>2026-04-30T07:46:28Z</time></trkpt><trkpt lat="37.50678070415749" lon="14.15439454259734"><ele>425.0</ele><time>2026-04-30T07:47:34.001Z</time></trkpt><trkpt lat="37.506856562655194" lon="14.154424834847346"><ele>425.0</ele><time>2026-04-30T07:47:36.001Z</time></trkpt><trkpt lat="37.50694042739737" lon="14.154451578702448"><ele>425.0</ele><time>2026-04-30T07:47:38.001Z</time></trkpt><trkpt lat="37.50701515045436" lon="14.154511125649826"><ele>425.0</ele><time>2026-04-30T07:47:40.001Z</time></trkpt><trkpt lat="37.50712508763868" lon="14.154587064392913"><ele>425.0</ele><time>2026-04-30T07:47:42.001Z</time></trkpt><trkpt lat="37.507203186059705" lon="14.154680120562686"><ele>425.0</ele><time>2026-04-30T07:47:44.001Z</time></trkpt><trkpt lat="37.5073126900635" lon="14.154742983217425"><ele>426.49999999999994</ele><time>2026-04-30T07:47:46Z</time></trkpt><trkpt lat="37.507379982448036" lon="14.154789708589904"><ele>428.0</ele><time>2026-04-30T07:47:47Z</time></trkpt><trkpt lat="37.50743757295204" lon="14.154857564322404"><ele>429.5</ele><time>2026-04-30T07:47:48Z</time></trkpt><trkpt lat="37.50749604116247" lon="14.154901827999966"><ele>431.0</ele><time>2026-04-30T07:47:49Z</time></trkpt><trkpt lat="37.50755736600298" lon="14.154926264280311"><ele>432.49999999999994</ele><time>2026-04-30T07:47:50Z</time></trkpt><trkpt lat="37.50762979444757" lon="14.154988244022256"><ele>434.0</ele><time>2026-04-30T07:47:51Z</time></trkpt><trkpt lat="37.50770705434707" lon="14.1550482880413"><ele>434.6</ele><time>2026-04-30T07:47:52Z</time></trkpt><trkpt lat="37.507785670392956" lon="14.155118202169572"><ele>435.2</ele><time>2026-04-30T07:47:53Z</time></trkpt><trkpt lat="37.50786706546558" lon="14.155192624817197"><ele>435.80000000000007</ele><time>2026-04-30T07:47:54Z</time></trkpt><trkpt lat="37.50794364885217" lon="14.155268785975416"><ele>436.40000000000003</ele><time>2026-04-30T07:47:55Z</time></trkpt><trkpt lat="37.50802798629694" lon="14.155347959092659"><ele>437.0</ele><time>2026-04-30T07:47:56Z</time></trkpt><trkpt lat="37.50812225002846" lon="14.155433440931699"><ele>438.16666666666663</ele><time>2026-04-30T07:47:57Z</time></trkpt><trkpt lat="37.50820928176527" lon="14.155505878024846"><ele>439.3333333333333</ele><time>2026-04-30T07:47:58Z</time></trkpt><trkpt lat="37.508284148399255" lon="14.155579552508984"><ele>440.5</ele><time>2026-04-30T07:47:59Z</time></trkpt><trkpt lat="37.50835166086355" lon="14.155648631763885"><ele>441.66666666666663</ele><time>2026-04-30T07:48:00Z</time></trkpt><trkpt lat="37.50841624536318" lon="14.15571163711692"><ele>442.8333333333333</ele><time>2026-04-30T07:48:01Z</time></trkpt><trkpt lat="37.508480123568624" lon="14.155761808465938"><ele>444.0</ele><time>2026-04-30T07:48:02Z</time></trkpt><trkpt lat="37.508551296314685" lon="14.155825259567173"><ele>445.0</ele><time>2026-04-30T07:48:03Z</time></trkpt><trkpt lat="37.50861929221065" lon="14.155889804470563"><ele>446.0</ele><time>2026-04-30T07:48:04Z</time></trkpt><trkpt lat="37.50868250990731" lon="14.155956843711177"><ele>447.0</ele><time>2026-04-30T07:48:05Z</time></trkpt><trkpt lat="37.50876467520313" lon="14.15601768243181"><ele>448.0</ele><time>2026-04-30T07:48:06Z</time></trkpt><trkpt lat="37.50884653869476" lon="14.156054543450809"><ele>449.0</ele><time>2026-04-30T07:48:07Z</time></trkpt><trkpt lat="37.50892139746889" lon="14.156102073645638"><ele>450.0</ele><time>2026-04-30T07:48:08Z</time></trkpt><trkpt lat="37.50899529600835" lon="14.156156087290537"><ele>451.0</ele><time>2026-04-30T07:48:09Z</time></trkpt><trkpt lat="37.509072184749165" lon="14.156213265458021"><ele>452.0</ele><time>2026-04-30T07:48:10Z</time></trkpt><trkpt lat="37.509162429908095" lon="14.156293658814944"><ele>453.0</ele><time>2026-04-30T07:48:11Z</time></trkpt><trkpt lat="37.509257382154956" lon="14.156360219365338"><ele>454.0</ele><time>2026-04-30T07:48:12Z</time></trkpt><trkpt lat="37.50934611968884" lon="14.156419259662032"><ele>455.0</ele><time>2026-04-30T07:48:13Z</time></trkpt><trkpt lat="37.50942281341222" lon="14.15647270254025"><ele>455.0</ele><time>2026-04-30T07:48:14Z</time></trkpt><trkpt lat="37.5094984965941" lon="14.156535100819625"><ele>455.0</ele><time>2026-04-30T07:48:15Z</time></trkpt><trkpt lat="37.50957156596134" lon="14.156611498688093"><ele>455.0</ele><time>2026-04-30T07:48:16Z</time></trkpt><trkpt lat="37.50963602687685" lon="14.156694511170288"><ele>455.0</ele><time>2026-04-30T07:48:17Z</time></trkpt><trkpt lat="37.50969215761462" lon="14.156779080838335"><ele>455.0</ele><time>2026-04-30T07:48:18Z</time></trkpt><trkpt lat="37.50975810395597" lon="14.15688516856205"><ele>457.0</ele><time>2026-04-30T07:48:19Z</time></trkpt><trkpt lat="37.50984213030046" lon="14.157015942140559"><ele>459.0</ele><time>2026-04-30T07:48:20Z</time></trkpt><trkpt lat="37.50993577193818" lon="14.157130069618685"><ele>461.0</ele><time>2026-04-30T07:48:21Z</time></trkpt><trkpt lat="37.510026890074265" lon="14.157225528301918"><ele>463.0</ele><time>2026-04-30T07:48:22Z</time></trkpt><trkpt lat="37.510115590810976" lon="14.157332679306448"><ele>463.5</ele><time>2026-04-30T07:48:23Z</time></trkpt><trkpt lat="37.510200277064364" lon="14.157440380568325"><ele>464.0</ele><time>2026-04-30T07:48:24Z</time></trkpt><trkpt lat="37.51028940165037" lon="14.157558079069158"><ele>464.5</ele><time>2026-04-30T07:48:25Z</time></trkpt><trkpt lat="37.510378607737486" lon="14.157663623665192"><ele>465.0</ele><time>2026-04-30T07:48:26Z</time></trkpt><trkpt lat="37.51044524129604" lon="14.157754459398827"><ele>465.2</ele><time>2026-04-30T07:48:27Z</time></trkpt><trkpt lat="37.51049671208168" lon="14.157831940748093"><ele>465.4</ele><time>2026-04-30T07:48:28Z</time></trkpt><trkpt lat="37.51055082711924" lon="14.157923844843367"><ele>465.6</ele><time>2026-04-30T07:48:29Z</time></trkpt><trkpt lat="37.510637846791056" lon="14.158013806421716"><ele>465.8</ele><time>2026-04-30T07:48:30Z</time></trkpt><trkpt lat="37.51074075652887" lon="14.15812185117298"><ele>466.0</ele><time>2026-04-30T07:48:31Z</time></trkpt><trkpt lat="37.5108366249462" lon="14.158235347403554"><ele>467.0</ele><time>2026-04-30T07:48:32Z</time></trkpt><trkpt lat="37.51091715147384" lon="14.158335840229723"><ele>468.0</ele><time>2026-04-30T07:48:33Z</time></trkpt><trkpt lat="37.51099726240337" lon="14.158438084653426"><ele>469.0</ele><time>2026-04-30T07:48:34Z</time></trkpt><trkpt lat="37.51108393804921" lon="14.158533542310968"><ele>470.0</ele><time>2026-04-30T07:48:35Z</time></trkpt><trkpt lat="37.51115897157453" lon="14.158612097357826"><ele>471.0</ele><time>2026-04-30T07:48:36Z</time></trkpt><trkpt lat="37.51123311448377" lon="14.158696107925165"><ele>472.4</ele><time>2026-04-30T07:48:37Z</time></trkpt><trkpt lat="37.511306175383986" lon="14.158771849141141"><ele>473.8</ele><time>2026-04-30T07:48:38Z</time></trkpt><trkpt lat="37.5113804121639" lon="14.158852941463444"><ele>475.19999999999993</ele><time>2026-04-30T07:48:39Z</time></trkpt><trkpt lat="37.51146536219058" lon="14.158916517845007"><ele>476.59999999999997</ele><time>2026-04-30T07:48:40Z</time></trkpt><trkpt lat="37.51156332765376" lon="14.15898991398909"><ele>478.0</ele><time>2026-04-30T07:48:41Z</time></trkpt><trkpt lat="37.5116527042703" lon="14.159050821182134"><ele>478.79999999999995</ele><time>2026-04-30T07:48:42Z</time></trkpt><trkpt lat="37.511746754802225" lon="14.159119099137467"><ele>479.59999999999997</ele><time>2026-04-30T07:48:43Z</time></trkpt><trkpt lat="37.51183836511615" lon="14.15920348236543"><ele>480.40000000000003</ele><time>2026-04-30T07:48:44Z</time></trkpt><trkpt lat="37.51193223572108" lon="14.159286973053462"><ele>481.20000000000005</ele><time>2026-04-30T07:48:45Z</time></trkpt><trkpt lat="37.51201292526148" lon="14.159361382224846"><ele>482.0</ele><time>2026-04-30T07:48:46Z</time></trkpt><trkpt lat="37.51208499515943" lon="14.159428012072013"><ele>484.49999999999994</ele><time>2026-04-30T07:48:47Z</time></trkpt><trkpt lat="37.512151254582335" lon="14.15948898785587"><ele>487.0</ele><time>2026-04-30T07:48:48Z</time></trkpt><trkpt lat="37.512216422169324" lon="14.15952890554934"><ele>489.5</ele><time>2026-04-30T07:48:49Z</time></trkpt><trkpt lat="37.51232142044992" lon="14.159528210263732"><ele>492.0</ele><time>2026-04-30T07:48:51Z</time></trkpt><trkpt lat="37.512379858737745" lon="14.15941373420383"><ele>494.49999999999994</ele><time>2026-04-30T07:48:53Z</time></trkpt><trkpt lat="37.512396508404294" lon="14.159330850247011"><ele>497.0</ele><time>2026-04-30T07:48:54Z</time></trkpt><trkpt lat="37.51241425563178" lon="14.15924919580665"><ele>497.0</ele><time>2026-04-30T07:48:55Z</time></trkpt><trkpt lat="37.51244375698518" lon="14.159178027988133"><ele>497.00000000000006</ele><time>2026-04-30T07:48:56Z</time></trkpt><trkpt lat="37.51252896359244" lon="14.159110669535522"><ele>497.00000000000006</ele><time>2026-04-30T07:48:58Z</time></trkpt><trkpt lat="37.5126437509402" lon="14.159087760157773"><ele>497.0</ele><time>2026-04-30T07:49:00Z</time></trkpt><trkpt lat="37.512712442396165" lon="14.159074776001821"><ele>497.0</ele><time>2026-04-30T07:49:01Z</time></trkpt><trkpt lat="37.51284054092934" lon="14.159074662554126"><ele>496.99999999999994</ele><time>2026-04-30T07:49:03Z</time></trkpt><trkpt lat="37.51290337438788" lon="14.159082021463485"><ele>497.0</ele><time>2026-04-30T07:49:04Z</time></trkpt><trkpt lat="37.51302235640146" lon="14.159076154783454"><ele>497.0</ele><time>2026-04-30T07:49:06Z</time></trkpt><trkpt lat="37.5131053459587" lon="14.159034428764969"><ele>497.0</ele><time>2026-04-30T07:49:07Z</time></trkpt><trkpt lat="37.51318132038404" lon="14.159005619043795"><ele>496.99999999999994</ele><time>2026-04-30T07:49:08Z</time></trkpt><trkpt lat="37.51326046087861" lon="14.158981828035918"><ele>497.0</ele><time>2026-04-30T07:49:09Z</time></trkpt><trkpt lat="37.51332426888225" lon="14.15892776745554"><ele>499.66666666666663</ele><time>2026-04-30T07:49:10Z</time></trkpt><trkpt lat="37.51342643600492" lon="14.158873576509295"><ele>502.3333333333333</ele><time>2026-04-30T07:49:12Z</time></trkpt><trkpt lat="37.51346856929538" lon="14.158809468678768"><ele>505.0</ele><time>2026-04-30T07:49:13Z</time></trkpt><trkpt lat="37.513514960913994" lon="14.158714287311778"><ele>507.66666666666663</ele><time>2026-04-30T07:49:14Z</time></trkpt><trkpt lat="37.513551812248245" lon="14.158630535364862"><ele>510.3333333333333</ele><time>2026-04-30T07:49:15Z</time></trkpt><trkpt lat="37.513578144698954" lon="14.158556484293754"><ele>513.0</ele><time>2026-04-30T07:49:16Z</time></trkpt><trkpt lat="37.513605476289" lon="14.158418632515119"><ele>513.0</ele><time>2026-04-30T07:49:18Z</time></trkpt><trkpt lat="37.51360935299688" lon="14.158329663579988"><ele>513.0</ele><time>2026-04-30T07:49:19Z</time></trkpt><trkpt lat="37.51358753444607" lon="14.158173947289225"><ele>513.0</ele><time>2026-04-30T07:49:21Z</time></trkpt><trkpt lat="37.51354438053768" lon="14.158049694432847"><ele>513.0</ele><time>2026-04-30T07:49:23Z</time></trkpt><trkpt lat="37.513494444733475" lon="14.157895499996217"><ele>513.0</ele><time>2026-04-30T07:49:25Z</time></trkpt><trkpt lat="37.51346810221265" lon="14.157801990534075"><ele>514.8</ele><time>2026-04-30T07:49:26.001Z</time></trkpt><trkpt lat="37.513461937410916" lon="14.157711210034233"><ele>516.5999999999999</ele><time>2026-04-30T07:49:28.001Z</time></trkpt><trkpt lat="37.513491821623745" lon="14.157600582262411"><ele>518.4000000000001</ele><time>2026-04-30T07:49:30.001Z</time></trkpt><trkpt lat="37.51358644568903" lon="14.15751881591965"><ele>520.2</ele><time>2026-04-30T07:49:32.001Z</time></trkpt><trkpt lat="37.51366973986417" lon="14.157510076306922"><ele>522.0</ele><time>2026-04-30T07:49:35.001Z</time></trkpt><trkpt lat="37.51373815371067" lon="14.157671500355608"><ele>525.3333333333334</ele><time>2026-04-30T07:49:38.001Z</time></trkpt><trkpt lat="37.51376936382881" lon="14.157755413785912"><ele>528.6666666666666</ele><time>2026-04-30T07:49:39.001Z</time></trkpt><trkpt lat="37.51380543216321" lon="14.157850688127997"><ele>532.0</ele><time>2026-04-30T07:49:40.001Z</time></trkpt><trkpt lat="37.513863016349745" lon="14.15794636519205"><ele>535.3333333333333</ele><time>2026-04-30T07:49:42.001Z</time></trkpt><trkpt lat="37.513930506778124" lon="14.157972336489406"><ele>538.6666666666666</ele><time>2026-04-30T07:49:45.001Z</time></trkpt><trkpt lat="37.51399351245488" lon="14.157909818112833"><ele>542.0</ele><time>2026-04-30T07:49:48Z</time></trkpt><trkpt lat="37.51399428654879" lon="14.157829467943422"><ele>542.0</ele><time>2026-04-30T07:49:50Z</time></trkpt><trkpt lat="37.513969388940396" lon="14.157741823858913"><ele>542.0</ele><time>2026-04-30T07:49:52Z</time></trkpt><trkpt lat="37.51394951260845" lon="14.157665945861421"><ele>542.0</ele><time>2026-04-30T07:49:54Z</time></trkpt><trkpt lat="37.51398583430516" lon="14.157561800993978"><ele>542.0</ele><time>2026-04-30T07:49:57Z</time></trkpt><trkpt lat="37.51406162072282" lon="14.157535191278162"><ele>542.0</ele><time>2026-04-30T07:49:59Z</time></trkpt><trkpt lat="37.514125116475164" lon="14.157612229295083"><ele>542.0</ele><time>2026-04-30T07:50:01Z</time></trkpt><trkpt lat="37.514134088553625" lon="14.157748707637186"><ele>542.0</ele><time>2026-04-30T07:50:03Z</time></trkpt><trkpt lat="37.514124852520595" lon="14.157889667321617"><ele>542.0</ele><time>2026-04-30T07:50:05Z</time></trkpt><trkpt lat="37.514138404996515" lon="14.15798797257862"><ele>542.0</ele><time>2026-04-30T07:50:07Z</time></trkpt><trkpt lat="37.514220299837646" lon="14.15803372145191"><ele>542.0</ele><time>2026-04-30T07:50:09Z</time></trkpt><trkpt lat="37.514291636973496" lon="14.157991177689565"><ele>542.0</ele><time>2026-04-30T07:50:11Z</time></trkpt><trkpt lat="37.514310323351914" lon="14.157891622043413"><ele>542.0</ele><time>2026-04-30T07:50:13Z</time></trkpt><trkpt lat="37.5143284771538" lon="14.157777251298599"><ele>542.0</ele><time>2026-04-30T07:50:16Z</time></trkpt><trkpt lat="37.51429542949122" lon="14.157675002687537"><ele>542.0</ele><time>2026-04-30T07:50:18Z</time></trkpt><trkpt lat="37.51434219787771" lon="14.157571701341935"><ele>542.0</ele><time>2026-04-30T07:50:21Z</time></trkpt><trkpt lat="37.51446720893406" lon="14.157546965310562"><ele>542.0</ele><time>2026-04-30T07:50:24Z</time></trkpt><trkpt lat="37.51455336452568" lon="14.157628639397364"><ele>542.0</ele><time>2026-04-30T07:50:26Z</time></trkpt><trkpt lat="37.514641548975845" lon="14.157745381679263"><ele>545.0</ele><time>2026-04-30T07:50:28Z</time></trkpt><trkpt lat="37.51468522892067" lon="14.157806976895673"><ele>548.0</ele><time>2026-04-30T07:50:29Z</time></trkpt><trkpt lat="37.51472182877316" lon="14.157872641847609"><ele>551.0</ele><time>2026-04-30T07:50:30Z</time></trkpt><trkpt lat="37.51476913954497" lon="14.15793555493418"><ele>554.0</ele><time>2026-04-30T07:50:31Z</time></trkpt><trkpt lat="37.514817107643054" lon="14.15799720542536"><ele>557.0</ele><time>2026-04-30T07:50:32Z</time></trkpt><trkpt lat="37.51487018856624" lon="14.158061182302118"><ele>560.0</ele><time>2026-04-30T07:50:33Z</time></trkpt><trkpt lat="37.51493386057157" lon="14.158140194620444"><ele>563.0</ele><time>2026-04-30T07:50:34Z</time></trkpt><trkpt lat="37.51499979086985" lon="14.158215216062088"><ele>563.0</ele><time>2026-04-30T07:50:35Z</time></trkpt><trkpt lat="37.51506546349014" lon="14.15828249250466"><ele>563.0</ele><time>2026-04-30T07:50:36Z</time></trkpt><trkpt lat="37.51512705072298" lon="14.158320907769676"><ele>563.0</ele><time>2026-04-30T07:50:37Z</time></trkpt><trkpt lat="37.51518435216847" lon="14.158355208270908"><ele>563.0</ele><time>2026-04-30T07:50:38Z</time></trkpt><trkpt lat="37.515290560139576" lon="14.158424117767016"><ele>563.0</ele><time>2026-04-30T07:50:40Z</time></trkpt><trkpt lat="37.51538991458028" lon="14.158493996568126"><ele>565.1999999999999</ele><time>2026-04-30T07:50:42Z</time></trkpt><trkpt lat="37.51547593144957" lon="14.158530236508021"><ele>567.4</ele><time>2026-04-30T07:50:44Z</time></trkpt><trkpt lat="37.51555954925991" lon="14.158608828848937"><ele>569.5999999999999</ele><time>2026-04-30T07:50:46Z</time></trkpt><trkpt lat="37.515672922752884" lon="14.158671686488551"><ele>571.8</ele><time>2026-04-30T07:50:48Z</time></trkpt><trkpt lat="37.515737538463405" lon="14.158683982616177"><ele>574.0</ele><time>2026-04-30T07:50:49Z</time></trkpt><trkpt lat="37.515802495096146" lon="14.158705567929776"><ele>574.0</ele><time>2026-04-30T07:50:50Z</time></trkpt><trkpt lat="37.51590964367046" lon="14.158697948157892"><ele>574.0</ele><time>2026-04-30T07:50:52Z</time></trkpt><trkpt lat="37.51598281703589" lon="14.158627824590813"><ele>574.0</ele><time>2026-04-30T07:50:54Z</time></trkpt><trkpt lat="37.516101526266425" lon="14.158494653737339"><ele>574.0</ele><time>2026-04-30T07:50:57Z</time></trkpt><trkpt lat="37.51613894926964" lon="14.158357680964121"><ele>574.0</ele><time>2026-04-30T07:50:59Z</time></trkpt><trkpt lat="37.51609635523735" lon="14.15820930978114"><ele>574.0</ele><time>2026-04-30T07:51:01Z</time></trkpt><trkpt lat="37.516054179444694" lon="14.15811715183473"><ele>574.0</ele><time>2026-04-30T07:51:02Z</time></trkpt><trkpt lat="37.51600216222178" lon="14.158025165168484"><ele>574.0</ele><time>2026-04-30T07:51:03Z</time></trkpt><trkpt lat="37.515933941145306" lon="14.15789516027431"><ele>574.0</ele><time>2026-04-30T07:51:04Z</time></trkpt><trkpt lat="37.515867777713616" lon="14.15778360918893"><ele>576.0</ele><time>2026-04-30T07:51:05Z</time></trkpt><trkpt lat="37.5158172936653" lon="14.15770976463943"><ele>578.0</ele><time>2026-04-30T07:51:06Z</time></trkpt><trkpt lat="37.515771456835594" lon="14.157620774497202"><ele>580.0</ele><time>2026-04-30T07:51:07Z</time></trkpt><trkpt lat="37.51575312564371" lon="14.157531337017412"><ele>582.0</ele><time>2026-04-30T07:51:08Z</time></trkpt><trkpt lat="37.515731199430576" lon="14.157452069127412"><ele>584.0</ele><time>2026-04-30T07:51:09Z</time></trkpt><trkpt lat="37.51570747101872" lon="14.157363312689448"><ele>586.0</ele><time>2026-04-30T07:51:10Z</time></trkpt><trkpt lat="37.51565860410212" lon="14.157261464391553"><ele>589.0</ele><time>2026-04-30T07:51:11Z</time></trkpt><trkpt lat="37.515593435912265" lon="14.157165049507007"><ele>592.0</ele><time>2026-04-30T07:51:12Z</time></trkpt><trkpt lat="37.51554208619641" lon="14.157079884332104"><ele>595.0</ele><time>2026-04-30T07:51:13Z</time></trkpt><trkpt lat="37.515495560187674" lon="14.156996015214416"><ele>598.0</ele><time>2026-04-30T07:51:14Z</time></trkpt><trkpt lat="37.51547358316304" lon="14.156910972297577"><ele>601.0</ele><time>2026-04-30T07:51:16Z</time></trkpt><trkpt lat="37.51551677795519" lon="14.156844606677883"><ele>604.0</ele><time>2026-04-30T07:51:19Z</time></trkpt><trkpt lat="37.51559752619733" lon="14.156992909579765"><ele>604.0</ele><time>2026-04-30T07:51:22Z</time></trkpt><trkpt lat="37.515649130703764" lon="14.157068752323635"><ele>604.0</ele><time>2026-04-30T07:51:23Z</time></trkpt><trkpt lat="37.51573776180075" lon="14.15714097807581"><ele>604.0</ele><time>2026-04-30T07:51:25Z</time></trkpt><trkpt lat="37.51585795141854" lon="14.157171388793586"><ele>604.0</ele><time>2026-04-30T07:51:27Z</time></trkpt><trkpt lat="37.515916439456404" lon="14.157207015188506"><ele>604.0</ele><time>2026-04-30T07:51:28Z</time></trkpt><trkpt lat="37.51597115316671" lon="14.157276939521081"><ele>604.0000000000001</ele><time>2026-04-30T07:51:29Z</time></trkpt><trkpt lat="37.51604184235038" lon="14.157330252537758"><ele>604.0</ele><time>2026-04-30T07:51:30Z</time></trkpt><trkpt lat="37.51611282342091" lon="14.157378537373415"><ele>604.0</ele><time>2026-04-30T07:51:31Z</time></trkpt><trkpt lat="37.51618623772821" lon="14.157406384788684"><ele>604.0</ele><time>2026-04-30T07:51:32.001Z</time></trkpt><trkpt lat="37.516249405123816" lon="14.15744712559534"><ele>604.0</ele><time>2026-04-30T07:51:33.001Z</time></trkpt><trkpt lat="37.51629827725354" lon="14.157507760071287"><ele>604.0000000000001</ele><time>2026-04-30T07:51:34.001Z</time></trkpt><trkpt lat="37.51635576779022" lon="14.157552757666457"><ele>604.0</ele><time>2026-04-30T07:51:35.001Z</time></trkpt><trkpt lat="37.516444080541056" lon="14.157621879708888"><ele>605.4</ele><time>2026-04-30T07:51:37.001Z</time></trkpt><trkpt lat="37.516542150164184" lon="14.157698638385822"><ele>606.8</ele><time>2026-04-30T07:51:39.001Z</time></trkpt><trkpt lat="37.51663961758773" lon="14.157773273908251"><ele>608.2</ele><time>2026-04-30T07:51:41.001Z</time></trkpt><trkpt lat="37.5167305430659" lon="14.15784047322224"><ele>609.6</ele><time>2026-04-30T07:51:43.001Z</time></trkpt><trkpt lat="37.51680913057346" lon="14.15790385507495"><ele>611.0</ele><time>2026-04-30T07:51:45.001Z</time></trkpt><trkpt lat="37.51686961511666" lon="14.15792885433946"><ele>611.0</ele><time>2026-04-30T07:51:46.001Z</time></trkpt><trkpt lat="37.516929574996354" lon="14.157898523785718"><ele>611.0</ele><time>2026-04-30T07:51:47.001Z</time></trkpt><trkpt lat="37.51703124749438" lon="14.157882015486587"><ele>611.0</ele><time>2026-04-30T07:51:49.001Z</time></trkpt><trkpt lat="37.517124941219336" lon="14.157838485850302"><ele>611.0</ele><time>2026-04-30T07:51:51.001Z</time></trkpt><trkpt lat="37.51718674535384" lon="14.157814565269897"><ele>611.0</ele><time>2026-04-30T07:51:52Z</time></trkpt><trkpt lat="37.51725944426145" lon="14.15781134091246"><ele>611.0</ele><time>2026-04-30T07:51:53Z</time></trkpt><trkpt lat="37.517338373868306" lon="14.157819066112145"><ele>614.3333333333333</ele><time>2026-04-30T07:51:54Z</time></trkpt><trkpt lat="37.51741007281678" lon="14.15784721502647"><ele>617.6666666666666</ele><time>2026-04-30T07:51:55Z</time></trkpt><trkpt lat="37.5174777219271" lon="14.157869737556442"><ele>621.0</ele><time>2026-04-30T07:51:56Z</time></trkpt><trkpt lat="37.51753764610337" lon="14.157895191148967"><ele>624.3333333333334</ele><time>2026-04-30T07:51:57Z</time></trkpt><trkpt lat="37.51760247495119" lon="14.157927912885132"><ele>627.6666666666667</ele><time>2026-04-30T07:51:58Z</time></trkpt><trkpt lat="37.51771019095076" lon="14.157988539471031"><ele>631.0</ele><time>2026-04-30T07:52:00Z</time></trkpt><trkpt lat="37.51781006736992" lon="14.158037276510822"><ele>630.6</ele><time>2026-04-30T07:52:02Z</time></trkpt><trkpt lat="37.517912275325635" lon="14.158062452442527"><ele>630.2</ele><time>2026-04-30T07:52:04Z</time></trkpt><trkpt lat="37.51803719519623" lon="14.158144065772625"><ele>629.8</ele><time>2026-04-30T07:52:06Z</time></trkpt><trkpt lat="37.51810494380008" lon="14.158198526092432"><ele>629.4</ele><time>2026-04-30T07:52:07Z</time></trkpt><trkpt lat="37.51816653725032" lon="14.158254114581597"><ele>629.0</ele><time>2026-04-30T07:52:08Z</time></trkpt><trkpt lat="37.51825437420189" lon="14.158363292194927"><ele>629.0</ele><time>2026-04-30T07:52:10Z</time></trkpt><trkpt lat="37.51829958812918" lon="14.15843396296792"><ele>629.0</ele><time>2026-04-30T07:52:11Z</time></trkpt><trkpt lat="37.51835716601364" lon="14.158541587882489"><ele>629.0</ele><time>2026-04-30T07:52:13Z</time></trkpt><trkpt lat="37.51844586602189" lon="14.158639783371994"><ele>629.0</ele><time>2026-04-30T07:55:04Z</time></trkpt><trkpt lat="37.51850213338191" lon="14.158741122952607"><ele>629.0</ele><time>2026-04-30T07:55:05Z</time></trkpt><trkpt lat="37.518567782307" lon="14.158858307040356"><ele>629.0</ele><time>2026-04-30T07:55:06Z</time></trkpt><trkpt lat="37.51862968649878" lon="14.158972181181687"><ele>629.0</ele><time>2026-04-30T07:55:07Z</time></trkpt><trkpt lat="37.51869429015901" lon="14.159081990630222"><ele>629.0</ele><time>2026-04-30T07:55:08Z</time></trkpt><trkpt lat="37.51875672865838" lon="14.159225926418392"><ele>629.0</ele><time>2026-04-30T07:55:09Z</time></trkpt><trkpt lat="37.5188395441229" lon="14.15935636046394"><ele>628.0</ele><time>2026-04-30T07:55:10Z</time></trkpt><trkpt lat="37.51891792241118" lon="14.159505551568344"><ele>627.0</ele><time>2026-04-30T07:55:11Z</time></trkpt><trkpt lat="37.51900631287169" lon="14.15967438126972"><ele>626.0</ele><time>2026-04-30T07:55:12Z</time></trkpt><trkpt lat="37.51908297923238" lon="14.159815249924522"><ele>625.0</ele><time>2026-04-30T07:55:13Z</time></trkpt><trkpt lat="37.519149196257736" lon="14.159923165900935"><ele>625.0</ele><time>2026-04-30T07:55:14Z</time></trkpt><trkpt lat="37.51922366643319" lon="14.160046031272225"><ele>625.0</ele><time>2026-04-30T07:55:15Z</time></trkpt><trkpt lat="37.51931466081498" lon="14.160204507231803"><ele>625.0</ele><time>2026-04-30T07:55:16Z</time></trkpt><trkpt lat="37.51938106092419" lon="14.16033703421137"><ele>625.0</ele><time>2026-04-30T07:55:17Z</time></trkpt><trkpt lat="37.519427555953484" lon="14.160434704495621"><ele>625.0</ele><time>2026-04-30T07:55:18Z</time></trkpt><trkpt lat="37.51946455870646" lon="14.160528084561134"><ele>625.0</ele><time>2026-04-30T07:55:19Z</time></trkpt><trkpt lat="37.51952187493686" lon="14.160634170759765"><ele>625.0</ele><time>2026-04-30T07:55:20Z</time></trkpt><trkpt lat="37.519591067860866" lon="14.160708260216463"><ele>625.0</ele><time>2026-04-30T07:55:21Z</time></trkpt><trkpt lat="37.519641783537715" lon="14.160773883985346"><ele>625.0</ele><time>2026-04-30T07:55:22Z</time></trkpt><trkpt lat="37.51969271000082" lon="14.160827812017851"><ele>625.0</ele><time>2026-04-30T07:55:23Z</time></trkpt><trkpt lat="37.5197574820315" lon="14.160886599637672"><ele>628.8</ele><time>2026-04-30T07:55:24Z</time></trkpt><trkpt lat="37.51981299409896" lon="14.160966291930901"><ele>632.6</ele><time>2026-04-30T07:55:25Z</time></trkpt><trkpt lat="37.51988672504642" lon="14.161046375609345"><ele>636.4000000000001</ele><time>2026-04-30T07:55:26Z</time></trkpt><trkpt lat="37.51997308050788" lon="14.161137338348782"><ele>640.2</ele><time>2026-04-30T07:55:27Z</time></trkpt><trkpt lat="37.52007605076901" lon="14.16120612295944"><ele>644.0</ele><time>2026-04-30T07:55:28Z</time></trkpt><trkpt lat="37.52012959807516" lon="14.16129406602296"><ele>644.0</ele><time>2026-04-30T07:55:29Z</time></trkpt><trkpt lat="37.52016141734789" lon="14.161370282302517"><ele>644.0</ele><time>2026-04-30T07:55:30Z</time></trkpt><trkpt lat="37.520198991952135" lon="14.161448921373204"><ele>644.0</ele><time>2026-04-30T07:55:31Z</time></trkpt><trkpt lat="37.520249799791046" lon="14.161549467564704"><ele>644.0</ele><time>2026-04-30T07:55:32Z</time></trkpt><trkpt lat="37.52030490072073" lon="14.161648401929652"><ele>644.0</ele><time>2026-04-30T07:55:33Z</time></trkpt><trkpt lat="37.52037539218369" lon="14.161764612108923"><ele>644.0</ele><time>2026-04-30T07:55:34Z</time></trkpt><trkpt lat="37.5204513324171" lon="14.1618828951924"><ele>642.25</ele><time>2026-04-30T07:55:35Z</time></trkpt><trkpt lat="37.520530254382955" lon="14.161988712500422"><ele>640.5</ele><time>2026-04-30T07:55:36Z</time></trkpt><trkpt lat="37.52060749969592" lon="14.162087347830203"><ele>638.75</ele><time>2026-04-30T07:55:37Z</time></trkpt><trkpt lat="37.520704421269414" lon="14.16221495263907"><ele>637.0</ele><time>2026-04-30T07:55:38Z</time></trkpt><trkpt lat="37.52080906582255" lon="14.16236920820805"><ele>637.0</ele><time>2026-04-30T07:55:39Z</time></trkpt><trkpt lat="37.52090014895924" lon="14.162503667230316"><ele>637.0</ele><time>2026-04-30T07:55:39.999Z</time></trkpt><trkpt lat="37.520993360474314" lon="14.162600595305786"><ele>637.0</ele><time>2026-04-30T07:55:40.999Z</time></trkpt><trkpt lat="37.52107874166615" lon="14.162694582908394"><ele>637.0</ele><time>2026-04-30T07:55:41.999Z</time></trkpt><trkpt lat="37.52116785786265" lon="14.162772105518327"><ele>641.8</ele><time>2026-04-30T07:55:42.999Z</time></trkpt><trkpt lat="37.521250295057065" lon="14.162833197394145"><ele>646.6</ele><time>2026-04-30T07:55:43.999Z</time></trkpt><trkpt lat="37.52131644266955" lon="14.162872985965004"><ele>651.4</ele><time>2026-04-30T07:55:44.999Z</time></trkpt><trkpt lat="37.52138472233432" lon="14.162912586384824"><ele>656.1999999999999</ele><time>2026-04-30T07:55:45.999Z</time></trkpt><trkpt lat="37.521444984017016" lon="14.16294928251468"><ele>661.0</ele><time>2026-04-30T07:55:46.999Z</time></trkpt><trkpt lat="37.52157876167937" lon="14.162998186709832"><ele>661.0</ele><time>2026-04-30T07:55:48.999Z</time></trkpt><trkpt lat="37.52165348935143" lon="14.16301113934066"><ele>661.0</ele><time>2026-04-30T07:55:49.999Z</time></trkpt><trkpt lat="37.52171988881696" lon="14.163004856103965"><ele>661.0</ele><time>2026-04-30T07:55:50.999Z</time></trkpt><trkpt lat="37.52183755129984" lon="14.162977000084792"><ele>661.0</ele><time>2026-04-30T07:55:53Z</time></trkpt><trkpt lat="37.521906186016636" lon="14.162958341737914"><ele>661.0</ele><time>2026-04-30T07:55:54Z</time></trkpt><trkpt lat="37.52198024114206" lon="14.162938086212199"><ele>661.0</ele><time>2026-04-30T07:55:55Z</time></trkpt><trkpt lat="37.52205257715532" lon="14.162930435258803"><ele>661.6666666666667</ele><time>2026-04-30T07:55:56Z</time></trkpt><trkpt lat="37.52212022971124" lon="14.162926211992946"><ele>662.3333333333334</ele><time>2026-04-30T07:55:57Z</time></trkpt><trkpt lat="37.52218714555973" lon="14.162905309743877"><ele>663.0</ele><time>2026-04-30T07:55:58Z</time></trkpt><trkpt lat="37.52225143186724" lon="14.162872986503276"><ele>663.6666666666666</ele><time>2026-04-30T07:55:59Z</time></trkpt><trkpt lat="37.522333516014804" lon="14.162817783018072"><ele>664.3333333333333</ele><time>2026-04-30T07:56:00Z</time></trkpt><trkpt lat="37.52243478214785" lon="14.162758046182923"><ele>665.0</ele><time>2026-04-30T07:56:01Z</time></trkpt><trkpt lat="37.52253041634213" lon="14.162707147814224"><ele>665.0</ele><time>2026-04-30T07:56:02Z</time></trkpt><trkpt lat="37.52261337043548" lon="14.162670759962001"><ele>665.0</ele><time>2026-04-30T07:56:03Z</time></trkpt><trkpt lat="37.522697478480126" lon="14.162653925759559"><ele>665.0</ele><time>2026-04-30T07:56:04Z</time></trkpt><trkpt lat="37.52277750016061" lon="14.162653370141276"><ele>665.0</ele><time>2026-04-30T07:56:05Z</time></trkpt><trkpt lat="37.52285483568849" lon="14.16265117502059"><ele>665.0</ele><time>2026-04-30T07:56:06Z</time></trkpt><trkpt lat="37.522918421302904" lon="14.16265197508429"><ele>665.0</ele><time>2026-04-30T07:56:07Z</time></trkpt><trkpt lat="37.52303367968544" lon="14.162631544117843"><ele>665.8333333333333</ele><time>2026-04-30T07:56:09Z</time></trkpt><trkpt lat="37.523113074930784" lon="14.162611176952554"><ele>666.6666666666666</ele><time>2026-04-30T07:56:10Z</time></trkpt><trkpt lat="37.5231925987795" lon="14.162594341261478"><ele>667.5</ele><time>2026-04-30T07:56:11Z</time></trkpt><trkpt lat="37.52326572123887" lon="14.162581356781413"><ele>668.3333333333334</ele><time>2026-04-30T07:56:12Z</time></trkpt><trkpt lat="37.523341499026955" lon="14.162583383520815"><ele>669.1666666666667</ele><time>2026-04-30T07:56:13Z</time></trkpt><trkpt lat="37.5234234481174" lon="14.162575700954449"><ele>670.0</ele><time>2026-04-30T07:56:14Z</time></trkpt><trkpt lat="37.523481029955754" lon="14.162622313384956"><ele>670.0</ele><time>2026-04-30T07:56:15Z</time></trkpt><trkpt lat="37.52354752332752" lon="14.16263036396415"><ele>670.0</ele><time>2026-04-30T07:56:16Z</time></trkpt><trkpt lat="37.5236495225" lon="14.16245211772871"><ele>670.0</ele><time>2026-04-30T07:56:17Z</time></trkpt><trkpt lat="37.52373971161298" lon="14.162429820747567"><ele>670.0</ele><time>2026-04-30T07:56:18Z</time></trkpt><trkpt lat="37.523822918206825" lon="14.162402641341439"><ele>670.0</ele><time>2026-04-30T07:56:19Z</time></trkpt><trkpt lat="37.52391217013491" lon="14.162373501662403"><ele>672.0</ele><time>2026-04-30T07:56:20Z</time></trkpt><trkpt lat="37.52400545912831" lon="14.162351146666298"><ele>674.0</ele><time>2026-04-30T07:56:21Z</time></trkpt><trkpt lat="37.52409611254292" lon="14.162331758850483"><ele>676.0</ele><time>2026-04-30T07:56:22Z</time></trkpt><trkpt lat="37.52418201884322" lon="14.162307874160334"><ele>678.0</ele><time>2026-04-30T07:56:24Z</time></trkpt><trkpt lat="37.5242684527562" lon="14.162258129926009"><ele>680.0</ele><time>2026-04-30T07:56:27Z</time></trkpt><trkpt lat="37.524346453008405" lon="14.162161895667431"><ele>680.0</ele><time>2026-04-30T07:56:29Z</time></trkpt><trkpt lat="37.524418247934726" lon="14.162053539531625"><ele>680.0</ele><time>2026-04-30T07:56:31Z</time></trkpt><trkpt lat="37.524482541046766" lon="14.161947617771933"><ele>680.0</ele><time>2026-04-30T07:56:33Z</time></trkpt><trkpt lat="37.52454428600087" lon="14.161871187705243"><ele>680.0</ele><time>2026-04-30T07:56:35Z</time></trkpt><trkpt lat="37.524609635243806" lon="14.161795683049558"><ele>680.0</ele><time>2026-04-30T07:56:37Z</time></trkpt><trkpt lat="37.524668318163535" lon="14.16173422248367"><ele>678.3333333333333</ele><time>2026-04-30T07:56:39Z</time></trkpt><trkpt lat="37.52475370125479" lon="14.161661293370122"><ele>676.6666666666666</ele><time>2026-04-30T07:56:42Z</time></trkpt><trkpt lat="37.52480808860811" lon="14.161616300977823"><ele>675.0</ele><time>2026-04-30T07:56:43Z</time></trkpt><trkpt lat="37.524860761243126" lon="14.161572372784615"><ele>673.3333333333334</ele><time>2026-04-30T07:56:44Z</time></trkpt><trkpt lat="37.52493858162149" lon="14.161501285792575"><ele>671.6666666666667</ele><time>2026-04-30T07:56:46Z</time></trkpt><trkpt lat="37.52502261057744" lon="14.161430810031169"><ele>670.0</ele><time>2026-04-30T07:56:48Z</time></trkpt><trkpt lat="37.52509004484539" lon="14.161366947839197"><ele>670.0</ele><time>2026-04-30T07:56:50Z</time></trkpt><trkpt lat="37.52515874301879" lon="14.161284639351141"><ele>670.0</ele><time>2026-04-30T07:56:52Z</time></trkpt><trkpt lat="37.525265134580074" lon="14.16120995932324"><ele>670.0</ele><time>2026-04-30T07:56:54Z</time></trkpt><trkpt lat="37.52533128920124" lon="14.161160273080114"><ele>670.0</ele><time>2026-04-30T07:56:55Z</time></trkpt><trkpt lat="37.525396445819226" lon="14.161125092725523"><ele>670.0</ele><time>2026-04-30T07:56:56Z</time></trkpt><trkpt lat="37.525487172190466" lon="14.161096370318484"><ele>667.6</ele><time>2026-04-30T07:56:57Z</time></trkpt><trkpt lat="37.52556972276277" lon="14.161082075729535"><ele>665.2</ele><time>2026-04-30T07:56:58Z</time></trkpt><trkpt lat="37.52566077362229" lon="14.16108584948475"><ele>662.8</ele><time>2026-04-30T07:56:59Z</time></trkpt><trkpt lat="37.52574613960607" lon="14.161083042755811"><ele>660.4</ele><time>2026-04-30T07:57:00Z</time></trkpt><trkpt lat="37.5258517680208" lon="14.161076928992166"><ele>658.0</ele><time>2026-04-30T07:57:01.999Z</time></trkpt><trkpt lat="37.525962944094104" lon="14.161099174689523"><ele>658.0</ele><time>2026-04-30T07:57:03.999Z</time></trkpt><trkpt lat="37.526079692294225" lon="14.161149720311156"><ele>658.0</ele><time>2026-04-30T07:57:05.999Z</time></trkpt><trkpt lat="37.52614350941009" lon="14.161167176059992"><ele>658.0</ele><time>2026-04-30T07:57:06.999Z</time></trkpt><trkpt lat="37.526247509743264" lon="14.161164139007626"><ele>658.0</ele><time>2026-04-30T07:57:08.999Z</time></trkpt><trkpt lat="37.52634615244809" lon="14.161106232753083"><ele>658.0</ele><time>2026-04-30T07:57:10.999Z</time></trkpt><trkpt lat="37.52641465085776" lon="14.161059788577651"><ele>656.6666666666667</ele><time>2026-04-30T07:57:11.999Z</time></trkpt><trkpt lat="37.52649112117883" lon="14.161008887085707"><ele>655.3333333333334</ele><time>2026-04-30T07:57:12.999Z</time></trkpt><trkpt lat="37.52655269222133" lon="14.1609744391624"><ele>654.0</ele><time>2026-04-30T07:57:13.999Z</time></trkpt><trkpt lat="37.526617165854134" lon="14.160930389042623"><ele>652.6666666666666</ele><time>2026-04-30T07:57:14.999Z</time></trkpt><trkpt lat="37.52669751238044" lon="14.160901076093483"><ele>651.3333333333333</ele><time>2026-04-30T07:57:15.999Z</time></trkpt><trkpt lat="37.52677949984422" lon="14.16087966784066"><ele>650.0</ele><time>2026-04-30T07:57:16.999Z</time></trkpt><trkpt lat="37.52684070716442" lon="14.160855844173689"><ele>650.0</ele><time>2026-04-30T07:57:17.999Z</time></trkpt><trkpt lat="37.52691364200731" lon="14.16071417007118"><ele>650.0</ele><time>2026-04-30T07:57:19.999Z</time></trkpt><trkpt lat="37.52692581699476" lon="14.160625456055167"><ele>650.0</ele><time>2026-04-30T07:57:20.999Z</time></trkpt><trkpt lat="37.52692786864479" lon="14.160508960103744"><ele>650.0</ele><time>2026-04-30T07:57:21.999Z</time></trkpt><trkpt lat="37.52693299304172" lon="14.160376551537736"><ele>650.0</ele><time>2026-04-30T07:57:22.999Z</time></trkpt><trkpt lat="37.52694511729873" lon="14.160255243318444"><ele>651.2</ele><time>2026-04-30T07:57:23.999Z</time></trkpt><trkpt lat="37.52697071187161" lon="14.160143624478907"><ele>652.4</ele><time>2026-04-30T07:57:24.999Z</time></trkpt><trkpt lat="37.52700026314631" lon="14.160031585456993"><ele>653.5999999999999</ele><time>2026-04-30T07:57:25.999Z</time></trkpt><trkpt lat="37.52703173229036" lon="14.1599153671199"><ele>654.8</ele><time>2026-04-30T07:57:26.999Z</time></trkpt><trkpt lat="37.52709656836659" lon="14.159788490788277"><ele>656.0</ele><time>2026-04-30T07:57:28.999Z</time></trkpt><trkpt lat="37.52715863512396" lon="14.159692228026453"><ele>649.8</ele><time>2026-04-30T07:57:30.999Z</time></trkpt><trkpt lat="37.5271673864894" lon="14.1595876455762"><ele>643.5999999999999</ele><time>2026-04-30T07:57:31.999Z</time></trkpt><trkpt lat="37.527189692859075" lon="14.159461479190226"><ele>637.4</ele><time>2026-04-30T07:57:32.999Z</time></trkpt><trkpt lat="37.52719116564447" lon="14.159356634035703"><ele>631.2</ele><time>2026-04-30T07:57:33.999Z</time></trkpt><trkpt lat="37.52713659937694" lon="14.159231594267414"><ele>625.0</ele><time>2026-04-30T07:57:35.999Z</time></trkpt><trkpt lat="37.52707045898533" lon="14.159175502881563"><ele>624.6666666666667</ele><time>2026-04-30T07:57:37.999Z</time></trkpt><trkpt lat="37.527002352082945" lon="14.15913687967279"><ele>624.3333333333334</ele><time>2026-04-30T07:57:39.999Z</time></trkpt><trkpt lat="37.52693317371628" lon="14.159071740891113"><ele>624.0</ele><time>2026-04-30T07:57:41.999Z</time></trkpt><trkpt lat="37.52687915095086" lon="14.159012033915475"><ele>623.6666666666666</ele><time>2026-04-30T07:57:43.999Z</time></trkpt><trkpt lat="37.52682615090331" lon="14.15896333111966"><ele>623.3333333333333</ele><time>2026-04-30T07:57:46.999Z</time></trkpt><trkpt lat="37.5267585777109" lon="14.158902879989578"><ele>623.0</ele><time>2026-04-30T07:57:50Z</time></trkpt><trkpt lat="37.52671033743914" lon="14.158837781335906"><ele>623.0</ele><time>2026-04-30T07:57:51Z</time></trkpt><trkpt lat="37.526640398991645" lon="14.158785117181088"><ele>623.0</ele><time>2026-04-30T07:57:52Z</time></trkpt><trkpt lat="37.526581105797774" lon="14.158732699247711"><ele>623.0</ele><time>2026-04-30T07:57:53Z</time></trkpt><trkpt lat="37.52649842270276" lon="14.158661954737426"><ele>623.0</ele><time>2026-04-30T07:57:55Z</time></trkpt><trkpt lat="37.526441101354195" lon="14.158596349232818"><ele>623.0</ele><time>2026-04-30T07:57:57Z</time></trkpt><trkpt lat="37.526372148628546" lon="14.158512013576452"><ele>623.0</ele><time>2026-04-30T07:57:59Z</time></trkpt><trkpt lat="37.526303576796145" lon="14.158472155136288"><ele>623.8</ele><time>2026-04-30T07:58:01Z</time></trkpt><trkpt lat="37.52620191297651" lon="14.158414876336362"><ele>624.5999999999999</ele><time>2026-04-30T07:58:03Z</time></trkpt><trkpt lat="37.526138918294095" lon="14.158310874168258"><ele>625.4000000000001</ele><time>2026-04-30T07:58:05Z</time></trkpt><trkpt lat="37.52612805590664" lon="14.158193976739469"><ele>626.2</ele><time>2026-04-30T07:58:07Z</time></trkpt><trkpt lat="37.526146074767674" lon="14.15806025598828"><ele>627.0</ele><time>2026-04-30T07:58:09Z</time></trkpt><trkpt lat="37.52617627860349" lon="14.157948196592098"><ele>627.0</ele><time>2026-04-30T07:58:11Z</time></trkpt><trkpt lat="37.5261993828328" lon="14.157831519897517"><ele>627.0</ele><time>2026-04-30T07:58:13Z</time></trkpt><trkpt lat="37.52621010491923" lon="14.157685987441461"><ele>627.0</ele><time>2026-04-30T07:58:15Z</time></trkpt><trkpt lat="37.52621604359916" lon="14.157522433775542"><ele>627.0</ele><time>2026-04-30T07:58:17Z</time></trkpt><trkpt lat="37.52620085178502" lon="14.15742170450686"><ele>627.0</ele><time>2026-04-30T07:58:18Z</time></trkpt><trkpt lat="37.526144816077604" lon="14.157335012437175"><ele>623.4</ele><time>2026-04-30T07:58:20Z</time></trkpt><trkpt lat="37.526070541111345" lon="14.157259547247136"><ele>619.8000000000001</ele><time>2026-04-30T07:58:22Z</time></trkpt><trkpt lat="37.52602544721168" lon="14.15719749653362"><ele>616.2</ele><time>2026-04-30T07:58:23Z</time></trkpt><trkpt lat="37.52595802531099" lon="14.157105524967683"><ele>612.6</ele><time>2026-04-30T07:58:25Z</time></trkpt><trkpt lat="37.5259135522858" lon="14.15697243345748"><ele>609.0</ele><time>2026-04-30T07:58:27Z</time></trkpt><trkpt lat="37.52584990182596" lon="14.156836946443267"><ele>609.0</ele><time>2026-04-30T07:58:29Z</time></trkpt><trkpt lat="37.52579016418695" lon="14.156765369589719"><ele>609.0</ele><time>2026-04-30T07:58:30Z</time></trkpt><trkpt lat="37.525733081919384" lon="14.156699179915956"><ele>609.0</ele><time>2026-04-30T07:58:31Z</time></trkpt><trkpt lat="37.525664721737854" lon="14.156584625597963"><ele>609.0</ele><time>2026-04-30T07:58:33Z</time></trkpt><trkpt lat="37.525649791873555" lon="14.156505645025065"><ele>609.0</ele><time>2026-04-30T07:58:34Z</time></trkpt><trkpt lat="37.52562829579728" lon="14.156422878395238"><ele>609.0</ele><time>2026-04-30T07:58:35Z</time></trkpt><trkpt lat="37.52560204440714" lon="14.1563486534129"><ele>606.0</ele><time>2026-04-30T07:58:36Z</time></trkpt><trkpt lat="37.52555420552308" lon="14.156184932277704"><ele>603.0</ele><time>2026-04-30T07:58:38Z</time></trkpt><trkpt lat="37.525534951884225" lon="14.156068589917119"><ele>600.0</ele><time>2026-04-30T07:58:39Z</time></trkpt><trkpt lat="37.52550878380374" lon="14.155945562687638"><ele>597.0</ele><time>2026-04-30T07:58:40Z</time></trkpt><trkpt lat="37.52547476554199" lon="14.155830950406738"><ele>594.0</ele><time>2026-04-30T07:58:41Z</time></trkpt><trkpt lat="37.52545194615331" lon="14.155736769638018"><ele>596.0</ele><time>2026-04-30T07:58:42Z</time></trkpt><trkpt lat="37.52548843774394" lon="14.155596971042835"><ele>598.0</ele><time>2026-04-30T07:58:44Z</time></trkpt><trkpt lat="37.52551977037683" lon="14.155512735930625"><ele>600.0</ele><time>2026-04-30T07:58:45Z</time></trkpt><trkpt lat="37.52552599867143" lon="14.155402273923983"><ele>602.0</ele><time>2026-04-30T07:58:47Z</time></trkpt><trkpt lat="37.52542197470676" lon="14.155296592916336"><ele>604.0</ele><time>2026-04-30T07:58:49Z</time></trkpt><trkpt lat="37.52537558346403" lon="14.155218264784095"><ele>604.0</ele><time>2026-04-30T07:58:50Z</time></trkpt><trkpt lat="37.5253403046534" lon="14.15513730532015"><ele>604.0</ele><time>2026-04-30T07:58:51Z</time></trkpt><trkpt lat="37.52529789266976" lon="14.155052763337904"><ele>604.0</ele><time>2026-04-30T07:58:52Z</time></trkpt><trkpt lat="37.525192279445086" lon="14.155005440306347"><ele>604.0</ele><time>2026-04-30T07:58:54Z</time></trkpt><trkpt lat="37.52509873897343" lon="14.154978381145519"><ele>604.0</ele><time>2026-04-30T07:58:56Z</time></trkpt><trkpt lat="37.5250400695721" lon="14.15494559316784"><ele>604.0</ele><time>2026-04-30T07:58:58Z</time></trkpt><trkpt lat="37.5249759868308" lon="14.154896852186974"><ele>601.4</ele><time>2026-04-30T07:59:04Z</time></trkpt><trkpt lat="37.524911439184706" lon="14.154827290816547"><ele>598.8</ele><time>2026-04-30T07:59:06Z</time></trkpt><trkpt lat="37.524871636102155" lon="14.154720651157627"><ele>596.2</ele><time>2026-04-30T07:59:08Z</time></trkpt><trkpt lat="37.52482862881566" lon="14.1546440038097"><ele>593.6</ele><time>2026-04-30T07:59:16Z</time></trkpt><trkpt lat="37.52472602373368" lon="14.154549124252537"><ele>591.0</ele><time>2026-04-30T07:59:19Z</time></trkpt><trkpt lat="37.524684424296694" lon="14.154473582226164"><ele>591.0</ele><time>2026-04-30T07:59:22Z</time></trkpt><trkpt lat="37.52465398361725" lon="14.154398493742638"><ele>591.0</ele><time>2026-04-30T07:59:24Z</time></trkpt><trkpt lat="37.524618060620966" lon="14.154252094526315"><ele>591.0</ele><time>2026-04-30T07:59:26Z</time></trkpt><trkpt lat="37.524586164946264" lon="14.154130740842467"><ele>591.0</ele><time>2026-04-30T07:59:27Z</time></trkpt><trkpt lat="37.52458183164599" lon="14.154032866411601"><ele>591.0</ele><time>2026-04-30T07:59:28Z</time></trkpt><trkpt lat="37.524597282879846" lon="14.153931095436565"><ele>591.8</ele><time>2026-04-30T07:59:29Z</time></trkpt><trkpt lat="37.524618341475545" lon="14.153816491131064"><ele>592.6</ele><time>2026-04-30T07:59:30Z</time></trkpt><trkpt lat="37.52465970417418" lon="14.153716890008313"><ele>593.4</ele><time>2026-04-30T07:59:31Z</time></trkpt><trkpt lat="37.52470273391212" lon="14.15361577519781"><ele>594.2</ele><time>2026-04-30T07:59:32Z</time></trkpt><trkpt lat="37.52474886969536" lon="14.15352043299798"><ele>595.0</ele><time>2026-04-30T07:59:33Z</time></trkpt><trkpt lat="37.52479448506612" lon="14.153417909575117"><ele>595.0</ele><time>2026-04-30T07:59:34Z</time></trkpt><trkpt lat="37.52484043410299" lon="14.15330980922031"><ele>595.0</ele><time>2026-04-30T07:59:35Z</time></trkpt><trkpt lat="37.524869371257076" lon="14.153208520456957"><ele>595.0</ele><time>2026-04-30T07:59:36Z</time></trkpt><trkpt lat="37.52488754636186" lon="14.153106861611269"><ele>595.0</ele><time>2026-04-30T07:59:37Z</time></trkpt><trkpt lat="37.524834795755076" lon="14.152956273970512"><ele>595.0</ele><time>2026-04-30T07:59:39Z</time></trkpt><trkpt lat="37.524809163497956" lon="14.152869273730031"><ele>595.5</ele><time>2026-04-30T07:59:40Z</time></trkpt><trkpt lat="37.52477633495245" lon="14.152777344915936"><ele>596.0</ele><time>2026-04-30T07:59:41Z</time></trkpt><trkpt lat="37.524727299449125" lon="14.152695072573884"><ele>596.5</ele><time>2026-04-30T07:59:42Z</time></trkpt><trkpt lat="37.524666477636025" lon="14.15262472211008"><ele>597.0</ele><time>2026-04-30T07:59:43Z</time></trkpt><trkpt lat="37.524631314398675" lon="14.152549245571764"><ele>597.5</ele><time>2026-04-30T07:59:44Z</time></trkpt><trkpt lat="37.52460678513618" lon="14.152454857098142"><ele>598.0</ele><time>2026-04-30T07:59:45Z</time></trkpt><trkpt lat="37.52455529914897" lon="14.152358990475943"><ele>598.0</ele><time>2026-04-30T07:59:46Z</time></trkpt><trkpt lat="37.52449640307595" lon="14.152267305347916"><ele>598.0</ele><time>2026-04-30T07:59:47Z</time></trkpt><trkpt lat="37.52444198752883" lon="14.152208109959165"><ele>598.0</ele><time>2026-04-30T07:59:48Z</time></trkpt><trkpt lat="37.52439248816991" lon="14.152152368463858"><ele>598.0</ele><time>2026-04-30T07:59:49Z</time></trkpt><trkpt lat="37.52431978659461" lon="14.152069296466934"><ele>598.0</ele><time>2026-04-30T07:59:51Z</time></trkpt><trkpt lat="37.52429795332522" lon="14.151918814386905"><ele>598.0</ele><time>2026-04-30T07:59:53Z</time></trkpt><trkpt lat="37.52422494551511" lon="14.151748958647557"><ele>598.0</ele><time>2026-04-30T07:59:55Z</time></trkpt><trkpt lat="37.52417403384804" lon="14.151639529444406"><ele>598.0</ele><time>2026-04-30T07:59:56Z</time></trkpt><trkpt lat="37.52413535251217" lon="14.151523270681734"><ele>598.0</ele><time>2026-04-30T07:59:57Z</time></trkpt><trkpt lat="37.524094363470816" lon="14.151424557519181"><ele>598.0</ele><time>2026-04-30T07:59:58Z</time></trkpt><trkpt lat="37.52404283923258" lon="14.151360464222323"><ele>595.8</ele><time>2026-04-30T07:59:59Z</time></trkpt><trkpt lat="37.5239831456563" lon="14.151328011204429"><ele>593.5999999999999</ele><time>2026-04-30T08:00:01Z</time></trkpt><trkpt lat="37.524003664030346" lon="14.15124203276618"><ele>591.4000000000001</ele><time>2026-04-30T08:00:04Z</time></trkpt><trkpt lat="37.52411457586362" lon="14.151088042064428"><ele>589.2</ele><time>2026-04-30T08:00:07Z</time></trkpt><trkpt lat="37.524199076559285" lon="14.151020023929586"><ele>587.0</ele><time>2026-04-30T08:00:09Z</time></trkpt><trkpt lat="37.52427504175516" lon="14.15097326437279"><ele>587.0</ele><time>2026-04-30T08:00:11Z</time></trkpt><trkpt lat="37.524361797723685" lon="14.15085491943782"><ele>587.0</ele><time>2026-04-30T08:00:13Z</time></trkpt><trkpt lat="37.52444501098382" lon="14.150797753745483"><ele>587.0</ele><time>2026-04-30T08:00:15Z</time></trkpt><trkpt lat="37.52451735703771" lon="14.150824417685293"><ele>587.0</ele><time>2026-04-30T08:00:17Z</time></trkpt><trkpt lat="37.52456585880434" lon="14.150947546509572"><ele>587.0</ele><time>2026-04-30T08:00:19Z</time></trkpt><trkpt lat="37.524591403113" lon="14.151078256591294"><ele>584.5</ele><time>2026-04-30T08:00:20Z</time></trkpt><trkpt lat="37.52458835958538" lon="14.151171867848513"><ele>582.0</ele><time>2026-04-30T08:00:21Z</time></trkpt><trkpt lat="37.52460641277451" lon="14.15131344763677"><ele>579.5</ele><time>2026-04-30T08:00:23Z</time></trkpt><trkpt lat="37.524662424684465" lon="14.151370099013283"><ele>577.0</ele><time>2026-04-30T08:00:25Z</time></trkpt><trkpt lat="37.52473913923467" lon="14.151330279965048"><ele>574.5</ele><time>2026-04-30T08:00:27Z</time></trkpt><trkpt lat="37.524775697924966" lon="14.151207803275422"><ele>572.0</ele><time>2026-04-30T08:00:29Z</time></trkpt><trkpt lat="37.52474588410634" lon="14.151134473078491"><ele>572.0</ele><time>2026-04-30T08:00:30Z</time></trkpt><trkpt lat="37.524735706273844" lon="14.151052950855501"><ele>572.0</ele><time>2026-04-30T08:00:31Z</time></trkpt><trkpt lat="37.524744997822246" lon="14.150920002289984"><ele>572.0</ele><time>2026-04-30T08:00:32Z</time></trkpt><trkpt lat="37.524773374403495" lon="14.150818283390462"><ele>572.0</ele><time>2026-04-30T08:00:33Z</time></trkpt><trkpt lat="37.52480874036659" lon="14.150731166680668"><ele>572.0</ele><time>2026-04-30T08:00:34Z</time></trkpt><trkpt lat="37.524899017939724" lon="14.150692307589116"><ele>572.0</ele><time>2026-04-30T08:00:36Z</time></trkpt><trkpt lat="37.52499367955521" lon="14.150596257440052"><ele>571.0</ele><time>2026-04-30T08:00:38Z</time></trkpt><trkpt lat="37.52509592983325" lon="14.150583780301163"><ele>570.0</ele><time>2026-04-30T08:00:40Z</time></trkpt><trkpt lat="37.52522101748362" lon="14.150578580412787"><ele>569.0</ele><time>2026-04-30T08:00:41Z</time></trkpt><trkpt lat="37.525312386325666" lon="14.1505759466809"><ele>568.0</ele><time>2026-04-30T08:00:42Z</time></trkpt><trkpt lat="37.52539537882188" lon="14.15058342791438"><ele>567.0</ele><time>2026-04-30T08:00:43Z</time></trkpt><trkpt lat="37.52546120318627" lon="14.150596528459701"><ele>565.2</ele><time>2026-04-30T08:00:44Z</time></trkpt><trkpt lat="37.52556210137814" lon="14.150644864218537"><ele>563.4000000000001</ele><time>2026-04-30T08:00:46Z</time></trkpt><trkpt lat="37.52565520535755" lon="14.150674413548904"><ele>561.5999999999999</ele><time>2026-04-30T08:00:48Z</time></trkpt><trkpt lat="37.525743149206406" lon="14.150648839318157"><ele>559.8</ele><time>2026-04-30T08:00:50Z</time></trkpt><trkpt lat="37.525792905455894" lon="14.150531673161693"><ele>558.0</ele><time>2026-04-30T08:00:52Z</time></trkpt><trkpt lat="37.52582960281014" lon="14.150455774129403"><ele>558.0</ele><time>2026-04-30T08:00:53Z</time></trkpt><trkpt lat="37.52588744822653" lon="14.150359134568877"><ele>558.0</ele><time>2026-04-30T08:00:55Z</time></trkpt><trkpt lat="37.525951565840344" lon="14.150338077927534"><ele>558.0</ele><time>2026-04-30T08:00:56Z</time></trkpt><trkpt lat="37.526020389605186" lon="14.15031737697344"><ele>558.0</ele><time>2026-04-30T08:00:57Z</time></trkpt><trkpt lat="37.52608993589679" lon="14.150297510234271"><ele>558.0</ele><time>2026-04-30T08:00:58Z</time></trkpt><trkpt lat="37.526216684926574" lon="14.150254752647873"><ele>558.0</ele><time>2026-04-30T08:01:00Z</time></trkpt><trkpt lat="37.52629892169898" lon="14.150241894330769"><ele>555.5</ele><time>2026-04-30T08:01:01Z</time></trkpt><trkpt lat="37.52638735224575" lon="14.15022309996083"><ele>553.0</ele><time>2026-04-30T08:01:02Z</time></trkpt><trkpt lat="37.52646975172666" lon="14.150209900155543"><ele>550.5</ele><time>2026-04-30T08:01:03Z</time></trkpt><trkpt lat="37.5265545174087" lon="14.15018430591729"><ele>548.0</ele><time>2026-04-30T08:01:04Z</time></trkpt><trkpt lat="37.52664196721616" lon="14.150168375254946"><ele>545.5</ele><time>2026-04-30T08:01:05Z</time></trkpt><trkpt lat="37.52672217042054" lon="14.150149688720651"><ele>543.0</ele><time>2026-04-30T08:01:06Z</time></trkpt><trkpt lat="37.52680395414474" lon="14.150130155347762"><ele>543.0</ele><time>2026-04-30T08:01:07Z</time></trkpt><trkpt lat="37.52689670251313" lon="14.150109093863657"><ele>543.0</ele><time>2026-04-30T08:01:08Z</time></trkpt><trkpt lat="37.52697676964345" lon="14.15008349537567"><ele>543.0</ele><time>2026-04-30T08:01:09Z</time></trkpt><trkpt lat="37.52706210543957" lon="14.150068309357238"><ele>543.0</ele><time>2026-04-30T08:01:10Z</time></trkpt><trkpt lat="37.527159470256784" lon="14.150058589912476"><ele>543.0</ele><time>2026-04-30T08:01:11Z</time></trkpt><trkpt lat="37.527262282159114" lon="14.150039972332676"><ele>540.8</ele><time>2026-04-30T08:01:12Z</time></trkpt><trkpt lat="37.5273593365287" lon="14.150011178974323"><ele>538.5999999999999</ele><time>2026-04-30T08:01:13Z</time></trkpt><trkpt lat="37.52746046290973" lon="14.149986655990956"><ele>536.4000000000001</ele><time>2026-04-30T08:01:14Z</time></trkpt><trkpt lat="37.52755468784646" lon="14.1499709102666"><ele>534.2</ele><time>2026-04-30T08:01:15Z</time></trkpt><trkpt lat="37.52764176977369" lon="14.149940287316673"><ele>532.0</ele><time>2026-04-30T08:01:16Z</time></trkpt><trkpt lat="37.527725296424855" lon="14.14990943019756"><ele>532.0</ele><time>2026-04-30T08:01:17Z</time></trkpt><trkpt lat="37.52779485289632" lon="14.149890203946883"><ele>532.0</ele><time>2026-04-30T08:01:18Z</time></trkpt><trkpt lat="37.52785215592918" lon="14.149827811532326"><ele>532.0</ele><time>2026-04-30T08:01:20Z</time></trkpt><trkpt lat="37.5278766312643" lon="14.14973797308831"><ele>532.0</ele><time>2026-04-30T08:01:23Z</time></trkpt><trkpt lat="37.52794632621387" lon="14.149726477298334"><ele>532.0</ele><time>2026-04-30T08:01:27Z</time></trkpt><trkpt lat="37.52800292308319" lon="14.149768520671248"><ele>532.0</ele><time>2026-04-30T08:01:29Z</time></trkpt><trkpt lat="37.52808833413506" lon="14.149751896772571"><ele>532.0</ele><time>2026-04-30T08:01:31Z</time></trkpt><trkpt lat="37.52818326746078" lon="14.149713255160274"><ele>530.1666666666667</ele><time>2026-04-30T08:01:33Z</time></trkpt><trkpt lat="37.528287049895894" lon="14.149674946644996"><ele>528.3333333333334</ele><time>2026-04-30T08:01:35Z</time></trkpt><trkpt lat="37.52840686472891" lon="14.149639457757349"><ele>526.5</ele><time>2026-04-30T08:01:37Z</time></trkpt><trkpt lat="37.52847154005807" lon="14.14961602855892"><ele>524.6666666666666</ele><time>2026-04-30T08:01:38Z</time></trkpt><trkpt lat="37.52853601114597" lon="14.14959869962763"><ele>522.8333333333333</ele><time>2026-04-30T08:01:39Z</time></trkpt><trkpt lat="37.52860053298755" lon="14.149585346707712"><ele>521.0</ele><time>2026-04-30T08:01:40Z</time></trkpt><trkpt lat="37.528724367455666" lon="14.149566026403743"><ele>517.0</ele><time>2026-04-30T08:01:42Z</time></trkpt><trkpt lat="37.528835430182816" lon="14.149535070118961"><ele>513.0</ele><time>2026-04-30T08:01:44Z</time></trkpt><trkpt lat="37.52894094335288" lon="14.149486431915678"><ele>509.0</ele><time>2026-04-30T08:01:46Z</time></trkpt><trkpt lat="37.52903272522201" lon="14.149451384887122"><ele>505.0</ele><time>2026-04-30T08:01:48Z</time></trkpt><trkpt lat="37.52913396344854" lon="14.149421027531183"><ele>501.0</ele><time>2026-04-30T08:01:50Z</time></trkpt><trkpt lat="37.52921027908552" lon="14.149372461546363"><ele>501.0</ele><time>2026-04-30T08:01:52Z</time></trkpt><trkpt lat="37.529291675607794" lon="14.149326892029213"><ele>501.0</ele><time>2026-04-30T08:01:54Z</time></trkpt><trkpt lat="37.52936017504785" lon="14.149289956503655"><ele>501.0</ele><time>2026-04-30T08:01:56Z</time></trkpt><trkpt lat="37.52945783626222" lon="14.149244505001464"><ele>501.0</ele><time>2026-04-30T08:02:19Z</time></trkpt><trkpt lat="37.52952414003102" lon="14.149224395025428"><ele>501.0</ele><time>2026-04-30T08:02:20Z</time></trkpt><trkpt lat="37.52959702113104" lon="14.149183380418906"><ele>501.0</ele><time>2026-04-30T08:02:21Z</time></trkpt><trkpt lat="37.52966973499263" lon="14.14914846765683"><ele>499.0</ele><time>2026-04-30T08:02:22Z</time></trkpt><trkpt lat="37.52974591448634" lon="14.149111849234922"><ele>497.0</ele><time>2026-04-30T08:02:23Z</time></trkpt><trkpt lat="37.529810109977234" lon="14.149079297637796"><ele>495.0</ele><time>2026-04-30T08:02:24Z</time></trkpt><trkpt lat="37.52986540704047" lon="14.149038295336103"><ele>493.0</ele><time>2026-04-30T08:02:31Z</time></trkpt><trkpt lat="37.52994789030826" lon="14.148993169218189"><ele>491.0</ele><time>2026-04-30T08:02:36Z</time></trkpt><trkpt lat="37.53000743712823" lon="14.148955033074866"><ele>489.0</ele><time>2026-04-30T08:02:39Z</time></trkpt><trkpt lat="37.530073334137" lon="14.1488728739811"><ele>489.0</ele><time>2026-04-30T08:02:43Z</time></trkpt><trkpt lat="37.530111329770754" lon="14.148770576789028"><ele>489.0</ele><time>2026-04-30T08:02:45Z</time></trkpt><trkpt lat="37.530164124222495" lon="14.148682589743935"><ele>489.0</ele><time>2026-04-30T08:02:47Z</time></trkpt><trkpt lat="37.530166885962736" lon="14.148599569462617"><ele>489.0</ele><time>2026-04-30T08:02:50Z</time></trkpt><trkpt lat="37.530196332868776" lon="14.148685831599074"><ele>489.0</ele><time>2026-04-30T08:05:11Z</time></trkpt><trkpt lat="37.530128178144324" lon="14.148778856267088"><ele>489.0</ele><time>2026-04-30T08:05:15Z</time></trkpt><trkpt lat="37.53029817738424" lon="14.148800574301632"><ele>486.79999999999995</ele><time>2026-04-30T08:05:44Z</time></trkpt><trkpt lat="37.53041539641793" lon="14.148774051843507"><ele>484.59999999999997</ele><time>2026-04-30T08:05:46Z</time></trkpt><trkpt lat="37.53050043887188" lon="14.148739840812073"><ele>482.4</ele><time>2026-04-30T08:05:48Z</time></trkpt><trkpt lat="37.530588550924044" lon="14.148694900834174"><ele>480.2</ele><time>2026-04-30T08:05:50Z</time></trkpt><trkpt lat="37.53069412485925" lon="14.14863361153635"><ele>478.0</ele><time>2026-04-30T08:05:52Z</time></trkpt><trkpt lat="37.5307648254454" lon="14.148591705407325"><ele>478.00000000000006</ele><time>2026-04-30T08:05:53Z</time></trkpt><trkpt lat="37.53083752028816" lon="14.148552493469989"><ele>478.0</ele><time>2026-04-30T08:05:54Z</time></trkpt><trkpt lat="37.53091540722319" lon="14.148524495504482"><ele>478.00000000000006</ele><time>2026-04-30T08:05:55Z</time></trkpt><trkpt lat="37.53098859072121" lon="14.148506701055618"><ele>478.00000000000006</ele><time>2026-04-30T08:05:56Z</time></trkpt><trkpt lat="37.53105426884647" lon="14.148485454035466"><ele>478.0</ele><time>2026-04-30T08:05:57Z</time></trkpt><trkpt lat="37.531117083183254" lon="14.148465852973635"><ele>478.00000000000006</ele><time>2026-04-30T08:05:58Z</time></trkpt><trkpt lat="37.53117936241629" lon="14.148439793561854"><ele>478.00000000000006</ele><time>2026-04-30T08:05:59Z</time></trkpt><trkpt lat="37.53129116518039" lon="14.148401824224582"><ele>473.59999999999997</ele><time>2026-04-30T08:06:01Z</time></trkpt><trkpt lat="37.531381750574454" lon="14.148375092457055"><ele>469.19999999999993</ele><time>2026-04-30T08:06:03Z</time></trkpt><trkpt lat="37.53148877051588" lon="14.148340715721533"><ele>464.8</ele><time>2026-04-30T08:06:05Z</time></trkpt><trkpt lat="37.53158797939546" lon="14.148286428099764"><ele>460.4</ele><time>2026-04-30T08:06:07Z</time></trkpt><trkpt lat="37.53167592414963" lon="14.148250131719628"><ele>456.0</ele><time>2026-04-30T08:06:09Z</time></trkpt><trkpt lat="37.53176415399911" lon="14.148215115069133"><ele>455.5</ele><time>2026-04-30T08:06:11Z</time></trkpt><trkpt lat="37.53185547747285" lon="14.148171988680659"><ele>455.0</ele><time>2026-04-30T08:06:13.001Z</time></trkpt><trkpt lat="37.53195926610941" lon="14.148123283375613"><ele>454.5</ele><time>2026-04-30T08:06:15.001Z</time></trkpt><trkpt lat="37.53206123588278" lon="14.14808402658092"><ele>454.0</ele><time>2026-04-30T08:06:17.001Z</time></trkpt><trkpt lat="37.53212637506461" lon="14.1480594986146"><ele>453.5</ele><time>2026-04-30T08:06:21.001Z</time></trkpt><trkpt lat="37.53216751375907" lon="14.147998382831785"><ele>453.0</ele><time>2026-04-30T08:06:39.001Z</time></trkpt><trkpt lat="37.53222432016719" lon="14.147929642540763"><ele>449.2857142857142</ele><time>2026-04-30T08:06:44Z</time></trkpt><trkpt lat="37.53228313382357" lon="14.147886977612393"><ele>445.57142857142856</ele><time>2026-04-30T08:06:49Z</time></trkpt><trkpt lat="37.5323473386901" lon="14.14783937845578"><ele>441.85714285714283</ele><time>2026-04-30T08:06:54Z</time></trkpt><trkpt lat="37.53241435616951" lon="14.147799711740227"><ele>438.1428571428571</ele><time>2026-04-30T08:06:57Z</time></trkpt><trkpt lat="37.53247995930258" lon="14.1477813653748"><ele>434.42857142857144</ele><time>2026-04-30T08:06:59Z</time></trkpt><trkpt lat="37.53254077261335" lon="14.147753713187946"><ele>430.7142857142857</ele><time>2026-04-30T08:07:01Z</time></trkpt><trkpt lat="37.5326199708476" lon="14.1477256061113"><ele>427.0</ele><time>2026-04-30T08:07:04Z</time></trkpt><trkpt lat="37.53269597540425" lon="14.147681473291902"><ele>427.0</ele><time>2026-04-30T08:07:07Z</time></trkpt><trkpt lat="37.532781928164425" lon="14.147636731904834"><ele>427.00000000000006</ele><time>2026-04-30T08:07:10Z</time></trkpt><trkpt lat="37.53283437798146" lon="14.147590206584965"><ele>427.00000000000006</ele><time>2026-04-30T08:07:13Z</time></trkpt><trkpt lat="37.53274285996227" lon="14.147392285636014"><ele>427.0</ele><time>2026-04-30T08:07:54Z</time></trkpt><trkpt lat="37.53270507845138" lon="14.14730270028793"><ele>427.0</ele><time>2026-04-30T08:07:55Z</time></trkpt><trkpt lat="37.532715452614006" lon="14.147188309429088"><ele>426.8</ele><time>2026-04-30T08:07:56Z</time></trkpt><trkpt lat="37.532694666407565" lon="14.147108631511852"><ele>426.6</ele><time>2026-04-30T08:07:57Z</time></trkpt><trkpt lat="37.53270154903242" lon="14.146946380480232"><ele>426.40000000000003</ele><time>2026-04-30T08:07:59Z</time></trkpt><trkpt lat="37.532726925334316" lon="14.146844825457462"><ele>426.20000000000005</ele><time>2026-04-30T08:08:00Z</time></trkpt><trkpt lat="37.53276782998535" lon="14.146733719084422"><ele>426.0</ele><time>2026-04-30T08:08:01Z</time></trkpt><trkpt lat="37.53280917970955" lon="14.146607957406466"><ele>424.4</ele><time>2026-04-30T08:08:02Z</time></trkpt><trkpt lat="37.53284699314374" lon="14.146484856561191"><ele>422.8</ele><time>2026-04-30T08:08:03Z</time></trkpt><trkpt lat="37.532885209916486" lon="14.146360442798672"><ele>421.2</ele><time>2026-04-30T08:08:04Z</time></trkpt><trkpt lat="37.53291343172947" lon="14.146224194650337"><ele>419.59999999999997</ele><time>2026-04-30T08:08:05Z</time></trkpt><trkpt lat="37.532962051025045" lon="14.146080373702846"><ele>418.0</ele><time>2026-04-30T08:08:06Z</time></trkpt><trkpt lat="37.53302298438112" lon="14.14595347729392"><ele>418.00000000000006</ele><time>2026-04-30T08:08:07Z</time></trkpt><trkpt lat="37.53304412169253" lon="14.145837594014067"><ele>418.0</ele><time>2026-04-30T08:08:08Z</time></trkpt><trkpt lat="37.53308543585464" lon="14.145751058218845"><ele>418.0</ele><time>2026-04-30T08:08:09Z</time></trkpt><trkpt lat="37.533136263562646" lon="14.145685044113177"><ele>418.0</ele><time>2026-04-30T08:08:10Z</time></trkpt><trkpt lat="37.533203272669326" lon="14.145635544455637"><ele>418.00000000000006</ele><time>2026-04-30T08:08:11Z</time></trkpt><trkpt lat="37.533282927432914" lon="14.145582313667797"><ele>418.0</ele><time>2026-04-30T08:08:12Z</time></trkpt><trkpt lat="37.53335036449288" lon="14.145525356672994"><ele>419.1666666666667</ele><time>2026-04-30T08:08:13Z</time></trkpt><trkpt lat="37.53340316810702" lon="14.145459444005139"><ele>420.33333333333337</ele><time>2026-04-30T08:08:14Z</time></trkpt><trkpt lat="37.53343334918228" lon="14.14536894281257"><ele>421.5</ele><time>2026-04-30T08:08:15Z</time></trkpt><trkpt lat="37.53344865552316" lon="14.14527605625984"><ele>422.66666666666663</ele><time>2026-04-30T08:08:16Z</time></trkpt><trkpt lat="37.53341282090633" lon="14.145126521181307"><ele>423.8333333333333</ele><time>2026-04-30T08:08:18Z</time></trkpt><trkpt lat="37.53336968515561" lon="14.145052629677634"><ele>425.0</ele><time>2026-04-30T08:08:19.001Z</time></trkpt><trkpt lat="37.533281643779326" lon="14.145000992064423"><ele>425.0</ele><time>2026-04-30T08:08:20.001Z</time></trkpt><trkpt lat="37.533211533539266" lon="14.144961769236428"><ele>425.0</ele><time>2026-04-30T08:08:21.001Z</time></trkpt><trkpt lat="37.533159483635295" lon="14.144914124674415"><ele>425.0</ele><time>2026-04-30T08:08:22.001Z</time></trkpt><trkpt lat="37.533151263628966" lon="14.14480857666957"><ele>425.0</ele><time>2026-04-30T08:08:24.001Z</time></trkpt><trkpt lat="37.533206342098325" lon="14.1446173643322"><ele>425.0</ele><time>2026-04-30T08:08:26.001Z</time></trkpt><trkpt lat="37.533271280512054" lon="14.144515172023658"><ele>424.99999999999994</ele><time>2026-04-30T08:08:27.001Z</time></trkpt><trkpt lat="37.533294972554394" lon="14.144405574195593"><ele>425.0</ele><time>2026-04-30T08:08:28.001Z</time></trkpt><trkpt lat="37.53333819487967" lon="14.144314923802169"><ele>425.0</ele><time>2026-04-30T08:08:29.001Z</time></trkpt><trkpt lat="37.53336265918013" lon="14.144212127940513"><ele>425.0</ele><time>2026-04-30T08:08:30.001Z</time></trkpt><trkpt lat="37.533383135529704" lon="14.144110065951068"><ele>424.99999999999994</ele><time>2026-04-30T08:08:31.001Z</time></trkpt><trkpt lat="37.533406066367945" lon="14.144009393693606"><ele>425.0</ele><time>2026-04-30T08:08:32.001Z</time></trkpt><trkpt lat="37.53341699142204" lon="14.143911624484613"><ele>424.99999999999994</ele><time>2026-04-30T08:08:33.001Z</time></trkpt><trkpt lat="37.53341194897913" lon="14.14381312661899"><ele>425.0</ele><time>2026-04-30T08:08:34.001Z</time></trkpt><trkpt lat="37.53343863979944" lon="14.143698770429042"><ele>425.0</ele><time>2026-04-30T08:08:35.001Z</time></trkpt><trkpt lat="37.53345334469737" lon="14.143578568059624"><ele>425.0</ele><time>2026-04-30T08:08:36.001Z</time></trkpt><trkpt lat="37.533454235359635" lon="14.14347236237097"><ele>424.99999999999994</ele><time>2026-04-30T08:08:37.001Z</time></trkpt><trkpt lat="37.53344191372001" lon="14.143376497060844"><ele>425.0</ele><time>2026-04-30T08:08:38.001Z</time></trkpt><trkpt lat="37.53342403530863" lon="14.143281773371994"><ele>423.49999999999994</ele><time>2026-04-30T08:08:39.001Z</time></trkpt><trkpt lat="37.533416904075004" lon="14.14317579772559"><ele>422.0</ele><time>2026-04-30T08:08:40.001Z</time></trkpt><trkpt lat="37.53341004173554" lon="14.143078732227263"><ele>420.5</ele><time>2026-04-30T08:08:41.001Z</time></trkpt><trkpt lat="37.53340008019408" lon="14.142983625960326"><ele>419.0</ele><time>2026-04-30T08:08:42.001Z</time></trkpt><trkpt lat="37.53338949962758" lon="14.142885850364458"><ele>417.49999999999994</ele><time>2026-04-30T08:08:43.001Z</time></trkpt><trkpt lat="37.53338466291571" lon="14.142783314361996"><ele>416.0</ele><time>2026-04-30T08:08:44Z</time></trkpt><trkpt lat="37.53338151126587" lon="14.14268404665272"><ele>416.0</ele><time>2026-04-30T08:08:45Z</time></trkpt><trkpt lat="37.53337556028499" lon="14.142600490671155"><ele>416.0</ele><time>2026-04-30T08:08:46Z</time></trkpt><trkpt lat="37.533308886414176" lon="14.142485832753856"><ele>416.0</ele><time>2026-04-30T08:08:48Z</time></trkpt><trkpt lat="37.53318732368116" lon="14.142441511562627"><ele>416.0</ele><time>2026-04-30T08:08:50Z</time></trkpt><trkpt lat="37.53311352751489" lon="14.14241886270422"><ele>416.0</ele><time>2026-04-30T08:08:51Z</time></trkpt><trkpt lat="37.53304807521651" lon="14.142384162125799"><ele>416.49999999999994</ele><time>2026-04-30T08:08:52Z</time></trkpt><trkpt lat="37.532985899592845" lon="14.142340832730671"><ele>417.0</ele><time>2026-04-30T08:08:53Z</time></trkpt><trkpt lat="37.53293125157951" lon="14.142300236860917"><ele>417.5</ele><time>2026-04-30T08:08:54Z</time></trkpt><trkpt lat="37.53285058003679" lon="14.142200381748628"><ele>418.0</ele><time>2026-04-30T08:08:56Z</time></trkpt><trkpt lat="37.53280228040009" lon="14.14212214812779"><ele>418.49999999999994</ele><time>2026-04-30T08:08:57Z</time></trkpt><trkpt lat="37.532765612169655" lon="14.142027443417476"><ele>419.0</ele><time>2026-04-30T08:08:58Z</time></trkpt><trkpt lat="37.53273174285027" lon="14.141924776061659"><ele>418.99999999999994</ele><time>2026-04-30T08:08:59Z</time></trkpt><trkpt lat="37.53270759367428" lon="14.141824079232032"><ele>419.0</ele><time>2026-04-30T08:09:00Z</time></trkpt><trkpt lat="37.53269194911686" lon="14.14172569375628"><ele>419.0</ele><time>2026-04-30T08:09:01Z</time></trkpt><trkpt lat="37.53268735793226" lon="14.14164507999"><ele>419.0</ele><time>2026-04-30T08:09:02Z</time></trkpt><trkpt lat="37.53269315813552" lon="14.141555132020045"><ele>419.0</ele><time>2026-04-30T08:09:03Z</time></trkpt><trkpt lat="37.53270981138091" lon="14.141461009068276"><ele>418.99999999999994</ele><time>2026-04-30T08:09:04Z</time></trkpt><trkpt lat="37.5327261801294" lon="14.141376077748525"><ele>419.0</ele><time>2026-04-30T08:09:05Z</time></trkpt><trkpt lat="37.532733235000265" lon="14.141285820785521"><ele>417.4</ele><time>2026-04-30T08:09:06Z</time></trkpt><trkpt lat="37.53272668694819" lon="14.141196406415345"><ele>415.79999999999995</ele><time>2026-04-30T08:09:07Z</time></trkpt><trkpt lat="37.5327009113794" lon="14.141111268536612"><ele>414.20000000000005</ele><time>2026-04-30T08:09:08Z</time></trkpt><trkpt lat="37.532661897914316" lon="14.14097875476605"><ele>412.6</ele><time>2026-04-30T08:09:10Z</time></trkpt><trkpt lat="37.532640735981126" lon="14.140857663183327"><ele>411.0</ele><time>2026-04-30T08:09:12Z</time></trkpt><trkpt lat="37.532679529094686" lon="14.140708054229684"><ele>409.3333333333333</ele><time>2026-04-30T08:09:14Z</time></trkpt><trkpt lat="37.53274367161265" lon="14.14057596814019"><ele>407.66666666666663</ele><time>2026-04-30T08:09:16Z</time></trkpt><trkpt lat="37.532769531655184" lon="14.140501803531443"><ele>406.0</ele><time>2026-04-30T08:09:17Z</time></trkpt><trkpt lat="37.532786714893774" lon="14.140418973432526"><ele>404.3333333333333</ele><time>2026-04-30T08:09:18Z</time></trkpt><trkpt lat="37.53279750097301" lon="14.140321771954644"><ele>402.66666666666663</ele><time>2026-04-30T08:09:19Z</time></trkpt><trkpt lat="37.532804275341654" lon="14.14022250268"><ele>401.0</ele><time>2026-04-30T08:09:20Z</time></trkpt><trkpt lat="37.53281579703432" lon="14.140109635865041"><ele>395.5</ele><time>2026-04-30T08:09:22Z</time></trkpt><trkpt lat="37.532940706862874" lon="14.140300296627885"><ele>390.0</ele><time>2026-04-30T08:09:28Z</time></trkpt><trkpt lat="37.53296970076831" lon="14.140395444636653"><ele>384.5</ele><time>2026-04-30T08:09:29Z</time></trkpt><trkpt lat="37.53299944820891" lon="14.140471458655371"><ele>379.0</ele><time>2026-04-30T08:09:30Z</time></trkpt><trkpt lat="37.533062732530695" lon="14.140580412728644"><ele>379.00000000000006</ele><time>2026-04-30T08:09:32Z</time></trkpt><trkpt lat="37.533112662571085" lon="14.140649984081072"><ele>379.0</ele><time>2026-04-30T08:09:34Z</time></trkpt><trkpt lat="37.53314225656142" lon="14.14072526901797"><ele>379.0</ele><time>2026-04-30T08:09:37Z</time></trkpt><trkpt lat="37.53316302270066" lon="14.140810988499101"><ele>379.0</ele><time>2026-04-30T08:09:39Z</time></trkpt><trkpt lat="37.53319561287443" lon="14.140882591201402"><ele>379.0</ele><time>2026-04-30T08:09:40Z</time></trkpt><trkpt lat="37.53323706940317" lon="14.140952965567495"><ele>379.00000000000006</ele><time>2026-04-30T08:09:41Z</time></trkpt><trkpt lat="37.53328584439067" lon="14.14102791917639"><ele>379.0</ele><time>2026-04-30T08:09:42Z</time></trkpt><trkpt lat="37.53332776843374" lon="14.141102686494895"><ele>378.4</ele><time>2026-04-30T08:09:43Z</time></trkpt><trkpt lat="37.533371899815656" lon="14.141170527310818"><ele>377.79999999999995</ele><time>2026-04-30T08:09:44Z</time></trkpt><trkpt lat="37.533421981074675" lon="14.141228292003218"><ele>377.20000000000005</ele><time>2026-04-30T08:09:45Z</time></trkpt><trkpt lat="37.533522634907904" lon="14.14128204522664"><ele>376.6</ele><time>2026-04-30T08:09:47Z</time></trkpt><trkpt lat="37.533637025704984" lon="14.141285360502657"><ele>376.0</ele><time>2026-04-30T08:09:49Z</time></trkpt><trkpt lat="37.53374615088529" lon="14.141241130387215"><ele>376.0</ele><time>2026-04-30T08:09:51Z</time></trkpt><trkpt lat="37.533806985208116" lon="14.14122043489882"><ele>376.0</ele><time>2026-04-30T08:09:52Z</time></trkpt><trkpt lat="37.53387148827586" lon="14.14121235573263"><ele>376.0</ele><time>2026-04-30T08:09:53Z</time></trkpt><trkpt lat="37.53398110035129" lon="14.14119458800833"><ele>376.0</ele><time>2026-04-30T08:09:55Z</time></trkpt><trkpt lat="37.534052494296446" lon="14.141158161336802"><ele>376.0</ele><time>2026-04-30T08:09:57Z</time></trkpt><trkpt lat="37.534122860275296" lon="14.141081403245071"><ele>376.0</ele><time>2026-04-30T08:10:00Z</time></trkpt><trkpt lat="37.53418754527969" lon="14.1410191458883"><ele>376.0</ele><time>2026-04-30T08:10:02Z</time></trkpt><trkpt lat="37.53423909831004" lon="14.140927670646585"><ele>376.0</ele><time>2026-04-30T08:10:03Z</time></trkpt><trkpt lat="37.534293004133055" lon="14.140828131619026"><ele>376.0</ele><time>2026-04-30T08:10:05Z</time></trkpt><trkpt lat="37.53433535775666" lon="14.140725995430826"><ele>376.0</ele><time>2026-04-30T08:10:07Z</time></trkpt><trkpt lat="37.53435141172031" lon="14.140615982184517"><ele>376.0</ele><time>2026-04-30T08:10:09Z</time></trkpt><trkpt lat="37.53430274538353" lon="14.140507002558682"><ele>373.6</ele><time>2026-04-30T08:10:11Z</time></trkpt><trkpt lat="37.534252566762355" lon="14.140443643398822"><ele>371.20000000000005</ele><time>2026-04-30T08:10:12Z</time></trkpt><trkpt lat="37.534143978433434" lon="14.14036952448316"><ele>368.79999999999995</ele><time>2026-04-30T08:10:14Z</time></trkpt><trkpt lat="37.53407163326902" lon="14.140301266851667"><ele>366.4</ele><time>2026-04-30T08:10:15Z</time></trkpt><trkpt lat="37.534010763707464" lon="14.140204804836792"><ele>364.0</ele><time>2026-04-30T08:10:16Z</time></trkpt><trkpt lat="37.533954205584905" lon="14.140080291166297"><ele>364.0</ele><time>2026-04-30T08:10:17Z</time></trkpt><trkpt lat="37.53390698154877" lon="14.13999120104762"><ele>364.0</ele><time>2026-04-30T08:10:18Z</time></trkpt><trkpt lat="37.53385237181555" lon="14.139852767379177"><ele>364.0</ele><time>2026-04-30T08:10:20Z</time></trkpt><trkpt lat="37.53382628069413" lon="14.139742125265322"><ele>364.0</ele><time>2026-04-30T08:10:21Z</time></trkpt><trkpt lat="37.53379077812805" lon="14.139507001426514"><ele>365.0</ele><time>2026-04-30T08:10:22Z</time></trkpt><trkpt lat="37.533769638815784" lon="14.139376684305612"><ele>366.0</ele><time>2026-04-30T08:10:23Z</time></trkpt><trkpt lat="37.53376170614851" lon="14.139297885807625"><ele>367.0</ele><time>2026-04-30T08:10:24.001Z</time></trkpt><trkpt lat="37.53374088608965" lon="14.139179831522721"><ele>368.0</ele><time>2026-04-30T08:10:25.001Z</time></trkpt><trkpt lat="37.533705547585186" lon="14.139077060135538"><ele>369.0</ele><time>2026-04-30T08:10:26.001Z</time></trkpt><trkpt lat="37.53366899100088" lon="14.138981582874825"><ele>370.0</ele><time>2026-04-30T08:10:27.001Z</time></trkpt><trkpt lat="37.533630506187215" lon="14.138897793268365"><ele>367.4</ele><time>2026-04-30T08:10:28.001Z</time></trkpt><trkpt lat="37.5336148693673" lon="14.138780349561852"><ele>364.8</ele><time>2026-04-30T08:10:29.001Z</time></trkpt><trkpt lat="37.53360686106593" lon="14.138659381178165"><ele>362.20000000000005</ele><time>2026-04-30T08:10:30.001Z</time></trkpt><trkpt lat="37.53355358259253" lon="14.138559011064352"><ele>359.6</ele><time>2026-04-30T08:10:32.001Z</time></trkpt><trkpt lat="37.53349054582038" lon="14.138508966520222"><ele>357.0</ele><time>2026-04-30T08:10:33.001Z</time></trkpt><trkpt lat="37.533411095349045" lon="14.1384440185312"><ele>357.0</ele><time>2026-04-30T08:10:34.001Z</time></trkpt><trkpt lat="37.53333654437696" lon="14.138374988119947"><ele>357.0</ele><time>2026-04-30T08:10:35.001Z</time></trkpt><trkpt lat="37.53326440154106" lon="14.138283562082778"><ele>357.0</ele><time>2026-04-30T08:10:36.001Z</time></trkpt><trkpt lat="37.53319244687005" lon="14.138155518075274"><ele>357.0</ele><time>2026-04-30T08:10:37.001Z</time></trkpt><trkpt lat="37.533109779165294" lon="14.138016405334735"><ele>355.20000000000005</ele><time>2026-04-30T08:10:38.001Z</time></trkpt><trkpt lat="37.53306030437227" lon="14.137947328001909"><ele>353.4</ele><time>2026-04-30T08:10:39.001Z</time></trkpt><trkpt lat="37.533010754416644" lon="14.13789146273731"><ele>351.6</ele><time>2026-04-30T08:10:40.001Z</time></trkpt><trkpt lat="37.53296292762312" lon="14.137836523049183"><ele>349.79999999999995</ele><time>2026-04-30T08:10:41.001Z</time></trkpt><trkpt lat="37.53284647445305" lon="14.137767941283899"><ele>348.0</ele><time>2026-04-30T08:10:43Z</time></trkpt><trkpt lat="37.53272817431441" lon="14.137737287717917"><ele>348.0</ele><time>2026-04-30T08:10:45Z</time></trkpt><trkpt lat="37.53263677254895" lon="14.137696856355335"><ele>348.0</ele><time>2026-04-30T08:10:47Z</time></trkpt><trkpt lat="37.532560523175356" lon="14.137589482677296"><ele>348.0</ele><time>2026-04-30T08:10:49Z</time></trkpt><trkpt lat="37.53251560205333" lon="14.137512684178995"><ele>348.0</ele><time>2026-04-30T08:10:50Z</time></trkpt><trkpt lat="37.53246273686483" lon="14.137454129895819"><ele>348.0</ele><time>2026-04-30T08:10:51Z</time></trkpt><trkpt lat="37.53236866467574" lon="14.137352230909121"><ele>348.0</ele><time>2026-04-30T08:10:53Z</time></trkpt><trkpt lat="37.53227052833819" lon="14.137261476874533"><ele>348.0</ele><time>2026-04-30T08:10:55Z</time></trkpt><trkpt lat="37.53218568525306" lon="14.137266629043964"><ele>348.0</ele><time>2026-04-30T08:10:57Z</time></trkpt><trkpt lat="37.53211694369107" lon="14.137367397409504"><ele>348.0</ele><time>2026-04-30T08:10:59Z</time></trkpt><trkpt lat="37.53209192677802" lon="14.137463734458661"><ele>348.0</ele><time>2026-04-30T08:11:00Z</time></trkpt><trkpt lat="37.53205255614434" lon="14.137570185894749"><ele>347.3333333333333</ele><time>2026-04-30T08:11:01Z</time></trkpt><trkpt lat="37.53201178072715" lon="14.137644988333085"><ele>346.6666666666667</ele><time>2026-04-30T08:11:02Z</time></trkpt><trkpt lat="37.5319224705109" lon="14.137669135904554"><ele>346.0</ele><time>2026-04-30T08:11:04Z</time></trkpt><trkpt lat="37.531852475467026" lon="14.137635639985294"><ele>345.33333333333337</ele><time>2026-04-30T08:11:05Z</time></trkpt><trkpt lat="37.53178269953452" lon="14.137568484181134"><ele>344.6666666666667</ele><time>2026-04-30T08:11:06Z</time></trkpt><trkpt lat="37.53172736755033" lon="14.137516117212634"><ele>344.0</ele><time>2026-04-30T08:11:07Z</time></trkpt><trkpt lat="37.531660463117696" lon="14.137499293320387"><ele>344.0</ele><time>2026-04-30T08:11:12Z</time></trkpt><trkpt lat="37.53164938603616" lon="14.137418277354783"><ele>344.0</ele><time>2026-04-30T08:11:15Z</time></trkpt><trkpt lat="37.531615524999" lon="14.137259218295263"><ele>344.0</ele><time>2026-04-30T08:11:17Z</time></trkpt><trkpt lat="37.53157254640199" lon="14.13718211290935"><ele>344.0</ele><time>2026-04-30T08:11:18Z</time></trkpt><trkpt lat="37.53151480252538" lon="14.137132976418203"><ele>344.0</ele><time>2026-04-30T08:11:19Z</time></trkpt><trkpt lat="37.531455067430926" lon="14.13708987584173"><ele>344.0</ele><time>2026-04-30T08:11:20Z</time></trkpt><trkpt lat="37.53139983495526" lon="14.137035470833963"><ele>342.33333333333337</ele><time>2026-04-30T08:11:21Z</time></trkpt><trkpt lat="37.53132395098422" lon="14.136916835584163"><ele>340.6666666666667</ele><time>2026-04-30T08:11:23Z</time></trkpt><trkpt lat="37.53130317434797" lon="14.136828696909136"><ele>339.0</ele><time>2026-04-30T08:11:24Z</time></trkpt><trkpt lat="37.53127652095583" lon="14.136752948434134"><ele>337.3333333333333</ele><time>2026-04-30T08:11:25Z</time></trkpt><trkpt lat="37.53124625042661" lon="14.136674231848453"><ele>335.66666666666663</ele><time>2026-04-30T08:11:26Z</time></trkpt><trkpt lat="37.531219125755186" lon="14.136593274000571"><ele>334.0</ele><time>2026-04-30T08:11:27Z</time></trkpt><trkpt lat="37.53119475448131" lon="14.136509853430471"><ele>332.7142857142857</ele><time>2026-04-30T08:11:28Z</time></trkpt><trkpt lat="37.53116462685983" lon="14.136428654166895"><ele>331.42857142857144</ele><time>2026-04-30T08:11:29Z</time></trkpt><trkpt lat="37.53112926134117" lon="14.136346721684802"><ele>330.1428571428571</ele><time>2026-04-30T08:11:30Z</time></trkpt><trkpt lat="37.53109226381496" lon="14.13626475371265"><ele>328.8571428571429</ele><time>2026-04-30T08:11:31Z</time></trkpt><trkpt lat="37.531046243161015" lon="14.136188480616322"><ele>327.5714285714286</ele><time>2026-04-30T08:11:32Z</time></trkpt><trkpt lat="37.530992401355675" lon="14.13612668745494"><ele>326.2857142857143</ele><time>2026-04-30T08:11:33Z</time></trkpt><trkpt lat="37.530933113943235" lon="14.136075413630781"><ele>325.0</ele><time>2026-04-30T08:11:34Z</time></trkpt><trkpt lat="37.53087475476116" lon="14.13602885244788"><ele>325.0</ele><time>2026-04-30T08:11:35Z</time></trkpt><trkpt lat="37.530815948776784" lon="14.135984274926424"><ele>325.0</ele><time>2026-04-30T08:11:36Z</time></trkpt><trkpt lat="37.530703140488484" lon="14.135955922068513"><ele>325.0</ele><time>2026-04-30T08:11:38Z</time></trkpt><trkpt lat="37.5306210743271" lon="14.1360028398613"><ele>325.0</ele><time>2026-04-30T08:11:40Z</time></trkpt><trkpt lat="37.53054570962101" lon="14.136092377887964"><ele>325.0</ele><time>2026-04-30T08:11:42Z</time></trkpt><trkpt lat="37.53046520413342" lon="14.136102649877856"><ele>325.0</ele><time>2026-04-30T08:11:44Z</time></trkpt><trkpt lat="37.53042063473377" lon="14.135990451366661"><ele>325.0</ele><time>2026-04-30T08:11:46Z</time></trkpt><trkpt lat="37.530443579055614" lon="14.135700509834292"><ele>325.0</ele><time>2026-04-30T08:11:49Z</time></trkpt><trkpt lat="37.53043152536311" lon="14.135607390751444"><ele>325.0</ele><time>2026-04-30T08:11:50Z</time></trkpt><trkpt lat="37.53041606183939" lon="14.135511126273919"><ele>324.4</ele><time>2026-04-30T08:11:51Z</time></trkpt><trkpt lat="37.53038721949626" lon="14.135426060745136"><ele>323.8</ele><time>2026-04-30T08:11:52Z</time></trkpt><trkpt lat="37.53032917220689" lon="14.135307429472014"><ele>323.20000000000005</ele><time>2026-04-30T08:11:54Z</time></trkpt><trkpt lat="37.530235904810446" lon="14.135235183382276"><ele>322.6</ele><time>2026-04-30T08:11:56Z</time></trkpt><trkpt lat="37.53016231114643" lon="14.135211045675874"><ele>322.0</ele><time>2026-04-30T08:11:57Z</time></trkpt><trkpt lat="37.5300733609362" lon="14.135178493800764"><ele>322.0</ele><time>2026-04-30T08:11:58Z</time></trkpt><trkpt lat="37.53000191058321" lon="14.135145408193248"><ele>322.0</ele><time>2026-04-30T08:11:59Z</time></trkpt><trkpt lat="37.52993803259986" lon="14.135104164175596"><ele>322.0</ele><time>2026-04-30T08:12:00Z</time></trkpt><trkpt lat="37.529882572233035" lon="14.135048090089466"><ele>322.0</ele><time>2026-04-30T08:12:01Z</time></trkpt><trkpt lat="37.52984115769731" lon="14.134964847591815"><ele>322.0</ele><time>2026-04-30T08:12:02Z</time></trkpt><trkpt lat="37.52980640371547" lon="14.134855381434098"><ele>322.0</ele><time>2026-04-30T08:12:03Z</time></trkpt><trkpt lat="37.529762070178954" lon="14.134772739866943"><ele>322.3333333333333</ele><time>2026-04-30T08:12:04Z</time></trkpt><trkpt lat="37.52971003742901" lon="14.134699031046486"><ele>322.66666666666663</ele><time>2026-04-30T08:12:05Z</time></trkpt><trkpt lat="37.52965414429566" lon="14.134632943935017"><ele>323.0</ele><time>2026-04-30T08:12:06Z</time></trkpt><trkpt lat="37.52959072376118" lon="14.134565164207421"><ele>323.3333333333333</ele><time>2026-04-30T08:12:07Z</time></trkpt><trkpt lat="37.529534588286715" lon="14.134497359431508"><ele>323.6666666666667</ele><time>2026-04-30T08:12:08Z</time></trkpt><trkpt lat="37.52946837160833" lon="14.134419685449885"><ele>324.0</ele><time>2026-04-30T08:12:09Z</time></trkpt><trkpt lat="37.52940186391817" lon="14.13434118626592"><ele>324.0</ele><time>2026-04-30T08:12:10Z</time></trkpt><trkpt lat="37.52933411743104" lon="14.134257313272672"><ele>324.0</ele><time>2026-04-30T08:12:11Z</time></trkpt><trkpt lat="37.529269195338465" lon="14.134182049891601"><ele>324.0</ele><time>2026-04-30T08:12:12Z</time></trkpt><trkpt lat="37.529205711408714" lon="14.134113113697913"><ele>324.0</ele><time>2026-04-30T08:12:13Z</time></trkpt><trkpt lat="37.52914225479161" lon="14.134044967942515"><ele>324.0</ele><time>2026-04-30T08:12:14Z</time></trkpt><trkpt lat="37.529081341394146" lon="14.133979731572877"><ele>324.0</ele><time>2026-04-30T08:12:15Z</time></trkpt><trkpt lat="37.529024871169355" lon="14.133916581063895"><ele>323.3333333333333</ele><time>2026-04-30T08:12:16Z</time></trkpt><trkpt lat="37.528960735902544" lon="14.133845312259927"><ele>322.6666666666667</ele><time>2026-04-30T08:12:17Z</time></trkpt><trkpt lat="37.528892736345135" lon="14.133788083575496"><ele>322.0</ele><time>2026-04-30T08:12:18Z</time></trkpt><trkpt lat="37.52883131969315" lon="14.1337337111442"><ele>321.33333333333337</ele><time>2026-04-30T08:12:19Z</time></trkpt><trkpt lat="37.528766694222305" lon="14.133686293713641"><ele>320.6666666666667</ele><time>2026-04-30T08:12:20Z</time></trkpt><trkpt lat="37.52870521245648" lon="14.13365145473891"><ele>320.0</ele><time>2026-04-30T08:12:21Z</time></trkpt><trkpt lat="37.52864014233384" lon="14.133609489228922"><ele>319.4</ele><time>2026-04-30T08:12:24Z</time></trkpt><trkpt lat="37.5285827942126" lon="14.133560131292805"><ele>318.8</ele><time>2026-04-30T08:12:29.001Z</time></trkpt><trkpt lat="37.52847525281931" lon="14.133474138908534"><ele>318.2</ele><time>2026-04-30T08:12:31.001Z</time></trkpt><trkpt lat="37.52837567412037" lon="14.13339077830934"><ele>317.6</ele><time>2026-04-30T08:12:33.001Z</time></trkpt><trkpt lat="37.52831346355054" lon="14.13333224040935"><ele>317.0</ele><time>2026-04-30T08:12:35.001Z</time></trkpt><trkpt lat="37.52825508034431" lon="14.13325575299214"><ele>316.33333333333337</ele><time>2026-04-30T08:12:56Z</time></trkpt><trkpt lat="37.52820594925047" lon="14.133172300201005"><ele>315.6666666666667</ele><time>2026-04-30T08:12:59Z</time></trkpt><trkpt lat="37.5281565924536" lon="14.133096790452043"><ele>315.0</ele><time>2026-04-30T08:13:10Z</time></trkpt><trkpt lat="37.52809998801713" lon="14.13304122510745"><ele>314.3333333333333</ele><time>2026-04-30T08:13:12Z</time></trkpt><trkpt lat="37.52803367097197" lon="14.132971128094225"><ele>313.66666666666663</ele><time>2026-04-30T08:13:14Z</time></trkpt><trkpt lat="37.5279623701767" lon="14.132873626693813"><ele>313.0</ele><time>2026-04-30T08:13:16Z</time></trkpt><trkpt lat="37.52789707849318" lon="14.132763142325375"><ele>312.66666666666663</ele><time>2026-04-30T08:13:18Z</time></trkpt><trkpt lat="37.52783093657956" lon="14.132660320817157"><ele>312.3333333333333</ele><time>2026-04-30T08:13:20Z</time></trkpt><trkpt lat="37.527789394870496" lon="14.132589654902242"><ele>312.0</ele><time>2026-04-30T08:13:21Z</time></trkpt><trkpt lat="37.52774785708282" lon="14.1325135184909"><ele>311.6666666666667</ele><time>2026-04-30T08:13:22Z</time></trkpt><trkpt lat="37.52769086820723" lon="14.132442881311368"><ele>311.33333333333337</ele><time>2026-04-30T08:13:23Z</time></trkpt><trkpt lat="37.52763098382608" lon="14.132372664462142"><ele>311.0</ele><time>2026-04-30T08:13:24Z</time></trkpt><trkpt lat="37.52757619409303" lon="14.132305320853792"><ele>310.33333333333337</ele><time>2026-04-30T08:13:25Z</time></trkpt><trkpt lat="37.527521157232854" lon="14.132233009458298"><ele>309.6666666666667</ele><time>2026-04-30T08:13:26Z</time></trkpt><trkpt lat="37.5274667272511" lon="14.13216284162952"><ele>309.0</ele><time>2026-04-30T08:13:27Z</time></trkpt><trkpt lat="37.52740997886148" lon="14.132100252108296"><ele>308.3333333333333</ele><time>2026-04-30T08:13:28Z</time></trkpt><trkpt lat="37.52735912357832" lon="14.132041394991585"><ele>307.66666666666663</ele><time>2026-04-30T08:13:29Z</time></trkpt><trkpt lat="37.52730481809918" lon="14.131980473786156"><ele>307.0</ele><time>2026-04-30T08:13:30Z</time></trkpt><trkpt lat="37.527245516762015" lon="14.13191385163676"><ele>307.0</ele><time>2026-04-30T08:13:31Z</time></trkpt><trkpt lat="37.52718404531359" lon="14.131838314378042"><ele>307.0</ele><time>2026-04-30T08:13:32Z</time></trkpt><trkpt lat="37.52712651056253" lon="14.131750271574457"><ele>307.0</ele><time>2026-04-30T08:13:33Z</time></trkpt><trkpt lat="37.52707385448152" lon="14.131655019376632"><ele>307.0</ele><time>2026-04-30T08:13:34Z</time></trkpt><trkpt lat="37.52702243703412" lon="14.131572867111357"><ele>307.0</ele><time>2026-04-30T08:13:35Z</time></trkpt><trkpt lat="37.52697240599823" lon="14.131502131524067"><ele>307.0</ele><time>2026-04-30T08:13:36Z</time></trkpt><trkpt lat="37.52692565202148" lon="14.131414112921268"><ele>306.0</ele><time>2026-04-30T08:13:37Z</time></trkpt><trkpt lat="37.52688276209921" lon="14.131313213491234"><ele>305.0</ele><time>2026-04-30T08:13:38Z</time></trkpt><trkpt lat="37.52683695026096" lon="14.131227361896118"><ele>304.0</ele><time>2026-04-30T08:13:39Z</time></trkpt><trkpt lat="37.526779264984214" lon="14.131155387597722"><ele>303.0</ele><time>2026-04-30T08:13:40Z</time></trkpt><trkpt lat="37.52670941816736" lon="14.131100575225735"><ele>302.0</ele><time>2026-04-30T08:13:41Z</time></trkpt><trkpt lat="37.52663538415292" lon="14.131050913079388"><ele>301.0</ele><time>2026-04-30T08:13:42Z</time></trkpt><trkpt lat="37.526569887491505" lon="14.131008375779551"><ele>301.0</ele><time>2026-04-30T08:13:43Z</time></trkpt><trkpt lat="37.526504405764534" lon="14.130980448853812"><ele>301.0</ele><time>2026-04-30T08:13:44Z</time></trkpt><trkpt lat="37.526417231644345" lon="14.130950788375836"><ele>301.0</ele><time>2026-04-30T08:13:45Z</time></trkpt><trkpt lat="37.52633278993323" lon="14.130917873534338"><ele>301.0</ele><time>2026-04-30T08:13:46Z</time></trkpt><trkpt lat="37.52626599477496" lon="14.130897108766204"><ele>301.0</ele><time>2026-04-30T08:13:47Z</time></trkpt><trkpt lat="37.5261555000382" lon="14.130922886671188"><ele>301.0</ele><time>2026-04-30T08:13:49Z</time></trkpt><trkpt lat="37.52607803846223" lon="14.13098997298011"><ele>300.0</ele><time>2026-04-30T08:13:51Z</time></trkpt><trkpt lat="37.526005482624434" lon="14.131077265807205"><ele>299.0</ele><time>2026-04-30T08:13:53Z</time></trkpt><trkpt lat="37.52597084575655" lon="14.13118494346925"><ele>298.0</ele><time>2026-04-30T08:13:55Z</time></trkpt><trkpt lat="37.52591929075066" lon="14.131354395973293"><ele>297.0</ele><time>2026-04-30T08:13:57Z</time></trkpt><trkpt lat="37.525886467934136" lon="14.131475788113798"><ele>296.0</ele><time>2026-04-30T08:13:58Z</time></trkpt><trkpt lat="37.52584766793984" lon="14.13160485881438"><ele>296.0</ele><time>2026-04-30T08:13:59Z</time></trkpt><trkpt lat="37.52581663559962" lon="14.131712337598268"><ele>296.0</ele><time>2026-04-30T08:14:00Z</time></trkpt><trkpt lat="37.525786818811724" lon="14.131796314363273"><ele>296.0</ele><time>2026-04-30T08:14:01Z</time></trkpt><trkpt lat="37.52571718555042" lon="14.131904395907972"><ele>296.0</ele><time>2026-04-30T08:14:03Z</time></trkpt><trkpt lat="37.52566556814385" lon="14.131964337827831"><ele>296.0</ele><time>2026-04-30T08:14:04Z</time></trkpt><trkpt lat="37.52561784109347" lon="14.132031063683462"><ele>296.0</ele><time>2026-04-30T08:14:05Z</time></trkpt><trkpt lat="37.525560888420216" lon="14.13211016194798"><ele>296.0</ele><time>2026-04-30T08:14:06Z</time></trkpt><trkpt lat="37.5254896639328" lon="14.132191757342556"><ele>296.0</ele><time>2026-04-30T08:14:07Z</time></trkpt><trkpt lat="37.52540964462357" lon="14.132276889308914"><ele>296.0</ele><time>2026-04-30T08:14:08Z</time></trkpt><trkpt lat="37.52534053916668" lon="14.132356279801877"><ele>296.0</ele><time>2026-04-30T08:14:09Z</time></trkpt><trkpt lat="37.52526552598782" lon="14.132424610035978"><ele>296.0</ele><time>2026-04-30T08:14:10Z</time></trkpt><trkpt lat="37.52517785779219" lon="14.132495927541923"><ele>296.40000000000003</ele><time>2026-04-30T08:14:11Z</time></trkpt><trkpt lat="37.52508678201252" lon="14.132556663534555"><ele>296.8</ele><time>2026-04-30T08:14:12Z</time></trkpt><trkpt lat="37.525005813924594" lon="14.132600442088522"><ele>297.20000000000005</ele><time>2026-04-30T08:14:13Z</time></trkpt><trkpt lat="37.52491632926356" lon="14.132639170270819"><ele>297.6</ele><time>2026-04-30T08:14:14Z</time></trkpt><trkpt lat="37.524811477257735" lon="14.132676114125804"><ele>298.0</ele><time>2026-04-30T08:14:15Z</time></trkpt><trkpt lat="37.52472825444606" lon="14.1326998432593"><ele>298.0</ele><time>2026-04-30T08:14:16Z</time></trkpt><trkpt lat="37.524638843432356" lon="14.132728423500549"><ele>298.0</ele><time>2026-04-30T08:14:17Z</time></trkpt><trkpt lat="37.52454206239059" lon="14.132759455924699"><ele>298.0</ele><time>2026-04-30T08:14:18Z</time></trkpt><trkpt lat="37.52443969998903" lon="14.13277985174957"><ele>298.0</ele><time>2026-04-30T08:14:19Z</time></trkpt><trkpt lat="37.52433781013248" lon="14.132797697625838"><ele>298.0</ele><time>2026-04-30T08:14:20Z</time></trkpt><trkpt lat="37.52424963810052" lon="14.132808277367673"><ele>298.0</ele><time>2026-04-30T08:14:21Z</time></trkpt><trkpt lat="37.52416523190333" lon="14.132804514986635"><ele>298.0</ele><time>2026-04-30T08:14:22Z</time></trkpt><trkpt lat="37.524084008736196" lon="14.13277481006887"><ele>298.0</ele><time>2026-04-30T08:14:23Z</time></trkpt><trkpt lat="37.524012917094026" lon="14.13272960100983"><ele>298.0</ele><time>2026-04-30T08:14:24Z</time></trkpt><trkpt lat="37.52394288676042" lon="14.13267938314094"><ele>298.0</ele><time>2026-04-30T08:14:25Z</time></trkpt><trkpt lat="37.52387428837392" lon="14.132642110406668"><ele>298.0</ele><time>2026-04-30T08:14:26Z</time></trkpt><trkpt lat="37.52380137377157" lon="14.132622946153859"><ele>299.2</ele><time>2026-04-30T08:14:27Z</time></trkpt><trkpt lat="37.523717386043934" lon="14.132606357302766"><ele>300.4</ele><time>2026-04-30T08:14:28Z</time></trkpt><trkpt lat="37.52362003118423" lon="14.132588509658376"><ele>301.59999999999997</ele><time>2026-04-30T08:14:29Z</time></trkpt><trkpt lat="37.52355173858329" lon="14.13257708014752"><ele>302.8</ele><time>2026-04-30T08:14:30Z</time></trkpt><trkpt lat="37.52343127777003" lon="14.132541679151663"><ele>304.0</ele><time>2026-04-30T08:14:32Z</time></trkpt><trkpt lat="37.523343380240306" lon="14.132480641283644"><ele>304.0</ele><time>2026-04-30T08:14:33Z</time></trkpt><trkpt lat="37.52326609161985" lon="14.132415620984311"><ele>304.0</ele><time>2026-04-30T08:14:34Z</time></trkpt><trkpt lat="37.5232018691736" lon="14.132357568696495"><ele>304.0</ele><time>2026-04-30T08:14:35Z</time></trkpt><trkpt lat="37.52314765764572" lon="14.132288408331338"><ele>304.0</ele><time>2026-04-30T08:14:36Z</time></trkpt><trkpt lat="37.52307054025645" lon="14.132211828877647"><ele>304.0</ele><time>2026-04-30T08:14:37Z</time></trkpt><trkpt lat="37.52300168745371" lon="14.132141192502681"><ele>304.0</ele><time>2026-04-30T08:14:38Z</time></trkpt><trkpt lat="37.522927413227855" lon="14.132065601946648"><ele>303.4</ele><time>2026-04-30T08:14:39Z</time></trkpt><trkpt lat="37.522856117397005" lon="14.13198584615301"><ele>302.79999999999995</ele><time>2026-04-30T08:14:40Z</time></trkpt><trkpt lat="37.52279906961103" lon="14.131909936979914"><ele>302.20000000000005</ele><time>2026-04-30T08:14:41Z</time></trkpt><trkpt lat="37.52274559412272" lon="14.131832518301986"><ele>301.6</ele><time>2026-04-30T08:14:42Z</time></trkpt><trkpt lat="37.522684955838145" lon="14.13172436484683"><ele>301.0</ele><time>2026-04-30T08:14:43Z</time></trkpt><trkpt lat="37.522614549104375" lon="14.131603986552634"><ele>299.40000000000003</ele><time>2026-04-30T08:14:44Z</time></trkpt><trkpt lat="37.52254143677951" lon="14.131485444057837"><ele>297.8</ele><time>2026-04-30T08:14:45Z</time></trkpt><trkpt lat="37.52247494593278" lon="14.131369163464647"><ele>296.20000000000005</ele><time>2026-04-30T08:14:46Z</time></trkpt><trkpt lat="37.52241573695459" lon="14.131260869001252"><ele>294.6</ele><time>2026-04-30T08:14:47Z</time></trkpt><trkpt lat="37.52236457889009" lon="14.131157919133564"><ele>293.0</ele><time>2026-04-30T08:14:48Z</time></trkpt><trkpt lat="37.52231166966662" lon="14.131051875601813"><ele>293.0</ele><time>2026-04-30T08:14:49Z</time></trkpt><trkpt lat="37.52225024790194" lon="14.130927123850237"><ele>293.0</ele><time>2026-04-30T08:14:50Z</time></trkpt><trkpt lat="37.52219199940613" lon="14.130816041631018"><ele>293.0</ele><time>2026-04-30T08:14:51Z</time></trkpt><trkpt lat="37.522140332386094" lon="14.130718749148222"><ele>293.0</ele><time>2026-04-30T08:14:52Z</time></trkpt><trkpt lat="37.52209684943986" lon="14.130628087559646"><ele>293.0</ele><time>2026-04-30T08:14:53Z</time></trkpt><trkpt lat="37.522063901113526" lon="14.130522795246467"><ele>292.2</ele><time>2026-04-30T08:14:54Z</time></trkpt><trkpt lat="37.52203838951306" lon="14.130388641587084"><ele>291.4</ele><time>2026-04-30T08:14:55Z</time></trkpt><trkpt lat="37.52201749474615" lon="14.130243781641868"><ele>290.59999999999997</ele><time>2026-04-30T08:14:56Z</time></trkpt><trkpt lat="37.52199336548777" lon="14.130116242965167"><ele>289.8</ele><time>2026-04-30T08:14:57Z</time></trkpt><trkpt lat="37.521969982535346" lon="14.12999335986572"><ele>289.0</ele><time>2026-04-30T08:14:58Z</time></trkpt><trkpt lat="37.52194861265548" lon="14.129871173825096"><ele>289.0</ele><time>2026-04-30T08:14:59Z</time></trkpt><trkpt lat="37.52192614103462" lon="14.129745032084946"><ele>289.0</ele><time>2026-04-30T08:15:00Z</time></trkpt><trkpt lat="37.52189287294963" lon="14.12962686433643"><ele>289.0</ele><time>2026-04-30T08:15:01Z</time></trkpt><trkpt lat="37.52184006839725" lon="14.129521264682197"><ele>289.0</ele><time>2026-04-30T08:15:02Z</time></trkpt><trkpt lat="37.52177215984841" lon="14.129419962300753"><ele>289.0</ele><time>2026-04-30T08:15:03Z</time></trkpt><trkpt lat="37.52169353254181" lon="14.129324441464137"><ele>289.0</ele><time>2026-04-30T08:15:04Z</time></trkpt><trkpt lat="37.52162563455544" lon="14.12924480736612"><ele>289.0</ele><time>2026-04-30T08:15:05Z</time></trkpt><trkpt lat="37.52156823260506" lon="14.129168566543816"><ele>289.0</ele><time>2026-04-30T08:15:06Z</time></trkpt><trkpt lat="37.52152451602974" lon="14.12911076964234"><ele>289.0</ele><time>2026-04-30T08:15:07Z</time></trkpt><trkpt lat="37.52148333629004" lon="14.129047621620188"><ele>289.0</ele><time>2026-04-30T08:15:09Z</time></trkpt><trkpt lat="37.52147853226987" lon="14.128937729353407"><ele>289.0</ele><time>2026-04-30T08:15:11Z</time></trkpt><trkpt lat="37.52152253965147" lon="14.128869527705618"><ele>288.8</ele><time>2026-04-30T08:15:14Z</time></trkpt><trkpt lat="37.52166098749971" lon="14.128855487343783"><ele>288.59999999999997</ele><time>2026-04-30T08:15:16Z</time></trkpt><trkpt lat="37.52175734261973" lon="14.128853063393835"><ele>288.4</ele><time>2026-04-30T08:15:17Z</time></trkpt><trkpt lat="37.521848079018916" lon="14.128837517622038"><ele>288.2</ele><time>2026-04-30T08:15:18Z</time></trkpt><trkpt lat="37.52196705650459" lon="14.128822983978282"><ele>288.0</ele><time>2026-04-30T08:15:19Z</time></trkpt><trkpt lat="37.52206016389841" lon="14.12880467482343"><ele>288.2</ele><time>2026-04-30T08:15:20Z</time></trkpt><trkpt lat="37.522164904737565" lon="14.128773043704278"><ele>288.4</ele><time>2026-04-30T08:15:22Z</time></trkpt><trkpt lat="37.52219357624209" lon="14.12864124021489"><ele>288.59999999999997</ele><time>2026-04-30T08:15:24Z</time></trkpt><trkpt lat="37.522181331303415" lon="14.128533415711077"><ele>288.8</ele><time>2026-04-30T08:15:26Z</time></trkpt><trkpt lat="37.52215554759932" lon="14.128427799354855"><ele>289.0</ele><time>2026-04-30T08:15:28Z</time></trkpt><trkpt lat="37.52211130567556" lon="14.128329089881946"><ele>289.0</ele><time>2026-04-30T08:15:30Z</time></trkpt><trkpt lat="37.52206624567269" lon="14.12823654994312"><ele>289.0</ele><time>2026-04-30T08:15:31Z</time></trkpt><trkpt lat="37.522020345341886" lon="14.128170376210948"><ele>289.0</ele><time>2026-04-30T08:15:32Z</time></trkpt><trkpt lat="37.52197624812297" lon="14.12810747399882"><ele>289.0</ele><time>2026-04-30T08:15:33Z</time></trkpt><trkpt lat="37.5219077729701" lon="14.128031888924731"><ele>289.0</ele><time>2026-04-30T08:15:34Z</time></trkpt><trkpt lat="37.52181061600585" lon="14.127925409350576"><ele>289.0</ele><time>2026-04-30T08:15:35Z</time></trkpt><trkpt lat="37.521754632260844" lon="14.127850185522558"><ele>289.2</ele><time>2026-04-30T08:15:36Z</time></trkpt><trkpt lat="37.52170776497309" lon="14.127788429618835"><ele>289.4</ele><time>2026-04-30T08:15:37Z</time></trkpt><trkpt lat="37.52166499119132" lon="14.127679194690383"><ele>289.6</ele><time>2026-04-30T08:15:39Z</time></trkpt><trkpt lat="37.521664657981894" lon="14.127569721417014"><ele>289.8</ele><time>2026-04-30T08:15:42Z</time></trkpt><trkpt lat="37.52169146157959" lon="14.12741179603317"><ele>290.0</ele><time>2026-04-30T08:15:56Z</time></trkpt><trkpt lat="37.52170593633439" lon="14.12732172001005"><ele>290.1666666666667</ele><time>2026-04-30T08:15:57Z</time></trkpt><trkpt lat="37.521716418168616" lon="14.127233111405285"><ele>290.33333333333337</ele><time>2026-04-30T08:15:58Z</time></trkpt><trkpt lat="37.52171986206095" lon="14.127139074347491"><ele>290.5</ele><time>2026-04-30T08:15:59Z</time></trkpt><trkpt lat="37.52172255433808" lon="14.127052682294346"><ele>290.6666666666667</ele><time>2026-04-30T08:16:00Z</time></trkpt><trkpt lat="37.52173087027171" lon="14.126967252799778"><ele>290.8333333333333</ele><time>2026-04-30T08:16:01Z</time></trkpt><trkpt lat="37.52175172412873" lon="14.126845803315886"><ele>291.0</ele><time>2026-04-30T08:16:02Z</time></trkpt><trkpt lat="37.52177105162747" lon="14.126723988699641"><ele>291.0</ele><time>2026-04-30T08:16:03Z</time></trkpt><trkpt lat="37.52177838963217" lon="14.126642450730172"><ele>291.0</ele><time>2026-04-30T08:16:04Z</time></trkpt><trkpt lat="37.521764428367696" lon="14.126528321163605"><ele>291.0</ele><time>2026-04-30T08:16:06Z</time></trkpt><trkpt lat="37.52176707131524" lon="14.126414216275915"><ele>291.0</ele><time>2026-04-30T08:16:09Z</time></trkpt><trkpt lat="37.52180336253176" lon="14.126342042519923"><ele>291.0</ele><time>2026-04-30T08:16:12Z</time></trkpt><trkpt lat="37.52182136240078" lon="14.126246929747351"><ele>291.0</ele><time>2026-04-30T08:16:13Z</time></trkpt><trkpt lat="37.52185594517291" lon="14.126083491050403"><ele>291.5</ele><time>2026-04-30T08:16:15Z</time></trkpt><trkpt lat="37.521902392062024" lon="14.125993113392614"><ele>292.0</ele><time>2026-04-30T08:16:16Z</time></trkpt><trkpt lat="37.521949295970025" lon="14.12591659990559"><ele>292.5</ele><time>2026-04-30T08:16:17Z</time></trkpt><trkpt lat="37.5220004011599" lon="14.125854652767313"><ele>293.0</ele><time>2026-04-30T08:16:18Z</time></trkpt><trkpt lat="37.52205371895223" lon="14.125784864013351"><ele>293.5</ele><time>2026-04-30T08:16:19Z</time></trkpt><trkpt lat="37.52210453529214" lon="14.125703044103842"><ele>294.0</ele><time>2026-04-30T08:16:20Z</time></trkpt><trkpt lat="37.52217297637415" lon="14.12563231560966"><ele>294.4</ele><time>2026-04-30T08:16:21Z</time></trkpt><trkpt lat="37.522212290525545" lon="14.125525738240027"><ele>294.79999999999995</ele><time>2026-04-30T08:16:22Z</time></trkpt><trkpt lat="37.52225143294026" lon="14.125409115391479"><ele>295.20000000000005</ele><time>2026-04-30T08:16:23Z</time></trkpt><trkpt lat="37.522293695237956" lon="14.1252764843267"><ele>295.6</ele><time>2026-04-30T08:16:24Z</time></trkpt><trkpt lat="37.52233512585391" lon="14.12514648602825"><ele>296.0</ele><time>2026-04-30T08:16:25Z</time></trkpt><trkpt lat="37.52237177588493" lon="14.125031487936411"><ele>296.0</ele><time>2026-04-30T08:16:26Z</time></trkpt><trkpt lat="37.522394871670755" lon="14.124906055061155"><ele>296.0</ele><time>2026-04-30T08:16:27Z</time></trkpt><trkpt lat="37.52243562041888" lon="14.12477534759774"><ele>296.0</ele><time>2026-04-30T08:16:28Z</time></trkpt><trkpt lat="37.52248059907379" lon="14.12463789192123"><ele>296.0</ele><time>2026-04-30T08:16:29Z</time></trkpt><trkpt lat="37.522538836248856" lon="14.124512748807513"><ele>296.0</ele><time>2026-04-30T08:16:30Z</time></trkpt><trkpt lat="37.52258189426181" lon="14.12438163702787"><ele>296.8</ele><time>2026-04-30T08:16:31Z</time></trkpt><trkpt lat="37.52262764716407" lon="14.124242319264448"><ele>297.6</ele><time>2026-04-30T08:16:32Z</time></trkpt><trkpt lat="37.52267288323027" lon="14.124115247401553"><ele>298.4</ele><time>2026-04-30T08:16:33Z</time></trkpt><trkpt lat="37.52271161527997" lon="14.124007179328867"><ele>299.2</ele><time>2026-04-30T08:16:34Z</time></trkpt><trkpt lat="37.52274840840655" lon="14.123903253830205"><ele>300.0</ele><time>2026-04-30T08:16:35Z</time></trkpt><trkpt lat="37.52277949512364" lon="14.123811490971386"><ele>301.6666666666667</ele><time>2026-04-30T08:16:36Z</time></trkpt><trkpt lat="37.52280778250263" lon="14.12374033545257"><ele>303.3333333333333</ele><time>2026-04-30T08:16:37Z</time></trkpt><trkpt lat="37.522858493930535" lon="14.123686021469972"><ele>305.0</ele><time>2026-04-30T08:16:39Z</time></trkpt><trkpt lat="37.522964061053706" lon="14.123726864716755"><ele>306.66666666666663</ele><time>2026-04-30T08:16:41Z</time></trkpt><trkpt lat="37.52303986069071" lon="14.123756428071138"><ele>308.3333333333333</ele><time>2026-04-30T08:16:42Z</time></trkpt><trkpt lat="37.52311496651509" lon="14.123759520468928"><ele>310.0</ele><time>2026-04-30T08:16:43Z</time></trkpt><trkpt lat="37.52323414950697" lon="14.123759226723575"><ele>310.0</ele><time>2026-04-30T08:16:45Z</time></trkpt><trkpt lat="37.52334472531532" lon="14.123734764507114"><ele>310.0</ele><time>2026-04-30T08:16:47Z</time></trkpt><trkpt lat="37.52341192000927" lon="14.123711007203303"><ele>310.0</ele><time>2026-04-30T08:16:48Z</time></trkpt><trkpt lat="37.523477241066864" lon="14.12363888973914"><ele>310.0</ele><time>2026-04-30T08:16:49Z</time></trkpt><trkpt lat="37.52355698380413" lon="14.12357997149273"><ele>310.0</ele><time>2026-04-30T08:16:50Z</time></trkpt><trkpt lat="37.523633973024026" lon="14.12350412101641"><ele>310.0</ele><time>2026-04-30T08:16:51Z</time></trkpt><trkpt lat="37.52369946485286" lon="14.123433568250089"><ele>310.0</ele><time>2026-04-30T08:16:52Z</time></trkpt><trkpt lat="37.52377093135964" lon="14.123364253655382"><ele>310.0</ele><time>2026-04-30T08:16:54Z</time></trkpt><trkpt lat="37.52386471882362" lon="14.123500814560046"><ele>310.0</ele><time>2026-04-30T08:16:55Z</time></trkpt><trkpt lat="37.523910731507485" lon="14.123587147449161"><ele>310.0</ele><time>2026-04-30T08:16:56Z</time></trkpt><trkpt lat="37.52394556107371" lon="14.123664838540419"><ele>309.5</ele><time>2026-04-30T08:16:57Z</time></trkpt><trkpt lat="37.52397922988298" lon="14.12373990647729"><ele>309.0</ele><time>2026-04-30T08:16:59Z</time></trkpt><trkpt lat="37.5240168936301" lon="14.123828167446488"><ele>308.5</ele><time>2026-04-30T08:17:04Z</time></trkpt><trkpt lat="37.52403605239258" lon="14.123919329797353"><ele>308.0</ele><time>2026-04-30T08:17:05Z</time></trkpt><trkpt lat="37.524060824305465" lon="14.12402240654718"><ele>307.5</ele><time>2026-04-30T08:17:06Z</time></trkpt><trkpt lat="37.524089897247244" lon="14.124121067460571"><ele>307.0</ele><time>2026-04-30T08:17:07Z</time></trkpt><trkpt lat="37.52412598833225" lon="14.124210983171716"><ele>307.0</ele><time>2026-04-30T08:17:08Z</time></trkpt><trkpt lat="37.524180184855666" lon="14.124297023548067"><ele>307.0</ele><time>2026-04-30T08:17:09Z</time></trkpt><trkpt lat="37.52424632393159" lon="14.124356569817783"><ele>307.0</ele><time>2026-04-30T08:17:10Z</time></trkpt><trkpt lat="37.52431397130562" lon="14.124389499083506"><ele>307.0</ele><time>2026-04-30T08:17:11Z</time></trkpt><trkpt lat="37.524377265552275" lon="14.124405671735442"><ele>307.0</ele><time>2026-04-30T08:17:12Z</time></trkpt><trkpt lat="37.524451793780386" lon="14.124416921012118"><ele>307.0</ele><time>2026-04-30T08:17:13Z</time></trkpt><trkpt lat="37.52455111935269" lon="14.124426681969958"><ele>308.25</ele><time>2026-04-30T08:17:14Z</time></trkpt><trkpt lat="37.52467090582324" lon="14.124429863190691"><ele>309.5</ele><time>2026-04-30T08:17:15Z</time></trkpt><trkpt lat="37.52479982309575" lon="14.124445698772497"><ele>310.75</ele><time>2026-04-30T08:17:16Z</time></trkpt><trkpt lat="37.5249433000916" lon="14.124480151489488"><ele>312.0</ele><time>2026-04-30T08:17:17Z</time></trkpt><trkpt lat="37.525078248629534" lon="14.124520176401584"><ele>312.0</ele><time>2026-04-30T08:17:18Z</time></trkpt><trkpt lat="37.52520027097127" lon="14.124555120184606"><ele>312.0</ele><time>2026-04-30T08:17:19Z</time></trkpt><trkpt lat="37.525306535058014" lon="14.124583882450471"><ele>312.0</ele><time>2026-04-30T08:17:20Z</time></trkpt><trkpt lat="37.52540189539249" lon="14.124610065592297"><ele>312.0</ele><time>2026-04-30T08:17:21Z</time></trkpt><trkpt lat="37.52548879595711" lon="14.124651151228898"><ele>312.0</ele><time>2026-04-30T08:17:22Z</time></trkpt><trkpt lat="37.525563021670564" lon="14.124723810318972"><ele>311.8</ele><time>2026-04-30T08:17:23Z</time></trkpt><trkpt lat="37.525633841920005" lon="14.124808825138645"><ele>311.6</ele><time>2026-04-30T08:17:24Z</time></trkpt><trkpt lat="37.52571770179093" lon="14.124889107904036"><ele>311.40000000000003</ele><time>2026-04-30T08:17:25Z</time></trkpt><trkpt lat="37.52581838939276" lon="14.124956340889858"><ele>311.2</ele><time>2026-04-30T08:17:26Z</time></trkpt><trkpt lat="37.52593392474559" lon="14.125005492329198"><ele>311.0</ele><time>2026-04-30T08:17:27Z</time></trkpt><trkpt lat="37.52605786170581" lon="14.125039677060434"><ele>308.25</ele><time>2026-04-30T08:17:28Z</time></trkpt><trkpt lat="37.52618488221906" lon="14.12507701773692"><ele>305.5</ele><time>2026-04-30T08:17:29Z</time></trkpt><trkpt lat="37.52631333815729" lon="14.125110120239013"><ele>302.75</ele><time>2026-04-30T08:17:30Z</time></trkpt><trkpt lat="37.526423685981705" lon="14.125134215010384"><ele>300.0</ele><time>2026-04-30T08:17:31Z</time></trkpt><trkpt lat="37.526510209840445" lon="14.125149700781138"><ele>299.5</ele><time>2026-04-30T08:17:32Z</time></trkpt><trkpt lat="37.52658505495758" lon="14.125151062987827"><ele>299.0</ele><time>2026-04-30T08:17:33Z</time></trkpt><trkpt lat="37.526653612992234" lon="14.125132991274798"><ele>298.5</ele><time>2026-04-30T08:17:34Z</time></trkpt><trkpt lat="37.52672669817632" lon="14.125092338313717"><ele>298.0</ele><time>2026-04-30T08:17:35Z</time></trkpt><trkpt lat="37.5267969348526" lon="14.125023539683834"><ele>297.5</ele><time>2026-04-30T08:17:36Z</time></trkpt><trkpt lat="37.5268612928072" lon="14.124926993334062"><ele>297.0</ele><time>2026-04-30T08:17:37Z</time></trkpt><trkpt lat="37.526920917458675" lon="14.124808711242135"><ele>296.25</ele><time>2026-04-30T08:17:38Z</time></trkpt><trkpt lat="37.526980143374686" lon="14.124657165107715"><ele>295.5</ele><time>2026-04-30T08:17:39Z</time></trkpt><trkpt lat="37.52703912017693" lon="14.124510051420701"><ele>294.75</ele><time>2026-04-30T08:17:40Z</time></trkpt><trkpt lat="37.527104503435844" lon="14.12436801432372"><ele>294.0</ele><time>2026-04-30T08:17:41Z</time></trkpt><trkpt lat="37.52718131008471" lon="14.124225158279954"><ele>294.0</ele><time>2026-04-30T08:17:42Z</time></trkpt><trkpt lat="37.52726611100049" lon="14.124080954475506"><ele>294.0</ele><time>2026-04-30T08:17:43Z</time></trkpt><trkpt lat="37.527353329702805" lon="14.123944396737024"><ele>294.0</ele><time>2026-04-30T08:17:44Z</time></trkpt><trkpt lat="37.527446766022024" lon="14.12381788451545"><ele>294.0</ele><time>2026-04-30T08:17:45Z</time></trkpt><trkpt lat="37.527542001989914" lon="14.123711469263458"><ele>295.25</ele><time>2026-04-30T08:17:46Z</time></trkpt><trkpt lat="37.52763871111316" lon="14.123617350498371"><ele>296.5</ele><time>2026-04-30T08:17:47Z</time></trkpt><trkpt lat="37.527731957131664" lon="14.123527721018595"><ele>297.75</ele><time>2026-04-30T08:17:48Z</time></trkpt><trkpt lat="37.52782863038713" lon="14.12343462550761"><ele>299.0</ele><time>2026-04-30T08:17:49Z</time></trkpt><trkpt lat="37.527932125735255" lon="14.123347529734044"><ele>299.0</ele><time>2026-04-30T08:17:50Z</time></trkpt><trkpt lat="37.528034463339694" lon="14.12328129992058"><ele>299.0</ele><time>2026-04-30T08:17:51Z</time></trkpt><trkpt lat="37.52813688441923" lon="14.123235528062919"><ele>299.0</ele><time>2026-04-30T08:17:52Z</time></trkpt><trkpt lat="37.52822978720477" lon="14.123176407817347"><ele>299.0</ele><time>2026-04-30T08:17:53Z</time></trkpt><trkpt lat="37.528318848938035" lon="14.123097446671926"><ele>299.0</ele><time>2026-04-30T08:17:54Z</time></trkpt><trkpt lat="37.5284220562359" lon="14.123052098234485"><ele>300.75</ele><time>2026-04-30T08:17:55Z</time></trkpt><trkpt lat="37.528534673058466" lon="14.123013175329582"><ele>302.5</ele><time>2026-04-30T08:17:56Z</time></trkpt><trkpt lat="37.52864887599239" lon="14.12297929313569"><ele>304.25</ele><time>2026-04-30T08:17:57Z</time></trkpt><trkpt lat="37.5287755788915" lon="14.122948305798051"><ele>306.0</ele><time>2026-04-30T08:17:58Z</time></trkpt><trkpt lat="37.5289117837891" lon="14.122927170444898"><ele>306.0</ele><time>2026-04-30T08:17:59Z</time></trkpt><trkpt lat="37.52904509104731" lon="14.122909420595379"><ele>306.0</ele><time>2026-04-30T08:18:00Z</time></trkpt><trkpt lat="37.52917615311892" lon="14.122895460381024"><ele>306.0</ele><time>2026-04-30T08:18:01Z</time></trkpt><trkpt lat="37.52930618545678" lon="14.122880338434179"><ele>306.0</ele><time>2026-04-30T08:18:02Z</time></trkpt><trkpt lat="37.529435233698386" lon="14.122875243912405"><ele>308.0</ele><time>2026-04-30T08:18:03Z</time></trkpt><trkpt lat="37.52957002911723" lon="14.122881205726252"><ele>310.0</ele><time>2026-04-30T08:18:04Z</time></trkpt><trkpt lat="37.52969725048421" lon="14.122895231786888"><ele>312.0</ele><time>2026-04-30T08:18:05Z</time></trkpt><trkpt lat="37.52982615320361" lon="14.122922279660285"><ele>314.0</ele><time>2026-04-30T08:18:06Z</time></trkpt><trkpt lat="37.52995679794745" lon="14.122968839379757"><ele>314.0</ele><time>2026-04-30T08:18:07Z</time></trkpt><trkpt lat="37.53007864167632" lon="14.12302124856691"><ele>314.0</ele><time>2026-04-30T08:18:08Z</time></trkpt><trkpt lat="37.530189712689264" lon="14.12307294797656"><ele>314.0</ele><time>2026-04-30T08:18:09Z</time></trkpt><trkpt lat="37.53029602256656" lon="14.123118468671363"><ele>314.0</ele><time>2026-04-30T08:18:10Z</time></trkpt><trkpt lat="37.53040901881261" lon="14.123166232118457"><ele>312.0</ele><time>2026-04-30T08:18:11Z</time></trkpt><trkpt lat="37.53052644323924" lon="14.123225023704412"><ele>310.0</ele><time>2026-04-30T08:18:12Z</time></trkpt><trkpt lat="37.530644984180846" lon="14.123301194804732"><ele>308.0</ele><time>2026-04-30T08:18:13Z</time></trkpt><trkpt lat="37.5307684745533" lon="14.12337694734059"><ele>306.0</ele><time>2026-04-30T08:18:14Z</time></trkpt><trkpt lat="37.53088270005551" lon="14.12346033732614"><ele>304.75</ele><time>2026-04-30T08:18:15Z</time></trkpt><trkpt lat="37.53100182666282" lon="14.12352674705214"><ele>303.5</ele><time>2026-04-30T08:18:16Z</time></trkpt><trkpt lat="37.531129637268876" lon="14.123574876052995"><ele>302.25</ele><time>2026-04-30T08:18:17Z</time></trkpt><trkpt lat="37.5312698769165" lon="14.123658872447661"><ele>301.0</ele><time>2026-04-30T08:18:18Z</time></trkpt><trkpt lat="37.53143498813421" lon="14.123749490741782"><ele>300.66666666666663</ele><time>2026-04-30T08:18:19Z</time></trkpt><trkpt lat="37.53161267862263" lon="14.123846406668008"><ele>300.3333333333333</ele><time>2026-04-30T08:18:20Z</time></trkpt><trkpt lat="37.53177900969013" lon="14.123934931608987"><ele>300.0</ele><time>2026-04-30T08:18:21Z</time></trkpt><trkpt lat="37.53193755213695" lon="14.124020006064496"><ele>299.6666666666667</ele><time>2026-04-30T08:18:22Z</time></trkpt><trkpt lat="37.532092870278596" lon="14.124102615086384"><ele>299.33333333333337</ele><time>2026-04-30T08:18:23Z</time></trkpt><trkpt lat="37.53224149618538" lon="14.124180175356354"><ele>299.0</ele><time>2026-04-30T08:18:24Z</time></trkpt><trkpt lat="37.532372027322616" lon="14.124251076290784"><ele>299.0</ele><time>2026-04-30T08:18:25Z</time></trkpt><trkpt lat="37.53249286045843" lon="14.124319139939558"><ele>299.0</ele><time>2026-04-30T08:18:26Z</time></trkpt><trkpt lat="37.532614991701585" lon="14.124387980521398"><ele>299.0</ele><time>2026-04-30T08:18:27Z</time></trkpt><trkpt lat="37.53274291497892" lon="14.124459594132198"><ele>299.0</ele><time>2026-04-30T08:18:28Z</time></trkpt><trkpt lat="37.53287275185591" lon="14.124528602427453"><ele>299.75</ele><time>2026-04-30T08:18:29Z</time></trkpt><trkpt lat="37.53299382340948" lon="14.12459340406455"><ele>300.5</ele><time>2026-04-30T08:18:30Z</time></trkpt><trkpt lat="37.53310794134513" lon="14.12465208971392"><ele>301.25</ele><time>2026-04-30T08:18:31Z</time></trkpt><trkpt lat="37.53322030361689" lon="14.124712359007503"><ele>302.0</ele><time>2026-04-30T08:18:32Z</time></trkpt><trkpt lat="37.533327825401535" lon="14.124773129722463"><ele>302.0</ele><time>2026-04-30T08:18:33Z</time></trkpt><trkpt lat="37.533424409361096" lon="14.124825609601546"><ele>302.0</ele><time>2026-04-30T08:18:34Z</time></trkpt><trkpt lat="37.53350444373772" lon="14.124867336212604"><ele>302.0</ele><time>2026-04-30T08:18:35Z</time></trkpt><trkpt lat="37.53356200545887" lon="14.124902016126644"><ele>302.0</ele><time>2026-04-30T08:18:36Z</time></trkpt><trkpt lat="37.53364549544788" lon="14.12493185090324"><ele>302.0</ele><time>2026-04-30T08:18:38Z</time></trkpt><trkpt lat="37.5337204896737" lon="14.124875942542603"><ele>302.0</ele><time>2026-04-30T08:18:40Z</time></trkpt><trkpt lat="37.53375614466634" lon="14.124803652438139"><ele>302.2</ele><time>2026-04-30T08:18:41Z</time></trkpt><trkpt lat="37.53377267254001" lon="14.124698215566855"><ele>302.4</ele><time>2026-04-30T08:18:42Z</time></trkpt><trkpt lat="37.53381094559249" lon="14.124579272877618"><ele>302.6</ele><time>2026-04-30T08:18:43Z</time></trkpt><trkpt lat="37.533849221902294" lon="14.12445658164291"><ele>302.8</ele><time>2026-04-30T08:18:44Z</time></trkpt><trkpt lat="37.53389153269607" lon="14.124326521736906"><ele>303.0</ele><time>2026-04-30T08:18:45Z</time></trkpt><trkpt lat="37.533913849710856" lon="14.124204966282218"><ele>303.0</ele><time>2026-04-30T08:18:46Z</time></trkpt><trkpt lat="37.533973389978456" lon="14.12408145314829"><ele>303.0</ele><time>2026-04-30T08:18:47Z</time></trkpt><trkpt lat="37.534024825410654" lon="14.123935821406413"><ele>303.0</ele><time>2026-04-30T08:18:48Z</time></trkpt><trkpt lat="37.53408180499383" lon="14.123787322581062"><ele>303.0</ele><time>2026-04-30T08:18:49Z</time></trkpt><trkpt lat="37.5341411286515" lon="14.12363914744472"><ele>302.8</ele><time>2026-04-30T08:18:50Z</time></trkpt><trkpt lat="37.53419931815805" lon="14.12349933162482"><ele>302.6</ele><time>2026-04-30T08:18:51Z</time></trkpt><trkpt lat="37.53425374259258" lon="14.123372198110811"><ele>302.4</ele><time>2026-04-30T08:18:52Z</time></trkpt><trkpt lat="37.534305006720466" lon="14.123254879931855"><ele>302.2</ele><time>2026-04-30T08:18:53Z</time></trkpt><trkpt lat="37.53435483775703" lon="14.123140841479135"><ele>302.0</ele><time>2026-04-30T08:18:54Z</time></trkpt><trkpt lat="37.534405653473165" lon="14.123025573442701"><ele>302.4</ele><time>2026-04-30T08:18:55Z</time></trkpt><trkpt lat="37.53446132257866" lon="14.122904067632891"><ele>302.79999999999995</ele><time>2026-04-30T08:18:56Z</time></trkpt><trkpt lat="37.53451617815404" lon="14.122788531109451"><ele>303.2</ele><time>2026-04-30T08:18:57Z</time></trkpt><trkpt lat="37.53456707226401" lon="14.122685929412983"><ele>303.59999999999997</ele><time>2026-04-30T08:18:58Z</time></trkpt><trkpt lat="37.53461753856287" lon="14.122584897294217"><ele>304.0</ele><time>2026-04-30T08:18:59Z</time></trkpt><trkpt lat="37.534671559667935" lon="14.122476748526358"><ele>305.2</ele><time>2026-04-30T08:19:00Z</time></trkpt><trkpt lat="37.53472980288826" lon="14.122362993139383"><ele>306.4</ele><time>2026-04-30T08:19:01Z</time></trkpt><trkpt lat="37.53478467102689" lon="14.122243708556269"><ele>307.6</ele><time>2026-04-30T08:19:02Z</time></trkpt><trkpt lat="37.5348253968708" lon="14.122121270344307"><ele>308.8</ele><time>2026-04-30T08:19:03Z</time></trkpt><trkpt lat="37.53485600092591" lon="14.122008545165187"><ele>310.0</ele><time>2026-04-30T08:19:04Z</time></trkpt><trkpt lat="37.534877536259565" lon="14.121910995270591"><ele>310.0</ele><time>2026-04-30T08:19:05Z</time></trkpt><trkpt lat="37.534894538727826" lon="14.121829255309839"><ele>310.0</ele><time>2026-04-30T08:19:06Z</time></trkpt><trkpt lat="37.5349106641223" lon="14.121727535464412"><ele>310.0</ele><time>2026-04-30T08:19:07Z</time></trkpt><trkpt lat="37.534929852820646" lon="14.121616261861352"><ele>310.0</ele><time>2026-04-30T08:19:08Z</time></trkpt><trkpt lat="37.534963632008605" lon="14.121515757981872"><ele>310.0</ele><time>2026-04-30T08:19:09Z</time></trkpt><trkpt lat="37.53501581510349" lon="14.121434952020198"><ele>310.0</ele><time>2026-04-30T08:19:10Z</time></trkpt><trkpt lat="37.535093954457466" lon="14.121339527604775"><ele>310.75</ele><time>2026-04-30T08:19:11Z</time></trkpt><trkpt lat="37.535184724667964" lon="14.121244762517977"><ele>311.5</ele><time>2026-04-30T08:19:12Z</time></trkpt><trkpt lat="37.53528531458202" lon="14.121147864393661"><ele>312.25</ele><time>2026-04-30T08:19:13Z</time></trkpt><trkpt lat="37.53539206199467" lon="14.121057295509727"><ele>313.0</ele><time>2026-04-30T08:19:14Z</time></trkpt><trkpt lat="37.53549959721778" lon="14.120976075888505"><ele>313.0</ele><time>2026-04-30T08:19:15Z</time></trkpt><trkpt lat="37.53561460468126" lon="14.120897711415324"><ele>313.0</ele><time>2026-04-30T08:19:16Z</time></trkpt><trkpt lat="37.535727663355814" lon="14.120820547396216"><ele>313.0</ele><time>2026-04-30T08:19:17Z</time></trkpt><trkpt lat="37.53583584627463" lon="14.120743231883601"><ele>313.0</ele><time>2026-04-30T08:19:18Z</time></trkpt><trkpt lat="37.535935310695145" lon="14.120669306463494"><ele>314.5</ele><time>2026-04-30T08:19:19Z</time></trkpt><trkpt lat="37.53602257687775" lon="14.120604868891874"><ele>316.0</ele><time>2026-04-30T08:19:20Z</time></trkpt><trkpt lat="37.53611765029913" lon="14.120544915832832"><ele>317.5</ele><time>2026-04-30T08:19:21Z</time></trkpt><trkpt lat="37.53621797420456" lon="14.120466527802414"><ele>319.0</ele><time>2026-04-30T08:19:22Z</time></trkpt><trkpt lat="37.53634658048756" lon="14.120392119709997"><ele>319.0</ele><time>2026-04-30T08:19:23Z</time></trkpt><trkpt lat="37.536474066121535" lon="14.120317643851122"><ele>319.0</ele><time>2026-04-30T08:19:24Z</time></trkpt><trkpt lat="37.5365891621711" lon="14.120251711527965"><ele>319.0</ele><time>2026-04-30T08:19:25Z</time></trkpt><trkpt lat="37.5366924231476" lon="14.120184284626909"><ele>319.0</ele><time>2026-04-30T08:19:26Z</time></trkpt><trkpt lat="37.536790906804214" lon="14.120108050173906"><ele>319.0</ele><time>2026-04-30T08:19:27Z</time></trkpt><trkpt lat="37.536898848977735" lon="14.120044153130138"><ele>319.0</ele><time>2026-04-30T08:19:28Z</time></trkpt><trkpt lat="37.53699846278052" lon="14.119954107387908"><ele>319.0</ele><time>2026-04-30T08:19:29Z</time></trkpt><trkpt lat="37.53708392685625" lon="14.119862082543875"><ele>319.0</ele><time>2026-04-30T08:19:30Z</time></trkpt><trkpt lat="37.53715822521864" lon="14.119755453437588"><ele>318.75</ele><time>2026-04-30T08:19:31Z</time></trkpt><trkpt lat="37.53722791433235" lon="14.119634604676698"><ele>318.5</ele><time>2026-04-30T08:19:32Z</time></trkpt><trkpt lat="37.53728542249229" lon="14.11950214780436"><ele>318.25</ele><time>2026-04-30T08:19:33Z</time></trkpt><trkpt lat="37.53735896507556" lon="14.119381614593905"><ele>318.0</ele><time>2026-04-30T08:19:34Z</time></trkpt><trkpt lat="37.5374480102804" lon="14.119251817770602"><ele>318.0</ele><time>2026-04-30T08:19:35Z</time></trkpt><trkpt lat="37.53750980250323" lon="14.119099224619635"><ele>318.0</ele><time>2026-04-30T08:19:36Z</time></trkpt><trkpt lat="37.53757205211686" lon="14.1189750254376"><ele>318.0</ele><time>2026-04-30T08:19:37Z</time></trkpt><trkpt lat="37.53761792923468" lon="14.118851031091797"><ele>318.0</ele><time>2026-04-30T08:19:38Z</time></trkpt><trkpt lat="37.53765043142404" lon="14.118720533675143"><ele>318.75</ele><time>2026-04-30T08:19:39Z</time></trkpt><trkpt lat="37.53767697933186" lon="14.118582114071494"><ele>319.5</ele><time>2026-04-30T08:19:40Z</time></trkpt><trkpt lat="37.53769639766415" lon="14.118433256021259"><ele>320.25</ele><time>2026-04-30T08:19:41Z</time></trkpt><trkpt lat="37.537707940180766" lon="14.118290646049346"><ele>321.0</ele><time>2026-04-30T08:19:42Z</time></trkpt><trkpt lat="37.537711234230514" lon="14.11815049201344"><ele>321.5</ele><time>2026-04-30T08:19:43Z</time></trkpt><trkpt lat="37.537711854625655" lon="14.118006498006793"><ele>322.0</ele><time>2026-04-30T08:19:44Z</time></trkpt><trkpt lat="37.53771110904128" lon="14.117858008386177"><ele>322.5</ele><time>2026-04-30T08:19:45Z</time></trkpt><trkpt lat="37.53769708733007" lon="14.117707054012842"><ele>323.0</ele><time>2026-04-30T08:19:46Z</time></trkpt><trkpt lat="37.53767327878936" lon="14.11756896022613"><ele>323.0</ele><time>2026-04-30T08:19:47Z</time></trkpt><trkpt lat="37.53763962003193" lon="14.117432266829857"><ele>323.0</ele><time>2026-04-30T08:19:48Z</time></trkpt><trkpt lat="37.53760087446937" lon="14.11730618182732"><ele>323.0</ele><time>2026-04-30T08:19:49Z</time></trkpt><trkpt lat="37.53755466372733" lon="14.117190373169404"><ele>323.0</ele><time>2026-04-30T08:19:50Z</time></trkpt><trkpt lat="37.5375071759534" lon="14.11706654425654"><ele>323.0</ele><time>2026-04-30T08:19:51Z</time></trkpt><trkpt lat="37.537465038572165" lon="14.11694844711423"><ele>323.0</ele><time>2026-04-30T08:19:52Z</time></trkpt><trkpt lat="37.537439337717814" lon="14.116844211957776"><ele>323.0</ele><time>2026-04-30T08:19:53Z</time></trkpt><trkpt lat="37.537414970198746" lon="14.116751739244359"><ele>323.0</ele><time>2026-04-30T08:19:54Z</time></trkpt><trkpt lat="37.537446819961794" lon="14.116651204418242"><ele>323.0</ele><time>2026-04-30T08:19:55Z</time></trkpt><trkpt lat="37.53753035882884" lon="14.116544882267728"><ele>323.0</ele><time>2026-04-30T08:19:56Z</time></trkpt><trkpt lat="37.53757005039251" lon="14.116405963338616"><ele>323.5</ele><time>2026-04-30T08:19:57Z</time></trkpt><trkpt lat="37.53758809759523" lon="14.116272246684144"><ele>324.0</ele><time>2026-04-30T08:19:58Z</time></trkpt><trkpt lat="37.53760403495865" lon="14.116140725552306"><ele>324.5</ele><time>2026-04-30T08:19:59Z</time></trkpt><trkpt lat="37.53762037592062" lon="14.115991347569896"><ele>325.0</ele><time>2026-04-30T08:20:00Z</time></trkpt><trkpt lat="37.53762611404077" lon="14.11583244415338"><ele>324.75</ele><time>2026-04-30T08:20:01Z</time></trkpt><trkpt lat="37.53761571597137" lon="14.115672219245678"><ele>324.5</ele><time>2026-04-30T08:20:02Z</time></trkpt><trkpt lat="37.53759832244086" lon="14.11550882439042"><ele>324.25</ele><time>2026-04-30T08:20:03Z</time></trkpt><trkpt lat="37.53756368152871" lon="14.115342560177055"><ele>324.0</ele><time>2026-04-30T08:20:04Z</time></trkpt><trkpt lat="37.53752336944129" lon="14.115194661873195"><ele>324.0</ele><time>2026-04-30T08:20:05Z</time></trkpt><trkpt lat="37.53746831549649" lon="14.11507801016938"><ele>324.0</ele><time>2026-04-30T08:20:06Z</time></trkpt><trkpt lat="37.53741947529042" lon="14.114981746112441"><ele>324.0</ele><time>2026-04-30T08:20:07Z</time></trkpt><trkpt lat="37.53737034981193" lon="14.114892389265977"><ele>324.0</ele><time>2026-04-30T08:20:08Z</time></trkpt><trkpt lat="37.537341944582856" lon="14.114800556549815"><ele>324.0</ele><time>2026-04-30T08:20:09Z</time></trkpt><trkpt lat="37.53732674029011" lon="14.114708614051528"><ele>324.0</ele><time>2026-04-30T08:20:10Z</time></trkpt><trkpt lat="37.53740968867539" lon="14.114633547705067"><ele>325.75</ele><time>2026-04-30T08:20:11Z</time></trkpt><trkpt lat="37.53748447227675" lon="14.114528183957985"><ele>327.5</ele><time>2026-04-30T08:20:12Z</time></trkpt><trkpt lat="37.53756481231569" lon="14.114402893046707"><ele>329.25</ele><time>2026-04-30T08:20:13Z</time></trkpt><trkpt lat="37.537645457765386" lon="14.114278443433381"><ele>331.0</ele><time>2026-04-30T08:20:14Z</time></trkpt><trkpt lat="37.537710971349966" lon="14.114178441448074"><ele>331.0</ele><time>2026-04-30T08:20:15Z</time></trkpt><trkpt lat="37.537769981844946" lon="14.114082621145899"><ele>331.0</ele><time>2026-04-30T08:20:16Z</time></trkpt><trkpt lat="37.53782024812765" lon="14.113982916523552"><ele>331.0</ele><time>2026-04-30T08:20:17Z</time></trkpt><trkpt lat="37.53786423653803" lon="14.113855629831061"><ele>331.0</ele><time>2026-04-30T08:20:18Z</time></trkpt><trkpt lat="37.53790299923098" lon="14.113725809908232"><ele>331.0</ele><time>2026-04-30T08:20:19Z</time></trkpt><trkpt lat="37.53793781964842" lon="14.113616546769846"><ele>330.20000000000005</ele><time>2026-04-30T08:20:20Z</time></trkpt><trkpt lat="37.537972250126444" lon="14.113508507475762"><ele>329.40000000000003</ele><time>2026-04-30T08:20:21Z</time></trkpt><trkpt lat="37.53800367493071" lon="14.113406997015174"><ele>328.6</ele><time>2026-04-30T08:20:22Z</time></trkpt><trkpt lat="37.53803588256844" lon="14.113290309005752"><ele>327.8</ele><time>2026-04-30T08:20:23Z</time></trkpt><trkpt lat="37.538070133624245" lon="14.113142904042848"><ele>327.0</ele><time>2026-04-30T08:20:24Z</time></trkpt><trkpt lat="37.53811247056949" lon="14.112974355273337"><ele>327.0</ele><time>2026-04-30T08:20:25Z</time></trkpt><trkpt lat="37.53814892000407" lon="14.112826493286597"><ele>327.0</ele><time>2026-04-30T08:20:26Z</time></trkpt><trkpt lat="37.53817889772018" lon="14.112699344255951"><ele>327.0</ele><time>2026-04-30T08:20:27Z</time></trkpt><trkpt lat="37.53820432645572" lon="14.112561129557195"><ele>327.0</ele><time>2026-04-30T08:20:28Z</time></trkpt><trkpt lat="37.53822362986635" lon="14.112425920983947"><ele>327.0</ele><time>2026-04-30T08:20:29Z</time></trkpt><trkpt lat="37.538238684371244" lon="14.112285074126005"><ele>327.0</ele><time>2026-04-30T08:20:30Z</time></trkpt><trkpt lat="37.53823973244884" lon="14.112148967764298"><ele>327.0</ele><time>2026-04-30T08:20:31Z</time></trkpt><trkpt lat="37.53823849772399" lon="14.112027070584878"><ele>327.0</ele><time>2026-04-30T08:20:32Z</time></trkpt><trkpt lat="37.538239494179614" lon="14.111912840424434"><ele>327.0</ele><time>2026-04-30T08:20:33Z</time></trkpt><trkpt lat="37.53824839209233" lon="14.111809744537984"><ele>327.0</ele><time>2026-04-30T08:20:34Z</time></trkpt><trkpt lat="37.538289191893895" lon="14.111713729437088"><ele>327.0</ele><time>2026-04-30T08:20:35Z</time></trkpt><trkpt lat="37.538369266464684" lon="14.11162637355753"><ele>327.0</ele><time>2026-04-30T08:20:36Z</time></trkpt><trkpt lat="37.538428113470616" lon="14.111500421206907"><ele>327.0</ele><time>2026-04-30T08:20:37Z</time></trkpt><trkpt lat="37.538472279763475" lon="14.111357467474804"><ele>327.0</ele><time>2026-04-30T08:20:38Z</time></trkpt><trkpt lat="37.5384983136387" lon="14.111209021858365"><ele>327.5</ele><time>2026-04-30T08:20:39Z</time></trkpt><trkpt lat="37.538505938919464" lon="14.111071705653199"><ele>328.0</ele><time>2026-04-30T08:20:40Z</time></trkpt><trkpt lat="37.538571639466056" lon="14.110964250095138"><ele>328.5</ele><time>2026-04-30T08:20:41Z</time></trkpt><trkpt lat="37.53865261103129" lon="14.11085174962975"><ele>329.0</ele><time>2026-04-30T08:20:42Z</time></trkpt><trkpt lat="37.538748179415116" lon="14.110724712044343"><ele>327.0</ele><time>2026-04-30T08:20:43Z</time></trkpt><trkpt lat="37.53882742663554" lon="14.110582417730926"><ele>325.0</ele><time>2026-04-30T08:20:44Z</time></trkpt><trkpt lat="37.53890174504206" lon="14.110424367081045"><ele>323.0</ele><time>2026-04-30T08:20:45Z</time></trkpt><trkpt lat="37.53894805863308" lon="14.110271882847789"><ele>321.0</ele><time>2026-04-30T08:20:46Z</time></trkpt><trkpt lat="37.53897803310393" lon="14.11013555483895"><ele>321.0</ele><time>2026-04-30T08:20:47Z</time></trkpt><trkpt lat="37.53899664610566" lon="14.110009526680635"><ele>321.0</ele><time>2026-04-30T08:20:48Z</time></trkpt><trkpt lat="37.5390000630465" lon="14.109880524356543"><ele>321.0</ele><time>2026-04-30T08:20:49Z</time></trkpt><trkpt lat="37.539000393686216" lon="14.10974239896688"><ele>321.0</ele><time>2026-04-30T08:20:50Z</time></trkpt><trkpt lat="37.539007679755905" lon="14.109606634676007"><ele>321.0</ele><time>2026-04-30T08:20:51Z</time></trkpt><trkpt lat="37.539017198491614" lon="14.109466272713906"><ele>321.5</ele><time>2026-04-30T08:20:52Z</time></trkpt><trkpt lat="37.53902403661351" lon="14.109319311971227"><ele>322.0</ele><time>2026-04-30T08:20:53Z</time></trkpt><trkpt lat="37.53903526480997" lon="14.10917320130025"><ele>322.5</ele><time>2026-04-30T08:20:54Z</time></trkpt><trkpt lat="37.53905563806221" lon="14.109018632459714"><ele>323.0</ele><time>2026-04-30T08:20:55Z</time></trkpt><trkpt lat="37.53907685192219" lon="14.108860510003103"><ele>324.25</ele><time>2026-04-30T08:20:56Z</time></trkpt><trkpt lat="37.53910287229919" lon="14.108696557451706"><ele>325.5</ele><time>2026-04-30T08:20:57Z</time></trkpt><trkpt lat="37.53913960784172" lon="14.108537814163768"><ele>326.75</ele><time>2026-04-30T08:20:58Z</time></trkpt><trkpt lat="37.53920288371679" lon="14.108394834811058"><ele>328.0</ele><time>2026-04-30T08:20:59Z</time></trkpt><trkpt lat="37.53925140169811" lon="14.108227122990092"><ele>328.0</ele><time>2026-04-30T08:21:00Z</time></trkpt><trkpt lat="37.53929248457622" lon="14.108053232644842"><ele>328.0</ele><time>2026-04-30T08:21:01Z</time></trkpt><trkpt lat="37.539329414370556" lon="14.107871958419047"><ele>328.0</ele><time>2026-04-30T08:21:02Z</time></trkpt><trkpt lat="37.53936106437585" lon="14.107687854013422"><ele>328.0</ele><time>2026-04-30T08:21:03Z</time></trkpt><trkpt lat="37.53939394491183" lon="14.107498426943563"><ele>328.0</ele><time>2026-04-30T08:21:04Z</time></trkpt><trkpt lat="37.53942837481043" lon="14.107304575367223"><ele>328.0</ele><time>2026-04-30T08:21:05Z</time></trkpt><trkpt lat="37.53945920496638" lon="14.107130991669601"><ele>328.0</ele><time>2026-04-30T08:21:06Z</time></trkpt><trkpt lat="37.53948922511126" lon="14.106978949147834"><ele>328.0</ele><time>2026-04-30T08:21:07Z</time></trkpt><trkpt lat="37.53952746780004" lon="14.10683486392443"><ele>327.75</ele><time>2026-04-30T08:21:08Z</time></trkpt><trkpt lat="37.53957625238721" lon="14.106682008582514"><ele>327.5</ele><time>2026-04-30T08:21:09Z</time></trkpt><trkpt lat="37.53963288089006" lon="14.106525121693645"><ele>327.25</ele><time>2026-04-30T08:21:10Z</time></trkpt><trkpt lat="37.53970228970985" lon="14.106376331131392"><ele>327.0</ele><time>2026-04-30T08:21:11Z</time></trkpt><trkpt lat="37.53977627264572" lon="14.10624093424775"><ele>327.0</ele><time>2026-04-30T08:21:12Z</time></trkpt><trkpt lat="37.5398574132909" lon="14.106104877954863"><ele>327.0</ele><time>2026-04-30T08:21:13Z</time></trkpt><trkpt lat="37.539904386225736" lon="14.105963366688997"><ele>327.0</ele><time>2026-04-30T08:21:14Z</time></trkpt><trkpt lat="37.5399044416529" lon="14.10581382002332"><ele>327.0</ele><time>2026-04-30T08:21:15Z</time></trkpt><trkpt lat="37.53987272995313" lon="14.105678196622815"><ele>326.5</ele><time>2026-04-30T08:21:16Z</time></trkpt><trkpt lat="37.5398380402901" lon="14.105547246939121"><ele>326.0</ele><time>2026-04-30T08:21:17Z</time></trkpt><trkpt lat="37.539771933425854" lon="14.10540744816236"><ele>325.5</ele><time>2026-04-30T08:21:18Z</time></trkpt><trkpt lat="37.53969225852181" lon="14.105282906036829"><ele>325.0</ele><time>2026-04-30T08:21:19Z</time></trkpt><trkpt lat="37.53960359558559" lon="14.105198121331288"><ele>325.0</ele><time>2026-04-30T08:21:20Z</time></trkpt><trkpt lat="37.5395607020757" lon="14.105110493639051"><ele>325.0</ele><time>2026-04-30T08:21:21Z</time></trkpt><trkpt lat="37.539536887169604" lon="14.105022291308433"><ele>325.0</ele><time>2026-04-30T08:21:22Z</time></trkpt><trkpt lat="37.53956977483763" lon="14.104908011956267"><ele>325.0</ele><time>2026-04-30T08:21:23Z</time></trkpt><trkpt lat="37.53961609932127" lon="14.104816831828925"><ele>325.0</ele><time>2026-04-30T08:21:24Z</time></trkpt><trkpt lat="37.53965223348474" lon="14.104682418998554"><ele>325.5</ele><time>2026-04-30T08:21:25Z</time></trkpt><trkpt lat="37.539665910282494" lon="14.104543555677413"><ele>326.0</ele><time>2026-04-30T08:21:26Z</time></trkpt><trkpt lat="37.53966455989376" lon="14.104402177369236"><ele>326.5</ele><time>2026-04-30T08:21:27Z</time></trkpt><trkpt lat="37.53965102479338" lon="14.104260499760121"><ele>327.0</ele><time>2026-04-30T08:21:28Z</time></trkpt><trkpt lat="37.53961793288639" lon="14.104114319520612"><ele>328.0</ele><time>2026-04-30T08:21:29Z</time></trkpt><trkpt lat="37.539568271651696" lon="14.103970331280022"><ele>329.0</ele><time>2026-04-30T08:21:30Z</time></trkpt><trkpt lat="37.53950515868228" lon="14.103843425760113"><ele>330.0</ele><time>2026-04-30T08:21:31Z</time></trkpt><trkpt lat="37.53943441204896" lon="14.103739448474593"><ele>331.0</ele><time>2026-04-30T08:21:32Z</time></trkpt><trkpt lat="37.539375279346004" lon="14.103629587632298"><ele>331.0</ele><time>2026-04-30T08:21:33Z</time></trkpt><trkpt lat="37.53931767010532" lon="14.103517867033661"><ele>331.0</ele><time>2026-04-30T08:21:34Z</time></trkpt><trkpt lat="37.53926723056993" lon="14.103389414641553"><ele>331.0</ele><time>2026-04-30T08:21:35Z</time></trkpt><trkpt lat="37.53925710199117" lon="14.1032430486027"><ele>331.0</ele><time>2026-04-30T08:21:36Z</time></trkpt><trkpt lat="37.53927192757638" lon="14.103098723250485"><ele>331.0</ele><time>2026-04-30T08:21:37Z</time></trkpt><trkpt lat="37.53928424782521" lon="14.102948416303716"><ele>331.0</ele><time>2026-04-30T08:21:38Z</time></trkpt><trkpt lat="37.53929551539487" lon="14.10281095194916"><ele>331.0</ele><time>2026-04-30T08:21:39Z</time></trkpt><trkpt lat="37.539300648413835" lon="14.10267419685979"><ele>331.0</ele><time>2026-04-30T08:21:40Z</time></trkpt><trkpt lat="37.539292467654356" lon="14.102550140140508"><ele>331.0</ele><time>2026-04-30T08:21:41Z</time></trkpt><trkpt lat="37.53929686689621" lon="14.102439901539935"><ele>331.4</ele><time>2026-04-30T08:21:42Z</time></trkpt><trkpt lat="37.53932839041858" lon="14.102360421234772"><ele>331.8</ele><time>2026-04-30T08:21:43Z</time></trkpt><trkpt lat="37.53937419962104" lon="14.102247738659667"><ele>332.2</ele><time>2026-04-30T08:21:44Z</time></trkpt><trkpt lat="37.53940307550157" lon="14.10212713396926"><ele>332.59999999999997</ele><time>2026-04-30T08:21:45Z</time></trkpt><trkpt lat="37.53938026077008" lon="14.101987675874035"><ele>333.0</ele><time>2026-04-30T08:21:46Z</time></trkpt><trkpt lat="37.539315590863424" lon="14.101863102200824"><ele>333.0</ele><time>2026-04-30T08:21:47Z</time></trkpt><trkpt lat="37.53928698690036" lon="14.10173115279094"><ele>333.0</ele><time>2026-04-30T08:21:48Z</time></trkpt><trkpt lat="37.53924012889221" lon="14.101603995261057"><ele>333.0</ele><time>2026-04-30T08:21:49Z</time></trkpt><trkpt lat="37.53919252687118" lon="14.101471465682788"><ele>333.0</ele><time>2026-04-30T08:21:50Z</time></trkpt><trkpt lat="37.53914288688689" lon="14.10133222880095"><ele>334.25</ele><time>2026-04-30T08:21:51Z</time></trkpt><trkpt lat="37.53907936667438" lon="14.10118948029845"><ele>335.5</ele><time>2026-04-30T08:21:52Z</time></trkpt><trkpt lat="37.53899176922886" lon="14.101057654040455"><ele>336.75</ele><time>2026-04-30T08:21:53Z</time></trkpt><trkpt lat="37.53888542233861" lon="14.100962030158525"><ele>338.0</ele><time>2026-04-30T08:21:54Z</time></trkpt><trkpt lat="37.53880686354676" lon="14.100849174098517"><ele>338.0</ele><time>2026-04-30T08:21:55Z</time></trkpt><trkpt lat="37.53872755734289" lon="14.10076005002968"><ele>338.0</ele><time>2026-04-30T08:21:56Z</time></trkpt><trkpt lat="37.53865990334517" lon="14.100675353445423"><ele>338.0</ele><time>2026-04-30T08:21:57Z</time></trkpt><trkpt lat="37.53859180222798" lon="14.100583154036887"><ele>338.0</ele><time>2026-04-30T08:21:58Z</time></trkpt><trkpt lat="37.53852123057119" lon="14.100487275372677"><ele>338.0</ele><time>2026-04-30T08:21:59Z</time></trkpt><trkpt lat="37.5384666658297" lon="14.100396586017657"><ele>338.2</ele><time>2026-04-30T08:22:00Z</time></trkpt><trkpt lat="37.53843884859714" lon="14.100270213388608"><ele>338.4</ele><time>2026-04-30T08:22:02Z</time></trkpt><trkpt lat="37.53833776184954" lon="14.100206016126988"><ele>338.59999999999997</ele><time>2026-04-30T08:22:03Z</time></trkpt><trkpt lat="37.53830497157276" lon="14.100123205232931"><ele>338.79999999999995</ele><time>2026-04-30T08:22:04Z</time></trkpt><trkpt lat="37.53826938613441" lon="14.100003437742853"><ele>339.0</ele><time>2026-04-30T08:22:05Z</time></trkpt><trkpt lat="37.53821979145141" lon="14.099874235078454"><ele>339.0</ele><time>2026-04-30T08:22:06Z</time></trkpt><trkpt lat="37.53814823361454" lon="14.099737981979237"><ele>339.0</ele><time>2026-04-30T08:22:07Z</time></trkpt><trkpt lat="37.538057256589695" lon="14.099598471851444"><ele>339.0</ele><time>2026-04-30T08:22:08Z</time></trkpt><trkpt lat="37.53795440460163" lon="14.0994605734765"><ele>339.0</ele><time>2026-04-30T08:22:09Z</time></trkpt><trkpt lat="37.53784322130814" lon="14.099323018250464"><ele>339.0</ele><time>2026-04-30T08:22:10Z</time></trkpt><trkpt lat="37.537727696403095" lon="14.099185665067305"><ele>339.0</ele><time>2026-04-30T08:22:11Z</time></trkpt><trkpt lat="37.53760494187202" lon="14.099045605129811"><ele>339.0</ele><time>2026-04-30T08:22:12Z</time></trkpt><trkpt lat="37.53747550678307" lon="14.09890442478728"><ele>339.0</ele><time>2026-04-30T08:22:13Z</time></trkpt><trkpt lat="37.53733997034169" lon="14.09876624083354"><ele>339.0</ele><time>2026-04-30T08:22:14Z</time></trkpt><trkpt lat="37.53720147402993" lon="14.098625313593063"><ele>339.0</ele><time>2026-04-30T08:22:15Z</time></trkpt><trkpt lat="37.537065726920225" lon="14.098483450710217"><ele>339.6666666666667</ele><time>2026-04-30T08:22:16Z</time></trkpt><trkpt lat="37.536930411033204" lon="14.098339061558521"><ele>340.33333333333337</ele><time>2026-04-30T08:22:17Z</time></trkpt><trkpt lat="37.5367944049869" lon="14.098195375961021"><ele>341.0</ele><time>2026-04-30T08:22:18Z</time></trkpt><trkpt lat="37.53665627753536" lon="14.098053434500526"><ele>341.0</ele><time>2026-04-30T08:22:19Z</time></trkpt><trkpt lat="37.536515508358775" lon="14.09792083441696"><ele>341.0</ele><time>2026-04-30T08:22:20Z</time></trkpt><trkpt lat="37.536384227420015" lon="14.097808219298884"><ele>341.0</ele><time>2026-04-30T08:22:21Z</time></trkpt><trkpt lat="37.53625288191224" lon="14.097721450077023"><ele>342.75</ele><time>2026-04-30T08:22:22Z</time></trkpt><trkpt lat="37.53613029120931" lon="14.097640455921043"><ele>344.5</ele><time>2026-04-30T08:22:23Z</time></trkpt><trkpt lat="37.5359985569291" lon="14.097572593377885"><ele>346.25</ele><time>2026-04-30T08:22:24Z</time></trkpt><trkpt lat="37.535857240994204" lon="14.097519260916934"><ele>348.0</ele><time>2026-04-30T08:22:25Z</time></trkpt><trkpt lat="37.53571582290821" lon="14.097459337690108"><ele>348.0</ele><time>2026-04-30T08:22:26Z</time></trkpt><trkpt lat="37.53558493135281" lon="14.09740451511801"><ele>348.0</ele><time>2026-04-30T08:22:27Z</time></trkpt><trkpt lat="37.535464501619884" lon="14.097359751249726"><ele>348.0</ele><time>2026-04-30T08:22:28Z</time></trkpt><trkpt lat="37.53536419602035" lon="14.097324185775813"><ele>348.0</ele><time>2026-04-30T08:22:29Z</time></trkpt><trkpt lat="37.53530038684824" lon="14.097302814534448"><ele>348.0</ele><time>2026-04-30T08:22:30Z</time></trkpt><trkpt lat="37.53520457136722" lon="14.097260559625283"><ele>348.0</ele><time>2026-04-30T08:22:32Z</time></trkpt><trkpt lat="37.535203768227916" lon="14.097109174565013"><ele>348.0</ele><time>2026-04-30T08:22:35Z</time></trkpt><trkpt lat="37.535193465793235" lon="14.097006816709236"><ele>348.0</ele><time>2026-04-30T08:22:36Z</time></trkpt><trkpt lat="37.53515691645445" lon="14.096884471725653"><ele>348.0</ele><time>2026-04-30T08:22:37Z</time></trkpt><trkpt lat="37.535092600455755" lon="14.096771509366842"><ele>348.0</ele><time>2026-04-30T08:22:38Z</time></trkpt><trkpt lat="37.53501015493947" lon="14.096664763502288"><ele>346.75</ele><time>2026-04-30T08:22:39Z</time></trkpt><trkpt lat="37.53491963482226" lon="14.09655759880802"><ele>345.5</ele><time>2026-04-30T08:22:40Z</time></trkpt><trkpt lat="37.53482508603165" lon="14.096450254374895"><ele>344.25</ele><time>2026-04-30T08:22:41Z</time></trkpt><trkpt lat="37.5347245776091" lon="14.09633146671562"><ele>343.0</ele><time>2026-04-30T08:22:42Z</time></trkpt><trkpt lat="37.53460805539667" lon="14.09619388300819"><ele>344.0</ele><time>2026-04-30T08:22:43Z</time></trkpt><trkpt lat="37.53446345060504" lon="14.096073512482823"><ele>345.0</ele><time>2026-04-30T08:22:44Z</time></trkpt><trkpt lat="37.53433101450373" lon="14.095956783767742"><ele>346.0</ele><time>2026-04-30T08:22:45Z</time></trkpt><trkpt lat="37.53418788494905" lon="14.095851896846325"><ele>346.0</ele><time>2026-04-30T08:22:46Z</time></trkpt><trkpt lat="37.534061149243755" lon="14.09572691539595"><ele>346.0</ele><time>2026-04-30T08:22:47Z</time></trkpt><trkpt lat="37.5339298004349" lon="14.095620595323387"><ele>346.0</ele><time>2026-04-30T08:22:48Z</time></trkpt><trkpt lat="37.53379823729632" lon="14.095514101676889"><ele>347.0</ele><time>2026-04-30T08:22:49Z</time></trkpt><trkpt lat="37.5336638771748" lon="14.095404728549832"><ele>348.0</ele><time>2026-04-30T08:22:50Z</time></trkpt><trkpt lat="37.53352788898166" lon="14.095292776573606"><ele>349.0</ele><time>2026-04-30T08:22:51Z</time></trkpt><trkpt lat="37.533382803036574" lon="14.095195673449973"><ele>349.0</ele><time>2026-04-30T08:22:52Z</time></trkpt><trkpt lat="37.533254011356306" lon="14.095063405477115"><ele>349.0</ele><time>2026-04-30T08:22:53Z</time></trkpt><trkpt lat="37.533112086470446" lon="14.094955108644584"><ele>349.0</ele><time>2026-04-30T08:22:54Z</time></trkpt><trkpt lat="37.53296209537876" lon="14.094864284456758"><ele>349.75</ele><time>2026-04-30T08:22:55Z</time></trkpt><trkpt lat="37.532826592941255" lon="14.094754699446357"><ele>350.5</ele><time>2026-04-30T08:22:56Z</time></trkpt><trkpt lat="37.53271493925968" lon="14.09463660243272"><ele>351.25</ele><time>2026-04-30T08:22:57Z</time></trkpt><trkpt lat="37.53260220057101" lon="14.09453510232775"><ele>352.0</ele><time>2026-04-30T08:22:58Z</time></trkpt><trkpt lat="37.53249141465567" lon="14.09442787861342"><ele>352.0</ele><time>2026-04-30T08:22:59Z</time></trkpt><trkpt lat="37.53238028709738" lon="14.094311196751363"><ele>352.0</ele><time>2026-04-30T08:23:00Z</time></trkpt><trkpt lat="37.53225643742435" lon="14.094206776630806"><ele>352.0</ele><time>2026-04-30T08:23:01Z</time></trkpt><trkpt lat="37.53215219405204" lon="14.094075053568087"><ele>352.0</ele><time>2026-04-30T08:23:02Z</time></trkpt><trkpt lat="37.53205275593662" lon="14.093933767717123"><ele>350.0</ele><time>2026-04-30T08:23:03Z</time></trkpt><trkpt lat="37.531954773755906" lon="14.09378769511143"><ele>348.0</ele><time>2026-04-30T08:23:04Z</time></trkpt><trkpt lat="37.53185732186559" lon="14.093635382684463"><ele>346.0</ele><time>2026-04-30T08:23:05Z</time></trkpt><trkpt lat="37.53176317381053" lon="14.0934780854527"><ele>346.0</ele><time>2026-04-30T08:23:06Z</time></trkpt><trkpt lat="37.53167643047641" lon="14.093307386313459"><ele>346.0</ele><time>2026-04-30T08:23:07Z</time></trkpt><trkpt lat="37.53159203545692" lon="14.093130130212137"><ele>346.0</ele><time>2026-04-30T08:23:08Z</time></trkpt><trkpt lat="37.53151485750582" lon="14.092940904430348"><ele>347.3333333333333</ele><time>2026-04-30T08:23:09Z</time></trkpt><trkpt lat="37.531441960428914" lon="14.092753789148162"><ele>348.6666666666667</ele><time>2026-04-30T08:23:10Z</time></trkpt><trkpt lat="37.53137702255554" lon="14.09256114899137"><ele>350.0</ele><time>2026-04-30T08:23:11Z</time></trkpt><trkpt lat="37.53131909775974" lon="14.092364465733064"><ele>352.6666666666667</ele><time>2026-04-30T08:23:12Z</time></trkpt><trkpt lat="37.53126673714911" lon="14.092167252318015"><ele>355.3333333333333</ele><time>2026-04-30T08:23:13Z</time></trkpt><trkpt lat="37.53121969438255" lon="14.091978242897037"><ele>358.0</ele><time>2026-04-30T08:23:14Z</time></trkpt><trkpt lat="37.53118155202199" lon="14.091792300037701"><ele>359.0</ele><time>2026-04-30T08:23:15Z</time></trkpt><trkpt lat="37.5311705568583" lon="14.091596772203792"><ele>360.0</ele><time>2026-04-30T08:23:16Z</time></trkpt><trkpt lat="37.531150224655576" lon="14.091398959781626"><ele>361.0</ele><time>2026-04-30T08:23:17Z</time></trkpt><trkpt lat="37.53111907440952" lon="14.091198287359632"><ele>361.66666666666663</ele><time>2026-04-30T08:23:18Z</time></trkpt><trkpt lat="37.53110406686113" lon="14.090985369531863"><ele>362.3333333333333</ele><time>2026-04-30T08:23:19Z</time></trkpt><trkpt lat="37.531080080178384" lon="14.090770450791013"><ele>363.0</ele><time>2026-04-30T08:23:20Z</time></trkpt><trkpt lat="37.531075827775204" lon="14.090563274099049"><ele>363.75</ele><time>2026-04-30T08:23:21Z</time></trkpt><trkpt lat="37.53105959733874" lon="14.09038105264055"><ele>364.5</ele><time>2026-04-30T08:23:22Z</time></trkpt><trkpt lat="37.531043301333376" lon="14.090213011192073"><ele>365.25</ele><time>2026-04-30T08:23:23Z</time></trkpt><trkpt lat="37.53102816107331" lon="14.090056887390997"><ele>366.0</ele><time>2026-04-30T08:23:24Z</time></trkpt><trkpt lat="37.531015099602534" lon="14.089907816511005"><ele>366.8</ele><time>2026-04-30T08:23:25Z</time></trkpt><trkpt lat="37.531003500352405" lon="14.089772984077056"><ele>367.6</ele><time>2026-04-30T08:23:26Z</time></trkpt><trkpt lat="37.53099300306691" lon="14.089650961090895"><ele>368.4</ele><time>2026-04-30T08:23:27Z</time></trkpt><trkpt lat="37.53099888299697" lon="14.089536211654641"><ele>369.2</ele><time>2026-04-30T08:23:28Z</time></trkpt><trkpt lat="37.531031827216125" lon="14.08942696116563"><ele>370.0</ele><time>2026-04-30T08:23:29Z</time></trkpt><trkpt lat="37.531122020368585" lon="14.089357737495149"><ele>371.75</ele><time>2026-04-30T08:23:30Z</time></trkpt><trkpt lat="37.53122814916186" lon="14.089332753039164"><ele>373.5</ele><time>2026-04-30T08:23:31Z</time></trkpt><trkpt lat="37.53134440185337" lon="14.08929590501487"><ele>375.25</ele><time>2026-04-30T08:23:32Z</time></trkpt><trkpt lat="37.53146444123853" lon="14.089249352067405"><ele>377.0</ele><time>2026-04-30T08:23:33Z</time></trkpt><trkpt lat="37.5315875056745" lon="14.089196835927092"><ele>377.0</ele><time>2026-04-30T08:23:34Z</time></trkpt><trkpt lat="37.531710171742105" lon="14.089161615931545"><ele>377.0</ele><time>2026-04-30T08:23:35Z</time></trkpt><trkpt lat="37.531823203725594" lon="14.089120817708087"><ele>377.0</ele><time>2026-04-30T08:23:36Z</time></trkpt><trkpt lat="37.53192868472013" lon="14.089084771136815"><ele>377.0</ele><time>2026-04-30T08:23:37Z</time></trkpt><trkpt lat="37.53203143112012" lon="14.08905302119422"><ele>377.6</ele><time>2026-04-30T08:23:38Z</time></trkpt><trkpt lat="37.532121360788544" lon="14.089024849700621"><ele>378.20000000000005</ele><time>2026-04-30T08:23:39Z</time></trkpt><trkpt lat="37.53218178603992" lon="14.089002051236179"><ele>378.8</ele><time>2026-04-30T08:23:40Z</time></trkpt><trkpt lat="37.53225937451585" lon="14.088976072975791"><ele>379.4</ele><time>2026-04-30T08:23:42Z</time></trkpt><trkpt lat="37.53224543997857" lon="14.08880156549733"><ele>380.0</ele><time>2026-04-30T08:23:43Z</time></trkpt><trkpt lat="37.53224878572963" lon="14.088678456969687"><ele>380.0</ele><time>2026-04-30T08:23:44Z</time></trkpt><trkpt lat="37.53223277457714" lon="14.08854413647826"><ele>380.0</ele><time>2026-04-30T08:23:45Z</time></trkpt><trkpt lat="37.532213496750664" lon="14.088420085589775"><ele>380.0</ele><time>2026-04-30T08:23:46Z</time></trkpt><trkpt lat="37.53219167253115" lon="14.088294200863315"><ele>380.0</ele><time>2026-04-30T08:23:47Z</time></trkpt><trkpt lat="37.532157462880804" lon="14.088145597850955"><ele>380.0</ele><time>2026-04-30T08:23:48Z</time></trkpt><trkpt lat="37.53211152667914" lon="14.087996489078778"><ele>380.25</ele><time>2026-04-30T08:23:49Z</time></trkpt><trkpt lat="37.532054464530155" lon="14.087840809865769"><ele>380.5</ele><time>2026-04-30T08:23:50Z</time></trkpt><trkpt lat="37.53199823076889" lon="14.087695592434768"><ele>380.75</ele><time>2026-04-30T08:23:51Z</time></trkpt><trkpt lat="37.53194103918151" lon="14.087548598206446"><ele>381.0</ele><time>2026-04-30T08:23:52Z</time></trkpt><trkpt lat="37.53187826367984" lon="14.087395672718348"><ele>381.75</ele><time>2026-04-30T08:23:53Z</time></trkpt><trkpt lat="37.53181555272919" lon="14.087240616347762"><ele>382.5</ele><time>2026-04-30T08:23:54Z</time></trkpt><trkpt lat="37.531772057198516" lon="14.087079790775157"><ele>383.25</ele><time>2026-04-30T08:23:55Z</time></trkpt><trkpt lat="37.53173150334665" lon="14.086908637037139"><ele>384.0</ele><time>2026-04-30T08:23:56Z</time></trkpt><trkpt lat="37.53170273797202" lon="14.086742029932285"><ele>383.75</ele><time>2026-04-30T08:23:57Z</time></trkpt><trkpt lat="37.53168133799151" lon="14.086583619303786"><ele>383.5</ele><time>2026-04-30T08:23:58Z</time></trkpt><trkpt lat="37.531662843190034" lon="14.086428185145884"><ele>383.25</ele><time>2026-04-30T08:23:59Z</time></trkpt><trkpt lat="37.53164677236872" lon="14.086268306935636"><ele>383.0</ele><time>2026-04-30T08:24:00Z</time></trkpt><trkpt lat="37.531637677926525" lon="14.086120117002574"><ele>383.0</ele><time>2026-04-30T08:24:01Z</time></trkpt><trkpt lat="37.53163272372403" lon="14.085972520303995"><ele>383.0</ele><time>2026-04-30T08:24:02Z</time></trkpt><trkpt lat="37.53163448606213" lon="14.085819978057014"><ele>383.0</ele><time>2026-04-30T08:24:03Z</time></trkpt><trkpt lat="37.53163785827057" lon="14.085658552013617"><ele>383.0</ele><time>2026-04-30T08:24:04Z</time></trkpt><trkpt lat="37.53163073338872" lon="14.085488066786613"><ele>383.25</ele><time>2026-04-30T08:24:05Z</time></trkpt><trkpt lat="37.53159380378017" lon="14.085319824283536"><ele>383.5</ele><time>2026-04-30T08:24:06Z</time></trkpt><trkpt lat="37.53153390040948" lon="14.08516889521518"><ele>383.75</ele><time>2026-04-30T08:24:07Z</time></trkpt><trkpt lat="37.531466519828506" lon="14.08501845101975"><ele>384.0</ele><time>2026-04-30T08:24:08Z</time></trkpt><trkpt lat="37.53139709261775" lon="14.084862034926632"><ele>384.5</ele><time>2026-04-30T08:24:09Z</time></trkpt><trkpt lat="37.53132674310763" lon="14.084703540965394"><ele>385.0</ele><time>2026-04-30T08:24:10Z</time></trkpt><trkpt lat="37.53125559803347" lon="14.084543254687457"><ele>385.5</ele><time>2026-04-30T08:24:11Z</time></trkpt><trkpt lat="37.531186117120725" lon="14.0843882601838"><ele>386.0</ele><time>2026-04-30T08:24:12Z</time></trkpt><trkpt lat="37.531128364617814" lon="14.084254642179154"><ele>386.0</ele><time>2026-04-30T08:24:13Z</time></trkpt><trkpt lat="37.53109330509542" lon="14.084145920628988"><ele>386.0</ele><time>2026-04-30T08:24:14Z</time></trkpt><trkpt lat="37.5311171367618" lon="14.08404679584156"><ele>386.0</ele><time>2026-04-30T08:24:15Z</time></trkpt><trkpt lat="37.531124313122525" lon="14.083893684052835"><ele>386.0</ele><time>2026-04-30T08:24:16Z</time></trkpt><trkpt lat="37.53112826749033" lon="14.08372480195934"><ele>386.0</ele><time>2026-04-30T08:24:17Z</time></trkpt><trkpt lat="37.53111315517287" lon="14.083551762478596"><ele>387.0</ele><time>2026-04-30T08:24:18Z</time></trkpt><trkpt lat="37.53109718324883" lon="14.083394005960384"><ele>388.0</ele><time>2026-04-30T08:24:19Z</time></trkpt><trkpt lat="37.53108039704837" lon="14.083236387015052"><ele>389.0</ele><time>2026-04-30T08:24:20Z</time></trkpt><trkpt lat="37.53106246381957" lon="14.083067997655718"><ele>390.0</ele><time>2026-04-30T08:24:21Z</time></trkpt><trkpt lat="37.5310460608709" lon="14.08288745974356"><ele>391.33333333333337</ele><time>2026-04-30T08:24:22Z</time></trkpt><trkpt lat="37.53102912019387" lon="14.08269352798836"><ele>392.6666666666667</ele><time>2026-04-30T08:24:23Z</time></trkpt><trkpt lat="37.5310118589037" lon="14.08249592593629"><ele>394.0</ele><time>2026-04-30T08:24:24Z</time></trkpt><trkpt lat="37.53099699571183" lon="14.082301801971868"><ele>394.5</ele><time>2026-04-30T08:24:25Z</time></trkpt><trkpt lat="37.53098362016394" lon="14.082126076230342"><ele>395.0</ele><time>2026-04-30T08:24:26Z</time></trkpt><trkpt lat="37.53097207601684" lon="14.081958847574835"><ele>395.5</ele><time>2026-04-30T08:24:27Z</time></trkpt><trkpt lat="37.53096202650175" lon="14.081791698854365"><ele>396.0</ele><time>2026-04-30T08:24:28Z</time></trkpt><trkpt lat="37.53095312902578" lon="14.081619704421765"><ele>396.25</ele><time>2026-04-30T08:24:29Z</time></trkpt><trkpt lat="37.53094586193477" lon="14.08145191140825"><ele>396.5</ele><time>2026-04-30T08:24:30Z</time></trkpt><trkpt lat="37.53093976224908" lon="14.081299132788644"><ele>396.75</ele><time>2026-04-30T08:24:31Z</time></trkpt><trkpt lat="37.530933227401654" lon="14.08113545469206"><ele>397.0</ele><time>2026-04-30T08:24:32Z</time></trkpt><trkpt lat="37.53092640287744" lon="14.080964521143846"><ele>397.0</ele><time>2026-04-30T08:24:33Z</time></trkpt><trkpt lat="37.530919075653046" lon="14.080780996427364"><ele>397.0</ele><time>2026-04-30T08:24:34Z</time></trkpt><trkpt lat="37.53091140693551" lon="14.080599659053949"><ele>397.0</ele><time>2026-04-30T08:24:35Z</time></trkpt><trkpt lat="37.53090278569569" lon="14.080418615868682"><ele>397.0</ele><time>2026-04-30T08:24:36Z</time></trkpt><trkpt lat="37.530892006468505" lon="14.080232023765818"><ele>397.33333333333337</ele><time>2026-04-30T08:24:37Z</time></trkpt><trkpt lat="37.530880390374186" lon="14.080041682583433"><ele>397.66666666666663</ele><time>2026-04-30T08:24:38Z</time></trkpt><trkpt lat="37.53086601900162" lon="14.079842325873331"><ele>398.0</ele><time>2026-04-30T08:24:39Z</time></trkpt><trkpt lat="37.53085124295949" lon="14.0796373556658"><ele>398.0</ele><time>2026-04-30T08:24:40Z</time></trkpt><trkpt lat="37.53083405859505" lon="14.079433589353032"><ele>398.0</ele><time>2026-04-30T08:24:41Z</time></trkpt><trkpt lat="37.530817406147996" lon="14.07924282018565"><ele>398.0</ele><time>2026-04-30T08:24:42Z</time></trkpt><trkpt lat="37.530802481632364" lon="14.079048957613526"><ele>398.3333333333333</ele><time>2026-04-30T08:24:43Z</time></trkpt><trkpt lat="37.53078796042643" lon="14.078856888716427"><ele>398.66666666666663</ele><time>2026-04-30T08:24:44Z</time></trkpt><trkpt lat="37.53077220105474" lon="14.078662083130435"><ele>399.0</ele><time>2026-04-30T08:24:45Z</time></trkpt><trkpt lat="37.53075357486342" lon="14.07845847304244"><ele>400.0</ele><time>2026-04-30T08:24:46Z</time></trkpt><trkpt lat="37.53072917798895" lon="14.078251165923158"><ele>401.0</ele><time>2026-04-30T08:24:47Z</time></trkpt><trkpt lat="37.530699817714556" lon="14.07803607603358"><ele>402.0</ele><time>2026-04-30T08:24:48Z</time></trkpt><trkpt lat="37.53066788491161" lon="14.07782080603237"><ele>402.0</ele><time>2026-04-30T08:24:49Z</time></trkpt><trkpt lat="37.53063418967615" lon="14.077609207415348"><ele>402.0</ele><time>2026-04-30T08:24:50Z</time></trkpt><trkpt lat="37.530602300639934" lon="14.077409058838994"><ele>402.0</ele><time>2026-04-30T08:24:51Z</time></trkpt><trkpt lat="37.530569357130645" lon="14.077214871455633"><ele>401.75</ele><time>2026-04-30T08:24:52Z</time></trkpt><trkpt lat="37.530532160473676" lon="14.077038897851066"><ele>401.5</ele><time>2026-04-30T08:24:53Z</time></trkpt><trkpt lat="37.53048953074035" lon="14.076867233249205"><ele>401.25</ele><time>2026-04-30T08:24:54Z</time></trkpt><trkpt lat="37.53044422068466" lon="14.076700296137524"><ele>401.0</ele><time>2026-04-30T08:24:55Z</time></trkpt><trkpt lat="37.53040189029006" lon="14.076542614633043"><ele>401.6</ele><time>2026-04-30T08:24:56Z</time></trkpt><trkpt lat="37.53036480653561" lon="14.07640161432487"><ele>402.20000000000005</ele><time>2026-04-30T08:24:57Z</time></trkpt><trkpt lat="37.530335404105145" lon="14.076288982939278"><ele>402.79999999999995</ele><time>2026-04-30T08:24:57.999Z</time></trkpt><trkpt lat="37.530305027106984" lon="14.0761709519328"><ele>403.4</ele><time>2026-04-30T08:24:58.999Z</time></trkpt><trkpt lat="37.530264139267544" lon="14.076053113274837"><ele>404.0</ele><time>2026-04-30T08:24:59.999Z</time></trkpt><trkpt lat="37.530201368283905" lon="14.075937501699435"><ele>404.0</ele><time>2026-04-30T08:25:00.999Z</time></trkpt><trkpt lat="37.5301417202085" lon="14.0758246698593"><ele>404.0</ele><time>2026-04-30T08:25:01.999Z</time></trkpt><trkpt lat="37.53007829722442" lon="14.075702095421313"><ele>404.0</ele><time>2026-04-30T08:25:02.999Z</time></trkpt><trkpt lat="37.53001781851341" lon="14.07556895886986"><ele>404.0</ele><time>2026-04-30T08:25:04Z</time></trkpt><trkpt lat="37.52995580326818" lon="14.075430292784377"><ele>403.0</ele><time>2026-04-30T08:25:05Z</time></trkpt><trkpt lat="37.52989269102446" lon="14.07530474381583"><ele>402.0</ele><time>2026-04-30T08:25:06Z</time></trkpt><trkpt lat="37.529831132676875" lon="14.075182286190898"><ele>401.0</ele><time>2026-04-30T08:25:07Z</time></trkpt><trkpt lat="37.52975971360415" lon="14.075072577132786"><ele>400.0</ele><time>2026-04-30T08:25:08Z</time></trkpt><trkpt lat="37.52970430793999" lon="14.07496061762669"><ele>399.0</ele><time>2026-04-30T08:25:09Z</time></trkpt><trkpt lat="37.52966286144952" lon="14.074880157002614"><ele>398.0</ele><time>2026-04-30T08:25:10Z</time></trkpt><trkpt lat="37.5296223099902" lon="14.074770533263166"><ele>397.0</ele><time>2026-04-30T08:25:12Z</time></trkpt><trkpt lat="37.529489719547605" lon="14.074746606339364"><ele>396.0</ele><time>2026-04-30T08:25:14Z</time></trkpt><trkpt lat="37.529375635570446" lon="14.07479717764719"><ele>395.0</ele><time>2026-04-30T08:25:16Z</time></trkpt><trkpt lat="37.529296811571996" lon="14.074817595312268"><ele>396.66666666666663</ele><time>2026-04-30T08:25:17Z</time></trkpt><trkpt lat="37.52922483166446" lon="14.074854457141784"><ele>398.3333333333333</ele><time>2026-04-30T08:25:18Z</time></trkpt><trkpt lat="37.529149752684354" lon="14.074855357666468"><ele>400.0</ele><time>2026-04-30T08:25:19Z</time></trkpt><trkpt lat="37.52904009469916" lon="14.074841350180137"><ele>401.66666666666663</ele><time>2026-04-30T08:25:21Z</time></trkpt><trkpt lat="37.52898805042599" lon="14.074769103521891"><ele>403.3333333333333</ele><time>2026-04-30T08:25:22Z</time></trkpt><trkpt lat="37.529009424894035" lon="14.074687885171258"><ele>405.0</ele><time>2026-04-30T08:25:23Z</time></trkpt><trkpt lat="37.52896780552144" lon="14.074581462506117"><ele>405.0</ele><time>2026-04-30T08:25:24Z</time></trkpt><trkpt lat="37.52893781720251" lon="14.074504909611955"><ele>405.0</ele><time>2026-04-30T08:25:25Z</time></trkpt><trkpt lat="37.528806048758796" lon="14.07421694633712"><ele>405.0</ele><time>2026-04-30T08:25:26Z</time></trkpt><trkpt lat="37.52872296611652" lon="14.07409008429809"><ele>406.5</ele><time>2026-04-30T08:25:27Z</time></trkpt><trkpt lat="37.528611642234885" lon="14.073975136778104"><ele>408.0</ele><time>2026-04-30T08:25:28Z</time></trkpt><trkpt lat="37.5284944906073" lon="14.073873057488353"><ele>409.5</ele><time>2026-04-30T08:25:29Z</time></trkpt><trkpt lat="37.52837538589974" lon="14.07377032746737"><ele>411.0</ele><time>2026-04-30T08:25:30Z</time></trkpt><trkpt lat="37.52825706706556" lon="14.073668285323794"><ele>411.0</ele><time>2026-04-30T08:25:31Z</time></trkpt><trkpt lat="37.52812233627629" lon="14.073562560651693"><ele>411.0</ele><time>2026-04-30T08:25:32Z</time></trkpt><trkpt lat="37.527981630628915" lon="14.073456007888565"><ele>411.0</ele><time>2026-04-30T08:25:33Z</time></trkpt><trkpt lat="37.527850115086984" lon="14.07335079140894"><ele>413.25</ele><time>2026-04-30T08:25:34Z</time></trkpt><trkpt lat="37.52772629026589" lon="14.073246041848654"><ele>415.5</ele><time>2026-04-30T08:25:35Z</time></trkpt><trkpt lat="37.527603310250306" lon="14.073141831665845"><ele>417.75</ele><time>2026-04-30T08:25:36Z</time></trkpt><trkpt lat="37.52747936198249" lon="14.073036539833256"><ele>420.0</ele><time>2026-04-30T08:25:37Z</time></trkpt><trkpt lat="37.52735093294221" lon="14.072926800659543"><ele>420.0</ele><time>2026-04-30T08:25:38Z</time></trkpt><trkpt lat="37.5272103174446" lon="14.07280664868973"><ele>420.0</ele><time>2026-04-30T08:25:39Z</time></trkpt><trkpt lat="37.52706162323921" lon="14.07267664483871"><ele>420.0</ele><time>2026-04-30T08:25:40Z</time></trkpt><trkpt lat="37.52691894633877" lon="14.072550044327908"><ele>421.0</ele><time>2026-04-30T08:25:41Z</time></trkpt><trkpt lat="37.5267832636409" lon="14.072425889613909"><ele>422.0</ele><time>2026-04-30T08:25:42Z</time></trkpt><trkpt lat="37.52664397348266" lon="14.072285838546152"><ele>423.0</ele><time>2026-04-30T08:25:43Z</time></trkpt><trkpt lat="37.526521275900755" lon="14.072143115831215"><ele>423.0</ele><time>2026-04-30T08:25:44Z</time></trkpt><trkpt lat="37.52640087302804" lon="14.071995165237738"><ele>423.0</ele><time>2026-04-30T08:25:45Z</time></trkpt><trkpt lat="37.52628374987456" lon="14.071834371958214"><ele>423.0</ele><time>2026-04-30T08:25:46Z</time></trkpt><trkpt lat="37.526166892159125" lon="14.071688618858673"><ele>426.0</ele><time>2026-04-30T08:25:47Z</time></trkpt><trkpt lat="37.5260724500458" lon="14.071539118032888"><ele>429.0</ele><time>2026-04-30T08:25:48Z</time></trkpt><trkpt lat="37.52599755184056" lon="14.071361269014593"><ele>432.0</ele><time>2026-04-30T08:25:49Z</time></trkpt><trkpt lat="37.52591314439627" lon="14.071192502382491"><ele>432.0</ele><time>2026-04-30T08:25:50Z</time></trkpt><trkpt lat="37.52581696981483" lon="14.07102232359841"><ele>432.0</ele><time>2026-04-30T08:25:51Z</time></trkpt><trkpt lat="37.52574014699842" lon="14.070835119954845"><ele>432.0</ele><time>2026-04-30T08:25:52Z</time></trkpt><trkpt lat="37.52566931452147" lon="14.07063409367623"><ele>432.33333333333337</ele><time>2026-04-30T08:25:53Z</time></trkpt><trkpt lat="37.525605913089834" lon="14.070420556588756"><ele>432.6666666666667</ele><time>2026-04-30T08:25:54Z</time></trkpt><trkpt lat="37.525550515261635" lon="14.070197498721353"><ele>433.0</ele><time>2026-04-30T08:25:55Z</time></trkpt><trkpt lat="37.52550241739346" lon="14.069970583781881"><ele>434.0</ele><time>2026-04-30T08:25:56Z</time></trkpt><trkpt lat="37.52546192807665" lon="14.069747303983984"><ele>435.0</ele><time>2026-04-30T08:25:57Z</time></trkpt><trkpt lat="37.52542677246994" lon="14.069518230197046"><ele>436.0</ele><time>2026-04-30T08:25:58Z</time></trkpt><trkpt lat="37.525404493906834" lon="14.069288572907517"><ele>438.0</ele><time>2026-04-30T08:25:59Z</time></trkpt><trkpt lat="37.52539284590886" lon="14.069056378845435"><ele>440.0</ele><time>2026-04-30T08:26:00Z</time></trkpt><trkpt lat="37.525388450573075" lon="14.06881682689164"><ele>442.0</ele><time>2026-04-30T08:26:01Z</time></trkpt><trkpt lat="37.525386962069" lon="14.068574447201918"><ele>441.6666666666667</ele><time>2026-04-30T08:26:02Z</time></trkpt><trkpt lat="37.525405843813274" lon="14.068338287751462"><ele>441.33333333333337</ele><time>2026-04-30T08:26:03Z</time></trkpt><trkpt lat="37.52541302077318" lon="14.068101926426412"><ele>441.0</ele><time>2026-04-30T08:26:04Z</time></trkpt><trkpt lat="37.525420631482255" lon="14.067867063592363"><ele>443.66666666666663</ele><time>2026-04-30T08:26:05Z</time></trkpt><trkpt lat="37.525428920344915" lon="14.067623300909803"><ele>446.3333333333333</ele><time>2026-04-30T08:26:06Z</time></trkpt><trkpt lat="37.52543734008623" lon="14.067375689228278"><ele>449.0</ele><time>2026-04-30T08:26:07Z</time></trkpt><trkpt lat="37.52544516306336" lon="14.067124175949543"><ele>451.66666666666663</ele><time>2026-04-30T08:26:08Z</time></trkpt><trkpt lat="37.52545290793821" lon="14.066874861303619"><ele>454.33333333333337</ele><time>2026-04-30T08:26:09Z</time></trkpt><trkpt lat="37.52544587086375" lon="14.066632772813135"><ele>457.0</ele><time>2026-04-30T08:26:10Z</time></trkpt><trkpt lat="37.525457269156966" lon="14.06640269540256"><ele>457.6666666666667</ele><time>2026-04-30T08:26:11Z</time></trkpt><trkpt lat="37.525466857367505" lon="14.06617043732492"><ele>458.33333333333337</ele><time>2026-04-30T08:26:12Z</time></trkpt><trkpt lat="37.52546656472635" lon="14.06592354226652"><ele>459.0</ele><time>2026-04-30T08:26:13Z</time></trkpt><trkpt lat="37.52545220781447" lon="14.06568101678842"><ele>457.33333333333337</ele><time>2026-04-30T08:26:14Z</time></trkpt><trkpt lat="37.525427037593154" lon="14.065460455696071"><ele>455.6666666666667</ele><time>2026-04-30T08:26:15Z</time></trkpt><trkpt lat="37.52541993345842" lon="14.065258270633862"><ele>454.0</ele><time>2026-04-30T08:26:16Z</time></trkpt><trkpt lat="37.525395828415675" lon="14.065072906420786"><ele>452.75</ele><time>2026-04-30T08:26:17Z</time></trkpt><trkpt lat="37.52535870799244" lon="14.064898753195298"><ele>451.5</ele><time>2026-04-30T08:26:18Z</time></trkpt><trkpt lat="37.525336293185575" lon="14.064721865277171"><ele>450.25</ele><time>2026-04-30T08:26:19Z</time></trkpt><trkpt lat="37.52532588077699" lon="14.06454199364398"><ele>449.0</ele><time>2026-04-30T08:26:20Z</time></trkpt><trkpt lat="37.52530277732036" lon="14.064367005316576"><ele>449.0</ele><time>2026-04-30T08:26:21Z</time></trkpt><trkpt lat="37.525278610936766" lon="14.064188949562178"><ele>449.0</ele><time>2026-04-30T08:26:22Z</time></trkpt><trkpt lat="37.52523602085828" lon="14.064012636860467"><ele>449.0</ele><time>2026-04-30T08:26:23Z</time></trkpt><trkpt lat="37.52520777560732" lon="14.063829660979593"><ele>449.0</ele><time>2026-04-30T08:26:24Z</time></trkpt><trkpt lat="37.525172820765036" lon="14.063642796486317"><ele>451.3333333333333</ele><time>2026-04-30T08:26:25Z</time></trkpt><trkpt lat="37.525149968073826" lon="14.06343771670247"><ele>453.66666666666663</ele><time>2026-04-30T08:26:26Z</time></trkpt><trkpt lat="37.52510757612233" lon="14.063228871446082"><ele>456.0</ele><time>2026-04-30T08:26:27Z</time></trkpt><trkpt lat="37.525064441913294" lon="14.06301371780077"><ele>459.66666666666663</ele><time>2026-04-30T08:26:28Z</time></trkpt><trkpt lat="37.525021350810285" lon="14.062798797377889"><ele>463.3333333333333</ele><time>2026-04-30T08:26:29Z</time></trkpt><trkpt lat="37.52497853718652" lon="14.062585961072633"><ele>467.0</ele><time>2026-04-30T08:26:30Z</time></trkpt><trkpt lat="37.52493166366034" lon="14.06237104394602"><ele>468.66666666666663</ele><time>2026-04-30T08:26:31Z</time></trkpt><trkpt lat="37.524878695569406" lon="14.06215460741919"><ele>470.33333333333337</ele><time>2026-04-30T08:26:32Z</time></trkpt><trkpt lat="37.52480819944582" lon="14.061946861685401"><ele>472.0</ele><time>2026-04-30T08:26:33Z</time></trkpt><trkpt lat="37.52474729669263" lon="14.061733666070388"><ele>472.0</ele><time>2026-04-30T08:26:34Z</time></trkpt><trkpt lat="37.52468900893225" lon="14.06150904928285"><ele>472.0</ele><time>2026-04-30T08:26:35Z</time></trkpt><trkpt lat="37.52459563432992" lon="14.061293910579288"><ele>472.0</ele><time>2026-04-30T08:26:36Z</time></trkpt><trkpt lat="37.52450946564653" lon="14.061066425533436"><ele>474.6666666666667</ele><time>2026-04-30T08:26:37Z</time></trkpt><trkpt lat="37.52440992333449" lon="14.060844732562124"><ele>477.33333333333337</ele><time>2026-04-30T08:26:38Z</time></trkpt><trkpt lat="37.52431099769372" lon="14.060648390421557"><ele>480.0</ele><time>2026-04-30T08:26:39Z</time></trkpt><trkpt lat="37.5242130253797" lon="14.060460243891635"><ele>481.66666666666663</ele><time>2026-04-30T08:26:40Z</time></trkpt><trkpt lat="37.524117819534446" lon="14.06025346019385"><ele>483.3333333333333</ele><time>2026-04-30T08:26:41Z</time></trkpt><trkpt lat="37.52402265851087" lon="14.06003664354995"><ele>485.0</ele><time>2026-04-30T08:26:42Z</time></trkpt><trkpt lat="37.52391271608621" lon="14.059814474934207"><ele>485.66666666666663</ele><time>2026-04-30T08:26:43Z</time></trkpt><trkpt lat="37.52380233749638" lon="14.059587552924972"><ele>486.33333333333337</ele><time>2026-04-30T08:26:44Z</time></trkpt><trkpt lat="37.52370145600233" lon="14.05937822304549"><ele>487.0</ele><time>2026-04-30T08:26:45Z</time></trkpt><trkpt lat="37.523600203927444" lon="14.059208588239558"><ele>491.6666666666667</ele><time>2026-04-30T08:26:46Z</time></trkpt><trkpt lat="37.5235168776101" lon="14.05902866591763"><ele>496.33333333333337</ele><time>2026-04-30T08:26:47Z</time></trkpt><trkpt lat="37.523414240518846" lon="14.058842519565651"><ele>501.0</ele><time>2026-04-30T08:26:48Z</time></trkpt><trkpt lat="37.523300825188926" lon="14.058685072229894"><ele>501.0</ele><time>2026-04-30T08:26:49Z</time></trkpt><trkpt lat="37.523205640314046" lon="14.05855607911571"><ele>501.0</ele><time>2026-04-30T08:26:50Z</time></trkpt><trkpt lat="37.523132588035445" lon="14.058462517290613"><ele>501.0</ele><time>2026-04-30T08:26:51Z</time></trkpt><trkpt lat="37.52306190790246" lon="14.0584152414339"><ele>501.0</ele><time>2026-04-30T08:26:52Z</time></trkpt><trkpt lat="37.523034679022565" lon="14.05832560835227"><ele>501.0</ele><time>2026-04-30T08:26:53Z</time></trkpt><trkpt lat="37.52302863912576" lon="14.058205774392684"><ele>501.0</ele><time>2026-04-30T08:26:54Z</time></trkpt><trkpt lat="37.52304756934359" lon="14.058072587237039"><ele>501.0</ele><time>2026-04-30T08:26:55Z</time></trkpt><trkpt lat="37.523077399758535" lon="14.057967362045742"><ele>501.0</ele><time>2026-04-30T08:26:56Z</time></trkpt><trkpt lat="37.52322202992387" lon="14.05790978411847"><ele>501.0</ele><time>2026-04-30T08:26:57Z</time></trkpt><trkpt lat="37.523326216452176" lon="14.057808647252536"><ele>501.0</ele><time>2026-04-30T08:26:58Z</time></trkpt><trkpt lat="37.52344239752889" lon="14.057702850383142"><ele>501.0</ele><time>2026-04-30T08:26:59Z</time></trkpt><trkpt lat="37.52354598378576" lon="14.057594354855338"><ele>501.0</ele><time>2026-04-30T08:27:00Z</time></trkpt><trkpt lat="37.52363884491794" lon="14.05747685181654"><ele>501.0</ele><time>2026-04-30T08:27:01Z</time></trkpt><trkpt lat="37.523732909847766" lon="14.057330957228725"><ele>499.33333333333337</ele><time>2026-04-30T08:27:02Z</time></trkpt><trkpt lat="37.523822597128955" lon="14.057137242745842"><ele>497.6666666666667</ele><time>2026-04-30T08:27:03Z</time></trkpt><trkpt lat="37.52390366344302" lon="14.05692877114933"><ele>496.0</ele><time>2026-04-30T08:27:04Z</time></trkpt><trkpt lat="37.52397959685045" lon="14.0567207133618"><ele>495.33333333333337</ele><time>2026-04-30T08:27:05Z</time></trkpt><trkpt lat="37.52404915894778" lon="14.05652983258021"><ele>494.66666666666663</ele><time>2026-04-30T08:27:06Z</time></trkpt><trkpt lat="37.524118056300956" lon="14.056344415877069"><ele>494.0</ele><time>2026-04-30T08:27:07Z</time></trkpt><trkpt lat="37.52417899806837" lon="14.056183040615236"><ele>494.0</ele><time>2026-04-30T08:27:08Z</time></trkpt><trkpt lat="37.524240210983145" lon="14.056031809517636"><ele>494.0</ele><time>2026-04-30T08:27:09Z</time></trkpt><trkpt lat="37.52429648658739" lon="14.055887682367791"><ele>494.0</ele><time>2026-04-30T08:27:10Z</time></trkpt><trkpt lat="37.52435296292129" lon="14.055743039906522"><ele>494.0</ele><time>2026-04-30T08:27:11Z</time></trkpt><trkpt lat="37.524410793524915" lon="14.055594928559001"><ele>493.0</ele><time>2026-04-30T08:27:12Z</time></trkpt><trkpt lat="37.52444979226316" lon="14.05542334510739"><ele>492.0</ele><time>2026-04-30T08:27:13Z</time></trkpt><trkpt lat="37.524472169579084" lon="14.055238284121957"><ele>491.0</ele><time>2026-04-30T08:27:14Z</time></trkpt><trkpt lat="37.5244767763317" lon="14.055055574681276"><ele>490.0</ele><time>2026-04-30T08:27:15Z</time></trkpt><trkpt lat="37.524505985954704" lon="14.05487463687427"><ele>490.0</ele><time>2026-04-30T08:27:16Z</time></trkpt><trkpt lat="37.5245212254787" lon="14.05469790605175"><ele>490.0</ele><time>2026-04-30T08:27:17Z</time></trkpt><trkpt lat="37.524544977875586" lon="14.054545923795951"><ele>490.0</ele><time>2026-04-30T08:27:18Z</time></trkpt><trkpt lat="37.52457118843171" lon="14.054428255218053"><ele>490.0</ele><time>2026-04-30T08:27:19Z</time></trkpt><trkpt lat="37.52460772699825" lon="14.054337736432991"><ele>490.0</ele><time>2026-04-30T08:27:20Z</time></trkpt><trkpt lat="37.52467394610218" lon="14.054272377846276"><ele>490.25</ele><time>2026-04-30T08:27:21Z</time></trkpt><trkpt lat="37.5247814199328" lon="14.054248247681016"><ele>490.5</ele><time>2026-04-30T08:27:22Z</time></trkpt><trkpt lat="37.52491786182637" lon="14.054233701093194"><ele>490.75</ele><time>2026-04-30T08:27:23Z</time></trkpt><trkpt lat="37.52507530025674" lon="14.054217389063691"><ele>491.0</ele><time>2026-04-30T08:27:24Z</time></trkpt><trkpt lat="37.52523714854188" lon="14.054221095416702"><ele>491.0</ele><time>2026-04-30T08:27:25Z</time></trkpt><trkpt lat="37.525386522152225" lon="14.054216908884374"><ele>491.0</ele><time>2026-04-30T08:27:26Z</time></trkpt><trkpt lat="37.52553798585629" lon="14.054215199069873"><ele>491.0</ele><time>2026-04-30T08:27:27Z</time></trkpt><trkpt lat="37.52568821638569" lon="14.054224299271958"><ele>489.5</ele><time>2026-04-30T08:27:28Z</time></trkpt><trkpt lat="37.5258381554622" lon="14.054221288227515"><ele>488.0</ele><time>2026-04-30T08:27:29Z</time></trkpt><trkpt lat="37.52598204198104" lon="14.054199337117755"><ele>486.5</ele><time>2026-04-30T08:27:30Z</time></trkpt><trkpt lat="37.52611736817822" lon="14.054155742845088"><ele>485.0</ele><time>2026-04-30T08:27:31Z</time></trkpt><trkpt lat="37.526238411367125" lon="14.05406943011226"><ele>482.0</ele><time>2026-04-30T08:27:32Z</time></trkpt><trkpt lat="37.52633809412058" lon="14.053942250249154"><ele>479.0</ele><time>2026-04-30T08:27:33Z</time></trkpt><trkpt lat="37.52642957453081" lon="14.053822769043915"><ele>476.0</ele><time>2026-04-30T08:27:34Z</time></trkpt><trkpt lat="37.52651634874372" lon="14.053724501065755"><ele>473.0</ele><time>2026-04-30T08:27:35Z</time></trkpt><trkpt lat="37.5265935105451" lon="14.053657022333331"><ele>473.0</ele><time>2026-04-30T08:27:36Z</time></trkpt><trkpt lat="37.52667092994628" lon="14.053621170845279"><ele>472.99999999999994</ele><time>2026-04-30T08:27:37Z</time></trkpt><trkpt lat="37.526755293494915" lon="14.05362789543396"><ele>472.99999999999994</ele><time>2026-04-30T08:27:38Z</time></trkpt><trkpt lat="37.52683037097799" lon="14.053690127159495"><ele>473.0</ele><time>2026-04-30T08:27:39Z</time></trkpt><trkpt lat="37.52688428013358" lon="14.053809426500525"><ele>473.0</ele><time>2026-04-30T08:27:40Z</time></trkpt><trkpt lat="37.52690979322429" lon="14.053955723893756"><ele>473.0</ele><time>2026-04-30T08:27:41Z</time></trkpt><trkpt lat="37.52691881547731" lon="14.054102401689725"><ele>473.0</ele><time>2026-04-30T08:27:42Z</time></trkpt><trkpt lat="37.52694459933301" lon="14.054249261892943"><ele>473.0</ele><time>2026-04-30T08:27:43Z</time></trkpt><trkpt lat="37.526995205595256" lon="14.054382242426014"><ele>473.0</ele><time>2026-04-30T08:27:44Z</time></trkpt><trkpt lat="37.527080067379224" lon="14.054477460982312"><ele>471.75</ele><time>2026-04-30T08:27:45Z</time></trkpt><trkpt lat="37.527189429223114" lon="14.054535530052663"><ele>470.5</ele><time>2026-04-30T08:27:46Z</time></trkpt><trkpt lat="37.52730720621094" lon="14.05455330537187"><ele>469.25</ele><time>2026-04-30T08:27:47Z</time></trkpt><trkpt lat="37.52742412877561" lon="14.054547480421506"><ele>468.0</ele><time>2026-04-30T08:27:48Z</time></trkpt><trkpt lat="37.52754394985584" lon="14.054550329703229"><ele>468.0</ele><time>2026-04-30T08:27:49Z</time></trkpt><trkpt lat="37.52767071454313" lon="14.05456003135764"><ele>468.0</ele><time>2026-04-30T08:27:50Z</time></trkpt><trkpt lat="37.52779480320284" lon="14.054549117083445"><ele>468.0</ele><time>2026-04-30T08:27:51Z</time></trkpt><trkpt lat="37.5279107866098" lon="14.054509089970562"><ele>468.0</ele><time>2026-04-30T08:27:52Z</time></trkpt><trkpt lat="37.528021559914535" lon="14.054448022103722"><ele>466.5</ele><time>2026-04-30T08:27:53Z</time></trkpt><trkpt lat="37.52812781111088" lon="14.054351816433888"><ele>465.0</ele><time>2026-04-30T08:27:54Z</time></trkpt><trkpt lat="37.528238365076206" lon="14.054233088928461"><ele>463.5</ele><time>2026-04-30T08:27:55Z</time></trkpt><trkpt lat="37.52835617936521" lon="14.054115469023078"><ele>462.0</ele><time>2026-04-30T08:27:56Z</time></trkpt><trkpt lat="37.52847068305989" lon="14.05400479214574"><ele>460.75</ele><time>2026-04-30T08:27:57Z</time></trkpt><trkpt lat="37.52858567490316" lon="14.053891458835723"><ele>459.5</ele><time>2026-04-30T08:27:58Z</time></trkpt><trkpt lat="37.52870222246404" lon="14.053786428700839"><ele>458.25</ele><time>2026-04-30T08:27:59Z</time></trkpt><trkpt lat="37.528819796243994" lon="14.053706353791704"><ele>457.0</ele><time>2026-04-30T08:28:00Z</time></trkpt><trkpt lat="37.528916224591086" lon="14.053653115118614"><ele>456.40000000000003</ele><time>2026-04-30T08:28:01Z</time></trkpt><trkpt lat="37.52899244745961" lon="14.053603840549993"><ele>455.80000000000007</ele><time>2026-04-30T08:28:02Z</time></trkpt><trkpt lat="37.52906548492463" lon="14.053554811598143"><ele>455.2</ele><time>2026-04-30T08:28:03Z</time></trkpt><trkpt lat="37.52913365824925" lon="14.053510759094166"><ele>454.6</ele><time>2026-04-30T08:28:04Z</time></trkpt><trkpt lat="37.529235613634576" lon="14.053445456137363"><ele>454.0</ele><time>2026-04-30T08:28:06Z</time></trkpt><trkpt lat="37.52933030676584" lon="14.053378400753475"><ele>454.0</ele><time>2026-04-30T08:28:08Z</time></trkpt><trkpt lat="37.52940635676645" lon="14.05333818311722"><ele>454.0</ele><time>2026-04-30T08:28:09Z</time></trkpt><trkpt lat="37.52950255897118" lon="14.05328802287927"><ele>454.0</ele><time>2026-04-30T08:28:10Z</time></trkpt><trkpt lat="37.52961535596367" lon="14.053235496250611"><ele>454.0</ele><time>2026-04-30T08:28:11Z</time></trkpt><trkpt lat="37.52974705665075" lon="14.053181292300733"><ele>454.0</ele><time>2026-04-30T08:28:12Z</time></trkpt><trkpt lat="37.52987892612422" lon="14.053134166882877"><ele>455.25</ele><time>2026-04-30T08:28:13Z</time></trkpt><trkpt lat="37.530004611942964" lon="14.053082350607824"><ele>456.5</ele><time>2026-04-30T08:28:14Z</time></trkpt><trkpt lat="37.530130321831365" lon="14.053028125533615"><ele>457.75</ele><time>2026-04-30T08:28:15Z</time></trkpt><trkpt lat="37.53025515478082" lon="14.052983915295894"><ele>459.0</ele><time>2026-04-30T08:28:16Z</time></trkpt><trkpt lat="37.530376146223624" lon="14.052944785926282"><ele>457.66666666666663</ele><time>2026-04-30T08:28:17Z</time></trkpt><trkpt lat="37.530499729010856" lon="14.05290822036234"><ele>456.3333333333333</ele><time>2026-04-30T08:28:18Z</time></trkpt><trkpt lat="37.53065195095848" lon="14.052886499913564"><ele>455.0</ele><time>2026-04-30T08:28:19Z</time></trkpt><trkpt lat="37.530832992845596" lon="14.052884453367664"><ele>455.0</ele><time>2026-04-30T08:28:20Z</time></trkpt><trkpt lat="37.53102943060275" lon="14.052900432279682"><ele>455.0</ele><time>2026-04-30T08:28:21Z</time></trkpt><trkpt lat="37.5312250094358" lon="14.052931518665073"><ele>455.0</ele><time>2026-04-30T08:28:22Z</time></trkpt><trkpt lat="37.53140540887555" lon="14.052964742231872"><ele>452.66666666666663</ele><time>2026-04-30T08:28:23Z</time></trkpt><trkpt lat="37.53157803772611" lon="14.05299907442992"><ele>450.33333333333337</ele><time>2026-04-30T08:28:24Z</time></trkpt><trkpt lat="37.53174638933588" lon="14.053036864364971"><ele>448.0</ele><time>2026-04-30T08:28:25Z</time></trkpt><trkpt lat="37.531907645323685" lon="14.053077626286578"><ele>448.0</ele><time>2026-04-30T08:28:26Z</time></trkpt><trkpt lat="37.53205193891736" lon="14.053100784945695"><ele>448.0</ele><time>2026-04-30T08:28:27Z</time></trkpt><trkpt lat="37.53218215309554" lon="14.05308598598883"><ele>448.0</ele><time>2026-04-30T08:28:28Z</time></trkpt><trkpt lat="37.532310869083084" lon="14.05301503983256"><ele>448.0</ele><time>2026-04-30T08:28:29Z</time></trkpt><trkpt lat="37.53242352594695" lon="14.05289219654719"><ele>445.75</ele><time>2026-04-30T08:28:30Z</time></trkpt><trkpt lat="37.532515454409506" lon="14.052750196968509"><ele>443.5</ele><time>2026-04-30T08:28:31Z</time></trkpt><trkpt lat="37.53258818799471" lon="14.052588511346265"><ele>441.25</ele><time>2026-04-30T08:28:32Z</time></trkpt><trkpt lat="37.53264197978627" lon="14.052406456848779"><ele>439.0</ele><time>2026-04-30T08:28:33Z</time></trkpt><trkpt lat="37.53267724007579" lon="14.052223507877777"><ele>439.0</ele><time>2026-04-30T08:28:34Z</time></trkpt><trkpt lat="37.53273619071678" lon="14.05206255247616"><ele>439.0</ele><time>2026-04-30T08:28:35Z</time></trkpt><trkpt lat="37.53280033292405" lon="14.051909468147324"><ele>439.0</ele><time>2026-04-30T08:28:36Z</time></trkpt><trkpt lat="37.5328861702872" lon="14.051765368583167"><ele>439.0</ele><time>2026-04-30T08:28:37Z</time></trkpt><trkpt lat="37.53298547530884" lon="14.051618933030182"><ele>435.25</ele><time>2026-04-30T08:28:38Z</time></trkpt><trkpt lat="37.53307617214992" lon="14.05146500141257"><ele>431.5</ele><time>2026-04-30T08:28:39Z</time></trkpt><trkpt lat="37.53317556809424" lon="14.051332865907858"><ele>427.75</ele><time>2026-04-30T08:28:40Z</time></trkpt><trkpt lat="37.53327920959584" lon="14.051209596664822"><ele>424.0</ele><time>2026-04-30T08:28:41Z</time></trkpt><trkpt lat="37.533391723153045" lon="14.051106973745446"><ele>424.0</ele><time>2026-04-30T08:28:42Z</time></trkpt><trkpt lat="37.53352228657458" lon="14.051037442692541"><ele>424.0</ele><time>2026-04-30T08:28:43Z</time></trkpt><trkpt lat="37.53366965090996" lon="14.050998958674986"><ele>424.0</ele><time>2026-04-30T08:28:44Z</time></trkpt><trkpt lat="37.533830967822354" lon="14.051013621997088"><ele>425.0</ele><time>2026-04-30T08:28:45Z</time></trkpt><trkpt lat="37.53399345467219" lon="14.051065718859185"><ele>426.0</ele><time>2026-04-30T08:28:46Z</time></trkpt><trkpt lat="37.5341527666954" lon="14.051142688165903"><ele>427.0</ele><time>2026-04-30T08:28:47Z</time></trkpt><trkpt lat="37.53430116441084" lon="14.051225548397626"><ele>427.0</ele><time>2026-04-30T08:28:48Z</time></trkpt><trkpt lat="37.53443527877432" lon="14.051322214816967"><ele>427.0</ele><time>2026-04-30T08:28:49Z</time></trkpt><trkpt lat="37.534562597810094" lon="14.051438255663788"><ele>427.0</ele><time>2026-04-30T08:28:50Z</time></trkpt><trkpt lat="37.53469475672098" lon="14.051561573241385"><ele>425.6666666666667</ele><time>2026-04-30T08:28:51Z</time></trkpt><trkpt lat="37.53483999944222" lon="14.051665757268944"><ele>424.33333333333337</ele><time>2026-04-30T08:28:52Z</time></trkpt><trkpt lat="37.53498840468377" lon="14.05174977426702"><ele>423.0</ele><time>2026-04-30T08:28:53Z</time></trkpt><trkpt lat="37.53513692551132" lon="14.05180949270365"><ele>423.0</ele><time>2026-04-30T08:28:54Z</time></trkpt><trkpt lat="37.535289247147254" lon="14.051838339570727"><ele>423.0</ele><time>2026-04-30T08:28:55Z</time></trkpt><trkpt lat="37.53544715021627" lon="14.051861096296568"><ele>423.0</ele><time>2026-04-30T08:28:56Z</time></trkpt><trkpt lat="37.53561078894752" lon="14.051874043468855"><ele>423.66666666666663</ele><time>2026-04-30T08:28:57Z</time></trkpt><trkpt lat="37.535776837840075" lon="14.051875586431619"><ele>424.3333333333333</ele><time>2026-04-30T08:28:58Z</time></trkpt><trkpt lat="37.53594226844698" lon="14.051866906902553"><ele>425.0</ele><time>2026-04-30T08:28:59Z</time></trkpt><trkpt lat="37.536110033306315" lon="14.05186043044446"><ele>425.0</ele><time>2026-04-30T08:29:00Z</time></trkpt><trkpt lat="37.5362770655711" lon="14.05186296827749"><ele>425.0</ele><time>2026-04-30T08:29:01Z</time></trkpt><trkpt lat="37.53643910663472" lon="14.051869504294352"><ele>425.0</ele><time>2026-04-30T08:29:02Z</time></trkpt><trkpt lat="37.536597504043016" lon="14.05187689950486"><ele>425.0</ele><time>2026-04-30T08:29:03Z</time></trkpt><trkpt lat="37.53675519101154" lon="14.051884749322703"><ele>425.0</ele><time>2026-04-30T08:29:04Z</time></trkpt><trkpt lat="37.53690656376598" lon="14.051898891669927"><ele>425.0</ele><time>2026-04-30T08:29:05Z</time></trkpt><trkpt lat="37.53705140830667" lon="14.051934613560649"><ele>424.25</ele><time>2026-04-30T08:29:06Z</time></trkpt><trkpt lat="37.53718188303972" lon="14.052005263558312"><ele>423.5</ele><time>2026-04-30T08:29:07Z</time></trkpt><trkpt lat="37.53729321274368" lon="14.052106333121284"><ele>422.75</ele><time>2026-04-30T08:29:08Z</time></trkpt><trkpt lat="37.537387692311135" lon="14.052226092888557"><ele>422.0</ele><time>2026-04-30T08:29:09Z</time></trkpt><trkpt lat="37.537477827352" lon="14.05236840815957"><ele>422.0</ele><time>2026-04-30T08:29:10Z</time></trkpt><trkpt lat="37.537569868032556" lon="14.052541313006314"><ele>422.0</ele><time>2026-04-30T08:29:11Z</time></trkpt><trkpt lat="37.53766317310315" lon="14.052733784482271"><ele>422.0</ele><time>2026-04-30T08:29:12Z</time></trkpt><trkpt lat="37.53775335436668" lon="14.052919770013828"><ele>422.0</ele><time>2026-04-30T08:29:13Z</time></trkpt><trkpt lat="37.537839604209196" lon="14.05309134218171"><ele>422.0</ele><time>2026-04-30T08:29:14Z</time></trkpt><trkpt lat="37.537918926885084" lon="14.053259529239565"><ele>422.0</ele><time>2026-04-30T08:29:15Z</time></trkpt><trkpt lat="37.537982480464464" lon="14.053431198423239"><ele>421.66666666666663</ele><time>2026-04-30T08:29:16Z</time></trkpt><trkpt lat="37.53803244590324" lon="14.053625649374155"><ele>421.33333333333337</ele><time>2026-04-30T08:29:17Z</time></trkpt><trkpt lat="37.538073914259066" lon="14.0538330917039"><ele>421.0</ele><time>2026-04-30T08:29:18Z</time></trkpt><trkpt lat="37.53811178582091" lon="14.054042744892717"><ele>422.6666666666667</ele><time>2026-04-30T08:29:19Z</time></trkpt><trkpt lat="37.538150468407316" lon="14.054255090463021"><ele>424.33333333333337</ele><time>2026-04-30T08:29:20Z</time></trkpt><trkpt lat="37.53818849199826" lon="14.054465849261552"><ele>426.0</ele><time>2026-04-30T08:29:21Z</time></trkpt><trkpt lat="37.53824531310459" lon="14.054667368438269"><ele>426.0</ele><time>2026-04-30T08:29:22Z</time></trkpt><trkpt lat="37.53833115810635" lon="14.054836360588562"><ele>426.0</ele><time>2026-04-30T08:29:23Z</time></trkpt><trkpt lat="37.5384545719826" lon="14.054982789391648"><ele>426.0</ele><time>2026-04-30T08:29:24Z</time></trkpt><trkpt lat="37.538565286421516" lon="14.05513209653905"><ele>428.0</ele><time>2026-04-30T08:29:25Z</time></trkpt><trkpt lat="37.53866981875485" lon="14.055279870647235"><ele>430.0</ele><time>2026-04-30T08:29:26Z</time></trkpt><trkpt lat="37.538775203426106" lon="14.05543194410524"><ele>432.0</ele><time>2026-04-30T08:29:27Z</time></trkpt><trkpt lat="37.5388796470869" lon="14.055585172092364"><ele>432.0</ele><time>2026-04-30T08:29:28Z</time></trkpt><trkpt lat="37.53898813073316" lon="14.05573379022998"><ele>432.0</ele><time>2026-04-30T08:29:29Z</time></trkpt><trkpt lat="37.539098128162664" lon="14.055873426799428"><ele>432.0</ele><time>2026-04-30T08:29:30Z</time></trkpt><trkpt lat="37.53921966383061" lon="14.056001766203435"><ele>432.66666666666663</ele><time>2026-04-30T08:29:31Z</time></trkpt><trkpt lat="37.53936801784463" lon="14.056097594362663"><ele>433.3333333333333</ele><time>2026-04-30T08:29:32Z</time></trkpt><trkpt lat="37.539518467186845" lon="14.056159767927571"><ele>434.0</ele><time>2026-04-30T08:29:33Z</time></trkpt><trkpt lat="37.53967540848283" lon="14.056190626349242"><ele>436.3333333333333</ele><time>2026-04-30T08:29:34Z</time></trkpt><trkpt lat="37.53984127017746" lon="14.05621500602159"><ele>438.66666666666663</ele><time>2026-04-30T08:29:35Z</time></trkpt><trkpt lat="37.54000541862604" lon="14.056235609055202"><ele>441.0</ele><time>2026-04-30T08:29:36Z</time></trkpt><trkpt lat="37.54016562357409" lon="14.056253136614943"><ele>441.0</ele><time>2026-04-30T08:29:37Z</time></trkpt><trkpt lat="37.54032309051093" lon="14.056274970337949"><ele>441.0</ele><time>2026-04-30T08:29:38Z</time></trkpt><trkpt lat="37.540481154868935" lon="14.056301653721214"><ele>441.0</ele><time>2026-04-30T08:29:39Z</time></trkpt><trkpt lat="37.54064477335701" lon="14.056326379969894"><ele>442.66666666666663</ele><time>2026-04-30T08:29:40Z</time></trkpt><trkpt lat="37.54080965395125" lon="14.056350411470843"><ele>444.3333333333333</ele><time>2026-04-30T08:29:41Z</time></trkpt><trkpt lat="37.54097582006694" lon="14.056377023502371"><ele>446.0</ele><time>2026-04-30T08:29:42Z</time></trkpt><trkpt lat="37.54113722524859" lon="14.056402302271291"><ele>447.66666666666663</ele><time>2026-04-30T08:29:43Z</time></trkpt><trkpt lat="37.541293472643176" lon="14.056426831813043"><ele>449.33333333333337</ele><time>2026-04-30T08:29:44Z</time></trkpt><trkpt lat="37.54145344631093" lon="14.056450856038598"><ele>451.0</ele><time>2026-04-30T08:29:45Z</time></trkpt><trkpt lat="37.5416145114025" lon="14.056471367930119"><ele>451.0</ele><time>2026-04-30T08:29:46Z</time></trkpt><trkpt lat="37.541769896100824" lon="14.056490377295038"><ele>451.0</ele><time>2026-04-30T08:29:47Z</time></trkpt><trkpt lat="37.541928874932786" lon="14.056523073072416"><ele>451.0</ele><time>2026-04-30T08:29:48Z</time></trkpt><trkpt lat="37.54207073081713" lon="14.056573374035954"><ele>451.5</ele><time>2026-04-30T08:29:49Z</time></trkpt><trkpt lat="37.542189660544025" lon="14.056640945761755"><ele>452.0</ele><time>2026-04-30T08:29:50Z</time></trkpt><trkpt lat="37.542291119100774" lon="14.056743732919282"><ele>452.5</ele><time>2026-04-30T08:29:51Z</time></trkpt><trkpt lat="37.542370177305294" lon="14.056875601147722"><ele>453.0</ele><time>2026-04-30T08:29:52Z</time></trkpt><trkpt lat="37.54242640860692" lon="14.057030070768663"><ele>453.0</ele><time>2026-04-30T08:29:53Z</time></trkpt><trkpt lat="37.542472997709694" lon="14.05719919803869"><ele>453.0</ele><time>2026-04-30T08:29:54Z</time></trkpt><trkpt lat="37.54253084191657" lon="14.057368099770459"><ele>453.0</ele><time>2026-04-30T08:29:55Z</time></trkpt><trkpt lat="37.542593818627765" lon="14.057529487237325"><ele>453.0</ele><time>2026-04-30T08:29:56Z</time></trkpt><trkpt lat="37.54264846761958" lon="14.057697503242256"><ele>453.66666666666663</ele><time>2026-04-30T08:29:57Z</time></trkpt><trkpt lat="37.542707554247414" lon="14.057871958842847"><ele>454.3333333333333</ele><time>2026-04-30T08:29:58Z</time></trkpt><trkpt lat="37.54277397804442" lon="14.058053180107457"><ele>455.0</ele><time>2026-04-30T08:29:59Z</time></trkpt><trkpt lat="37.5428363961188" lon="14.058240055230254"><ele>456.75</ele><time>2026-04-30T08:30:00Z</time></trkpt><trkpt lat="37.54289523666355" lon="14.058417158305199"><ele>458.5</ele><time>2026-04-30T08:30:01Z</time></trkpt><trkpt lat="37.542952112547624" lon="14.058580195332441"><ele>460.25</ele><time>2026-04-30T08:30:02Z</time></trkpt><trkpt lat="37.54300694514473" lon="14.058742964710946"><ele>462.0</ele><time>2026-04-30T08:30:03Z</time></trkpt><trkpt lat="37.54306126890225" lon="14.058896966536096"><ele>462.0</ele><time>2026-04-30T08:30:04Z</time></trkpt><trkpt lat="37.5431042921044" lon="14.059002736971832"><ele>462.0</ele><time>2026-04-30T08:30:05Z</time></trkpt><trkpt lat="37.54314901458226" lon="14.059100423137204"><ele>462.0</ele><time>2026-04-30T08:30:07Z</time></trkpt><trkpt lat="37.543202654215136" lon="14.059149272955008"><ele>462.0</ele><time>2026-04-30T08:30:10Z</time></trkpt><trkpt lat="37.54326153807115" lon="14.059185848228294"><ele>462.0</ele><time>2026-04-30T08:30:21Z</time></trkpt><trkpt lat="37.54324016761059" lon="14.059266222179557"><ele>462.0</ele><time>2026-04-30T08:30:34Z</time></trkpt><trkpt lat="37.54330229649157" lon="14.059283720630996"><ele>462.0</ele><time>2026-04-30T08:40:19Z</time></trkpt><trkpt lat="37.54336703104872" lon="14.059261895890774"><ele>463.1666666666667</ele><time>2026-04-30T08:40:21Z</time></trkpt><trkpt lat="37.54343167354504" lon="14.059238050518635"><ele>464.33333333333337</ele><time>2026-04-30T08:40:23Z</time></trkpt><trkpt lat="37.543496623513455" lon="14.059226746329172"><ele>465.5</ele><time>2026-04-30T08:40:26Z</time></trkpt><trkpt lat="37.54357228193174" lon="14.059234442813025"><ele>466.6666666666667</ele><time>2026-04-30T08:40:30Z</time></trkpt><trkpt lat="37.5436440275948" lon="14.059222570256022"><ele>467.83333333333337</ele><time>2026-04-30T08:40:33Z</time></trkpt><trkpt lat="37.54372738515288" lon="14.059207232233062"><ele>469.0</ele><time>2026-04-30T08:40:36Z</time></trkpt><trkpt lat="37.543838016206315" lon="14.059184459696104"><ele>468.79999999999995</ele><time>2026-04-30T08:40:38Z</time></trkpt><trkpt lat="37.54391805414826" lon="14.05916594522425"><ele>468.59999999999997</ele><time>2026-04-30T08:40:39Z</time></trkpt><trkpt lat="37.54399904430071" lon="14.05915532971936"><ele>468.4</ele><time>2026-04-30T08:40:40Z</time></trkpt><trkpt lat="37.54408577739718" lon="14.059135522169338"><ele>468.2</ele><time>2026-04-30T08:40:41Z</time></trkpt><trkpt lat="37.54418521799576" lon="14.059116765678619"><ele>468.0</ele><time>2026-04-30T08:40:42Z</time></trkpt><trkpt lat="37.54429854019979" lon="14.059094400980612"><ele>468.0</ele><time>2026-04-30T08:40:43Z</time></trkpt><trkpt lat="37.544424222075214" lon="14.059067992844096"><ele>468.0</ele><time>2026-04-30T08:40:44Z</time></trkpt><trkpt lat="37.54456846760293" lon="14.059049025753206"><ele>468.0</ele><time>2026-04-30T08:40:45Z</time></trkpt><trkpt lat="37.54472266416834" lon="14.059025129988914"><ele>468.0</ele><time>2026-04-30T08:40:46Z</time></trkpt><trkpt lat="37.544859747356774" lon="14.059000894628603"><ele>469.0</ele><time>2026-04-30T08:40:47Z</time></trkpt><trkpt lat="37.54499355640266" lon="14.058978985410855"><ele>470.0</ele><time>2026-04-30T08:40:48Z</time></trkpt><trkpt lat="37.54513119315032" lon="14.058968470073575"><ele>471.0</ele><time>2026-04-30T08:40:49Z</time></trkpt><trkpt lat="37.545267963175135" lon="14.058966637006828"><ele>472.0</ele><time>2026-04-30T08:40:50Z</time></trkpt><trkpt lat="37.54540784095814" lon="14.058970589420273"><ele>472.0</ele><time>2026-04-30T08:40:51Z</time></trkpt><trkpt lat="37.545546073004616" lon="14.058987710686438"><ele>472.0</ele><time>2026-04-30T08:40:52Z</time></trkpt><trkpt lat="37.545691488087066" lon="14.059007872958881"><ele>472.0</ele><time>2026-04-30T08:40:53Z</time></trkpt><trkpt lat="37.54584333314865" lon="14.059039002285894"><ele>472.0</ele><time>2026-04-30T08:40:54Z</time></trkpt><trkpt lat="37.5459988058293" lon="14.059071297585948"><ele>472.0</ele><time>2026-04-30T08:40:55Z</time></trkpt><trkpt lat="37.54614841743646" lon="14.059102376857165"><ele>472.0</ele><time>2026-04-30T08:40:56Z</time></trkpt><trkpt lat="37.54629416091" lon="14.059130859259716"><ele>472.0</ele><time>2026-04-30T08:40:57Z</time></trkpt><trkpt lat="37.546439185649625" lon="14.059159300283218"><ele>472.0</ele><time>2026-04-30T08:40:58Z</time></trkpt><trkpt lat="37.54658394965371" lon="14.059182429908981"><ele>477.6666666666667</ele><time>2026-04-30T08:40:59Z</time></trkpt><trkpt lat="37.54672839541823" lon="14.059207482932253"><ele>483.33333333333337</ele><time>2026-04-30T08:41:00Z</time></trkpt><trkpt lat="37.546876993133864" lon="14.059236923648141"><ele>489.0</ele><time>2026-04-30T08:41:01Z</time></trkpt><trkpt lat="37.54703038493732" lon="14.059256120117935"><ele>491.0</ele><time>2026-04-30T08:41:02Z</time></trkpt><trkpt lat="37.5471913236685" lon="14.05925141996399"><ele>493.0</ele><time>2026-04-30T08:41:03Z</time></trkpt><trkpt lat="37.5473610772552" lon="14.059222761562033"><ele>495.0</ele><time>2026-04-30T08:41:04Z</time></trkpt><trkpt lat="37.54753203708378" lon="14.05917809412885"><ele>495.0</ele><time>2026-04-30T08:41:05Z</time></trkpt><trkpt lat="37.5477038208944" lon="14.059127221981102"><ele>495.0</ele><time>2026-04-30T08:41:06Z</time></trkpt><trkpt lat="37.54788023157507" lon="14.059074770272966"><ele>495.0</ele><time>2026-04-30T08:41:07Z</time></trkpt><trkpt lat="37.548055687034186" lon="14.059021365284659"><ele>494.2</ele><time>2026-04-30T08:41:08Z</time></trkpt><trkpt lat="37.54819025246793" lon="14.05898302505362"><ele>493.4</ele><time>2026-04-30T08:41:09Z</time></trkpt><trkpt lat="37.548281734016754" lon="14.05895874154903"><ele>492.6</ele><time>2026-04-30T08:41:10Z</time></trkpt><trkpt lat="37.54834363697514" lon="14.058928376417095"><ele>491.8</ele><time>2026-04-30T08:41:11Z</time></trkpt><trkpt lat="37.54839540990876" lon="14.058850642131445"><ele>491.0</ele><time>2026-04-30T08:41:13Z</time></trkpt><trkpt lat="37.5484632055885" lon="14.058684832629107"><ele>491.0</ele><time>2026-04-30T08:41:16Z</time></trkpt><trkpt lat="37.54851123750821" lon="14.0586328861207"><ele>491.0</ele><time>2026-04-30T08:41:17Z</time></trkpt><trkpt lat="37.5485728848967" lon="14.058555276445164"><ele>491.0</ele><time>2026-04-30T08:41:19Z</time></trkpt><trkpt lat="37.54863806817212" lon="14.058432661889258"><ele>491.0</ele><time>2026-04-30T08:41:21Z</time></trkpt><trkpt lat="37.54867419570284" lon="14.058293659963766"><ele>491.0</ele><time>2026-04-30T08:41:23Z</time></trkpt><trkpt lat="37.54871384955526" lon="14.05817150217623"><ele>489.99999999999994</ele><time>2026-04-30T08:41:25Z</time></trkpt><trkpt lat="37.54877870798933" lon="14.058073513828544"><ele>489.0</ele><time>2026-04-30T08:41:27Z</time></trkpt><trkpt lat="37.54886121131918" lon="14.057995285930513"><ele>488.0</ele><time>2026-04-30T08:41:29Z</time></trkpt><trkpt lat="37.54896771009161" lon="14.057967662750064"><ele>487.0</ele><time>2026-04-30T08:41:31Z</time></trkpt><trkpt lat="37.54903667606957" lon="14.057954145176636"><ele>485.99999999999994</ele><time>2026-04-30T08:41:32Z</time></trkpt><trkpt lat="37.54910038776288" lon="14.057935329241639"><ele>485.0</ele><time>2026-04-30T08:41:33Z</time></trkpt><trkpt lat="37.54917526465874" lon="14.057905894415924"><ele>485.0</ele><time>2026-04-30T08:41:34Z</time></trkpt><trkpt lat="37.549254098954584" lon="14.057849441516419"><ele>485.0</ele><time>2026-04-30T08:41:35.001Z</time></trkpt><trkpt lat="37.549335139216" lon="14.057813199897968"><ele>485.0</ele><time>2026-04-30T08:41:36.001Z</time></trkpt><trkpt lat="37.549464704511706" lon="14.057926390106527"><ele>485.0</ele><time>2026-04-30T08:41:37.001Z</time></trkpt><trkpt lat="37.5495892568631" lon="14.05798119317765"><ele>487.0</ele><time>2026-04-30T08:41:38.001Z</time></trkpt><trkpt lat="37.54973085281961" lon="14.058025514746124"><ele>489.0</ele><time>2026-04-30T08:41:39.001Z</time></trkpt><trkpt lat="37.54988397283545" lon="14.058027375465203"><ele>491.0</ele><time>2026-04-30T08:41:40.001Z</time></trkpt><trkpt lat="37.55003466260779" lon="14.057982636644013"><ele>491.0</ele><time>2026-04-30T08:41:41.001Z</time></trkpt><trkpt lat="37.550167985034264" lon="14.057920665195917"><ele>491.0</ele><time>2026-04-30T08:41:42.001Z</time></trkpt><trkpt lat="37.55029622987626" lon="14.057834331431934"><ele>491.0</ele><time>2026-04-30T08:41:43.001Z</time></trkpt><trkpt lat="37.55041231299153" lon="14.057750898699748"><ele>491.0</ele><time>2026-04-30T08:41:44.001Z</time></trkpt><trkpt lat="37.550510772003534" lon="14.05768980160962"><ele>491.0</ele><time>2026-04-30T08:41:45.001Z</time></trkpt><trkpt lat="37.55060054920343" lon="14.057643930370848"><ele>491.0</ele><time>2026-04-30T08:41:46.001Z</time></trkpt><trkpt lat="37.550688200339415" lon="14.057591502200243"><ele>491.0</ele><time>2026-04-30T08:41:47.001Z</time></trkpt><trkpt lat="37.550777383549445" lon="14.057527153848357"><ele>491.0</ele><time>2026-04-30T08:41:48.001Z</time></trkpt><trkpt lat="37.550868991121085" lon="14.057462820814356"><ele>491.0</ele><time>2026-04-30T08:41:49.001Z</time></trkpt><trkpt lat="37.55095779616723" lon="14.05740523540694"><ele>491.0</ele><time>2026-04-30T08:41:50.001Z</time></trkpt><trkpt lat="37.55104545957033" lon="14.057361563298986"><ele>491.0</ele><time>2026-04-30T08:41:51Z</time></trkpt><trkpt lat="37.55114704694389" lon="14.057331022855935"><ele>491.0</ele><time>2026-04-30T08:41:52Z</time></trkpt><trkpt lat="37.55125726503556" lon="14.05731370589316"><ele>491.0</ele><time>2026-04-30T08:41:53Z</time></trkpt><trkpt lat="37.551371757438275" lon="14.057295248061443"><ele>491.0</ele><time>2026-04-30T08:41:54Z</time></trkpt><trkpt lat="37.55149175892862" lon="14.057283269751455"><ele>488.0</ele><time>2026-04-30T08:41:55Z</time></trkpt><trkpt lat="37.551611337287575" lon="14.057272854354423"><ele>485.0</ele><time>2026-04-30T08:41:56Z</time></trkpt><trkpt lat="37.55172999370334" lon="14.057269374128904"><ele>482.0</ele><time>2026-04-30T08:41:57Z</time></trkpt><trkpt lat="37.55184254247651" lon="14.05726912060117"><ele>479.0</ele><time>2026-04-30T08:41:58Z</time></trkpt><trkpt lat="37.551948624791564" lon="14.05727002131932"><ele>475.75</ele><time>2026-04-30T08:41:59Z</time></trkpt><trkpt lat="37.55205789376047" lon="14.057270824028684"><ele>472.5</ele><time>2026-04-30T08:42:00Z</time></trkpt><trkpt lat="37.5521706535024" lon="14.057265239513894"><ele>469.25</ele><time>2026-04-30T08:42:01Z</time></trkpt><trkpt lat="37.5522861089396" lon="14.057237285817095"><ele>466.0</ele><time>2026-04-30T08:42:02Z</time></trkpt><trkpt lat="37.55239664478249" lon="14.057185328306439"><ele>466.00000000000006</ele><time>2026-04-30T08:42:03Z</time></trkpt><trkpt lat="37.55248881595303" lon="14.057152875622123"><ele>466.0</ele><time>2026-04-30T08:42:04Z</time></trkpt><trkpt lat="37.55258043271589" lon="14.057116531421315"><ele>466.0</ele><time>2026-04-30T08:42:05Z</time></trkpt><trkpt lat="37.55266568597206" lon="14.057092017692295"><ele>466.0</ele><time>2026-04-30T08:42:06Z</time></trkpt><trkpt lat="37.55274032555073" lon="14.057090304545907"><ele>466.00000000000006</ele><time>2026-04-30T08:42:07Z</time></trkpt><trkpt lat="37.55280600762364" lon="14.057128636150821"><ele>466.0</ele><time>2026-04-30T08:42:08Z</time></trkpt><trkpt lat="37.55286894690455" lon="14.057185545466972"><ele>463.33333333333337</ele><time>2026-04-30T08:42:09Z</time></trkpt><trkpt lat="37.5529365019032" lon="14.057252456655515"><ele>460.6666666666667</ele><time>2026-04-30T08:42:10Z</time></trkpt><trkpt lat="37.55300606173508" lon="14.057314600334305"><ele>458.0</ele><time>2026-04-30T08:42:11Z</time></trkpt><trkpt lat="37.553080900851995" lon="14.057364651158483"><ele>455.33333333333337</ele><time>2026-04-30T08:42:12.001Z</time></trkpt><trkpt lat="37.55316058118219" lon="14.057393503517588"><ele>452.6666666666667</ele><time>2026-04-30T08:42:13.001Z</time></trkpt><trkpt lat="37.55324252915658" lon="14.057406432505154"><ele>450.0</ele><time>2026-04-30T08:42:14.001Z</time></trkpt><trkpt lat="37.55333935727159" lon="14.057403583668227"><ele>450.0</ele><time>2026-04-30T08:42:15.001Z</time></trkpt><trkpt lat="37.553441164565584" lon="14.057411437156675"><ele>450.0</ele><time>2026-04-30T08:42:16.001Z</time></trkpt><trkpt lat="37.5535448926643" lon="14.057421595617395"><ele>450.0</ele><time>2026-04-30T08:42:17.001Z</time></trkpt><trkpt lat="37.55364796826417" lon="14.057428191859028"><ele>450.0</ele><time>2026-04-30T08:42:18.001Z</time></trkpt><trkpt lat="37.553743235562884" lon="14.057431479752331"><ele>450.0</ele><time>2026-04-30T08:42:19.001Z</time></trkpt><trkpt lat="37.55383397105484" lon="14.057427400414731"><ele>448.5</ele><time>2026-04-30T08:42:20.001Z</time></trkpt><trkpt lat="37.553916729575505" lon="14.057415957288498"><ele>447.0</ele><time>2026-04-30T08:42:21.001Z</time></trkpt><trkpt lat="37.553989625342226" lon="14.057398417484439"><ele>445.5</ele><time>2026-04-30T08:42:22.001Z</time></trkpt><trkpt lat="37.55406474492492" lon="14.057358112847831"><ele>444.0</ele><time>2026-04-30T08:42:23.001Z</time></trkpt><trkpt lat="37.55414454219967" lon="14.057300673016448"><ele>442.5</ele><time>2026-04-30T08:42:24.001Z</time></trkpt><trkpt lat="37.55423468743181" lon="14.057242280938155"><ele>441.0</ele><time>2026-04-30T08:42:25.001Z</time></trkpt><trkpt lat="37.55433322121121" lon="14.057183974138733"><ele>441.0</ele><time>2026-04-30T08:42:26.001Z</time></trkpt><trkpt lat="37.55443731163352" lon="14.057123610857234"><ele>441.0</ele><time>2026-04-30T08:42:27.001Z</time></trkpt><trkpt lat="37.55454016190671" lon="14.057068839979902"><ele>441.0</ele><time>2026-04-30T08:42:28.001Z</time></trkpt><trkpt lat="37.55463256380243" lon="14.057030325120138"><ele>441.0</ele><time>2026-04-30T08:42:29.001Z</time></trkpt><trkpt lat="37.55471125519183" lon="14.05701661055251"><ele>441.0</ele><time>2026-04-30T08:42:30.001Z</time></trkpt><trkpt lat="37.55479904687913" lon="14.057064852613864"><ele>438.5</ele><time>2026-04-30T08:42:31.001Z</time></trkpt><trkpt lat="37.554886598667515" lon="14.057147305417205"><ele>436.0</ele><time>2026-04-30T08:42:32.001Z</time></trkpt><trkpt lat="37.55496988388549" lon="14.057240633656306"><ele>433.5</ele><time>2026-04-30T08:42:33.001Z</time></trkpt><trkpt lat="37.5550556591365" lon="14.057345572449265"><ele>431.0</ele><time>2026-04-30T08:42:34.001Z</time></trkpt><trkpt lat="37.555156720795914" lon="14.057440960719513"><ele>432.25</ele><time>2026-04-30T08:42:35.001Z</time></trkpt><trkpt lat="37.55527571270212" lon="14.05751787532002"><ele>433.5</ele><time>2026-04-30T08:42:36.001Z</time></trkpt><trkpt lat="37.55538748381663" lon="14.05755323868623"><ele>434.75</ele><time>2026-04-30T08:42:37.001Z</time></trkpt><trkpt lat="37.555491707191216" lon="14.057546789248416"><ele>436.0</ele><time>2026-04-30T08:42:38.001Z</time></trkpt><trkpt lat="37.5555974657868" lon="14.057528980776123"><ele>438.0</ele><time>2026-04-30T08:42:39.001Z</time></trkpt><trkpt lat="37.55570176871755" lon="14.057530337747432"><ele>440.0</ele><time>2026-04-30T08:42:40.001Z</time></trkpt><trkpt lat="37.555804234055714" lon="14.057528129675426"><ele>442.0</ele><time>2026-04-30T08:42:41.001Z</time></trkpt><trkpt lat="37.555915746897426" lon="14.057545254125998"><ele>444.0</ele><time>2026-04-30T08:42:42.001Z</time></trkpt><trkpt lat="37.556022881573185" lon="14.057584922517114"><ele>446.0</ele><time>2026-04-30T08:42:43.001Z</time></trkpt><trkpt lat="37.556140171678535" lon="14.057612376110141"><ele>447.4</ele><time>2026-04-30T08:42:44.001Z</time></trkpt><trkpt lat="37.55625643890725" lon="14.057639910802344"><ele>448.8</ele><time>2026-04-30T08:42:45.001Z</time></trkpt><trkpt lat="37.556373735911855" lon="14.057669288293246"><ele>450.19999999999993</ele><time>2026-04-30T08:42:46.001Z</time></trkpt><trkpt lat="37.556473939329756" lon="14.057680714342123"><ele>451.59999999999997</ele><time>2026-04-30T08:42:47.001Z</time></trkpt><trkpt lat="37.5565446090586" lon="14.057684454677934"><ele>453.0</ele><time>2026-04-30T08:42:48.001Z</time></trkpt><trkpt lat="37.5566474597444" lon="14.057696616326464"><ele>453.0</ele><time>2026-04-30T08:42:50.001Z</time></trkpt><trkpt lat="37.55677697833814" lon="14.05773778399408"><ele>452.99999999999994</ele><time>2026-04-30T08:42:52.001Z</time></trkpt><trkpt lat="37.556855970496144" lon="14.057763993543315"><ele>452.99999999999994</ele><time>2026-04-30T08:42:53.001Z</time></trkpt><trkpt lat="37.556941226361765" lon="14.057797691120943"><ele>453.0</ele><time>2026-04-30T08:42:54.001Z</time></trkpt><trkpt lat="37.557019710241434" lon="14.05783123246231"><ele>453.0</ele><time>2026-04-30T08:42:55.001Z</time></trkpt><trkpt lat="37.5570900393274" lon="14.057858822475115"><ele>450.8333333333333</ele><time>2026-04-30T08:42:56.001Z</time></trkpt><trkpt lat="37.557168796960646" lon="14.057884909078485"><ele>448.66666666666663</ele><time>2026-04-30T08:42:57.001Z</time></trkpt><trkpt lat="37.557251944756125" lon="14.057912518109468"><ele>446.5</ele><time>2026-04-30T08:42:58.001Z</time></trkpt><trkpt lat="37.55733306313184" lon="14.057935411325271"><ele>444.3333333333333</ele><time>2026-04-30T08:42:59.001Z</time></trkpt><trkpt lat="37.5574175924508" lon="14.057940455505678"><ele>442.16666666666663</ele><time>2026-04-30T08:43:00.001Z</time></trkpt><trkpt lat="37.55750674564909" lon="14.057920679606903"><ele>440.0</ele><time>2026-04-30T08:43:01.001Z</time></trkpt><trkpt lat="37.55759851906672" lon="14.057879094534485"><ele>440.0</ele><time>2026-04-30T08:43:02.001Z</time></trkpt><trkpt lat="37.55769113248377" lon="14.057825337112863"><ele>440.0</ele><time>2026-04-30T08:43:03.001Z</time></trkpt><trkpt lat="37.55778574942417" lon="14.05775781344961"><ele>440.0</ele><time>2026-04-30T08:43:04.001Z</time></trkpt><trkpt lat="37.55787813328625" lon="14.057675461956515"><ele>440.0</ele><time>2026-04-30T08:43:05.001Z</time></trkpt><trkpt lat="37.55796799388824" lon="14.057591752777123"><ele>440.0</ele><time>2026-04-30T08:43:06.001Z</time></trkpt><trkpt lat="37.55805784658864" lon="14.057513521626602"><ele>438.0</ele><time>2026-04-30T08:43:07.001Z</time></trkpt><trkpt lat="37.558138219220055" lon="14.057441723945113"><ele>436.0</ele><time>2026-04-30T08:43:08.001Z</time></trkpt><trkpt lat="37.55822068579421" lon="14.057365507260748"><ele>434.0</ele><time>2026-04-30T08:43:09.001Z</time></trkpt><trkpt lat="37.55830801865778" lon="14.057285861226347"><ele>432.0</ele><time>2026-04-30T08:43:10.001Z</time></trkpt><trkpt lat="37.558398144788505" lon="14.057203947596479"><ele>430.0</ele><time>2026-04-30T08:43:11.001Z</time></trkpt><trkpt lat="37.558483727249765" lon="14.057109378349072"><ele>430.0</ele><time>2026-04-30T08:43:12.001Z</time></trkpt><trkpt lat="37.55855456961763" lon="14.056996851391526"><ele>430.0</ele><time>2026-04-30T08:43:13.001Z</time></trkpt><trkpt lat="37.5586268803436" lon="14.056869475820987"><ele>430.0</ele><time>2026-04-30T08:43:14.001Z</time></trkpt><trkpt lat="37.558712244681736" lon="14.056726886713525"><ele>430.0</ele><time>2026-04-30T08:43:15.001Z</time></trkpt><trkpt lat="37.558806399697616" lon="14.056562292040313"><ele>427.6666666666667</ele><time>2026-04-30T08:43:16.001Z</time></trkpt><trkpt lat="37.5589022968672" lon="14.056398038298614"><ele>425.33333333333337</ele><time>2026-04-30T08:43:17.001Z</time></trkpt><trkpt lat="37.55900336143178" lon="14.056257684371106"><ele>423.0</ele><time>2026-04-30T08:43:18.001Z</time></trkpt><trkpt lat="37.5591100453203" lon="14.056129633415406"><ele>423.0</ele><time>2026-04-30T08:43:19.001Z</time></trkpt><trkpt lat="37.55922301122877" lon="14.056013933428082"><ele>423.0</ele><time>2026-04-30T08:43:20.001Z</time></trkpt><trkpt lat="37.55934841778291" lon="14.05590612032467"><ele>423.0</ele><time>2026-04-30T08:43:21.001Z</time></trkpt><trkpt lat="37.55948632450139" lon="14.055809813437293"><ele>422.0</ele><time>2026-04-30T08:43:22.001Z</time></trkpt><trkpt lat="37.559637271330786" lon="14.055722808393867"><ele>421.0</ele><time>2026-04-30T08:43:23.001Z</time></trkpt><trkpt lat="37.55978862796586" lon="14.055640914699497"><ele>420.0</ele><time>2026-04-30T08:43:24.001Z</time></trkpt><trkpt lat="37.559930042579666" lon="14.055565927900629"><ele>420.0</ele><time>2026-04-30T08:43:25.001Z</time></trkpt><trkpt lat="37.56006847640314" lon="14.05549023455177"><ele>420.0</ele><time>2026-04-30T08:43:26.001Z</time></trkpt><trkpt lat="37.56020152942133" lon="14.055416989093159"><ele>420.0</ele><time>2026-04-30T08:43:27.001Z</time></trkpt><trkpt lat="37.56033479899971" lon="14.055335976360308"><ele>420.0</ele><time>2026-04-30T08:43:28.001Z</time></trkpt><trkpt lat="37.56047012431327" lon="14.055241033595246"><ele>418.33333333333337</ele><time>2026-04-30T08:43:29.001Z</time></trkpt><trkpt lat="37.560601989656384" lon="14.0551328122078"><ele>416.6666666666667</ele><time>2026-04-30T08:43:30.001Z</time></trkpt><trkpt lat="37.56072732300958" lon="14.05501289881128"><ele>415.0</ele><time>2026-04-30T08:43:31.001Z</time></trkpt><trkpt lat="37.56083803988509" lon="14.054888955005632"><ele>414.5</ele><time>2026-04-30T08:43:32.001Z</time></trkpt><trkpt lat="37.56094151800237" lon="14.054767050185388"><ele>414.0</ele><time>2026-04-30T08:43:33.001Z</time></trkpt><trkpt lat="37.561046224337794" lon="14.054651656790785"><ele>413.5</ele><time>2026-04-30T08:43:34.001Z</time></trkpt><trkpt lat="37.561154274362615" lon="14.054526716160808"><ele>413.0</ele><time>2026-04-30T08:43:35.001Z</time></trkpt><trkpt lat="37.56126000935078" lon="14.054396151396562"><ele>413.0</ele><time>2026-04-30T08:43:36.001Z</time></trkpt><trkpt lat="37.561364652275266" lon="14.054262275457127"><ele>413.0</ele><time>2026-04-30T08:43:37.001Z</time></trkpt><trkpt lat="37.56147960632391" lon="14.054140518831158"><ele>413.0</ele><time>2026-04-30T08:43:38.001Z</time></trkpt><trkpt lat="37.56160259070544" lon="14.054026357776078"><ele>411.75</ele><time>2026-04-30T08:43:39.001Z</time></trkpt><trkpt lat="37.56172259363174" lon="14.053923013517343"><ele>410.5</ele><time>2026-04-30T08:43:40.001Z</time></trkpt><trkpt lat="37.56183472897456" lon="14.053823922244895"><ele>409.25</ele><time>2026-04-30T08:43:41.001Z</time></trkpt><trkpt lat="37.56193134511001" lon="14.053728045910184"><ele>408.0</ele><time>2026-04-30T08:43:42.001Z</time></trkpt><trkpt lat="37.56199964894281" lon="14.053628098659255"><ele>408.0</ele><time>2026-04-30T08:43:43.001Z</time></trkpt><trkpt lat="37.5620476329093" lon="14.05350703120161"><ele>408.0</ele><time>2026-04-30T08:43:44.001Z</time></trkpt><trkpt lat="37.56208963922867" lon="14.053382213296809"><ele>408.0</ele><time>2026-04-30T08:43:45.001Z</time></trkpt><trkpt lat="37.56214699726295" lon="14.053268361844534"><ele>408.0</ele><time>2026-04-30T08:43:46.001Z</time></trkpt><trkpt lat="37.5622168717762" lon="14.053159789460747"><ele>408.0</ele><time>2026-04-30T08:43:47.001Z</time></trkpt><trkpt lat="37.562287597383175" lon="14.053060448842848"><ele>408.0</ele><time>2026-04-30T08:43:48.001Z</time></trkpt><trkpt lat="37.562357406412694" lon="14.05296545086803"><ele>408.0</ele><time>2026-04-30T08:43:49.001Z</time></trkpt><trkpt lat="37.56243091264182" lon="14.052862386923335"><ele>408.0</ele><time>2026-04-30T08:43:50.001Z</time></trkpt><trkpt lat="37.56250693052979" lon="14.052753870557824"><ele>408.0</ele><time>2026-04-30T08:43:51.001Z</time></trkpt><trkpt lat="37.56258909621575" lon="14.052640789600867"><ele>408.0</ele><time>2026-04-30T08:43:52.001Z</time></trkpt><trkpt lat="37.56267179609352" lon="14.052522133891303"><ele>408.0</ele><time>2026-04-30T08:43:53.001Z</time></trkpt><trkpt lat="37.56275307575201" lon="14.052402141211097"><ele>408.0</ele><time>2026-04-30T08:43:54.001Z</time></trkpt><trkpt lat="37.562833527582924" lon="14.052285411047146"><ele>408.0</ele><time>2026-04-30T08:43:55.001Z</time></trkpt><trkpt lat="37.5629113446504" lon="14.05216808017039"><ele>408.0</ele><time>2026-04-30T08:43:56.001Z</time></trkpt><trkpt lat="37.562985910492635" lon="14.052045763446905"><ele>408.0</ele><time>2026-04-30T08:43:57.001Z</time></trkpt><trkpt lat="37.56305770923359" lon="14.051917261013006"><ele>408.0</ele><time>2026-04-30T08:43:58.001Z</time></trkpt><trkpt lat="37.56312819636701" lon="14.051780921582031"><ele>408.0</ele><time>2026-04-30T08:43:59.001Z</time></trkpt><trkpt lat="37.563197645847325" lon="14.051636300589069"><ele>408.0</ele><time>2026-04-30T08:44:00.001Z</time></trkpt><trkpt lat="37.563266428799494" lon="14.051483152226213"><ele>406.75</ele><time>2026-04-30T08:44:01.001Z</time></trkpt><trkpt lat="37.56333206376464" lon="14.051326249960105"><ele>405.5</ele><time>2026-04-30T08:44:02.001Z</time></trkpt><trkpt lat="37.56339587579546" lon="14.051172154198854"><ele>404.25</ele><time>2026-04-30T08:44:03.001Z</time></trkpt><trkpt lat="37.56346615845488" lon="14.051018631249471"><ele>403.0</ele><time>2026-04-30T08:44:04.001Z</time></trkpt><trkpt lat="37.56354865731609" lon="14.050869392621353"><ele>402.75</ele><time>2026-04-30T08:44:05.001Z</time></trkpt><trkpt lat="37.563640594573585" lon="14.050741539194524"><ele>402.5</ele><time>2026-04-30T08:44:06.001Z</time></trkpt><trkpt lat="37.5637438109458" lon="14.050636581157953"><ele>402.25</ele><time>2026-04-30T08:44:07.001Z</time></trkpt><trkpt lat="37.56386116916805" lon="14.050558504720396"><ele>402.0</ele><time>2026-04-30T08:44:08.001Z</time></trkpt><trkpt lat="37.56397736246788" lon="14.050492556222117"><ele>402.0</ele><time>2026-04-30T08:44:09.001Z</time></trkpt><trkpt lat="37.5640797095812" lon="14.050411795688081"><ele>402.0</ele><time>2026-04-30T08:44:10.001Z</time></trkpt><trkpt lat="37.564162020951734" lon="14.050308946713914"><ele>402.0</ele><time>2026-04-30T08:44:11.001Z</time></trkpt><trkpt lat="37.564245736139895" lon="14.050185646844673"><ele>402.0</ele><time>2026-04-30T08:44:12.001Z</time></trkpt><trkpt lat="37.56434215708436" lon="14.050063859798113"><ele>401.75</ele><time>2026-04-30T08:44:13.001Z</time></trkpt><trkpt lat="37.564444724477404" lon="14.04994905566629"><ele>401.5</ele><time>2026-04-30T08:44:14.001Z</time></trkpt><trkpt lat="37.56454403740204" lon="14.049843074190333"><ele>401.25</ele><time>2026-04-30T08:44:15.001Z</time></trkpt><trkpt lat="37.56463937064237" lon="14.04974672362205"><ele>401.0</ele><time>2026-04-30T08:44:16.001Z</time></trkpt><trkpt lat="37.56472699312056" lon="14.049673140342659"><ele>401.0</ele><time>2026-04-30T08:44:17.001Z</time></trkpt><trkpt lat="37.56481082274367" lon="14.049602922402945"><ele>401.0</ele><time>2026-04-30T08:44:18.001Z</time></trkpt><trkpt lat="37.564893860621964" lon="14.049572856544051"><ele>401.0</ele><time>2026-04-30T08:44:19.001Z</time></trkpt><trkpt lat="37.56497775356877" lon="14.04955216545882"><ele>401.0</ele><time>2026-04-30T08:44:20.001Z</time></trkpt><trkpt lat="37.565060949768146" lon="14.049533457163713"><ele>401.0</ele><time>2026-04-30T08:44:21.001Z</time></trkpt><trkpt lat="37.565156364761236" lon="14.049524322078199"><ele>401.0</ele><time>2026-04-30T08:44:22.001Z</time></trkpt><trkpt lat="37.565261214499195" lon="14.049532880592865"><ele>401.0</ele><time>2026-04-30T08:44:23.001Z</time></trkpt><trkpt lat="37.56537433829143" lon="14.049546767029247"><ele>401.0</ele><time>2026-04-30T08:44:24.001Z</time></trkpt><trkpt lat="37.56549912295849" lon="14.04955904900886"><ele>401.0</ele><time>2026-04-30T08:44:25.001Z</time></trkpt><trkpt lat="37.565634296738665" lon="14.04956632033579"><ele>401.75</ele><time>2026-04-30T08:44:26.001Z</time></trkpt><trkpt lat="37.565780426378446" lon="14.049563510733396"><ele>402.5</ele><time>2026-04-30T08:44:27.001Z</time></trkpt><trkpt lat="37.565931108684495" lon="14.049561551519421"><ele>403.25</ele><time>2026-04-30T08:44:28.001Z</time></trkpt><trkpt lat="37.56608204719652" lon="14.049560667137296"><ele>404.0</ele><time>2026-04-30T08:44:29.001Z</time></trkpt><trkpt lat="37.56621940314622" lon="14.049557446274964"><ele>404.25</ele><time>2026-04-30T08:44:30.001Z</time></trkpt><trkpt lat="37.56635038844554" lon="14.04955116918512"><ele>404.5</ele><time>2026-04-30T08:44:31.001Z</time></trkpt><trkpt lat="37.56647324585832" lon="14.049551670628029"><ele>404.75</ele><time>2026-04-30T08:44:32.001Z</time></trkpt><trkpt lat="37.566597522274336" lon="14.049563951895768"><ele>405.0</ele><time>2026-04-30T08:44:33.001Z</time></trkpt><trkpt lat="37.56672748026895" lon="14.049591998511776"><ele>405.0</ele><time>2026-04-30T08:44:34.001Z</time></trkpt><trkpt lat="37.56685139839773" lon="14.049636340505216"><ele>405.0</ele><time>2026-04-30T08:44:35.001Z</time></trkpt><trkpt lat="37.566976919126326" lon="14.049663195074514"><ele>405.0</ele><time>2026-04-30T08:44:36.001Z</time></trkpt><trkpt lat="37.567108621028126" lon="14.049646637288935"><ele>405.0</ele><time>2026-04-30T08:44:37.001Z</time></trkpt><trkpt lat="37.56722057535233" lon="14.04960075129321"><ele>406.75</ele><time>2026-04-30T08:44:38.001Z</time></trkpt><trkpt lat="37.567277686018905" lon="14.04956723463965"><ele>408.5</ele><time>2026-04-30T08:44:40.001Z</time></trkpt><trkpt lat="37.56723298442666" lon="14.049221350876946"><ele>410.25</ele><time>2026-04-30T08:44:47.001Z</time></trkpt><trkpt lat="37.5672273682949" lon="14.049120058241288"><ele>412.0</ele><time>2026-04-30T08:44:48.001Z</time></trkpt><trkpt lat="37.567222350227226" lon="14.04902312438269"><ele>412.1428571428571</ele><time>2026-04-30T08:44:49.001Z</time></trkpt><trkpt lat="37.56721666877377" lon="14.048934404517514"><ele>412.2857142857143</ele><time>2026-04-30T08:44:50.001Z</time></trkpt><trkpt lat="37.5672110771283" lon="14.048852127461492"><ele>412.42857142857144</ele><time>2026-04-30T08:44:51.001Z</time></trkpt><trkpt lat="37.56721001414024" lon="14.048761191842743"><ele>412.57142857142856</ele><time>2026-04-30T08:44:52.001Z</time></trkpt><trkpt lat="37.567203456413665" lon="14.04866936839913"><ele>412.7142857142857</ele><time>2026-04-30T08:44:53.001Z</time></trkpt><trkpt lat="37.56719847357866" lon="14.048570120029963"><ele>412.85714285714283</ele><time>2026-04-30T08:44:54.001Z</time></trkpt><trkpt lat="37.56719605275621" lon="14.048477630039129"><ele>413.0</ele><time>2026-04-30T08:44:55.001Z</time></trkpt><trkpt lat="37.567194912147826" lon="14.0483879319689"><ele>412.79999999999995</ele><time>2026-04-30T08:44:56.001Z</time></trkpt><trkpt lat="37.567187395402726" lon="14.048275147027404"><ele>412.6</ele><time>2026-04-30T08:44:57.001Z</time></trkpt><trkpt lat="37.56717834628435" lon="14.048143392566878"><ele>412.4</ele><time>2026-04-30T08:44:58.001Z</time></trkpt><trkpt lat="37.567164226079335" lon="14.04802145034603"><ele>412.20000000000005</ele><time>2026-04-30T08:44:59.001Z</time></trkpt><trkpt lat="37.56713145129742" lon="14.047910561843873"><ele>412.0</ele><time>2026-04-30T08:45:00.001Z</time></trkpt><trkpt lat="37.567080361982555" lon="14.047818405259873"><ele>411.99999999999994</ele><time>2026-04-30T08:45:01.001Z</time></trkpt><trkpt lat="37.567030572257146" lon="14.047761634713344"><ele>412.0</ele><time>2026-04-30T08:45:02.001Z</time></trkpt><trkpt lat="37.566987699038364" lon="14.047701965568868"><ele>412.0</ele><time>2026-04-30T08:45:03.001Z</time></trkpt><trkpt lat="37.566955566339594" lon="14.04761626096198"><ele>412.0</ele><time>2026-04-30T08:45:04.001Z</time></trkpt><trkpt lat="37.566944671651555" lon="14.047528243768497"><ele>412.0</ele><time>2026-04-30T08:45:05.001Z</time></trkpt><trkpt lat="37.566945647936926" lon="14.047423225090837"><ele>411.99999999999994</ele><time>2026-04-30T08:45:06.001Z</time></trkpt><trkpt lat="37.56695955475307" lon="14.047332394377275"><ele>412.0</ele><time>2026-04-30T08:45:07.001Z</time></trkpt><trkpt lat="37.5669707751544" lon="14.047196855298651"><ele>410.8</ele><time>2026-04-30T08:45:09.001Z</time></trkpt><trkpt lat="37.56692951576021" lon="14.047084200043216"><ele>409.6</ele><time>2026-04-30T08:45:11.001Z</time></trkpt><trkpt lat="37.566871203729484" lon="14.046997796418069"><ele>408.40000000000003</ele><time>2026-04-30T08:45:12.001Z</time></trkpt><trkpt lat="37.566798519059795" lon="14.046891638143814"><ele>407.20000000000005</ele><time>2026-04-30T08:45:13.001Z</time></trkpt><trkpt lat="37.5667238469582" lon="14.046786552080391"><ele>406.0</ele><time>2026-04-30T08:45:14.001Z</time></trkpt><trkpt lat="37.5666661047207" lon="14.046674535768505"><ele>408.20000000000005</ele><time>2026-04-30T08:45:15.001Z</time></trkpt><trkpt lat="37.566611506846904" lon="14.046576368422977"><ele>410.40000000000003</ele><time>2026-04-30T08:45:16.001Z</time></trkpt><trkpt lat="37.56656558081239" lon="14.046477442824626"><ele>412.6</ele><time>2026-04-30T08:45:17.001Z</time></trkpt><trkpt lat="37.566512625151816" lon="14.046381741491494"><ele>414.8</ele><time>2026-04-30T08:45:18.001Z</time></trkpt><trkpt lat="37.5664293348816" lon="14.04628580569605"><ele>417.0</ele><time>2026-04-30T08:45:20.001Z</time></trkpt><trkpt lat="37.566373624123194" lon="14.04619918991938"><ele>417.0</ele><time>2026-04-30T08:45:22.001Z</time></trkpt><trkpt lat="37.56635023994591" lon="14.046053020447964"><ele>417.0</ele><time>2026-04-30T08:45:24.001Z</time></trkpt><trkpt lat="37.56629707996084" lon="14.045963812385496"><ele>417.0</ele><time>2026-04-30T08:45:26.001Z</time></trkpt><trkpt lat="37.56624030122384" lon="14.045882479798479"><ele>417.0</ele><time>2026-04-30T08:45:29.001Z</time></trkpt><trkpt lat="37.56620830539507" lon="14.04580026190285"><ele>417.0</ele><time>2026-04-30T08:45:30.001Z</time></trkpt><trkpt lat="37.566125087940414" lon="14.04568018401919"><ele>416.0</ele><time>2026-04-30T08:45:32.001Z</time></trkpt><trkpt lat="37.566069772266374" lon="14.045600368539152"><ele>415.0</ele><time>2026-04-30T08:45:33.001Z</time></trkpt><trkpt lat="37.56602731734588" lon="14.04553554317929"><ele>414.0</ele><time>2026-04-30T08:45:34.001Z</time></trkpt><trkpt lat="37.5659841793947" lon="14.045474717869332"><ele>413.0</ele><time>2026-04-30T08:45:35.001Z</time></trkpt><trkpt lat="37.56591537934315" lon="14.045395146121052"><ele>412.0</ele><time>2026-04-30T08:45:37.001Z</time></trkpt><trkpt lat="37.56584011645289" lon="14.0453540125661"><ele>411.0</ele><time>2026-04-30T08:45:39.001Z</time></trkpt><trkpt lat="37.5657224987061" lon="14.045359653057744"><ele>411.0</ele><time>2026-04-30T08:45:41.001Z</time></trkpt><trkpt lat="37.565657002005366" lon="14.045383308498257"><ele>411.0</ele><time>2026-04-30T08:45:42.001Z</time></trkpt><trkpt lat="37.56554565515081" lon="14.045413478215622"><ele>411.0</ele><time>2026-04-30T08:45:43.001Z</time></trkpt><trkpt lat="37.565454843466014" lon="14.045404847669737"><ele>411.0</ele><time>2026-04-30T08:45:44.001Z</time></trkpt><trkpt lat="37.565371823214484" lon="14.04538085484391"><ele>411.0</ele><time>2026-04-30T08:45:45.001Z</time></trkpt><trkpt lat="37.56529814932172" lon="14.045336965866458"><ele>411.0</ele><time>2026-04-30T08:45:46.001Z</time></trkpt><trkpt lat="37.56522134304486" lon="14.04528911726341"><ele>409.4</ele><time>2026-04-30T08:45:47.001Z</time></trkpt><trkpt lat="37.56516950735397" lon="14.045216875538866"><ele>407.8</ele><time>2026-04-30T08:45:48.001Z</time></trkpt><trkpt lat="37.56511928104608" lon="14.045145001428708"><ele>406.2</ele><time>2026-04-30T08:45:49.001Z</time></trkpt><trkpt lat="37.5650109324146" lon="14.045075950953974"><ele>404.59999999999997</ele><time>2026-04-30T08:45:51.001Z</time></trkpt><trkpt lat="37.5649447861515" lon="14.044953820571584"><ele>403.0</ele><time>2026-04-30T08:45:53.001Z</time></trkpt><trkpt lat="37.564929716039735" lon="14.044861773110272"><ele>403.00000000000006</ele><time>2026-04-30T08:45:54.001Z</time></trkpt><trkpt lat="37.56490756715915" lon="14.044765234120781"><ele>403.0</ele><time>2026-04-30T08:45:55.001Z</time></trkpt><trkpt lat="37.56486497658255" lon="14.04467226180116"><ele>403.0</ele><time>2026-04-30T08:45:56.001Z</time></trkpt><trkpt lat="37.56481329129042" lon="14.044585352579405"><ele>403.0</ele><time>2026-04-30T08:45:57.001Z</time></trkpt><trkpt lat="37.56476549118147" lon="14.044528202601594"><ele>403.00000000000006</ele><time>2026-04-30T08:45:58.001Z</time></trkpt><trkpt lat="37.56466951229733" lon="14.044475473191874"><ele>403.0</ele><time>2026-04-30T08:46:00.001Z</time></trkpt><trkpt lat="37.56460745882648" lon="14.044437239458906"><ele>403.0</ele><time>2026-04-30T08:46:01.001Z</time></trkpt><trkpt lat="37.56454021416624" lon="14.044379066547561"><ele>403.0</ele><time>2026-04-30T08:46:02.001Z</time></trkpt><trkpt lat="37.56448129056717" lon="14.044305978902884"><ele>403.0</ele><time>2026-04-30T08:46:03.001Z</time></trkpt><trkpt lat="37.564443271444546" lon="14.044231527302983"><ele>403.0</ele><time>2026-04-30T08:46:04.001Z</time></trkpt><trkpt lat="37.56441891554942" lon="14.044150254141698"><ele>403.0</ele><time>2026-04-30T08:46:05.001Z</time></trkpt><trkpt lat="37.56439962283534" lon="14.044066437771425"><ele>403.0</ele><time>2026-04-30T08:46:06.001Z</time></trkpt><trkpt lat="37.56438130380585" lon="14.04398606875053"><ele>403.0</ele><time>2026-04-30T08:46:07.001Z</time></trkpt><trkpt lat="37.564358976629" lon="14.043907866234463"><ele>401.00000000000006</ele><time>2026-04-30T08:46:08.001Z</time></trkpt><trkpt lat="37.56433145408828" lon="14.043827088731316"><ele>399.0</ele><time>2026-04-30T08:46:09.001Z</time></trkpt><trkpt lat="37.56431019796977" lon="14.04374860061712"><ele>397.0</ele><time>2026-04-30T08:46:10.001Z</time></trkpt><trkpt lat="37.56429195823936" lon="14.043655959986928"><ele>395.0</ele><time>2026-04-30T08:46:11.001Z</time></trkpt><trkpt lat="37.564267861034274" lon="14.043575652598557"><ele>393.00000000000006</ele><time>2026-04-30T08:46:12.001Z</time></trkpt><trkpt lat="37.56426962967445" lon="14.043422477684198"><ele>391.0</ele><time>2026-04-30T08:46:14.001Z</time></trkpt><trkpt lat="37.56430051879451" lon="14.043353165024364"><ele>391.00000000000006</ele><time>2026-04-30T08:46:15.001Z</time></trkpt><trkpt lat="37.564346229734824" lon="14.043293720652908"><ele>391.0</ele><time>2026-04-30T08:46:16.001Z</time></trkpt><trkpt lat="37.564401261173074" lon="14.043227451388914"><ele>391.0</ele><time>2026-04-30T08:46:17.001Z</time></trkpt><trkpt lat="37.564454140583315" lon="14.043146616155887"><ele>391.0</ele><time>2026-04-30T08:46:18.001Z</time></trkpt><trkpt lat="37.56449876918341" lon="14.04306170192095"><ele>391.00000000000006</ele><time>2026-04-30T08:46:19.001Z</time></trkpt><trkpt lat="37.56455062002385" lon="14.042990869681006"><ele>391.0</ele><time>2026-04-30T08:46:20.001Z</time></trkpt><trkpt lat="37.564611587608994" lon="14.042952349190044"><ele>391.0</ele><time>2026-04-30T08:46:21.001Z</time></trkpt><trkpt lat="37.56467620092272" lon="14.042931926399751"><ele>391.0</ele><time>2026-04-30T08:46:22.001Z</time></trkpt><trkpt lat="37.564743687332864" lon="14.042901340336673"><ele>391.0</ele><time>2026-04-30T08:46:23.001Z</time></trkpt><trkpt lat="37.56484527133196" lon="14.042832374326034"><ele>391.0</ele><time>2026-04-30T08:46:25.001Z</time></trkpt><trkpt lat="37.56492839470256" lon="14.042757139438104"><ele>391.0</ele><time>2026-04-30T08:46:27.001Z</time></trkpt><trkpt lat="37.564980355145494" lon="14.042653493487714"><ele>391.0</ele><time>2026-04-30T08:46:29.001Z</time></trkpt><trkpt lat="37.56503433976597" lon="14.042522749176861"><ele>391.0</ele><time>2026-04-30T08:46:31.001Z</time></trkpt><trkpt lat="37.56507277240551" lon="14.0424485995805"><ele>391.0</ele><time>2026-04-30T08:46:32.001Z</time></trkpt><trkpt lat="37.565166045878506" lon="14.042352835366726"><ele>391.0</ele><time>2026-04-30T08:46:34.001Z</time></trkpt><trkpt lat="37.56522559760782" lon="14.042299600301407"><ele>391.0</ele><time>2026-04-30T08:46:35.001Z</time></trkpt><trkpt lat="37.5652935625719" lon="14.042240625152601"><ele>391.50000000000006</ele><time>2026-04-30T08:46:36.001Z</time></trkpt><trkpt lat="37.56536032205372" lon="14.042189591711498"><ele>392.0</ele><time>2026-04-30T08:46:37.001Z</time></trkpt><trkpt lat="37.56543123033993" lon="14.04215388994764"><ele>392.5</ele><time>2026-04-30T08:46:38.001Z</time></trkpt><trkpt lat="37.56551079251537" lon="14.042135517091191"><ele>393.0</ele><time>2026-04-30T08:46:39.001Z</time></trkpt><trkpt lat="37.56559378829921" lon="14.042130688322072"><ele>393.50000000000006</ele><time>2026-04-30T08:46:40.001Z</time></trkpt><trkpt lat="37.565681489899994" lon="14.04211656690812"><ele>394.0</ele><time>2026-04-30T08:46:41.001Z</time></trkpt><trkpt lat="37.56576727168236" lon="14.042089985022022"><ele>394.0</ele><time>2026-04-30T08:46:42.001Z</time></trkpt><trkpt lat="37.56584184966896" lon="14.042059141761307"><ele>394.0</ele><time>2026-04-30T08:46:43.001Z</time></trkpt><trkpt lat="37.565901079403794" lon="14.042012311424442"><ele>394.0</ele><time>2026-04-30T08:46:44.001Z</time></trkpt><trkpt lat="37.56596066043768" lon="14.041913952245674"><ele>394.0</ele><time>2026-04-30T08:46:46.001Z</time></trkpt><trkpt lat="37.56595341823186" lon="14.041791497568367"><ele>394.0</ele><time>2026-04-30T08:46:48.001Z</time></trkpt><trkpt lat="37.565975645266924" lon="14.041648545665627"><ele>396.6</ele><time>2026-04-30T08:46:50.001Z</time></trkpt><trkpt lat="37.566010210324166" lon="14.041562076356755"><ele>399.2</ele><time>2026-04-30T08:46:51.001Z</time></trkpt><trkpt lat="37.5660523616544" lon="14.041455385684612"><ele>401.8</ele><time>2026-04-30T08:46:52.001Z</time></trkpt><trkpt lat="37.566088134928584" lon="14.041347937225616"><ele>404.40000000000003</ele><time>2026-04-30T08:46:53.001Z</time></trkpt><trkpt lat="37.56611060468311" lon="14.041226221172519"><ele>407.0</ele><time>2026-04-30T08:46:54.001Z</time></trkpt><trkpt lat="37.566120893333796" lon="14.041104578621724"><ele>406.99999999999994</ele><time>2026-04-30T08:46:55.001Z</time></trkpt><trkpt lat="37.566125959151755" lon="14.040999827631756"><ele>407.0</ele><time>2026-04-30T08:46:56.001Z</time></trkpt><trkpt lat="37.56613122007684" lon="14.040901936332967"><ele>407.0</ele><time>2026-04-30T08:46:57.001Z</time></trkpt><trkpt lat="37.566137592061025" lon="14.040790474506998"><ele>407.0</ele><time>2026-04-30T08:46:58.001Z</time></trkpt><trkpt lat="37.566138978895914" lon="14.040668776074527"><ele>406.99999999999994</ele><time>2026-04-30T08:46:59.001Z</time></trkpt><trkpt lat="37.566134571329826" lon="14.040544523975445"><ele>407.0</ele><time>2026-04-30T08:47:00.001Z</time></trkpt><trkpt lat="37.56613260488321" lon="14.0404268281617"><ele>409.6</ele><time>2026-04-30T08:47:01.001Z</time></trkpt><trkpt lat="37.56614035707354" lon="14.040295262338605"><ele>412.20000000000005</ele><time>2026-04-30T08:47:02.001Z</time></trkpt><trkpt lat="37.56614818748514" lon="14.040174740029993"><ele>414.8</ele><time>2026-04-30T08:47:03.001Z</time></trkpt><trkpt lat="37.56615303724335" lon="14.040069426151518"><ele>417.4</ele><time>2026-04-30T08:47:04.001Z</time></trkpt><trkpt lat="37.566155211411946" lon="14.039947524626015"><ele>420.0</ele><time>2026-04-30T08:47:05.001Z</time></trkpt><trkpt lat="37.56615324849553" lon="14.039821442275654"><ele>421.2</ele><time>2026-04-30T08:47:06.001Z</time></trkpt><trkpt lat="37.5661472252136" lon="14.039691868947205"><ele>422.4</ele><time>2026-04-30T08:47:07.001Z</time></trkpt><trkpt lat="37.56614295526084" lon="14.039565484912202"><ele>423.6</ele><time>2026-04-30T08:47:08.001Z</time></trkpt><trkpt lat="37.56614180580898" lon="14.039431162161778"><ele>424.8</ele><time>2026-04-30T08:47:09.001Z</time></trkpt><trkpt lat="37.56614357688209" lon="14.039302538207119"><ele>426.0</ele><time>2026-04-30T08:47:10.001Z</time></trkpt><trkpt lat="37.56613916584983" lon="14.03916940040549"><ele>427.4</ele><time>2026-04-30T08:47:11.001Z</time></trkpt><trkpt lat="37.56613422155455" lon="14.039043168666993"><ele>428.8</ele><time>2026-04-30T08:47:12.001Z</time></trkpt><trkpt lat="37.566145264124515" lon="14.038946030123348"><ele>430.19999999999993</ele><time>2026-04-30T08:47:13.001Z</time></trkpt><trkpt lat="37.56618028710758" lon="14.038870387967961"><ele>431.59999999999997</ele><time>2026-04-30T08:47:14.001Z</time></trkpt><trkpt lat="37.56623426377589" lon="14.038759722400894"><ele>433.0</ele><time>2026-04-30T08:47:15.001Z</time></trkpt><trkpt lat="37.56629681119722" lon="14.038625239501414"><ele>433.59999999999997</ele><time>2026-04-30T08:47:16.001Z</time></trkpt><trkpt lat="37.56634833940982" lon="14.038496248523042"><ele>434.19999999999993</ele><time>2026-04-30T08:47:17.001Z</time></trkpt><trkpt lat="37.56637448068065" lon="14.038377701102313"><ele>434.8</ele><time>2026-04-30T08:47:18.001Z</time></trkpt><trkpt lat="37.56639355858035" lon="14.038245342917314"><ele>435.4</ele><time>2026-04-30T08:47:19.001Z</time></trkpt><trkpt lat="37.566412201843704" lon="14.038111783382456"><ele>436.0</ele><time>2026-04-30T08:47:20.001Z</time></trkpt><trkpt lat="37.566425646767904" lon="14.037986102164767"><ele>438.8</ele><time>2026-04-30T08:47:21.001Z</time></trkpt><trkpt lat="37.566448991221435" lon="14.037860586144486"><ele>441.6</ele><time>2026-04-30T08:47:22.001Z</time></trkpt><trkpt lat="37.56649340550451" lon="14.0377444594477"><ele>444.4</ele><time>2026-04-30T08:47:23.001Z</time></trkpt><trkpt lat="37.566553507611694" lon="14.03762772542938"><ele>447.2</ele><time>2026-04-30T08:47:24.001Z</time></trkpt><trkpt lat="37.566618622428976" lon="14.037523585008795"><ele>450.0</ele><time>2026-04-30T08:47:25.001Z</time></trkpt><trkpt lat="37.56667747206577" lon="14.037453580282339"><ele>452.3333333333333</ele><time>2026-04-30T08:47:26.001Z</time></trkpt><trkpt lat="37.56667754045517" lon="14.037339423453767"><ele>454.66666666666663</ele><time>2026-04-30T08:47:28.001Z</time></trkpt><trkpt lat="37.56665123515105" lon="14.03726469840848"><ele>457.0</ele><time>2026-04-30T08:47:29.001Z</time></trkpt><trkpt lat="37.56661443234268" lon="14.037178589812923"><ele>459.3333333333333</ele><time>2026-04-30T08:47:30.001Z</time></trkpt><trkpt lat="37.56659235053391" lon="14.037078633935613"><ele>461.66666666666663</ele><time>2026-04-30T08:47:31.001Z</time></trkpt><trkpt lat="37.56656555793337" lon="14.03696614959094"><ele>464.0</ele><time>2026-04-30T08:47:32.001Z</time></trkpt><trkpt lat="37.56653518065385" lon="14.036856392124992"><ele>463.99999999999994</ele><time>2026-04-30T08:47:33.001Z</time></trkpt><trkpt lat="37.566505910766686" lon="14.036748134598717"><ele>464.0</ele><time>2026-04-30T08:47:34.001Z</time></trkpt><trkpt lat="37.56647951097593" lon="14.036631128824395"><ele>464.0</ele><time>2026-04-30T08:47:35.001Z</time></trkpt><trkpt lat="37.56646351218623" lon="14.036539721108037"><ele>464.0</ele><time>2026-04-30T08:47:36.001Z</time></trkpt><trkpt lat="37.566475717455944" lon="14.036458731435731"><ele>463.99999999999994</ele><time>2026-04-30T08:47:38.001Z</time></trkpt><trkpt lat="37.56652880566004" lon="14.03640062960274"><ele>464.0</ele><time>2026-04-30T08:47:41.001Z</time></trkpt><trkpt lat="37.56659550862257" lon="14.036379984363867"><ele>467.0</ele><time>2026-04-30T08:47:46.001Z</time></trkpt><trkpt lat="37.56675690709352" lon="14.03632718390896"><ele>470.0</ele><time>2026-04-30T08:47:49.001Z</time></trkpt><trkpt lat="37.56687119362609" lon="14.0362679438067"><ele>473.0</ele><time>2026-04-30T08:47:51.001Z</time></trkpt><trkpt lat="37.56698852343951" lon="14.036255928245764"><ele>476.0</ele><time>2026-04-30T08:47:53.001Z</time></trkpt><trkpt lat="37.56705888859891" lon="14.036279217281335"><ele>476.8333333333333</ele><time>2026-04-30T08:47:55.001Z</time></trkpt><trkpt lat="37.5671414802185" lon="14.036279124278225"><ele>477.66666666666663</ele><time>2026-04-30T08:48:04.001Z</time></trkpt><trkpt lat="37.567238641647435" lon="14.036275332050579"><ele>478.5</ele><time>2026-04-30T08:48:06.001Z</time></trkpt><trkpt lat="37.56734025732968" lon="14.03627902624779"><ele>479.33333333333337</ele><time>2026-04-30T08:48:08.001Z</time></trkpt><trkpt lat="37.56741303083633" lon="14.036287574268378"><ele>480.1666666666667</ele><time>2026-04-30T08:48:11.001Z</time></trkpt><trkpt lat="37.56748730281895" lon="14.036295430660607"><ele>481.0</ele><time>2026-04-30T08:48:14.001Z</time></trkpt><trkpt lat="37.56756422104118" lon="14.03629660624679"><ele>481.00000000000006</ele><time>2026-04-30T08:48:16.001Z</time></trkpt><trkpt lat="37.56764413325113" lon="14.036289523436926"><ele>481.0</ele><time>2026-04-30T08:48:18.001Z</time></trkpt><trkpt lat="37.567730127353734" lon="14.036285103110737"><ele>481.0</ele><time>2026-04-30T08:48:20.001Z</time></trkpt><trkpt lat="37.56782128998635" lon="14.036264496380932"><ele>481.0</ele><time>2026-04-30T08:48:23.001Z</time></trkpt><trkpt lat="37.56788782127567" lon="14.036252179365981"><ele>481.00000000000006</ele><time>2026-04-30T08:48:25.001Z</time></trkpt><trkpt lat="37.56797557490847" lon="14.036230984136052"><ele>481.0</ele><time>2026-04-30T08:48:29.001Z</time></trkpt><trkpt lat="37.56806175407608" lon="14.036196957993525"><ele>481.8</ele><time>2026-04-30T08:48:32.001Z</time></trkpt><trkpt lat="37.56820401094679" lon="14.036167387741433"><ele>482.6</ele><time>2026-04-30T08:48:34.001Z</time></trkpt><trkpt lat="37.568266957960816" lon="14.036145019399886"><ele>483.4</ele><time>2026-04-30T08:48:35.001Z</time></trkpt><trkpt lat="37.56834889745601" lon="14.036106547578518"><ele>484.2</ele><time>2026-04-30T08:48:36.001Z</time></trkpt><trkpt lat="37.568437895398986" lon="14.036059053420596"><ele>485.0</ele><time>2026-04-30T08:48:37.001Z</time></trkpt><trkpt lat="37.56851583803209" lon="14.036000475716108"><ele>484.99999999999994</ele><time>2026-04-30T08:48:38.001Z</time></trkpt><trkpt lat="37.568585925080306" lon="14.03594155176667"><ele>485.0</ele><time>2026-04-30T08:48:39.001Z</time></trkpt><trkpt lat="37.56864302005893" lon="14.035874436299913"><ele>485.0</ele><time>2026-04-30T08:48:40.001Z</time></trkpt><trkpt lat="37.56869907750978" lon="14.035807583079887"><ele>485.0</ele><time>2026-04-30T08:48:41.001Z</time></trkpt><trkpt lat="37.56876023873135" lon="14.035764503812212"><ele>484.99999999999994</ele><time>2026-04-30T08:48:42.001Z</time></trkpt><trkpt lat="37.56883115060275" lon="14.03572946885687"><ele>485.0</ele><time>2026-04-30T08:48:43.001Z</time></trkpt><trkpt lat="37.56890438892613" lon="14.035691739689975"><ele>487.66666666666663</ele><time>2026-04-30T08:48:44.001Z</time></trkpt><trkpt lat="37.568963350975466" lon="14.03563972463357"><ele>490.3333333333333</ele><time>2026-04-30T08:48:45.001Z</time></trkpt><trkpt lat="37.569025447667556" lon="14.035581417308112"><ele>493.0</ele><time>2026-04-30T08:48:46.001Z</time></trkpt><trkpt lat="37.56910287297852" lon="14.035534939576111"><ele>495.66666666666663</ele><time>2026-04-30T08:48:47.001Z</time></trkpt><trkpt lat="37.569195079624755" lon="14.03551391490529"><ele>498.3333333333333</ele><time>2026-04-30T08:48:48.001Z</time></trkpt><trkpt lat="37.569279198517535" lon="14.03549714593158"><ele>501.0</ele><time>2026-04-30T08:48:49.001Z</time></trkpt><trkpt lat="37.569353416355305" lon="14.035487614737788"><ele>501.0</ele><time>2026-04-30T08:48:50.001Z</time></trkpt><trkpt lat="37.56941913637725" lon="14.035484299230218"><ele>501.0</ele><time>2026-04-30T08:48:51.001Z</time></trkpt><trkpt lat="37.56954002242859" lon="14.035456878683066"><ele>501.0</ele><time>2026-04-30T08:48:53.001Z</time></trkpt><trkpt lat="37.569573154473666" lon="14.035369781970632"><ele>501.0</ele><time>2026-04-30T08:48:57.001Z</time></trkpt><trkpt lat="37.56959047754771" lon="14.035273198540041"><ele>501.0</ele><time>2026-04-30T08:49:03.001Z</time></trkpt><trkpt lat="37.56965186196201" lon="14.035137500850542"><ele>499.5</ele><time>2026-04-30T08:49:13.001Z</time></trkpt><trkpt lat="37.56969060288918" lon="14.035056956029832"><ele>498.0</ele><time>2026-04-30T08:49:14.001Z</time></trkpt><trkpt lat="37.56973484794182" lon="14.034979863478748"><ele>496.5</ele><time>2026-04-30T08:49:15.001Z</time></trkpt><trkpt lat="37.56978617756236" lon="14.034909065945127"><ele>495.0</ele><time>2026-04-30T08:49:16.001Z</time></trkpt><trkpt lat="37.56983984302108" lon="14.034841262105477"><ele>493.5</ele><time>2026-04-30T08:49:17.001Z</time></trkpt><trkpt lat="37.56989683641296" lon="14.0347621533083"><ele>492.0</ele><time>2026-04-30T08:49:18.001Z</time></trkpt><trkpt lat="37.56994565027619" lon="14.034685146905135"><ele>492.0</ele><time>2026-04-30T08:49:19.001Z</time></trkpt><trkpt lat="37.56998208732744" lon="14.034605354405752"><ele>492.0</ele><time>2026-04-30T08:49:20.001Z</time></trkpt><trkpt lat="37.57001043814274" lon="14.034517121870643"><ele>492.0</ele><time>2026-04-30T08:49:21.001Z</time></trkpt><trkpt lat="37.57003286491677" lon="14.034413546995843"><ele>492.0</ele><time>2026-04-30T08:49:22.001Z</time></trkpt><trkpt lat="37.57005463445118" lon="14.034298758230642"><ele>492.0</ele><time>2026-04-30T08:49:23.001Z</time></trkpt><trkpt lat="37.57007798366216" lon="14.034192788290742"><ele>492.0</ele><time>2026-04-30T08:49:24.001Z</time></trkpt><trkpt lat="37.5701044201419" lon="14.034092957264631"><ele>492.6666666666667</ele><time>2026-04-30T08:49:25.001Z</time></trkpt><trkpt lat="37.570131563130104" lon="14.034004864651315"><ele>493.33333333333337</ele><time>2026-04-30T08:49:26.001Z</time></trkpt><trkpt lat="37.570152823975754" lon="14.033903668951012"><ele>494.0</ele><time>2026-04-30T08:49:27.001Z</time></trkpt><trkpt lat="37.57016366356526" lon="14.033787342320593"><ele>494.6666666666667</ele><time>2026-04-30T08:49:28.001Z</time></trkpt><trkpt lat="37.570172015851206" lon="14.033669510717687"><ele>495.33333333333337</ele><time>2026-04-30T08:49:29.001Z</time></trkpt><trkpt lat="37.57019090870786" lon="14.033571091800743"><ele>496.0</ele><time>2026-04-30T08:49:30.001Z</time></trkpt><trkpt lat="37.57023600468737" lon="14.033492772623593"><ele>496.0</ele><time>2026-04-30T08:49:31.001Z</time></trkpt><trkpt lat="37.57026430424432" lon="14.033348223482545"><ele>496.0</ele><time>2026-04-30T08:49:33.001Z</time></trkpt><trkpt lat="37.57026050428172" lon="14.033264017077958"><ele>496.0</ele><time>2026-04-30T08:49:34.001Z</time></trkpt><trkpt lat="37.570237537616485" lon="14.033149258787263"><ele>496.0</ele><time>2026-04-30T08:49:35.001Z</time></trkpt><trkpt lat="37.57022243462092" lon="14.033021875361609"><ele>496.0</ele><time>2026-04-30T08:49:36.001Z</time></trkpt><trkpt lat="37.57024956207617" lon="14.032897099278207"><ele>496.1666666666667</ele><time>2026-04-30T08:49:37.001Z</time></trkpt><trkpt lat="37.57030367104727" lon="14.032809048921354"><ele>496.33333333333337</ele><time>2026-04-30T08:49:38.001Z</time></trkpt><trkpt lat="37.57036163075161" lon="14.032722352920972"><ele>496.5</ele><time>2026-04-30T08:49:39.001Z</time></trkpt><trkpt lat="37.570415330134914" lon="14.032638557676075"><ele>496.66666666666663</ele><time>2026-04-30T08:49:40.001Z</time></trkpt><trkpt lat="37.570467633024634" lon="14.032552663480423"><ele>496.8333333333333</ele><time>2026-04-30T08:49:41.001Z</time></trkpt><trkpt lat="37.5705254932477" lon="14.032479457393919"><ele>497.0</ele><time>2026-04-30T08:49:42.001Z</time></trkpt><trkpt lat="37.570596954542786" lon="14.032421378686282"><ele>495.20000000000005</ele><time>2026-04-30T08:49:43.001Z</time></trkpt><trkpt lat="37.57067593140174" lon="14.032372339914255"><ele>493.40000000000003</ele><time>2026-04-30T08:49:44.001Z</time></trkpt><trkpt lat="37.57075157290776" lon="14.032333067909011"><ele>491.59999999999997</ele><time>2026-04-30T08:49:45.001Z</time></trkpt><trkpt lat="37.5708331524188" lon="14.032286584046558"><ele>489.79999999999995</ele><time>2026-04-30T08:49:46.001Z</time></trkpt><trkpt lat="37.570917030261036" lon="14.03222201413868"><ele>488.0</ele><time>2026-04-30T08:49:47.001Z</time></trkpt><trkpt lat="37.57099587899502" lon="14.032123662342874"><ele>488.0</ele><time>2026-04-30T08:49:48.001Z</time></trkpt><trkpt lat="37.571070307575155" lon="14.031998681137711"><ele>488.0</ele><time>2026-04-30T08:49:49.001Z</time></trkpt><trkpt lat="37.57114523092231" lon="14.031874599967793"><ele>488.0</ele><time>2026-04-30T08:49:50.001Z</time></trkpt><trkpt lat="37.57121769119187" lon="14.031766619917537"><ele>488.0</ele><time>2026-04-30T08:49:51.001Z</time></trkpt><trkpt lat="37.57128948058742" lon="14.031691434212485"><ele>488.0</ele><time>2026-04-30T08:49:52.001Z</time></trkpt><trkpt lat="37.571381178887286" lon="14.031645892670877"><ele>487.99999999999994</ele><time>2026-04-30T08:49:53.001Z</time></trkpt><trkpt lat="37.57149705178352" lon="14.031618692711147"><ele>487.99999999999994</ele><time>2026-04-30T08:49:54.001Z</time></trkpt><trkpt lat="37.571616778634855" lon="14.031596954068435"><ele>488.0</ele><time>2026-04-30T08:49:55.001Z</time></trkpt><trkpt lat="37.57171593768042" lon="14.031562248047702"><ele>488.0</ele><time>2026-04-30T08:49:56.001Z</time></trkpt><trkpt lat="37.57176639830419" lon="14.031504668338108"><ele>488.0</ele><time>2026-04-30T08:49:57.001Z</time></trkpt><trkpt lat="37.571792997672695" lon="14.031416925889248"><ele>487.99999999999994</ele><time>2026-04-30T08:49:58.001Z</time></trkpt><trkpt lat="37.57180106620894" lon="14.031298065573544"><ele>487.99999999999994</ele><time>2026-04-30T08:49:59.001Z</time></trkpt><trkpt lat="37.57178794940475" lon="14.03115474201843"><ele>488.0</ele><time>2026-04-30T08:50:00.001Z</time></trkpt><trkpt lat="37.57176422916478" lon="14.030997209766777"><ele>488.0</ele><time>2026-04-30T08:50:01.001Z</time></trkpt><trkpt lat="37.57173723855286" lon="14.030833601775177"><ele>490.75</ele><time>2026-04-30T08:50:02.001Z</time></trkpt><trkpt lat="37.571731589162724" lon="14.030671070390742"><ele>493.5</ele><time>2026-04-30T08:50:03.001Z</time></trkpt><trkpt lat="37.57171582654542" lon="14.030503087682998"><ele>496.25</ele><time>2026-04-30T08:50:04.001Z</time></trkpt><trkpt lat="37.57169888270148" lon="14.030314316026795"><ele>499.0</ele><time>2026-04-30T08:50:05.001Z</time></trkpt><trkpt lat="37.57166160579705" lon="14.030077914432546"><ele>502.33333333333337</ele><time>2026-04-30T08:50:06.001Z</time></trkpt><trkpt lat="37.57164201901335" lon="14.02985008983286"><ele>505.66666666666663</ele><time>2026-04-30T08:50:07.001Z</time></trkpt><trkpt lat="37.57162492955622" lon="14.02967028472149"><ele>509.0</ele><time>2026-04-30T08:50:08.001Z</time></trkpt><trkpt lat="37.571605779674016" lon="14.029503755777252"><ele>509.0</ele><time>2026-04-30T08:50:09.001Z</time></trkpt><trkpt lat="37.571586794042695" lon="14.029344096833556"><ele>509.0</ele><time>2026-04-30T08:50:10.001Z</time></trkpt><trkpt lat="37.571565104941634" lon="14.029191984091506"><ele>509.0</ele><time>2026-04-30T08:50:11.001Z</time></trkpt><trkpt lat="37.57154281793854" lon="14.029039957608363"><ele>509.0</ele><time>2026-04-30T08:50:12.001Z</time></trkpt><trkpt lat="37.57151808338665" lon="14.02888492359948"><ele>512.25</ele><time>2026-04-30T08:50:13.001Z</time></trkpt><trkpt lat="37.57148794550099" lon="14.028731875696803"><ele>515.5</ele><time>2026-04-30T08:50:14.001Z</time></trkpt><trkpt lat="37.5714608012266" lon="14.028573164384186"><ele>518.75</ele><time>2026-04-30T08:50:15.001Z</time></trkpt><trkpt lat="37.571432471653836" lon="14.028407205210128"><ele>522.0</ele><time>2026-04-30T08:50:16.001Z</time></trkpt><trkpt lat="37.5714025661572" lon="14.028230285170322"><ele>524.25</ele><time>2026-04-30T08:50:17.001Z</time></trkpt><trkpt lat="37.57137362807294" lon="14.028035554413176"><ele>526.5</ele><time>2026-04-30T08:50:18.001Z</time></trkpt><trkpt lat="37.57134706089705" lon="14.027852068518422"><ele>528.75</ele><time>2026-04-30T08:50:19.001Z</time></trkpt><trkpt lat="37.571342069121194" lon="14.027673499632316"><ele>531.0</ele><time>2026-04-30T08:50:20.001Z</time></trkpt><trkpt lat="37.571323315139296" lon="14.027488141936926"><ele>535.3333333333334</ele><time>2026-04-30T08:50:21.001Z</time></trkpt><trkpt lat="37.57130678466109" lon="14.027294810016944"><ele>539.6666666666667</ele><time>2026-04-30T08:50:22.001Z</time></trkpt><trkpt lat="37.57127493206154" lon="14.027092243667598"><ele>544.0</ele><time>2026-04-30T08:50:23.001Z</time></trkpt><trkpt lat="37.571259840996326" lon="14.026884083463797"><ele>544.0</ele><time>2026-04-30T08:50:24.001Z</time></trkpt><trkpt lat="37.57124293763688" lon="14.02669844137076"><ele>544.0</ele><time>2026-04-30T08:50:25.001Z</time></trkpt><trkpt lat="37.57122870712913" lon="14.026538316174971"><ele>544.0</ele><time>2026-04-30T08:50:26.001Z</time></trkpt><trkpt lat="37.57121878521521" lon="14.026396236852195"><ele>544.0</ele><time>2026-04-30T08:50:27.001Z</time></trkpt><trkpt lat="37.57121457520643" lon="14.026244569069256"><ele>545.6666666666667</ele><time>2026-04-30T08:50:28.001Z</time></trkpt><trkpt lat="37.57121451141331" lon="14.026064382643193"><ele>547.3333333333334</ele><time>2026-04-30T08:50:29.001Z</time></trkpt><trkpt lat="37.57121483963811" lon="14.025862954589922"><ele>549.0</ele><time>2026-04-30T08:50:30.001Z</time></trkpt><trkpt lat="37.571217908394026" lon="14.025671857069778"><ele>550.4</ele><time>2026-04-30T08:50:31.001Z</time></trkpt><trkpt lat="37.57121489128446" lon="14.025511805046339"><ele>551.8</ele><time>2026-04-30T08:50:32.001Z</time></trkpt><trkpt lat="37.571213840782285" lon="14.025380545644918"><ele>553.2</ele><time>2026-04-30T08:50:33.001Z</time></trkpt><trkpt lat="37.571211354006294" lon="14.025298099394288"><ele>554.6</ele><time>2026-04-30T08:50:34.001Z</time></trkpt><trkpt lat="37.57123696546376" lon="14.025197898308386"><ele>556.0</ele><time>2026-04-30T08:50:37.001Z</time></trkpt><trkpt lat="37.57136459360214" lon="14.025160438832163"><ele>556.0</ele><time>2026-04-30T08:50:39.001Z</time></trkpt><trkpt lat="37.571462688819416" lon="14.025173011426814"><ele>556.0</ele><time>2026-04-30T08:50:40.001Z</time></trkpt><trkpt lat="37.57157242689365" lon="14.025191059260912"><ele>556.0</ele><time>2026-04-30T08:50:41.001Z</time></trkpt><trkpt lat="37.57168699012492" lon="14.02520336636489"><ele>556.0</ele><time>2026-04-30T08:50:42.001Z</time></trkpt><trkpt lat="37.57180508894085" lon="14.025216702499923"><ele>556.0</ele><time>2026-04-30T08:50:43.001Z</time></trkpt><trkpt lat="37.571920654594784" lon="14.02522643500137"><ele>558.0</ele><time>2026-04-30T08:50:44.001Z</time></trkpt><trkpt lat="37.57203015100194" lon="14.025225425513444"><ele>560.0</ele><time>2026-04-30T08:50:45.001Z</time></trkpt><trkpt lat="37.5721286032728" lon="14.025204869830597"><ele>562.0</ele><time>2026-04-30T08:50:46.001Z</time></trkpt><trkpt lat="37.572227192562565" lon="14.025170134044812"><ele>564.0</ele><time>2026-04-30T08:50:47.001Z</time></trkpt><trkpt lat="37.57234305441712" lon="14.025121727274803"><ele>566.0</ele><time>2026-04-30T08:50:48.001Z</time></trkpt><trkpt lat="37.572464268209245" lon="14.025055989891243"><ele>566.0</ele><time>2026-04-30T08:50:49.001Z</time></trkpt><trkpt lat="37.57258797169252" lon="14.024979279393792"><ele>566.0</ele><time>2026-04-30T08:50:50.001Z</time></trkpt><trkpt lat="37.57270669721538" lon="14.024887462940043"><ele>566.0</ele><time>2026-04-30T08:50:51.001Z</time></trkpt><trkpt lat="37.57281628184926" lon="14.024790789087753"><ele>566.0</ele><time>2026-04-30T08:50:52.001Z</time></trkpt><trkpt lat="37.57290918977388" lon="14.024712230163603"><ele>570.2</ele><time>2026-04-30T08:50:53Z</time></trkpt><trkpt lat="37.57297973141214" lon="14.02465002487325"><ele>574.4000000000001</ele><time>2026-04-30T08:50:54Z</time></trkpt><trkpt lat="37.57306069041614" lon="14.024598722456238"><ele>578.6</ele><time>2026-04-30T08:50:56Z</time></trkpt><trkpt lat="37.57312743184015" lon="14.024608463995188"><ele>582.8000000000001</ele><time>2026-04-30T08:50:58Z</time></trkpt><trkpt lat="37.573258872573895" lon="14.024724415417532"><ele>587.0</ele><time>2026-04-30T08:51:00Z</time></trkpt><trkpt lat="37.57336314263981" lon="14.024816775585593"><ele>587.0</ele><time>2026-04-30T08:51:01Z</time></trkpt><trkpt lat="37.57349295665077" lon="14.024915752118972"><ele>587.0</ele><time>2026-04-30T08:51:02Z</time></trkpt><trkpt lat="37.57363301241262" lon="14.025016172011629"><ele>587.0</ele><time>2026-04-30T08:51:03Z</time></trkpt><trkpt lat="37.573760567023655" lon="14.025117536539483"><ele>588.6666666666666</ele><time>2026-04-30T08:51:04Z</time></trkpt><trkpt lat="37.573886861621865" lon="14.02522205424798"><ele>590.3333333333334</ele><time>2026-04-30T08:51:05Z</time></trkpt><trkpt lat="37.57401881877187" lon="14.025323010918719"><ele>592.0</ele><time>2026-04-30T08:51:06Z</time></trkpt><trkpt lat="37.57416080647212" lon="14.025409413199963"><ele>592.0</ele><time>2026-04-30T08:51:07Z</time></trkpt><trkpt lat="37.57431901977317" lon="14.025476980853181"><ele>592.0</ele><time>2026-04-30T08:51:08Z</time></trkpt><trkpt lat="37.574463595495565" lon="14.025522268961243"><ele>592.0</ele><time>2026-04-30T08:51:09Z</time></trkpt><trkpt lat="37.57458981197684" lon="14.02555953935898"><ele>592.0</ele><time>2026-04-30T08:51:10Z</time></trkpt><trkpt lat="37.57470148205933" lon="14.025598034190168"><ele>593.4</ele><time>2026-04-30T08:51:11Z</time></trkpt><trkpt lat="37.574804024159285" lon="14.025636365654494"><ele>594.8000000000001</ele><time>2026-04-30T08:51:12Z</time></trkpt><trkpt lat="37.57489950811494" lon="14.025673299326941"><ele>596.2</ele><time>2026-04-30T08:51:13Z</time></trkpt><trkpt lat="37.57498524477007" lon="14.025744848214982"><ele>597.6</ele><time>2026-04-30T08:51:14Z</time></trkpt><trkpt lat="37.57504753255677" lon="14.025859477653139"><ele>599.0</ele><time>2026-04-30T08:51:15Z</time></trkpt><trkpt lat="37.57508471555206" lon="14.026012829701655"><ele>599.0</ele><time>2026-04-30T08:51:16Z</time></trkpt><trkpt lat="37.57510275284605" lon="14.026185113071797"><ele>599.0</ele><time>2026-04-30T08:51:17Z</time></trkpt><trkpt lat="37.57512866801311" lon="14.026357016297062"><ele>599.0</ele><time>2026-04-30T08:51:18Z</time></trkpt><trkpt lat="37.57516400979099" lon="14.026530827674629"><ele>599.0</ele><time>2026-04-30T08:51:19Z</time></trkpt><trkpt lat="37.57518504238104" lon="14.026701666087378"><ele>597.5</ele><time>2026-04-30T08:51:20Z</time></trkpt><trkpt lat="37.57518505304784" lon="14.02686403080306"><ele>596.0</ele><time>2026-04-30T08:51:21Z</time></trkpt><trkpt lat="37.575166609689006" lon="14.027022769110761"><ele>594.5</ele><time>2026-04-30T08:51:22Z</time></trkpt><trkpt lat="37.57515089358503" lon="14.02718584935471"><ele>593.0</ele><time>2026-04-30T08:51:23Z</time></trkpt><trkpt lat="37.57515552306053" lon="14.027354516950796"><ele>593.75</ele><time>2026-04-30T08:51:24Z</time></trkpt><trkpt lat="37.57517968247571" lon="14.027520807545056"><ele>594.5</ele><time>2026-04-30T08:51:25Z</time></trkpt><trkpt lat="37.575212952599045" lon="14.027677219014203"><ele>595.25</ele><time>2026-04-30T08:51:26Z</time></trkpt><trkpt lat="37.575242630085235" lon="14.027825380887808"><ele>596.0</ele><time>2026-04-30T08:51:27Z</time></trkpt><trkpt lat="37.57527343111478" lon="14.027969320687413"><ele>596.0</ele><time>2026-04-30T08:51:28Z</time></trkpt><trkpt lat="37.575296427060344" lon="14.028077435857092"><ele>596.0</ele><time>2026-04-30T08:51:29Z</time></trkpt><trkpt lat="37.57532442286019" lon="14.028159022651504"><ele>596.0</ele><time>2026-04-30T08:51:34Z</time></trkpt><trkpt lat="37.57536305301615" lon="14.028040241101083"><ele>596.0</ele><time>2026-04-30T08:51:37Z</time></trkpt><trkpt lat="37.57536013450959" lon="14.027885316963658"><ele>596.0</ele><time>2026-04-30T08:51:39Z</time></trkpt><trkpt lat="37.57536208860042" lon="14.027804415965157"><ele>596.0</ele><time>2026-04-30T08:51:40Z</time></trkpt><trkpt lat="37.575373790741196" lon="14.027707910556568"><ele>604.6</ele><time>2026-04-30T08:51:41Z</time></trkpt><trkpt lat="37.575386665327" lon="14.027592047173437"><ele>613.2</ele><time>2026-04-30T08:51:42Z</time></trkpt><trkpt lat="37.57539832523606" lon="14.027464543585058"><ele>621.8</ele><time>2026-04-30T08:51:43Z</time></trkpt><trkpt lat="37.575412663658575" lon="14.027335556534542"><ele>630.4</ele><time>2026-04-30T08:51:44Z</time></trkpt><trkpt lat="37.57543987925582" lon="14.027202120208608"><ele>639.0</ele><time>2026-04-30T08:51:45Z</time></trkpt><trkpt lat="37.575479414224404" lon="14.027054614165756"><ele>639.0</ele><time>2026-04-30T08:51:46Z</time></trkpt><trkpt lat="37.57552351142769" lon="14.02690581191326"><ele>639.0</ele><time>2026-04-30T08:51:47Z</time></trkpt><trkpt lat="37.575564043296744" lon="14.026774896923245"><ele>639.0</ele><time>2026-04-30T08:51:48Z</time></trkpt><trkpt lat="37.57560322203669" lon="14.026650207332521"><ele>639.0</ele><time>2026-04-30T08:51:49Z</time></trkpt><trkpt lat="37.57563753250185" lon="14.026532664994496"><ele>639.0</ele><time>2026-04-30T08:51:50Z</time></trkpt><trkpt lat="37.5756679852424" lon="14.026436767018458"><ele>639.0000000000001</ele><time>2026-04-30T08:51:51Z</time></trkpt><trkpt lat="37.575696600736876" lon="14.026349667721215"><ele>639.0</ele><time>2026-04-30T08:51:52Z</time></trkpt><trkpt lat="37.57572250037588" lon="14.026277122560337"><ele>639.0</ele><time>2026-04-30T08:51:53Z</time></trkpt><trkpt lat="37.57574584912511" lon="14.026175462458632"><ele>639.0</ele><time>2026-04-30T08:51:54Z</time></trkpt><trkpt lat="37.575760611864446" lon="14.02606907578444"><ele>639.0</ele><time>2026-04-30T08:51:55Z</time></trkpt><trkpt lat="37.57576018776462" lon="14.02598397311472"><ele>639.0000000000001</ele><time>2026-04-30T08:51:56Z</time></trkpt><trkpt lat="37.575768577393184" lon="14.025893952953414"><ele>639.0</ele><time>2026-04-30T08:51:57Z</time></trkpt><trkpt lat="37.575804093960976" lon="14.025780612011152"><ele>639.5</ele><time>2026-04-30T08:51:58Z</time></trkpt><trkpt lat="37.57585064108543" lon="14.025649740419762"><ele>640.0</ele><time>2026-04-30T08:51:59Z</time></trkpt><trkpt lat="37.57589703327446" lon="14.025511714002862"><ele>640.5</ele><time>2026-04-30T08:52:00Z</time></trkpt><trkpt lat="37.57593712021325" lon="14.025377558037768"><ele>641.0</ele><time>2026-04-30T08:52:01Z</time></trkpt><trkpt lat="37.57596157179771" lon="14.025244889134074"><ele>641.0</ele><time>2026-04-30T08:52:02Z</time></trkpt><trkpt lat="37.575987507424145" lon="14.025116364163868"><ele>641.0</ele><time>2026-04-30T08:52:03Z</time></trkpt><trkpt lat="37.576016428211744" lon="14.024991594618289"><ele>641.0</ele><time>2026-04-30T08:52:04Z</time></trkpt><trkpt lat="37.57604617154912" lon="14.024862343411137"><ele>641.0</ele><time>2026-04-30T08:52:05Z</time></trkpt><trkpt lat="37.5760754410071" lon="14.024729384622646"><ele>641.0</ele><time>2026-04-30T08:52:06Z</time></trkpt><trkpt lat="37.57609551018705" lon="14.024628329156096"><ele>641.8333333333333</ele><time>2026-04-30T08:52:07Z</time></trkpt><trkpt lat="37.57611732688113" lon="14.024544167711793"><ele>642.6666666666666</ele><time>2026-04-30T08:52:08Z</time></trkpt><trkpt lat="37.5761306943111" lon="14.02445501936006"><ele>643.5</ele><time>2026-04-30T08:52:09Z</time></trkpt><trkpt lat="37.57614062486914" lon="14.024354999100465"><ele>644.3333333333334</ele><time>2026-04-30T08:52:10Z</time></trkpt><trkpt lat="37.576157863236816" lon="14.024245422866851"><ele>645.1666666666667</ele><time>2026-04-30T08:52:11Z</time></trkpt><trkpt lat="37.57617576947997" lon="14.024139888016952"><ele>646.0</ele><time>2026-04-30T08:52:12Z</time></trkpt><trkpt lat="37.57618836047371" lon="14.024049261721824"><ele>652.3333333333334</ele><time>2026-04-30T08:52:13Z</time></trkpt><trkpt lat="37.57619886675223" lon="14.023943821199028"><ele>658.6666666666667</ele><time>2026-04-30T08:52:14Z</time></trkpt><trkpt lat="37.57621343043399" lon="14.023835701134123"><ele>665.0</ele><time>2026-04-30T08:52:15Z</time></trkpt><trkpt lat="37.576234793364534" lon="14.023739045103488"><ele>671.3333333333334</ele><time>2026-04-30T08:52:16Z</time></trkpt><trkpt lat="37.57626761989008" lon="14.02365954459462"><ele>677.6666666666666</ele><time>2026-04-30T08:52:17Z</time></trkpt><trkpt lat="37.57630605926044" lon="14.023561666840358"><ele>684.0</ele><time>2026-04-30T08:52:18Z</time></trkpt><trkpt lat="37.57634510319637" lon="14.02340188015282"><ele>683.8000000000001</ele><time>2026-04-30T08:52:19Z</time></trkpt><trkpt lat="37.57637985060712" lon="14.023243267565809"><ele>683.6</ele><time>2026-04-30T08:52:20Z</time></trkpt><trkpt lat="37.576393342050984" lon="14.023106200714997"><ele>683.4</ele><time>2026-04-30T08:52:21Z</time></trkpt><trkpt lat="37.576396106494975" lon="14.022990224769194"><ele>683.2</ele><time>2026-04-30T08:52:22Z</time></trkpt><trkpt lat="37.576410915812374" lon="14.022882103549483"><ele>683.0</ele><time>2026-04-30T08:52:23Z</time></trkpt><trkpt lat="37.576446500544264" lon="14.022773245520227"><ele>683.0</ele><time>2026-04-30T08:52:24Z</time></trkpt><trkpt lat="37.57649886869526" lon="14.022662286413075"><ele>683.0</ele><time>2026-04-30T08:52:25Z</time></trkpt><trkpt lat="37.576542045336936" lon="14.022561004663846"><ele>683.0</ele><time>2026-04-30T08:52:26Z</time></trkpt><trkpt lat="37.576555557515206" lon="14.022454604816462"><ele>683.0</ele><time>2026-04-30T08:52:27Z</time></trkpt><trkpt lat="37.576550041944756" lon="14.022330261555053"><ele>683.0</ele><time>2026-04-30T08:52:28Z</time></trkpt><trkpt lat="37.57654796871518" lon="14.022206381652445"><ele>683.5999999999999</ele><time>2026-04-30T08:52:29Z</time></trkpt><trkpt lat="37.576554343626626" lon="14.022117483941466"><ele>684.1999999999999</ele><time>2026-04-30T08:52:30Z</time></trkpt><trkpt lat="37.57659094088991" lon="14.022037728782037"><ele>684.8</ele><time>2026-04-30T08:52:31Z</time></trkpt><trkpt lat="37.576636244870656" lon="14.021954015079636"><ele>685.4</ele><time>2026-04-30T08:52:32Z</time></trkpt><trkpt lat="37.57671995296972" lon="14.021831911548905"><ele>686.0</ele><time>2026-04-30T08:52:34Z</time></trkpt><trkpt lat="37.576771652058085" lon="14.02172101183647"><ele>686.4</ele><time>2026-04-30T08:52:35Z</time></trkpt><trkpt lat="37.57682356152276" lon="14.02159822325671"><ele>686.8</ele><time>2026-04-30T08:52:36Z</time></trkpt><trkpt lat="37.57685476189202" lon="14.021495011847614"><ele>687.1999999999999</ele><time>2026-04-30T08:52:37Z</time></trkpt><trkpt lat="37.57687464392615" lon="14.021395777588165"><ele>687.5999999999999</ele><time>2026-04-30T08:52:38Z</time></trkpt><trkpt lat="37.57689707172666" lon="14.021269904570467"><ele>688.0</ele><time>2026-04-30T08:52:39Z</time></trkpt><trkpt lat="37.57691609416235" lon="14.021154924794383"><ele>688.0</ele><time>2026-04-30T08:52:40Z</time></trkpt><trkpt lat="37.57695997248155" lon="14.021059537369608"><ele>688.0</ele><time>2026-04-30T08:52:41Z</time></trkpt><trkpt lat="37.577019822879336" lon="14.02100118958453"><ele>688.0</ele><time>2026-04-30T08:52:42Z</time></trkpt><trkpt lat="37.5770936535475" lon="14.020943794268167"><ele>688.0</ele><time>2026-04-30T08:52:43Z</time></trkpt><trkpt lat="37.577156031909304" lon="14.020852917707105"><ele>688.0</ele><time>2026-04-30T08:52:44Z</time></trkpt><trkpt lat="37.57720051825263" lon="14.020749582347275"><ele>688.0</ele><time>2026-04-30T08:52:45Z</time></trkpt><trkpt lat="37.57723247111767" lon="14.020640487822734"><ele>693.0</ele><time>2026-04-30T08:52:46Z</time></trkpt><trkpt lat="37.577244104058934" lon="14.020543528276264"><ele>698.0</ele><time>2026-04-30T08:52:47Z</time></trkpt><trkpt lat="37.57724640567341" lon="14.020442816142063"><ele>703.0</ele><time>2026-04-30T08:52:48Z</time></trkpt><trkpt lat="37.57725049062832" lon="14.020352418957613"><ele>708.0</ele><time>2026-04-30T08:52:49Z</time></trkpt><trkpt lat="37.577263665758814" lon="14.020255960973342"><ele>713.0</ele><time>2026-04-30T08:52:50Z</time></trkpt><trkpt lat="37.5772876243085" lon="14.020171698021187"><ele>718.0</ele><time>2026-04-30T08:52:51Z</time></trkpt><trkpt lat="37.57731411138943" lon="14.020083244465743"><ele>719.3333333333334</ele><time>2026-04-30T08:52:52Z</time></trkpt><trkpt lat="37.577342642400545" lon="14.01997432076074"><ele>720.6666666666667</ele><time>2026-04-30T08:52:53Z</time></trkpt><trkpt lat="37.577363587324115" lon="14.019877500266135"><ele>722.0</ele><time>2026-04-30T08:52:54Z</time></trkpt><trkpt lat="37.577393397454294" lon="14.019767094265775"><ele>723.3333333333334</ele><time>2026-04-30T08:52:55Z</time></trkpt><trkpt lat="37.57741776028987" lon="14.019648631634741"><ele>724.6666666666666</ele><time>2026-04-30T08:52:56Z</time></trkpt><trkpt lat="37.57743063842103" lon="14.019539467534642"><ele>726.0</ele><time>2026-04-30T08:52:57Z</time></trkpt><trkpt lat="37.57741441407633" lon="14.019435100304912"><ele>726.0</ele><time>2026-04-30T08:52:58Z</time></trkpt><trkpt lat="37.57739147445631" lon="14.019351622561016"><ele>726.0</ele><time>2026-04-30T08:52:59Z</time></trkpt><trkpt lat="37.57737249277354" lon="14.019275335763847"><ele>726.0</ele><time>2026-04-30T08:53:00Z</time></trkpt><trkpt lat="37.57736581347008" lon="14.019186576511778"><ele>726.0</ele><time>2026-04-30T08:53:01Z</time></trkpt><trkpt lat="37.577363141675775" lon="14.019091363126652"><ele>726.0</ele><time>2026-04-30T08:53:02Z</time></trkpt><trkpt lat="37.57736240158821" lon="14.018985886377752"><ele>726.0</ele><time>2026-04-30T08:53:03Z</time></trkpt><trkpt lat="37.5773602160416" lon="14.018873736488187"><ele>727.6666666666666</ele><time>2026-04-30T08:53:04Z</time></trkpt><trkpt lat="37.577356772544924" lon="14.018747731047519"><ele>729.3333333333334</ele><time>2026-04-30T08:53:05Z</time></trkpt><trkpt lat="37.57735201493433" lon="14.018619552924694"><ele>731.0</ele><time>2026-04-30T08:53:06Z</time></trkpt><trkpt lat="37.577353388041104" lon="14.018513085842299"><ele>732.6666666666667</ele><time>2026-04-30T08:53:07Z</time></trkpt><trkpt lat="37.577357058419864" lon="14.01841851150596"><ele>734.3333333333334</ele><time>2026-04-30T08:53:08Z</time></trkpt><trkpt lat="37.57736971826413" lon="14.01832786584773"><ele>736.0</ele><time>2026-04-30T08:53:09Z</time></trkpt><trkpt lat="37.5773954821933" lon="14.018244734333404"><ele>736.4285714285714</ele><time>2026-04-30T08:53:10Z</time></trkpt><trkpt lat="37.57743219709078" lon="14.018159535259613"><ele>736.8571428571428</ele><time>2026-04-30T08:53:11Z</time></trkpt><trkpt lat="37.577462852701885" lon="14.018081355974743"><ele>737.2857142857142</ele><time>2026-04-30T08:53:12Z</time></trkpt><trkpt lat="37.57749484203083" lon="14.01800607363829"><ele>737.7142857142858</ele><time>2026-04-30T08:53:13Z</time></trkpt><trkpt lat="37.577533842462344" lon="14.017921101265676"><ele>738.1428571428571</ele><time>2026-04-30T08:53:14Z</time></trkpt><trkpt lat="37.57757382301039" lon="14.017843519308563"><ele>738.5714285714286</ele><time>2026-04-30T08:53:15Z</time></trkpt><trkpt lat="37.577616004991825" lon="14.017762445476412"><ele>739.0</ele><time>2026-04-30T08:53:16Z</time></trkpt><trkpt lat="37.57765554185449" lon="14.017686115639938"><ele>739.0</ele><time>2026-04-30T08:53:17Z</time></trkpt><trkpt lat="37.57769306940262" lon="14.017615680792794"><ele>739.0</ele><time>2026-04-30T08:53:18Z</time></trkpt><trkpt lat="37.57773053417829" lon="14.017540292071002"><ele>739.0</ele><time>2026-04-30T08:53:19Z</time></trkpt><trkpt lat="37.57776950694794" lon="14.017447022240486"><ele>739.0</ele><time>2026-04-30T08:53:20Z</time></trkpt><trkpt lat="37.57779595344551" lon="14.01734664038954"><ele>739.0</ele><time>2026-04-30T08:53:21Z</time></trkpt><trkpt lat="37.57781629369376" lon="14.017242109716276"><ele>739.0</ele><time>2026-04-30T08:53:22Z</time></trkpt><trkpt lat="37.57784299166185" lon="14.01713996837409"><ele>744.8000000000001</ele><time>2026-04-30T08:53:23Z</time></trkpt><trkpt lat="37.577872824980574" lon="14.01705179308156"><ele>750.6</ele><time>2026-04-30T08:53:24Z</time></trkpt><trkpt lat="37.57791702462033" lon="14.01694935545571"><ele>756.4</ele><time>2026-04-30T08:53:25Z</time></trkpt><trkpt lat="37.57797394655036" lon="14.016852256520103"><ele>762.2</ele><time>2026-04-30T08:53:26Z</time></trkpt><trkpt lat="37.57803885418527" lon="14.016762575453601"><ele>768.0</ele><time>2026-04-30T08:53:27Z</time></trkpt><trkpt lat="37.57808308717601" lon="14.016651410635689"><ele>768.3333333333334</ele><time>2026-04-30T08:53:28Z</time></trkpt><trkpt lat="37.57810076061532" lon="14.01653794046986"><ele>768.6666666666667</ele><time>2026-04-30T08:53:29Z</time></trkpt><trkpt lat="37.5781063707681" lon="14.01642761279186"><ele>769.0</ele><time>2026-04-30T08:53:30Z</time></trkpt><trkpt lat="37.57813388504994" lon="14.016321996653103"><ele>769.3333333333334</ele><time>2026-04-30T08:53:31Z</time></trkpt><trkpt lat="37.578192412506226" lon="14.016241482361602"><ele>769.6666666666667</ele><time>2026-04-30T08:53:32Z</time></trkpt><trkpt lat="37.57824472762135" lon="14.016189106674938"><ele>770.0</ele><time>2026-04-30T08:53:33Z</time></trkpt><trkpt lat="37.5782917085152" lon="14.016071973103235"><ele>770.0</ele><time>2026-04-30T08:53:35Z</time></trkpt><trkpt lat="37.57832534576651" lon="14.01592801843775"><ele>770.0</ele><time>2026-04-30T08:53:37Z</time></trkpt><trkpt lat="37.57834541653484" lon="14.015775213906608"><ele>770.0</ele><time>2026-04-30T08:53:39Z</time></trkpt><trkpt lat="37.57832965431989" lon="14.01566555094457"><ele>770.0</ele><time>2026-04-30T08:53:40Z</time></trkpt><trkpt lat="37.578298105466615" lon="14.015580012874672"><ele>770.0</ele><time>2026-04-30T08:53:41Z</time></trkpt><trkpt lat="37.57826119220843" lon="14.015463566548862"><ele>770.0</ele><time>2026-04-30T08:53:43Z</time></trkpt><trkpt lat="37.57833622396865" lon="14.015421983513056"><ele>770.0</ele><time>2026-04-30T08:53:46Z</time></trkpt><trkpt lat="37.57840610816206" lon="14.015538477293315"><ele>770.0</ele><time>2026-04-30T08:53:48Z</time></trkpt><trkpt lat="37.57842765692771" lon="14.015642299755065"><ele>770.0</ele><time>2026-04-30T08:53:49Z</time></trkpt><trkpt lat="37.57845293195198" lon="14.015774628171966"><ele>770.0</ele><time>2026-04-30T08:53:50Z</time></trkpt><trkpt lat="37.578476219666875" lon="14.01591435964818"><ele>770.0</ele><time>2026-04-30T08:53:51Z</time></trkpt><trkpt lat="37.57851105640852" lon="14.016060408148888"><ele>770.0</ele><time>2026-04-30T08:53:52Z</time></trkpt><trkpt lat="37.57857026644042" lon="14.016208547427683"><ele>770.0</ele><time>2026-04-30T08:53:53Z</time></trkpt><trkpt lat="37.57863451242951" lon="14.016353104955373"><ele>770.0</ele><time>2026-04-30T08:53:54Z</time></trkpt><trkpt lat="37.578686405818" lon="14.016495807055797"><ele>771.6</ele><time>2026-04-30T08:53:55Z</time></trkpt><trkpt lat="37.57872193621367" lon="14.016646498812522"><ele>773.2</ele><time>2026-04-30T08:53:56Z</time></trkpt><trkpt lat="37.57875095120908" lon="14.016778856669848"><ele>774.8</ele><time>2026-04-30T08:53:57Z</time></trkpt><trkpt lat="37.57878397740803" lon="14.016886238862293"><ele>776.4</ele><time>2026-04-30T08:53:58Z</time></trkpt><trkpt lat="37.5788434677149" lon="14.016995752455728"><ele>778.0</ele><time>2026-04-30T08:54:00Z</time></trkpt><trkpt lat="37.578932701516166" lon="14.016968515788607"><ele>777.9999999999999</ele><time>2026-04-30T08:54:02Z</time></trkpt><trkpt lat="37.578968922297705" lon="14.016899501932546"><ele>778.0</ele><time>2026-04-30T08:54:03Z</time></trkpt><trkpt lat="37.57901147322086" lon="14.016816225394969"><ele>778.0</ele><time>2026-04-30T08:54:04Z</time></trkpt><trkpt lat="37.57905869096243" lon="14.016759743949793"><ele>778.0</ele><time>2026-04-30T08:54:05Z</time></trkpt><trkpt lat="37.57911449446453" lon="14.016699273786974"><ele>777.9999999999999</ele><time>2026-04-30T08:54:06Z</time></trkpt><trkpt lat="37.57918126143811" lon="14.016590451016855"><ele>778.0</ele><time>2026-04-30T08:54:07Z</time></trkpt><trkpt lat="37.57923334319926" lon="14.01646318029347"><ele>780.0</ele><time>2026-04-30T08:54:08Z</time></trkpt><trkpt lat="37.57925561819727" lon="14.016328118798693"><ele>782.0</ele><time>2026-04-30T08:54:09Z</time></trkpt><trkpt lat="37.57926717331957" lon="14.01617705254021"><ele>784.0</ele><time>2026-04-30T08:54:10Z</time></trkpt><trkpt lat="37.57928893085559" lon="14.016035040844152"><ele>786.0</ele><time>2026-04-30T08:54:11Z</time></trkpt><trkpt lat="37.57930762592723" lon="14.015911571446228"><ele>788.0</ele><time>2026-04-30T08:54:12Z</time></trkpt><trkpt lat="37.57933054379522" lon="14.01581822272151"><ele>786.5</ele><time>2026-04-30T08:54:13Z</time></trkpt><trkpt lat="37.57939909932958" lon="14.01565761453208"><ele>785.0</ele><time>2026-04-30T08:54:15Z</time></trkpt><trkpt lat="37.57945032911217" lon="14.015546333700222"><ele>783.5</ele><time>2026-04-30T08:54:16Z</time></trkpt><trkpt lat="37.5795027849257" lon="14.015417188756857"><ele>782.0</ele><time>2026-04-30T08:54:17Z</time></trkpt><trkpt lat="37.57955406789039" lon="14.015276329824154"><ele>782.0</ele><time>2026-04-30T08:54:18Z</time></trkpt><trkpt lat="37.579598834654185" lon="14.015122910549946"><ele>782.0</ele><time>2026-04-30T08:54:19Z</time></trkpt><trkpt lat="37.57962751224637" lon="14.014980444868224"><ele>782.0</ele><time>2026-04-30T08:54:20Z</time></trkpt><trkpt lat="37.57964571783335" lon="14.01487157662721"><ele>782.0</ele><time>2026-04-30T08:54:21Z</time></trkpt><trkpt lat="37.57965818695316" lon="14.014760362402567"><ele>782.0</ele><time>2026-04-30T08:54:22Z</time></trkpt><trkpt lat="37.57967673254548" lon="14.014640776863825"><ele>788.0000000000001</ele><time>2026-04-30T08:54:23Z</time></trkpt><trkpt lat="37.5797157285692" lon="14.014539071900026"><ele>794.0</ele><time>2026-04-30T08:54:24Z</time></trkpt><trkpt lat="37.57977254013651" lon="14.014470690349002"><ele>800.0</ele><time>2026-04-30T08:54:25Z</time></trkpt><trkpt lat="37.57984118353245" lon="14.014405442117704"><ele>806.0</ele><time>2026-04-30T08:54:26Z</time></trkpt><trkpt lat="37.579914786188304" lon="14.014328278220932"><ele>812.0000000000001</ele><time>2026-04-30T08:54:27Z</time></trkpt><trkpt lat="37.579980464498846" lon="14.014252057424653"><ele>818.0</ele><time>2026-04-30T08:54:28Z</time></trkpt><trkpt lat="37.58002990166329" lon="14.014192872979251"><ele>819.0</ele><time>2026-04-30T08:54:29Z</time></trkpt><trkpt lat="37.580077170246646" lon="14.014139226242683"><ele>820.0</ele><time>2026-04-30T08:54:30Z</time></trkpt><trkpt lat="37.58012661719157" lon="14.014075729840972"><ele>821.0</ele><time>2026-04-30T08:54:31Z</time></trkpt><trkpt lat="37.58016939007844" lon="14.014002426821685"><ele>822.0</ele><time>2026-04-30T08:54:32Z</time></trkpt><trkpt lat="37.58020362463437" lon="14.01393060135799"><ele>823.0</ele><time>2026-04-30T08:54:33Z</time></trkpt><trkpt lat="37.580244172468895" lon="14.013824301604116"><ele>824.0</ele><time>2026-04-30T08:54:35Z</time></trkpt><trkpt lat="37.58027197321446" lon="14.013743320495953"><ele>825.0</ele><time>2026-04-30T08:54:38Z</time></trkpt><trkpt lat="37.58027826190958" lon="14.013640703037694"><ele>825.0</ele><time>2026-04-30T08:54:41Z</time></trkpt><trkpt lat="37.58027478897615" lon="14.013515881192014"><ele>825.0</ele><time>2026-04-30T08:54:44Z</time></trkpt><trkpt lat="37.58027779825599" lon="14.013419319394457"><ele>825.0</ele><time>2026-04-30T08:54:46Z</time></trkpt><trkpt lat="37.5803149945723" lon="14.013325169397731"><ele>825.0</ele><time>2026-04-30T08:54:48Z</time></trkpt><trkpt lat="37.58039913596775" lon="14.01321461657699"><ele>825.0</ele><time>2026-04-30T08:54:50Z</time></trkpt><trkpt lat="37.58049446609994" lon="14.01315989891267"><ele>825.1666666666666</ele><time>2026-04-30T08:54:52Z</time></trkpt><trkpt lat="37.58056026650531" lon="14.01314278374019"><ele>825.3333333333333</ele><time>2026-04-30T08:54:54Z</time></trkpt><trkpt lat="37.58061616415511" lon="14.013069405487327"><ele>825.5</ele><time>2026-04-30T08:57:28Z</time></trkpt><trkpt lat="37.58055691275542" lon="14.012981980770205"><ele>825.6666666666666</ele><time>2026-04-30T08:57:31Z</time></trkpt><trkpt lat="37.580486258476746" lon="14.012923152231032"><ele>825.8333333333333</ele><time>2026-04-30T08:57:34Z</time></trkpt><trkpt lat="37.580451545028396" lon="14.01285504618049"><ele>826.0</ele><time>2026-04-30T08:57:36Z</time></trkpt><trkpt lat="37.58042384771176" lon="14.012779090443797"><ele>825.9999999999999</ele><time>2026-04-30T08:57:38Z</time></trkpt><trkpt lat="37.580398145423786" lon="14.012702232583162"><ele>826.0</ele><time>2026-04-30T08:57:40Z</time></trkpt><trkpt lat="37.580365628333944" lon="14.01259184230555"><ele>826.0</ele><time>2026-04-30T08:57:42Z</time></trkpt><trkpt lat="37.58033368164172" lon="14.012476479629635"><ele>826.0</ele><time>2026-04-30T08:57:44Z</time></trkpt><trkpt lat="37.580307048390004" lon="14.012368857675591"><ele>825.9999999999999</ele><time>2026-04-30T08:57:46Z</time></trkpt><trkpt lat="37.580279018413385" lon="14.01226719288859"><ele>826.0</ele><time>2026-04-30T08:57:48Z</time></trkpt><trkpt lat="37.58024968020638" lon="14.012131886436304"><ele>825.1999999999999</ele><time>2026-04-30T08:57:50Z</time></trkpt><trkpt lat="37.58023196732604" lon="14.01203052572871"><ele>824.4</ele><time>2026-04-30T08:57:52Z</time></trkpt><trkpt lat="37.580215825655344" lon="14.011933144440812"><ele>823.6</ele><time>2026-04-30T08:57:54Z</time></trkpt><trkpt lat="37.58019271360879" lon="14.011784645892403"><ele>822.8</ele><time>2026-04-30T08:57:56Z</time></trkpt><trkpt lat="37.58016984667928" lon="14.011634321593595"><ele>822.0</ele><time>2026-04-30T08:57:58Z</time></trkpt><trkpt lat="37.580140650292186" lon="14.011472563111969"><ele>820.5</ele><time>2026-04-30T08:58:00Z</time></trkpt><trkpt lat="37.58011053368248" lon="14.011348977892132"><ele>819.0</ele><time>2026-04-30T08:58:02Z</time></trkpt><trkpt lat="37.58008996485211" lon="14.011264578627104"><ele>817.5</ele><time>2026-04-30T08:58:04Z</time></trkpt><trkpt lat="37.58008681286412" lon="14.011176447258702"><ele>816.0</ele><time>2026-04-30T08:58:07Z</time></trkpt><trkpt lat="37.580060345372786" lon="14.011094169406762"><ele>814.5</ele><time>2026-04-30T08:58:09Z</time></trkpt><trkpt lat="37.58002306687313" lon="14.010994147126723"><ele>813.0</ele><time>2026-04-30T08:58:12Z</time></trkpt><trkpt lat="37.57999141514519" lon="14.010909610299821"><ele>813.0</ele><time>2026-04-30T08:58:15Z</time></trkpt><trkpt lat="37.57996892736456" lon="14.010827337840874"><ele>813.0</ele><time>2026-04-30T08:58:44Z</time></trkpt><trkpt lat="37.57994731082026" lon="14.010733729390479"><ele>813.0</ele><time>2026-04-30T08:58:49Z</time></trkpt><trkpt lat="37.57994529553845" lon="14.010644529086667"><ele>813.0</ele><time>2026-04-30T08:58:53Z</time></trkpt><trkpt lat="37.579923939317325" lon="14.010563647656829"><ele>813.0</ele><time>2026-04-30T08:58:56Z</time></trkpt><trkpt lat="37.57988573410934" lon="14.010452379613618"><ele>813.0</ele><time>2026-04-30T08:59:41Z</time></trkpt><trkpt lat="37.57988201439617" lon="14.01033953539971"><ele>809.8571428571429</ele><time>2026-04-30T09:01:12Z</time></trkpt><trkpt lat="37.579870884036886" lon="14.01023806643503"><ele>806.7142857142857</ele><time>2026-04-30T09:01:15Z</time></trkpt><trkpt lat="37.57985750066662" lon="14.010158758460285"><ele>803.5714285714286</ele><time>2026-04-30T09:01:17Z</time></trkpt><trkpt lat="37.57989116286014" lon="14.010084066615459"><ele>800.4285714285714</ele><time>2026-04-30T09:01:21Z</time></trkpt><trkpt lat="37.5799238395803" lon="14.010009870291317"><ele>797.2857142857142</ele><time>2026-04-30T09:01:23Z</time></trkpt><trkpt lat="37.57996498131787" lon="14.00992118806007"><ele>794.1428571428571</ele><time>2026-04-30T09:01:25Z</time></trkpt><trkpt lat="37.57997026759195" lon="14.009838090676851"><ele>791.0</ele><time>2026-04-30T09:01:27Z</time></trkpt><trkpt lat="37.57997994637017" lon="14.00973183703003"><ele>791.0000000000001</ele><time>2026-04-30T09:01:31Z</time></trkpt><trkpt lat="37.57999075048892" lon="14.009627650303695"><ele>791.0</ele><time>2026-04-30T09:01:34Z</time></trkpt><trkpt lat="37.58000139530899" lon="14.009508064841118"><ele>791.0</ele><time>2026-04-30T09:01:37Z</time></trkpt><trkpt lat="37.58002147441049" lon="14.009430323468735"><ele>791.0</ele><time>2026-04-30T09:01:39Z</time></trkpt><trkpt lat="37.58005078393674" lon="14.00935409122842"><ele>791.0000000000001</ele><time>2026-04-30T09:01:41Z</time></trkpt><trkpt lat="37.580065558017814" lon="14.009243459659396"><ele>791.0</ele><time>2026-04-30T09:01:44Z</time></trkpt><trkpt lat="37.58006534770959" lon="14.009145009626378"><ele>791.0</ele><time>2026-04-30T09:01:46Z</time></trkpt><trkpt lat="37.58006392537155" lon="14.009037115600616"><ele>791.0</ele><time>2026-04-30T09:01:48Z</time></trkpt><trkpt lat="37.58008557838052" lon="14.008912398768087"><ele>791.0</ele><time>2026-04-30T09:01:50Z</time></trkpt><trkpt lat="37.580089517680534" lon="14.00878094067013"><ele>791.0</ele><time>2026-04-30T09:01:52Z</time></trkpt><trkpt lat="37.58010624952512" lon="14.008632228122327"><ele>791.0</ele><time>2026-04-30T09:01:54Z</time></trkpt><trkpt lat="37.5801172827507" lon="14.008549692677402"><ele>791.0000000000001</ele><time>2026-04-30T09:01:55Z</time></trkpt><trkpt lat="37.58012181293406" lon="14.008463870140138"><ele>791.0</ele><time>2026-04-30T09:01:56Z</time></trkpt><trkpt lat="37.58012436469843" lon="14.008350679618202"><ele>791.0</ele><time>2026-04-30T09:01:58Z</time></trkpt><trkpt lat="37.58011877697957" lon="14.008236398573265"><ele>791.0</ele><time>2026-04-30T09:02:00Z</time></trkpt><trkpt lat="37.58011145269684" lon="14.008150350005435"><ele>791.0000000000001</ele><time>2026-04-30T09:02:02Z</time></trkpt><trkpt lat="37.58008807539024" lon="14.008063662625512"><ele>791.0</ele><time>2026-04-30T09:02:23Z</time></trkpt><trkpt lat="37.580037790976945" lon="14.007988916406076"><ele>788.8571428571429</ele><time>2026-04-30T09:02:26Z</time></trkpt><trkpt lat="37.58001723413237" lon="14.007910209335407"><ele>786.7142857142858</ele><time>2026-04-30T09:02:28Z</time></trkpt><trkpt lat="37.58000165002702" lon="14.007830680706677"><ele>784.5714285714286</ele><time>2026-04-30T09:02:30Z</time></trkpt><trkpt lat="37.57997699685829" lon="14.007752921225249"><ele>782.4285714285714</ele><time>2026-04-30T09:02:32Z</time></trkpt><trkpt lat="37.57996396589481" lon="14.007661920112842"><ele>780.2857142857143</ele><time>2026-04-30T09:02:34Z</time></trkpt><trkpt lat="37.57995635938974" lon="14.007566278982166"><ele>778.1428571428571</ele><time>2026-04-30T09:02:36Z</time></trkpt><trkpt lat="37.57995116470703" lon="14.007468259543794"><ele>776.0</ele><time>2026-04-30T09:02:38Z</time></trkpt><trkpt lat="37.57996312761293" lon="14.00730259491667"><ele>771.8</ele><time>2026-04-30T09:02:40Z</time></trkpt><trkpt lat="37.57997892362792" lon="14.007173033243223"><ele>767.5999999999999</ele><time>2026-04-30T09:02:41Z</time></trkpt><trkpt lat="37.579994821199726" lon="14.007038382346716"><ele>763.4</ele><time>2026-04-30T09:02:42Z</time></trkpt><trkpt lat="37.580011497324335" lon="14.006908834910686"><ele>759.2</ele><time>2026-04-30T09:02:43Z</time></trkpt><trkpt lat="37.5800283851976" lon="14.00678163111601"><ele>755.0</ele><time>2026-04-30T09:02:44Z</time></trkpt><trkpt lat="37.580046380207115" lon="14.00664879545317"><ele>751.75</ele><time>2026-04-30T09:02:45Z</time></trkpt><trkpt lat="37.580067326448564" lon="14.006511271389423"><ele>748.5</ele><time>2026-04-30T09:02:46Z</time></trkpt><trkpt lat="37.5800913305884" lon="14.006364651567846"><ele>745.25</ele><time>2026-04-30T09:02:47Z</time></trkpt><trkpt lat="37.58011407824283" lon="14.00621484968348"><ele>742.0</ele><time>2026-04-30T09:02:48Z</time></trkpt><trkpt lat="37.580134480509436" lon="14.006061005908569"><ele>742.0</ele><time>2026-04-30T09:02:49Z</time></trkpt><trkpt lat="37.580157276639504" lon="14.005910534099362"><ele>742.0</ele><time>2026-04-30T09:02:50Z</time></trkpt><trkpt lat="37.580181606679034" lon="14.005754416967735"><ele>742.0</ele><time>2026-04-30T09:02:50.999Z</time></trkpt><trkpt lat="37.580203417392035" lon="14.005602889825965"><ele>742.0</ele><time>2026-04-30T09:02:51.999Z</time></trkpt><trkpt lat="37.5802244045254" lon="14.005442362634929"><ele>739.5</ele><time>2026-04-30T09:02:52.999Z</time></trkpt><trkpt lat="37.580245046777655" lon="14.005279998901107"><ele>737.0</ele><time>2026-04-30T09:02:53.999Z</time></trkpt><trkpt lat="37.58026377719374" lon="14.005117603702676"><ele>734.5</ele><time>2026-04-30T09:02:54.999Z</time></trkpt><trkpt lat="37.580286768990774" lon="14.004949743392709"><ele>732.0</ele><time>2026-04-30T09:02:55.999Z</time></trkpt><trkpt lat="37.580312116801906" lon="14.004783987597822"><ele>729.75</ele><time>2026-04-30T09:02:56.999Z</time></trkpt><trkpt lat="37.58033681730571" lon="14.00462169950218"><ele>727.5</ele><time>2026-04-30T09:02:57.999Z</time></trkpt><trkpt lat="37.58036325115195" lon="14.004454167082503"><ele>725.25</ele><time>2026-04-30T09:02:58.999Z</time></trkpt><trkpt lat="37.58038467251937" lon="14.00428756955696"><ele>723.0</ele><time>2026-04-30T09:02:59.999Z</time></trkpt><trkpt lat="37.580402538074665" lon="14.004120226588041"><ele>719.5</ele><time>2026-04-30T09:03:01Z</time></trkpt><trkpt lat="37.58041611122251" lon="14.00396028596009"><ele>716.0</ele><time>2026-04-30T09:03:02Z</time></trkpt><trkpt lat="37.58042758320278" lon="14.003805981072917"><ele>712.5</ele><time>2026-04-30T09:03:03Z</time></trkpt><trkpt lat="37.58043963959292" lon="14.003642653040018"><ele>709.0</ele><time>2026-04-30T09:03:04Z</time></trkpt><trkpt lat="37.580448546812804" lon="14.003484377897745"><ele>709.0</ele><time>2026-04-30T09:03:05Z</time></trkpt><trkpt lat="37.58046032758691" lon="14.003330698063527"><ele>709.0</ele><time>2026-04-30T09:03:06Z</time></trkpt><trkpt lat="37.580476120763606" lon="14.003186845207424"><ele>709.0</ele><time>2026-04-30T09:03:07Z</time></trkpt><trkpt lat="37.580496172549644" lon="14.00304818489726"><ele>709.0</ele><time>2026-04-30T09:03:08Z</time></trkpt><trkpt lat="37.58051227473782" lon="14.002921550826024"><ele>707.6</ele><time>2026-04-30T09:03:09Z</time></trkpt><trkpt lat="37.58052132351716" lon="14.002801702585305"><ele>706.2</ele><time>2026-04-30T09:03:10Z</time></trkpt><trkpt lat="37.58052804761493" lon="14.002687208675505"><ele>704.8000000000001</ele><time>2026-04-30T09:03:11Z</time></trkpt><trkpt lat="37.58054077269862" lon="14.002572350999552"><ele>703.4000000000001</ele><time>2026-04-30T09:03:12Z</time></trkpt><trkpt lat="37.58056162129959" lon="14.002450123320102"><ele>702.0</ele><time>2026-04-30T09:03:13Z</time></trkpt><trkpt lat="37.58058388943768" lon="14.002320395897383"><ele>700.6</ele><time>2026-04-30T09:03:14Z</time></trkpt><trkpt lat="37.58060473475541" lon="14.002185074534799"><ele>699.2</ele><time>2026-04-30T09:03:15Z</time></trkpt><trkpt lat="37.580632749995615" lon="14.002045961136975"><ele>697.8</ele><time>2026-04-30T09:03:16Z</time></trkpt><trkpt lat="37.58065551270992" lon="14.001905952812224"><ele>696.4</ele><time>2026-04-30T09:03:17Z</time></trkpt><trkpt lat="37.580676549098676" lon="14.001767594879112"><ele>695.0</ele><time>2026-04-30T09:03:18Z</time></trkpt><trkpt lat="37.58069668570186" lon="14.001642041625619"><ele>695.0</ele><time>2026-04-30T09:03:19Z</time></trkpt><trkpt lat="37.58071445080845" lon="14.00154284254447"><ele>695.0</ele><time>2026-04-30T09:03:20Z</time></trkpt><trkpt lat="37.58071360732941" lon="14.001431112445943"><ele>695.0</ele><time>2026-04-30T09:03:22Z</time></trkpt><trkpt lat="37.58069675601131" lon="14.001334474433532"><ele>695.0</ele><time>2026-04-30T09:03:25Z</time></trkpt><trkpt lat="37.580730288712914" lon="14.001186002890513"><ele>695.0</ele><time>2026-04-30T09:03:27Z</time></trkpt><trkpt lat="37.58077157349245" lon="14.001099927217354"><ele>695.0</ele><time>2026-04-30T09:03:28Z</time></trkpt><trkpt lat="37.580799476677186" lon="14.000989701872287"><ele>695.0</ele><time>2026-04-30T09:03:30Z</time></trkpt><trkpt lat="37.58090954605336" lon="14.000951685912925"><ele>695.0</ele><time>2026-04-30T09:03:32Z</time></trkpt><trkpt lat="37.58101636538764" lon="14.00085725175685"><ele>695.0</ele><time>2026-04-30T09:03:34Z</time></trkpt><trkpt lat="37.58109173674657" lon="14.00080379124323"><ele>695.0</ele><time>2026-04-30T09:03:35Z</time></trkpt><trkpt lat="37.581179744545445" lon="14.000748841437606"><ele>694.0</ele><time>2026-04-30T09:03:36Z</time></trkpt><trkpt lat="37.58127146003633" lon="14.000693580749799"><ele>693.0</ele><time>2026-04-30T09:03:37Z</time></trkpt><trkpt lat="37.58135889508911" lon="14.000627990246587"><ele>692.0</ele><time>2026-04-30T09:03:38Z</time></trkpt><trkpt lat="37.5814436075148" lon="14.000560622972943"><ele>691.0</ele><time>2026-04-30T09:03:39Z</time></trkpt><trkpt lat="37.58152503236747" lon="14.000512042259135"><ele>690.0</ele><time>2026-04-30T09:03:40Z</time></trkpt><trkpt lat="37.58161346817767" lon="14.000472255783114"><ele>690.0</ele><time>2026-04-30T09:03:41Z</time></trkpt><trkpt lat="37.58170160214667" lon="14.000439367176428"><ele>690.0</ele><time>2026-04-30T09:03:42Z</time></trkpt><trkpt lat="37.58178559917061" lon="14.00039402280743"><ele>690.0</ele><time>2026-04-30T09:03:43Z</time></trkpt><trkpt lat="37.58185847207036" lon="14.000349409798055"><ele>690.0</ele><time>2026-04-30T09:03:44Z</time></trkpt><trkpt lat="37.581915723038954" lon="14.000277592250614"><ele>690.0</ele><time>2026-04-30T09:03:45Z</time></trkpt><trkpt lat="37.58198145544978" lon="14.000248874268046"><ele>690.0</ele><time>2026-04-30T09:03:46Z</time></trkpt><trkpt lat="37.58204010315979" lon="14.000214895963307"><ele>686.3333333333334</ele><time>2026-04-30T09:03:47Z</time></trkpt><trkpt lat="37.58216996407454" lon="14.000217493757292"><ele>682.6666666666666</ele><time>2026-04-30T09:03:49Z</time></trkpt><trkpt lat="37.582239467488485" lon="14.000244426932879"><ele>679.0</ele><time>2026-04-30T09:03:50Z</time></trkpt><trkpt lat="37.582310135517815" lon="14.000284363581155"><ele>675.3333333333333</ele><time>2026-04-30T09:03:51Z</time></trkpt><trkpt lat="37.58238358833798" lon="14.000339027213618"><ele>671.6666666666666</ele><time>2026-04-30T09:03:52Z</time></trkpt><trkpt lat="37.582452853182566" lon="14.000396538225232"><ele>668.0</ele><time>2026-04-30T09:03:53Z</time></trkpt><trkpt lat="37.58253206018157" lon="14.000458096751977"><ele>668.0</ele><time>2026-04-30T09:03:54Z</time></trkpt><trkpt lat="37.58260481977654" lon="14.000515264618759"><ele>668.0</ele><time>2026-04-30T09:03:55Z</time></trkpt><trkpt lat="37.58266670408526" lon="14.000568030949566"><ele>668.0</ele><time>2026-04-30T09:03:56Z</time></trkpt><trkpt lat="37.58274197426334" lon="14.000632508828224"><ele>668.0</ele><time>2026-04-30T09:03:57Z</time></trkpt><trkpt lat="37.58282374744107" lon="14.000687268871788"><ele>668.0</ele><time>2026-04-30T09:03:58Z</time></trkpt><trkpt lat="37.58289707734807" lon="14.000731840743837"><ele>668.0</ele><time>2026-04-30T09:03:59Z</time></trkpt><trkpt lat="37.582951606093474" lon="14.00078047548175"><ele>663.8333333333333</ele><time>2026-04-30T09:04:00Z</time></trkpt><trkpt lat="37.5829976909122" lon="14.000840981225528"><ele>659.6666666666666</ele><time>2026-04-30T09:04:01Z</time></trkpt><trkpt lat="37.58303619510417" lon="14.000903929856005"><ele>655.5</ele><time>2026-04-30T09:04:02Z</time></trkpt><trkpt lat="37.58306997389453" lon="14.000973627371204"><ele>651.3333333333334</ele><time>2026-04-30T09:04:03Z</time></trkpt><trkpt lat="37.583070598331325" lon="14.00106085242965"><ele>647.1666666666667</ele><time>2026-04-30T09:04:04Z</time></trkpt><trkpt lat="37.58304747977442" lon="14.001205124706686"><ele>643.0</ele><time>2026-04-30T09:04:06Z</time></trkpt><trkpt lat="37.58298421711545" lon="14.001344148027737"><ele>643.0</ele><time>2026-04-30T09:04:08Z</time></trkpt><trkpt lat="37.58295143965729" lon="14.001460609645596"><ele>643.0</ele><time>2026-04-30T09:04:09Z</time></trkpt><trkpt lat="37.58295744463182" lon="14.00158238113951"><ele>643.0</ele><time>2026-04-30T09:04:10Z</time></trkpt><trkpt lat="37.58294535840362" lon="14.001670446217076"><ele>643.0</ele><time>2026-04-30T09:04:11Z</time></trkpt><trkpt lat="37.58282183913851" lon="14.001669094241866"><ele>643.0</ele><time>2026-04-30T09:04:12Z</time></trkpt><trkpt lat="37.58275963590314" lon="14.001734847712783"><ele>643.6666666666667</ele><time>2026-04-30T09:04:13Z</time></trkpt><trkpt lat="37.582684998930795" lon="14.001811659603955"><ele>644.3333333333334</ele><time>2026-04-30T09:04:14Z</time></trkpt><trkpt lat="37.58260034045644" lon="14.001882658736406"><ele>645.0</ele><time>2026-04-30T09:04:15Z</time></trkpt><trkpt lat="37.58251896420668" lon="14.001945129982435"><ele>645.6666666666666</ele><time>2026-04-30T09:04:16Z</time></trkpt><trkpt lat="37.58245142894389" lon="14.00199129449352"><ele>646.3333333333333</ele><time>2026-04-30T09:04:17Z</time></trkpt><trkpt lat="37.58240151497344" lon="14.002062998574193"><ele>647.0</ele><time>2026-04-30T09:04:18Z</time></trkpt><trkpt lat="37.582407429664485" lon="14.002165620771978"><ele>647.0</ele><time>2026-04-30T09:04:19Z</time></trkpt><trkpt lat="37.582390514922416" lon="14.002259628227215"><ele>647.0</ele><time>2026-04-30T09:04:20Z</time></trkpt><trkpt lat="37.58236358021939" lon="14.002396102964704"><ele>647.0</ele><time>2026-04-30T09:04:21Z</time></trkpt><trkpt lat="37.58236888244647" lon="14.002550441182905"><ele>647.0</ele><time>2026-04-30T09:04:22Z</time></trkpt><trkpt lat="37.58238049432483" lon="14.002665033801913"><ele>647.0</ele><time>2026-04-30T09:04:23Z</time></trkpt><trkpt lat="37.58241869237065" lon="14.00277565396166"><ele>647.1666666666666</ele><time>2026-04-30T09:04:24Z</time></trkpt><trkpt lat="37.58243417090391" lon="14.002902653888258"><ele>647.3333333333333</ele><time>2026-04-30T09:04:25Z</time></trkpt><trkpt lat="37.582447284314945" lon="14.003015479022123"><ele>647.5</ele><time>2026-04-30T09:04:26Z</time></trkpt><trkpt lat="37.58241107479947" lon="14.003095929053417"><ele>647.6666666666666</ele><time>2026-04-30T09:04:27Z</time></trkpt><trkpt lat="37.58237260879656" lon="14.003159011914022"><ele>647.8333333333334</ele><time>2026-04-30T09:04:28Z</time></trkpt><trkpt lat="37.58232143789942" lon="14.003231731491459"><ele>648.0</ele><time>2026-04-30T09:04:29Z</time></trkpt><trkpt lat="37.58226336666186" lon="14.003333959897008"><ele>648.4</ele><time>2026-04-30T09:04:30Z</time></trkpt><trkpt lat="37.582221452939386" lon="14.003463402256951"><ele>648.8</ele><time>2026-04-30T09:04:31Z</time></trkpt><trkpt lat="37.582204517155716" lon="14.003579337646052"><ele>649.2</ele><time>2026-04-30T09:04:32Z</time></trkpt><trkpt lat="37.582234817774804" lon="14.003697520155518"><ele>649.6</ele><time>2026-04-30T09:04:33Z</time></trkpt><trkpt lat="37.58225389533184" lon="14.00383791130049"><ele>650.0</ele><time>2026-04-30T09:04:34Z</time></trkpt><trkpt lat="37.582251232708" lon="14.004000092515327"><ele>651.2</ele><time>2026-04-30T09:04:35Z</time></trkpt><trkpt lat="37.58227595710569" lon="14.004170738268042"><ele>652.4</ele><time>2026-04-30T09:04:36Z</time></trkpt><trkpt lat="37.58228911791162" lon="14.004314752512963"><ele>653.5999999999999</ele><time>2026-04-30T09:04:37Z</time></trkpt><trkpt lat="37.5823070746118" lon="14.00443705531348"><ele>654.8</ele><time>2026-04-30T09:04:38Z</time></trkpt><trkpt lat="37.582326872683225" lon="14.004556957857838"><ele>656.0</ele><time>2026-04-30T09:04:39Z</time></trkpt><trkpt lat="37.58234065428232" lon="14.00466965147451"><ele>656.0</ele><time>2026-04-30T09:04:40Z</time></trkpt><trkpt lat="37.58234803741105" lon="14.004794920917844"><ele>656.0</ele><time>2026-04-30T09:04:41Z</time></trkpt><trkpt lat="37.58235552875706" lon="14.00491882867301"><ele>656.0</ele><time>2026-04-30T09:04:42Z</time></trkpt><trkpt lat="37.58237876995298" lon="14.005036946303962"><ele>656.0</ele><time>2026-04-30T09:04:43Z</time></trkpt><trkpt lat="37.582409573715836" lon="14.00514836343101"><ele>656.0</ele><time>2026-04-30T09:04:44Z</time></trkpt><trkpt lat="37.58246461959354" lon="14.005267425599508"><ele>657.1999999999999</ele><time>2026-04-30T09:04:45Z</time></trkpt><trkpt lat="37.582533890673254" lon="14.005379977938215"><ele>658.4</ele><time>2026-04-30T09:04:46Z</time></trkpt><trkpt lat="37.582598811416496" lon="14.005483630398222"><ele>659.6</ele><time>2026-04-30T09:04:47Z</time></trkpt><trkpt lat="37.58266568727781" lon="14.005580984007965"><ele>660.8</ele><time>2026-04-30T09:04:48Z</time></trkpt><trkpt lat="37.58273397449028" lon="14.005689254032081"><ele>662.0</ele><time>2026-04-30T09:04:49Z</time></trkpt><trkpt lat="37.58280467430722" lon="14.005805896179918"><ele>660.8333333333333</ele><time>2026-04-30T09:04:50Z</time></trkpt><trkpt lat="37.582863819973" lon="14.005904082428964"><ele>659.6666666666666</ele><time>2026-04-30T09:04:51Z</time></trkpt><trkpt lat="37.582922624590346" lon="14.005999188157125"><ele>658.5</ele><time>2026-04-30T09:04:52Z</time></trkpt><trkpt lat="37.58295639345421" lon="14.006084893653428"><ele>657.3333333333334</ele><time>2026-04-30T09:04:53Z</time></trkpt><trkpt lat="37.582967018026764" lon="14.006176355587248"><ele>656.1666666666667</ele><time>2026-04-30T09:04:54Z</time></trkpt><trkpt lat="37.58294713699479" lon="14.006290261417636"><ele>655.0</ele><time>2026-04-30T09:04:55Z</time></trkpt><trkpt lat="37.58291213015128" lon="14.006431233963472"><ele>655.0</ele><time>2026-04-30T09:04:56Z</time></trkpt><trkpt lat="37.582871736536866" lon="14.006576716968276"><ele>655.0</ele><time>2026-04-30T09:04:57Z</time></trkpt><trkpt lat="37.58284187660507" lon="14.006688902011815"><ele>655.0</ele><time>2026-04-30T09:04:58Z</time></trkpt><trkpt lat="37.58284950982858" lon="14.006789466273037"><ele>655.0</ele><time>2026-04-30T09:04:59Z</time></trkpt><trkpt lat="37.58288428221042" lon="14.006870347522355"><ele>655.0</ele><time>2026-04-30T09:05:00Z</time></trkpt><trkpt lat="37.58291333907278" lon="14.006946584871962"><ele>655.0</ele><time>2026-04-30T09:05:01Z</time></trkpt><trkpt lat="37.58297961453875" lon="14.007012173305188"><ele>656.1666666666667</ele><time>2026-04-30T09:05:02Z</time></trkpt><trkpt lat="37.583074285039054" lon="14.007057277621053"><ele>657.3333333333334</ele><time>2026-04-30T09:05:03Z</time></trkpt><trkpt lat="37.58315388697351" lon="14.007136477152796"><ele>658.5</ele><time>2026-04-30T09:05:04Z</time></trkpt><trkpt lat="37.583216903317435" lon="14.007212280500989"><ele>659.6666666666666</ele><time>2026-04-30T09:05:05Z</time></trkpt><trkpt lat="37.583260446271616" lon="14.007283206806804"><ele>660.8333333333333</ele><time>2026-04-30T09:05:06Z</time></trkpt><trkpt lat="37.58330589288594" lon="14.007358304907093"><ele>662.0</ele><time>2026-04-30T09:05:07Z</time></trkpt><trkpt lat="37.583335061467636" lon="14.007433143987328"><ele>664.4000000000001</ele><time>2026-04-30T09:05:08Z</time></trkpt><trkpt lat="37.58334092911747" lon="14.007615858230368"><ele>666.8000000000001</ele><time>2026-04-30T09:05:10Z</time></trkpt><trkpt lat="37.58335364240306" lon="14.00770545364814"><ele>669.2</ele><time>2026-04-30T09:05:11Z</time></trkpt><trkpt lat="37.58338589897451" lon="14.007774449436717"><ele>671.6</ele><time>2026-04-30T09:05:12Z</time></trkpt><trkpt lat="37.583454768593256" lon="14.007827240620111"><ele>674.0</ele><time>2026-04-30T09:05:13Z</time></trkpt><trkpt lat="37.58356190985372" lon="14.007868475140707"><ele>672.0</ele><time>2026-04-30T09:05:14Z</time></trkpt><trkpt lat="37.583686483997056" lon="14.007897438213975"><ele>670.0</ele><time>2026-04-30T09:05:15Z</time></trkpt><trkpt lat="37.583807874240975" lon="14.007918978104067"><ele>668.0</ele><time>2026-04-30T09:05:16Z</time></trkpt><trkpt lat="37.58390720337294" lon="14.007963315287437"><ele>666.0</ele><time>2026-04-30T09:05:17Z</time></trkpt><trkpt lat="37.5840204574629" lon="14.007961323595346"><ele>666.0</ele><time>2026-04-30T09:05:18Z</time></trkpt><trkpt lat="37.584116880643265" lon="14.007979667753167"><ele>666.0</ele><time>2026-04-30T09:05:19Z</time></trkpt><trkpt lat="37.584206243926324" lon="14.007994243223408"><ele>666.0</ele><time>2026-04-30T09:05:20Z</time></trkpt><trkpt lat="37.5843013186946" lon="14.008015811674193"><ele>666.0</ele><time>2026-04-30T09:05:21Z</time></trkpt><trkpt lat="37.58440714695268" lon="14.008040423804967"><ele>666.0</ele><time>2026-04-30T09:05:22Z</time></trkpt><trkpt lat="37.5845056928657" lon="14.008061680305888"><ele>664.5999999999999</ele><time>2026-04-30T09:05:23Z</time></trkpt><trkpt lat="37.5845932387074" lon="14.00806913976414"><ele>663.2</ele><time>2026-04-30T09:05:24Z</time></trkpt><trkpt lat="37.58467557052371" lon="14.008091782130265"><ele>661.8</ele><time>2026-04-30T09:05:25Z</time></trkpt><trkpt lat="37.58475831183705" lon="14.008117766586855"><ele>660.4000000000001</ele><time>2026-04-30T09:05:26Z</time></trkpt><trkpt lat="37.58486342184719" lon="14.00816541116735"><ele>659.0</ele><time>2026-04-30T09:05:27Z</time></trkpt><trkpt lat="37.584993739346224" lon="14.008228908365812"><ele>659.0</ele><time>2026-04-30T09:05:28Z</time></trkpt><trkpt lat="37.58512642930468" lon="14.008295294482904"><ele>659.0</ele><time>2026-04-30T09:05:29Z</time></trkpt><trkpt lat="37.58524178082137" lon="14.008347867280564"><ele>659.0</ele><time>2026-04-30T09:05:30Z</time></trkpt><trkpt lat="37.58535592663137" lon="14.008404899639551"><ele>659.0</ele><time>2026-04-30T09:05:31Z</time></trkpt><trkpt lat="37.585472688613066" lon="14.008456188450156"><ele>661.0</ele><time>2026-04-30T09:05:32Z</time></trkpt><trkpt lat="37.58558504213696" lon="14.008500672658052"><ele>663.0</ele><time>2026-04-30T09:05:33Z</time></trkpt><trkpt lat="37.585690406800744" lon="14.008545912166138"><ele>665.0</ele><time>2026-04-30T09:05:34Z</time></trkpt><trkpt lat="37.58578791083627" lon="14.008587586218932"><ele>667.0</ele><time>2026-04-30T09:05:35Z</time></trkpt><trkpt lat="37.58588095067516" lon="14.00862822474138"><ele>669.0</ele><time>2026-04-30T09:05:36Z</time></trkpt><trkpt lat="37.58596940299786" lon="14.008669676432598"><ele>669.0</ele><time>2026-04-30T09:05:37Z</time></trkpt><trkpt lat="37.58605643481721" lon="14.008720748171088"><ele>669.0</ele><time>2026-04-30T09:05:38Z</time></trkpt><trkpt lat="37.58614020914676" lon="14.008774014101215"><ele>669.0</ele><time>2026-04-30T09:05:39Z</time></trkpt><trkpt lat="37.58623366894102" lon="14.008818517682691"><ele>669.0</ele><time>2026-04-30T09:05:40Z</time></trkpt><trkpt lat="37.58635756177512" lon="14.008852321784499"><ele>669.0</ele><time>2026-04-30T09:05:41Z</time></trkpt><trkpt lat="37.58649406090073" lon="14.008892223769058"><ele>666.5</ele><time>2026-04-30T09:05:42Z</time></trkpt><trkpt lat="37.586622667713286" lon="14.008941057465394"><ele>664.0</ele><time>2026-04-30T09:05:43Z</time></trkpt><trkpt lat="37.586750861733336" lon="14.009001711980607"><ele>661.5</ele><time>2026-04-30T09:05:44Z</time></trkpt><trkpt lat="37.58686748430433" lon="14.009054145253964"><ele>659.0</ele><time>2026-04-30T09:05:45Z</time></trkpt><trkpt lat="37.586973145766734" lon="14.00909621076821"><ele>660.0</ele><time>2026-04-30T09:05:46Z</time></trkpt><trkpt lat="37.587065565383796" lon="14.009130298880343"><ele>661.0</ele><time>2026-04-30T09:05:47Z</time></trkpt><trkpt lat="37.58714264670125" lon="14.009149248885857"><ele>662.0</ele><time>2026-04-30T09:05:48Z</time></trkpt><trkpt lat="37.58721793472518" lon="14.009143777917952"><ele>663.0</ele><time>2026-04-30T09:05:49Z</time></trkpt><trkpt lat="37.58729838517773" lon="14.0091106126588"><ele>664.0</ele><time>2026-04-30T09:05:50Z</time></trkpt><trkpt lat="37.58736361983502" lon="14.0090537174739"><ele>665.0</ele><time>2026-04-30T09:05:51Z</time></trkpt><trkpt lat="37.587422449031465" lon="14.008976875012022"><ele>665.0</ele><time>2026-04-30T09:05:52Z</time></trkpt><trkpt lat="37.58747503707627" lon="14.008879393749885"><ele>665.0</ele><time>2026-04-30T09:05:53Z</time></trkpt><trkpt lat="37.58750570168483" lon="14.00877258838331"><ele>665.0</ele><time>2026-04-30T09:05:54Z</time></trkpt><trkpt lat="37.587529708978984" lon="14.0086421446183"><ele>665.0</ele><time>2026-04-30T09:05:55Z</time></trkpt><trkpt lat="37.58755206910207" lon="14.008501224307844"><ele>665.0</ele><time>2026-04-30T09:05:56Z</time></trkpt><trkpt lat="37.58757708799531" lon="14.008382157683421"><ele>663.6666666666666</ele><time>2026-04-30T09:05:57Z</time></trkpt><trkpt lat="37.58760263489675" lon="14.00828130055191"><ele>662.3333333333333</ele><time>2026-04-30T09:05:58Z</time></trkpt><trkpt lat="37.58763308028536" lon="14.008202842090283"><ele>661.0</ele><time>2026-04-30T09:05:59Z</time></trkpt><trkpt lat="37.58767514991925" lon="14.008140043762063"><ele>659.6666666666666</ele><time>2026-04-30T09:06:00Z</time></trkpt><trkpt lat="37.58773704163905" lon="14.008086201072585"><ele>658.3333333333334</ele><time>2026-04-30T09:06:01Z</time></trkpt><trkpt lat="37.58781735937506" lon="14.008046596788175"><ele>657.0</ele><time>2026-04-30T09:06:02Z</time></trkpt><trkpt lat="37.587918831427515" lon="14.008020011522685"><ele>657.0</ele><time>2026-04-30T09:06:03Z</time></trkpt><trkpt lat="37.588042715462585" lon="14.007999925504823"><ele>657.0</ele><time>2026-04-30T09:06:04Z</time></trkpt><trkpt lat="37.58817377132523" lon="14.007984792113703"><ele>657.0</ele><time>2026-04-30T09:06:05Z</time></trkpt><trkpt lat="37.58832374472419" lon="14.007990523227072"><ele>657.0</ele><time>2026-04-30T09:06:06Z</time></trkpt><trkpt lat="37.58847618821801" lon="14.007970100157229"><ele>657.0</ele><time>2026-04-30T09:06:07Z</time></trkpt><trkpt lat="37.58860594463027" lon="14.00795302660886"><ele>657.0</ele><time>2026-04-30T09:06:08Z</time></trkpt><trkpt lat="37.588729733626714" lon="14.007942526111158"><ele>657.0</ele><time>2026-04-30T09:06:09Z</time></trkpt><trkpt lat="37.58884996016939" lon="14.007929405931202"><ele>657.0</ele><time>2026-04-30T09:06:10Z</time></trkpt><trkpt lat="37.5889867189941" lon="14.007906157793734"><ele>657.5</ele><time>2026-04-30T09:06:11Z</time></trkpt><trkpt lat="37.58911762992159" lon="14.007881808876967"><ele>658.0</ele><time>2026-04-30T09:06:12Z</time></trkpt><trkpt lat="37.58924040869823" lon="14.007858972519305"><ele>658.5</ele><time>2026-04-30T09:06:13Z</time></trkpt><trkpt lat="37.58936677893044" lon="14.007835468121005"><ele>659.0</ele><time>2026-04-30T09:06:14Z</time></trkpt><trkpt lat="37.58948951485347" lon="14.007812658634522"><ele>657.0</ele><time>2026-04-30T09:06:15Z</time></trkpt><trkpt lat="37.58960514983475" lon="14.007794472252892"><ele>655.0</ele><time>2026-04-30T09:06:16Z</time></trkpt><trkpt lat="37.589724870037294" lon="14.007779275044488"><ele>653.0</ele><time>2026-04-30T09:06:17Z</time></trkpt><trkpt lat="37.58984515380024" lon="14.00776295895544"><ele>651.0</ele><time>2026-04-30T09:06:18Z</time></trkpt><trkpt lat="37.589969092208804" lon="14.00774353086241"><ele>651.0</ele><time>2026-04-30T09:06:19Z</time></trkpt><trkpt lat="37.590113448558576" lon="14.007717764647513"><ele>651.0</ele><time>2026-04-30T09:06:20Z</time></trkpt><trkpt lat="37.590236182196456" lon="14.007691892062022"><ele>651.0</ele><time>2026-04-30T09:06:21Z</time></trkpt><trkpt lat="37.59035571543201" lon="14.007663575787994"><ele>651.0</ele><time>2026-04-30T09:06:22Z</time></trkpt><trkpt lat="37.590471170878004" lon="14.007636237128342"><ele>650.5</ele><time>2026-04-30T09:06:23Z</time></trkpt><trkpt lat="37.590582977360754" lon="14.007611813645852"><ele>650.0</ele><time>2026-04-30T09:06:24Z</time></trkpt><trkpt lat="37.59069601066789" lon="14.007587204473902"><ele>649.5</ele><time>2026-04-30T09:06:25Z</time></trkpt><trkpt lat="37.59081319687547" lon="14.007562699999934"><ele>649.0</ele><time>2026-04-30T09:06:26Z</time></trkpt><trkpt lat="37.590926033022775" lon="14.007516645132494"><ele>649.0</ele><time>2026-04-30T09:06:27Z</time></trkpt><trkpt lat="37.59104120458771" lon="14.007494469496903"><ele>649.0</ele><time>2026-04-30T09:06:28Z</time></trkpt><trkpt lat="37.59114891573595" lon="14.00748764425577"><ele>649.0</ele><time>2026-04-30T09:06:29Z</time></trkpt><trkpt lat="37.591246486875356" lon="14.00751097927989"><ele>649.0</ele><time>2026-04-30T09:06:30Z</time></trkpt><trkpt lat="37.59134071381415" lon="14.00752040179987"><ele>649.0</ele><time>2026-04-30T09:06:31Z</time></trkpt><trkpt lat="37.591438796131676" lon="14.007547305387497"><ele>647.75</ele><time>2026-04-30T09:06:32Z</time></trkpt><trkpt lat="37.59155557306162" lon="14.007567914835736"><ele>646.5</ele><time>2026-04-30T09:06:33Z</time></trkpt><trkpt lat="37.591684403059304" lon="14.007650396076613"><ele>645.25</ele><time>2026-04-30T09:06:34Z</time></trkpt><trkpt lat="37.591829680762864" lon="14.00770550485189"><ele>644.0</ele><time>2026-04-30T09:06:35Z</time></trkpt><trkpt lat="37.591970241064615" lon="14.007732340584683"><ele>643.0</ele><time>2026-04-30T09:06:36Z</time></trkpt><trkpt lat="37.592100330112125" lon="14.007784598987435"><ele>642.0</ele><time>2026-04-30T09:06:37Z</time></trkpt><trkpt lat="37.59222875956036" lon="14.007832956436662"><ele>641.0</ele><time>2026-04-30T09:06:38Z</time></trkpt><trkpt lat="37.592352568394325" lon="14.007880164526526"><ele>640.0</ele><time>2026-04-30T09:06:39Z</time></trkpt><trkpt lat="37.59248178616692" lon="14.007924968560335"><ele>640.0</ele><time>2026-04-30T09:06:40Z</time></trkpt><trkpt lat="37.592608263965246" lon="14.00797168363177"><ele>640.0</ele><time>2026-04-30T09:06:41Z</time></trkpt><trkpt lat="37.59273332101028" lon="14.008020088560338"><ele>640.0</ele><time>2026-04-30T09:06:42Z</time></trkpt><trkpt lat="37.592849167347396" lon="14.008067017726463"><ele>640.0</ele><time>2026-04-30T09:06:43Z</time></trkpt><trkpt lat="37.592969818317236" lon="14.008113538275445"><ele>638.25</ele><time>2026-04-30T09:06:44Z</time></trkpt><trkpt lat="37.593087876777034" lon="14.0081591876185"><ele>636.5</ele><time>2026-04-30T09:06:45Z</time></trkpt><trkpt lat="37.59320106754327" lon="14.00819892337655"><ele>634.75</ele><time>2026-04-30T09:06:46Z</time></trkpt><trkpt lat="37.593313911858665" lon="14.00824067387583"><ele>633.0</ele><time>2026-04-30T09:06:47Z</time></trkpt><trkpt lat="37.59343433245979" lon="14.008286356741"><ele>634.1999999999999</ele><time>2026-04-30T09:06:48Z</time></trkpt><trkpt lat="37.59354329088267" lon="14.008329454519309"><ele>635.4</ele><time>2026-04-30T09:06:49Z</time></trkpt><trkpt lat="37.59362980840253" lon="14.00836347678052"><ele>636.5999999999999</ele><time>2026-04-30T09:06:50Z</time></trkpt><trkpt lat="37.59371552760225" lon="14.008384208506788"><ele>637.8</ele><time>2026-04-30T09:06:51Z</time></trkpt><trkpt lat="37.59378883949568" lon="14.008463693174544"><ele>639.0</ele><time>2026-04-30T09:06:52Z</time></trkpt><trkpt lat="37.593880404098265" lon="14.00853398369512"><ele>639.0</ele><time>2026-04-30T09:06:53Z</time></trkpt><trkpt lat="37.593968324623944" lon="14.008601476799674"><ele>639.0</ele><time>2026-04-30T09:06:54Z</time></trkpt><trkpt lat="37.59405936128356" lon="14.008671362028647"><ele>639.0</ele><time>2026-04-30T09:06:55Z</time></trkpt><trkpt lat="37.59428961565105" lon="14.008522165803559"><ele>639.0</ele><time>2026-04-30T09:06:56Z</time></trkpt><trkpt lat="37.59444737962013" lon="14.008524842167834"><ele>639.0</ele><time>2026-04-30T09:06:57Z</time></trkpt><trkpt lat="37.59462629160484" lon="14.008570104825333"><ele>639.0</ele><time>2026-04-30T09:06:58Z</time></trkpt><trkpt lat="37.59482401233232" lon="14.008638345200492"><ele>639.3333333333334</ele><time>2026-04-30T09:06:59Z</time></trkpt><trkpt lat="37.59501598350045" lon="14.008714767759958"><ele>639.6666666666667</ele><time>2026-04-30T09:07:00Z</time></trkpt><trkpt lat="37.59519375153325" lon="14.008791411174942"><ele>640.0</ele><time>2026-04-30T09:07:01Z</time></trkpt><trkpt lat="37.595377043541816" lon="14.00886245082549"><ele>640.6666666666667</ele><time>2026-04-30T09:07:02Z</time></trkpt><trkpt lat="37.595564837836335" lon="14.00892767051822"><ele>641.3333333333334</ele><time>2026-04-30T09:07:02.999Z</time></trkpt><trkpt lat="37.59573830053352" lon="14.008996282918327"><ele>642.0</ele><time>2026-04-30T09:07:03.999Z</time></trkpt><trkpt lat="37.59588897307436" lon="14.009059926437049"><ele>642.0</ele><time>2026-04-30T09:07:04.999Z</time></trkpt><trkpt lat="37.59603767208777" lon="14.00912767412618"><ele>642.0</ele><time>2026-04-30T09:07:05.999Z</time></trkpt><trkpt lat="37.59618561396637" lon="14.009197468127084"><ele>642.0</ele><time>2026-04-30T09:07:06.999Z</time></trkpt><trkpt lat="37.59634038252383" lon="14.009261525590036"><ele>643.3333333333334</ele><time>2026-04-30T09:07:07.999Z</time></trkpt><trkpt lat="37.59649707272051" lon="14.00932480525112"><ele>644.6666666666667</ele><time>2026-04-30T09:07:08.999Z</time></trkpt><trkpt lat="37.596647014088646" lon="14.009385323202661"><ele>646.0</ele><time>2026-04-30T09:07:09.999Z</time></trkpt><trkpt lat="37.5967916394508" lon="14.009441100001112"><ele>646.0</ele><time>2026-04-30T09:07:10.999Z</time></trkpt><trkpt lat="37.59693780407133" lon="14.009490153311502"><ele>646.0</ele><time>2026-04-30T09:07:11.999Z</time></trkpt><trkpt lat="37.59709100162959" lon="14.009523979688561"><ele>646.0</ele><time>2026-04-30T09:07:12.999Z</time></trkpt><trkpt lat="37.597250365102916" lon="14.00954089909606"><ele>645.3333333333334</ele><time>2026-04-30T09:07:13.999Z</time></trkpt><trkpt lat="37.59740486884343" lon="14.009548052445268"><ele>644.6666666666666</ele><time>2026-04-30T09:07:14.999Z</time></trkpt><trkpt lat="37.597554909967506" lon="14.009549589098103"><ele>644.0</ele><time>2026-04-30T09:07:15.999Z</time></trkpt><trkpt lat="37.59770276168469" lon="14.009540978918228"><ele>645.75</ele><time>2026-04-30T09:07:16.999Z</time></trkpt><trkpt lat="37.597849013440666" lon="14.009518505721472"><ele>647.5</ele><time>2026-04-30T09:07:18Z</time></trkpt><trkpt lat="37.59799316388617" lon="14.009486481449946"><ele>649.25</ele><time>2026-04-30T09:07:19Z</time></trkpt><trkpt lat="37.59813839409272" lon="14.009448015815288"><ele>651.0</ele><time>2026-04-30T09:07:20Z</time></trkpt><trkpt lat="37.59828099183233" lon="14.00940252608242"><ele>651.0</ele><time>2026-04-30T09:07:21Z</time></trkpt><trkpt lat="37.59842222699623" lon="14.009367074011571"><ele>651.0</ele><time>2026-04-30T09:07:22Z</time></trkpt><trkpt lat="37.59856444514965" lon="14.009333600351614"><ele>651.0</ele><time>2026-04-30T09:07:23Z</time></trkpt><trkpt lat="37.598709407387695" lon="14.00930532617082"><ele>651.0</ele><time>2026-04-30T09:07:24Z</time></trkpt><trkpt lat="37.59885745857997" lon="14.009283295463757"><ele>653.0</ele><time>2026-04-30T09:07:25Z</time></trkpt><trkpt lat="37.599009875536765" lon="14.00926970744814"><ele>655.0</ele><time>2026-04-30T09:07:26Z</time></trkpt><trkpt lat="37.59916441620657" lon="14.009268994591418"><ele>657.0</ele><time>2026-04-30T09:07:27Z</time></trkpt><trkpt lat="37.59931621618154" lon="14.009280655588533"><ele>657.0</ele><time>2026-04-30T09:07:28Z</time></trkpt><trkpt lat="37.5994640368327" lon="14.009293645852159"><ele>657.0</ele><time>2026-04-30T09:07:29Z</time></trkpt><trkpt lat="37.59960921650249" lon="14.009299113223772"><ele>657.0</ele><time>2026-04-30T09:07:30Z</time></trkpt><trkpt lat="37.59974989539862" lon="14.009300897187163"><ele>657.0</ele><time>2026-04-30T09:07:31Z</time></trkpt><trkpt lat="37.59987583072657" lon="14.00931148815642"><ele>659.2</ele><time>2026-04-30T09:07:32Z</time></trkpt><trkpt lat="37.59999005851141" lon="14.009325044359292"><ele>661.4000000000001</ele><time>2026-04-30T09:07:33Z</time></trkpt><trkpt lat="37.60006702112973" lon="14.009331196451715"><ele>663.5999999999999</ele><time>2026-04-30T09:07:34Z</time></trkpt><trkpt lat="37.600141313397906" lon="14.009336982692714"><ele>665.8</ele><time>2026-04-30T09:07:36Z</time></trkpt><trkpt lat="37.60024738359521" lon="14.009350593729827"><ele>668.0</ele><time>2026-04-30T09:07:50Z</time></trkpt><trkpt lat="37.600319457383634" lon="14.009305732317547"><ele>668.4</ele><time>2026-04-30T09:07:51Z</time></trkpt><trkpt lat="37.60038408139695" lon="14.009226809180907"><ele>668.8</ele><time>2026-04-30T09:07:52Z</time></trkpt><trkpt lat="37.600451493047125" lon="14.009140767958286"><ele>669.2</ele><time>2026-04-30T09:07:53Z</time></trkpt><trkpt lat="37.600520739595865" lon="14.009059947300567"><ele>669.6</ele><time>2026-04-30T09:07:54Z</time></trkpt><trkpt lat="37.600591141174704" lon="14.008979679474065"><ele>670.0</ele><time>2026-04-30T09:07:55Z</time></trkpt><trkpt lat="37.60067432967836" lon="14.008889295964938"><ele>670.0</ele><time>2026-04-30T09:07:56Z</time></trkpt><trkpt lat="37.60076292089343" lon="14.008799826946277"><ele>670.0</ele><time>2026-04-30T09:07:57Z</time></trkpt><trkpt lat="37.60086393216207" lon="14.008712076671978"><ele>670.0</ele><time>2026-04-30T09:07:58Z</time></trkpt><trkpt lat="37.60097326333294" lon="14.008641730727687"><ele>670.0</ele><time>2026-04-30T09:07:59Z</time></trkpt><trkpt lat="37.601091110359434" lon="14.00857836092686"><ele>672.5</ele><time>2026-04-30T09:08:00Z</time></trkpt><trkpt lat="37.60120795716208" lon="14.008499253520617"><ele>675.0</ele><time>2026-04-30T09:08:01Z</time></trkpt><trkpt lat="37.601316999208564" lon="14.008390553780586"><ele>677.5</ele><time>2026-04-30T09:08:02Z</time></trkpt><trkpt lat="37.60141160889905" lon="14.008239868663077"><ele>680.0</ele><time>2026-04-30T09:08:03Z</time></trkpt><trkpt lat="37.60147781676945" lon="14.008061100388119"><ele>680.0</ele><time>2026-04-30T09:08:04Z</time></trkpt><trkpt lat="37.60151882323393" lon="14.007875395110815"><ele>680.0</ele><time>2026-04-30T09:08:05Z</time></trkpt><trkpt lat="37.60155905211369" lon="14.007724649480043"><ele>680.0</ele><time>2026-04-30T09:08:06Z</time></trkpt><trkpt lat="37.60161160093985" lon="14.007606670361033"><ele>680.0</ele><time>2026-04-30T09:08:07Z</time></trkpt><trkpt lat="37.601682138016066" lon="14.007499429541387"><ele>679.0</ele><time>2026-04-30T09:08:08Z</time></trkpt><trkpt lat="37.60177449203709" lon="14.007423425861138"><ele>678.0</ele><time>2026-04-30T09:08:09Z</time></trkpt><trkpt lat="37.60186094940319" lon="14.007381636379433"><ele>677.0</ele><time>2026-04-30T09:08:10Z</time></trkpt><trkpt lat="37.60191970850948" lon="14.007280181526571"><ele>676.0</ele><time>2026-04-30T09:08:12Z</time></trkpt><trkpt lat="37.6019248347055" lon="14.007159999126745"><ele>675.0</ele><time>2026-04-30T09:08:13Z</time></trkpt><trkpt lat="37.601923993016484" lon="14.0069909161701"><ele>675.0</ele><time>2026-04-30T09:08:14Z</time></trkpt><trkpt lat="37.60195521084526" lon="14.00684482613406"><ele>675.0</ele><time>2026-04-30T09:08:15Z</time></trkpt><trkpt lat="37.6020144927067" lon="14.006735086330185"><ele>675.0</ele><time>2026-04-30T09:08:16Z</time></trkpt><trkpt lat="37.60206136637784" lon="14.00665351610849"><ele>675.0</ele><time>2026-04-30T09:08:17Z</time></trkpt><trkpt lat="37.60208893305434" lon="14.006565397513537"><ele>675.0</ele><time>2026-04-30T09:08:18Z</time></trkpt><trkpt lat="37.60208820760446" lon="14.006443349670068"><ele>676.3333333333334</ele><time>2026-04-30T09:08:19Z</time></trkpt><trkpt lat="37.60205799110685" lon="14.006283755224544"><ele>677.6666666666667</ele><time>2026-04-30T09:08:20Z</time></trkpt><trkpt lat="37.6020028024005" lon="14.006104492744708"><ele>679.0</ele><time>2026-04-30T09:08:21Z</time></trkpt><trkpt lat="37.60195586180372" lon="14.005898436166802"><ele>682.3333333333334</ele><time>2026-04-30T09:08:22Z</time></trkpt><trkpt lat="37.60193462696675" lon="14.005677942354541"><ele>685.6666666666666</ele><time>2026-04-30T09:08:23Z</time></trkpt><trkpt lat="37.60192478625343" lon="14.00545134200974"><ele>689.0</ele><time>2026-04-30T09:08:24Z</time></trkpt><trkpt lat="37.601887435258554" lon="14.005234925517405"><ele>689.0</ele><time>2026-04-30T09:08:25Z</time></trkpt><trkpt lat="37.601841657468704" lon="14.005029210797066"><ele>689.0</ele><time>2026-04-30T09:08:26Z</time></trkpt><trkpt lat="37.6017338943751" lon="14.004830745904696"><ele>689.0</ele><time>2026-04-30T09:08:27Z</time></trkpt><trkpt lat="37.60162817112364" lon="14.004635338412454"><ele>692.0</ele><time>2026-04-30T09:08:28Z</time></trkpt><trkpt lat="37.60154103250028" lon="14.004457555560606"><ele>695.0</ele><time>2026-04-30T09:08:29Z</time></trkpt><trkpt lat="37.6014887985964" lon="14.004285857325787"><ele>698.0</ele><time>2026-04-30T09:08:30Z</time></trkpt><trkpt lat="37.60146446225227" lon="14.004094475119306"><ele>698.6666666666666</ele><time>2026-04-30T09:08:31Z</time></trkpt><trkpt lat="37.601466904997395" lon="14.003878787439131"><ele>699.3333333333334</ele><time>2026-04-30T09:08:32Z</time></trkpt><trkpt lat="37.60146649153517" lon="14.003658460457718"><ele>700.0</ele><time>2026-04-30T09:08:33Z</time></trkpt><trkpt lat="37.60141511889848" lon="14.003449159995816"><ele>697.75</ele><time>2026-04-30T09:08:34Z</time></trkpt><trkpt lat="37.60133351901686" lon="14.003270521728052"><ele>695.5</ele><time>2026-04-30T09:08:35Z</time></trkpt><trkpt lat="37.60126978090949" lon="14.003123726707354"><ele>693.25</ele><time>2026-04-30T09:08:36Z</time></trkpt><trkpt lat="37.60124087800168" lon="14.002994596567595"><ele>691.0</ele><time>2026-04-30T09:08:37Z</time></trkpt><trkpt lat="37.60125191013093" lon="14.002884101932585"><ele>691.0</ele><time>2026-04-30T09:08:38Z</time></trkpt><trkpt lat="37.601307410962676" lon="14.002805599562086"><ele>691.0</ele><time>2026-04-30T09:08:39Z</time></trkpt><trkpt lat="37.60140885957494" lon="14.002760270525782"><ele>691.0</ele><time>2026-04-30T09:08:40Z</time></trkpt><trkpt lat="37.60154337424021" lon="14.002761483446449"><ele>691.0</ele><time>2026-04-30T09:08:41Z</time></trkpt><trkpt lat="37.601692338536196" lon="14.00280686476081"><ele>691.0</ele><time>2026-04-30T09:08:42Z</time></trkpt><trkpt lat="37.60184694314289" lon="14.002868257415827"><ele>691.0</ele><time>2026-04-30T09:08:43Z</time></trkpt><trkpt lat="37.601994870356364" lon="14.002918221046682"><ele>691.0</ele><time>2026-04-30T09:08:44Z</time></trkpt><trkpt lat="37.60213394148145" lon="14.002939018639514"><ele>691.25</ele><time>2026-04-30T09:08:45Z</time></trkpt><trkpt lat="37.60226719608408" lon="14.002951155593832"><ele>691.5</ele><time>2026-04-30T09:08:46Z</time></trkpt><trkpt lat="37.602405252483294" lon="14.002940023216055"><ele>691.75</ele><time>2026-04-30T09:08:47Z</time></trkpt><trkpt lat="37.60255513561982" lon="14.002879819923288"><ele>692.0</ele><time>2026-04-30T09:08:48Z</time></trkpt><trkpt lat="37.602705298898734" lon="14.002771989531318"><ele>694.0</ele><time>2026-04-30T09:08:49Z</time></trkpt><trkpt lat="37.60283601699597" lon="14.002629522613324"><ele>696.0</ele><time>2026-04-30T09:08:50Z</time></trkpt><trkpt lat="37.60294630446002" lon="14.002503514902463"><ele>698.0</ele><time>2026-04-30T09:08:51Z</time></trkpt><trkpt lat="37.60303922362424" lon="14.002406216041758"><ele>700.0</ele><time>2026-04-30T09:08:52Z</time></trkpt><trkpt lat="37.60314234341496" lon="14.002336773527333"><ele>695.25</ele><time>2026-04-30T09:08:53Z</time></trkpt><trkpt lat="37.603260052640046" lon="14.002299959434199"><ele>690.5</ele><time>2026-04-30T09:08:54Z</time></trkpt><trkpt lat="37.60338032390623" lon="14.002308385648425"><ele>685.75</ele><time>2026-04-30T09:08:55Z</time></trkpt><trkpt lat="37.60348380874245" lon="14.002386241483155"><ele>681.0</ele><time>2026-04-30T09:08:56Z</time></trkpt><trkpt lat="37.60359380228578" lon="14.002403210262354"><ele>684.25</ele><time>2026-04-30T09:08:57Z</time></trkpt><trkpt lat="37.603709918200394" lon="14.002374589723468"><ele>687.5</ele><time>2026-04-30T09:08:58Z</time></trkpt><trkpt lat="37.60381927480939" lon="14.002288892996226"><ele>690.75</ele><time>2026-04-30T09:08:59Z</time></trkpt><trkpt lat="37.60391589807753" lon="14.002168620434444"><ele>694.0</ele><time>2026-04-30T09:09:00Z</time></trkpt><trkpt lat="37.604008822166676" lon="14.002034846056336"><ele>694.0</ele><time>2026-04-30T09:09:01Z</time></trkpt><trkpt lat="37.604101243440006" lon="14.001933012942304"><ele>694.0</ele><time>2026-04-30T09:09:02Z</time></trkpt><trkpt lat="37.604194883696444" lon="14.001852082049252"><ele>694.0</ele><time>2026-04-30T09:09:03Z</time></trkpt><trkpt lat="37.6042804074994" lon="14.001776128859621"><ele>694.0</ele><time>2026-04-30T09:09:04Z</time></trkpt><trkpt lat="37.604368536814704" lon="14.001710620464609"><ele>694.0</ele><time>2026-04-30T09:09:05Z</time></trkpt><trkpt lat="37.604469067403976" lon="14.001676031986314"><ele>695.4000000000001</ele><time>2026-04-30T09:09:06Z</time></trkpt><trkpt lat="37.60457319206269" lon="14.001689918426273"><ele>696.8</ele><time>2026-04-30T09:09:07Z</time></trkpt><trkpt lat="37.604677460018664" lon="14.001761074683623"><ele>698.2</ele><time>2026-04-30T09:09:08Z</time></trkpt><trkpt lat="37.60477975942426" lon="14.001831076546976"><ele>699.5999999999999</ele><time>2026-04-30T09:09:09Z</time></trkpt><trkpt lat="37.60487376908467" lon="14.0018901665853"><ele>701.0</ele><time>2026-04-30T09:09:10Z</time></trkpt><trkpt lat="37.60497335532588" lon="14.001916137307933"><ele>701.0</ele><time>2026-04-30T09:09:11Z</time></trkpt><trkpt lat="37.60507066520226" lon="14.001882282378503"><ele>701.0</ele><time>2026-04-30T09:09:12Z</time></trkpt><trkpt lat="37.60515741363311" lon="14.001792491418133"><ele>701.0</ele><time>2026-04-30T09:09:13Z</time></trkpt><trkpt lat="37.605224139055025" lon="14.001669617073798"><ele>701.0</ele><time>2026-04-30T09:09:14Z</time></trkpt><trkpt lat="37.60529040512366" lon="14.001549684501772"><ele>701.0</ele><time>2026-04-30T09:09:15Z</time></trkpt><trkpt lat="37.605376971238364" lon="14.001474116248549"><ele>699.0</ele><time>2026-04-30T09:09:16Z</time></trkpt><trkpt lat="37.605482423614134" lon="14.001449737574488"><ele>697.0</ele><time>2026-04-30T09:09:17Z</time></trkpt><trkpt lat="37.60559705956139" lon="14.001485163463316"><ele>695.0</ele><time>2026-04-30T09:09:18Z</time></trkpt><trkpt lat="37.60570995015996" lon="14.001543809248167"><ele>693.0</ele><time>2026-04-30T09:09:19Z</time></trkpt><trkpt lat="37.605824848905115" lon="14.001569893116837"><ele>693.0</ele><time>2026-04-30T09:09:20Z</time></trkpt><trkpt lat="37.6059426621164" lon="14.001541030280524"><ele>693.0</ele><time>2026-04-30T09:09:21Z</time></trkpt><trkpt lat="37.606046889258565" lon="14.001468528225976"><ele>693.0</ele><time>2026-04-30T09:09:22Z</time></trkpt><trkpt lat="37.60612299561062" lon="14.001353713852867"><ele>693.0</ele><time>2026-04-30T09:09:23Z</time></trkpt><trkpt lat="37.606174218281105" lon="14.00121941866505"><ele>694.0</ele><time>2026-04-30T09:09:24Z</time></trkpt><trkpt lat="37.60620586955077" lon="14.001073258847642"><ele>695.0</ele><time>2026-04-30T09:09:25Z</time></trkpt><trkpt lat="37.606235163567796" lon="14.000925386405916"><ele>696.0</ele><time>2026-04-30T09:09:26Z</time></trkpt><trkpt lat="37.60626502489056" lon="14.000786785367227"><ele>697.0</ele><time>2026-04-30T09:09:27Z</time></trkpt><trkpt lat="37.606298048294214" lon="14.000654898586673"><ele>697.0</ele><time>2026-04-30T09:09:28Z</time></trkpt><trkpt lat="37.606338545683734" lon="14.000519804263792"><ele>697.0</ele><time>2026-04-30T09:09:29Z</time></trkpt><trkpt lat="37.60640668468339" lon="14.000384499997224"><ele>697.0</ele><time>2026-04-30T09:09:30Z</time></trkpt><trkpt lat="37.60648510353572" lon="14.000249922010306"><ele>697.0</ele><time>2026-04-30T09:09:31Z</time></trkpt><trkpt lat="37.60653666042036" lon="14.000113132690938"><ele>697.0</ele><time>2026-04-30T09:09:32Z</time></trkpt><trkpt lat="37.60654579763948" lon="13.999966495413478"><ele>697.0</ele><time>2026-04-30T09:09:33Z</time></trkpt><trkpt lat="37.60650366755987" lon="13.999819234367761"><ele>697.0</ele><time>2026-04-30T09:09:34Z</time></trkpt><trkpt lat="37.60643101581655" lon="13.999669821628654"><ele>697.0</ele><time>2026-04-30T09:09:35Z</time></trkpt><trkpt lat="37.60627092778473" lon="13.999565000369984"><ele>694.0</ele><time>2026-04-30T09:09:36Z</time></trkpt><trkpt lat="37.6061015244555" lon="13.999467797107727"><ele>691.0</ele><time>2026-04-30T09:09:37Z</time></trkpt><trkpt lat="37.6059764338973" lon="13.99933484028895"><ele>688.0</ele><time>2026-04-30T09:09:38Z</time></trkpt><trkpt lat="37.60586142852954" lon="13.999199017291906"><ele>689.3333333333334</ele><time>2026-04-30T09:09:39Z</time></trkpt><trkpt lat="37.6057347398206" lon="13.999046198219347"><ele>690.6666666666666</ele><time>2026-04-30T09:09:40Z</time></trkpt><trkpt lat="37.60562477289718" lon="13.998870599679213"><ele>692.0</ele><time>2026-04-30T09:09:41Z</time></trkpt><trkpt lat="37.60551845128115" lon="13.998706996647492"><ele>692.0</ele><time>2026-04-30T09:09:42Z</time></trkpt><trkpt lat="37.60539765214244" lon="13.998546475191075"><ele>692.0</ele><time>2026-04-30T09:09:43Z</time></trkpt><trkpt lat="37.605271370372314" lon="13.998374994632234"><ele>692.0</ele><time>2026-04-30T09:09:44Z</time></trkpt><trkpt lat="37.60514997260733" lon="13.998197522632934"><ele>690.6666666666666</ele><time>2026-04-30T09:09:45Z</time></trkpt><trkpt lat="37.60503445186781" lon="13.998021856085886"><ele>689.3333333333334</ele><time>2026-04-30T09:09:46Z</time></trkpt><trkpt lat="37.60492123119613" lon="13.99786050466084"><ele>688.0</ele><time>2026-04-30T09:09:47Z</time></trkpt><trkpt lat="37.60482561189467" lon="13.997717434508363"><ele>688.0</ele><time>2026-04-30T09:09:48Z</time></trkpt><trkpt lat="37.60472340341095" lon="13.997574261886355"><ele>688.0</ele><time>2026-04-30T09:09:49Z</time></trkpt><trkpt lat="37.60461746151459" lon="13.997441633649096"><ele>688.0</ele><time>2026-04-30T09:09:50Z</time></trkpt><trkpt lat="37.604496092087" lon="13.997324455038362"><ele>688.0</ele><time>2026-04-30T09:09:51Z</time></trkpt><trkpt lat="37.604356009731774" lon="13.997218159884284"><ele>688.0</ele><time>2026-04-30T09:09:52Z</time></trkpt><trkpt lat="37.60417823058222" lon="13.997181419554328"><ele>688.0</ele><time>2026-04-30T09:09:53Z</time></trkpt><trkpt lat="37.60401333848994" lon="13.997126092831872"><ele>688.0</ele><time>2026-04-30T09:09:54Z</time></trkpt><trkpt lat="37.60388532157074" lon="13.99703422260607"><ele>688.0</ele><time>2026-04-30T09:09:55Z</time></trkpt><trkpt lat="37.60375057605472" lon="13.996950731268344"><ele>688.0</ele><time>2026-04-30T09:09:56Z</time></trkpt><trkpt lat="37.60362782929755" lon="13.996820680620855"><ele>689.6666666666667</ele><time>2026-04-30T09:09:57Z</time></trkpt><trkpt lat="37.60350817764227" lon="13.996683958924681"><ele>691.3333333333334</ele><time>2026-04-30T09:09:58Z</time></trkpt><trkpt lat="37.60338366706346" lon="13.996554434715604"><ele>693.0</ele><time>2026-04-30T09:09:59Z</time></trkpt><trkpt lat="37.60325056755689" lon="13.996414530437981"><ele>693.0</ele><time>2026-04-30T09:10:00Z</time></trkpt><trkpt lat="37.603115884158996" lon="13.996271095771688"><ele>693.0</ele><time>2026-04-30T09:10:01Z</time></trkpt><trkpt lat="37.60300688187764" lon="13.996147565228917"><ele>693.0</ele><time>2026-04-30T09:10:02Z</time></trkpt><trkpt lat="37.602919370640535" lon="13.99602884684681"><ele>693.0</ele><time>2026-04-30T09:10:03Z</time></trkpt><trkpt lat="37.602853735117385" lon="13.995896654610252"><ele>693.0</ele><time>2026-04-30T09:10:04Z</time></trkpt><trkpt lat="37.60281802552927" lon="13.995741903764513"><ele>693.0</ele><time>2026-04-30T09:10:05Z</time></trkpt><trkpt lat="37.60281418004823" lon="13.995563955541924"><ele>693.0</ele><time>2026-04-30T09:10:06Z</time></trkpt><trkpt lat="37.60285125774593" lon="13.995397554880704"><ele>696.75</ele><time>2026-04-30T09:10:07Z</time></trkpt><trkpt lat="37.60291375323477" lon="13.995229410889307"><ele>700.5</ele><time>2026-04-30T09:10:08Z</time></trkpt><trkpt lat="37.60298519196331" lon="13.995071326499206"><ele>704.25</ele><time>2026-04-30T09:10:09Z</time></trkpt><trkpt lat="37.60305175023553" lon="13.994920048767622"><ele>708.0</ele><time>2026-04-30T09:10:10Z</time></trkpt><trkpt lat="37.60310966300904" lon="13.994766912232954"><ele>709.0</ele><time>2026-04-30T09:10:11Z</time></trkpt><trkpt lat="37.60315299045911" lon="13.99459643591115"><ele>710.0</ele><time>2026-04-30T09:10:12Z</time></trkpt><trkpt lat="37.60318706303103" lon="13.994395361328905"><ele>711.0</ele><time>2026-04-30T09:10:13Z</time></trkpt><trkpt lat="37.603199579304786" lon="13.994194262770604"><ele>709.75</ele><time>2026-04-30T09:10:14Z</time></trkpt><trkpt lat="37.60318662995824" lon="13.994005684463355"><ele>708.5</ele><time>2026-04-30T09:10:15Z</time></trkpt><trkpt lat="37.6031428595047" lon="13.993816121398451"><ele>707.25</ele><time>2026-04-30T09:10:16Z</time></trkpt><trkpt lat="37.60309325006994" lon="13.993663016448258"><ele>706.0</ele><time>2026-04-30T09:10:17Z</time></trkpt><trkpt lat="37.60305043322875" lon="13.99353109967448"><ele>706.0</ele><time>2026-04-30T09:10:18Z</time></trkpt><trkpt lat="37.60301473261558" lon="13.993409898546023"><ele>706.0</ele><time>2026-04-30T09:10:19Z</time></trkpt><trkpt lat="37.602995014338845" lon="13.993298081317908"><ele>706.0</ele><time>2026-04-30T09:10:20.001Z</time></trkpt><trkpt lat="37.60297627129239" lon="13.993210289223171"><ele>706.0</ele><time>2026-04-30T09:10:21.001Z</time></trkpt><trkpt lat="37.60294738069224" lon="13.993134986107407"><ele>706.0</ele><time>2026-04-30T09:10:23.001Z</time></trkpt><trkpt lat="37.602876354355914" lon="13.993139960562672"><ele>706.0</ele><time>2026-04-30T09:10:25.001Z</time></trkpt><trkpt lat="37.60279498397849" lon="13.993145566506414"><ele>704.1666666666667</ele><time>2026-04-30T09:10:27.001Z</time></trkpt><trkpt lat="37.60272494073143" lon="13.993114501324474"><ele>702.3333333333334</ele><time>2026-04-30T09:10:28.001Z</time></trkpt><trkpt lat="37.602636985374815" lon="13.99311212708742"><ele>700.5</ele><time>2026-04-30T09:10:29.001Z</time></trkpt><trkpt lat="37.60255507210862" lon="13.993059639335476"><ele>698.6666666666666</ele><time>2026-04-30T09:10:30.001Z</time></trkpt><trkpt lat="37.60248645105456" lon="13.993012588573242"><ele>696.8333333333333</ele><time>2026-04-30T09:10:31.001Z</time></trkpt><trkpt lat="37.60239509531029" lon="13.992926824100351"><ele>695.0</ele><time>2026-04-30T09:10:33.001Z</time></trkpt><trkpt lat="37.60237164201824" lon="13.992848447912447"><ele>695.0</ele><time>2026-04-30T09:10:34.001Z</time></trkpt><trkpt lat="37.602336985204374" lon="13.992752470836718"><ele>695.0</ele><time>2026-04-30T09:10:35.001Z</time></trkpt><trkpt lat="37.602295509520054" lon="13.99265538305952"><ele>695.0</ele><time>2026-04-30T09:10:36.001Z</time></trkpt><trkpt lat="37.60226174056143" lon="13.992561745974173"><ele>695.0</ele><time>2026-04-30T09:10:37.001Z</time></trkpt><trkpt lat="37.60224265470152" lon="13.99246167449991"><ele>695.0</ele><time>2026-04-30T09:10:38.001Z</time></trkpt><trkpt lat="37.60223643701414" lon="13.992377836822858"><ele>695.0</ele><time>2026-04-30T09:10:39.001Z</time></trkpt><trkpt lat="37.602220074299346" lon="13.992245379284117"><ele>695.8333333333333</ele><time>2026-04-30T09:10:41.001Z</time></trkpt><trkpt lat="37.602193316027254" lon="13.99210654989933"><ele>696.6666666666666</ele><time>2026-04-30T09:10:43.001Z</time></trkpt><trkpt lat="37.602116667703896" lon="13.991984042764976"><ele>697.5</ele><time>2026-04-30T09:10:45.001Z</time></trkpt><trkpt lat="37.6020654359066" lon="13.991937544579175"><ele>698.3333333333334</ele><time>2026-04-30T09:10:46.001Z</time></trkpt><trkpt lat="37.60201556417552" lon="13.99188061396151"><ele>699.1666666666667</ele><time>2026-04-30T09:10:47.001Z</time></trkpt><trkpt lat="37.60193843029078" lon="13.991846733100145"><ele>700.0</ele><time>2026-04-30T09:10:48.001Z</time></trkpt><trkpt lat="37.60186259886145" lon="13.991809790548182"><ele>697.6666666666667</ele><time>2026-04-30T09:10:49.001Z</time></trkpt><trkpt lat="37.60179464109381" lon="13.991774898241276"><ele>695.3333333333334</ele><time>2026-04-30T09:10:50.001Z</time></trkpt><trkpt lat="37.60172160045751" lon="13.991755641559383"><ele>693.0</ele><time>2026-04-30T09:10:51.001Z</time></trkpt><trkpt lat="37.60165649275937" lon="13.991719347671054"><ele>690.6666666666666</ele><time>2026-04-30T09:10:52.001Z</time></trkpt><trkpt lat="37.60158145142039" lon="13.991708557959198"><ele>688.3333333333333</ele><time>2026-04-30T09:10:53.001Z</time></trkpt><trkpt lat="37.6015038145539" lon="13.991697912001957"><ele>686.0</ele><time>2026-04-30T09:10:54.001Z</time></trkpt><trkpt lat="37.60143244738657" lon="13.991754217759578"><ele>686.0</ele><time>2026-04-30T09:10:55.001Z</time></trkpt><trkpt lat="37.601357178358235" lon="13.99178549802694"><ele>686.0</ele><time>2026-04-30T09:10:56.001Z</time></trkpt><trkpt lat="37.601297675412894" lon="13.991852765664918"><ele>686.0</ele><time>2026-04-30T09:10:57.001Z</time></trkpt><trkpt lat="37.60127171478375" lon="13.991948990890638"><ele>686.0</ele><time>2026-04-30T09:10:58.001Z</time></trkpt><trkpt lat="37.60126436744064" lon="13.99203546354298"><ele>686.0</ele><time>2026-04-30T09:10:59.001Z</time></trkpt><trkpt lat="37.601293569086735" lon="13.992120919340682"><ele>686.0</ele><time>2026-04-30T09:11:00.001Z</time></trkpt><trkpt lat="37.601317791811546" lon="13.992200514463596"><ele>686.0</ele><time>2026-04-30T09:11:01.001Z</time></trkpt><trkpt lat="37.60135126709951" lon="13.992281006600194"><ele>686.0</ele><time>2026-04-30T09:11:02.001Z</time></trkpt><trkpt lat="37.601370623734624" lon="13.992372149615043"><ele>686.0</ele><time>2026-04-30T09:11:03.001Z</time></trkpt><trkpt lat="37.60140261671882" lon="13.992461792153952"><ele>686.0</ele><time>2026-04-30T09:11:04.001Z</time></trkpt><trkpt lat="37.60145253076882" lon="13.992544231771342"><ele>686.0</ele><time>2026-04-30T09:11:05.001Z</time></trkpt><trkpt lat="37.60148976433737" lon="13.992640642051978"><ele>686.0</ele><time>2026-04-30T09:11:06.001Z</time></trkpt><trkpt lat="37.60153096911001" lon="13.992729854565832"><ele>685.5</ele><time>2026-04-30T09:11:07.001Z</time></trkpt><trkpt lat="37.60155592354492" lon="13.992823263300238"><ele>685.0</ele><time>2026-04-30T09:11:08.001Z</time></trkpt><trkpt lat="37.60158831406634" lon="13.992906202611218"><ele>684.5</ele><time>2026-04-30T09:11:09.001Z</time></trkpt><trkpt lat="37.60160834979917" lon="13.992987450664655"><ele>684.0</ele><time>2026-04-30T09:11:10.001Z</time></trkpt><trkpt lat="37.601573765617744" lon="13.993119083923897"><ele>683.5</ele><time>2026-04-30T09:11:12.001Z</time></trkpt><trkpt lat="37.60147690696311" lon="13.993199469783072"><ele>683.0</ele><time>2026-04-30T09:11:14.001Z</time></trkpt><trkpt lat="37.6014145446379" lon="13.993210365007494"><ele>683.0</ele><time>2026-04-30T09:11:15.001Z</time></trkpt><trkpt lat="37.60129948579664" lon="13.993175607112706"><ele>683.0</ele><time>2026-04-30T09:11:17.001Z</time></trkpt><trkpt lat="37.60122846283898" lon="13.993101657441011"><ele>683.0</ele><time>2026-04-30T09:11:19.001Z</time></trkpt><trkpt lat="37.60118112790731" lon="13.99296400564599"><ele>683.0</ele><time>2026-04-30T09:11:21.001Z</time></trkpt><trkpt lat="37.60115851976393" lon="13.992845719867434"><ele>683.0</ele><time>2026-04-30T09:11:22.001Z</time></trkpt><trkpt lat="37.60113536579737" lon="13.992726318177324"><ele>681.5</ele><time>2026-04-30T09:11:23.001Z</time></trkpt><trkpt lat="37.60109702131006" lon="13.99260275158948"><ele>680.0</ele><time>2026-04-30T09:11:24.001Z</time></trkpt><trkpt lat="37.60106177225507" lon="13.992502607043361"><ele>678.5</ele><time>2026-04-30T09:11:25.001Z</time></trkpt><trkpt lat="37.6010149757782" lon="13.992441885581522"><ele>677.0</ele><time>2026-04-30T09:11:26.001Z</time></trkpt><trkpt lat="37.60095652773329" lon="13.992385770594737"><ele>675.5</ele><time>2026-04-30T09:11:27.001Z</time></trkpt><trkpt lat="37.600891589243645" lon="13.992338871996635"><ele>674.0</ele><time>2026-04-30T09:11:28.001Z</time></trkpt><trkpt lat="37.60083287200914" lon="13.992294235371737"><ele>674.0</ele><time>2026-04-30T09:11:29.001Z</time></trkpt><trkpt lat="37.600779777842035" lon="13.992128418407468"><ele>674.0</ele><time>2026-04-30T09:11:31.001Z</time></trkpt><trkpt lat="37.60076052692004" lon="13.992021225723454"><ele>674.0</ele><time>2026-04-30T09:11:32.001Z</time></trkpt><trkpt lat="37.6007548495152" lon="13.991909653836471"><ele>674.0</ele><time>2026-04-30T09:11:33.001Z</time></trkpt><trkpt lat="37.600761700524004" lon="13.991760973747406"><ele>674.0</ele><time>2026-04-30T09:11:34.001Z</time></trkpt><trkpt lat="37.600778324054744" lon="13.991593799207145"><ele>674.6</ele><time>2026-04-30T09:11:35.001Z</time></trkpt><trkpt lat="37.600798490033505" lon="13.991437279270636"><ele>675.2</ele><time>2026-04-30T09:11:36.001Z</time></trkpt><trkpt lat="37.60081321894676" lon="13.991306031828076"><ele>675.8000000000001</ele><time>2026-04-30T09:11:37.001Z</time></trkpt><trkpt lat="37.600821123490775" lon="13.991204443583962"><ele>676.4000000000001</ele><time>2026-04-30T09:11:38.001Z</time></trkpt><trkpt lat="37.60081388777619" lon="13.991123567550998"><ele>677.0</ele><time>2026-04-30T09:11:39.001Z</time></trkpt><trkpt lat="37.60078528816886" lon="13.991037672323712"><ele>677.0</ele><time>2026-04-30T09:11:40.001Z</time></trkpt><trkpt lat="37.60074015247198" lon="13.990951113460262"><ele>677.0</ele><time>2026-04-30T09:11:41.001Z</time></trkpt><trkpt lat="37.60067198515049" lon="13.990878948462955"><ele>677.0</ele><time>2026-04-30T09:11:42.001Z</time></trkpt><trkpt lat="37.60059906945727" lon="13.990818893244915"><ele>677.0</ele><time>2026-04-30T09:11:43.001Z</time></trkpt><trkpt lat="37.600527381248156" lon="13.990754126756103"><ele>677.0</ele><time>2026-04-30T09:11:44.001Z</time></trkpt><trkpt lat="37.60043735939795" lon="13.990669187038405"><ele>677.4000000000001</ele><time>2026-04-30T09:11:45.001Z</time></trkpt><trkpt lat="37.60034921078645" lon="13.990585899155842"><ele>677.8000000000001</ele><time>2026-04-30T09:11:46.001Z</time></trkpt><trkpt lat="37.60027097336241" lon="13.990511095214766"><ele>678.2</ele><time>2026-04-30T09:11:47.001Z</time></trkpt><trkpt lat="37.60019414735787" lon="13.990441765817955"><ele>678.6</ele><time>2026-04-30T09:11:48.001Z</time></trkpt><trkpt lat="37.60011965749276" lon="13.990367623895436"><ele>679.0</ele><time>2026-04-30T09:11:49.001Z</time></trkpt><trkpt lat="37.60005548607469" lon="13.990298641999015"><ele>677.3333333333334</ele><time>2026-04-30T09:11:50.001Z</time></trkpt><trkpt lat="37.59999471908847" lon="13.990235965534364"><ele>675.6666666666667</ele><time>2026-04-30T09:11:51.001Z</time></trkpt><trkpt lat="37.599943935096036" lon="13.990170585907025"><ele>674.0</ele><time>2026-04-30T09:11:52.001Z</time></trkpt><trkpt lat="37.599892420845" lon="13.99009246280708"><ele>672.3333333333334</ele><time>2026-04-30T09:11:53.001Z</time></trkpt><trkpt lat="37.59983549524737" lon="13.990004204199021"><ele>670.6666666666666</ele><time>2026-04-30T09:11:54.001Z</time></trkpt><trkpt lat="37.59978183566406" lon="13.98989906958596"><ele>669.0</ele><time>2026-04-30T09:11:55.001Z</time></trkpt><trkpt lat="37.59971413956628" lon="13.98978066693988"><ele>669.0</ele><time>2026-04-30T09:11:56.001Z</time></trkpt><trkpt lat="37.59964809744485" lon="13.989667419453312"><ele>669.0</ele><time>2026-04-30T09:11:57.001Z</time></trkpt><trkpt lat="37.599584580435696" lon="13.989564187271963"><ele>669.0</ele><time>2026-04-30T09:11:58.001Z</time></trkpt><trkpt lat="37.599536497050536" lon="13.989485742058417"><ele>669.0</ele><time>2026-04-30T09:11:59.001Z</time></trkpt><trkpt lat="37.599497076919015" lon="13.989417566151289"><ele>669.0</ele><time>2026-04-30T09:12:00.001Z</time></trkpt><trkpt lat="37.599410373087785" lon="13.98933357990843"><ele>666.1666666666666</ele><time>2026-04-30T09:12:02.001Z</time></trkpt><trkpt lat="37.5993658238636" lon="13.989268699313163"><ele>663.3333333333334</ele><time>2026-04-30T09:12:03.001Z</time></trkpt><trkpt lat="37.59930500101494" lon="13.989200946323809"><ele>660.5</ele><time>2026-04-30T09:12:04.001Z</time></trkpt><trkpt lat="37.599218296246086" lon="13.98912836536465"><ele>657.6666666666667</ele><time>2026-04-30T09:12:05.001Z</time></trkpt><trkpt lat="37.59914233119536" lon="13.989029758599997"><ele>654.8333333333334</ele><time>2026-04-30T09:12:06.001Z</time></trkpt><trkpt lat="37.59910140414367" lon="13.988934446964622"><ele>652.0</ele><time>2026-04-30T09:12:07.001Z</time></trkpt><trkpt lat="37.59905131051688" lon="13.988875571397571"><ele>652.0</ele><time>2026-04-30T09:12:08.001Z</time></trkpt><trkpt lat="37.59900042162236" lon="13.988820650497955"><ele>652.0</ele><time>2026-04-30T09:12:09.001Z</time></trkpt><trkpt lat="37.59888591533346" lon="13.988793488848767"><ele>652.0</ele><time>2026-04-30T09:12:11.001Z</time></trkpt><trkpt lat="37.598825166869624" lon="13.98881917144124"><ele>652.0</ele><time>2026-04-30T09:12:12.001Z</time></trkpt><trkpt lat="37.598757380371985" lon="13.988861220201652"><ele>652.0</ele><time>2026-04-30T09:12:13.001Z</time></trkpt><trkpt lat="37.59874455076336" lon="13.988972396326345"><ele>652.0</ele><time>2026-04-30T09:12:14.001Z</time></trkpt><trkpt lat="37.59874889583893" lon="13.989065659773706"><ele>652.0</ele><time>2026-04-30T09:12:15.001Z</time></trkpt><trkpt lat="37.59878800309018" lon="13.989156878248126"><ele>652.0</ele><time>2026-04-30T09:12:16.001Z</time></trkpt><trkpt lat="37.59884441842119" lon="13.989254411726039"><ele>652.0</ele><time>2026-04-30T09:12:17.001Z</time></trkpt><trkpt lat="37.59891338385542" lon="13.989363681726894"><ele>652.0</ele><time>2026-04-30T09:12:18.001Z</time></trkpt><trkpt lat="37.598976097037095" lon="13.989487004573384"><ele>652.0</ele><time>2026-04-30T09:12:19.001Z</time></trkpt><trkpt lat="37.59900915243679" lon="13.989615969773375"><ele>651.3333333333334</ele><time>2026-04-30T09:12:20.001Z</time></trkpt><trkpt lat="37.59904428411973" lon="13.989719771812286"><ele>650.6666666666667</ele><time>2026-04-30T09:12:21.001Z</time></trkpt><trkpt lat="37.59907043809175" lon="13.989836934977198"><ele>650.0</ele><time>2026-04-30T09:12:23.001Z</time></trkpt><trkpt lat="37.59906983334991" lon="13.989931792585095"><ele>649.3333333333334</ele><time>2026-04-30T09:12:25.001Z</time></trkpt><trkpt lat="37.599029145234724" lon="13.990008900882676"><ele>648.6666666666666</ele><time>2026-04-30T09:12:27.001Z</time></trkpt><trkpt lat="37.598937884565586" lon="13.990041344658145"><ele>648.0</ele><time>2026-04-30T09:12:29.001Z</time></trkpt><trkpt lat="37.59885149746742" lon="13.990048726914413"><ele>648.0</ele><time>2026-04-30T09:12:31.001Z</time></trkpt><trkpt lat="37.598738728677006" lon="13.989937391686922"><ele>648.0</ele><time>2026-04-30T09:12:34.001Z</time></trkpt><trkpt lat="37.59868432239959" lon="13.98983857601697"><ele>648.0</ele><time>2026-04-30T09:12:35.001Z</time></trkpt><trkpt lat="37.59860324278306" lon="13.98975244749527"><ele>648.0</ele><time>2026-04-30T09:12:36.001Z</time></trkpt><trkpt lat="37.59854420696375" lon="13.989622237508858"><ele>645.8</ele><time>2026-04-30T09:12:37.001Z</time></trkpt><trkpt lat="37.59849379230488" lon="13.989523424179117"><ele>643.5999999999999</ele><time>2026-04-30T09:12:38.001Z</time></trkpt><trkpt lat="37.59842673792149" lon="13.989430587510324"><ele>641.4000000000001</ele><time>2026-04-30T09:12:39.001Z</time></trkpt><trkpt lat="37.59838010823767" lon="13.989330734337095"><ele>639.2</ele><time>2026-04-30T09:12:40.001Z</time></trkpt><trkpt lat="37.5983266555171" lon="13.989242595000734"><ele>637.0</ele><time>2026-04-30T09:12:41.001Z</time></trkpt><trkpt lat="37.59826590500395" lon="13.989138221396928"><ele>637.0</ele><time>2026-04-30T09:12:42.001Z</time></trkpt><trkpt lat="37.59820520462512" lon="13.989009397244086"><ele>637.0</ele><time>2026-04-30T09:12:43.001Z</time></trkpt><trkpt lat="37.59816903589761" lon="13.988879438752226"><ele>637.0</ele><time>2026-04-30T09:12:44.001Z</time></trkpt><trkpt lat="37.598110223996365" lon="13.988765447010957"><ele>637.0</ele><time>2026-04-30T09:12:45.001Z</time></trkpt><trkpt lat="37.59806609311562" lon="13.98865718947258"><ele>637.0</ele><time>2026-04-30T09:12:46.001Z</time></trkpt><trkpt lat="37.59801805956475" lon="13.988560600179962"><ele>637.0</ele><time>2026-04-30T09:12:47.001Z</time></trkpt><trkpt lat="37.59798974912151" lon="13.988425608999528"><ele>637.0</ele><time>2026-04-30T09:12:49.001Z</time></trkpt><trkpt lat="37.597947014832904" lon="13.98833129289856"><ele>637.0</ele><time>2026-04-30T09:12:51.001Z</time></trkpt><trkpt lat="37.59789557371754" lon="13.988270726501977"><ele>637.0</ele><time>2026-04-30T09:12:53.001Z</time></trkpt><trkpt lat="37.59778124498697" lon="13.988261149075234"><ele>637.0</ele><time>2026-04-30T09:12:55.001Z</time></trkpt><trkpt lat="37.597673420359584" lon="13.9882968897238"><ele>635.3333333333334</ele><time>2026-04-30T09:12:57.001Z</time></trkpt><trkpt lat="37.59761610801683" lon="13.988352823617342"><ele>633.6666666666667</ele><time>2026-04-30T09:12:58.001Z</time></trkpt><trkpt lat="37.5975791693692" lon="13.988433031004849"><ele>632.0</ele><time>2026-04-30T09:12:59.001Z</time></trkpt><trkpt lat="37.59755209320448" lon="13.988510740937699"><ele>630.3333333333334</ele><time>2026-04-30T09:13:00.001Z</time></trkpt><trkpt lat="37.597517754394595" lon="13.988599881200335"><ele>628.6666666666666</ele><time>2026-04-30T09:13:01.001Z</time></trkpt><trkpt lat="37.59748739221789" lon="13.988672479814703"><ele>627.0</ele><time>2026-04-30T09:13:02.001Z</time></trkpt><trkpt lat="37.59742952142941" lon="13.988824197830999"><ele>627.0</ele><time>2026-04-30T09:13:04.001Z</time></trkpt><trkpt lat="37.59740392929656" lon="13.988932118659674"><ele>627.0</ele><time>2026-04-30T09:13:05.001Z</time></trkpt><trkpt lat="37.5973676882633" lon="13.989050833640126"><ele>627.0</ele><time>2026-04-30T09:13:06.001Z</time></trkpt><trkpt lat="37.59733314426165" lon="13.989125987459692"><ele>627.0</ele><time>2026-04-30T09:13:07.001Z</time></trkpt><trkpt lat="37.59727794727706" lon="13.989175230952881"><ele>627.0</ele><time>2026-04-30T09:13:09.001Z</time></trkpt><trkpt lat="37.597199848394794" lon="13.98920419284505"><ele>627.0</ele><time>2026-04-30T09:13:11.001Z</time></trkpt><trkpt lat="37.597118970680654" lon="13.989168158580917"><ele>627.0</ele><time>2026-04-30T09:13:13.001Z</time></trkpt><trkpt lat="37.59705819264953" lon="13.989001898596339"><ele>627.0</ele><time>2026-04-30T09:13:15.001Z</time></trkpt><trkpt lat="37.59702743151664" lon="13.98888157775304"><ele>627.0</ele><time>2026-04-30T09:13:16.001Z</time></trkpt><trkpt lat="37.59698670196759" lon="13.98875644268533"><ele>627.0</ele><time>2026-04-30T09:13:17.001Z</time></trkpt><trkpt lat="37.596958712407165" lon="13.988665887267134"><ele>627.0</ele><time>2026-04-30T09:13:18.001Z</time></trkpt><trkpt lat="37.59694117754352" lon="13.988588956309886"><ele>625.0</ele><time>2026-04-30T09:13:19.001Z</time></trkpt><trkpt lat="37.59687849885666" lon="13.988549769419414"><ele>623.0</ele><time>2026-04-30T09:13:20.001Z</time></trkpt><trkpt lat="37.59676199325503" lon="13.988501977457007"><ele>621.0</ele><time>2026-04-30T09:13:22.001Z</time></trkpt><trkpt lat="37.59669182740348" lon="13.988526210082304"><ele>619.0</ele><time>2026-04-30T09:13:23.001Z</time></trkpt><trkpt lat="37.59662744716052" lon="13.98856470966226"><ele>617.0</ele><time>2026-04-30T09:13:24.001Z</time></trkpt><trkpt lat="37.596602894882935" lon="13.988663230972119"><ele>615.0</ele><time>2026-04-30T09:13:25.001Z</time></trkpt><trkpt lat="37.59658480459165" lon="13.988765838619583"><ele>615.0</ele><time>2026-04-30T09:13:26.001Z</time></trkpt><trkpt lat="37.59658287114307" lon="13.988900846339451"><ele>615.0</ele><time>2026-04-30T09:13:27.001Z</time></trkpt><trkpt lat="37.59658100935654" lon="13.98900148909565"><ele>615.0</ele><time>2026-04-30T09:13:28.001Z</time></trkpt><trkpt lat="37.59659609086229" lon="13.989091309278525"><ele>615.0</ele><time>2026-04-30T09:13:29.001Z</time></trkpt><trkpt lat="37.59664364458354" lon="13.989205865880106"><ele>615.0</ele><time>2026-04-30T09:13:30.001Z</time></trkpt><trkpt lat="37.596669835164846" lon="13.989355016603568"><ele>613.8</ele><time>2026-04-30T09:13:31.001Z</time></trkpt><trkpt lat="37.59672278794613" lon="13.989512085714937"><ele>612.6</ele><time>2026-04-30T09:13:32.001Z</time></trkpt><trkpt lat="37.59677652205301" lon="13.989640088217254"><ele>611.4</ele><time>2026-04-30T09:13:33.001Z</time></trkpt><trkpt lat="37.596788726759954" lon="13.989736726347054"><ele>610.2</ele><time>2026-04-30T09:13:34.001Z</time></trkpt><trkpt lat="37.59680705265875" lon="13.989863553865789"><ele>609.0</ele><time>2026-04-30T09:13:36.001Z</time></trkpt><trkpt lat="37.59678010172965" lon="13.989958511132132"><ele>609.0</ele><time>2026-04-30T09:13:38.001Z</time></trkpt><trkpt lat="37.596676940396705" lon="13.990060927936693"><ele>609.0</ele><time>2026-04-30T09:13:40.001Z</time></trkpt><trkpt lat="37.59656208618091" lon="13.990103856795635"><ele>609.0</ele><time>2026-04-30T09:13:42.001Z</time></trkpt><trkpt lat="37.5964675197766" lon="13.990045622514755"><ele>609.0</ele><time>2026-04-30T09:13:44.001Z</time></trkpt><trkpt lat="37.596408129768264" lon="13.989987863284806"><ele>609.0</ele><time>2026-04-30T09:13:45.001Z</time></trkpt><trkpt lat="37.59633444147863" lon="13.989922118309334"><ele>609.0</ele><time>2026-04-30T09:13:46.001Z</time></trkpt><trkpt lat="37.596266958096244" lon="13.989861147710506"><ele>609.0</ele><time>2026-04-30T09:13:47.001Z</time></trkpt><trkpt lat="37.59620702406727" lon="13.98980699792853"><ele>609.0</ele><time>2026-04-30T09:13:48.001Z</time></trkpt><trkpt lat="37.59613667013659" lon="13.989768198731179"><ele>609.0</ele><time>2026-04-30T09:13:49.001Z</time></trkpt><trkpt lat="37.59608378242821" lon="13.989695650299264"><ele>609.0</ele><time>2026-04-30T09:13:50.001Z</time></trkpt><trkpt lat="37.596017195398595" lon="13.989638937784388"><ele>609.0</ele><time>2026-04-30T09:13:51.001Z</time></trkpt><trkpt lat="37.59594621848037" lon="13.989603817723676"><ele>607.6666666666666</ele><time>2026-04-30T09:13:52.001Z</time></trkpt><trkpt lat="37.59588578852851" lon="13.989547604213572"><ele>606.3333333333334</ele><time>2026-04-30T09:13:53.001Z</time></trkpt><trkpt lat="37.59584419080204" lon="13.989458388574702"><ele>605.0</ele><time>2026-04-30T09:13:54.001Z</time></trkpt><trkpt lat="37.59580230572787" lon="13.989381623393582"><ele>603.6666666666667</ele><time>2026-04-30T09:13:55.001Z</time></trkpt><trkpt lat="37.59577214470111" lon="13.989299789283518"><ele>602.3333333333334</ele><time>2026-04-30T09:13:56.001Z</time></trkpt><trkpt lat="37.59575982455102" lon="13.989215680050727"><ele>601.0</ele><time>2026-04-30T09:13:57.001Z</time></trkpt><trkpt lat="37.59569439787606" lon="13.989068996248754"><ele>601.0</ele><time>2026-04-30T09:13:59.001Z</time></trkpt><trkpt lat="37.59562879390208" lon="13.989021554651156"><ele>601.0</ele><time>2026-04-30T09:14:00.001Z</time></trkpt><trkpt lat="37.59548748505356" lon="13.988988486372184"><ele>601.0</ele><time>2026-04-30T09:14:02.001Z</time></trkpt><trkpt lat="37.595385507186414" lon="13.98901464505761"><ele>601.0</ele><time>2026-04-30T09:14:03.001Z</time></trkpt><trkpt lat="37.595281099502884" lon="13.989025371602764"><ele>601.0</ele><time>2026-04-30T09:14:04.001Z</time></trkpt><trkpt lat="37.595181211110486" lon="13.989032989610935"><ele>598.8</ele><time>2026-04-30T09:14:05.001Z</time></trkpt><trkpt lat="37.59508460117081" lon="13.989039708449042"><ele>596.6</ele><time>2026-04-30T09:14:06.001Z</time></trkpt><trkpt lat="37.59498909870523" lon="13.989046261231975"><ele>594.4</ele><time>2026-04-30T09:14:07.001Z</time></trkpt><trkpt lat="37.59489691636073" lon="13.989054193154471"><ele>592.2</ele><time>2026-04-30T09:14:08.001Z</time></trkpt><trkpt lat="37.5948086690182" lon="13.989064966858455"><ele>590.0</ele><time>2026-04-30T09:14:09.001Z</time></trkpt><trkpt lat="37.59471474551408" lon="13.989084209224966"><ele>590.0</ele><time>2026-04-30T09:14:10.001Z</time></trkpt><trkpt lat="37.59462912119779" lon="13.989118313158798"><ele>590.0</ele><time>2026-04-30T09:14:11.001Z</time></trkpt><trkpt lat="37.59455388567576" lon="13.989155593912052"><ele>590.0</ele><time>2026-04-30T09:14:12.001Z</time></trkpt><trkpt lat="37.594485416576724" lon="13.989195432027275"><ele>590.0</ele><time>2026-04-30T09:14:13.001Z</time></trkpt><trkpt lat="37.59441410738062" lon="13.989227948809551"><ele>590.0</ele><time>2026-04-30T09:14:14.001Z</time></trkpt><trkpt lat="37.59430764210872" lon="13.989249274726117"><ele>590.0</ele><time>2026-04-30T09:14:16.001Z</time></trkpt><trkpt lat="37.59418063529838" lon="13.989187735048576"><ele>588.1666666666666</ele><time>2026-04-30T09:14:18.001Z</time></trkpt><trkpt lat="37.59410156344499" lon="13.989147632362947"><ele>586.3333333333333</ele><time>2026-04-30T09:14:19.001Z</time></trkpt><trkpt lat="37.59403225486138" lon="13.989116576030204"><ele>584.5</ele><time>2026-04-30T09:14:20.001Z</time></trkpt><trkpt lat="37.59396574757463" lon="13.98908677497728"><ele>582.6666666666666</ele><time>2026-04-30T09:14:21.001Z</time></trkpt><trkpt lat="37.593867852367985" lon="13.989030087413932"><ele>580.8333333333334</ele><time>2026-04-30T09:14:23.001Z</time></trkpt><trkpt lat="37.59382602511499" lon="13.988967073373516"><ele>579.0</ele><time>2026-04-30T09:14:26.001Z</time></trkpt><trkpt lat="37.59383049211758" lon="13.98885306011187"><ele>579.0</ele><time>2026-04-30T09:14:53.001Z</time></trkpt><trkpt lat="37.59389212388497" lon="13.988769032745722"><ele>579.0</ele><time>2026-04-30T09:14:55.001Z</time></trkpt><trkpt lat="37.5939631869076" lon="13.988757394973721"><ele>579.0</ele><time>2026-04-30T09:14:57.001Z</time></trkpt><trkpt lat="37.594065421547555" lon="13.988782430180194"><ele>579.0</ele><time>2026-04-30T09:14:59.001Z</time></trkpt><trkpt lat="37.59412546282755" lon="13.988812171003735"><ele>579.0</ele><time>2026-04-30T09:15:00.001Z</time></trkpt><trkpt lat="37.59419008656336" lon="13.988830179095777"><ele>579.0</ele><time>2026-04-30T09:15:01.001Z</time></trkpt><trkpt lat="37.59429980436611" lon="13.988783473701336"><ele>579.0</ele><time>2026-04-30T09:15:03.001Z</time></trkpt><trkpt lat="37.59434278478627" lon="13.988719245816299"><ele>579.0</ele><time>2026-04-30T09:15:04.001Z</time></trkpt><trkpt lat="37.594385073482094" lon="13.988623181800342"><ele>579.0</ele><time>2026-04-30T09:15:05.001Z</time></trkpt><trkpt lat="37.59443415940312" lon="13.988496429100222"><ele>579.0</ele><time>2026-04-30T09:15:06.001Z</time></trkpt><trkpt lat="37.59448066223915" lon="13.988387240476474"><ele>579.0</ele><time>2026-04-30T09:15:07.001Z</time></trkpt><trkpt lat="37.594531408848916" lon="13.988294449896197"><ele>578.8333333333334</ele><time>2026-04-30T09:15:08.001Z</time></trkpt><trkpt lat="37.59457412145775" lon="13.98821427245686"><ele>578.6666666666666</ele><time>2026-04-30T09:15:09.001Z</time></trkpt><trkpt lat="37.59460402888917" lon="13.988091120615358"><ele>578.5</ele><time>2026-04-30T09:15:11.001Z</time></trkpt><trkpt lat="37.59456267655511" lon="13.987976706680861"><ele>578.3333333333333</ele><time>2026-04-30T09:15:13.001Z</time></trkpt><trkpt lat="37.594511767948674" lon="13.98792889619926"><ele>578.1666666666666</ele><time>2026-04-30T09:15:14.001Z</time></trkpt><trkpt lat="37.594450668016144" lon="13.987899941198078"><ele>578.0</ele><time>2026-04-30T09:15:15.001Z</time></trkpt><trkpt lat="37.59438462952495" lon="13.987881869968342"><ele>578.0</ele><time>2026-04-30T09:15:16.001Z</time></trkpt><trkpt lat="37.59431005717883" lon="13.98786489009499"><ele>578.0</ele><time>2026-04-30T09:15:17.001Z</time></trkpt><trkpt lat="37.59422604525787" lon="13.987872298814368"><ele>578.0</ele><time>2026-04-30T09:15:18.001Z</time></trkpt><trkpt lat="37.594140599463245" lon="13.987887316568973"><ele>578.0</ele><time>2026-04-30T09:15:19.001Z</time></trkpt><trkpt lat="37.594066551821875" lon="13.987903272438816"><ele>578.0</ele><time>2026-04-30T09:15:20.001Z</time></trkpt><trkpt lat="37.59399184499475" lon="13.987920244843849"><ele>578.0</ele><time>2026-04-30T09:15:21.001Z</time></trkpt><trkpt lat="37.59392487201587" lon="13.987957184012004"><ele>578.0</ele><time>2026-04-30T09:15:22.001Z</time></trkpt><trkpt lat="37.59385437266196" lon="13.987945157762574"><ele>578.0</ele><time>2026-04-30T09:15:23.001Z</time></trkpt><trkpt lat="37.5937854016342" lon="13.987942930027515"><ele>578.0</ele><time>2026-04-30T09:15:24.001Z</time></trkpt><trkpt lat="37.59371827939487" lon="13.987923895541297"><ele>578.0</ele><time>2026-04-30T09:15:25.001Z</time></trkpt><trkpt lat="37.593626882546225" lon="13.987873965409468"><ele>578.0</ele><time>2026-04-30T09:15:26.001Z</time></trkpt><trkpt lat="37.593537878844096" lon="13.987819855728398"><ele>578.0</ele><time>2026-04-30T09:15:27.001Z</time></trkpt><trkpt lat="37.59345685837929" lon="13.98776754183443"><ele>576.5714285714286</ele><time>2026-04-30T09:15:28.001Z</time></trkpt><trkpt lat="37.59338620846653" lon="13.987720378721267"><ele>575.1428571428571</ele><time>2026-04-30T09:15:29.001Z</time></trkpt><trkpt lat="37.59331811336661" lon="13.987699656920833"><ele>573.7142857142857</ele><time>2026-04-30T09:15:30.001Z</time></trkpt><trkpt lat="37.593245242343656" lon="13.987694898254682"><ele>572.2857142857142</ele><time>2026-04-30T09:15:31.001Z</time></trkpt><trkpt lat="37.59318012317143" lon="13.987731442262978"><ele>570.8571428571428</ele><time>2026-04-30T09:15:32.001Z</time></trkpt><trkpt lat="37.59311510845285" lon="13.98773392542864"><ele>569.4285714285714</ele><time>2026-04-30T09:15:33.001Z</time></trkpt><trkpt lat="37.59302611561805" lon="13.98773685387595"><ele>568.0</ele><time>2026-04-30T09:15:35.001Z</time></trkpt><trkpt lat="37.59298173162407" lon="13.987641398832686"><ele>567.4</ele><time>2026-04-30T09:15:37.001Z</time></trkpt><trkpt lat="37.5929999423046" lon="13.9874705697969"><ele>566.8</ele><time>2026-04-30T09:15:39.001Z</time></trkpt><trkpt lat="37.59302573325205" lon="13.987360739990033"><ele>566.2</ele><time>2026-04-30T09:15:40.001Z</time></trkpt><trkpt lat="37.59307890835523" lon="13.987268182305328"><ele>565.6</ele><time>2026-04-30T09:15:41.001Z</time></trkpt><trkpt lat="37.59314141337012" lon="13.987163331179177"><ele>565.0</ele><time>2026-04-30T09:15:42.001Z</time></trkpt><trkpt lat="37.59319767080612" lon="13.987068602700967"><ele>565.0</ele><time>2026-04-30T09:15:43.001Z</time></trkpt><trkpt lat="37.59324944128829" lon="13.986979255756829"><ele>565.0</ele><time>2026-04-30T09:15:44.001Z</time></trkpt><trkpt lat="37.593302415812865" lon="13.986895899110294"><ele>565.0</ele><time>2026-04-30T09:15:45.001Z</time></trkpt><trkpt lat="37.5933608945706" lon="13.986820484333213"><ele>565.0</ele><time>2026-04-30T09:15:46.001Z</time></trkpt><trkpt lat="37.59341085811317" lon="13.98673312454945"><ele>565.0</ele><time>2026-04-30T09:15:47.001Z</time></trkpt><trkpt lat="37.59344314874471" lon="13.9866587216113"><ele>565.0</ele><time>2026-04-30T09:15:48.001Z</time></trkpt><trkpt lat="37.593423087112626" lon="13.986513013115276"><ele>563.6</ele><time>2026-04-30T09:15:50.001Z</time></trkpt><trkpt lat="37.5933674623051" lon="13.986451066966813"><ele>562.2</ele><time>2026-04-30T09:15:51.001Z</time></trkpt><trkpt lat="37.59328811836096" lon="13.986418129232415"><ele>560.8</ele><time>2026-04-30T09:15:52.001Z</time></trkpt><trkpt lat="37.593221284457904" lon="13.986423438836283"><ele>559.4</ele><time>2026-04-30T09:15:53.001Z</time></trkpt><trkpt lat="37.593098342585705" lon="13.986531219334676"><ele>558.0</ele><time>2026-04-30T09:15:55.001Z</time></trkpt><trkpt lat="37.59302323708336" lon="13.986642149879051"><ele>559.4</ele><time>2026-04-30T09:15:56.001Z</time></trkpt><trkpt lat="37.59296098904682" lon="13.986733527673787"><ele>560.8</ele><time>2026-04-30T09:15:57.001Z</time></trkpt><trkpt lat="37.592915269790105" lon="13.986797543804323"><ele>562.2</ele><time>2026-04-30T09:15:58.001Z</time></trkpt><trkpt lat="37.592826786657774" lon="13.98691281478538"><ele>563.6</ele><time>2026-04-30T09:16:00.001Z</time></trkpt><trkpt lat="37.59277911592819" lon="13.986969067909142"><ele>565.0</ele><time>2026-04-30T09:16:01.001Z</time></trkpt><trkpt lat="37.5926895929837" lon="13.987020918440349"><ele>562.0</ele><time>2026-04-30T09:16:03.001Z</time></trkpt><trkpt lat="37.59257881343983" lon="13.986993753350765"><ele>559.0</ele><time>2026-04-30T09:16:05.001Z</time></trkpt><trkpt lat="37.592475101295946" lon="13.986872923285919"><ele>556.0</ele><time>2026-04-30T09:16:07.001Z</time></trkpt><trkpt lat="37.59241139826797" lon="13.986798972612776"><ele>553.0</ele><time>2026-04-30T09:16:08.001Z</time></trkpt><trkpt lat="37.59233911507452" lon="13.986743414865796"><ele>550.0</ele><time>2026-04-30T09:16:09.001Z</time></trkpt><trkpt lat="37.592279172542966" lon="13.98667705295404"><ele>549.8</ele><time>2026-04-30T09:16:10.001Z</time></trkpt><trkpt lat="37.59223164830463" lon="13.986604552943412"><ele>549.6</ele><time>2026-04-30T09:16:11.001Z</time></trkpt><trkpt lat="37.592180025757685" lon="13.986551202332471"><ele>549.4</ele><time>2026-04-30T09:16:12.001Z</time></trkpt><trkpt lat="37.59208956376351" lon="13.986459015848036"><ele>549.2</ele><time>2026-04-30T09:16:14.001Z</time></trkpt><trkpt lat="37.59199158986811" lon="13.986382030565629"><ele>549.0</ele><time>2026-04-30T09:16:16.001Z</time></trkpt><trkpt lat="37.59190161432249" lon="13.986286247012746"><ele>546.8333333333334</ele><time>2026-04-30T09:16:18.001Z</time></trkpt><trkpt lat="37.59184845532994" lon="13.98623979898785"><ele>544.6666666666666</ele><time>2026-04-30T09:16:19.001Z</time></trkpt><trkpt lat="37.59179243677333" lon="13.98618366396295"><ele>542.5</ele><time>2026-04-30T09:16:20.001Z</time></trkpt><trkpt lat="37.59171407198613" lon="13.986106654590031"><ele>540.3333333333333</ele><time>2026-04-30T09:16:21.001Z</time></trkpt><trkpt lat="37.591638029151746" lon="13.986037022476982"><ele>538.1666666666666</ele><time>2026-04-30T09:16:22.001Z</time></trkpt><trkpt lat="37.591580170912955" lon="13.985962218974576"><ele>536.0</ele><time>2026-04-30T09:16:23.001Z</time></trkpt><trkpt lat="37.59152667548346" lon="13.985906878714754"><ele>536.0</ele><time>2026-04-30T09:16:24.001Z</time></trkpt><trkpt lat="37.59146977365994" lon="13.985862049666954"><ele>536.0</ele><time>2026-04-30T09:16:25.001Z</time></trkpt><trkpt lat="37.591435522083195" lon="13.985749643046281"><ele>536.0</ele><time>2026-04-30T09:16:26.001Z</time></trkpt><trkpt lat="37.59141191811088" lon="13.985597667432137"><ele>536.0</ele><time>2026-04-30T09:16:27.001Z</time></trkpt><trkpt lat="37.59139584124925" lon="13.985462038298506"><ele>536.0</ele><time>2026-04-30T09:16:28.001Z</time></trkpt><trkpt lat="37.591381942242556" lon="13.985311817858129"><ele>535.75</ele><time>2026-04-30T09:16:29.001Z</time></trkpt><trkpt lat="37.59135388044752" lon="13.985133167036375"><ele>535.5</ele><time>2026-04-30T09:16:30.001Z</time></trkpt><trkpt lat="37.591319541887856" lon="13.984951050181117"><ele>535.25</ele><time>2026-04-30T09:16:31.001Z</time></trkpt><trkpt lat="37.59130681818715" lon="13.984780510419235"><ele>535.0</ele><time>2026-04-30T09:16:32.001Z</time></trkpt><trkpt lat="37.59126393838918" lon="13.98463201440319"><ele>535.0</ele><time>2026-04-30T09:16:33.001Z</time></trkpt><trkpt lat="37.591233892239366" lon="13.984494623645231"><ele>535.0</ele><time>2026-04-30T09:16:34.001Z</time></trkpt><trkpt lat="37.591190527910584" lon="13.984346651127566"><ele>535.0</ele><time>2026-04-30T09:16:35.001Z</time></trkpt><trkpt lat="37.59114144265935" lon="13.984194286034358"><ele>535.0</ele><time>2026-04-30T09:16:36.001Z</time></trkpt><trkpt lat="37.59108128156904" lon="13.984024503531396"><ele>534.25</ele><time>2026-04-30T09:16:37.001Z</time></trkpt><trkpt lat="37.591039023681354" lon="13.983848998934556"><ele>533.5</ele><time>2026-04-30T09:16:38.001Z</time></trkpt><trkpt lat="37.59098821815997" lon="13.983699426378399"><ele>532.75</ele><time>2026-04-30T09:16:39.001Z</time></trkpt><trkpt lat="37.59093864853524" lon="13.98356521012991"><ele>532.0</ele><time>2026-04-30T09:16:40.001Z</time></trkpt><trkpt lat="37.59088854841065" lon="13.983439979075202"><ele>532.4</ele><time>2026-04-30T09:16:41.001Z</time></trkpt><trkpt lat="37.59083601434772" lon="13.983323273481012"><ele>532.8000000000001</ele><time>2026-04-30T09:16:42.001Z</time></trkpt><trkpt lat="37.59076490234971" lon="13.983239478040582"><ele>533.2</ele><time>2026-04-30T09:16:43.001Z</time></trkpt><trkpt lat="37.59071745447722" lon="13.983142315640068"><ele>533.6</ele><time>2026-04-30T09:16:44.001Z</time></trkpt><trkpt lat="37.59064366261624" lon="13.983053367649132"><ele>534.0</ele><time>2026-04-30T09:16:45.001Z</time></trkpt><trkpt lat="37.590559737595406" lon="13.982961987343872"><ele>534.0</ele><time>2026-04-30T09:16:46.001Z</time></trkpt><trkpt lat="37.59047580773531" lon="13.982873487769362"><ele>534.0</ele><time>2026-04-30T09:16:47.001Z</time></trkpt><trkpt lat="37.590383411253924" lon="13.982776060837205"><ele>534.0</ele><time>2026-04-30T09:16:48.001Z</time></trkpt><trkpt lat="37.590289425661524" lon="13.982677621661274"><ele>534.0</ele><time>2026-04-30T09:16:49.001Z</time></trkpt><trkpt lat="37.59019243430731" lon="13.982579234990196"><ele>533.8</ele><time>2026-04-30T09:16:50.001Z</time></trkpt><trkpt lat="37.590095680482065" lon="13.982481089161338"><ele>533.5999999999999</ele><time>2026-04-30T09:16:51.001Z</time></trkpt><trkpt lat="37.59000723131529" lon="13.982392128664609"><ele>533.4</ele><time>2026-04-30T09:16:52.001Z</time></trkpt><trkpt lat="37.58992374843623" lon="13.98230859331224"><ele>533.1999999999999</ele><time>2026-04-30T09:16:53.001Z</time></trkpt><trkpt lat="37.58984656016178" lon="13.98223025956048"><ele>533.0</ele><time>2026-04-30T09:16:54.001Z</time></trkpt><trkpt lat="37.58977628898096" lon="13.982149814411253"><ele>533.0</ele><time>2026-04-30T09:16:55.001Z</time></trkpt><trkpt lat="37.589709728003534" lon="13.982072961295119"><ele>533.0</ele><time>2026-04-30T09:16:56.001Z</time></trkpt><trkpt lat="37.58964289257237" lon="13.981995876492354"><ele>533.0</ele><time>2026-04-30T09:16:57.001Z</time></trkpt><trkpt lat="37.589567618666635" lon="13.981909058081392"><ele>533.0</ele><time>2026-04-30T09:16:58.001Z</time></trkpt><trkpt lat="37.58946733317092" lon="13.981826318607578"><ele>533.0</ele><time>2026-04-30T09:16:59.001Z</time></trkpt><trkpt lat="37.58939378202978" lon="13.981726322529122"><ele>532.25</ele><time>2026-04-30T09:17:00.001Z</time></trkpt><trkpt lat="37.5893065545545" lon="13.981636344686313"><ele>531.5</ele><time>2026-04-30T09:17:01.001Z</time></trkpt><trkpt lat="37.58920906466181" lon="13.98153578091705"><ele>530.75</ele><time>2026-04-30T09:17:02.001Z</time></trkpt><trkpt lat="37.58911716765772" lon="13.981440986252416"><ele>530.0</ele><time>2026-04-30T09:17:03.001Z</time></trkpt><trkpt lat="37.589038037330376" lon="13.981356453192356"><ele>530.0</ele><time>2026-04-30T09:17:04.001Z</time></trkpt><trkpt lat="37.58894787871331" lon="13.981257286537486"><ele>530.0</ele><time>2026-04-30T09:17:05.001Z</time></trkpt><trkpt lat="37.5888369704048" lon="13.981145803395137"><ele>530.0</ele><time>2026-04-30T09:17:06.001Z</time></trkpt><trkpt lat="37.58873958359091" lon="13.981035362877241"><ele>530.0</ele><time>2026-04-30T09:17:07.001Z</time></trkpt><trkpt lat="37.5886432692169" lon="13.980936465757459"><ele>530.5</ele><time>2026-04-30T09:17:08.001Z</time></trkpt><trkpt lat="37.588582686619255" lon="13.980806478358419"><ele>531.0</ele><time>2026-04-30T09:17:09.001Z</time></trkpt><trkpt lat="37.588532150609154" lon="13.98066840350302"><ele>531.5</ele><time>2026-04-30T09:17:10.001Z</time></trkpt><trkpt lat="37.58849227735023" lon="13.980520728453289"><ele>532.0</ele><time>2026-04-30T09:17:11.001Z</time></trkpt><trkpt lat="37.58846539516355" lon="13.980378499568785"><ele>532.0</ele><time>2026-04-30T09:17:12.001Z</time></trkpt><trkpt lat="37.58846021685813" lon="13.98021211730478"><ele>532.0</ele><time>2026-04-30T09:17:13.001Z</time></trkpt><trkpt lat="37.58845326694786" lon="13.980044367955609"><ele>532.0</ele><time>2026-04-30T09:17:14.001Z</time></trkpt><trkpt lat="37.58846014608501" lon="13.979871053417595"><ele>532.0</ele><time>2026-04-30T09:17:15.001Z</time></trkpt><trkpt lat="37.58848140686666" lon="13.979696897390928"><ele>532.75</ele><time>2026-04-30T09:17:16.001Z</time></trkpt><trkpt lat="37.58851030976265" lon="13.979512092536979"><ele>533.5</ele><time>2026-04-30T09:17:17.001Z</time></trkpt><trkpt lat="37.588526181239224" lon="13.97932165787901"><ele>534.25</ele><time>2026-04-30T09:17:18.001Z</time></trkpt><trkpt lat="37.588544434515974" lon="13.979174185335902"><ele>535.0</ele><time>2026-04-30T09:17:19.001Z</time></trkpt><trkpt lat="37.58854443657107" lon="13.979054420860983"><ele>535.0</ele><time>2026-04-30T09:17:20.001Z</time></trkpt><trkpt lat="37.588520319828554" lon="13.978934829258192"><ele>535.0</ele><time>2026-04-30T09:17:21.001Z</time></trkpt><trkpt lat="37.58847708150331" lon="13.978778873959707"><ele>535.0</ele><time>2026-04-30T09:17:22.001Z</time></trkpt><trkpt lat="37.58842616041069" lon="13.978594166118496"><ele>535.0</ele><time>2026-04-30T09:17:23.001Z</time></trkpt><trkpt lat="37.588382563056584" lon="13.97841672515309"><ele>536.75</ele><time>2026-04-30T09:17:24.001Z</time></trkpt><trkpt lat="37.58834176125663" lon="13.978256115181521"><ele>538.5</ele><time>2026-04-30T09:17:25.001Z</time></trkpt><trkpt lat="37.58830378734471" lon="13.978102769654601"><ele>540.25</ele><time>2026-04-30T09:17:26.001Z</time></trkpt><trkpt lat="37.58826072143497" lon="13.977957995359171"><ele>542.0</ele><time>2026-04-30T09:17:27.001Z</time></trkpt><trkpt lat="37.588218857097615" lon="13.97782759770256"><ele>542.0</ele><time>2026-04-30T09:17:28.001Z</time></trkpt><trkpt lat="37.58816386488658" lon="13.977710723401707"><ele>542.0</ele><time>2026-04-30T09:17:29.001Z</time></trkpt><trkpt lat="37.58808468763349" lon="13.977598783351183"><ele>542.0</ele><time>2026-04-30T09:17:30.001Z</time></trkpt><trkpt lat="37.58799452979844" lon="13.977514384820932"><ele>542.0</ele><time>2026-04-30T09:17:31.001Z</time></trkpt><trkpt lat="37.58791129501844" lon="13.977446132337443"><ele>542.0</ele><time>2026-04-30T09:17:32.001Z</time></trkpt><trkpt lat="37.587840530931196" lon="13.977347699780214"><ele>540.2</ele><time>2026-04-30T09:17:33.001Z</time></trkpt><trkpt lat="37.587755325826876" lon="13.97726299159257"><ele>538.4000000000001</ele><time>2026-04-30T09:17:34.001Z</time></trkpt><trkpt lat="37.58766043364299" lon="13.977198891240954"><ele>536.5999999999999</ele><time>2026-04-30T09:17:35.001Z</time></trkpt><trkpt lat="37.58758303653008" lon="13.977105517472575"><ele>534.8</ele><time>2026-04-30T09:17:36.001Z</time></trkpt><trkpt lat="37.58749005061642" lon="13.977056155315768"><ele>533.0</ele><time>2026-04-30T09:17:37.001Z</time></trkpt><trkpt lat="37.58741458314558" lon="13.976977057941388"><ele>533.0</ele><time>2026-04-30T09:17:38.001Z</time></trkpt><trkpt lat="37.587333923040454" lon="13.97692011826136"><ele>533.0</ele><time>2026-04-30T09:17:39.001Z</time></trkpt><trkpt lat="37.5872355329189" lon="13.976862953171969"><ele>533.0</ele><time>2026-04-30T09:17:40.001Z</time></trkpt><trkpt lat="37.58713286124232" lon="13.976844492480573"><ele>533.0</ele><time>2026-04-30T09:17:41.001Z</time></trkpt><trkpt lat="37.587027665906696" lon="13.97686726865504"><ele>533.0</ele><time>2026-04-30T09:17:42.001Z</time></trkpt><trkpt lat="37.586913172131766" lon="13.976880407288283"><ele>531.5</ele><time>2026-04-30T09:17:43.001Z</time></trkpt><trkpt lat="37.586778167261144" lon="13.97689586465762"><ele>530.0</ele><time>2026-04-30T09:17:44.001Z</time></trkpt><trkpt lat="37.58662928109564" lon="13.976911316471154"><ele>528.5</ele><time>2026-04-30T09:17:45.001Z</time></trkpt><trkpt lat="37.586494942759074" lon="13.976924732991062"><ele>527.0</ele><time>2026-04-30T09:17:46.001Z</time></trkpt><trkpt lat="37.58637857296919" lon="13.97693604891488"><ele>527.0</ele><time>2026-04-30T09:17:47.001Z</time></trkpt><trkpt lat="37.58627195279287" lon="13.976945221700968"><ele>527.0</ele><time>2026-04-30T09:17:48.001Z</time></trkpt><trkpt lat="37.58616296245316" lon="13.976950355169041"><ele>527.0</ele><time>2026-04-30T09:17:49.001Z</time></trkpt><trkpt lat="37.58605251550101" lon="13.976963073736199"><ele>527.0</ele><time>2026-04-30T09:17:50.001Z</time></trkpt><trkpt lat="37.58593868731238" lon="13.97687936484241"><ele>525.5</ele><time>2026-04-30T09:17:51.001Z</time></trkpt><trkpt lat="37.58579954473123" lon="13.976816241206585"><ele>524.0</ele><time>2026-04-30T09:17:52.001Z</time></trkpt><trkpt lat="37.58566935857171" lon="13.976760478925163"><ele>522.5</ele><time>2026-04-30T09:17:53.001Z</time></trkpt><trkpt lat="37.58554668337205" lon="13.976713585780576"><ele>521.0</ele><time>2026-04-30T09:17:54.001Z</time></trkpt><trkpt lat="37.58541455444237" lon="13.976667580210707"><ele>525.5</ele><time>2026-04-30T09:17:55.001Z</time></trkpt><trkpt lat="37.585289833286495" lon="13.976625929747831"><ele>530.0</ele><time>2026-04-30T09:17:56.001Z</time></trkpt><trkpt lat="37.5851669582312" lon="13.976581483442494"><ele>534.5</ele><time>2026-04-30T09:17:57.001Z</time></trkpt><trkpt lat="37.585040360378635" lon="13.976540629830566"><ele>539.0</ele><time>2026-04-30T09:17:58.001Z</time></trkpt><trkpt lat="37.58493639975597" lon="13.976517340266003"><ele>539.0</ele><time>2026-04-30T09:17:59.001Z</time></trkpt><trkpt lat="37.58484306488071" lon="13.976498584889324"><ele>539.0</ele><time>2026-04-30T09:18:00.001Z</time></trkpt><trkpt lat="37.58473344074487" lon="13.976469731095346"><ele>539.0</ele><time>2026-04-30T09:18:01.001Z</time></trkpt><trkpt lat="37.58464089491816" lon="13.976435215119574"><ele>539.0</ele><time>2026-04-30T09:18:02.001Z</time></trkpt><trkpt lat="37.58455368695843" lon="13.976390035409803"><ele>539.0</ele><time>2026-04-30T09:18:03.001Z</time></trkpt><trkpt lat="37.58447331175729" lon="13.97632615000824"><ele>537.4</ele><time>2026-04-30T09:18:04.001Z</time></trkpt><trkpt lat="37.58439143115127" lon="13.976250122955175"><ele>535.8</ele><time>2026-04-30T09:18:05.001Z</time></trkpt><trkpt lat="37.58430975800815" lon="13.976167363429925"><ele>534.2</ele><time>2026-04-30T09:18:06.001Z</time></trkpt><trkpt lat="37.58422673824338" lon="13.976072872648945"><ele>532.6</ele><time>2026-04-30T09:18:07.001Z</time></trkpt><trkpt lat="37.584144754402" lon="13.975973236681488"><ele>531.0</ele><time>2026-04-30T09:18:08.001Z</time></trkpt><trkpt lat="37.584066728783974" lon="13.975878445937921"><ele>535.6</ele><time>2026-04-30T09:18:09.001Z</time></trkpt><trkpt lat="37.58399276337512" lon="13.975786186260265"><ele>540.2</ele><time>2026-04-30T09:18:10.001Z</time></trkpt><trkpt lat="37.58392967734371" lon="13.975707125455042"><ele>544.8</ele><time>2026-04-30T09:18:11.001Z</time></trkpt><trkpt lat="37.583872353122544" lon="13.975637088787284"><ele>549.4</ele><time>2026-04-30T09:18:12.001Z</time></trkpt><trkpt lat="37.58380620995065" lon="13.975553309970685"><ele>554.0</ele><time>2026-04-30T09:18:14.001Z</time></trkpt><trkpt lat="37.583715819451214" lon="13.975464600898702"><ele>554.0</ele><time>2026-04-30T09:18:16.001Z</time></trkpt><trkpt lat="37.58368752017156" lon="13.975389653233865"><ele>554.0</ele><time>2026-04-30T09:18:17.001Z</time></trkpt><trkpt lat="37.58363015035567" lon="13.975296832205018"><ele>554.0</ele><time>2026-04-30T09:18:19.001Z</time></trkpt><trkpt lat="37.583604904089526" lon="13.975197343705158"><ele>554.0</ele><time>2026-04-30T09:18:21.001Z</time></trkpt><trkpt lat="37.5835732743381" lon="13.975044073406643"><ele>554.0</ele><time>2026-04-30T09:18:23.001Z</time></trkpt><trkpt lat="37.583535394964876" lon="13.97492784539348"><ele>553.2</ele><time>2026-04-30T09:18:24.001Z</time></trkpt><trkpt lat="37.58349865402923" lon="13.974811630105865"><ele>552.4</ele><time>2026-04-30T09:18:25.001Z</time></trkpt><trkpt lat="37.583435312067024" lon="13.974719923069166"><ele>551.6</ele><time>2026-04-30T09:18:26.001Z</time></trkpt><trkpt lat="37.58336434561734" lon="13.97464603130257"><ele>550.8</ele><time>2026-04-30T09:18:27.001Z</time></trkpt><trkpt lat="37.58327932415663" lon="13.974593074573919"><ele>550.0</ele><time>2026-04-30T09:18:28.001Z</time></trkpt><trkpt lat="37.58319861729015" lon="13.974545882064099"><ele>550.0</ele><time>2026-04-30T09:18:29.001Z</time></trkpt><trkpt lat="37.5831023333095" lon="13.97449528279056"><ele>550.0</ele><time>2026-04-30T09:18:30.001Z</time></trkpt><trkpt lat="37.58301238581916" lon="13.97444142878581"><ele>550.0</ele><time>2026-04-30T09:18:31.001Z</time></trkpt><trkpt lat="37.582924141971894" lon="13.974387079313441"><ele>550.0</ele><time>2026-04-30T09:18:32.001Z</time></trkpt><trkpt lat="37.582846363584636" lon="13.974338498277803"><ele>550.0</ele><time>2026-04-30T09:18:33.001Z</time></trkpt><trkpt lat="37.58277600229203" lon="13.974293256719205"><ele>549.8333333333334</ele><time>2026-04-30T09:18:34.001Z</time></trkpt><trkpt lat="37.58271581467719" lon="13.974252658935375"><ele>549.6666666666667</ele><time>2026-04-30T09:18:35.001Z</time></trkpt><trkpt lat="37.58265419760064" lon="13.974205506957478"><ele>549.5</ele><time>2026-04-30T09:18:36.001Z</time></trkpt><trkpt lat="37.582586242985094" lon="13.974141368487286"><ele>549.3333333333334</ele><time>2026-04-30T09:18:37.001Z</time></trkpt><trkpt lat="37.58252636482145" lon="13.974058756055058"><ele>549.1666666666666</ele><time>2026-04-30T09:18:38.001Z</time></trkpt><trkpt lat="37.582473257533664" lon="13.973964667210439"><ele>549.0</ele><time>2026-04-30T09:18:39.001Z</time></trkpt><trkpt lat="37.58241782412671" lon="13.973872758867522"><ele>549.0</ele><time>2026-04-30T09:18:40.001Z</time></trkpt><trkpt lat="37.58236304475253" lon="13.973779622930348"><ele>549.0</ele><time>2026-04-30T09:18:41.001Z</time></trkpt><trkpt lat="37.582313904708904" lon="13.973688733718426"><ele>549.0</ele><time>2026-04-30T09:18:42.001Z</time></trkpt><trkpt lat="37.58226888268791" lon="13.973595723071384"><ele>549.0</ele><time>2026-04-30T09:18:43.001Z</time></trkpt><trkpt lat="37.58223418613593" lon="13.973505770208142"><ele>549.0</ele><time>2026-04-30T09:18:44.001Z</time></trkpt><trkpt lat="37.58220534745685" lon="13.973414216547724"><ele>549.0</ele><time>2026-04-30T09:18:45.001Z</time></trkpt><trkpt lat="37.582176955186505" lon="13.97331708171366"><ele>550.6666666666666</ele><time>2026-04-30T09:18:46.001Z</time></trkpt><trkpt lat="37.5821512676753" lon="13.973229249953027"><ele>552.3333333333334</ele><time>2026-04-30T09:18:47.001Z</time></trkpt><trkpt lat="37.58212685374534" lon="13.973145772813597"><ele>554.0</ele><time>2026-04-30T09:18:48.001Z</time></trkpt><trkpt lat="37.582088270538286" lon="13.973071735437305"><ele>555.6666666666667</ele><time>2026-04-30T09:18:49.001Z</time></trkpt><trkpt lat="37.58206908574499" lon="13.97296601130443"><ele>557.3333333333334</ele><time>2026-04-30T09:18:50.001Z</time></trkpt><trkpt lat="37.58203718581836" lon="13.972857462299688"><ele>559.0</ele><time>2026-04-30T09:18:51.001Z</time></trkpt><trkpt lat="37.58200170829811" lon="13.972759538590767"><ele>555.8333333333334</ele><time>2026-04-30T09:18:52.001Z</time></trkpt><trkpt lat="37.581971770715185" lon="13.972663786032738"><ele>552.6666666666667</ele><time>2026-04-30T09:18:53.001Z</time></trkpt><trkpt lat="37.58194656001852" lon="13.972566379061139"><ele>549.5</ele><time>2026-04-30T09:18:54.001Z</time></trkpt><trkpt lat="37.58191929683845" lon="13.972455539823784"><ele>546.3333333333334</ele><time>2026-04-30T09:18:55.001Z</time></trkpt><trkpt lat="37.581885753809054" lon="13.97234131369444"><ele>543.1666666666666</ele><time>2026-04-30T09:18:56.001Z</time></trkpt><trkpt lat="37.58185234585144" lon="13.972229814723132"><ele>540.0</ele><time>2026-04-30T09:18:57.001Z</time></trkpt><trkpt lat="37.58182045135486" lon="13.972125550289588"><ele>540.0</ele><time>2026-04-30T09:18:58.001Z</time></trkpt><trkpt lat="37.5817884828601" lon="13.972024949451805"><ele>540.0</ele><time>2026-04-30T09:18:59.001Z</time></trkpt><trkpt lat="37.58175071144686" lon="13.97192876982985"><ele>540.0</ele><time>2026-04-30T09:19:00.001Z</time></trkpt><trkpt lat="37.58170295062636" lon="13.971836517242677"><ele>540.0</ele><time>2026-04-30T09:19:01.001Z</time></trkpt><trkpt lat="37.581649960188564" lon="13.97175666485693"><ele>540.0</ele><time>2026-04-30T09:19:02.001Z</time></trkpt><trkpt lat="37.581594824666425" lon="13.971692861313672"><ele>540.0</ele><time>2026-04-30T09:19:03.001Z</time></trkpt><trkpt lat="37.581532775037395" lon="13.971640379605025"><ele>540.0</ele><time>2026-04-30T09:19:04.001Z</time></trkpt><trkpt lat="37.58147221474145" lon="13.97161572769469"><ele>540.0</ele><time>2026-04-30T09:19:05.001Z</time></trkpt><trkpt lat="37.581398481066486" lon="13.97162310029155"><ele>540.0</ele><time>2026-04-30T09:19:06.001Z</time></trkpt><trkpt lat="37.58131088268874" lon="13.971646370510335"><ele>540.0</ele><time>2026-04-30T09:19:07.001Z</time></trkpt><trkpt lat="37.581227986250425" lon="13.971704987653425"><ele>540.0</ele><time>2026-04-30T09:19:08.001Z</time></trkpt><trkpt lat="37.58113976738678" lon="13.971740588070436"><ele>540.0</ele><time>2026-04-30T09:19:09.001Z</time></trkpt><trkpt lat="37.58105712898064" lon="13.971779170580641"><ele>537.0</ele><time>2026-04-30T09:19:10.001Z</time></trkpt><trkpt lat="37.58097397196062" lon="13.971814955411071"><ele>534.0</ele><time>2026-04-30T09:19:11.001Z</time></trkpt><trkpt lat="37.580876499968504" lon="13.971856586755957"><ele>531.0</ele><time>2026-04-30T09:19:12.001Z</time></trkpt><trkpt lat="37.58078217617185" lon="13.971869247545236"><ele>528.0</ele><time>2026-04-30T09:19:13.001Z</time></trkpt><trkpt lat="37.58069684365389" lon="13.971869288107285"><ele>525.0</ele><time>2026-04-30T09:19:14.001Z</time></trkpt><trkpt lat="37.58061524957729" lon="13.971851344829906"><ele>525.0</ele><time>2026-04-30T09:19:15.001Z</time></trkpt><trkpt lat="37.58052307514276" lon="13.971825762409672"><ele>525.0</ele><time>2026-04-30T09:19:16.001Z</time></trkpt><trkpt lat="37.58043356748988" lon="13.971791700469744"><ele>525.0</ele><time>2026-04-30T09:19:17.001Z</time></trkpt><trkpt lat="37.580349007682806" lon="13.971747797821193"><ele>525.0</ele><time>2026-04-30T09:19:18.001Z</time></trkpt><trkpt lat="37.580270626016535" lon="13.971685781899286"><ele>525.0</ele><time>2026-04-30T09:19:19.001Z</time></trkpt><trkpt lat="37.580201501448336" lon="13.971611313522136"><ele>523.6666666666666</ele><time>2026-04-30T09:19:20.001Z</time></trkpt><trkpt lat="37.58013721215648" lon="13.971535673707825"><ele>522.3333333333334</ele><time>2026-04-30T09:19:21.001Z</time></trkpt><trkpt lat="37.58007859025828" lon="13.971454827861441"><ele>521.0</ele><time>2026-04-30T09:19:22.001Z</time></trkpt><trkpt lat="37.58002437004658" lon="13.97137043799205"><ele>519.6666666666667</ele><time>2026-04-30T09:19:23.001Z</time></trkpt><trkpt lat="37.57997287094333" lon="13.971278491066458"><ele>518.3333333333334</ele><time>2026-04-30T09:19:24.001Z</time></trkpt><trkpt lat="37.57991939055088" lon="13.971188762881056"><ele>517.0</ele><time>2026-04-30T09:19:25.001Z</time></trkpt><trkpt lat="37.579852894546285" lon="13.971120579165834"><ele>517.0</ele><time>2026-04-30T09:19:26.001Z</time></trkpt><trkpt lat="37.57977412649595" lon="13.97108364251687"><ele>517.0</ele><time>2026-04-30T09:19:27.001Z</time></trkpt><trkpt lat="37.57969493126541" lon="13.971081825805147"><ele>517.0</ele><time>2026-04-30T09:19:28.001Z</time></trkpt><trkpt lat="37.57960691225703" lon="13.971124487709783"><ele>517.0</ele><time>2026-04-30T09:19:29.001Z</time></trkpt><trkpt lat="37.57952654363813" lon="13.971184070731562"><ele>517.0</ele><time>2026-04-30T09:19:30.001Z</time></trkpt><trkpt lat="37.5794397588894" lon="13.971222489780722"><ele>517.0</ele><time>2026-04-30T09:19:31.001Z</time></trkpt><trkpt lat="37.57936258212689" lon="13.97126773428225"><ele>515.8333333333334</ele><time>2026-04-30T09:19:32.001Z</time></trkpt><trkpt lat="37.5792844573667" lon="13.971308023752105"><ele>514.6666666666667</ele><time>2026-04-30T09:19:33.001Z</time></trkpt><trkpt lat="37.579211273624686" lon="13.971321439494675"><ele>513.5</ele><time>2026-04-30T09:19:34.001Z</time></trkpt><trkpt lat="37.57914134611074" lon="13.971316193472445"><ele>512.3333333333334</ele><time>2026-04-30T09:19:35.001Z</time></trkpt><trkpt lat="37.57906936444968" lon="13.97129223052446"><ele>511.1666666666667</ele><time>2026-04-30T09:19:36.001Z</time></trkpt><trkpt lat="37.57902529914501" lon="13.971219143198262"><ele>510.0</ele><time>2026-04-30T09:19:37.001Z</time></trkpt><trkpt lat="37.578968233794846" lon="13.971148443658102"><ele>510.0</ele><time>2026-04-30T09:19:38.001Z</time></trkpt><trkpt lat="37.5789137942507" lon="13.971071527020122"><ele>510.0</ele><time>2026-04-30T09:19:39.001Z</time></trkpt><trkpt lat="37.57885585156525" lon="13.970983811694094"><ele>510.0</ele><time>2026-04-30T09:19:40.001Z</time></trkpt><trkpt lat="37.578808374379555" lon="13.970899127569929"><ele>510.0</ele><time>2026-04-30T09:19:41.001Z</time></trkpt><trkpt lat="37.57876845139119" lon="13.970801406309388"><ele>510.0</ele><time>2026-04-30T09:19:42.001Z</time></trkpt><trkpt lat="37.57874972297975" lon="13.970721990058957"><ele>510.0</ele><time>2026-04-30T09:19:43.001Z</time></trkpt><trkpt lat="37.57873087586734" lon="13.970605268539709"><ele>510.2</ele><time>2026-04-30T09:19:44.001Z</time></trkpt><trkpt lat="37.57870850770556" lon="13.970480879730227"><ele>510.4</ele><time>2026-04-30T09:19:45.001Z</time></trkpt><trkpt lat="37.57868885283097" lon="13.970365823938923"><ele>510.6</ele><time>2026-04-30T09:19:46.001Z</time></trkpt><trkpt lat="37.57866800894042" lon="13.970241650376138"><ele>510.8</ele><time>2026-04-30T09:19:47.001Z</time></trkpt><trkpt lat="37.57864694927753" lon="13.97011486604336"><ele>511.0</ele><time>2026-04-30T09:19:48.001Z</time></trkpt><trkpt lat="37.57863101507797" lon="13.970004805951637"><ele>510.20000000000005</ele><time>2026-04-30T09:19:49.001Z</time></trkpt><trkpt lat="37.578623520960356" lon="13.969902057029016"><ele>509.40000000000003</ele><time>2026-04-30T09:19:50.001Z</time></trkpt><trkpt lat="37.57863450274882" lon="13.969807240407334"><ele>508.6</ele><time>2026-04-30T09:19:51.001Z</time></trkpt><trkpt lat="37.57866690420612" lon="13.96970829384556"><ele>507.8</ele><time>2026-04-30T09:19:52.001Z</time></trkpt><trkpt lat="37.57871163375985" lon="13.969600088428662"><ele>507.0</ele><time>2026-04-30T09:19:53.001Z</time></trkpt><trkpt lat="37.578771781182645" lon="13.969461502435733"><ele>507.0</ele><time>2026-04-30T09:19:54.001Z</time></trkpt><trkpt lat="37.578825754958714" lon="13.969328150312348"><ele>507.00000000000006</ele><time>2026-04-30T09:19:55.001Z</time></trkpt><trkpt lat="37.578858565181534" lon="13.96919714490995"><ele>507.00000000000006</ele><time>2026-04-30T09:19:56.001Z</time></trkpt><trkpt lat="37.578910187925835" lon="13.969104683534747"><ele>507.0</ele><time>2026-04-30T09:19:57.001Z</time></trkpt><trkpt lat="37.578944205673466" lon="13.969011166618735"><ele>507.0</ele><time>2026-04-30T09:19:58.001Z</time></trkpt><trkpt lat="37.57896825457847" lon="13.968923356421438"><ele>506.0</ele><time>2026-04-30T09:19:59.001Z</time></trkpt><trkpt lat="37.5789988434686" lon="13.968817571889"><ele>505.00000000000006</ele><time>2026-04-30T09:20:01.001Z</time></trkpt><trkpt lat="37.57902288600933" lon="13.968733096238118"><ele>504.00000000000006</ele><time>2026-04-30T09:20:04.001Z</time></trkpt><trkpt lat="37.57916808652558" lon="13.968715589338501"><ele>503.0</ele><time>2026-04-30T09:20:06.001Z</time></trkpt><trkpt lat="37.57923723067566" lon="13.968688262801683"><ele>502.0</ele><time>2026-04-30T09:20:08.001Z</time></trkpt><trkpt lat="37.579312668404995" lon="13.968664401956676"><ele>502.0</ele><time>2026-04-30T09:20:10.001Z</time></trkpt><trkpt lat="37.57941721140849" lon="13.968634960640625"><ele>502.00000000000006</ele><time>2026-04-30T09:20:12.001Z</time></trkpt><trkpt lat="37.5795335122766" lon="13.96859495478617"><ele>502.00000000000006</ele><time>2026-04-30T09:20:14.001Z</time></trkpt><trkpt lat="37.57965369484476" lon="13.968560424882863"><ele>502.0</ele><time>2026-04-30T09:20:16.001Z</time></trkpt><trkpt lat="37.57971790666491" lon="13.968539323959025"><ele>502.0</ele><time>2026-04-30T09:20:17.001Z</time></trkpt><trkpt lat="37.579786312823124" lon="13.968516371091487"><ele>501.20000000000005</ele><time>2026-04-30T09:20:18.001Z</time></trkpt><trkpt lat="37.57985574074151" lon="13.968495052155866"><ele>500.40000000000003</ele><time>2026-04-30T09:20:19.001Z</time></trkpt><trkpt lat="37.57992064314197" lon="13.968480598626954"><ele>499.59999999999997</ele><time>2026-04-30T09:20:20.001Z</time></trkpt><trkpt lat="37.580021346172686" lon="13.968441805134452"><ele>498.79999999999995</ele><time>2026-04-30T09:20:22.001Z</time></trkpt><trkpt lat="37.580095397137924" lon="13.968370031324806"><ele>498.0</ele><time>2026-04-30T09:20:24.001Z</time></trkpt><trkpt lat="37.58018155338603" lon="13.968247918496301"><ele>496.6666666666667</ele><time>2026-04-30T09:20:26.001Z</time></trkpt><trkpt lat="37.580223571717944" lon="13.968179587419328"><ele>495.33333333333337</ele><time>2026-04-30T09:20:27.001Z</time></trkpt><trkpt lat="37.580304775993994" lon="13.968085936165446"><ele>494.0</ele><time>2026-04-30T09:20:29.001Z</time></trkpt><trkpt lat="37.58040363529998" lon="13.968085587736546"><ele>492.6666666666667</ele><time>2026-04-30T09:20:31.001Z</time></trkpt><trkpt lat="37.58046936022937" lon="13.968116482507497"><ele>491.33333333333337</ele><time>2026-04-30T09:20:32.001Z</time></trkpt><trkpt lat="37.58053897318185" lon="13.96814639160526"><ele>490.0</ele><time>2026-04-30T09:20:33.001Z</time></trkpt><trkpt lat="37.58064747015704" lon="13.96818681373282"><ele>487.0</ele><time>2026-04-30T09:20:35.001Z</time></trkpt><trkpt lat="37.58075928858715" lon="13.968218522620342"><ele>484.0</ele><time>2026-04-30T09:20:37.001Z</time></trkpt><trkpt lat="37.580853202982894" lon="13.968234649406844"><ele>481.0</ele><time>2026-04-30T09:20:39.001Z</time></trkpt><trkpt lat="37.580930380042275" lon="13.968240894571466"><ele>478.0</ele><time>2026-04-30T09:20:42.001Z</time></trkpt><trkpt lat="37.581025588002746" lon="13.96826215645819"><ele>475.0</ele><time>2026-04-30T09:20:44.001Z</time></trkpt><trkpt lat="37.58110056988011" lon="13.968285096483093"><ele>473.0</ele><time>2026-04-30T09:20:47.001Z</time></trkpt><trkpt lat="37.58137749049903" lon="13.968295547867946"><ele>471.0</ele><time>2026-04-30T09:20:50.001Z</time></trkpt><trkpt lat="37.5814562023918" lon="13.968294801173045"><ele>469.0</ele><time>2026-04-30T09:20:51.001Z</time></trkpt><trkpt lat="37.581529106070136" lon="13.968289708554675"><ele>467.0</ele><time>2026-04-30T09:20:52.001Z</time></trkpt><trkpt lat="37.58159347012365" lon="13.968264041062005"><ele>467.0</ele><time>2026-04-30T09:20:53.001Z</time></trkpt><trkpt lat="37.58168442549914" lon="13.968218249120605"><ele>467.00000000000006</ele><time>2026-04-30T09:20:54.001Z</time></trkpt><trkpt lat="37.58176488831831" lon="13.968170222442362"><ele>467.00000000000006</ele><time>2026-04-30T09:20:55.001Z</time></trkpt><trkpt lat="37.58184099996959" lon="13.968114836732452"><ele>467.0</ele><time>2026-04-30T09:20:56.001Z</time></trkpt><trkpt lat="37.5819158094949" lon="13.968051981422782"><ele>467.0</ele><time>2026-04-30T09:20:57.001Z</time></trkpt><trkpt lat="37.5819848453072" lon="13.967989166393407"><ele>467.16666666666663</ele><time>2026-04-30T09:20:58.001Z</time></trkpt><trkpt lat="37.58204789770579" lon="13.967933704278506"><ele>467.3333333333333</ele><time>2026-04-30T09:20:59.001Z</time></trkpt><trkpt lat="37.58211471305131" lon="13.96787925392584"><ele>467.5</ele><time>2026-04-30T09:21:00.001Z</time></trkpt><trkpt lat="37.58217863615609" lon="13.967823116063839"><ele>467.66666666666663</ele><time>2026-04-30T09:21:01.001Z</time></trkpt><trkpt lat="37.582244052367855" lon="13.967774533462462"><ele>467.8333333333333</ele><time>2026-04-30T09:21:02.001Z</time></trkpt><trkpt lat="37.58233826287538" lon="13.967735664218235"><ele>468.0</ele><time>2026-04-30T09:21:04.001Z</time></trkpt><trkpt lat="37.582451238631535" lon="13.967742102583829"><ele>468.0</ele><time>2026-04-30T09:21:06.001Z</time></trkpt><trkpt lat="37.58252017756492" lon="13.967732805503006"><ele>467.99999999999994</ele><time>2026-04-30T09:21:07.001Z</time></trkpt><trkpt lat="37.58260989820827" lon="13.96771103242421"><ele>467.99999999999994</ele><time>2026-04-30T09:21:08.001Z</time></trkpt><trkpt lat="37.58268851197321" lon="13.967686614308757"><ele>468.0</ele><time>2026-04-30T09:21:09.001Z</time></trkpt><trkpt lat="37.582823986050236" lon="13.967702947357127"><ele>468.0</ele><time>2026-04-30T09:21:11.001Z</time></trkpt><trkpt lat="37.58292644099719" lon="13.967737568852291"><ele>467.25</ele><time>2026-04-30T09:21:12.001Z</time></trkpt><trkpt lat="37.583046131734626" lon="13.96775127225238"><ele>466.5</ele><time>2026-04-30T09:21:13.001Z</time></trkpt><trkpt lat="37.58316352193181" lon="13.967711962777383"><ele>465.75</ele><time>2026-04-30T09:21:14.001Z</time></trkpt><trkpt lat="37.583272280080024" lon="13.967641302548767"><ele>465.0</ele><time>2026-04-30T09:21:15.001Z</time></trkpt><trkpt lat="37.583370997986236" lon="13.967581307567375"><ele>465.0</ele><time>2026-04-30T09:21:16.001Z</time></trkpt><trkpt lat="37.58346558208896" lon="13.967547425033766"><ele>465.0</ele><time>2026-04-30T09:21:17.001Z</time></trkpt><trkpt lat="37.58356443098576" lon="13.967525608398823"><ele>465.0</ele><time>2026-04-30T09:21:18.001Z</time></trkpt><trkpt lat="37.58367151891902" lon="13.967515926657512"><ele>465.0</ele><time>2026-04-30T09:21:19.001Z</time></trkpt><trkpt lat="37.58374971549501" lon="13.967505418519032"><ele>465.0</ele><time>2026-04-30T09:21:20.001Z</time></trkpt><trkpt lat="37.58382349200595" lon="13.96749492123418"><ele>461.4</ele><time>2026-04-30T09:21:21.001Z</time></trkpt><trkpt lat="37.58392461281536" lon="13.967487665812863"><ele>457.8</ele><time>2026-04-30T09:21:22.001Z</time></trkpt><trkpt lat="37.58402486921255" lon="13.967483046278302"><ele>454.20000000000005</ele><time>2026-04-30T09:21:23.001Z</time></trkpt><trkpt lat="37.584125315492564" lon="13.967476160723779"><ele>450.6</ele><time>2026-04-30T09:21:24.001Z</time></trkpt><trkpt lat="37.58421918961767" lon="13.967463388556128"><ele>447.0</ele><time>2026-04-30T09:21:25.001Z</time></trkpt><trkpt lat="37.58429869756029" lon="13.96745292844647"><ele>447.0</ele><time>2026-04-30T09:21:26.001Z</time></trkpt><trkpt lat="37.58437442477956" lon="13.96743750732453"><ele>447.0</ele><time>2026-04-30T09:21:27.001Z</time></trkpt><trkpt lat="37.58444910390984" lon="13.967413803749071"><ele>447.0</ele><time>2026-04-30T09:21:28.001Z</time></trkpt><trkpt lat="37.58452733284968" lon="13.967399960813145"><ele>447.0</ele><time>2026-04-30T09:21:29.001Z</time></trkpt><trkpt lat="37.58460845796046" lon="13.967391107397216"><ele>447.0</ele><time>2026-04-30T09:21:30.001Z</time></trkpt><trkpt lat="37.58469169019978" lon="13.967377676477646"><ele>447.0</ele><time>2026-04-30T09:21:31.001Z</time></trkpt><trkpt lat="37.584776613736395" lon="13.96736709625937"><ele>445.6</ele><time>2026-04-30T09:21:32.001Z</time></trkpt><trkpt lat="37.58486614357151" lon="13.967368758484165"><ele>444.20000000000005</ele><time>2026-04-30T09:21:33.001Z</time></trkpt><trkpt lat="37.58494560346125" lon="13.967371539231145"><ele>442.8</ele><time>2026-04-30T09:21:34.001Z</time></trkpt><trkpt lat="37.58505477320566" lon="13.967365685735777"><ele>441.4</ele><time>2026-04-30T09:21:36.001Z</time></trkpt><trkpt lat="37.58514851353464" lon="13.967350134808772"><ele>440.0</ele><time>2026-04-30T09:21:38.001Z</time></trkpt><trkpt lat="37.5852387071129" lon="13.967336780462208"><ele>440.0</ele><time>2026-04-30T09:21:40.001Z</time></trkpt><trkpt lat="37.585329503568786" lon="13.967326324939625"><ele>440.0</ele><time>2026-04-30T09:21:42.001Z</time></trkpt><trkpt lat="37.5854271848104" lon="13.967314439195748"><ele>440.0</ele><time>2026-04-30T09:21:44.001Z</time></trkpt><trkpt lat="37.58551804895023" lon="13.967303443722855"><ele>440.0</ele><time>2026-04-30T09:21:46.001Z</time></trkpt><trkpt lat="37.58561997132907" lon="13.967303575303452"><ele>440.0</ele><time>2026-04-30T09:21:48.001Z</time></trkpt><trkpt lat="37.58574198765754" lon="13.967298002754891"><ele>440.49999999999994</ele><time>2026-04-30T09:21:50.001Z</time></trkpt><trkpt lat="37.585845685151774" lon="13.967296440716995"><ele>441.0</ele><time>2026-04-30T09:21:52.001Z</time></trkpt><trkpt lat="37.585927494123204" lon="13.967296422262995"><ele>441.5</ele><time>2026-04-30T09:21:54.001Z</time></trkpt><trkpt lat="37.58600997345516" lon="13.967303530084925"><ele>442.0</ele><time>2026-04-30T09:21:56.001Z</time></trkpt><trkpt lat="37.58609663682344" lon="13.967306199111073"><ele>442.49999999999994</ele><time>2026-04-30T09:21:58.001Z</time></trkpt><trkpt lat="37.5861862117955" lon="13.967315447948112"><ele>443.0</ele><time>2026-04-30T09:22:00.001Z</time></trkpt><trkpt lat="37.58628068455866" lon="13.967309554337719"><ele>442.99999999999994</ele><time>2026-04-30T09:22:02.001Z</time></trkpt><trkpt lat="37.58634611595022" lon="13.96728233360114"><ele>443.0</ele><time>2026-04-30T09:22:03.001Z</time></trkpt><trkpt lat="37.58642576479886" lon="13.967234245499442"><ele>443.0</ele><time>2026-04-30T09:22:04.001Z</time></trkpt><trkpt lat="37.586490813839994" lon="13.967201282765089"><ele>443.0</ele><time>2026-04-30T09:22:05.001Z</time></trkpt><trkpt lat="37.586585305872354" lon="13.967208074286427"><ele>442.99999999999994</ele><time>2026-04-30T09:22:07.001Z</time></trkpt><trkpt lat="37.58664912405947" lon="13.967208300338237"><ele>443.0</ele><time>2026-04-30T09:22:09.001Z</time></trkpt><trkpt lat="37.586717417300164" lon="13.967194636243557"><ele>442.99999999999994</ele><time>2026-04-30T09:22:10.001Z</time></trkpt><trkpt lat="37.58679255107755" lon="13.967173252545146"><ele>443.0</ele><time>2026-04-30T09:22:11.001Z</time></trkpt><trkpt lat="37.586857289248194" lon="13.967142056449223"><ele>443.0</ele><time>2026-04-30T09:22:12Z</time></trkpt><trkpt lat="37.58692878583465" lon="13.96710213863278"><ele>443.0</ele><time>2026-04-30T09:22:13Z</time></trkpt><trkpt lat="37.58700808050513" lon="13.967057852287393"><ele>442.99999999999994</ele><time>2026-04-30T09:22:14Z</time></trkpt><trkpt lat="37.58708293655111" lon="13.967019084964324"><ele>443.0</ele><time>2026-04-30T09:22:15Z</time></trkpt><trkpt lat="37.5871960166277" lon="13.966954953497211"><ele>445.0</ele><time>2026-04-30T09:22:17Z</time></trkpt><trkpt lat="37.587313029784056" lon="13.966920223476402"><ele>446.99999999999994</ele><time>2026-04-30T09:22:19Z</time></trkpt><trkpt lat="37.587397924662895" lon="13.966887622820892"><ele>448.99999999999994</ele><time>2026-04-30T09:22:21Z</time></trkpt><trkpt lat="37.587484078171336" lon="13.96683671425272"><ele>451.0</ele><time>2026-04-30T09:22:23Z</time></trkpt><trkpt lat="37.587574477037414" lon="13.966759564215375"><ele>453.0</ele><time>2026-04-30T09:22:25Z</time></trkpt><trkpt lat="37.58767183227611" lon="13.966684089915164"><ele>453.0</ele><time>2026-04-30T09:22:27Z</time></trkpt><trkpt lat="37.587777339536" lon="13.966622603992528"><ele>452.99999999999994</ele><time>2026-04-30T09:22:29Z</time></trkpt><trkpt lat="37.58789215895116" lon="13.96657963747975"><ele>452.99999999999994</ele><time>2026-04-30T09:22:31Z</time></trkpt><trkpt lat="37.58795605244674" lon="13.96656719453964"><ele>453.0</ele><time>2026-04-30T09:22:32Z</time></trkpt><trkpt lat="37.58807079969168" lon="13.966550543243605"><ele>453.0</ele><time>2026-04-30T09:22:34Z</time></trkpt><trkpt lat="37.58815973967076" lon="13.966534133714264"><ele>453.0</ele><time>2026-04-30T09:22:36Z</time></trkpt><trkpt lat="37.588278729742434" lon="13.966491686312255"><ele>452.99999999999994</ele><time>2026-04-30T09:22:38Z</time></trkpt><trkpt lat="37.58834535665702" lon="13.966458870104532"><ele>452.99999999999994</ele><time>2026-04-30T09:22:39Z</time></trkpt><trkpt lat="37.588417398982465" lon="13.966434587171085"><ele>453.0</ele><time>2026-04-30T09:22:40Z</time></trkpt><trkpt lat="37.58848586187471" lon="13.96642488034973"><ele>453.0</ele><time>2026-04-30T09:22:41Z</time></trkpt><trkpt lat="37.5886108554321" lon="13.966433705878252"><ele>453.3333333333333</ele><time>2026-04-30T09:22:43Z</time></trkpt><trkpt lat="37.588679793764676" lon="13.966439701073394"><ele>453.66666666666663</ele><time>2026-04-30T09:22:44Z</time></trkpt><trkpt lat="37.58874129035736" lon="13.966461839939079"><ele>454.0</ele><time>2026-04-30T09:22:45Z</time></trkpt><trkpt lat="37.5887990047412" lon="13.96650913062796"><ele>454.3333333333333</ele><time>2026-04-30T09:22:46Z</time></trkpt><trkpt lat="37.588870199975695" lon="13.966551657581832"><ele>454.66666666666663</ele><time>2026-04-30T09:22:47Z</time></trkpt><trkpt lat="37.58896558982885" lon="13.966568800535285"><ele>455.0</ele><time>2026-04-30T09:22:49Z</time></trkpt><trkpt lat="37.58904050425745" lon="13.966521956260385"><ele>455.0</ele><time>2026-04-30T09:22:51Z</time></trkpt><trkpt lat="37.589128846344735" lon="13.966509234455131"><ele>455.0</ele><time>2026-04-30T09:22:53Z</time></trkpt><trkpt lat="37.5892404000882" lon="13.966517489697646"><ele>455.0</ele><time>2026-04-30T09:22:55Z</time></trkpt><trkpt lat="37.589345308431184" lon="13.966501422059283"><ele>455.0</ele><time>2026-04-30T09:22:57Z</time></trkpt><trkpt lat="37.58945727492895" lon="13.966480807366434"><ele>455.0</ele><time>2026-04-30T09:22:59Z</time></trkpt><trkpt lat="37.58956803816757" lon="13.966457809926332"><ele>458.4</ele><time>2026-04-30T09:23:01Z</time></trkpt><trkpt lat="37.589687228185696" lon="13.966441475389871"><ele>461.8</ele><time>2026-04-30T09:23:03Z</time></trkpt><trkpt lat="37.589809660894446" lon="13.966450435897107"><ele>465.20000000000005</ele><time>2026-04-30T09:23:05Z</time></trkpt><trkpt lat="37.589873097664054" lon="13.966461674733125"><ele>468.6</ele><time>2026-04-30T09:23:06Z</time></trkpt><trkpt lat="37.58996785686882" lon="13.9664791532557"><ele>472.0</ele><time>2026-04-30T09:23:08Z</time></trkpt><trkpt lat="37.590076131077836" lon="13.966493149077264"><ele>472.0</ele><time>2026-04-30T09:23:10Z</time></trkpt><trkpt lat="37.590198163497845" lon="13.966505392723565"><ele>472.00000000000006</ele><time>2026-04-30T09:23:12Z</time></trkpt><trkpt lat="37.590298618348996" lon="13.966500538382803"><ele>472.00000000000006</ele><time>2026-04-30T09:23:14Z</time></trkpt><trkpt lat="37.59041110252255" lon="13.96650117027375"><ele>472.0</ele><time>2026-04-30T09:23:16Z</time></trkpt><trkpt lat="37.590479599692884" lon="13.966503555272809"><ele>472.0</ele><time>2026-04-30T09:23:19Z</time></trkpt><trkpt lat="37.590543882498864" lon="13.96651512771306"><ele>474.83333333333337</ele><time>2026-04-30T09:24:17Z</time></trkpt><trkpt lat="37.59061022759463" lon="13.966508078485719"><ele>477.6666666666667</ele><time>2026-04-30T09:38:57.001Z</time></trkpt><trkpt lat="37.59067309090419" lon="13.966487044602323"><ele>480.5</ele><time>2026-04-30T09:39:03.001Z</time></trkpt><trkpt lat="37.59074630315561" lon="13.966440007360161"><ele>483.33333333333337</ele><time>2026-04-30T09:39:07.001Z</time></trkpt><trkpt lat="37.590819219190244" lon="13.966410027924058"><ele>486.1666666666667</ele><time>2026-04-30T09:39:09.001Z</time></trkpt><trkpt lat="37.59091557005406" lon="13.966373284812757"><ele>489.0</ele><time>2026-04-30T09:39:11.001Z</time></trkpt><trkpt lat="37.590981853464854" lon="13.966406379546614"><ele>489.0</ele><time>2026-04-30T09:39:14.001Z</time></trkpt><trkpt lat="37.591064240396285" lon="13.966465436771307"><ele>489.0</ele><time>2026-04-30T09:39:16.001Z</time></trkpt><trkpt lat="37.59112816166029" lon="13.966425004068512"><ele>489.0</ele><time>2026-04-30T09:39:21.001Z</time></trkpt><trkpt lat="37.59113353880742" lon="13.966508836682967"><ele>489.0</ele><time>2026-04-30T09:40:06.002Z</time></trkpt><trkpt lat="37.59125863576013" lon="13.966513725253497"><ele>489.0</ele><time>2026-04-30T09:40:08.002Z</time></trkpt><trkpt lat="37.591368477420176" lon="13.966488530908066"><ele>491.0</ele><time>2026-04-30T09:40:10.002Z</time></trkpt><trkpt lat="37.591445448236264" lon="13.966478821187431"><ele>493.0</ele><time>2026-04-30T09:40:12.003Z</time></trkpt><trkpt lat="37.5915221445016" lon="13.96644358663362"><ele>495.0</ele><time>2026-04-30T09:40:14.003Z</time></trkpt><trkpt lat="37.59162290655711" lon="13.96643292367928"><ele>497.0</ele><time>2026-04-30T09:40:16.003Z</time></trkpt><trkpt lat="37.591697370629966" lon="13.966432013182079"><ele>499.0</ele><time>2026-04-30T09:40:17.003Z</time></trkpt><trkpt lat="37.591773501723054" lon="13.966424623480997"><ele>501.0</ele><time>2026-04-30T09:40:18.003Z</time></trkpt><trkpt lat="37.59185440378836" lon="13.966423736299808"><ele>501.0</ele><time>2026-04-30T09:40:19.003Z</time></trkpt><trkpt lat="37.59193644432965" lon="13.96642423909514"><ele>501.0</ele><time>2026-04-30T09:40:20.003Z</time></trkpt><trkpt lat="37.59201694751356" lon="13.966421999928198"><ele>501.0</ele><time>2026-04-30T09:40:21.003Z</time></trkpt><trkpt lat="37.59210231475359" lon="13.966412629258736"><ele>501.0</ele><time>2026-04-30T09:40:22.003Z</time></trkpt><trkpt lat="37.59218174945436" lon="13.966391454882933"><ele>501.0</ele><time>2026-04-30T09:40:23.003Z</time></trkpt><trkpt lat="37.592263319419814" lon="13.966359975428826"><ele>501.0</ele><time>2026-04-30T09:40:24.003Z</time></trkpt><trkpt lat="37.592366133292394" lon="13.966323220623352"><ele>503.20000000000005</ele><time>2026-04-30T09:40:25.003Z</time></trkpt><trkpt lat="37.59247163926852" lon="13.9662968092084"><ele>505.40000000000003</ele><time>2026-04-30T09:40:26.003Z</time></trkpt><trkpt lat="37.592565132089376" lon="13.966276154761092"><ele>507.6</ele><time>2026-04-30T09:40:27.003Z</time></trkpt><trkpt lat="37.59265584280166" lon="13.966266794909995"><ele>509.8</ele><time>2026-04-30T09:40:28.003Z</time></trkpt><trkpt lat="37.592740184175796" lon="13.966265889586607"><ele>512.0</ele><time>2026-04-30T09:40:29.003Z</time></trkpt><trkpt lat="37.592816519902584" lon="13.966242060728892"><ele>514.2</ele><time>2026-04-30T09:40:30.003Z</time></trkpt><trkpt lat="37.59290669866796" lon="13.966198958136602"><ele>516.4000000000001</ele><time>2026-04-30T09:40:31.003Z</time></trkpt><trkpt lat="37.592996179248125" lon="13.966160266249592"><ele>518.5999999999999</ele><time>2026-04-30T09:40:32.003Z</time></trkpt><trkpt lat="37.59307909373702" lon="13.96612223062934"><ele>520.8</ele><time>2026-04-30T09:40:33.003Z</time></trkpt><trkpt lat="37.59316363152746" lon="13.96606853580884"><ele>523.0</ele><time>2026-04-30T09:40:34.003Z</time></trkpt><trkpt lat="37.593248895567754" lon="13.966010654442693"><ele>523.0</ele><time>2026-04-30T09:40:35.003Z</time></trkpt><trkpt lat="37.59332965317263" lon="13.965952080418093"><ele>523.0</ele><time>2026-04-30T09:40:36.003Z</time></trkpt><trkpt lat="37.59340931160744" lon="13.965895948719616"><ele>523.0</ele><time>2026-04-30T09:40:37.002Z</time></trkpt><trkpt lat="37.59349466735398" lon="13.965840031093993"><ele>523.0</ele><time>2026-04-30T09:40:38.002Z</time></trkpt><trkpt lat="37.59358438490967" lon="13.96580242766913"><ele>523.0</ele><time>2026-04-30T09:40:39.002Z</time></trkpt><trkpt lat="37.593684321394065" lon="13.965777600892022"><ele>525.1666666666667</ele><time>2026-04-30T09:40:40.002Z</time></trkpt><trkpt lat="37.593790370221825" lon="13.965764856762354"><ele>527.3333333333334</ele><time>2026-04-30T09:40:41.002Z</time></trkpt><trkpt lat="37.593870867580804" lon="13.965763871201707"><ele>529.5</ele><time>2026-04-30T09:40:42.002Z</time></trkpt><trkpt lat="37.59395180995467" lon="13.965742438430988"><ele>531.6666666666666</ele><time>2026-04-30T09:40:44.002Z</time></trkpt><trkpt lat="37.59399844360624" lon="13.965653006949095"><ele>533.8333333333333</ele><time>2026-04-30T09:40:47.002Z</time></trkpt><trkpt lat="37.59399638542059" lon="13.965543925418265"><ele>536.0</ele><time>2026-04-30T09:40:49.002Z</time></trkpt><trkpt lat="37.59401992641377" lon="13.965449244783882"><ele>536.0</ele><time>2026-04-30T09:40:50.002Z</time></trkpt><trkpt lat="37.594077275546056" lon="13.965329987229977"><ele>536.0</ele><time>2026-04-30T09:40:51.002Z</time></trkpt><trkpt lat="37.59412755516613" lon="13.965236542442407"><ele>536.0</ele><time>2026-04-30T09:40:52.002Z</time></trkpt><trkpt lat="37.594174464120336" lon="13.965095938326426"><ele>536.0</ele><time>2026-04-30T09:40:54.002Z</time></trkpt><trkpt lat="37.59419836934361" lon="13.964999011777342"><ele>536.0</ele><time>2026-04-30T09:40:55.002Z</time></trkpt><trkpt lat="37.5942421166394" lon="13.964892857963005"><ele>535.8</ele><time>2026-04-30T09:40:56.002Z</time></trkpt><trkpt lat="37.594296142436775" lon="13.964777696616178"><ele>535.6</ele><time>2026-04-30T09:40:57.002Z</time></trkpt><trkpt lat="37.59435512511904" lon="13.964672820539036"><ele>535.4</ele><time>2026-04-30T09:40:58.002Z</time></trkpt><trkpt lat="37.59441699283428" lon="13.964584074957942"><ele>535.2</ele><time>2026-04-30T09:40:59.002Z</time></trkpt><trkpt lat="37.5944788812288" lon="13.964503124009218"><ele>535.0</ele><time>2026-04-30T09:41:00.002Z</time></trkpt><trkpt lat="37.59452624706981" lon="13.964436864289972"><ele>538.5</ele><time>2026-04-30T09:41:01.002Z</time></trkpt><trkpt lat="37.594604438840946" lon="13.964324338270117"><ele>542.0</ele><time>2026-04-30T09:41:03.002Z</time></trkpt><trkpt lat="37.59465587780367" lon="13.964265709485463"><ele>545.5</ele><time>2026-04-30T09:41:04.002Z</time></trkpt><trkpt lat="37.594722260533516" lon="13.964187704304862"><ele>549.0</ele><time>2026-04-30T09:41:05.002Z</time></trkpt><trkpt lat="37.59477460247359" lon="13.96411701957726"><ele>552.5</ele><time>2026-04-30T09:41:06.002Z</time></trkpt><trkpt lat="37.59480424605337" lon="13.964039619034132"><ele>556.0</ele><time>2026-04-30T09:41:08.002Z</time></trkpt><trkpt lat="37.59482859638169" lon="13.963944150810349"><ele>556.0</ele><time>2026-04-30T09:41:11.002Z</time></trkpt><trkpt lat="37.5948485974315" lon="13.963856772473282"><ele>556.0</ele><time>2026-04-30T09:41:44.002Z</time></trkpt><trkpt lat="37.59489370232857" lon="13.963754021870937"><ele>556.0</ele><time>2026-04-30T09:41:46.002Z</time></trkpt><trkpt lat="37.59490610602401" lon="13.963650983856622"><ele>556.0</ele><time>2026-04-30T09:41:48.002Z</time></trkpt><trkpt lat="37.59494462700091" lon="13.96351632554713"><ele>556.0</ele><time>2026-04-30T09:41:50.002Z</time></trkpt><trkpt lat="37.59498046077152" lon="13.963411225144348"><ele>554.8</ele><time>2026-04-30T09:41:52.002Z</time></trkpt><trkpt lat="37.59507537961714" lon="13.96329545729734"><ele>553.6</ele><time>2026-04-30T09:42:01.003Z</time></trkpt><trkpt lat="37.59514551500651" lon="13.963213314762823"><ele>552.4</ele><time>2026-04-30T09:42:03.003Z</time></trkpt><trkpt lat="37.59522277174384" lon="13.963109306656968"><ele>551.2</ele><time>2026-04-30T09:42:05.003Z</time></trkpt><trkpt lat="37.595274377023074" lon="13.963042949138712"><ele>550.0</ele><time>2026-04-30T09:42:06.003Z</time></trkpt><trkpt lat="37.5953357566948" lon="13.96299311743548"><ele>552.0</ele><time>2026-04-30T09:42:07.003Z</time></trkpt><trkpt lat="37.59540930673442" lon="13.96295980721298"><ele>554.0</ele><time>2026-04-30T09:42:08.003Z</time></trkpt><trkpt lat="37.59548167062626" lon="13.962940624708667"><ele>556.0</ele><time>2026-04-30T09:42:09.003Z</time></trkpt><trkpt lat="37.59556361966838" lon="13.962936752875883"><ele>558.0</ele><time>2026-04-30T09:42:10.003Z</time></trkpt><trkpt lat="37.5956357335001" lon="13.962916744404676"><ele>560.0</ele><time>2026-04-30T09:42:11.003Z</time></trkpt><trkpt lat="37.5956973336999" lon="13.96289622722962"><ele>562.0</ele><time>2026-04-30T09:42:12.003Z</time></trkpt><trkpt lat="37.59579623057523" lon="13.962850477070296"><ele>562.0</ele><time>2026-04-30T09:42:14.003Z</time></trkpt><trkpt lat="37.59586237576363" lon="13.962839826732171"><ele>562.0</ele><time>2026-04-30T09:42:15.003Z</time></trkpt><trkpt lat="37.59593928458714" lon="13.962824613850552"><ele>562.0</ele><time>2026-04-30T09:42:16.003Z</time></trkpt><trkpt lat="37.59601085797644" lon="13.962811020591978"><ele>562.0</ele><time>2026-04-30T09:42:17.003Z</time></trkpt><trkpt lat="37.59615251006221" lon="13.962773805306965"><ele>562.0</ele><time>2026-04-30T09:42:19.003Z</time></trkpt><trkpt lat="37.59622957755864" lon="13.962728556235726"><ele>562.0</ele><time>2026-04-30T09:42:20.003Z</time></trkpt><trkpt lat="37.596293022412034" lon="13.962677025276198"><ele>562.0</ele><time>2026-04-30T09:42:21.003Z</time></trkpt><trkpt lat="37.59633920826365" lon="13.962617551958346"><ele>562.0</ele><time>2026-04-30T09:42:22.003Z</time></trkpt><trkpt lat="37.5963717690497" lon="13.962528925052032"><ele>562.0</ele><time>2026-04-30T09:42:23.003Z</time></trkpt><trkpt lat="37.59640185431696" lon="13.962404730193075"><ele>562.0</ele><time>2026-04-30T09:42:24.003Z</time></trkpt><trkpt lat="37.59643444782433" lon="13.96228894560733"><ele>562.0</ele><time>2026-04-30T09:42:25.003Z</time></trkpt><trkpt lat="37.59646776790655" lon="13.962180313040404"><ele>562.0</ele><time>2026-04-30T09:42:26.003Z</time></trkpt><trkpt lat="37.596503108190355" lon="13.962065301196358"><ele>562.0</ele><time>2026-04-30T09:42:27.003Z</time></trkpt><trkpt lat="37.596545976002574" lon="13.961944787469594"><ele>562.0</ele><time>2026-04-30T09:42:28.003Z</time></trkpt><trkpt lat="37.59660082962052" lon="13.961822883404121"><ele>562.0</ele><time>2026-04-30T09:42:29.003Z</time></trkpt><trkpt lat="37.596653248958866" lon="13.96169947219948"><ele>562.0</ele><time>2026-04-30T09:42:30.003Z</time></trkpt><trkpt lat="37.5966896109142" lon="13.961579477563921"><ele>562.0</ele><time>2026-04-30T09:42:31.003Z</time></trkpt><trkpt lat="37.59672526548544" lon="13.961445861192823"><ele>561.4</ele><time>2026-04-30T09:42:32.003Z</time></trkpt><trkpt lat="37.59676706117215" lon="13.961307468674963"><ele>560.8000000000001</ele><time>2026-04-30T09:42:33.003Z</time></trkpt><trkpt lat="37.59679496021664" lon="13.96118189190291"><ele>560.2</ele><time>2026-04-30T09:42:34.003Z</time></trkpt><trkpt lat="37.596830008267" lon="13.96109019278393"><ele>559.6</ele><time>2026-04-30T09:42:35.003Z</time></trkpt><trkpt lat="37.59688148604411" lon="13.961027994092097"><ele>559.0</ele><time>2026-04-30T09:42:36.003Z</time></trkpt><trkpt lat="37.596967427257574" lon="13.961007690138224"><ele>562.0</ele><time>2026-04-30T09:42:37.003Z</time></trkpt><trkpt lat="37.59706600490171" lon="13.961022742611497"><ele>565.0</ele><time>2026-04-30T09:42:38.003Z</time></trkpt><trkpt lat="37.597143118409335" lon="13.961019511408944"><ele>568.0</ele><time>2026-04-30T09:42:39.003Z</time></trkpt><trkpt lat="37.5972303910286" lon="13.960921795837008"><ele>571.0</ele><time>2026-04-30T09:42:41.003Z</time></trkpt><trkpt lat="37.597258324516474" lon="13.960826626454121"><ele>574.0</ele><time>2026-04-30T09:42:42.003Z</time></trkpt><trkpt lat="37.5972800130136" lon="13.960696306752558"><ele>574.0</ele><time>2026-04-30T09:42:43.002Z</time></trkpt><trkpt lat="37.59730613020853" lon="13.960563798728563"><ele>574.0</ele><time>2026-04-30T09:42:44.002Z</time></trkpt><trkpt lat="37.597341064222505" lon="13.960435908263584"><ele>574.0</ele><time>2026-04-30T09:42:45.002Z</time></trkpt><trkpt lat="37.597388219261106" lon="13.960313248550076"><ele>574.0</ele><time>2026-04-30T09:42:46.002Z</time></trkpt><trkpt lat="37.597429822481296" lon="13.960192386346526"><ele>574.0</ele><time>2026-04-30T09:42:47.002Z</time></trkpt><trkpt lat="37.597463701207225" lon="13.960075770047641"><ele>572.6</ele><time>2026-04-30T09:42:48.002Z</time></trkpt><trkpt lat="37.59750125017082" lon="13.959958275126557"><ele>571.2</ele><time>2026-04-30T09:42:49.002Z</time></trkpt><trkpt lat="37.59754114189569" lon="13.959845971051854"><ele>569.8000000000001</ele><time>2026-04-30T09:42:50.002Z</time></trkpt><trkpt lat="37.597577848807035" lon="13.959718296869871"><ele>568.4</ele><time>2026-04-30T09:42:51.002Z</time></trkpt><trkpt lat="37.59759584076233" lon="13.95957334835812"><ele>567.0</ele><time>2026-04-30T09:42:52.002Z</time></trkpt><trkpt lat="37.59760159908094" lon="13.959425943090793"><ele>567.0</ele><time>2026-04-30T09:42:53.002Z</time></trkpt><trkpt lat="37.59759623100407" lon="13.959279584275084"><ele>567.0</ele><time>2026-04-30T09:42:54.002Z</time></trkpt><trkpt lat="37.59757414626335" lon="13.959127410292615"><ele>567.0</ele><time>2026-04-30T09:42:55.002Z</time></trkpt><trkpt lat="37.59753966908331" lon="13.95896722994649"><ele>567.0</ele><time>2026-04-30T09:42:56.002Z</time></trkpt><trkpt lat="37.597499441305615" lon="13.958835195973817"><ele>566.4</ele><time>2026-04-30T09:42:57.002Z</time></trkpt><trkpt lat="37.59746812557553" lon="13.95871800861584"><ele>565.8000000000001</ele><time>2026-04-30T09:42:58.002Z</time></trkpt><trkpt lat="37.5974480273167" lon="13.958608402823478"><ele>565.2</ele><time>2026-04-30T09:42:59.002Z</time></trkpt><trkpt lat="37.597445708481615" lon="13.958497052421455"><ele>564.6</ele><time>2026-04-30T09:43:00.002Z</time></trkpt><trkpt lat="37.597465918780166" lon="13.9583891040976"><ele>564.0</ele><time>2026-04-30T09:43:01.002Z</time></trkpt><trkpt lat="37.59750987825253" lon="13.958279035519416"><ele>563.4</ele><time>2026-04-30T09:43:02.002Z</time></trkpt><trkpt lat="37.59756440913401" lon="13.958159891893782"><ele>562.8</ele><time>2026-04-30T09:43:03.002Z</time></trkpt><trkpt lat="37.59763806565974" lon="13.95805588595966"><ele>562.2</ele><time>2026-04-30T09:43:04.002Z</time></trkpt><trkpt lat="37.597712947475266" lon="13.957966940759528"><ele>561.6</ele><time>2026-04-30T09:43:05.002Z</time></trkpt><trkpt lat="37.59777414835481" lon="13.957880976639702"><ele>561.0</ele><time>2026-04-30T09:43:06.002Z</time></trkpt><trkpt lat="37.597815282398344" lon="13.957805561016498"><ele>561.0</ele><time>2026-04-30T09:43:07.002Z</time></trkpt><trkpt lat="37.59782898308088" lon="13.957669780786519"><ele>561.0</ele><time>2026-04-30T09:43:09.002Z</time></trkpt><trkpt lat="37.59779385764659" lon="13.957564858570361"><ele>561.0</ele><time>2026-04-30T09:43:10.002Z</time></trkpt><trkpt lat="37.59774471000367" lon="13.957438918428178"><ele>561.0</ele><time>2026-04-30T09:43:11.002Z</time></trkpt><trkpt lat="37.59769887636992" lon="13.95732157384898"><ele>561.0</ele><time>2026-04-30T09:43:12.002Z</time></trkpt><trkpt lat="37.59768513374164" lon="13.957222562095424"><ele>559.5</ele><time>2026-04-30T09:43:13.002Z</time></trkpt><trkpt lat="37.59769288560142" lon="13.957124101343995"><ele>558.0</ele><time>2026-04-30T09:43:14.002Z</time></trkpt><trkpt lat="37.59770163271234" lon="13.957026824587057"><ele>556.5</ele><time>2026-04-30T09:43:15.002Z</time></trkpt><trkpt lat="37.597711292991505" lon="13.956925971626182"><ele>555.0</ele><time>2026-04-30T09:43:16.002Z</time></trkpt><trkpt lat="37.59772350308102" lon="13.956823208850174"><ele>553.5</ele><time>2026-04-30T09:43:17.002Z</time></trkpt><trkpt lat="37.5977358652358" lon="13.956705883353363"><ele>552.0</ele><time>2026-04-30T09:43:18.002Z</time></trkpt><trkpt lat="37.59774834528409" lon="13.95659226404415"><ele>551.3333333333334</ele><time>2026-04-30T09:43:19.002Z</time></trkpt><trkpt lat="37.597770041148166" lon="13.956485028680138"><ele>550.6666666666666</ele><time>2026-04-30T09:43:20.002Z</time></trkpt><trkpt lat="37.59779695870276" lon="13.956387842881188"><ele>550.0</ele><time>2026-04-30T09:43:21.002Z</time></trkpt><trkpt lat="37.59783431786334" lon="13.956296502394268"><ele>549.3333333333333</ele><time>2026-04-30T09:43:22.002Z</time></trkpt><trkpt lat="37.597884921179784" lon="13.956212322621889"><ele>548.6666666666666</ele><time>2026-04-30T09:43:23.002Z</time></trkpt><trkpt lat="37.597946064844024" lon="13.956131664993608"><ele>548.0</ele><time>2026-04-30T09:43:24.002Z</time></trkpt><trkpt lat="37.598011798904665" lon="13.956054559037092"><ele>551.0</ele><time>2026-04-30T09:43:25.002Z</time></trkpt><trkpt lat="37.59808165810823" lon="13.955997564152579"><ele>554.0</ele><time>2026-04-30T09:43:26.002Z</time></trkpt><trkpt lat="37.5981657857873" lon="13.955967911786676"><ele>557.0</ele><time>2026-04-30T09:43:27.002Z</time></trkpt><trkpt lat="37.598265975649554" lon="13.955955276688927"><ele>560.0</ele><time>2026-04-30T09:43:28.002Z</time></trkpt><trkpt lat="37.59838885603605" lon="13.955944640846738"><ele>563.0</ele><time>2026-04-30T09:43:29.002Z</time></trkpt><trkpt lat="37.59850124557681" lon="13.955933814705757"><ele>563.0</ele><time>2026-04-30T09:43:30.002Z</time></trkpt><trkpt lat="37.5986014524978" lon="13.955921136187671"><ele>563.0</ele><time>2026-04-30T09:43:31.002Z</time></trkpt><trkpt lat="37.598701621065956" lon="13.955912510303797"><ele>563.0</ele><time>2026-04-30T09:43:32.002Z</time></trkpt><trkpt lat="37.598800843002714" lon="13.955905630866077"><ele>563.0</ele><time>2026-04-30T09:43:33.002Z</time></trkpt><trkpt lat="37.598885936483676" lon="13.955880968811712"><ele>563.0</ele><time>2026-04-30T09:43:34.002Z</time></trkpt><trkpt lat="37.59895441564345" lon="13.95583211606104"><ele>561.0</ele><time>2026-04-30T09:43:35.002Z</time></trkpt><trkpt lat="37.59902474911167" lon="13.955755967569393"><ele>559.0</ele><time>2026-04-30T09:43:36.002Z</time></trkpt><trkpt lat="37.59911357692319" lon="13.95566798197075"><ele>557.0</ele><time>2026-04-30T09:43:37.002Z</time></trkpt><trkpt lat="37.59920799206603" lon="13.95561231525054"><ele>555.0</ele><time>2026-04-30T09:43:38.002Z</time></trkpt><trkpt lat="37.599314139697285" lon="13.955564335305947"><ele>553.0</ele><time>2026-04-30T09:43:39.002Z</time></trkpt><trkpt lat="37.599430440413464" lon="13.955505996006194"><ele>557.6</ele><time>2026-04-30T09:43:40.002Z</time></trkpt><trkpt lat="37.59954274332721" lon="13.955425547532165"><ele>562.1999999999999</ele><time>2026-04-30T09:43:41.002Z</time></trkpt><trkpt lat="37.5996282181904" lon="13.955348077811413"><ele>566.8</ele><time>2026-04-30T09:43:42.002Z</time></trkpt><trkpt lat="37.59969340257967" lon="13.955267813482303"><ele>571.4</ele><time>2026-04-30T09:43:43.002Z</time></trkpt><trkpt lat="37.59974950161183" lon="13.955169962633331"><ele>576.0</ele><time>2026-04-30T09:43:44.002Z</time></trkpt><trkpt lat="37.59979770886605" lon="13.955051008041707"><ele>572.75</ele><time>2026-04-30T09:43:45.002Z</time></trkpt><trkpt lat="37.59985171795989" lon="13.954890589338113"><ele>569.5</ele><time>2026-04-30T09:43:46.002Z</time></trkpt><trkpt lat="37.599901926468206" lon="13.954738999776474"><ele>566.25</ele><time>2026-04-30T09:43:47.002Z</time></trkpt><trkpt lat="37.599954525163035" lon="13.954600954380357"><ele>563.0</ele><time>2026-04-30T09:43:48.002Z</time></trkpt><trkpt lat="37.600021433053605" lon="13.95446999933694"><ele>563.0</ele><time>2026-04-30T09:43:49.002Z</time></trkpt><trkpt lat="37.60009998524332" lon="13.954350198550971"><ele>563.0</ele><time>2026-04-30T09:43:50.002Z</time></trkpt><trkpt lat="37.60015847188168" lon="13.954260707772278"><ele>563.0</ele><time>2026-04-30T09:43:51.002Z</time></trkpt><trkpt lat="37.600191150930385" lon="13.954111359795418"><ele>563.0</ele><time>2026-04-30T09:43:53.002Z</time></trkpt><trkpt lat="37.60016563026749" lon="13.954007458923298"><ele>563.0</ele><time>2026-04-30T09:43:54.002Z</time></trkpt><trkpt lat="37.600112903849684" lon="13.95387553420592"><ele>562.75</ele><time>2026-04-30T09:43:55.002Z</time></trkpt><trkpt lat="37.6000458577847" lon="13.953721820833126"><ele>562.5</ele><time>2026-04-30T09:43:56.002Z</time></trkpt><trkpt lat="37.59998998738469" lon="13.953563750317421"><ele>562.25</ele><time>2026-04-30T09:43:57.002Z</time></trkpt><trkpt lat="37.59994769897761" lon="13.953430444976947"><ele>562.0</ele><time>2026-04-30T09:43:58.002Z</time></trkpt><trkpt lat="37.59991998171495" lon="13.953314663947001"><ele>562.6</ele><time>2026-04-30T09:43:59.002Z</time></trkpt><trkpt lat="37.59992177145543" lon="13.953208716228797"><ele>563.2</ele><time>2026-04-30T09:44:00.002Z</time></trkpt><trkpt lat="37.5999663516351" lon="13.953107679770042"><ele>563.8</ele><time>2026-04-30T09:44:01.002Z</time></trkpt><trkpt lat="37.600027266615236" lon="13.953000013340134"><ele>564.4</ele><time>2026-04-30T09:44:02.003Z</time></trkpt><trkpt lat="37.60009542147084" lon="13.952895675544818"><ele>565.0</ele><time>2026-04-30T09:44:03.003Z</time></trkpt><trkpt lat="37.60015298542036" lon="13.952791517458701"><ele>565.0</ele><time>2026-04-30T09:44:04.003Z</time></trkpt><trkpt lat="37.60020628174503" lon="13.952691131783912"><ele>565.0</ele><time>2026-04-30T09:44:05.003Z</time></trkpt><trkpt lat="37.600267599279725" lon="13.952585033585272"><ele>565.0</ele><time>2026-04-30T09:44:06.003Z</time></trkpt><trkpt lat="37.600351303926686" lon="13.952480072433827"><ele>565.0</ele><time>2026-04-30T09:44:07.003Z</time></trkpt><trkpt lat="37.600452173088954" lon="13.95238270978535"><ele>565.0</ele><time>2026-04-30T09:44:08.003Z</time></trkpt><trkpt lat="37.600561579180095" lon="13.952302422747431"><ele>567.75</ele><time>2026-04-30T09:44:09.003Z</time></trkpt><trkpt lat="37.600674634505346" lon="13.95222563863788"><ele>570.5</ele><time>2026-04-30T09:44:10.003Z</time></trkpt><trkpt lat="37.600772213771236" lon="13.952150247968234"><ele>573.25</ele><time>2026-04-30T09:44:11.003Z</time></trkpt><trkpt lat="37.60086434551847" lon="13.952075055982807"><ele>576.0</ele><time>2026-04-30T09:44:12.003Z</time></trkpt><trkpt lat="37.60095503309047" lon="13.951995280964622"><ele>576.0</ele><time>2026-04-30T09:44:13.003Z</time></trkpt><trkpt lat="37.60104567255062" lon="13.951914422831473"><ele>576.0</ele><time>2026-04-30T09:44:14.003Z</time></trkpt><trkpt lat="37.60112927975561" lon="13.951841849401596"><ele>576.0</ele><time>2026-04-30T09:44:15.003Z</time></trkpt><trkpt lat="37.6012103529608" lon="13.951776497374592"><ele>576.0</ele><time>2026-04-30T09:44:16.003Z</time></trkpt><trkpt lat="37.60128538248472" lon="13.951711536346252"><ele>576.0</ele><time>2026-04-30T09:44:17.003Z</time></trkpt><trkpt lat="37.601367029921484" lon="13.951645526648294"><ele>576.5</ele><time>2026-04-30T09:44:18.003Z</time></trkpt><trkpt lat="37.60145478811464" lon="13.951577860333165"><ele>577.0</ele><time>2026-04-30T09:44:19.003Z</time></trkpt><trkpt lat="37.60154771560544" lon="13.951502462281205"><ele>577.5</ele><time>2026-04-30T09:44:20.003Z</time></trkpt><trkpt lat="37.60164604827545" lon="13.951420427469158"><ele>578.0</ele><time>2026-04-30T09:44:21.003Z</time></trkpt><trkpt lat="37.601749602743936" lon="13.951342379865068"><ele>578.0</ele><time>2026-04-30T09:44:22.003Z</time></trkpt><trkpt lat="37.60186396770678" lon="13.951267325855229"><ele>578.0</ele><time>2026-04-30T09:44:23.003Z</time></trkpt><trkpt lat="37.601983436759355" lon="13.951187259753091"><ele>578.0</ele><time>2026-04-30T09:44:24.003Z</time></trkpt><trkpt lat="37.60211537814565" lon="13.9511056501569"><ele>578.0</ele><time>2026-04-30T09:44:25.003Z</time></trkpt><trkpt lat="37.60226622751759" lon="13.951012002985728"><ele>579.6666666666666</ele><time>2026-04-30T09:44:26.003Z</time></trkpt><trkpt lat="37.602425752837995" lon="13.950918093132051"><ele>581.3333333333334</ele><time>2026-04-30T09:44:27.003Z</time></trkpt><trkpt lat="37.602566273015306" lon="13.95083723432224"><ele>583.0</ele><time>2026-04-30T09:44:28.003Z</time></trkpt><trkpt lat="37.6026873784234" lon="13.950770056390487"><ele>583.0</ele><time>2026-04-30T09:44:29.003Z</time></trkpt><trkpt lat="37.60280286874934" lon="13.950711591446455"><ele>583.0</ele><time>2026-04-30T09:44:30.003Z</time></trkpt><trkpt lat="37.60292297637475" lon="13.950659130396517"><ele>583.0</ele><time>2026-04-30T09:44:31.003Z</time></trkpt><trkpt lat="37.60305042047498" lon="13.950598754061707"><ele>583.0</ele><time>2026-04-30T09:44:32.003Z</time></trkpt><trkpt lat="37.60318245825552" lon="13.950535368967136"><ele>586.25</ele><time>2026-04-30T09:44:33.003Z</time></trkpt><trkpt lat="37.6033078059048" lon="13.95048116004231"><ele>589.5</ele><time>2026-04-30T09:44:34.003Z</time></trkpt><trkpt lat="37.60343366459017" lon="13.950434477092157"><ele>592.75</ele><time>2026-04-30T09:44:35.003Z</time></trkpt><trkpt lat="37.603551218588144" lon="13.950386477436172"><ele>596.0</ele><time>2026-04-30T09:44:36.003Z</time></trkpt><trkpt lat="37.60367548098726" lon="13.950329223222296"><ele>600.25</ele><time>2026-04-30T09:44:37.003Z</time></trkpt><trkpt lat="37.60379466888799" lon="13.950262593083819"><ele>604.5</ele><time>2026-04-30T09:44:38.003Z</time></trkpt><trkpt lat="37.603895661835544" lon="13.9502144196508"><ele>608.75</ele><time>2026-04-30T09:44:39.003Z</time></trkpt><trkpt lat="37.60400315075462" lon="13.950170881885134"><ele>613.0</ele><time>2026-04-30T09:44:40.003Z</time></trkpt><trkpt lat="37.604120968516675" lon="13.950140081808344"><ele>613.0</ele><time>2026-04-30T09:44:41.003Z</time></trkpt><trkpt lat="37.60424047806193" lon="13.950119409285456"><ele>613.0</ele><time>2026-04-30T09:44:42.003Z</time></trkpt><trkpt lat="37.604364064168806" lon="13.950094391278865"><ele>613.0</ele><time>2026-04-30T09:44:43.003Z</time></trkpt><trkpt lat="37.60448178064328" lon="13.95005885948037"><ele>613.0</ele><time>2026-04-30T09:44:44.003Z</time></trkpt><trkpt lat="37.604589144351046" lon="13.950017406306305"><ele>617.0</ele><time>2026-04-30T09:44:45.003Z</time></trkpt><trkpt lat="37.604688047586556" lon="13.949963804614045"><ele>621.0</ele><time>2026-04-30T09:44:46.003Z</time></trkpt><trkpt lat="37.60477271490994" lon="13.949910136469525"><ele>625.0</ele><time>2026-04-30T09:44:47.003Z</time></trkpt><trkpt lat="37.60484054981983" lon="13.949861562641068"><ele>629.0</ele><time>2026-04-30T09:44:48.003Z</time></trkpt><trkpt lat="37.6049209187551" lon="13.949812149367851"><ele>633.0</ele><time>2026-04-30T09:44:49.002Z</time></trkpt><trkpt lat="37.60501405757281" lon="13.949760464501301"><ele>633.0</ele><time>2026-04-30T09:44:50.002Z</time></trkpt><trkpt lat="37.60510958982381" lon="13.949708373115941"><ele>633.0</ele><time>2026-04-30T09:44:51.002Z</time></trkpt><trkpt lat="37.60519761013637" lon="13.94965288400856"><ele>633.0</ele><time>2026-04-30T09:44:52.002Z</time></trkpt><trkpt lat="37.6052790600787" lon="13.949591538051816"><ele>633.0</ele><time>2026-04-30T09:44:53.002Z</time></trkpt><trkpt lat="37.60535419974484" lon="13.949530925527638"><ele>633.0</ele><time>2026-04-30T09:44:54.002Z</time></trkpt><trkpt lat="37.60542652094299" lon="13.949467932515649"><ele>636.8</ele><time>2026-04-30T09:44:55.002Z</time></trkpt><trkpt lat="37.60549671586911" lon="13.949404482290813"><ele>640.5999999999999</ele><time>2026-04-30T09:44:56.002Z</time></trkpt><trkpt lat="37.605566960897384" lon="13.949338584847691"><ele>644.4000000000001</ele><time>2026-04-30T09:44:57.002Z</time></trkpt><trkpt lat="37.60564186226138" lon="13.949271203788213"><ele>648.2</ele><time>2026-04-30T09:44:58.002Z</time></trkpt><trkpt lat="37.605734981221616" lon="13.949210995482344"><ele>652.0</ele><time>2026-04-30T09:44:59.002Z</time></trkpt><trkpt lat="37.6058408051419" lon="13.949172026869396"><ele>652.0</ele><time>2026-04-30T09:45:00.002Z</time></trkpt><trkpt lat="37.605960165758766" lon="13.949168465897086"><ele>652.0</ele><time>2026-04-30T09:45:01.002Z</time></trkpt><trkpt lat="37.606082008141094" lon="13.949175375462941"><ele>652.0</ele><time>2026-04-30T09:45:02.002Z</time></trkpt><trkpt lat="37.60620436805306" lon="13.949177880478832"><ele>652.0</ele><time>2026-04-30T09:45:03.002Z</time></trkpt><trkpt lat="37.606309997815615" lon="13.949165486830235"><ele>654.5</ele><time>2026-04-30T09:45:04.002Z</time></trkpt><trkpt lat="37.606389852700026" lon="13.949140901235175"><ele>657.0</ele><time>2026-04-30T09:45:05.002Z</time></trkpt><trkpt lat="37.60647071297719" lon="13.94910415332659"><ele>659.5</ele><time>2026-04-30T09:45:06.002Z</time></trkpt><trkpt lat="37.60655915815304" lon="13.949058444829886"><ele>662.0</ele><time>2026-04-30T09:45:07.002Z</time></trkpt><trkpt lat="37.606645238240745" lon="13.949003282449928"><ele>664.5</ele><time>2026-04-30T09:45:08.002Z</time></trkpt><trkpt lat="37.60672083763622" lon="13.94894580903029"><ele>667.0</ele><time>2026-04-30T09:45:09.002Z</time></trkpt><trkpt lat="37.60678850715316" lon="13.948896690695996"><ele>667.0</ele><time>2026-04-30T09:45:10.002Z</time></trkpt><trkpt lat="37.60684468541895" lon="13.948850445552925"><ele>667.0</ele><time>2026-04-30T09:45:11.002Z</time></trkpt><trkpt lat="37.60695545761284" lon="13.948780006438641"><ele>667.0</ele><time>2026-04-30T09:45:13.002Z</time></trkpt><trkpt lat="37.60706306959271" lon="13.948777244092648"><ele>667.0</ele><time>2026-04-30T09:45:15.002Z</time></trkpt><trkpt lat="37.607189043531505" lon="13.948729419642893"><ele>667.0</ele><time>2026-04-30T09:45:17.002Z</time></trkpt><trkpt lat="37.607270403699275" lon="13.948673612948701"><ele>666.4000000000001</ele><time>2026-04-30T09:45:18.002Z</time></trkpt><trkpt lat="37.607353872182856" lon="13.948621750200283"><ele>665.8000000000001</ele><time>2026-04-30T09:45:19.002Z</time></trkpt><trkpt lat="37.60743819055328" lon="13.948567168198398"><ele>665.2</ele><time>2026-04-30T09:45:20.002Z</time></trkpt><trkpt lat="37.60752518693402" lon="13.94850586192514"><ele>664.6</ele><time>2026-04-30T09:45:21.002Z</time></trkpt><trkpt lat="37.60761404797552" lon="13.948432622580999"><ele>664.0</ele><time>2026-04-30T09:45:22.002Z</time></trkpt><trkpt lat="37.60769901384044" lon="13.948336958245202"><ele>664.0</ele><time>2026-04-30T09:45:23.002Z</time></trkpt><trkpt lat="37.60776562764346" lon="13.948212960015304"><ele>664.0</ele><time>2026-04-30T09:45:24.002Z</time></trkpt><trkpt lat="37.607817025896026" lon="13.94806903750836"><ele>664.0</ele><time>2026-04-30T09:45:25.002Z</time></trkpt><trkpt lat="37.60786533109894" lon="13.947911804701754"><ele>664.0</ele><time>2026-04-30T09:45:26.002Z</time></trkpt><trkpt lat="37.6079258121421" lon="13.947762280254024"><ele>666.75</ele><time>2026-04-30T09:45:27.002Z</time></trkpt><trkpt lat="37.607990139618714" lon="13.947624788729877"><ele>669.5</ele><time>2026-04-30T09:45:28.002Z</time></trkpt><trkpt lat="37.60805375851434" lon="13.947493872742191"><ele>672.25</ele><time>2026-04-30T09:45:29.002Z</time></trkpt><trkpt lat="37.60812369804027" lon="13.94737149735997"><ele>675.0</ele><time>2026-04-30T09:45:30.002Z</time></trkpt><trkpt lat="37.60820764579243" lon="13.94726254777049"><ele>675.0</ele><time>2026-04-30T09:45:31.002Z</time></trkpt><trkpt lat="37.608301352215825" lon="13.947173206174822"><ele>675.0</ele><time>2026-04-30T09:45:32.002Z</time></trkpt><trkpt lat="37.60840666292329" lon="13.947100476897589"><ele>675.0</ele><time>2026-04-30T09:45:33.002Z</time></trkpt><trkpt lat="37.60852369811279" lon="13.947045234634134"><ele>675.0</ele><time>2026-04-30T09:45:34.002Z</time></trkpt><trkpt lat="37.60865101283972" lon="13.946996095748851"><ele>677.5</ele><time>2026-04-30T09:45:35.002Z</time></trkpt><trkpt lat="37.60877406716944" lon="13.946944942217794"><ele>680.0</ele><time>2026-04-30T09:45:36.002Z</time></trkpt><trkpt lat="37.608896316746765" lon="13.946885836833912"><ele>682.5</ele><time>2026-04-30T09:45:37.002Z</time></trkpt><trkpt lat="37.60901797942815" lon="13.946821530100737"><ele>685.0</ele><time>2026-04-30T09:45:38.002Z</time></trkpt><trkpt lat="37.6091466981111" lon="13.946753282328984"><ele>683.25</ele><time>2026-04-30T09:45:39.002Z</time></trkpt><trkpt lat="37.609276329646406" lon="13.946673765538144"><ele>681.5</ele><time>2026-04-30T09:45:40.002Z</time></trkpt><trkpt lat="37.60939836588973" lon="13.94658196880457"><ele>679.75</ele><time>2026-04-30T09:45:41.002Z</time></trkpt><trkpt lat="37.60951737935965" lon="13.946492200766173"><ele>678.0</ele><time>2026-04-30T09:45:42.002Z</time></trkpt><trkpt lat="37.60963130700943" lon="13.946410632735526"><ele>678.0</ele><time>2026-04-30T09:45:43.002Z</time></trkpt><trkpt lat="37.609743393851126" lon="13.946340629325215"><ele>678.0</ele><time>2026-04-30T09:45:44.002Z</time></trkpt><trkpt lat="37.60985756894327" lon="13.946268378247677"><ele>678.0</ele><time>2026-04-30T09:45:45.002Z</time></trkpt><trkpt lat="37.609977849900055" lon="13.946196969206948"><ele>678.0</ele><time>2026-04-30T09:45:46.002Z</time></trkpt><trkpt lat="37.61010282225332" lon="13.946126679159665"><ele>678.0</ele><time>2026-04-30T09:45:47.002Z</time></trkpt><trkpt lat="37.61022091535977" lon="13.946060093628875"><ele>678.0</ele><time>2026-04-30T09:45:48.002Z</time></trkpt><trkpt lat="37.61033713458669" lon="13.945988776526447"><ele>678.0</ele><time>2026-04-30T09:45:49.002Z</time></trkpt><trkpt lat="37.61044338947083" lon="13.945917704967812"><ele>678.0</ele><time>2026-04-30T09:45:50.002Z</time></trkpt><trkpt lat="37.61054714559546" lon="13.94583529925679"><ele>677.5</ele><time>2026-04-30T09:45:51.002Z</time></trkpt><trkpt lat="37.610659173012415" lon="13.945731050880786"><ele>677.0</ele><time>2026-04-30T09:45:52.002Z</time></trkpt><trkpt lat="37.61077887528258" lon="13.945626121390497"><ele>676.5</ele><time>2026-04-30T09:45:53.002Z</time></trkpt><trkpt lat="37.61091174654383" lon="13.94553283245003"><ele>676.0</ele><time>2026-04-30T09:45:54.002Z</time></trkpt><trkpt lat="37.611060604862836" lon="13.945459102022902"><ele>675.3333333333334</ele><time>2026-04-30T09:45:55.002Z</time></trkpt><trkpt lat="37.61122502624957" lon="13.945415219633812"><ele>674.6666666666666</ele><time>2026-04-30T09:45:56.002Z</time></trkpt><trkpt lat="37.61139933799793" lon="13.945381208138716"><ele>674.0</ele><time>2026-04-30T09:45:57.002Z</time></trkpt><trkpt lat="37.61157018427077" lon="13.94534028790515"><ele>674.0</ele><time>2026-04-30T09:45:58.002Z</time></trkpt><trkpt lat="37.61172692083215" lon="13.945293079820589"><ele>674.0</ele><time>2026-04-30T09:45:59.002Z</time></trkpt><trkpt lat="37.61187964677478" lon="13.945263670974656"><ele>674.0</ele><time>2026-04-30T09:46:00.002Z</time></trkpt><trkpt lat="37.612028911793566" lon="13.945272167624898"><ele>674.25</ele><time>2026-04-30T09:46:01.002Z</time></trkpt><trkpt lat="37.61217356346924" lon="13.945314396579166"><ele>674.5</ele><time>2026-04-30T09:46:02.002Z</time></trkpt><trkpt lat="37.61231115689414" lon="13.945379505021418"><ele>674.75</ele><time>2026-04-30T09:46:03.002Z</time></trkpt><trkpt lat="37.612443770199874" lon="13.945458532198687"><ele>675.0</ele><time>2026-04-30T09:46:04.002Z</time></trkpt><trkpt lat="37.612572156912314" lon="13.945552455185288"><ele>675.0</ele><time>2026-04-30T09:46:05.002Z</time></trkpt><trkpt lat="37.612707388603916" lon="13.945630352479034"><ele>675.0</ele><time>2026-04-30T09:46:06.002Z</time></trkpt><trkpt lat="37.6128454599229" lon="13.94567302095129"><ele>675.0</ele><time>2026-04-30T09:46:07.002Z</time></trkpt><trkpt lat="37.61298551291303" lon="13.945704122203404"><ele>675.0</ele><time>2026-04-30T09:46:08.002Z</time></trkpt><trkpt lat="37.61313333442818" lon="13.945708994539176"><ele>675.0</ele><time>2026-04-30T09:46:09.002Z</time></trkpt><trkpt lat="37.613282944888745" lon="13.945685231038878"><ele>675.0</ele><time>2026-04-30T09:46:10.002Z</time></trkpt><trkpt lat="37.61342736853439" lon="13.945624768620016"><ele>675.0</ele><time>2026-04-30T09:46:11.002Z</time></trkpt><trkpt lat="37.61354590004548" lon="13.945516879532223"><ele>675.0</ele><time>2026-04-30T09:46:12.002Z</time></trkpt><trkpt lat="37.61363548567048" lon="13.945370756118477"><ele>674.6666666666666</ele><time>2026-04-30T09:46:13.002Z</time></trkpt><trkpt lat="37.6137031414742" lon="13.945202814098158"><ele>674.3333333333333</ele><time>2026-04-30T09:46:14.002Z</time></trkpt><trkpt lat="37.61376985233609" lon="13.945031555438794"><ele>674.0</ele><time>2026-04-30T09:46:15.002Z</time></trkpt><trkpt lat="37.61385633430842" lon="13.944863990667358"><ele>674.0</ele><time>2026-04-30T09:46:16.002Z</time></trkpt><trkpt lat="37.613958830901616" lon="13.944707254444218"><ele>674.0</ele><time>2026-04-30T09:46:17.002Z</time></trkpt><trkpt lat="37.61407295815389" lon="13.944551378410123"><ele>674.0</ele><time>2026-04-30T09:46:18.002Z</time></trkpt><trkpt lat="37.61419363319807" lon="13.944405223564175"><ele>674.0</ele><time>2026-04-30T09:46:19.002Z</time></trkpt><trkpt lat="37.61432163187217" lon="13.944274593108116"><ele>674.0</ele><time>2026-04-30T09:46:20.002Z</time></trkpt><trkpt lat="37.61444600338991" lon="13.944156959282068"><ele>674.0</ele><time>2026-04-30T09:46:21.002Z</time></trkpt><trkpt lat="37.61456339162763" lon="13.944048146675518"><ele>674.25</ele><time>2026-04-30T09:46:22.002Z</time></trkpt><trkpt lat="37.614680062400616" lon="13.943947892163159"><ele>674.5</ele><time>2026-04-30T09:46:23.002Z</time></trkpt><trkpt lat="37.61480664555819" lon="13.943863970006422"><ele>674.75</ele><time>2026-04-30T09:46:24.002Z</time></trkpt><trkpt lat="37.61494613343622" lon="13.943808103461887"><ele>675.0</ele><time>2026-04-30T09:46:25.002Z</time></trkpt><trkpt lat="37.61509216819029" lon="13.943772409268712"><ele>675.0</ele><time>2026-04-30T09:46:26.002Z</time></trkpt><trkpt lat="37.615232760889796" lon="13.943728339673273"><ele>675.0</ele><time>2026-04-30T09:46:27.003Z</time></trkpt><trkpt lat="37.61536123112056" lon="13.94365177583156"><ele>675.0</ele><time>2026-04-30T09:46:28.003Z</time></trkpt><trkpt lat="37.61547973537484" lon="13.94353480354729"><ele>675.0</ele><time>2026-04-30T09:46:29.003Z</time></trkpt><trkpt lat="37.61558284911227" lon="13.943387424751606"><ele>676.0</ele><time>2026-04-30T09:46:30.003Z</time></trkpt><trkpt lat="37.61566581225012" lon="13.943233030751461"><ele>677.0</ele><time>2026-04-30T09:46:31.003Z</time></trkpt><trkpt lat="37.61575102633129" lon="13.943092859940204"><ele>678.0</ele><time>2026-04-30T09:46:32.003Z</time></trkpt><trkpt lat="37.6158453880678" lon="13.942964240651474"><ele>679.0</ele><time>2026-04-30T09:46:33.003Z</time></trkpt><trkpt lat="37.61593788024042" lon="13.942827637887705"><ele>679.0</ele><time>2026-04-30T09:46:34.003Z</time></trkpt><trkpt lat="37.61600710406715" lon="13.94266645029524"><ele>679.0</ele><time>2026-04-30T09:46:35.003Z</time></trkpt><trkpt lat="37.616042366767644" lon="13.942481822670556"><ele>679.0</ele><time>2026-04-30T09:46:36.003Z</time></trkpt><trkpt lat="37.61604914419129" lon="13.942282833134428"><ele>681.3333333333334</ele><time>2026-04-30T09:46:37.003Z</time></trkpt><trkpt lat="37.616027216461156" lon="13.942079602624355"><ele>683.6666666666666</ele><time>2026-04-30T09:46:38.003Z</time></trkpt><trkpt lat="37.6160203231603" lon="13.941883026436473"><ele>686.0</ele><time>2026-04-30T09:46:39.003Z</time></trkpt><trkpt lat="37.616054152872444" lon="13.94168389880905"><ele>687.6666666666666</ele><time>2026-04-30T09:46:40.003Z</time></trkpt><trkpt lat="37.61611349647436" lon="13.941482363190259"><ele>689.3333333333334</ele><time>2026-04-30T09:46:41.003Z</time></trkpt><trkpt lat="37.616192528076716" lon="13.941284134362018"><ele>691.0</ele><time>2026-04-30T09:46:42.003Z</time></trkpt><trkpt lat="37.61626879131683" lon="13.941081897845507"><ele>686.6666666666667</ele><time>2026-04-30T09:46:43.003Z</time></trkpt><trkpt lat="37.61633525420418" lon="13.940873593293729"><ele>682.3333333333334</ele><time>2026-04-30T09:46:44.003Z</time></trkpt><trkpt lat="37.616396071067605" lon="13.940666786640838"><ele>678.0</ele><time>2026-04-30T09:46:45.003Z</time></trkpt><trkpt lat="37.61646163823253" lon="13.940463857520506"><ele>678.0</ele><time>2026-04-30T09:46:46.003Z</time></trkpt><trkpt lat="37.616529337996596" lon="13.940260719287147"><ele>678.0</ele><time>2026-04-30T09:46:47.003Z</time></trkpt><trkpt lat="37.61659304925661" lon="13.940064160001153"><ele>678.0</ele><time>2026-04-30T09:46:48.003Z</time></trkpt><trkpt lat="37.616652432120354" lon="13.939870543007974"><ele>680.6666666666666</ele><time>2026-04-30T09:46:49.003Z</time></trkpt><trkpt lat="37.61670700435121" lon="13.939673674798842"><ele>683.3333333333333</ele><time>2026-04-30T09:46:50.003Z</time></trkpt><trkpt lat="37.616748721986625" lon="13.939461879696609"><ele>686.0</ele><time>2026-04-30T09:46:51.003Z</time></trkpt><trkpt lat="37.6167650402114" lon="13.93923683820004"><ele>686.6666666666666</ele><time>2026-04-30T09:46:52.003Z</time></trkpt><trkpt lat="37.616742615474266" lon="13.93900607747979"><ele>687.3333333333334</ele><time>2026-04-30T09:46:53.003Z</time></trkpt><trkpt lat="37.616703606359174" lon="13.938786444884206"><ele>688.0</ele><time>2026-04-30T09:46:54.003Z</time></trkpt><trkpt lat="37.61667065335598" lon="13.938585036268302"><ele>688.0</ele><time>2026-04-30T09:46:55.002Z</time></trkpt><trkpt lat="37.61664627990645" lon="13.938385994854357"><ele>688.0</ele><time>2026-04-30T09:46:56.002Z</time></trkpt><trkpt lat="37.61663221105982" lon="13.938181419296058"><ele>688.0</ele><time>2026-04-30T09:46:57.002Z</time></trkpt><trkpt lat="37.61662961903727" lon="13.93796660852854"><ele>688.0</ele><time>2026-04-30T09:46:58.002Z</time></trkpt><trkpt lat="37.61664062242949" lon="13.937748454162973"><ele>688.0</ele><time>2026-04-30T09:46:59.002Z</time></trkpt><trkpt lat="37.61667005135144" lon="13.937527362391442"><ele>688.0</ele><time>2026-04-30T09:47:00.002Z</time></trkpt><trkpt lat="37.6167142633326" lon="13.937310351174913"><ele>688.0</ele><time>2026-04-30T09:47:01.002Z</time></trkpt><trkpt lat="37.61677604516956" lon="13.937097027036156"><ele>688.0</ele><time>2026-04-30T09:47:02.002Z</time></trkpt><trkpt lat="37.61685130824313" lon="13.936890333739498"><ele>688.0</ele><time>2026-04-30T09:47:03.002Z</time></trkpt><trkpt lat="37.61693544776501" lon="13.936707559875986"><ele>685.0</ele><time>2026-04-30T09:47:04.002Z</time></trkpt><trkpt lat="37.61703136573462" lon="13.936552142252715"><ele>682.0</ele><time>2026-04-30T09:47:05.002Z</time></trkpt><trkpt lat="37.617125699477306" lon="13.936403852217952"><ele>679.0</ele><time>2026-04-30T09:47:06.002Z</time></trkpt><trkpt lat="37.617186819193186" lon="13.936239585254764"><ele>679.0</ele><time>2026-04-30T09:47:07.002Z</time></trkpt><trkpt lat="37.61721225291336" lon="13.936058734374178"><ele>679.0</ele><time>2026-04-30T09:47:08.002Z</time></trkpt><trkpt lat="37.61722456577917" lon="13.935869249733749"><ele>679.0</ele><time>2026-04-30T09:47:09.002Z</time></trkpt><trkpt lat="37.617217062089566" lon="13.93568252847484"><ele>679.0</ele><time>2026-04-30T09:47:10.002Z</time></trkpt><trkpt lat="37.61720947194123" lon="13.93550239277259"><ele>680.5</ele><time>2026-04-30T09:47:11.002Z</time></trkpt><trkpt lat="37.61720657391489" lon="13.935318402972912"><ele>682.0</ele><time>2026-04-30T09:47:12.002Z</time></trkpt><trkpt lat="37.6172031354316" lon="13.935131591701653"><ele>683.5</ele><time>2026-04-30T09:47:13.002Z</time></trkpt><trkpt lat="37.617197618675725" lon="13.934940587324832"><ele>685.0</ele><time>2026-04-30T09:47:14.002Z</time></trkpt><trkpt lat="37.61719214779002" lon="13.934746827721318"><ele>685.0</ele><time>2026-04-30T09:47:15.002Z</time></trkpt><trkpt lat="37.617179319262156" lon="13.934549931337713"><ele>685.0</ele><time>2026-04-30T09:47:16.002Z</time></trkpt><trkpt lat="37.61713710882526" lon="13.934356459054245"><ele>685.0</ele><time>2026-04-30T09:47:17.001Z</time></trkpt><trkpt lat="37.617049915418036" lon="13.934186599167885"><ele>689.6666666666667</ele><time>2026-04-30T09:47:18.001Z</time></trkpt><trkpt lat="37.616958422270635" lon="13.934035490545778"><ele>694.3333333333334</ele><time>2026-04-30T09:47:19.001Z</time></trkpt><trkpt lat="37.61684924141559" lon="13.93390761394522"><ele>699.0</ele><time>2026-04-30T09:47:20.001Z</time></trkpt><trkpt lat="37.61673390756859" lon="13.933786587009639"><ele>699.0</ele><time>2026-04-30T09:47:21.001Z</time></trkpt><trkpt lat="37.61661335096857" lon="13.933665643723243"><ele>699.0</ele><time>2026-04-30T09:47:22.001Z</time></trkpt><trkpt lat="37.61649625101661" lon="13.933537374345589"><ele>699.0</ele><time>2026-04-30T09:47:23.001Z</time></trkpt><trkpt lat="37.616386036750264" lon="13.933397297361742"><ele>701.3333333333334</ele><time>2026-04-30T09:47:24.001Z</time></trkpt><trkpt lat="37.6162881354195" lon="13.933240973420434"><ele>703.6666666666667</ele><time>2026-04-30T09:47:25.001Z</time></trkpt><trkpt lat="37.61620645837371" lon="13.933069656314084"><ele>706.0</ele><time>2026-04-30T09:47:26.001Z</time></trkpt><trkpt lat="37.61613697491107" lon="13.932886124395756"><ele>706.0</ele><time>2026-04-30T09:47:27.001Z</time></trkpt><trkpt lat="37.61607385909105" lon="13.93269476488684"><ele>706.0</ele><time>2026-04-30T09:47:28.001Z</time></trkpt><trkpt lat="37.6160089791857" lon="13.932501225007474"><ele>706.0</ele><time>2026-04-30T09:47:29.001Z</time></trkpt><trkpt lat="37.61592451035402" lon="13.93232118837755"><ele>704.3333333333334</ele><time>2026-04-30T09:47:30.001Z</time></trkpt><trkpt lat="37.615849212896855" lon="13.932153024972472"><ele>702.6666666666666</ele><time>2026-04-30T09:47:31.001Z</time></trkpt><trkpt lat="37.61577306880096" lon="13.93198993696931"><ele>701.0</ele><time>2026-04-30T09:47:32.001Z</time></trkpt><trkpt lat="37.615678631716904" lon="13.93183993961815"><ele>701.0</ele><time>2026-04-30T09:47:33.001Z</time></trkpt><trkpt lat="37.61556443502044" lon="13.93170901447989"><ele>701.0</ele><time>2026-04-30T09:47:34.001Z</time></trkpt><trkpt lat="37.61543642333127" lon="13.931593553417406"><ele>701.0</ele><time>2026-04-30T09:47:35.001Z</time></trkpt><trkpt lat="37.61529617611469" lon="13.931498651030623"><ele>701.0</ele><time>2026-04-30T09:47:36.001Z</time></trkpt><trkpt lat="37.615158803112486" lon="13.931419783057425"><ele>701.0</ele><time>2026-04-30T09:47:37.001Z</time></trkpt><trkpt lat="37.615038089156215" lon="13.931313460689408"><ele>701.0</ele><time>2026-04-30T09:47:38.001Z</time></trkpt><trkpt lat="37.61493169022228" lon="13.931183067549593"><ele>701.0</ele><time>2026-04-30T09:47:39.001Z</time></trkpt><trkpt lat="37.61485206225937" lon="13.931017888593741"><ele>699.0</ele><time>2026-04-30T09:47:40.001Z</time></trkpt><trkpt lat="37.61481325719545" lon="13.93083039462483"><ele>697.0</ele><time>2026-04-30T09:47:41.001Z</time></trkpt><trkpt lat="37.61479952559643" lon="13.930643129945627"><ele>695.0</ele><time>2026-04-30T09:47:42.001Z</time></trkpt><trkpt lat="37.614794915996136" lon="13.930455943665594"><ele>695.0</ele><time>2026-04-30T09:47:43.001Z</time></trkpt><trkpt lat="37.61477086602049" lon="13.930272576207116"><ele>695.0</ele><time>2026-04-30T09:47:44.001Z</time></trkpt><trkpt lat="37.614735137435694" lon="13.93009499737387"><ele>695.0</ele><time>2026-04-30T09:47:45.001Z</time></trkpt><trkpt lat="37.61466878253932" lon="13.929932688246495"><ele>695.0</ele><time>2026-04-30T09:47:46.001Z</time></trkpt><trkpt lat="37.614571601647235" lon="13.929793197107493"><ele>698.0</ele><time>2026-04-30T09:47:47.001Z</time></trkpt><trkpt lat="37.61444519114434" lon="13.929687342324291"><ele>701.0</ele><time>2026-04-30T09:47:48.001Z</time></trkpt><trkpt lat="37.614302629817786" lon="13.929618499928948"><ele>704.0</ele><time>2026-04-30T09:47:49.001Z</time></trkpt><trkpt lat="37.614159501944464" lon="13.929554029890765"><ele>704.0</ele><time>2026-04-30T09:47:50.001Z</time></trkpt><trkpt lat="37.61402988064809" lon="13.929447295705012"><ele>704.0</ele><time>2026-04-30T09:47:51.001Z</time></trkpt><trkpt lat="37.613903310438324" lon="13.929317932657854"><ele>704.0</ele><time>2026-04-30T09:47:52.002Z</time></trkpt><trkpt lat="37.6137741848588" lon="13.929169766348263"><ele>703.3333333333333</ele><time>2026-04-30T09:47:53.002Z</time></trkpt><trkpt lat="37.613640979318234" lon="13.929021107973142"><ele>702.6666666666666</ele><time>2026-04-30T09:47:54.002Z</time></trkpt><trkpt lat="37.613508425820754" lon="13.928871469073929"><ele>702.0</ele><time>2026-04-30T09:47:55.002Z</time></trkpt><trkpt lat="37.61337796671402" lon="13.928726676598588"><ele>702.0</ele><time>2026-04-30T09:47:56.002Z</time></trkpt><trkpt lat="37.61325234083893" lon="13.928589767892575"><ele>702.0</ele><time>2026-04-30T09:47:57.002Z</time></trkpt><trkpt lat="37.61312941387666" lon="13.928457208848027"><ele>702.0</ele><time>2026-04-30T09:47:58.002Z</time></trkpt><trkpt lat="37.61301163747663" lon="13.928329089187466"><ele>702.0</ele><time>2026-04-30T09:47:59.002Z</time></trkpt><trkpt lat="37.61289992808815" lon="13.928199332241224"><ele>702.0</ele><time>2026-04-30T09:48:00.002Z</time></trkpt><trkpt lat="37.61278549684434" lon="13.928080175301034"><ele>702.0</ele><time>2026-04-30T09:48:01.002Z</time></trkpt><trkpt lat="37.61264928546315" lon="13.927986791072062"><ele>702.0</ele><time>2026-04-30T09:48:02.002Z</time></trkpt><trkpt lat="37.61249759563565" lon="13.927936944757024"><ele>702.0</ele><time>2026-04-30T09:48:03.002Z</time></trkpt><trkpt lat="37.61234050927887" lon="13.927930493721412"><ele>702.0</ele><time>2026-04-30T09:48:04.002Z</time></trkpt><trkpt lat="37.61217757272027" lon="13.927964380398736"><ele>702.0</ele><time>2026-04-30T09:48:05.002Z</time></trkpt><trkpt lat="37.61200897428416" lon="13.927963116267833"><ele>702.0</ele><time>2026-04-30T09:48:06.002Z</time></trkpt><trkpt lat="37.61183964080238" lon="13.92791970538969"><ele>702.0</ele><time>2026-04-30T09:48:07.002Z</time></trkpt><trkpt lat="37.611671344893736" lon="13.927851578223384"><ele>700.6666666666666</ele><time>2026-04-30T09:48:08.002Z</time></trkpt><trkpt lat="37.61150404936378" lon="13.92776401906911"><ele>699.3333333333333</ele><time>2026-04-30T09:48:09.002Z</time></trkpt><trkpt lat="37.611345093196256" lon="13.927661942212639"><ele>698.0</ele><time>2026-04-30T09:48:10.002Z</time></trkpt><trkpt lat="37.611196167626055" lon="13.92755177743033"><ele>701.0</ele><time>2026-04-30T09:48:11.002Z</time></trkpt><trkpt lat="37.61106354687118" lon="13.927418571046724"><ele>704.0</ele><time>2026-04-30T09:48:12.002Z</time></trkpt><trkpt lat="37.61095668833137" lon="13.92726024304065"><ele>707.0</ele><time>2026-04-30T09:48:13.002Z</time></trkpt><trkpt lat="37.61088627690171" lon="13.927073115990346"><ele>707.0</ele><time>2026-04-30T09:48:14.002Z</time></trkpt><trkpt lat="37.61082158608251" lon="13.926880378114113"><ele>707.0</ele><time>2026-04-30T09:48:15.002Z</time></trkpt><trkpt lat="37.61073170042365" lon="13.926693137030954"><ele>707.0</ele><time>2026-04-30T09:48:16.002Z</time></trkpt><trkpt lat="37.61062533662713" lon="13.92651483539011"><ele>705.0</ele><time>2026-04-30T09:48:17.002Z</time></trkpt><trkpt lat="37.61051411443643" lon="13.926333768844293"><ele>703.0</ele><time>2026-04-30T09:48:18.002Z</time></trkpt><trkpt lat="37.61039601862811" lon="13.92615465120622"><ele>701.0</ele><time>2026-04-30T09:48:19.002Z</time></trkpt><trkpt lat="37.610268682044556" lon="13.92598672785968"><ele>702.0</ele><time>2026-04-30T09:48:20.002Z</time></trkpt><trkpt lat="37.61012980213884" lon="13.925832276466648"><ele>703.0</ele><time>2026-04-30T09:48:21.002Z</time></trkpt><trkpt lat="37.60998263564804" lon="13.925691311723602"><ele>704.0</ele><time>2026-04-30T09:48:22.002Z</time></trkpt><trkpt lat="37.609834754810834" lon="13.925574544440073"><ele>704.0</ele><time>2026-04-30T09:48:23.002Z</time></trkpt><trkpt lat="37.609694304438214" lon="13.925477045049488"><ele>704.0</ele><time>2026-04-30T09:48:24.002Z</time></trkpt><trkpt lat="37.609558448519465" lon="13.925402334431023"><ele>704.0</ele><time>2026-04-30T09:48:25.002Z</time></trkpt><trkpt lat="37.60941064416242" lon="13.925355649559341"><ele>705.3333333333333</ele><time>2026-04-30T09:48:26.002Z</time></trkpt><trkpt lat="37.60924900277489" lon="13.925350047188893"><ele>706.6666666666666</ele><time>2026-04-30T09:48:27.002Z</time></trkpt><trkpt lat="37.60908348366746" lon="13.925371287822127"><ele>708.0</ele><time>2026-04-30T09:48:28.002Z</time></trkpt><trkpt lat="37.608923241611684" lon="13.925411293852017"><ele>708.0</ele><time>2026-04-30T09:48:29.002Z</time></trkpt><trkpt lat="37.60877060742695" lon="13.925444472624703"><ele>708.0</ele><time>2026-04-30T09:48:30.002Z</time></trkpt><trkpt lat="37.608629853391896" lon="13.92547023039133"><ele>708.0</ele><time>2026-04-30T09:48:31.002Z</time></trkpt><trkpt lat="37.60850534458785" lon="13.925473499733972"><ele>708.0</ele><time>2026-04-30T09:48:32.002Z</time></trkpt><trkpt lat="37.60839405038733" lon="13.925413026777084"><ele>707.75</ele><time>2026-04-30T09:48:33.002Z</time></trkpt><trkpt lat="37.60828628189724" lon="13.92531405445089"><ele>707.5</ele><time>2026-04-30T09:48:34.002Z</time></trkpt><trkpt lat="37.6081705108415" lon="13.925187572973412"><ele>707.25</ele><time>2026-04-30T09:48:35.002Z</time></trkpt><trkpt lat="37.608046518038606" lon="13.925076410454631"><ele>707.0</ele><time>2026-04-30T09:48:36.002Z</time></trkpt><trkpt lat="37.60791383393621" lon="13.92497544067691"><ele>705.25</ele><time>2026-04-30T09:48:37.002Z</time></trkpt><trkpt lat="37.60777925565167" lon="13.924881793246445"><ele>703.5</ele><time>2026-04-30T09:48:38.002Z</time></trkpt><trkpt lat="37.607644871584974" lon="13.924798658477993"><ele>701.75</ele><time>2026-04-30T09:48:39.002Z</time></trkpt><trkpt lat="37.6075136057883" lon="13.924728711348125"><ele>700.0</ele><time>2026-04-30T09:48:40.002Z</time></trkpt><trkpt lat="37.60737978090723" lon="13.92465729799683"><ele>700.0</ele><time>2026-04-30T09:48:41.002Z</time></trkpt><trkpt lat="37.60724501058958" lon="13.92457865888052"><ele>700.0</ele><time>2026-04-30T09:48:42.002Z</time></trkpt><trkpt lat="37.6070980957033" lon="13.924498724823815"><ele>700.0</ele><time>2026-04-30T09:48:43.002Z</time></trkpt><trkpt lat="37.60694032951384" lon="13.92442203286598"><ele>702.3333333333334</ele><time>2026-04-30T09:48:44.002Z</time></trkpt><trkpt lat="37.606773435690634" lon="13.924352413793478"><ele>704.6666666666666</ele><time>2026-04-30T09:48:45.002Z</time></trkpt><trkpt lat="37.606593283190165" lon="13.924300565701309"><ele>707.0</ele><time>2026-04-30T09:48:46.002Z</time></trkpt><trkpt lat="37.606403901939075" lon="13.924269147214765"><ele>707.0</ele><time>2026-04-30T09:48:47.002Z</time></trkpt><trkpt lat="37.606217578642905" lon="13.924234520646587"><ele>707.0</ele><time>2026-04-30T09:48:48.002Z</time></trkpt><trkpt lat="37.606030345846094" lon="13.924184993271146"><ele>707.0</ele><time>2026-04-30T09:48:49.002Z</time></trkpt><trkpt lat="37.60585022873407" lon="13.924105783128935"><ele>703.6666666666666</ele><time>2026-04-30T09:48:50.002Z</time></trkpt><trkpt lat="37.60567673677155" lon="13.924003251791977"><ele>700.3333333333334</ele><time>2026-04-30T09:48:51.002Z</time></trkpt><trkpt lat="37.60551855491778" lon="13.923883344411227"><ele>697.0</ele><time>2026-04-30T09:48:52.002Z</time></trkpt><trkpt lat="37.60537357744797" lon="13.923763405252016"><ele>701.3333333333334</ele><time>2026-04-30T09:48:53.002Z</time></trkpt><trkpt lat="37.6052334709293" lon="13.92364687925625"><ele>705.6666666666666</ele><time>2026-04-30T09:48:54.002Z</time></trkpt><trkpt lat="37.60509918105382" lon="13.923534564678244"><ele>710.0</ele><time>2026-04-30T09:48:55.002Z</time></trkpt><trkpt lat="37.604972312397535" lon="13.92342013474411"><ele>703.6666666666666</ele><time>2026-04-30T09:48:56.002Z</time></trkpt><trkpt lat="37.60485296876998" lon="13.923288480130225"><ele>697.3333333333334</ele><time>2026-04-30T09:48:57.002Z</time></trkpt><trkpt lat="37.604741168700286" lon="13.923136676865338"><ele>691.0</ele><time>2026-04-30T09:48:58.002Z</time></trkpt><trkpt lat="37.6046436955436" lon="13.922959442933243"><ele>691.0</ele><time>2026-04-30T09:48:59.002Z</time></trkpt><trkpt lat="37.604562228882216" lon="13.922764704013666"><ele>691.0</ele><time>2026-04-30T09:49:00.002Z</time></trkpt><trkpt lat="37.60447205243435" lon="13.922576232048652"><ele>691.0</ele><time>2026-04-30T09:49:01.001Z</time></trkpt><trkpt lat="37.60435762025736" lon="13.92240648043472"><ele>691.6666666666667</ele><time>2026-04-30T09:49:02.001Z</time></trkpt><trkpt lat="37.60422541659734" lon="13.922259446737652"><ele>692.3333333333334</ele><time>2026-04-30T09:49:03.001Z</time></trkpt><trkpt lat="37.6040805111375" lon="13.922141684796872"><ele>693.0</ele><time>2026-04-30T09:49:04.001Z</time></trkpt><trkpt lat="37.60392340508249" lon="13.922045960924827"><ele>693.0</ele><time>2026-04-30T09:49:05.001Z</time></trkpt><trkpt lat="37.603759938875875" lon="13.921963483591183"><ele>693.0</ele><time>2026-04-30T09:49:06.001Z</time></trkpt><trkpt lat="37.60359588571436" lon="13.921877627844268"><ele>693.0</ele><time>2026-04-30T09:49:07.001Z</time></trkpt><trkpt lat="37.603433524054154" lon="13.921783180429623"><ele>690.3333333333334</ele><time>2026-04-30T09:49:08.001Z</time></trkpt><trkpt lat="37.60326621374741" lon="13.92169275261052"><ele>687.6666666666667</ele><time>2026-04-30T09:49:09.001Z</time></trkpt><trkpt lat="37.603098911166036" lon="13.921602460565373"><ele>685.0</ele><time>2026-04-30T09:49:10.001Z</time></trkpt><trkpt lat="37.602932108511986" lon="13.921509862235698"><ele>687.3333333333334</ele><time>2026-04-30T09:49:11.001Z</time></trkpt><trkpt lat="37.60276118002093" lon="13.921417030236327"><ele>689.6666666666666</ele><time>2026-04-30T09:49:12.001Z</time></trkpt><trkpt lat="37.602587701372194" lon="13.921324159205268"><ele>692.0</ele><time>2026-04-30T09:49:13.001Z</time></trkpt><trkpt lat="37.60241245026711" lon="13.92122623117516"><ele>692.0</ele><time>2026-04-30T09:49:14.001Z</time></trkpt><trkpt lat="37.60223865780626" lon="13.921115315637032"><ele>692.0</ele><time>2026-04-30T09:49:15.001Z</time></trkpt><trkpt lat="37.602075787602146" lon="13.920985896761724"><ele>692.0</ele><time>2026-04-30T09:49:16.001Z</time></trkpt><trkpt lat="37.601931502521396" lon="13.920822326015635"><ele>690.0</ele><time>2026-04-30T09:49:17.001Z</time></trkpt><trkpt lat="37.60179771347227" lon="13.920640098634804"><ele>688.0</ele><time>2026-04-30T09:49:18.001Z</time></trkpt><trkpt lat="37.60166374039707" lon="13.920451806561053"><ele>686.0</ele><time>2026-04-30T09:49:19.001Z</time></trkpt><trkpt lat="37.60152394652907" lon="13.920267257104383"><ele>686.0</ele><time>2026-04-30T09:49:20.001Z</time></trkpt><trkpt lat="37.601381799432204" lon="13.920092977828295"><ele>686.0</ele><time>2026-04-30T09:49:21.001Z</time></trkpt><trkpt lat="37.60124255130622" lon="13.919927719363068"><ele>686.0</ele><time>2026-04-30T09:49:22.001Z</time></trkpt><trkpt lat="37.601106293003" lon="13.919775738009964"><ele>687.0</ele><time>2026-04-30T09:49:23.001Z</time></trkpt><trkpt lat="37.60097291925271" lon="13.91962994823031"><ele>688.0</ele><time>2026-04-30T09:49:24.001Z</time></trkpt><trkpt lat="37.60083975318719" lon="13.919483493884043"><ele>689.0</ele><time>2026-04-30T09:49:25.001Z</time></trkpt><trkpt lat="37.60070859459351" lon="13.919332249605104"><ele>690.0</ele><time>2026-04-30T09:49:26.001Z</time></trkpt><trkpt lat="37.60057662662716" lon="13.919175880988623"><ele>691.0</ele><time>2026-04-30T09:49:27.001Z</time></trkpt><trkpt lat="37.60043822684753" lon="13.919021781693113"><ele>692.0</ele><time>2026-04-30T09:49:28.001Z</time></trkpt><trkpt lat="37.600305441032205" lon="13.918883969296378"><ele>692.0</ele><time>2026-04-30T09:49:29.001Z</time></trkpt><trkpt lat="37.60018260195501" lon="13.918745304814777"><ele>692.0</ele><time>2026-04-30T09:49:30.001Z</time></trkpt><trkpt lat="37.60006982955992" lon="13.918602933745502"><ele>692.0</ele><time>2026-04-30T09:49:31.001Z</time></trkpt><trkpt lat="37.59996792227405" lon="13.918458331938844"><ele>688.5</ele><time>2026-04-30T09:49:32.001Z</time></trkpt><trkpt lat="37.59988126716143" lon="13.918306900541412"><ele>685.0</ele><time>2026-04-30T09:49:33.001Z</time></trkpt><trkpt lat="37.5998145564098" lon="13.918147329195685"><ele>681.5</ele><time>2026-04-30T09:49:34.001Z</time></trkpt><trkpt lat="37.59975980862697" lon="13.917988191240585"><ele>678.0</ele><time>2026-04-30T09:49:35.001Z</time></trkpt><trkpt lat="37.59971081917216" lon="13.917841890652898"><ele>678.0</ele><time>2026-04-30T09:49:36.001Z</time></trkpt><trkpt lat="37.599663248225255" lon="13.917710714512266"><ele>678.0</ele><time>2026-04-30T09:49:37.001Z</time></trkpt><trkpt lat="37.59961847650942" lon="13.917582791698484"><ele>678.0</ele><time>2026-04-30T09:49:38.001Z</time></trkpt><trkpt lat="37.599575951268484" lon="13.917450544250459"><ele>678.0</ele><time>2026-04-30T09:49:39.001Z</time></trkpt><trkpt lat="37.599532317291505" lon="13.917315523203726"><ele>680.0</ele><time>2026-04-30T09:49:40.001Z</time></trkpt><trkpt lat="37.59948494663378" lon="13.917178367677531"><ele>682.0</ele><time>2026-04-30T09:49:41.001Z</time></trkpt><trkpt lat="37.599434310853006" lon="13.917041825074548"><ele>684.0</ele><time>2026-04-30T09:49:42.001Z</time></trkpt><trkpt lat="37.59938300433491" lon="13.91691345896893"><ele>686.0</ele><time>2026-04-30T09:49:43.001Z</time></trkpt><trkpt lat="37.599334397466826" lon="13.91678257362207"><ele>685.5</ele><time>2026-04-30T09:49:44.001Z</time></trkpt><trkpt lat="37.59929996921398" lon="13.91664142261737"><ele>685.0</ele><time>2026-04-30T09:49:45.001Z</time></trkpt><trkpt lat="37.599279530597954" lon="13.916487091366399"><ele>684.5</ele><time>2026-04-30T09:49:46.001Z</time></trkpt><trkpt lat="37.59927201392671" lon="13.91632598337991"><ele>684.0</ele><time>2026-04-30T09:49:47.001Z</time></trkpt><trkpt lat="37.59926770198901" lon="13.916164755346378"><ele>684.0</ele><time>2026-04-30T09:49:48.001Z</time></trkpt><trkpt lat="37.599262056879304" lon="13.916001512747384"><ele>684.0</ele><time>2026-04-30T09:49:49.001Z</time></trkpt><trkpt lat="37.599257809918356" lon="13.915835347145531"><ele>684.0</ele><time>2026-04-30T09:49:50.001Z</time></trkpt><trkpt lat="37.59925418973458" lon="13.915671032306665"><ele>684.0</ele><time>2026-04-30T09:49:51.001Z</time></trkpt><trkpt lat="37.59924730102033" lon="13.915507930192314"><ele>683.75</ele><time>2026-04-30T09:49:52.001Z</time></trkpt><trkpt lat="37.59923606440976" lon="13.915343941717017"><ele>683.5</ele><time>2026-04-30T09:49:53.001Z</time></trkpt><trkpt lat="37.59922167553383" lon="13.915191351622939"><ele>683.25</ele><time>2026-04-30T09:49:54.001Z</time></trkpt><trkpt lat="37.59919801186698" lon="13.915048089265385"><ele>683.0</ele><time>2026-04-30T09:49:55.001Z</time></trkpt><trkpt lat="37.59916700759156" lon="13.914913291606249"><ele>682.25</ele><time>2026-04-30T09:49:56.001Z</time></trkpt><trkpt lat="37.599128990583566" lon="13.91477843102076"><ele>681.5</ele><time>2026-04-30T09:49:57.001Z</time></trkpt><trkpt lat="37.5990851564316" lon="13.914643163862662"><ele>680.75</ele><time>2026-04-30T09:49:58.001Z</time></trkpt><trkpt lat="37.5990199839098" lon="13.914522754081089"><ele>680.0</ele><time>2026-04-30T09:49:59.001Z</time></trkpt><trkpt lat="37.59893389513647" lon="13.91442133943516"><ele>680.0</ele><time>2026-04-30T09:50:00.001Z</time></trkpt><trkpt lat="37.5988279561676" lon="13.914342403800461"><ele>680.0</ele><time>2026-04-30T09:50:01.001Z</time></trkpt><trkpt lat="37.598715066113435" lon="13.914267493600013"><ele>680.0</ele><time>2026-04-30T09:50:02.001Z</time></trkpt><trkpt lat="37.598604086172834" lon="13.914181398354888"><ele>680.0</ele><time>2026-04-30T09:50:03.001Z</time></trkpt><trkpt lat="37.59849209211667" lon="13.914090332052822"><ele>680.75</ele><time>2026-04-30T09:50:04.001Z</time></trkpt><trkpt lat="37.59838042117691" lon="13.913999747419371"><ele>681.5</ele><time>2026-04-30T09:50:05.001Z</time></trkpt><trkpt lat="37.598271235090245" lon="13.913917152432754"><ele>682.25</ele><time>2026-04-30T09:50:06.001Z</time></trkpt><trkpt lat="37.598171649410745" lon="13.913836955352352"><ele>683.0</ele><time>2026-04-30T09:50:07.001Z</time></trkpt><trkpt lat="37.59807421728191" lon="13.913765221530225"><ele>683.0</ele><time>2026-04-30T09:50:08.001Z</time></trkpt><trkpt lat="37.59797969456417" lon="13.913703606966344"><ele>683.0</ele><time>2026-04-30T09:50:09.001Z</time></trkpt><trkpt lat="37.597887513690715" lon="13.913642158470413"><ele>683.0</ele><time>2026-04-30T09:50:10.001Z</time></trkpt><trkpt lat="37.59779359837972" lon="13.913578500605535"><ele>683.0</ele><time>2026-04-30T09:50:11.001Z</time></trkpt><trkpt lat="37.597693655544745" lon="13.913509637704312"><ele>683.0</ele><time>2026-04-30T09:50:12.001Z</time></trkpt><trkpt lat="37.59758590567954" lon="13.91343827730584"><ele>681.25</ele><time>2026-04-30T09:50:13.001Z</time></trkpt><trkpt lat="37.59747022504502" lon="13.913362178833877"><ele>679.5</ele><time>2026-04-30T09:50:14.001Z</time></trkpt><trkpt lat="37.59735100451147" lon="13.913281013430204"><ele>677.75</ele><time>2026-04-30T09:50:15.001Z</time></trkpt><trkpt lat="37.597230843696856" lon="13.913196089444583"><ele>676.0</ele><time>2026-04-30T09:50:16.001Z</time></trkpt><trkpt lat="37.59710674081823" lon="13.913108241677516"><ele>676.75</ele><time>2026-04-30T09:50:17.001Z</time></trkpt><trkpt lat="37.596984393118596" lon="13.91302028775178"><ele>677.5</ele><time>2026-04-30T09:50:18.001Z</time></trkpt><trkpt lat="37.59686362489555" lon="13.912932382740248"><ele>678.25</ele><time>2026-04-30T09:50:19.001Z</time></trkpt><trkpt lat="37.596747672059536" lon="13.912840347790446"><ele>679.0</ele><time>2026-04-30T09:50:20.001Z</time></trkpt><trkpt lat="37.596643452609825" lon="13.912731872516881"><ele>679.0</ele><time>2026-04-30T09:50:21.001Z</time></trkpt><trkpt lat="37.596568354749714" lon="13.912607589630802"><ele>679.0</ele><time>2026-04-30T09:50:22.001Z</time></trkpt><trkpt lat="37.596535028048564" lon="13.912454363168925"><ele>679.0</ele><time>2026-04-30T09:50:23.001Z</time></trkpt><trkpt lat="37.596535737545196" lon="13.912281108459652"><ele>679.0</ele><time>2026-04-30T09:50:24.001Z</time></trkpt><trkpt lat="37.596542672051044" lon="13.912100058978867"><ele>675.75</ele><time>2026-04-30T09:50:25.001Z</time></trkpt><trkpt lat="37.59653589218382" lon="13.911915098141927"><ele>672.5</ele><time>2026-04-30T09:50:26.001Z</time></trkpt><trkpt lat="37.59653243956007" lon="13.911731786087456"><ele>669.25</ele><time>2026-04-30T09:50:27.001Z</time></trkpt><trkpt lat="37.596524142681716" lon="13.911544829711334"><ele>666.0</ele><time>2026-04-30T09:50:28.001Z</time></trkpt><trkpt lat="37.59651085419974" lon="13.911347959824143"><ele>664.3333333333334</ele><time>2026-04-30T09:50:29.001Z</time></trkpt><trkpt lat="37.5964812968953" lon="13.91114300572979"><ele>662.6666666666667</ele><time>2026-04-30T09:50:30.002Z</time></trkpt><trkpt lat="37.59644661689756" lon="13.910935544386184"><ele>661.0</ele><time>2026-04-30T09:50:31.002Z</time></trkpt><trkpt lat="37.596418362800506" lon="13.910727789860468"><ele>658.6666666666667</ele><time>2026-04-30T09:50:32.002Z</time></trkpt><trkpt lat="37.596384466563435" lon="13.910525640835791"><ele>656.3333333333334</ele><time>2026-04-30T09:50:33.002Z</time></trkpt><trkpt lat="37.59633193598935" lon="13.910319409188084"><ele>654.0</ele><time>2026-04-30T09:50:34.002Z</time></trkpt><trkpt lat="37.59627156625995" lon="13.910111990890584"><ele>654.6666666666666</ele><time>2026-04-30T09:50:35.002Z</time></trkpt><trkpt lat="37.596200877693036" lon="13.909907866833393"><ele>655.3333333333333</ele><time>2026-04-30T09:50:36.002Z</time></trkpt><trkpt lat="37.59611371012487" lon="13.909706782585321"><ele>656.0</ele><time>2026-04-30T09:50:37.002Z</time></trkpt><trkpt lat="37.596015974620485" lon="13.909516013291409"><ele>656.0</ele><time>2026-04-30T09:50:38.002Z</time></trkpt><trkpt lat="37.595911724052826" lon="13.909343690921078"><ele>656.0</ele><time>2026-04-30T09:50:39.002Z</time></trkpt><trkpt lat="37.59581440446327" lon="13.909183388917588"><ele>656.0</ele><time>2026-04-30T09:50:40.002Z</time></trkpt><trkpt lat="37.59573856931091" lon="13.909034705697197"><ele>654.0</ele><time>2026-04-30T09:50:41.002Z</time></trkpt><trkpt lat="37.595680361296" lon="13.908892363263526"><ele>652.0</ele><time>2026-04-30T09:50:42.002Z</time></trkpt><trkpt lat="37.59565128864142" lon="13.908733197691939"><ele>650.0</ele><time>2026-04-30T09:50:43.002Z</time></trkpt><trkpt lat="37.59567844141429" lon="13.908560761601189"><ele>648.0</ele><time>2026-04-30T09:50:44.002Z</time></trkpt><trkpt lat="37.59571954242079" lon="13.908392705020354"><ele>645.75</ele><time>2026-04-30T09:50:45.002Z</time></trkpt><trkpt lat="37.595761201362926" lon="13.90822609371737"><ele>643.5</ele><time>2026-04-30T09:50:46.002Z</time></trkpt><trkpt lat="37.59579246945938" lon="13.908058466361803"><ele>641.25</ele><time>2026-04-30T09:50:47.002Z</time></trkpt><trkpt lat="37.59581888440976" lon="13.907887552437705"><ele>639.0</ele><time>2026-04-30T09:50:48.002Z</time></trkpt><trkpt lat="37.5958470754208" lon="13.907716711415343"><ele>638.0</ele><time>2026-04-30T09:50:49.002Z</time></trkpt><trkpt lat="37.5958758509037" lon="13.907544419086268"><ele>637.0</ele><time>2026-04-30T09:50:50.002Z</time></trkpt><trkpt lat="37.59590494350919" lon="13.907369458047903"><ele>636.0</ele><time>2026-04-30T09:50:51.002Z</time></trkpt><trkpt lat="37.59593090451661" lon="13.907196078964283"><ele>635.0</ele><time>2026-04-30T09:50:52.002Z</time></trkpt><trkpt lat="37.59595797181034" lon="13.907021857850989"><ele>635.0</ele><time>2026-04-30T09:50:53.002Z</time></trkpt><trkpt lat="37.5959827940835" lon="13.906871227757309"><ele>635.0</ele><time>2026-04-30T09:50:54.002Z</time></trkpt><trkpt lat="37.59600812197187" lon="13.906733788607172"><ele>635.0</ele><time>2026-04-30T09:50:55.002Z</time></trkpt><trkpt lat="37.596029919631455" lon="13.906603151599242"><ele>635.0</ele><time>2026-04-30T09:50:56.002Z</time></trkpt><trkpt lat="37.59605871689071" lon="13.906475983991465"><ele>635.0</ele><time>2026-04-30T09:50:57.002Z</time></trkpt><trkpt lat="37.59609464624145" lon="13.906350398719583"><ele>634.0</ele><time>2026-04-30T09:50:58.002Z</time></trkpt><trkpt lat="37.59612575828216" lon="13.906231176894469"><ele>633.0</ele><time>2026-04-30T09:50:59.002Z</time></trkpt><trkpt lat="37.596168362416385" lon="13.906120416141725"><ele>632.0</ele><time>2026-04-30T09:51:00.002Z</time></trkpt><trkpt lat="37.596209905159036" lon="13.906004793780305"><ele>631.0</ele><time>2026-04-30T09:51:01.002Z</time></trkpt><trkpt lat="37.59625073705936" lon="13.905877437429286"><ele>630.0</ele><time>2026-04-30T09:51:02.002Z</time></trkpt><trkpt lat="37.596300591091364" lon="13.9057367769951"><ele>628.3333333333334</ele><time>2026-04-30T09:51:03.002Z</time></trkpt><trkpt lat="37.59634095986261" lon="13.90562231126433"><ele>626.6666666666666</ele><time>2026-04-30T09:51:04.002Z</time></trkpt><trkpt lat="37.59639310453534" lon="13.905508928779357"><ele>625.0</ele><time>2026-04-30T09:51:06.002Z</time></trkpt><trkpt lat="37.59644741693898" lon="13.905446475560636"><ele>623.3333333333333</ele><time>2026-04-30T09:51:09.001Z</time></trkpt><trkpt lat="37.59651746270978" lon="13.905436006403287"><ele>621.6666666666666</ele><time>2026-04-30T09:52:03.001Z</time></trkpt><trkpt lat="37.5965707037323" lon="13.905372582636215"><ele>620.0</ele><time>2026-04-30T09:53:41Z</time></trkpt><trkpt lat="37.59648416984772" lon="13.905433212324988"><ele>620.0</ele><time>2026-04-30T09:54:34Z</time></trkpt><trkpt lat="37.59647066255318" lon="13.905344492088519"><ele>620.0</ele><time>2026-04-30T09:55:03.001Z</time></trkpt><trkpt lat="37.596513063102215" lon="13.90527493150161"><ele>620.0</ele><time>2026-04-30T09:55:05.001Z</time></trkpt><trkpt lat="37.59655142463853" lon="13.905185722406117"><ele>620.0</ele><time>2026-04-30T09:55:07.001Z</time></trkpt><trkpt lat="37.59660650725249" lon="13.905046545650423"><ele>620.0</ele><time>2026-04-30T09:55:09.001Z</time></trkpt><trkpt lat="37.596634902637874" lon="13.904957386733887"><ele>620.0</ele><time>2026-04-30T09:55:10.001Z</time></trkpt><trkpt lat="37.59664418417862" lon="13.904858132387046"><ele>619.4</ele><time>2026-04-30T09:55:11.001Z</time></trkpt><trkpt lat="37.5966380518399" lon="13.90473448938554"><ele>618.8</ele><time>2026-04-30T09:55:12.001Z</time></trkpt><trkpt lat="37.59662063718364" lon="13.904603271921903"><ele>618.2</ele><time>2026-04-30T09:55:13.001Z</time></trkpt><trkpt lat="37.59658755492164" lon="13.904473404377805"><ele>617.6</ele><time>2026-04-30T09:55:14.001Z</time></trkpt><trkpt lat="37.59654903369838" lon="13.904343660776178"><ele>617.0</ele><time>2026-04-30T09:55:15.001Z</time></trkpt><trkpt lat="37.59650749338464" lon="13.904232742568524"><ele>615.4</ele><time>2026-04-30T09:55:16.001Z</time></trkpt><trkpt lat="37.59646521776375" lon="13.904129023045586"><ele>613.8000000000001</ele><time>2026-04-30T09:55:17.001Z</time></trkpt><trkpt lat="37.59643096944787" lon="13.904019007628253"><ele>612.2</ele><time>2026-04-30T09:55:18.001Z</time></trkpt><trkpt lat="37.5964055118737" lon="13.903906599758786"><ele>610.6</ele><time>2026-04-30T09:55:18.998Z</time></trkpt><trkpt lat="37.59638271833612" lon="13.903793296468736"><ele>609.0</ele><time>2026-04-30T09:55:19.998Z</time></trkpt><trkpt lat="37.59638144933878" lon="13.903676350059955"><ele>609.0</ele><time>2026-04-30T09:55:20.998Z</time></trkpt><trkpt lat="37.59640298286138" lon="13.903558983511655"><ele>609.0</ele><time>2026-04-30T09:55:21.998Z</time></trkpt><trkpt lat="37.596448394606576" lon="13.903453752027215"><ele>609.0</ele><time>2026-04-30T09:55:22.998Z</time></trkpt><trkpt lat="37.59651910266646" lon="13.903370623929284"><ele>609.0</ele><time>2026-04-30T09:55:23.998Z</time></trkpt><trkpt lat="37.59661542486564" lon="13.903336676644344"><ele>609.0</ele><time>2026-04-30T09:55:24.998Z</time></trkpt><trkpt lat="37.59671171454931" lon="13.903350215458726"><ele>609.0</ele><time>2026-04-30T09:55:25.998Z</time></trkpt><trkpt lat="37.59680492815261" lon="13.903413484345316"><ele>609.0</ele><time>2026-04-30T09:55:26.998Z</time></trkpt><trkpt lat="37.59688034087885" lon="13.903514652765452"><ele>609.0</ele><time>2026-04-30T09:55:27.998Z</time></trkpt><trkpt lat="37.5969714962339" lon="13.903587523454643"><ele>609.0</ele><time>2026-04-30T09:55:28.998Z</time></trkpt><trkpt lat="37.597036379668914" lon="13.903672085434714"><ele>609.0</ele><time>2026-04-30T09:55:29.998Z</time></trkpt><trkpt lat="37.59710610549649" lon="13.903747784447384"><ele>607.8</ele><time>2026-04-30T09:55:30.998Z</time></trkpt><trkpt lat="37.59717493796428" lon="13.903813995896773"><ele>606.5999999999999</ele><time>2026-04-30T09:55:31.998Z</time></trkpt><trkpt lat="37.59724474231158" lon="13.903888425525734"><ele>605.4</ele><time>2026-04-30T09:55:32.998Z</time></trkpt><trkpt lat="37.59731905239292" lon="13.90398289259859"><ele>604.1999999999999</ele><time>2026-04-30T09:55:33.998Z</time></trkpt><trkpt lat="37.59739632585423" lon="13.904105298001042"><ele>603.0</ele><time>2026-04-30T09:55:34.998Z</time></trkpt><trkpt lat="37.597466606863364" lon="13.904250534611347"><ele>603.0</ele><time>2026-04-30T09:55:35.998Z</time></trkpt><trkpt lat="37.5975349990229" lon="13.90440446140471"><ele>603.0</ele><time>2026-04-30T09:55:36.999Z</time></trkpt><trkpt lat="37.5976025056546" lon="13.904542055073344"><ele>603.0</ele><time>2026-04-30T09:55:37.999Z</time></trkpt><trkpt lat="37.59766986255007" lon="13.904665915414508"><ele>603.0</ele><time>2026-04-30T09:55:38.999Z</time></trkpt><trkpt lat="37.59773785472669" lon="13.9047885686964"><ele>603.0</ele><time>2026-04-30T09:55:39.999Z</time></trkpt><trkpt lat="37.59783083297174" lon="13.904906344492442"><ele>603.0</ele><time>2026-04-30T09:55:40.999Z</time></trkpt><trkpt lat="37.59794274350125" lon="13.905009698709156"><ele>603.0</ele><time>2026-04-30T09:55:41.999Z</time></trkpt><trkpt lat="37.59805954489465" lon="13.905091119313022"><ele>603.0</ele><time>2026-04-30T09:55:42.999Z</time></trkpt><trkpt lat="37.59817346813912" lon="13.905165223672014"><ele>600.75</ele><time>2026-04-30T09:55:43.999Z</time></trkpt><trkpt lat="37.59829030969491" lon="13.905241486433281"><ele>598.5</ele><time>2026-04-30T09:55:44.999Z</time></trkpt><trkpt lat="37.5984118651145" lon="13.905325306588553"><ele>596.25</ele><time>2026-04-30T09:55:45.999Z</time></trkpt><trkpt lat="37.59854046661052" lon="13.90541152573693"><ele>594.0</ele><time>2026-04-30T09:55:46.999Z</time></trkpt><trkpt lat="37.59867812776689" lon="13.905498546021978"><ele>590.6666666666666</ele><time>2026-04-30T09:55:47.999Z</time></trkpt><trkpt lat="37.598818688830676" lon="13.905589851916114"><ele>587.3333333333333</ele><time>2026-04-30T09:55:48.999Z</time></trkpt><trkpt lat="37.59896252444426" lon="13.905683518749633"><ele>584.0</ele><time>2026-04-30T09:55:49.999Z</time></trkpt><trkpt lat="37.599102788590656" lon="13.905774010972673"><ele>584.0</ele><time>2026-04-30T09:55:50.999Z</time></trkpt><trkpt lat="37.599234008737106" lon="13.905862311734465"><ele>584.0</ele><time>2026-04-30T09:55:51.999Z</time></trkpt><trkpt lat="37.599357752286984" lon="13.905953071479741"><ele>584.0</ele><time>2026-04-30T09:55:52.999Z</time></trkpt><trkpt lat="37.599478782007566" lon="13.906039225375954"><ele>584.0</ele><time>2026-04-30T09:55:53.999Z</time></trkpt><trkpt lat="37.59960223632941" lon="13.906119433893608"><ele>583.5</ele><time>2026-04-30T09:55:54.999Z</time></trkpt><trkpt lat="37.599748620617014" lon="13.906185018543377"><ele>583.0</ele><time>2026-04-30T09:55:55.999Z</time></trkpt><trkpt lat="37.59989107302801" lon="13.906235226218756"><ele>582.5</ele><time>2026-04-30T09:55:56.999Z</time></trkpt><trkpt lat="37.600032363930666" lon="13.906278921794982"><ele>582.0</ele><time>2026-04-30T09:55:57.999Z</time></trkpt><trkpt lat="37.60016698783226" lon="13.906317679100908"><ele>582.0</ele><time>2026-04-30T09:55:58.999Z</time></trkpt><trkpt lat="37.60029476151142" lon="13.906370931063968"><ele>582.0</ele><time>2026-04-30T09:55:59.999Z</time></trkpt><trkpt lat="37.60042104187738" lon="13.90643516081857"><ele>582.0</ele><time>2026-04-30T09:56:00.999Z</time></trkpt><trkpt lat="37.60055014766393" lon="13.906491607618596"><ele>582.0</ele><time>2026-04-30T09:56:01.999Z</time></trkpt><trkpt lat="37.60067403405957" lon="13.906486051852157"><ele>579.0</ele><time>2026-04-30T09:56:02.999Z</time></trkpt><trkpt lat="37.6007898480544" lon="13.906422030422936"><ele>576.0</ele><time>2026-04-30T09:56:03.999Z</time></trkpt><trkpt lat="37.60088453781046" lon="13.906329015531028"><ele>573.0</ele><time>2026-04-30T09:56:04.999Z</time></trkpt><trkpt lat="37.60094771112321" lon="13.906211952346975"><ele>570.0</ele><time>2026-04-30T09:56:05.999Z</time></trkpt><trkpt lat="37.60098466013641" lon="13.906086601195247"><ele>570.0</ele><time>2026-04-30T09:56:06.999Z</time></trkpt><trkpt lat="37.60101067335512" lon="13.905953939740684"><ele>570.0</ele><time>2026-04-30T09:56:07.999Z</time></trkpt><trkpt lat="37.601022521134944" lon="13.90581276687221"><ele>570.0</ele><time>2026-04-30T09:56:08.999Z</time></trkpt><trkpt lat="37.60102638016017" lon="13.905665344909975"><ele>570.0</ele><time>2026-04-30T09:56:10Z</time></trkpt><trkpt lat="37.60103342846517" lon="13.905507771505828"><ele>569.0</ele><time>2026-04-30T09:56:11Z</time></trkpt><trkpt lat="37.601043461089205" lon="13.905347065508352"><ele>568.0</ele><time>2026-04-30T09:56:12Z</time></trkpt><trkpt lat="37.60105451222955" lon="13.905185723404951"><ele>567.0</ele><time>2026-04-30T09:56:13Z</time></trkpt><trkpt lat="37.60107389020412" lon="13.905026553736057"><ele>566.0</ele><time>2026-04-30T09:56:14Z</time></trkpt><trkpt lat="37.601105026823525" lon="13.904872657440439"><ele>562.5</ele><time>2026-04-30T09:56:15Z</time></trkpt><trkpt lat="37.60116594356057" lon="13.904741472564956"><ele>559.0</ele><time>2026-04-30T09:56:16Z</time></trkpt><trkpt lat="37.601260582210344" lon="13.904645819229412"><ele>555.5</ele><time>2026-04-30T09:56:17Z</time></trkpt><trkpt lat="37.60136074721421" lon="13.904570489535633"><ele>552.0</ele><time>2026-04-30T09:56:18Z</time></trkpt><trkpt lat="37.60145894627427" lon="13.90449522524063"><ele>552.0</ele><time>2026-04-30T09:56:19Z</time></trkpt><trkpt lat="37.6015403892316" lon="13.904386709672927"><ele>552.0</ele><time>2026-04-30T09:56:20Z</time></trkpt><trkpt lat="37.60159691433868" lon="13.9042365945488"><ele>552.0</ele><time>2026-04-30T09:56:21Z</time></trkpt><trkpt lat="37.601621662129276" lon="13.904062007717343"><ele>552.0</ele><time>2026-04-30T09:56:22Z</time></trkpt><trkpt lat="37.60165050936551" lon="13.903898425300705"><ele>551.0</ele><time>2026-04-30T09:56:23Z</time></trkpt><trkpt lat="37.60170935988705" lon="13.903756233101515"><ele>550.0</ele><time>2026-04-30T09:56:24Z</time></trkpt><trkpt lat="37.60178358260556" lon="13.903626875639173"><ele>549.0</ele><time>2026-04-30T09:56:25Z</time></trkpt><trkpt lat="37.60184928198531" lon="13.903491111163369"><ele>548.0</ele><time>2026-04-30T09:56:26Z</time></trkpt><trkpt lat="37.60190231679339" lon="13.90335226075158"><ele>548.0</ele><time>2026-04-30T09:56:27Z</time></trkpt><trkpt lat="37.60195443104526" lon="13.903234356184715"><ele>548.0</ele><time>2026-04-30T09:56:28Z</time></trkpt><trkpt lat="37.602033216793046" lon="13.903149637497146"><ele>548.0</ele><time>2026-04-30T09:56:29Z</time></trkpt><trkpt lat="37.60213568096235" lon="13.903096538132061"><ele>548.0</ele><time>2026-04-30T09:56:30Z</time></trkpt><trkpt lat="37.602246143372554" lon="13.903063238326292"><ele>548.0</ele><time>2026-04-30T09:56:31Z</time></trkpt><trkpt lat="37.602355210282276" lon="13.903056372978552"><ele>546.1999999999999</ele><time>2026-04-30T09:56:32Z</time></trkpt><trkpt lat="37.60246321407483" lon="13.903070360983772"><ele>544.4</ele><time>2026-04-30T09:56:33Z</time></trkpt><trkpt lat="37.60257007771633" lon="13.903097678572747"><ele>542.5999999999999</ele><time>2026-04-30T09:56:34Z</time></trkpt><trkpt lat="37.602673303397516" lon="13.903113518267368"><ele>540.8</ele><time>2026-04-30T09:56:35Z</time></trkpt><trkpt lat="37.60277008504117" lon="13.903099049797289"><ele>539.0</ele><time>2026-04-30T09:56:36Z</time></trkpt><trkpt lat="37.602859598598926" lon="13.903045963998542"><ele>537.0</ele><time>2026-04-30T09:56:37Z</time></trkpt><trkpt lat="37.60292777006916" lon="13.902938154849"><ele>535.0</ele><time>2026-04-30T09:56:38Z</time></trkpt><trkpt lat="37.602977109335576" lon="13.902812668466206"><ele>533.0</ele><time>2026-04-30T09:56:39Z</time></trkpt><trkpt lat="37.603011378172035" lon="13.902676095355089"><ele>531.0</ele><time>2026-04-30T09:56:40Z</time></trkpt><trkpt lat="37.603027957380796" lon="13.90253448112311"><ele>529.0</ele><time>2026-04-30T09:56:41Z</time></trkpt><trkpt lat="37.60301794905687" lon="13.902386487975427"><ele>528.8</ele><time>2026-04-30T09:56:42Z</time></trkpt><trkpt lat="37.60300955900783" lon="13.902249107589952"><ele>528.5999999999999</ele><time>2026-04-30T09:56:43Z</time></trkpt><trkpt lat="37.6030297732036" lon="13.902134714599764"><ele>528.4</ele><time>2026-04-30T09:56:44Z</time></trkpt><trkpt lat="37.60308171493407" lon="13.902037029688186"><ele>528.1999999999999</ele><time>2026-04-30T09:56:45Z</time></trkpt><trkpt lat="37.603168701452425" lon="13.90198012291997"><ele>528.0</ele><time>2026-04-30T09:56:46Z</time></trkpt><trkpt lat="37.603278477469324" lon="13.901949567439226"><ele>528.0</ele><time>2026-04-30T09:56:47Z</time></trkpt><trkpt lat="37.60339279150564" lon="13.901905027111143"><ele>528.0</ele><time>2026-04-30T09:56:48Z</time></trkpt><trkpt lat="37.60350087596287" lon="13.901825934287924"><ele>528.0</ele><time>2026-04-30T09:56:49Z</time></trkpt><trkpt lat="37.60360470753715" lon="13.90172476394485"><ele>528.0</ele><time>2026-04-30T09:56:50Z</time></trkpt><trkpt lat="37.60370501406817" lon="13.901626551135541"><ele>525.75</ele><time>2026-04-30T09:56:51Z</time></trkpt><trkpt lat="37.603804475240985" lon="13.901540112409934"><ele>523.5</ele><time>2026-04-30T09:56:52Z</time></trkpt><trkpt lat="37.60389884053764" lon="13.901453471953294"><ele>521.25</ele><time>2026-04-30T09:56:53Z</time></trkpt><trkpt lat="37.60398216778004" lon="13.901357413630876"><ele>519.0</ele><time>2026-04-30T09:56:54Z</time></trkpt><trkpt lat="37.60404271328974" lon="13.901245032169525"><ele>519.0</ele><time>2026-04-30T09:56:55Z</time></trkpt><trkpt lat="37.60406283785948" lon="13.90110833514509"><ele>519.0</ele><time>2026-04-30T09:56:56Z</time></trkpt><trkpt lat="37.60404175504767" lon="13.900964435934158"><ele>519.0</ele><time>2026-04-30T09:56:57Z</time></trkpt><trkpt lat="37.604019345092425" lon="13.90082886284895"><ele>519.0</ele><time>2026-04-30T09:56:58Z</time></trkpt><trkpt lat="37.60401354518881" lon="13.900694265575051"><ele>519.0</ele><time>2026-04-30T09:56:59Z</time></trkpt><trkpt lat="37.604031540519905" lon="13.900562175591174"><ele>519.25</ele><time>2026-04-30T09:57:00Z</time></trkpt><trkpt lat="37.604081062678645" lon="13.900442378444627"><ele>519.5</ele><time>2026-04-30T09:57:01Z</time></trkpt><trkpt lat="37.60416097500603" lon="13.900346625846119"><ele>519.75</ele><time>2026-04-30T09:57:02Z</time></trkpt><trkpt lat="37.60425484053048" lon="13.90026411660331"><ele>520.0</ele><time>2026-04-30T09:57:03Z</time></trkpt><trkpt lat="37.604357317202" lon="13.900186913973876"><ele>520.0</ele><time>2026-04-30T09:57:04Z</time></trkpt><trkpt lat="37.604465958662836" lon="13.900115250682106"><ele>520.0</ele><time>2026-04-30T09:57:05Z</time></trkpt><trkpt lat="37.60458575275158" lon="13.900052689408675"><ele>520.0</ele><time>2026-04-30T09:57:06Z</time></trkpt><trkpt lat="37.604714898685536" lon="13.899997367077853"><ele>520.0</ele><time>2026-04-30T09:57:07Z</time></trkpt><trkpt lat="37.604837498003626" lon="13.899939014029536"><ele>516.0</ele><time>2026-04-30T09:57:08Z</time></trkpt><trkpt lat="37.604956106600596" lon="13.899878095837279"><ele>512.0</ele><time>2026-04-30T09:57:09Z</time></trkpt><trkpt lat="37.605073307019076" lon="13.89981437584286"><ele>508.0</ele><time>2026-04-30T09:57:10Z</time></trkpt><trkpt lat="37.60518959613344" lon="13.899743911637122"><ele>504.0</ele><time>2026-04-30T09:57:11Z</time></trkpt><trkpt lat="37.60530324232529" lon="13.899653390830824"><ele>502.0</ele><time>2026-04-30T09:57:12Z</time></trkpt><trkpt lat="37.6054089613584" lon="13.899529274740761"><ele>500.0</ele><time>2026-04-30T09:57:13Z</time></trkpt><trkpt lat="37.6055041123383" lon="13.899370597197345"><ele>498.0</ele><time>2026-04-30T09:57:14Z</time></trkpt><trkpt lat="37.60559378539158" lon="13.899192875506671"><ele>498.0</ele><time>2026-04-30T09:57:15Z</time></trkpt><trkpt lat="37.60566916564999" lon="13.898986947279235"><ele>498.0</ele><time>2026-04-30T09:57:16Z</time></trkpt><trkpt lat="37.60573313742767" lon="13.898754696671999"><ele>498.0</ele><time>2026-04-30T09:57:17Z</time></trkpt><trkpt lat="37.60579751333407" lon="13.898519351241708"><ele>496.66666666666663</ele><time>2026-04-30T09:57:18Z</time></trkpt><trkpt lat="37.605872955623916" lon="13.898285973380016"><ele>495.3333333333333</ele><time>2026-04-30T09:57:19Z</time></trkpt><trkpt lat="37.60595142931183" lon="13.898066217252486"><ele>494.0</ele><time>2026-04-30T09:57:20Z</time></trkpt><trkpt lat="37.60602500159407" lon="13.897844332028754"><ele>494.0</ele><time>2026-04-30T09:57:21Z</time></trkpt><trkpt lat="37.60609561637395" lon="13.897617093122511"><ele>494.0</ele><time>2026-04-30T09:57:22Z</time></trkpt><trkpt lat="37.606168537724" lon="13.89738618553746"><ele>494.0</ele><time>2026-04-30T09:57:23Z</time></trkpt><trkpt lat="37.606242811761206" lon="13.897165787144186"><ele>492.3333333333333</ele><time>2026-04-30T09:57:24Z</time></trkpt><trkpt lat="37.60631776671636" lon="13.896957077245279"><ele>490.66666666666663</ele><time>2026-04-30T09:57:24.999Z</time></trkpt><trkpt lat="37.6064014963983" lon="13.896754597165266"><ele>489.0</ele><time>2026-04-30T09:57:25.999Z</time></trkpt><trkpt lat="37.60650054214496" lon="13.896574499717357"><ele>489.0</ele><time>2026-04-30T09:57:26.999Z</time></trkpt><trkpt lat="37.606621247021195" lon="13.896414810747597"><ele>489.0</ele><time>2026-04-30T09:57:27.999Z</time></trkpt><trkpt lat="37.606753469040065" lon="13.896267912318635"><ele>489.0</ele><time>2026-04-30T09:57:28.999Z</time></trkpt><trkpt lat="37.60688871036201" lon="13.896130477461288"><ele>487.0</ele><time>2026-04-30T09:57:30Z</time></trkpt><trkpt lat="37.607009979199965" lon="13.895986475856425"><ele>485.0</ele><time>2026-04-30T09:57:31Z</time></trkpt><trkpt lat="37.6071036206824" lon="13.895826164543715"><ele>483.0</ele><time>2026-04-30T09:57:32Z</time></trkpt><trkpt lat="37.60717538813368" lon="13.895648373279315"><ele>483.0</ele><time>2026-04-30T09:57:33Z</time></trkpt><trkpt lat="37.607222723628794" lon="13.89545660960606"><ele>483.0</ele><time>2026-04-30T09:57:34Z</time></trkpt><trkpt lat="37.60725063756164" lon="13.895249324014761"><ele>483.0</ele><time>2026-04-30T09:57:35Z</time></trkpt><trkpt lat="37.607270272230366" lon="13.895030642039444"><ele>482.66666666666663</ele><time>2026-04-30T09:57:36Z</time></trkpt><trkpt lat="37.607295784608034" lon="13.894818275203768"><ele>482.3333333333333</ele><time>2026-04-30T09:57:37Z</time></trkpt><trkpt lat="37.60732763606857" lon="13.89461768774423"><ele>482.0</ele><time>2026-04-30T09:57:38Z</time></trkpt><trkpt lat="37.60736400899333" lon="13.894424650021076"><ele>481.66666666666663</ele><time>2026-04-30T09:57:39Z</time></trkpt><trkpt lat="37.60741667137623" lon="13.894220648468142"><ele>481.33333333333337</ele><time>2026-04-30T09:57:40Z</time></trkpt><trkpt lat="37.607482077875716" lon="13.894017797016145"><ele>481.0</ele><time>2026-04-30T09:57:41Z</time></trkpt><trkpt lat="37.60755264962929" lon="13.893829449096529"><ele>481.0</ele><time>2026-04-30T09:57:42Z</time></trkpt><trkpt lat="37.60761869836437" lon="13.893645253983783"><ele>481.0</ele><time>2026-04-30T09:57:43Z</time></trkpt><trkpt lat="37.60767162201734" lon="13.89345960223632"><ele>481.0</ele><time>2026-04-30T09:57:44Z</time></trkpt><trkpt lat="37.60770468308788" lon="13.893272238611031"><ele>481.0</ele><time>2026-04-30T09:57:45Z</time></trkpt><trkpt lat="37.607718207632246" lon="13.893082522273655"><ele>481.0</ele><time>2026-04-30T09:57:46Z</time></trkpt><trkpt lat="37.60772884895312" lon="13.892895887014419"><ele>481.0</ele><time>2026-04-30T09:57:47Z</time></trkpt><trkpt lat="37.6077446631479" lon="13.89271743811467"><ele>481.0</ele><time>2026-04-30T09:57:48Z</time></trkpt><trkpt lat="37.60777680349781" lon="13.892543477629513"><ele>477.5</ele><time>2026-04-30T09:57:49Z</time></trkpt><trkpt lat="37.60782966285075" lon="13.892381977203627"><ele>474.0</ele><time>2026-04-30T09:57:50Z</time></trkpt><trkpt lat="37.607894933991034" lon="13.89222841181496"><ele>470.5</ele><time>2026-04-30T09:57:51Z</time></trkpt><trkpt lat="37.607963763097246" lon="13.892073285660995"><ele>467.0</ele><time>2026-04-30T09:57:52Z</time></trkpt><trkpt lat="37.60802303925823" lon="13.89190768725903"><ele>466.3333333333333</ele><time>2026-04-30T09:57:53Z</time></trkpt><trkpt lat="37.60805176556225" lon="13.891721410381102"><ele>465.66666666666663</ele><time>2026-04-30T09:57:54Z</time></trkpt><trkpt lat="37.60805459648562" lon="13.891522942606699"><ele>465.0</ele><time>2026-04-30T09:57:55Z</time></trkpt><trkpt lat="37.60804905492174" lon="13.89132892897194"><ele>465.0</ele><time>2026-04-30T09:57:56Z</time></trkpt><trkpt lat="37.60803877021394" lon="13.89114396647572"><ele>465.0</ele><time>2026-04-30T09:57:57Z</time></trkpt><trkpt lat="37.60801324268979" lon="13.890966958927148"><ele>465.0</ele><time>2026-04-30T09:57:58Z</time></trkpt><trkpt lat="37.60796292456948" lon="13.890801608104226"><ele>465.0</ele><time>2026-04-30T09:57:59Z</time></trkpt><trkpt lat="37.60789500939072" lon="13.890648644439558"><ele>466.5</ele><time>2026-04-30T09:58:00Z</time></trkpt><trkpt lat="37.607816436487205" lon="13.890507781994703"><ele>468.0</ele><time>2026-04-30T09:58:01Z</time></trkpt><trkpt lat="37.60773938938315" lon="13.89036749729009"><ele>469.5</ele><time>2026-04-30T09:58:02Z</time></trkpt><trkpt lat="37.60767084303939" lon="13.890231092380859"><ele>471.0</ele><time>2026-04-30T09:58:03Z</time></trkpt><trkpt lat="37.60761787546083" lon="13.890102953550922"><ele>469.6</ele><time>2026-04-30T09:58:04Z</time></trkpt><trkpt lat="37.60758599602057" lon="13.889983471369147"><ele>468.20000000000005</ele><time>2026-04-30T09:58:05Z</time></trkpt><trkpt lat="37.607589693829475" lon="13.88985738834013"><ele>466.79999999999995</ele><time>2026-04-30T09:58:06Z</time></trkpt><trkpt lat="37.60763461729765" lon="13.889741174331547"><ele>465.4</ele><time>2026-04-30T09:58:07Z</time></trkpt><trkpt lat="37.60771886004469" lon="13.889664511077191"><ele>464.0</ele><time>2026-04-30T09:58:08Z</time></trkpt><trkpt lat="37.60782005735499" lon="13.889631645384766"><ele>462.2</ele><time>2026-04-30T09:58:09Z</time></trkpt><trkpt lat="37.60792706919569" lon="13.889620794310508"><ele>460.4</ele><time>2026-04-30T09:58:10Z</time></trkpt><trkpt lat="37.608037334891044" lon="13.88961743536412"><ele>458.6</ele><time>2026-04-30T09:58:11Z</time></trkpt><trkpt lat="37.60814895820049" lon="13.889612060917099"><ele>456.8</ele><time>2026-04-30T09:58:12Z</time></trkpt><trkpt lat="37.608263913363196" lon="13.889613397347627"><ele>455.0</ele><time>2026-04-30T09:58:13Z</time></trkpt><trkpt lat="37.6083749253938" lon="13.889622030655577"><ele>455.0</ele><time>2026-04-30T09:58:14Z</time></trkpt><trkpt lat="37.60848333711109" lon="13.889645267813645"><ele>455.0</ele><time>2026-04-30T09:58:15Z</time></trkpt><trkpt lat="37.60858403775279" lon="13.889702351668587"><ele>455.0</ele><time>2026-04-30T09:58:16Z</time></trkpt><trkpt lat="37.60866778486661" lon="13.889812421096664"><ele>455.0</ele><time>2026-04-30T09:58:17Z</time></trkpt><trkpt lat="37.60877527601973" lon="13.88990621925123"><ele>453.0</ele><time>2026-04-30T09:58:18Z</time></trkpt><trkpt lat="37.60887214495489" lon="13.890030336738338"><ele>451.0</ele><time>2026-04-30T09:58:19Z</time></trkpt><trkpt lat="37.60900051187057" lon="13.890117888435855"><ele>449.0</ele><time>2026-04-30T09:58:20Z</time></trkpt><trkpt lat="37.609131500526345" lon="13.890210045424581"><ele>447.0</ele><time>2026-04-30T09:58:21Z</time></trkpt><trkpt lat="37.60926612467277" lon="13.890298735782713"><ele>447.0</ele><time>2026-04-30T09:58:22Z</time></trkpt><trkpt lat="37.609394727551575" lon="13.890401631473503"><ele>447.0</ele><time>2026-04-30T09:58:23Z</time></trkpt><trkpt lat="37.60951567002587" lon="13.890531398779142"><ele>447.0</ele><time>2026-04-30T09:58:24Z</time></trkpt><trkpt lat="37.60963461008577" lon="13.890679721915578"><ele>445.0</ele><time>2026-04-30T09:58:25Z</time></trkpt><trkpt lat="37.60975478617392" lon="13.890828645538551"><ele>443.0</ele><time>2026-04-30T09:58:26.001Z</time></trkpt><trkpt lat="37.60987633553243" lon="13.890964746671058"><ele>441.0</ele><time>2026-04-30T09:58:27.001Z</time></trkpt><trkpt lat="37.609995786525126" lon="13.891095424006664"><ele>441.0</ele><time>2026-04-30T09:58:28.001Z</time></trkpt><trkpt lat="37.6101143263429" lon="13.891223528524131"><ele>441.0</ele><time>2026-04-30T09:58:29.001Z</time></trkpt><trkpt lat="37.61022837747991" lon="13.891351752418876"><ele>441.0</ele><time>2026-04-30T09:58:30.001Z</time></trkpt><trkpt lat="37.61034055424753" lon="13.891480729789933"><ele>437.5</ele><time>2026-04-30T09:58:31.001Z</time></trkpt><trkpt lat="37.610452378963416" lon="13.891608010395217"><ele>434.0</ele><time>2026-04-30T09:58:32.001Z</time></trkpt><trkpt lat="37.610556759589784" lon="13.891728725195145"><ele>430.5</ele><time>2026-04-30T09:58:33.001Z</time></trkpt><trkpt lat="37.61063779465836" lon="13.891863439422268"><ele>427.0</ele><time>2026-04-30T09:58:34.001Z</time></trkpt><trkpt lat="37.61070990017526" lon="13.892003487414343"><ele>427.0</ele><time>2026-04-30T09:58:35.001Z</time></trkpt><trkpt lat="37.61076801913095" lon="13.89215665836493"><ele>427.0</ele><time>2026-04-30T09:58:36.001Z</time></trkpt><trkpt lat="37.61083284527005" lon="13.892320249206092"><ele>427.0</ele><time>2026-04-30T09:58:37.001Z</time></trkpt><trkpt lat="37.61091042311877" lon="13.892476682148315"><ele>427.0</ele><time>2026-04-30T09:58:38.001Z</time></trkpt><trkpt lat="37.61096233557849" lon="13.892649493921722"><ele>426.75</ele><time>2026-04-30T09:58:39.001Z</time></trkpt><trkpt lat="37.61102744385164" lon="13.892813364264766"><ele>426.5</ele><time>2026-04-30T09:58:40.001Z</time></trkpt><trkpt lat="37.61109310334987" lon="13.892974376747606"><ele>426.25</ele><time>2026-04-30T09:58:41.001Z</time></trkpt><trkpt lat="37.61115903378016" lon="13.893136301731325"><ele>426.0</ele><time>2026-04-30T09:58:42.001Z</time></trkpt><trkpt lat="37.6112235571091" lon="13.89329800937617"><ele>423.25</ele><time>2026-04-30T09:58:43.001Z</time></trkpt><trkpt lat="37.611294793020924" lon="13.893461152526445"><ele>420.5</ele><time>2026-04-30T09:58:44.001Z</time></trkpt><trkpt lat="37.611379827315034" lon="13.893614427189242"><ele>417.75</ele><time>2026-04-30T09:58:45.001Z</time></trkpt><trkpt lat="37.61150272661925" lon="13.893711886172088"><ele>415.0</ele><time>2026-04-30T09:58:46.001Z</time></trkpt><trkpt lat="37.6116197602481" lon="13.893803896341005"><ele>415.0</ele><time>2026-04-30T09:58:47.001Z</time></trkpt><trkpt lat="37.6117392567494" lon="13.893891049348253"><ele>415.0</ele><time>2026-04-30T09:58:48.001Z</time></trkpt><trkpt lat="37.61186127751751" lon="13.893979851403882"><ele>415.0</ele><time>2026-04-30T09:58:49.001Z</time></trkpt><trkpt lat="37.611979068657895" lon="13.894069208081659"><ele>415.0</ele><time>2026-04-30T09:58:50.001Z</time></trkpt><trkpt lat="37.61209539628751" lon="13.894154132436464"><ele>413.5</ele><time>2026-04-30T09:58:51.001Z</time></trkpt><trkpt lat="37.61221589927363" lon="13.894223050765342"><ele>412.0</ele><time>2026-04-30T09:58:52.001Z</time></trkpt><trkpt lat="37.61234415345064" lon="13.89425759965455"><ele>410.5</ele><time>2026-04-30T09:58:53.001Z</time></trkpt><trkpt lat="37.61247611390539" lon="13.89423857818417"><ele>409.0</ele><time>2026-04-30T09:58:54.001Z</time></trkpt><trkpt lat="37.61259606115376" lon="13.894182110373714"><ele>408.5</ele><time>2026-04-30T09:58:55.001Z</time></trkpt><trkpt lat="37.612711193310105" lon="13.894113364020185"><ele>408.0</ele><time>2026-04-30T09:58:56.001Z</time></trkpt><trkpt lat="37.61282103652158" lon="13.894040750915025"><ele>407.5</ele><time>2026-04-30T09:58:57.001Z</time></trkpt><trkpt lat="37.61293177050289" lon="13.893973254600864"><ele>407.0</ele><time>2026-04-30T09:58:58.001Z</time></trkpt><trkpt lat="37.61304248301782" lon="13.893911647591567"><ele>405.25</ele><time>2026-04-30T09:58:59.001Z</time></trkpt><trkpt lat="37.61315452092738" lon="13.893854964742456"><ele>403.5</ele><time>2026-04-30T09:59:00.001Z</time></trkpt><trkpt lat="37.613270384981114" lon="13.893811741888614"><ele>401.75</ele><time>2026-04-30T09:59:01.001Z</time></trkpt><trkpt lat="37.613390624922246" lon="13.893799112251019"><ele>400.0</ele><time>2026-04-30T09:59:02.001Z</time></trkpt><trkpt lat="37.613508638642045" lon="13.893837984952361"><ele>400.0</ele><time>2026-04-30T09:59:03.001Z</time></trkpt><trkpt lat="37.61360178525856" lon="13.893932131094598"><ele>400.0</ele><time>2026-04-30T09:59:04.001Z</time></trkpt><trkpt lat="37.61367717880854" lon="13.894034247606339"><ele>400.0</ele><time>2026-04-30T09:59:05.001Z</time></trkpt><trkpt lat="37.613736473063916" lon="13.894147352506605"><ele>400.0</ele><time>2026-04-30T09:59:06.001Z</time></trkpt><trkpt lat="37.61372551097913" lon="13.894276901885043"><ele>400.0</ele><time>2026-04-30T09:59:07.001Z</time></trkpt><trkpt lat="37.61369457748073" lon="13.894409063189315"><ele>399.0</ele><time>2026-04-30T09:59:08.001Z</time></trkpt><trkpt lat="37.61366365838568" lon="13.89457322825607"><ele>398.0</ele><time>2026-04-30T09:59:09.001Z</time></trkpt><trkpt lat="37.61362188985101" lon="13.894762722265451"><ele>397.0</ele><time>2026-04-30T09:59:10.001Z</time></trkpt><trkpt lat="37.61358521190159" lon="13.894994892365196"><ele>395.33333333333337</ele><time>2026-04-30T09:59:11.001Z</time></trkpt><trkpt lat="37.613575877667316" lon="13.895242288360613"><ele>393.66666666666663</ele><time>2026-04-30T09:59:12.001Z</time></trkpt><trkpt lat="37.61357202392293" lon="13.895500729201402"><ele>392.0</ele><time>2026-04-30T09:59:13.001Z</time></trkpt><trkpt lat="37.61356979179281" lon="13.895755530441418"><ele>391.0</ele><time>2026-04-30T09:59:14.001Z</time></trkpt><trkpt lat="37.6135679895433" lon="13.895996151335359"><ele>390.0</ele><time>2026-04-30T09:59:15.001Z</time></trkpt><trkpt lat="37.61356602490744" lon="13.896225556285037"><ele>389.0</ele><time>2026-04-30T09:59:16.001Z</time></trkpt><trkpt lat="37.61356323427165" lon="13.896447411583825"><ele>389.0</ele><time>2026-04-30T09:59:17.001Z</time></trkpt><trkpt lat="37.61356357092107" lon="13.896654930420723"><ele>389.0</ele><time>2026-04-30T09:59:18.001Z</time></trkpt><trkpt lat="37.61357839495995" lon="13.89682781641011"><ele>389.0</ele><time>2026-04-30T09:59:19.001Z</time></trkpt><trkpt lat="37.613619269279646" lon="13.896963117049744"><ele>389.0</ele><time>2026-04-30T09:59:20.001Z</time></trkpt><trkpt lat="37.61369368219305" lon="13.897084789274269"><ele>385.66666666666663</ele><time>2026-04-30T09:59:21.001Z</time></trkpt><trkpt lat="37.613817767810836" lon="13.897188516384073"><ele>382.3333333333333</ele><time>2026-04-30T09:59:22.001Z</time></trkpt><trkpt lat="37.61396553779864" lon="13.897299180714958"><ele>379.0</ele><time>2026-04-30T09:59:23.001Z</time></trkpt><trkpt lat="37.61414331603837" lon="13.897418198094948"><ele>379.0</ele><time>2026-04-30T09:59:24.001Z</time></trkpt><trkpt lat="37.61433505407335" lon="13.89752450755016"><ele>379.0</ele><time>2026-04-30T09:59:25.001Z</time></trkpt><trkpt lat="37.61453500505182" lon="13.897627973495872"><ele>379.0</ele><time>2026-04-30T09:59:26.001Z</time></trkpt><trkpt lat="37.61473579445445" lon="13.897732592514462"><ele>375.66666666666663</ele><time>2026-04-30T09:59:27.001Z</time></trkpt><trkpt lat="37.61492565453818" lon="13.89783934593834"><ele>372.3333333333333</ele><time>2026-04-30T09:59:28.001Z</time></trkpt><trkpt lat="37.61508996325892" lon="13.897940749143105"><ele>369.0</ele><time>2026-04-30T09:59:29.001Z</time></trkpt><trkpt lat="37.61522978425101" lon="13.89803960188458"><ele>369.5</ele><time>2026-04-30T09:59:30.001Z</time></trkpt><trkpt lat="37.61533786551139" lon="13.898133465128984"><ele>370.0</ele><time>2026-04-30T09:59:31.001Z</time></trkpt><trkpt lat="37.61543148541979" lon="13.898193609796632"><ele>370.5</ele><time>2026-04-30T09:59:32.001Z</time></trkpt><trkpt lat="37.615539727087075" lon="13.898169395226729"><ele>371.0</ele><time>2026-04-30T09:59:33.001Z</time></trkpt><trkpt lat="37.61564352493791" lon="13.898101796904108"><ele>371.0</ele><time>2026-04-30T09:59:34.001Z</time></trkpt><trkpt lat="37.615745273050436" lon="13.898010760194"><ele>371.0</ele><time>2026-04-30T09:59:35.001Z</time></trkpt><trkpt lat="37.61581940256473" lon="13.897849683362473"><ele>371.0</ele><time>2026-04-30T09:59:36.001Z</time></trkpt><trkpt lat="37.615913295419475" lon="13.897702431527843"><ele>371.0</ele><time>2026-04-30T09:59:37.001Z</time></trkpt><trkpt lat="37.61603080155367" lon="13.897617607110789"><ele>370.5</ele><time>2026-04-30T09:59:38.001Z</time></trkpt><trkpt lat="37.61617556178907" lon="13.897556678294087"><ele>370.0</ele><time>2026-04-30T09:59:39.001Z</time></trkpt><trkpt lat="37.616324273892815" lon="13.89752645426977"><ele>369.5</ele><time>2026-04-30T09:59:40.001Z</time></trkpt><trkpt lat="37.61646561854819" lon="13.897541405040526"><ele>369.0</ele><time>2026-04-30T09:59:41.001Z</time></trkpt><trkpt lat="37.61660908308425" lon="13.89762757683058"><ele>369.0</ele><time>2026-04-30T09:59:42.001Z</time></trkpt><trkpt lat="37.61673719659489" lon="13.89776783814885"><ele>369.0</ele><time>2026-04-30T09:59:43.001Z</time></trkpt><trkpt lat="37.61690708557509" lon="13.897889416578643"><ele>369.0</ele><time>2026-04-30T09:59:44.001Z</time></trkpt><trkpt lat="37.617106412680705" lon="13.89802616559273"><ele>361.0</ele><time>2026-04-30T09:59:45.001Z</time></trkpt><trkpt lat="37.617310328533215" lon="13.898171226546749"><ele>353.0</ele><time>2026-04-30T09:59:46.001Z</time></trkpt><trkpt lat="37.61749665208037" lon="13.898316121951703"><ele>353.0</ele><time>2026-04-30T09:59:47.001Z</time></trkpt><trkpt lat="37.61767294565389" lon="13.898444886067876"><ele>353.0</ele><time>2026-04-30T09:59:48.001Z</time></trkpt><trkpt lat="37.61784517226159" lon="13.898567572949188"><ele>353.0</ele><time>2026-04-30T09:59:49.001Z</time></trkpt><trkpt lat="37.61798560337075" lon="13.898673545423573"><ele>351.6666666666667</ele><time>2026-04-30T09:59:50.001Z</time></trkpt><trkpt lat="37.618091489345915" lon="13.89883098567429"><ele>350.3333333333333</ele><time>2026-04-30T09:59:51.001Z</time></trkpt><trkpt lat="37.618161932101884" lon="13.898980230481143"><ele>349.0</ele><time>2026-04-30T09:59:52.001Z</time></trkpt><trkpt lat="37.618211963812946" lon="13.899167004733838"><ele>350.0</ele><time>2026-04-30T09:59:53.001Z</time></trkpt><trkpt lat="37.61826297975696" lon="13.899291894047845"><ele>351.0</ele><time>2026-04-30T09:59:54.001Z</time></trkpt><trkpt lat="37.618371168488515" lon="13.899403051040807"><ele>352.0</ele><time>2026-04-30T09:59:55.001Z</time></trkpt><trkpt lat="37.61848232939372" lon="13.899498873690096"><ele>353.0</ele><time>2026-04-30T09:59:56.001Z</time></trkpt><trkpt lat="37.61863429366366" lon="13.899552448201815"><ele>351.0</ele><time>2026-04-30T09:59:57.001Z</time></trkpt><trkpt lat="37.618790504804494" lon="13.89959623300466"><ele>349.0</ele><time>2026-04-30T09:59:58.001Z</time></trkpt><trkpt lat="37.61894673686137" lon="13.899627959988155"><ele>347.0</ele><time>2026-04-30T09:59:59.001Z</time></trkpt><trkpt lat="37.61910226534564" lon="13.899632213077298"><ele>347.0</ele><time>2026-04-30T10:00:00.001Z</time></trkpt><trkpt lat="37.61926054892559" lon="13.899620525819518"><ele>347.0</ele><time>2026-04-30T10:00:01.001Z</time></trkpt><trkpt lat="37.619421030915454" lon="13.899573374408432"><ele>347.0</ele><time>2026-04-30T10:00:02.001Z</time></trkpt><trkpt lat="37.61958491729755" lon="13.899527714767892"><ele>346.0</ele><time>2026-04-30T10:00:03.001Z</time></trkpt><trkpt lat="37.61974180975965" lon="13.899487797695803"><ele>345.0</ele><time>2026-04-30T10:00:04.001Z</time></trkpt><trkpt lat="37.61990509374017" lon="13.899450694024129"><ele>344.0</ele><time>2026-04-30T10:00:05.001Z</time></trkpt><trkpt lat="37.620069312528344" lon="13.899414575089274"><ele>344.0</ele><time>2026-04-30T10:00:06.001Z</time></trkpt><trkpt lat="37.62022611000187" lon="13.899377524419336"><ele>344.0</ele><time>2026-04-30T10:00:07.001Z</time></trkpt><trkpt lat="37.62038725151187" lon="13.899341370859162"><ele>344.0</ele><time>2026-04-30T10:00:08.001Z</time></trkpt><trkpt lat="37.620548434697334" lon="13.899304999281489"><ele>343.6666666666667</ele><time>2026-04-30T10:00:09.001Z</time></trkpt><trkpt lat="37.62071047814089" lon="13.899265776872994"><ele>343.3333333333333</ele><time>2026-04-30T10:00:10.001Z</time></trkpt><trkpt lat="37.620869768594865" lon="13.899227845811932"><ele>343.0</ele><time>2026-04-30T10:00:11.001Z</time></trkpt><trkpt lat="37.62103095898804" lon="13.899180131329377"><ele>342.3333333333333</ele><time>2026-04-30T10:00:12.001Z</time></trkpt><trkpt lat="37.621185173524566" lon="13.899116953785748"><ele>341.6666666666667</ele><time>2026-04-30T10:00:13.001Z</time></trkpt><trkpt lat="37.62132951013036" lon="13.899044309582095"><ele>341.0</ele><time>2026-04-30T10:00:14.001Z</time></trkpt><trkpt lat="37.6214709374416" lon="13.898972300357542"><ele>341.0</ele><time>2026-04-30T10:00:15.001Z</time></trkpt><trkpt lat="37.621615884091504" lon="13.898907261652248"><ele>341.0</ele><time>2026-04-30T10:00:16.001Z</time></trkpt><trkpt lat="37.621761761126386" lon="13.898838717687045"><ele>341.0</ele><time>2026-04-30T10:00:17.001Z</time></trkpt><trkpt lat="37.62191015042672" lon="13.898774693700474"><ele>341.0</ele><time>2026-04-30T10:00:18.001Z</time></trkpt><trkpt lat="37.62206134409467" lon="13.898715138284402"><ele>341.0</ele><time>2026-04-30T10:00:19.001Z</time></trkpt><trkpt lat="37.62221817605129" lon="13.898673577498371"><ele>341.0</ele><time>2026-04-30T10:00:20.001Z</time></trkpt><trkpt lat="37.622376756903364" lon="13.898641486781267"><ele>341.0</ele><time>2026-04-30T10:00:21.001Z</time></trkpt><trkpt lat="37.6225371641437" lon="13.89861108862373"><ele>341.0</ele><time>2026-04-30T10:00:22.001Z</time></trkpt><trkpt lat="37.62269684928072" lon="13.898582540073061"><ele>341.0</ele><time>2026-04-30T10:00:23.001Z</time></trkpt><trkpt lat="37.6228417274509" lon="13.898556352309692"><ele>340.8</ele><time>2026-04-30T10:00:24.001Z</time></trkpt><trkpt lat="37.62295716685861" lon="13.898543882151163"><ele>340.6</ele><time>2026-04-30T10:00:25.001Z</time></trkpt><trkpt lat="37.62305088359777" lon="13.898534522079416"><ele>340.4</ele><time>2026-04-30T10:00:26.001Z</time></trkpt><trkpt lat="37.62313503229782" lon="13.898526048892354"><ele>340.2</ele><time>2026-04-30T10:00:27.001Z</time></trkpt><trkpt lat="37.62320945362897" lon="13.898507636184805"><ele>340.0</ele><time>2026-04-30T10:00:28.001Z</time></trkpt><trkpt lat="37.623310488570155" lon="13.89848188548279"><ele>340.0</ele><time>2026-04-30T10:00:30.001Z</time></trkpt><trkpt lat="37.623384908789" lon="13.898458617952196"><ele>340.0</ele><time>2026-04-30T10:00:33.001Z</time></trkpt><trkpt lat="37.62345301060732" lon="13.898442652379604"><ele>340.0</ele><time>2026-04-30T10:00:36.001Z</time></trkpt><trkpt lat="37.62353021253347" lon="13.8984255219307"><ele>340.0</ele><time>2026-04-30T10:00:39.001Z</time></trkpt><trkpt lat="37.62363439477643" lon="13.898404629478247"><ele>340.0</ele><time>2026-04-30T10:00:41.001Z</time></trkpt><trkpt lat="37.623701650794594" lon="13.89837673958281"><ele>340.0</ele><time>2026-04-30T10:00:42.001Z</time></trkpt><trkpt lat="37.623765318414605" lon="13.898342022330642"><ele>340.0</ele><time>2026-04-30T10:00:43.001Z</time></trkpt><trkpt lat="37.623823521320716" lon="13.898292794018658"><ele>340.0</ele><time>2026-04-30T10:00:44.001Z</time></trkpt><trkpt lat="37.62387240299753" lon="13.898213715782154"><ele>340.0</ele><time>2026-04-30T10:00:45.001Z</time></trkpt><trkpt lat="37.623901146813544" lon="13.898113783300884"><ele>340.0</ele><time>2026-04-30T10:00:46.001Z</time></trkpt><trkpt lat="37.62391038062934" lon="13.898005541037854"><ele>340.0</ele><time>2026-04-30T10:00:47.001Z</time></trkpt><trkpt lat="37.62390449622616" lon="13.897889624917566"><ele>340.0</ele><time>2026-04-30T10:00:48.001Z</time></trkpt><trkpt lat="37.6238796174571" lon="13.897761587595372"><ele>340.0</ele><time>2026-04-30T10:00:49.001Z</time></trkpt><trkpt lat="37.6238609098609" lon="13.897631786521234"><ele>340.0</ele><time>2026-04-30T10:00:50.001Z</time></trkpt><trkpt lat="37.62384888964155" lon="13.897502636003457"><ele>340.0</ele><time>2026-04-30T10:00:51.001Z</time></trkpt><trkpt lat="37.62383697533011" lon="13.897388005348164"><ele>340.0</ele><time>2026-04-30T10:00:52.001Z</time></trkpt><trkpt lat="37.62382695617253" lon="13.89729250213126"><ele>340.0</ele><time>2026-04-30T10:00:53.001Z</time></trkpt><trkpt lat="37.623835666492255" lon="13.897196084424891"><ele>339.4</ele><time>2026-04-30T10:00:54.001Z</time></trkpt><trkpt lat="37.623883106547154" lon="13.897102629447053"><ele>338.8</ele><time>2026-04-30T10:00:55.001Z</time></trkpt><trkpt lat="37.62396932923018" lon="13.897026048281935"><ele>338.20000000000005</ele><time>2026-04-30T10:00:56.001Z</time></trkpt><trkpt lat="37.62407808844513" lon="13.89698133658681"><ele>337.6</ele><time>2026-04-30T10:00:57.001Z</time></trkpt><trkpt lat="37.62420172993264" lon="13.89697078591663"><ele>337.0</ele><time>2026-04-30T10:00:58.001Z</time></trkpt><trkpt lat="37.6243212877047" lon="13.897005969859089"><ele>337.0</ele><time>2026-04-30T10:00:59.001Z</time></trkpt><trkpt lat="37.624434565893225" lon="13.897011917907388"><ele>337.0</ele><time>2026-04-30T10:01:00.001Z</time></trkpt><trkpt lat="37.62454612179513" lon="13.8970491403378"><ele>337.0</ele><time>2026-04-30T10:01:01.001Z</time></trkpt><trkpt lat="37.62466132802314" lon="13.897086776303425"><ele>337.0</ele><time>2026-04-30T10:01:02.001Z</time></trkpt><trkpt lat="37.62478052953396" lon="13.897124309832389"><ele>337.25</ele><time>2026-04-30T10:01:03.001Z</time></trkpt><trkpt lat="37.624906166062644" lon="13.897155341662959"><ele>337.5</ele><time>2026-04-30T10:01:04.001Z</time></trkpt><trkpt lat="37.625036565323676" lon="13.897185725761775"><ele>337.75</ele><time>2026-04-30T10:01:05.001Z</time></trkpt><trkpt lat="37.62517835747515" lon="13.897218372710281"><ele>338.0</ele><time>2026-04-30T10:01:06.001Z</time></trkpt><trkpt lat="37.62532644099582" lon="13.897255610968545"><ele>339.0</ele><time>2026-04-30T10:01:07.002Z</time></trkpt><trkpt lat="37.62548135231599" lon="13.89729117525892"><ele>340.0</ele><time>2026-04-30T10:01:08.002Z</time></trkpt><trkpt lat="37.62564137691531" lon="13.897327254478475"><ele>341.0</ele><time>2026-04-30T10:01:09.002Z</time></trkpt><trkpt lat="37.625789936280015" lon="13.89736615718846"><ele>341.0</ele><time>2026-04-30T10:01:10.002Z</time></trkpt><trkpt lat="37.62594066378077" lon="13.89740744203777"><ele>341.0</ele><time>2026-04-30T10:01:11.002Z</time></trkpt><trkpt lat="37.62609548035311" lon="13.897446998374809"><ele>341.0</ele><time>2026-04-30T10:01:12.002Z</time></trkpt><trkpt lat="37.626252035731554" lon="13.897482674589295"><ele>342.0</ele><time>2026-04-30T10:01:13.002Z</time></trkpt><trkpt lat="37.626407627678404" lon="13.897513825474023"><ele>343.0</ele><time>2026-04-30T10:01:14.002Z</time></trkpt><trkpt lat="37.62656391687841" lon="13.897532103552889"><ele>344.0</ele><time>2026-04-30T10:01:15.002Z</time></trkpt><trkpt lat="37.62672195379593" lon="13.897519910823606"><ele>344.0</ele><time>2026-04-30T10:01:16.002Z</time></trkpt><trkpt lat="37.62688800194187" lon="13.897485635918699"><ele>344.0</ele><time>2026-04-30T10:01:17.002Z</time></trkpt><trkpt lat="37.627058981991716" lon="13.89744790013249"><ele>344.0</ele><time>2026-04-30T10:01:18.002Z</time></trkpt><trkpt lat="37.627225625305776" lon="13.897410608393143"><ele>343.6666666666667</ele><time>2026-04-30T10:01:19.002Z</time></trkpt><trkpt lat="37.62737874549075" lon="13.89737932823266"><ele>343.3333333333333</ele><time>2026-04-30T10:01:20.002Z</time></trkpt><trkpt lat="37.62752447414484" lon="13.897347005279581"><ele>343.0</ele><time>2026-04-30T10:01:21.002Z</time></trkpt><trkpt lat="37.62766861677586" lon="13.89729370129347"><ele>343.0</ele><time>2026-04-30T10:01:22.002Z</time></trkpt><trkpt lat="37.62780964340944" lon="13.897202573618278"><ele>343.0</ele><time>2026-04-30T10:01:23.002Z</time></trkpt><trkpt lat="37.627932580667604" lon="13.897071143910695"><ele>343.0</ele><time>2026-04-30T10:01:24.002Z</time></trkpt><trkpt lat="37.62803686750227" lon="13.896933178436509"><ele>342.5</ele><time>2026-04-30T10:01:25.002Z</time></trkpt><trkpt lat="37.628131421742076" lon="13.896804049914358"><ele>342.0</ele><time>2026-04-30T10:01:26.002Z</time></trkpt><trkpt lat="37.62823770878034" lon="13.896686636758327"><ele>341.5</ele><time>2026-04-30T10:01:27.002Z</time></trkpt><trkpt lat="37.6283414265801" lon="13.896565016293497"><ele>341.0</ele><time>2026-04-30T10:01:28.002Z</time></trkpt><trkpt lat="37.62843910451948" lon="13.896454179291613"><ele>342.25</ele><time>2026-04-30T10:01:29.002Z</time></trkpt><trkpt lat="37.62854202360131" lon="13.896366131345633"><ele>343.5</ele><time>2026-04-30T10:01:30.002Z</time></trkpt><trkpt lat="37.62865220375741" lon="13.89629652454288"><ele>344.75</ele><time>2026-04-30T10:01:31.002Z</time></trkpt><trkpt lat="37.62877716583854" lon="13.896253204436224"><ele>346.0</ele><time>2026-04-30T10:01:32.002Z</time></trkpt><trkpt lat="37.62890824220247" lon="13.896223915651507"><ele>346.25</ele><time>2026-04-30T10:01:33.002Z</time></trkpt><trkpt lat="37.62903633064502" lon="13.896203386901169"><ele>346.5</ele><time>2026-04-30T10:01:34.002Z</time></trkpt><trkpt lat="37.629171025180256" lon="13.896192341170558"><ele>346.75</ele><time>2026-04-30T10:01:35.002Z</time></trkpt><trkpt lat="37.62931544835165" lon="13.896197454365163"><ele>347.0</ele><time>2026-04-30T10:01:36.002Z</time></trkpt><trkpt lat="37.62945986349688" lon="13.896207069678885"><ele>347.25</ele><time>2026-04-30T10:01:37.001Z</time></trkpt><trkpt lat="37.62959526328583" lon="13.896207833957241"><ele>347.5</ele><time>2026-04-30T10:01:38.001Z</time></trkpt><trkpt lat="37.629731438186084" lon="13.896211387841534"><ele>347.75</ele><time>2026-04-30T10:01:39.001Z</time></trkpt><trkpt lat="37.62987114998461" lon="13.896217704588057"><ele>348.0</ele><time>2026-04-30T10:01:40.001Z</time></trkpt><trkpt lat="37.630012471892606" lon="13.896220954136103"><ele>348.0</ele><time>2026-04-30T10:01:41.001Z</time></trkpt><trkpt lat="37.630148978396036" lon="13.896224548472919"><ele>348.0</ele><time>2026-04-30T10:01:42.001Z</time></trkpt><trkpt lat="37.63027582858436" lon="13.896231441558562"><ele>348.0</ele><time>2026-04-30T10:01:43.001Z</time></trkpt><trkpt lat="37.63040113118095" lon="13.896236550712077"><ele>348.0</ele><time>2026-04-30T10:01:44.001Z</time></trkpt><trkpt lat="37.63053886360218" lon="13.896231182337416"><ele>348.3333333333333</ele><time>2026-04-30T10:01:45.001Z</time></trkpt><trkpt lat="37.630685167599175" lon="13.896225040892508"><ele>348.66666666666663</ele><time>2026-04-30T10:01:46.001Z</time></trkpt><trkpt lat="37.63083555343511" lon="13.896245526023174"><ele>349.0</ele><time>2026-04-30T10:01:47.001Z</time></trkpt><trkpt lat="37.630990489061" lon="13.896252577256472"><ele>350.5</ele><time>2026-04-30T10:01:48.001Z</time></trkpt><trkpt lat="37.631144385471536" lon="13.89626892168147"><ele>352.0</ele><time>2026-04-30T10:01:49.001Z</time></trkpt><trkpt lat="37.63128409478595" lon="13.896310733484562"><ele>353.5</ele><time>2026-04-30T10:01:50.001Z</time></trkpt><trkpt lat="37.631410357279215" lon="13.896369098459248"><ele>355.0</ele><time>2026-04-30T10:01:51.001Z</time></trkpt><trkpt lat="37.631520144466116" lon="13.89644287776106"><ele>355.0</ele><time>2026-04-30T10:01:52.001Z</time></trkpt><trkpt lat="37.63163694164595" lon="13.896519037909743"><ele>355.0</ele><time>2026-04-30T10:01:53.001Z</time></trkpt><trkpt lat="37.63176039836247" lon="13.896601217582184"><ele>355.0</ele><time>2026-04-30T10:01:54.001Z</time></trkpt><trkpt lat="37.63189135419815" lon="13.896688389198795"><ele>355.0</ele><time>2026-04-30T10:01:55.001Z</time></trkpt><trkpt lat="37.63203341111785" lon="13.896765362208598"><ele>355.0</ele><time>2026-04-30T10:01:56.001Z</time></trkpt><trkpt lat="37.63217731795479" lon="13.896863242774572"><ele>355.0</ele><time>2026-04-30T10:01:57.001Z</time></trkpt><trkpt lat="37.63232675292566" lon="13.896935380251426"><ele>355.0</ele><time>2026-04-30T10:01:58.001Z</time></trkpt><trkpt lat="37.63248642758026" lon="13.896971624520894"><ele>355.0</ele><time>2026-04-30T10:01:59.001Z</time></trkpt><trkpt lat="37.632655229286115" lon="13.896963828076178"><ele>355.0</ele><time>2026-04-30T10:02:00.001Z</time></trkpt><trkpt lat="37.63281692040391" lon="13.896922687718074"><ele>355.0</ele><time>2026-04-30T10:02:01.001Z</time></trkpt><trkpt lat="37.632980953244974" lon="13.896844674555762"><ele>356.3333333333333</ele><time>2026-04-30T10:02:02.001Z</time></trkpt><trkpt lat="37.63314333077146" lon="13.896736839155075"><ele>357.6666666666667</ele><time>2026-04-30T10:02:03.001Z</time></trkpt><trkpt lat="37.63329416944579" lon="13.896645292226992"><ele>359.0</ele><time>2026-04-30T10:02:04.001Z</time></trkpt><trkpt lat="37.63344270143733" lon="13.896567844813232"><ele>359.0</ele><time>2026-04-30T10:02:05.001Z</time></trkpt><trkpt lat="37.63358929728275" lon="13.896495413560372"><ele>359.0</ele><time>2026-04-30T10:02:06.001Z</time></trkpt><trkpt lat="37.63374219761561" lon="13.896423484988524"><ele>359.0</ele><time>2026-04-30T10:02:07.001Z</time></trkpt><trkpt lat="37.63390312499888" lon="13.896358931388571"><ele>359.0</ele><time>2026-04-30T10:02:08.001Z</time></trkpt><trkpt lat="37.63407421667869" lon="13.896303028462883"><ele>359.0</ele><time>2026-04-30T10:02:09.001Z</time></trkpt><trkpt lat="37.634248643716546" lon="13.896261610117582"><ele>359.0</ele><time>2026-04-30T10:02:10.001Z</time></trkpt><trkpt lat="37.63442744591221" lon="13.89623641068443"><ele>358.6666666666667</ele><time>2026-04-30T10:02:11.001Z</time></trkpt><trkpt lat="37.6346048891936" lon="13.896220628411271"><ele>358.3333333333333</ele><time>2026-04-30T10:02:12.001Z</time></trkpt><trkpt lat="37.6347818458314" lon="13.896239512742575"><ele>358.0</ele><time>2026-04-30T10:02:13.001Z</time></trkpt><trkpt lat="37.6349586720822" lon="13.896262012021545"><ele>358.0</ele><time>2026-04-30T10:02:14.001Z</time></trkpt><trkpt lat="37.635135770687015" lon="13.896293797977298"><ele>358.0</ele><time>2026-04-30T10:02:15.001Z</time></trkpt><trkpt lat="37.63530861066317" lon="13.896335004134315"><ele>358.0</ele><time>2026-04-30T10:02:16.001Z</time></trkpt><trkpt lat="37.635484389759945" lon="13.89636052562467"><ele>358.0</ele><time>2026-04-30T10:02:17.001Z</time></trkpt><trkpt lat="37.63565867668132" lon="13.896403492149812"><ele>358.0</ele><time>2026-04-30T10:02:18.001Z</time></trkpt><trkpt lat="37.63583500016692" lon="13.896442735696066"><ele>358.0</ele><time>2026-04-30T10:02:19.001Z</time></trkpt><trkpt lat="37.636009792680035" lon="13.89648210054846"><ele>357.3333333333333</ele><time>2026-04-30T10:02:20.001Z</time></trkpt><trkpt lat="37.6361847883342" lon="13.896522874185372"><ele>356.6666666666667</ele><time>2026-04-30T10:02:21.001Z</time></trkpt><trkpt lat="37.63636050415806" lon="13.896566385907548"><ele>356.0</ele><time>2026-04-30T10:02:22.001Z</time></trkpt><trkpt lat="37.63653456917476" lon="13.896609715042976"><ele>356.0</ele><time>2026-04-30T10:02:23.001Z</time></trkpt><trkpt lat="37.6367071693825" lon="13.896650084949218"><ele>356.0</ele><time>2026-04-30T10:02:24.001Z</time></trkpt><trkpt lat="37.63687908235871" lon="13.896693119773365"><ele>356.0</ele><time>2026-04-30T10:02:25.001Z</time></trkpt><trkpt lat="37.6370517226328" lon="13.89673640311926"><ele>355.6666666666667</ele><time>2026-04-30T10:02:26.001Z</time></trkpt><trkpt lat="37.63722659027736" lon="13.896775328690405"><ele>355.3333333333333</ele><time>2026-04-30T10:02:27.001Z</time></trkpt><trkpt lat="37.63739790785639" lon="13.896832631033194"><ele>355.0</ele><time>2026-04-30T10:02:28.001Z</time></trkpt><trkpt lat="37.637571884199886" lon="13.896875306266143"><ele>355.0</ele><time>2026-04-30T10:02:29.001Z</time></trkpt><trkpt lat="37.637746181752476" lon="13.896917448306674"><ele>355.0</ele><time>2026-04-30T10:02:30.001Z</time></trkpt><trkpt lat="37.637922045448065" lon="13.896958362604158"><ele>355.0</ele><time>2026-04-30T10:02:31.001Z</time></trkpt><trkpt lat="37.63810094564905" lon="13.896981963789138"><ele>355.3333333333333</ele><time>2026-04-30T10:02:32.001Z</time></trkpt><trkpt lat="37.638278257862034" lon="13.89702599603783"><ele>355.6666666666667</ele><time>2026-04-30T10:02:33.001Z</time></trkpt><trkpt lat="37.63845694988199" lon="13.897070240138328"><ele>356.0</ele><time>2026-04-30T10:02:34.001Z</time></trkpt><trkpt lat="37.638637738136495" lon="13.897116103872891"><ele>356.33333333333337</ele><time>2026-04-30T10:02:35.001Z</time></trkpt><trkpt lat="37.63882142699254" lon="13.897162206750481"><ele>356.6666666666667</ele><time>2026-04-30T10:02:36.001Z</time></trkpt><trkpt lat="37.63900666970169" lon="13.897207034643426"><ele>357.0</ele><time>2026-04-30T10:02:37.001Z</time></trkpt><trkpt lat="37.63919416252876" lon="13.8972520460877"><ele>357.0</ele><time>2026-04-30T10:02:38.001Z</time></trkpt><trkpt lat="37.6393818697867" lon="13.897296446361175"><ele>357.0</ele><time>2026-04-30T10:02:39.001Z</time></trkpt><trkpt lat="37.63957099773921" lon="13.897339614187437"><ele>357.0</ele><time>2026-04-30T10:02:40.001Z</time></trkpt><trkpt lat="37.63976125181616" lon="13.897387157754952"><ele>357.0</ele><time>2026-04-30T10:02:41.001Z</time></trkpt><trkpt lat="37.639950333237934" lon="13.89743134753769"><ele>357.0</ele><time>2026-04-30T10:02:42.001Z</time></trkpt><trkpt lat="37.64014325443736" lon="13.897456948790245"><ele>357.0</ele><time>2026-04-30T10:02:43.001Z</time></trkpt><trkpt lat="37.640339831006564" lon="13.89746322447716"><ele>357.3333333333333</ele><time>2026-04-30T10:02:44.001Z</time></trkpt><trkpt lat="37.64053486223065" lon="13.897456337320355"><ele>357.66666666666663</ele><time>2026-04-30T10:02:45.001Z</time></trkpt><trkpt lat="37.640728419517124" lon="13.897451281270685"><ele>358.0</ele><time>2026-04-30T10:02:46.001Z</time></trkpt><trkpt lat="37.64091940871597" lon="13.89744442162512"><ele>358.0</ele><time>2026-04-30T10:02:47.001Z</time></trkpt><trkpt lat="37.64110884701231" lon="13.897437479464578"><ele>358.0</ele><time>2026-04-30T10:02:48.001Z</time></trkpt><trkpt lat="37.641296970977606" lon="13.897434093946089"><ele>358.0</ele><time>2026-04-30T10:02:49.001Z</time></trkpt><trkpt lat="37.641483193310016" lon="13.897440657319883"><ele>358.3333333333333</ele><time>2026-04-30T10:02:50.001Z</time></trkpt><trkpt lat="37.64167055381417" lon="13.897453952096235"><ele>358.6666666666667</ele><time>2026-04-30T10:02:51.001Z</time></trkpt><trkpt lat="37.64185435088845" lon="13.897474774950734"><ele>359.0</ele><time>2026-04-30T10:02:52.001Z</time></trkpt><trkpt lat="37.64203552926842" lon="13.8974968022383"><ele>359.6666666666667</ele><time>2026-04-30T10:02:53.001Z</time></trkpt><trkpt lat="37.642213819893485" lon="13.897518670516718"><ele>360.3333333333333</ele><time>2026-04-30T10:02:54.001Z</time></trkpt><trkpt lat="37.642388532146576" lon="13.897541596822022"><ele>361.0</ele><time>2026-04-30T10:02:55.001Z</time></trkpt><trkpt lat="37.64256353175333" lon="13.89756399660784"><ele>361.0</ele><time>2026-04-30T10:02:56.001Z</time></trkpt><trkpt lat="37.642739934299485" lon="13.897584747727938"><ele>361.0</ele><time>2026-04-30T10:02:57.001Z</time></trkpt><trkpt lat="37.642918415192334" lon="13.89760542635658"><ele>361.0</ele><time>2026-04-30T10:02:58.001Z</time></trkpt><trkpt lat="37.64309892240674" lon="13.897625363070864"><ele>360.0</ele><time>2026-04-30T10:02:59.001Z</time></trkpt><trkpt lat="37.643281060967624" lon="13.897647487748642"><ele>359.0</ele><time>2026-04-30T10:03:00.001Z</time></trkpt><trkpt lat="37.64346437575322" lon="13.89767005889594"><ele>358.0</ele><time>2026-04-30T10:03:01.001Z</time></trkpt><trkpt lat="37.64365034265076" lon="13.8976919979195"><ele>358.0</ele><time>2026-04-30T10:03:02.001Z</time></trkpt><trkpt lat="37.643837804228305" lon="13.89771400617222"><ele>358.0</ele><time>2026-04-30T10:03:03.001Z</time></trkpt><trkpt lat="37.64402574211585" lon="13.897738892101913"><ele>358.0</ele><time>2026-04-30T10:03:04.001Z</time></trkpt><trkpt lat="37.64421594710291" lon="13.897761098321583"><ele>358.0</ele><time>2026-04-30T10:03:05.001Z</time></trkpt><trkpt lat="37.64440614341331" lon="13.897777233765003"><ele>358.0</ele><time>2026-04-30T10:03:06.001Z</time></trkpt><trkpt lat="37.64459829526614" lon="13.897785702097847"><ele>358.0</ele><time>2026-04-30T10:03:07.002Z</time></trkpt><trkpt lat="37.644791933631815" lon="13.897785178196381"><ele>358.0</ele><time>2026-04-30T10:03:08.002Z</time></trkpt><trkpt lat="37.644985386075135" lon="13.897769632566105"><ele>358.0</ele><time>2026-04-30T10:03:09.002Z</time></trkpt><trkpt lat="37.6451770429248" lon="13.897743644436119"><ele>358.0</ele><time>2026-04-30T10:03:10.002Z</time></trkpt><trkpt lat="37.645369347132146" lon="13.897712308277608"><ele>358.0</ele><time>2026-04-30T10:03:11.002Z</time></trkpt><trkpt lat="37.64556350924017" lon="13.897683839300406"><ele>358.0</ele><time>2026-04-30T10:03:12.002Z</time></trkpt><trkpt lat="37.64575874040819" lon="13.897655106006068"><ele>358.0</ele><time>2026-04-30T10:03:13.002Z</time></trkpt><trkpt lat="37.64595400906501" lon="13.897619881084442"><ele>359.3333333333333</ele><time>2026-04-30T10:03:14.002Z</time></trkpt><trkpt lat="37.6461502411786" lon="13.897579784691409"><ele>360.6666666666667</ele><time>2026-04-30T10:03:15.002Z</time></trkpt><trkpt lat="37.646343632184575" lon="13.89753829642376"><ele>362.0</ele><time>2026-04-30T10:03:16.002Z</time></trkpt><trkpt lat="37.64652217951607" lon="13.897488808849827"><ele>362.0</ele><time>2026-04-30T10:03:17.002Z</time></trkpt><trkpt lat="37.646706383274754" lon="13.89744087464991"><ele>362.0</ele><time>2026-04-30T10:03:18.002Z</time></trkpt><trkpt lat="37.646893145010445" lon="13.897396012319838"><ele>362.0</ele><time>2026-04-30T10:03:19.002Z</time></trkpt><trkpt lat="37.647078507178485" lon="13.897349929575858"><ele>361.33333333333337</ele><time>2026-04-30T10:03:20.002Z</time></trkpt><trkpt lat="37.64726316259751" lon="13.8973025847171"><ele>360.6666666666667</ele><time>2026-04-30T10:03:21.002Z</time></trkpt><trkpt lat="37.6474507628066" lon="13.897278527853516"><ele>360.0</ele><time>2026-04-30T10:03:22.002Z</time></trkpt><trkpt lat="37.64763512361139" lon="13.89723558155469"><ele>359.6666666666667</ele><time>2026-04-30T10:03:23.002Z</time></trkpt><trkpt lat="37.64781766060813" lon="13.897192009439776"><ele>359.33333333333337</ele><time>2026-04-30T10:03:24.002Z</time></trkpt><trkpt lat="37.64800115029142" lon="13.897148190307357"><ele>359.0</ele><time>2026-04-30T10:03:25.002Z</time></trkpt><trkpt lat="37.648186501735196" lon="13.897103927763016"><ele>359.0</ele><time>2026-04-30T10:03:26.002Z</time></trkpt><trkpt lat="37.64837117456991" lon="13.89703855990082"><ele>359.0</ele><time>2026-04-30T10:03:27.002Z</time></trkpt><trkpt lat="37.64856383656664" lon="13.896994825309324"><ele>359.0</ele><time>2026-04-30T10:03:28.002Z</time></trkpt><trkpt lat="37.648758816918445" lon="13.896948476634993"><ele>360.0</ele><time>2026-04-30T10:03:29.002Z</time></trkpt><trkpt lat="37.648952550898606" lon="13.896903611127078"><ele>361.0</ele><time>2026-04-30T10:03:30.002Z</time></trkpt><trkpt lat="37.649148535896806" lon="13.89686009687982"><ele>362.0</ele><time>2026-04-30T10:03:31.002Z</time></trkpt><trkpt lat="37.649347473501166" lon="13.89682277189051"><ele>362.0</ele><time>2026-04-30T10:03:32.002Z</time></trkpt><trkpt lat="37.649550132012074" lon="13.896818216204602"><ele>362.0</ele><time>2026-04-30T10:03:33.002Z</time></trkpt><trkpt lat="37.649751645481466" lon="13.896781980188406"><ele>362.0</ele><time>2026-04-30T10:03:34.002Z</time></trkpt><trkpt lat="37.64995235608299" lon="13.89676819015709"><ele>363.0</ele><time>2026-04-30T10:03:35.002Z</time></trkpt><trkpt lat="37.650148688726766" lon="13.896749688814094"><ele>364.0</ele><time>2026-04-30T10:03:36.002Z</time></trkpt><trkpt lat="37.65033166068596" lon="13.896731349964869"><ele>365.0</ele><time>2026-04-30T10:03:37.002Z</time></trkpt><trkpt lat="37.650509853055816" lon="13.89670356185617"><ele>365.0</ele><time>2026-04-30T10:03:38.002Z</time></trkpt><trkpt lat="37.650691180057" lon="13.89666530401924"><ele>365.0</ele><time>2026-04-30T10:03:39.002Z</time></trkpt><trkpt lat="37.65087494093662" lon="13.896629775240706"><ele>365.0</ele><time>2026-04-30T10:03:40.002Z</time></trkpt><trkpt lat="37.651056460853106" lon="13.8965962866572"><ele>364.6666666666667</ele><time>2026-04-30T10:03:41.002Z</time></trkpt><trkpt lat="37.651235968588125" lon="13.89655876065536"><ele>364.3333333333333</ele><time>2026-04-30T10:03:42.001Z</time></trkpt><trkpt lat="37.6514100263912" lon="13.8965173932386"><ele>364.0</ele><time>2026-04-30T10:03:43.001Z</time></trkpt><trkpt lat="37.6515791593203" lon="13.89648663000008"><ele>364.0</ele><time>2026-04-30T10:03:44.001Z</time></trkpt><trkpt lat="37.65175558266677" lon="13.896458207239489"><ele>364.0</ele><time>2026-04-30T10:03:45.001Z</time></trkpt><trkpt lat="37.65191795395513" lon="13.896429886117787"><ele>364.0</ele><time>2026-04-30T10:03:46.001Z</time></trkpt><trkpt lat="37.65206958853407" lon="13.896398686683753"><ele>364.5</ele><time>2026-04-30T10:03:47.001Z</time></trkpt><trkpt lat="37.65221369275656" lon="13.89636597834353"><ele>365.0</ele><time>2026-04-30T10:03:48.001Z</time></trkpt><trkpt lat="37.652351323301026" lon="13.896344033122999"><ele>365.5</ele><time>2026-04-30T10:03:49.001Z</time></trkpt><trkpt lat="37.65249205033294" lon="13.896316275533225"><ele>366.0</ele><time>2026-04-30T10:03:50.001Z</time></trkpt><trkpt lat="37.65264612704462" lon="13.896288111971344"><ele>366.6666666666667</ele><time>2026-04-30T10:03:51.001Z</time></trkpt><trkpt lat="37.65281432788346" lon="13.896255820427847"><ele>367.33333333333337</ele><time>2026-04-30T10:03:52.001Z</time></trkpt><trkpt lat="37.65299546957522" lon="13.89621826339241"><ele>368.0</ele><time>2026-04-30T10:03:53.001Z</time></trkpt><trkpt lat="37.65318707887884" lon="13.896181809471113"><ele>368.0</ele><time>2026-04-30T10:03:54.001Z</time></trkpt><trkpt lat="37.65338619405583" lon="13.896137412006834"><ele>368.0</ele><time>2026-04-30T10:03:55.001Z</time></trkpt><trkpt lat="37.65358763704775" lon="13.896096630946925"><ele>368.0</ele><time>2026-04-30T10:03:56.001Z</time></trkpt><trkpt lat="37.6537923500572" lon="13.896058524153863"><ele>368.33333333333337</ele><time>2026-04-30T10:03:57.001Z</time></trkpt><trkpt lat="37.6539962842454" lon="13.896021126815112"><ele>368.6666666666667</ele><time>2026-04-30T10:03:58.001Z</time></trkpt><trkpt lat="37.654199471375236" lon="13.895984658651686"><ele>369.0</ele><time>2026-04-30T10:03:59.001Z</time></trkpt><trkpt lat="37.65440271266446" lon="13.89594630835772"><ele>370.0</ele><time>2026-04-30T10:04:00.001Z</time></trkpt><trkpt lat="37.654607569631764" lon="13.895910309492912"><ele>371.0</ele><time>2026-04-30T10:04:01.001Z</time></trkpt><trkpt lat="37.6548144508268" lon="13.89588039813835"><ele>372.0</ele><time>2026-04-30T10:04:02.001Z</time></trkpt><trkpt lat="37.6550225830685" lon="13.895883412697565"><ele>372.0</ele><time>2026-04-30T10:04:03.001Z</time></trkpt><trkpt lat="37.655230766189646" lon="13.895856732174517"><ele>372.0</ele><time>2026-04-30T10:04:04.001Z</time></trkpt><trkpt lat="37.65544024711818" lon="13.895856972985742"><ele>372.0</ele><time>2026-04-30T10:04:05.001Z</time></trkpt><trkpt lat="37.65564862580796" lon="13.895847267673794"><ele>372.0</ele><time>2026-04-30T10:04:06.001Z</time></trkpt><trkpt lat="37.65585210942138" lon="13.89583806267246"><ele>372.0</ele><time>2026-04-30T10:04:07.001Z</time></trkpt><trkpt lat="37.65604811029608" lon="13.895831309365395"><ele>372.0</ele><time>2026-04-30T10:04:08.001Z</time></trkpt><trkpt lat="37.65624849754454" lon="13.895814980001196"><ele>372.0</ele><time>2026-04-30T10:04:09.001Z</time></trkpt><trkpt lat="37.656449668407966" lon="13.895781642918049"><ele>372.0</ele><time>2026-04-30T10:04:10.001Z</time></trkpt><trkpt lat="37.656649999292725" lon="13.895733297492262"><ele>372.0</ele><time>2026-04-30T10:04:11.001Z</time></trkpt><trkpt lat="37.65685221567184" lon="13.895686410781721"><ele>371.6666666666667</ele><time>2026-04-30T10:04:12.001Z</time></trkpt><trkpt lat="37.657053608738714" lon="13.895640407630683"><ele>371.33333333333337</ele><time>2026-04-30T10:04:13.001Z</time></trkpt><trkpt lat="37.65725475027258" lon="13.895598475755213"><ele>371.0</ele><time>2026-04-30T10:04:14.001Z</time></trkpt><trkpt lat="37.65745465479406" lon="13.895556682072218"><ele>371.0</ele><time>2026-04-30T10:04:15.001Z</time></trkpt><trkpt lat="37.65765621847095" lon="13.89550701028649"><ele>371.0</ele><time>2026-04-30T10:04:16.001Z</time></trkpt><trkpt lat="37.65785934195463" lon="13.895445327237661"><ele>371.0</ele><time>2026-04-30T10:04:17.001Z</time></trkpt><trkpt lat="37.65805948131735" lon="13.89536449093866"><ele>371.0</ele><time>2026-04-30T10:04:18.001Z</time></trkpt><trkpt lat="37.658255144312726" lon="13.895261287400151"><ele>371.0</ele><time>2026-04-30T10:04:19.001Z</time></trkpt><trkpt lat="37.65844959700096" lon="13.895155515268684"><ele>371.0</ele><time>2026-04-30T10:04:20.001Z</time></trkpt><trkpt lat="37.65864573513123" lon="13.895049774395657"><ele>371.0</ele><time>2026-04-30T10:04:21.001Z</time></trkpt><trkpt lat="37.65884172891209" lon="13.894947269821978"><ele>371.0</ele><time>2026-04-30T10:04:22.001Z</time></trkpt><trkpt lat="37.65903170201525" lon="13.894849696162977"><ele>371.0</ele><time>2026-04-30T10:04:23.001Z</time></trkpt><trkpt lat="37.659215535631155" lon="13.894751939504815"><ele>371.0</ele><time>2026-04-30T10:04:24.001Z</time></trkpt><trkpt lat="37.659395776485695" lon="13.89465296638384"><ele>371.0</ele><time>2026-04-30T10:04:25.001Z</time></trkpt><trkpt lat="37.65957318456652" lon="13.894556200060386"><ele>371.0</ele><time>2026-04-30T10:04:26.001Z</time></trkpt><trkpt lat="37.659749383948736" lon="13.894464251759791"><ele>371.6666666666667</ele><time>2026-04-30T10:04:27.001Z</time></trkpt><trkpt lat="37.65991959874319" lon="13.894378047347951"><ele>372.3333333333333</ele><time>2026-04-30T10:04:28.001Z</time></trkpt><trkpt lat="37.66007586864513" lon="13.894307683118315"><ele>373.0</ele><time>2026-04-30T10:04:29.001Z</time></trkpt><trkpt lat="37.660236508715876" lon="13.894264174758222"><ele>372.66666666666663</ele><time>2026-04-30T10:04:30.001Z</time></trkpt><trkpt lat="37.66040078986911" lon="13.894300510238784"><ele>372.3333333333333</ele><time>2026-04-30T10:04:31.001Z</time></trkpt><trkpt lat="37.66055658060797" lon="13.894363506289814"><ele>372.0</ele><time>2026-04-30T10:04:32.001Z</time></trkpt><trkpt lat="37.660716759437875" lon="13.894423001718286"><ele>372.0</ele><time>2026-04-30T10:04:33.001Z</time></trkpt><trkpt lat="37.660885686790955" lon="13.894473870197887"><ele>372.0</ele><time>2026-04-30T10:04:34.001Z</time></trkpt><trkpt lat="37.66106184131269" lon="13.89449311650904"><ele>372.0</ele><time>2026-04-30T10:04:35.001Z</time></trkpt><trkpt lat="37.66122874811089" lon="13.894476252594172"><ele>372.3333333333333</ele><time>2026-04-30T10:04:36.001Z</time></trkpt><trkpt lat="37.66138682171984" lon="13.894411358802763"><ele>372.66666666666663</ele><time>2026-04-30T10:04:37.001Z</time></trkpt><trkpt lat="37.66154426348827" lon="13.894333349982091"><ele>373.0</ele><time>2026-04-30T10:04:38.001Z</time></trkpt><trkpt lat="37.661694754025035" lon="13.894227191901019"><ele>373.3333333333333</ele><time>2026-04-30T10:04:39.001Z</time></trkpt><trkpt lat="37.66183632216491" lon="13.894094797492265"><ele>373.6666666666667</ele><time>2026-04-30T10:04:40.001Z</time></trkpt><trkpt lat="37.66197101595367" lon="13.893940381068779"><ele>374.0</ele><time>2026-04-30T10:04:41.001Z</time></trkpt><trkpt lat="37.66211097084379" lon="13.89379882252104"><ele>376.33333333333337</ele><time>2026-04-30T10:04:42.001Z</time></trkpt><trkpt lat="37.6622448620175" lon="13.893662880484511"><ele>378.6666666666667</ele><time>2026-04-30T10:04:43.001Z</time></trkpt><trkpt lat="37.6623904700555" lon="13.893538960899642"><ele>381.0</ele><time>2026-04-30T10:04:44.001Z</time></trkpt><trkpt lat="37.66255131057345" lon="13.893432980097892"><ele>379.6666666666667</ele><time>2026-04-30T10:04:45.001Z</time></trkpt><trkpt lat="37.662729878264926" lon="13.893347441695452"><ele>378.33333333333337</ele><time>2026-04-30T10:04:46.001Z</time></trkpt><trkpt lat="37.66291311382017" lon="13.893268513429573"><ele>377.0</ele><time>2026-04-30T10:04:47.001Z</time></trkpt><trkpt lat="37.66308842039438" lon="13.89318140787223"><ele>376.33333333333337</ele><time>2026-04-30T10:04:48.001Z</time></trkpt><trkpt lat="37.663263312162535" lon="13.893079668454703"><ele>375.6666666666667</ele><time>2026-04-30T10:04:49.001Z</time></trkpt><trkpt lat="37.663439748868875" lon="13.892960643215147"><ele>375.0</ele><time>2026-04-30T10:04:50.001Z</time></trkpt><trkpt lat="37.66361099704646" lon="13.892823976199729"><ele>375.0</ele><time>2026-04-30T10:04:51.001Z</time></trkpt><trkpt lat="37.66376361703858" lon="13.89267447751817"><ele>375.0</ele><time>2026-04-30T10:04:52.001Z</time></trkpt><trkpt lat="37.66390751533138" lon="13.892536881578698"><ele>375.0</ele><time>2026-04-30T10:04:53.001Z</time></trkpt><trkpt lat="37.664050765505245" lon="13.892413523364448"><ele>375.0</ele><time>2026-04-30T10:04:54.001Z</time></trkpt><trkpt lat="37.66419922813711" lon="13.892294294033375"><ele>375.0</ele><time>2026-04-30T10:04:55.001Z</time></trkpt><trkpt lat="37.66434921977152" lon="13.892169551326067"><ele>375.0</ele><time>2026-04-30T10:04:56.001Z</time></trkpt><trkpt lat="37.66450000586763" lon="13.892042118177121"><ele>375.0</ele><time>2026-04-30T10:04:57.001Z</time></trkpt><trkpt lat="37.66465061604558" lon="13.891913700017014"><ele>375.0</ele><time>2026-04-30T10:04:58.001Z</time></trkpt><trkpt lat="37.6648028453282" lon="13.891789795107783"><ele>375.0</ele><time>2026-04-30T10:04:59.001Z</time></trkpt><trkpt lat="37.66496203421134" lon="13.891676399622623"><ele>374.6666666666667</ele><time>2026-04-30T10:05:00.001Z</time></trkpt><trkpt lat="37.66512340208502" lon="13.891562523882518"><ele>374.33333333333337</ele><time>2026-04-30T10:05:01.001Z</time></trkpt><trkpt lat="37.66528543546365" lon="13.891441821555096"><ele>374.0</ele><time>2026-04-30T10:05:02.001Z</time></trkpt><trkpt lat="37.66544590101138" lon="13.891322450753266"><ele>375.33333333333337</ele><time>2026-04-30T10:05:03.001Z</time></trkpt><trkpt lat="37.665605655947374" lon="13.891210744335392"><ele>376.6666666666667</ele><time>2026-04-30T10:05:04.001Z</time></trkpt><trkpt lat="37.66576294007334" lon="13.891104801111277"><ele>378.0</ele><time>2026-04-30T10:05:05.001Z</time></trkpt><trkpt lat="37.665912552738796" lon="13.89100248645813"><ele>378.0</ele><time>2026-04-30T10:05:06.001Z</time></trkpt><trkpt lat="37.66605372554167" lon="13.89089724803137"><ele>378.0</ele><time>2026-04-30T10:05:07.001Z</time></trkpt><trkpt lat="37.66618776355854" lon="13.890777416212282"><ele>378.0</ele><time>2026-04-30T10:05:08.001Z</time></trkpt><trkpt lat="37.66632060105397" lon="13.89064508493803"><ele>378.0</ele><time>2026-04-30T10:05:09.001Z</time></trkpt><trkpt lat="37.66644692586122" lon="13.890496044070282"><ele>378.0</ele><time>2026-04-30T10:05:10.001Z</time></trkpt><trkpt lat="37.66656234281932" lon="13.890328064198211"><ele>378.0</ele><time>2026-04-30T10:05:11.001Z</time></trkpt><trkpt lat="37.66666166910578" lon="13.89014431262381"><ele>378.0</ele><time>2026-04-30T10:05:12.001Z</time></trkpt><trkpt lat="37.66675142709877" lon="13.88995630934364"><ele>378.0</ele><time>2026-04-30T10:05:13.001Z</time></trkpt><trkpt lat="37.66683460622674" lon="13.889780129311333"><ele>378.0</ele><time>2026-04-30T10:05:14.001Z</time></trkpt><trkpt lat="37.66690092563865" lon="13.889608644779909"><ele>378.0</ele><time>2026-04-30T10:05:15.001Z</time></trkpt><trkpt lat="37.666922412014536" lon="13.88945608371127"><ele>378.0</ele><time>2026-04-30T10:05:16.001Z</time></trkpt><trkpt lat="37.66692016429431" lon="13.889306462068983"><ele>378.0</ele><time>2026-04-30T10:05:17.001Z</time></trkpt><trkpt lat="37.66687910496333" lon="13.889168551945348"><ele>378.0</ele><time>2026-04-30T10:05:18.001Z</time></trkpt><trkpt lat="37.666806280519054" lon="13.889033555635217"><ele>377.75</ele><time>2026-04-30T10:05:19.001Z</time></trkpt><trkpt lat="37.66674473427501" lon="13.888893206049719"><ele>377.5</ele><time>2026-04-30T10:05:20.001Z</time></trkpt><trkpt lat="37.6666862957194" lon="13.88875067716251"><ele>377.25</ele><time>2026-04-30T10:05:21.001Z</time></trkpt><trkpt lat="37.66664839838441" lon="13.888607328325168"><ele>377.0</ele><time>2026-04-30T10:05:22.001Z</time></trkpt><trkpt lat="37.66665232943714" lon="13.888466620147943"><ele>376.75</ele><time>2026-04-30T10:05:23.001Z</time></trkpt><trkpt lat="37.6666951367419" lon="13.88831950224775"><ele>376.5</ele><time>2026-04-30T10:05:24.001Z</time></trkpt><trkpt lat="37.66676398233245" lon="13.888182368506756"><ele>376.25</ele><time>2026-04-30T10:05:25.001Z</time></trkpt><trkpt lat="37.66685724347698" lon="13.888049406971193"><ele>376.0</ele><time>2026-04-30T10:05:26.001Z</time></trkpt><trkpt lat="37.6669409870943" lon="13.887918899894025"><ele>376.25</ele><time>2026-04-30T10:05:27.001Z</time></trkpt><trkpt lat="37.66701383653233" lon="13.88778205927432"><ele>376.5</ele><time>2026-04-30T10:05:28.001Z</time></trkpt><trkpt lat="37.667075867483334" lon="13.887647445046625"><ele>376.75</ele><time>2026-04-30T10:05:29.001Z</time></trkpt><trkpt lat="37.66712831775296" lon="13.887506899142739"><ele>377.0</ele><time>2026-04-30T10:05:30.001Z</time></trkpt><trkpt lat="37.66717002188937" lon="13.887353870450994"><ele>377.40000000000003</ele><time>2026-04-30T10:05:31.001Z</time></trkpt><trkpt lat="37.66718452204007" lon="13.88719768953461"><ele>377.8</ele><time>2026-04-30T10:05:32.001Z</time></trkpt><trkpt lat="37.66716381498972" lon="13.887054389745517"><ele>378.2</ele><time>2026-04-30T10:05:33.001Z</time></trkpt><trkpt lat="37.66712262675785" lon="13.886934776553812"><ele>378.6</ele><time>2026-04-30T10:05:34.001Z</time></trkpt><trkpt lat="37.6670711660976" lon="13.88683601632791"><ele>379.0</ele><time>2026-04-30T10:05:35.001Z</time></trkpt><trkpt lat="37.6670101659326" lon="13.886759304888319"><ele>379.6</ele><time>2026-04-30T10:05:36.001Z</time></trkpt><trkpt lat="37.666954084696805" lon="13.886683911355226"><ele>380.2</ele><time>2026-04-30T10:05:37.002Z</time></trkpt><trkpt lat="37.66690767372521" lon="13.886605707815464"><ele>380.8</ele><time>2026-04-30T10:05:38.001Z</time></trkpt><trkpt lat="37.66686674610663" lon="13.886512834072594"><ele>381.40000000000003</ele><time>2026-04-30T10:05:39.001Z</time></trkpt><trkpt lat="37.66684850716175" lon="13.886391136955073"><ele>382.0</ele><time>2026-04-30T10:05:40.001Z</time></trkpt><trkpt lat="37.6668703471446" lon="13.886250643684994"><ele>382.0</ele><time>2026-04-30T10:05:41.002Z</time></trkpt><trkpt lat="37.66693826584168" lon="13.886121261957854"><ele>382.0</ele><time>2026-04-30T10:05:42.002Z</time></trkpt><trkpt lat="37.66704276705451" lon="13.886012928449663"><ele>382.0</ele><time>2026-04-30T10:05:43.002Z</time></trkpt><trkpt lat="37.667156620049205" lon="13.88592293554369"><ele>382.0</ele><time>2026-04-30T10:05:44.002Z</time></trkpt><trkpt lat="37.66727088295659" lon="13.885846986668227"><ele>382.5</ele><time>2026-04-30T10:05:45.002Z</time></trkpt><trkpt lat="37.66737836658887" lon="13.885758507093618"><ele>383.0</ele><time>2026-04-30T10:05:46.002Z</time></trkpt><trkpt lat="37.66747670008938" lon="13.885658516603355"><ele>383.5</ele><time>2026-04-30T10:05:47.002Z</time></trkpt><trkpt lat="37.667578694912756" lon="13.885561989228213"><ele>384.0</ele><time>2026-04-30T10:05:48.001Z</time></trkpt><trkpt lat="37.66768925604572" lon="13.88546424791364"><ele>384.25</ele><time>2026-04-30T10:05:49.001Z</time></trkpt><trkpt lat="37.66780533892027" lon="13.885358998204245"><ele>384.5</ele><time>2026-04-30T10:05:50.001Z</time></trkpt><trkpt lat="37.667925506693464" lon="13.885249529452157"><ele>384.75</ele><time>2026-04-30T10:05:51.001Z</time></trkpt><trkpt lat="37.668044098951505" lon="13.885140369064967"><ele>385.0</ele><time>2026-04-30T10:05:52.001Z</time></trkpt><trkpt lat="37.66815701343184" lon="13.885038075473094"><ele>385.0</ele><time>2026-04-30T10:05:53.001Z</time></trkpt><trkpt lat="37.66826910574123" lon="13.884934181373369"><ele>385.0</ele><time>2026-04-30T10:05:54.001Z</time></trkpt><trkpt lat="37.6683849027466" lon="13.884824970791781"><ele>385.0</ele><time>2026-04-30T10:05:55.001Z</time></trkpt><trkpt lat="37.66850453586752" lon="13.88471092859845"><ele>385.0</ele><time>2026-04-30T10:05:56.001Z</time></trkpt><trkpt lat="37.66862801618753" lon="13.884592100312886"><ele>384.6666666666667</ele><time>2026-04-30T10:05:57.001Z</time></trkpt><trkpt lat="37.668757980159285" lon="13.884467982679135"><ele>384.33333333333337</ele><time>2026-04-30T10:05:58.001Z</time></trkpt><trkpt lat="37.668896192328866" lon="13.884343283040666"><ele>384.0</ele><time>2026-04-30T10:05:59.001Z</time></trkpt><trkpt lat="37.66903948780733" lon="13.884221340422018"><ele>383.6666666666667</ele><time>2026-04-30T10:06:00.001Z</time></trkpt><trkpt lat="37.66918715903517" lon="13.88409341105057"><ele>383.33333333333337</ele><time>2026-04-30T10:06:01.001Z</time></trkpt><trkpt lat="37.66933735958202" lon="13.883960522140793"><ele>383.0</ele><time>2026-04-30T10:06:02.001Z</time></trkpt><trkpt lat="37.66949230729358" lon="13.883825507447737"><ele>383.0</ele><time>2026-04-30T10:06:03.001Z</time></trkpt><trkpt lat="37.66964303497946" lon="13.883688241253907"><ele>383.0</ele><time>2026-04-30T10:06:04.001Z</time></trkpt><trkpt lat="37.66978262786447" lon="13.883548210489476"><ele>383.0</ele><time>2026-04-30T10:06:05.001Z</time></trkpt><trkpt lat="37.66991606864443" lon="13.883422140952845"><ele>385.0</ele><time>2026-04-30T10:06:06.001Z</time></trkpt><trkpt lat="37.67003680126586" lon="13.883281929870531"><ele>387.0</ele><time>2026-04-30T10:06:07.001Z</time></trkpt><trkpt lat="37.670137989427744" lon="13.883109026881646"><ele>389.0</ele><time>2026-04-30T10:06:08.001Z</time></trkpt><trkpt lat="37.67024118926261" lon="13.882936651933395"><ele>388.66666666666663</ele><time>2026-04-30T10:06:09.001Z</time></trkpt><trkpt lat="37.67034690309574" lon="13.882776666286363"><ele>388.33333333333337</ele><time>2026-04-30T10:06:10.001Z</time></trkpt><trkpt lat="37.67044926190686" lon="13.882620313043548"><ele>388.0</ele><time>2026-04-30T10:06:11.001Z</time></trkpt><trkpt lat="37.670559781834505" lon="13.882468578806149"><ele>388.0</ele><time>2026-04-30T10:06:12.001Z</time></trkpt><trkpt lat="37.67068831834508" lon="13.882322806723646"><ele>388.0</ele><time>2026-04-30T10:06:13.001Z</time></trkpt><trkpt lat="37.670820637815154" lon="13.882169402871588"><ele>388.0</ele><time>2026-04-30T10:06:14.001Z</time></trkpt><trkpt lat="37.670944110699985" lon="13.882015967697903"><ele>388.0</ele><time>2026-04-30T10:06:15.001Z</time></trkpt><trkpt lat="37.67104899430863" lon="13.8818612228779"><ele>388.0</ele><time>2026-04-30T10:06:16.001Z</time></trkpt><trkpt lat="37.67112523968369" lon="13.881690934789352"><ele>388.0</ele><time>2026-04-30T10:06:17.001Z</time></trkpt><trkpt lat="37.67118009856472" lon="13.881491000905976"><ele>387.6666666666667</ele><time>2026-04-30T10:06:18.001Z</time></trkpt><trkpt lat="37.671221306136644" lon="13.881270347133684"><ele>387.33333333333337</ele><time>2026-04-30T10:06:19.001Z</time></trkpt><trkpt lat="37.67126153526565" lon="13.8810377290695"><ele>387.0</ele><time>2026-04-30T10:06:20.001Z</time></trkpt><trkpt lat="37.671297489162775" lon="13.880796044157274"><ele>387.0</ele><time>2026-04-30T10:06:21.001Z</time></trkpt><trkpt lat="37.67133332890093" lon="13.880547209211283"><ele>387.0</ele><time>2026-04-30T10:06:22.001Z</time></trkpt><trkpt lat="37.67137174972191" lon="13.88030121713154"><ele>387.0</ele><time>2026-04-30T10:06:23.001Z</time></trkpt><trkpt lat="37.67141223569476" lon="13.880054386909336"><ele>387.66666666666663</ele><time>2026-04-30T10:06:24.001Z</time></trkpt><trkpt lat="37.67145853011938" lon="13.879808111741685"><ele>388.3333333333333</ele><time>2026-04-30T10:06:25.001Z</time></trkpt><trkpt lat="37.6715105864873" lon="13.879559637794376"><ele>389.0</ele><time>2026-04-30T10:06:26.001Z</time></trkpt><trkpt lat="37.671564293049705" lon="13.879315902054477"><ele>390.0</ele><time>2026-04-30T10:06:27.001Z</time></trkpt><trkpt lat="37.67161924424187" lon="13.879080342412026"><ele>391.0</ele><time>2026-04-30T10:06:28.001Z</time></trkpt><trkpt lat="37.67167599714978" lon="13.878848241869942"><ele>392.0</ele><time>2026-04-30T10:06:29.001Z</time></trkpt><trkpt lat="37.67173166808422" lon="13.878622091378181"><ele>392.3333333333333</ele><time>2026-04-30T10:06:30.001Z</time></trkpt><trkpt lat="37.671773021223515" lon="13.878402667432518"><ele>392.66666666666663</ele><time>2026-04-30T10:06:31.001Z</time></trkpt><trkpt lat="37.67181669727915" lon="13.878190190746217"><ele>393.0</ele><time>2026-04-30T10:06:32.001Z</time></trkpt><trkpt lat="37.671871367882986" lon="13.87797716800967"><ele>393.0</ele><time>2026-04-30T10:06:33.001Z</time></trkpt><trkpt lat="37.67192663147427" lon="13.877756288854272"><ele>393.0</ele><time>2026-04-30T10:06:34.001Z</time></trkpt><trkpt lat="37.67198262845743" lon="13.877527405057807"><ele>393.0</ele><time>2026-04-30T10:06:35.001Z</time></trkpt><trkpt lat="37.67205024560815" lon="13.87729490468231"><ele>392.66666666666663</ele><time>2026-04-30T10:06:36.001Z</time></trkpt><trkpt lat="37.672115113283695" lon="13.877055723729905"><ele>392.3333333333333</ele><time>2026-04-30T10:06:37.001Z</time></trkpt><trkpt lat="37.67218755389439" lon="13.87681308628345"><ele>392.0</ele><time>2026-04-30T10:06:38.001Z</time></trkpt><trkpt lat="37.67226381831817" lon="13.876565096197824"><ele>392.0</ele><time>2026-04-30T10:06:39.001Z</time></trkpt><trkpt lat="37.67233727597301" lon="13.876316967317383"><ele>392.0</ele><time>2026-04-30T10:06:40.001Z</time></trkpt><trkpt lat="37.672413061327" lon="13.876070159708005"><ele>392.0</ele><time>2026-04-30T10:06:41.001Z</time></trkpt><trkpt lat="37.672491099414465" lon="13.875825262514432"><ele>393.0</ele><time>2026-04-30T10:06:42.001Z</time></trkpt><trkpt lat="37.67256336717319" lon="13.87558877975774"><ele>394.0</ele><time>2026-04-30T10:06:43.001Z</time></trkpt><trkpt lat="37.67262502303611" lon="13.875368651637823"><ele>395.0</ele><time>2026-04-30T10:06:44.001Z</time></trkpt><trkpt lat="37.67268776549586" lon="13.875161920324178"><ele>395.66666666666663</ele><time>2026-04-30T10:06:45.001Z</time></trkpt><trkpt lat="37.67275810893498" lon="13.874955192945121"><ele>396.33333333333337</ele><time>2026-04-30T10:06:46.001Z</time></trkpt><trkpt lat="37.672825178392976" lon="13.87474263067786"><ele>397.0</ele><time>2026-04-30T10:06:47.001Z</time></trkpt><trkpt lat="37.67288974513529" lon="13.874539665496103"><ele>396.33333333333337</ele><time>2026-04-30T10:06:48.001Z</time></trkpt><trkpt lat="37.672956264346055" lon="13.874330193449527"><ele>395.66666666666663</ele><time>2026-04-30T10:06:49.001Z</time></trkpt><trkpt lat="37.67302756445841" lon="13.874114114793018"><ele>395.0</ele><time>2026-04-30T10:06:50.001Z</time></trkpt><trkpt lat="37.67309837202694" lon="13.873894317695466"><ele>395.0</ele><time>2026-04-30T10:06:51.001Z</time></trkpt><trkpt lat="37.67316049614555" lon="13.873674202328248"><ele>395.0</ele><time>2026-04-30T10:06:52.001Z</time></trkpt><trkpt lat="37.67321185326974" lon="13.873461951465657"><ele>395.0</ele><time>2026-04-30T10:06:53.001Z</time></trkpt><trkpt lat="37.673258717064094" lon="13.873258025448719"><ele>395.3333333333333</ele><time>2026-04-30T10:06:54.001Z</time></trkpt><trkpt lat="37.67330723404133" lon="13.873062444693144"><ele>395.66666666666663</ele><time>2026-04-30T10:06:55.001Z</time></trkpt><trkpt lat="37.6733572969687" lon="13.872879781384984"><ele>396.0</ele><time>2026-04-30T10:06:56.001Z</time></trkpt><trkpt lat="37.673415136512496" lon="13.872706803177019"><ele>395.66666666666663</ele><time>2026-04-30T10:06:57.001Z</time></trkpt><trkpt lat="37.67349198703058" lon="13.87253159188223"><ele>395.3333333333333</ele><time>2026-04-30T10:06:58.001Z</time></trkpt><trkpt lat="37.673585661543335" lon="13.872363314089009"><ele>395.0</ele><time>2026-04-30T10:06:59.001Z</time></trkpt><trkpt lat="37.673694946704714" lon="13.872213688338373"><ele>395.0</ele><time>2026-04-30T10:07:00.001Z</time></trkpt><trkpt lat="37.673798379268106" lon="13.87208525200131"><ele>395.0</ele><time>2026-04-30T10:07:01.001Z</time></trkpt><trkpt lat="37.673887645691295" lon="13.87194711347467"><ele>395.0</ele><time>2026-04-30T10:07:02.001Z</time></trkpt><trkpt lat="37.67395172233205" lon="13.871788210592984"><ele>395.0</ele><time>2026-04-30T10:07:03.001Z</time></trkpt><trkpt lat="37.67397731812302" lon="13.871608781252224"><ele>396.0</ele><time>2026-04-30T10:07:04.001Z</time></trkpt><trkpt lat="37.67397474956827" lon="13.87142295429752"><ele>397.0</ele><time>2026-04-30T10:07:05.001Z</time></trkpt><trkpt lat="37.673954395112645" lon="13.871227913881786"><ele>398.0</ele><time>2026-04-30T10:07:06.001Z</time></trkpt><trkpt lat="37.67394699641747" lon="13.87103156701875"><ele>399.0</ele><time>2026-04-30T10:07:07.001Z</time></trkpt><trkpt lat="37.67394565988044" lon="13.870832084418137"><ele>400.0</ele><time>2026-04-30T10:07:08.001Z</time></trkpt><trkpt lat="37.673946742553035" lon="13.870633737700963"><ele>401.0</ele><time>2026-04-30T10:07:09.001Z</time></trkpt><trkpt lat="37.67396443383312" lon="13.870430005424973"><ele>401.0</ele><time>2026-04-30T10:07:10.001Z</time></trkpt><trkpt lat="37.67400229328903" lon="13.870228299751702"><ele>401.0</ele><time>2026-04-30T10:07:11.001Z</time></trkpt><trkpt lat="37.67405318475247" lon="13.870042370212548"><ele>401.0</ele><time>2026-04-30T10:07:12.001Z</time></trkpt><trkpt lat="37.67411730882538" lon="13.869859344581728"><ele>401.3333333333333</ele><time>2026-04-30T10:07:13.001Z</time></trkpt><trkpt lat="37.67419226616068" lon="13.869677891574383"><ele>401.66666666666663</ele><time>2026-04-30T10:07:14.001Z</time></trkpt><trkpt lat="37.67427548226106" lon="13.869495702597243"><ele>402.0</ele><time>2026-04-30T10:07:15.001Z</time></trkpt><trkpt lat="37.67436068766335" lon="13.869309442370163"><ele>405.0</ele><time>2026-04-30T10:07:16.001Z</time></trkpt><trkpt lat="37.674446550758034" lon="13.869120930917182"><ele>408.0</ele><time>2026-04-30T10:07:17.001Z</time></trkpt><trkpt lat="37.674526751786054" lon="13.868926490999392"><ele>411.0</ele><time>2026-04-30T10:07:18.001Z</time></trkpt><trkpt lat="37.674593353524926" lon="13.868723602899875"><ele>411.0</ele><time>2026-04-30T10:07:19.001Z</time></trkpt><trkpt lat="37.674649635668295" lon="13.868513124158454"><ele>411.0</ele><time>2026-04-30T10:07:20.001Z</time></trkpt><trkpt lat="37.67468498075846" lon="13.868288975651149"><ele>411.0</ele><time>2026-04-30T10:07:21.001Z</time></trkpt><trkpt lat="37.67468934928595" lon="13.868053202013717"><ele>410.0</ele><time>2026-04-30T10:07:22.001Z</time></trkpt><trkpt lat="37.674671278192065" lon="13.867800074688654"><ele>409.0</ele><time>2026-04-30T10:07:23.001Z</time></trkpt><trkpt lat="37.67464877738998" lon="13.867532359583695"><ele>408.0</ele><time>2026-04-30T10:07:24.001Z</time></trkpt><trkpt lat="37.674635143618126" lon="13.867255799650733"><ele>408.0</ele><time>2026-04-30T10:07:25.001Z</time></trkpt><trkpt lat="37.67462988185353" lon="13.86699341477584"><ele>408.0</ele><time>2026-04-30T10:07:26.001Z</time></trkpt><trkpt lat="37.674629529438576" lon="13.866753783065535"><ele>408.0</ele><time>2026-04-30T10:07:27.001Z</time></trkpt><trkpt lat="37.67462734060083" lon="13.866540608674509"><ele>408.0</ele><time>2026-04-30T10:07:28.001Z</time></trkpt><trkpt lat="37.67461836029502" lon="13.866328777753552"><ele>408.0</ele><time>2026-04-30T10:07:29.001Z</time></trkpt><trkpt lat="37.674612618044684" lon="13.86608669987791"><ele>408.0</ele><time>2026-04-30T10:07:30.001Z</time></trkpt><trkpt lat="37.67463025828707" lon="13.865823577064694"><ele>408.0</ele><time>2026-04-30T10:07:31.001Z</time></trkpt><trkpt lat="37.67466688059575" lon="13.8655676923537"><ele>408.0</ele><time>2026-04-30T10:07:32.001Z</time></trkpt><trkpt lat="37.6746946191426" lon="13.865325050651846"><ele>408.0</ele><time>2026-04-30T10:07:33.001Z</time></trkpt><trkpt lat="37.67469903777658" lon="13.865071226555273"><ele>407.33333333333337</ele><time>2026-04-30T10:07:34.001Z</time></trkpt><trkpt lat="37.67466692294649" lon="13.864807833186578"><ele>406.6666666666667</ele><time>2026-04-30T10:07:35.001Z</time></trkpt><trkpt lat="37.67462962967938" lon="13.864560976311344"><ele>406.0</ele><time>2026-04-30T10:07:36.001Z</time></trkpt><trkpt lat="37.67461008656103" lon="13.864331858519247"><ele>407.0</ele><time>2026-04-30T10:07:37.001Z</time></trkpt><trkpt lat="37.674606240653326" lon="13.864105043719006"><ele>408.0</ele><time>2026-04-30T10:07:38.001Z</time></trkpt><trkpt lat="37.67461418267035" lon="13.863877925859983"><ele>409.0</ele><time>2026-04-30T10:07:39.001Z</time></trkpt><trkpt lat="37.67462461872565" lon="13.86364817285816"><ele>410.33333333333337</ele><time>2026-04-30T10:07:40.001Z</time></trkpt><trkpt lat="37.674617768378866" lon="13.86340977683568"><ele>411.66666666666663</ele><time>2026-04-30T10:07:41.001Z</time></trkpt><trkpt lat="37.67460049725869" lon="13.86317328146831"><ele>413.0</ele><time>2026-04-30T10:07:42.001Z</time></trkpt><trkpt lat="37.67457559639408" lon="13.86294959478823"><ele>413.0</ele><time>2026-04-30T10:07:43.001Z</time></trkpt><trkpt lat="37.67454379044425" lon="13.862736474519782"><ele>413.0</ele><time>2026-04-30T10:07:44.001Z</time></trkpt><trkpt lat="37.67450728209934" lon="13.862524695748792"><ele>413.0</ele><time>2026-04-30T10:07:45.001Z</time></trkpt><trkpt lat="37.67447459633099" lon="13.862309476356826"><ele>414.3333333333333</ele><time>2026-04-30T10:07:46.001Z</time></trkpt><trkpt lat="37.67445478755574" lon="13.86208044592715"><ele>415.66666666666663</ele><time>2026-04-30T10:07:47.001Z</time></trkpt><trkpt lat="37.674435937972966" lon="13.86183599314017"><ele>417.0</ele><time>2026-04-30T10:07:48.001Z</time></trkpt><trkpt lat="37.674419134513535" lon="13.861586775515573"><ele>414.33333333333337</ele><time>2026-04-30T10:07:49.001Z</time></trkpt><trkpt lat="37.67440721482986" lon="13.861353696409877"><ele>411.6666666666667</ele><time>2026-04-30T10:07:50.001Z</time></trkpt><trkpt lat="37.674396889964086" lon="13.861124515697895"><ele>409.0</ele><time>2026-04-30T10:07:51.001Z</time></trkpt><trkpt lat="37.67439858046553" lon="13.860877630484813"><ele>409.0</ele><time>2026-04-30T10:07:52.001Z</time></trkpt><trkpt lat="37.6744188551098" lon="13.86063668055481"><ele>409.0</ele><time>2026-04-30T10:07:53.001Z</time></trkpt><trkpt lat="37.674459198634665" lon="13.860405255207084"><ele>409.0</ele><time>2026-04-30T10:07:54.001Z</time></trkpt><trkpt lat="37.674498902904446" lon="13.860189092498128"><ele>412.6666666666667</ele><time>2026-04-30T10:07:55.001Z</time></trkpt><trkpt lat="37.67452716285585" lon="13.859969090731665"><ele>416.33333333333337</ele><time>2026-04-30T10:07:56.001Z</time></trkpt><trkpt lat="37.674561885635825" lon="13.85974171794801"><ele>420.0</ele><time>2026-04-30T10:07:57.001Z</time></trkpt><trkpt lat="37.67460947369965" lon="13.859507802954859"><ele>419.66666666666663</ele><time>2026-04-30T10:07:58.001Z</time></trkpt><trkpt lat="37.674673651842475" lon="13.859267908501796"><ele>419.3333333333333</ele><time>2026-04-30T10:07:59.001Z</time></trkpt><trkpt lat="37.67474573878279" lon="13.85902743406679"><ele>419.0</ele><time>2026-04-30T10:08:00.001Z</time></trkpt><trkpt lat="37.67482144583336" lon="13.858804900712615"><ele>419.0</ele><time>2026-04-30T10:08:01.001Z</time></trkpt><trkpt lat="37.67489619029158" lon="13.858580488278907"><ele>419.0</ele><time>2026-04-30T10:08:02.001Z</time></trkpt><trkpt lat="37.67497560299421" lon="13.858338269689545"><ele>419.0</ele><time>2026-04-30T10:08:03.001Z</time></trkpt><trkpt lat="37.67506845790007" lon="13.858081252561869"><ele>417.66666666666663</ele><time>2026-04-30T10:08:04.001Z</time></trkpt><trkpt lat="37.67516940886802" lon="13.85781777136944"><ele>416.33333333333337</ele><time>2026-04-30T10:08:05.001Z</time></trkpt><trkpt lat="37.67526270783793" lon="13.857585448850774"><ele>415.0</ele><time>2026-04-30T10:08:06.001Z</time></trkpt><trkpt lat="37.67534738738199" lon="13.857369132482491"><ele>418.0</ele><time>2026-04-30T10:08:07.001Z</time></trkpt><trkpt lat="37.67542048391048" lon="13.857167265596658"><ele>421.0</ele><time>2026-04-30T10:08:08.001Z</time></trkpt><trkpt lat="37.67549151654141" lon="13.856973521626857"><ele>424.0</ele><time>2026-04-30T10:08:09.001Z</time></trkpt><trkpt lat="37.67556376439548" lon="13.856790808097633"><ele>421.6666666666667</ele><time>2026-04-30T10:08:10.001Z</time></trkpt><trkpt lat="37.675639950913485" lon="13.856614903852396"><ele>419.33333333333337</ele><time>2026-04-30T10:08:11.001Z</time></trkpt><trkpt lat="37.675710666986085" lon="13.856432550881296"><ele>417.0</ele><time>2026-04-30T10:08:12.001Z</time></trkpt><trkpt lat="37.67578126020645" lon="13.856251455457627"><ele>417.0</ele><time>2026-04-30T10:08:13.001Z</time></trkpt><trkpt lat="37.67584519717157" lon="13.856080737409524"><ele>417.0</ele><time>2026-04-30T10:08:14.001Z</time></trkpt><trkpt lat="37.67589564573489" lon="13.855924904633794"><ele>417.0</ele><time>2026-04-30T10:08:15.001Z</time></trkpt><trkpt lat="37.67592105632825" lon="13.85574988054603"><ele>417.0</ele><time>2026-04-30T10:08:16.001Z</time></trkpt><trkpt lat="37.675895653457786" lon="13.855555437720742"><ele>416.25</ele><time>2026-04-30T10:08:17.001Z</time></trkpt><trkpt lat="37.675829058185116" lon="13.855376337864731"><ele>415.5</ele><time>2026-04-30T10:08:18.001Z</time></trkpt><trkpt lat="37.67575572646089" lon="13.855220670628121"><ele>414.75</ele><time>2026-04-30T10:08:19.001Z</time></trkpt><trkpt lat="37.67568387263558" lon="13.855070252008522"><ele>414.0</ele><time>2026-04-30T10:08:20.001Z</time></trkpt><trkpt lat="37.67562175290873" lon="13.854910961519145"><ele>416.33333333333337</ele><time>2026-04-30T10:08:21.001Z</time></trkpt><trkpt lat="37.675584620116645" lon="13.85473596325153"><ele>418.6666666666667</ele><time>2026-04-30T10:08:22.001Z</time></trkpt><trkpt lat="37.67556775989346" lon="13.854544742988846"><ele>421.0</ele><time>2026-04-30T10:08:23.001Z</time></trkpt><trkpt lat="37.6755866697372" lon="13.854335090727284"><ele>422.6666666666667</ele><time>2026-04-30T10:08:24.001Z</time></trkpt><trkpt lat="37.675632596114326" lon="13.854120228942945"><ele>424.33333333333337</ele><time>2026-04-30T10:08:25.001Z</time></trkpt><trkpt lat="37.67567026053847" lon="13.853899300334001"><ele>426.0</ele><time>2026-04-30T10:08:26.001Z</time></trkpt><trkpt lat="37.675693674284304" lon="13.85367221821248"><ele>426.0</ele><time>2026-04-30T10:08:27.001Z</time></trkpt><trkpt lat="37.6757325834154" lon="13.85344544588773"><ele>426.0</ele><time>2026-04-30T10:08:28.001Z</time></trkpt><trkpt lat="37.67577764545849" lon="13.853219528821684"><ele>426.0</ele><time>2026-04-30T10:08:29.001Z</time></trkpt><trkpt lat="37.67581230941962" lon="13.853013456883335"><ele>426.0</ele><time>2026-04-30T10:08:30.001Z</time></trkpt><trkpt lat="37.675840575826875" lon="13.852806647019776"><ele>426.0</ele><time>2026-04-30T10:08:31.001Z</time></trkpt><trkpt lat="37.67583887666406" lon="13.852583094454713"><ele>426.0</ele><time>2026-04-30T10:08:32.001Z</time></trkpt><trkpt lat="37.67580101083144" lon="13.852348235823316"><ele>426.0</ele><time>2026-04-30T10:08:33.001Z</time></trkpt><trkpt lat="37.67575740000935" lon="13.852118144705395"><ele>426.0</ele><time>2026-04-30T10:08:34.001Z</time></trkpt><trkpt lat="37.675736980746514" lon="13.851891432740853"><ele>426.0</ele><time>2026-04-30T10:08:35.001Z</time></trkpt><trkpt lat="37.67574922354684" lon="13.851682019532927"><ele>427.0</ele><time>2026-04-30T10:08:36.001Z</time></trkpt><trkpt lat="37.67579488496876" lon="13.851489387911602"><ele>428.0</ele><time>2026-04-30T10:08:37.001Z</time></trkpt><trkpt lat="37.67585690350628" lon="13.851317924194152"><ele>429.0</ele><time>2026-04-30T10:08:38.001Z</time></trkpt><trkpt lat="37.67592138738524" lon="13.851158546097185"><ele>429.0</ele><time>2026-04-30T10:08:39.001Z</time></trkpt><trkpt lat="37.67595320404696" lon="13.850979714098523"><ele>429.0</ele><time>2026-04-30T10:08:40.001Z</time></trkpt><trkpt lat="37.67592986375016" lon="13.850786097126205"><ele>429.0</ele><time>2026-04-30T10:08:41.001Z</time></trkpt><trkpt lat="37.67585349286105" lon="13.850596104274478"><ele>428.33333333333337</ele><time>2026-04-30T10:08:42.001Z</time></trkpt><trkpt lat="37.67577868577014" lon="13.850427785941454"><ele>427.6666666666667</ele><time>2026-04-30T10:08:43.001Z</time></trkpt><trkpt lat="37.67574960518975" lon="13.850232584094085"><ele>427.0</ele><time>2026-04-30T10:08:44.001Z</time></trkpt><trkpt lat="37.675746651496006" lon="13.850020568888967"><ele>428.33333333333337</ele><time>2026-04-30T10:08:45.001Z</time></trkpt><trkpt lat="37.675753679887045" lon="13.849818196305641"><ele>429.66666666666663</ele><time>2026-04-30T10:08:46.001Z</time></trkpt><trkpt lat="37.67575673644874" lon="13.849621579081568"><ele>431.0</ele><time>2026-04-30T10:08:47.001Z</time></trkpt><trkpt lat="37.67575373452001" lon="13.849437536130774"><ele>432.0</ele><time>2026-04-30T10:08:48.001Z</time></trkpt><trkpt lat="37.675755046399004" lon="13.849251845273267"><ele>433.0</ele><time>2026-04-30T10:08:49.001Z</time></trkpt><trkpt lat="37.67576160214419" lon="13.849066356222483"><ele>434.0</ele><time>2026-04-30T10:08:50.001Z</time></trkpt><trkpt lat="37.675777248374665" lon="13.848870695675382"><ele>434.0</ele><time>2026-04-30T10:08:51.001Z</time></trkpt><trkpt lat="37.67580086660667" lon="13.848673553571452"><ele>434.0</ele><time>2026-04-30T10:08:52.001Z</time></trkpt><trkpt lat="37.67583796131412" lon="13.848482573008303"><ele>434.0</ele><time>2026-04-30T10:08:53.001Z</time></trkpt><trkpt lat="37.67589368590899" lon="13.84830037781859"><ele>433.5</ele><time>2026-04-30T10:08:54.001Z</time></trkpt><trkpt lat="37.67595416913044" lon="13.848124782602355"><ele>433.0</ele><time>2026-04-30T10:08:55.001Z</time></trkpt><trkpt lat="37.67601233524629" lon="13.847959994230596"><ele>432.5</ele><time>2026-04-30T10:08:56.001Z</time></trkpt><trkpt lat="37.676079051763686" lon="13.847810454353874"><ele>432.0</ele><time>2026-04-30T10:08:57.001Z</time></trkpt><trkpt lat="37.67617440912091" lon="13.847686741021063"><ele>434.33333333333337</ele><time>2026-04-30T10:08:58.001Z</time></trkpt><trkpt lat="37.67629988044499" lon="13.847579253492674"><ele>436.6666666666667</ele><time>2026-04-30T10:08:59.001Z</time></trkpt><trkpt lat="37.676423230280946" lon="13.847464014049146"><ele>439.0</ele><time>2026-04-30T10:09:00.001Z</time></trkpt><trkpt lat="37.676538848423206" lon="13.847343132832846"><ele>439.0</ele><time>2026-04-30T10:09:01.001Z</time></trkpt><trkpt lat="37.67664966890258" lon="13.847231922829424"><ele>439.0</ele><time>2026-04-30T10:09:02.001Z</time></trkpt><trkpt lat="37.67676925095363" lon="13.84714115103039"><ele>439.0</ele><time>2026-04-30T10:09:03.001Z</time></trkpt><trkpt lat="37.67690690755503" lon="13.847071713213824"><ele>439.0</ele><time>2026-04-30T10:09:04.001Z</time></trkpt><trkpt lat="37.67704605356134" lon="13.847024551279356"><ele>439.75</ele><time>2026-04-30T10:09:05.001Z</time></trkpt><trkpt lat="37.6771828951753" lon="13.84703652451014"><ele>440.5</ele><time>2026-04-30T10:09:06.001Z</time></trkpt><trkpt lat="37.67731499297281" lon="13.84701153411508"><ele>441.25</ele><time>2026-04-30T10:09:07.001Z</time></trkpt><trkpt lat="37.67743403221157" lon="13.847000888625244"><ele>442.0</ele><time>2026-04-30T10:09:08.001Z</time></trkpt><trkpt lat="37.67753806673555" lon="13.84696182737989"><ele>442.0</ele><time>2026-04-30T10:09:09.001Z</time></trkpt><trkpt lat="37.67762808638646" lon="13.846879591577263"><ele>442.0</ele><time>2026-04-30T10:09:10.001Z</time></trkpt><trkpt lat="37.67769338612678" lon="13.846747332381023"><ele>442.0</ele><time>2026-04-30T10:09:11.001Z</time></trkpt><trkpt lat="37.67771502758589" lon="13.846582708752953"><ele>442.0</ele><time>2026-04-30T10:09:12.001Z</time></trkpt><trkpt lat="37.677701528777206" lon="13.84644207730583"><ele>441.20000000000005</ele><time>2026-04-30T10:09:13.001Z</time></trkpt><trkpt lat="37.67768874296973" lon="13.846318693207097"><ele>440.40000000000003</ele><time>2026-04-30T10:09:14.001Z</time></trkpt><trkpt lat="37.67769580747134" lon="13.846191523713943"><ele>439.59999999999997</ele><time>2026-04-30T10:09:15.001Z</time></trkpt><trkpt lat="37.6777283150198" lon="13.84604718111644"><ele>438.79999999999995</ele><time>2026-04-30T10:09:16.001Z</time></trkpt><trkpt lat="37.67779592583454" lon="13.845918383491936"><ele>438.0</ele><time>2026-04-30T10:09:17.001Z</time></trkpt><trkpt lat="37.67790639552835" lon="13.845864854432692"><ele>438.0</ele><time>2026-04-30T10:09:18.001Z</time></trkpt><trkpt lat="37.678026335502196" lon="13.845813693783434"><ele>438.0</ele><time>2026-04-30T10:09:19.001Z</time></trkpt><trkpt lat="37.67815117026153" lon="13.84576417541303"><ele>438.0</ele><time>2026-04-30T10:09:20.001Z</time></trkpt><trkpt lat="37.67827548347839" lon="13.845696834285805"><ele>438.0</ele><time>2026-04-30T10:09:21.001Z</time></trkpt><trkpt lat="37.678411242434564" lon="13.845643679460684"><ele>438.0</ele><time>2026-04-30T10:09:22.001Z</time></trkpt><trkpt lat="37.6785538353408" lon="13.845582960056253"><ele>438.0</ele><time>2026-04-30T10:09:23.001Z</time></trkpt><trkpt lat="37.678698532143365" lon="13.845522226550893"><ele>438.0</ele><time>2026-04-30T10:09:24.001Z</time></trkpt><trkpt lat="37.678851881188805" lon="13.845456756670709"><ele>441.33333333333337</ele><time>2026-04-30T10:09:25.001Z</time></trkpt><trkpt lat="37.67901172677078" lon="13.845387984511373"><ele>444.6666666666667</ele><time>2026-04-30T10:09:26.001Z</time></trkpt><trkpt lat="37.67916926209404" lon="13.845320809554199"><ele>448.0</ele><time>2026-04-30T10:09:27.001Z</time></trkpt><trkpt lat="37.679323679376346" lon="13.84525840066723"><ele>448.33333333333337</ele><time>2026-04-30T10:09:28.001Z</time></trkpt><trkpt lat="37.67948026038768" lon="13.845201586904457"><ele>448.66666666666663</ele><time>2026-04-30T10:09:29.001Z</time></trkpt><trkpt lat="37.67964159098938" lon="13.845144472035125"><ele>449.0</ele><time>2026-04-30T10:09:30.001Z</time></trkpt><trkpt lat="37.67979757324832" lon="13.845098571543687"><ele>449.0</ele><time>2026-04-30T10:09:31.001Z</time></trkpt><trkpt lat="37.6799513225615" lon="13.845109417519035"><ele>449.0</ele><time>2026-04-30T10:09:32.001Z</time></trkpt><trkpt lat="37.68009303018073" lon="13.845159503140566"><ele>449.0</ele><time>2026-04-30T10:09:33.001Z</time></trkpt><trkpt lat="37.68024617033287" lon="13.84521085288919"><ele>448.66666666666663</ele><time>2026-04-30T10:09:34.001Z</time></trkpt><trkpt lat="37.6804029350092" lon="13.845216197960156"><ele>448.33333333333337</ele><time>2026-04-30T10:09:35.001Z</time></trkpt><trkpt lat="37.68055987725554" lon="13.845211547462975"><ele>448.0</ele><time>2026-04-30T10:09:36.001Z</time></trkpt><trkpt lat="37.68071352973657" lon="13.845171816913403"><ele>448.0</ele><time>2026-04-30T10:09:37.001Z</time></trkpt><trkpt lat="37.680868274583126" lon="13.84513651949642"><ele>448.0</ele><time>2026-04-30T10:09:38.001Z</time></trkpt><trkpt lat="37.68101282108317" lon="13.845046020601535"><ele>448.0</ele><time>2026-04-30T10:09:39.001Z</time></trkpt><trkpt lat="37.681152767005095" lon="13.844956558348887"><ele>447.6666666666667</ele><time>2026-04-30T10:09:40.001Z</time></trkpt><trkpt lat="37.68128268125629" lon="13.844861016591189"><ele>447.33333333333337</ele><time>2026-04-30T10:09:41.001Z</time></trkpt><trkpt lat="37.681412192246874" lon="13.84476537632158"><ele>447.0</ele><time>2026-04-30T10:09:42.001Z</time></trkpt><trkpt lat="37.681543710322366" lon="13.844673904120963"><ele>447.0</ele><time>2026-04-30T10:09:43.001Z</time></trkpt><trkpt lat="37.68167949655423" lon="13.844586947248983"><ele>447.0</ele><time>2026-04-30T10:09:44.001Z</time></trkpt><trkpt lat="37.681816973473126" lon="13.844499245824935"><ele>447.0</ele><time>2026-04-30T10:09:45.001Z</time></trkpt><trkpt lat="37.681966421055456" lon="13.844450097065959"><ele>446.0</ele><time>2026-04-30T10:09:46.001Z</time></trkpt><trkpt lat="37.68211043546624" lon="13.844411214833446"><ele>445.0</ele><time>2026-04-30T10:09:47.001Z</time></trkpt><trkpt lat="37.68224576583177" lon="13.844371096208382"><ele>444.0</ele><time>2026-04-30T10:09:48.001Z</time></trkpt><trkpt lat="37.68236235460613" lon="13.844332118527873"><ele>443.0</ele><time>2026-04-30T10:09:49.001Z</time></trkpt><trkpt lat="37.6824500295208" lon="13.844260901809728"><ele>443.0</ele><time>2026-04-30T10:09:50.001Z</time></trkpt><trkpt lat="37.68250424910161" lon="13.844136113713196"><ele>443.0</ele><time>2026-04-30T10:09:51.001Z</time></trkpt><trkpt lat="37.682523642600046" lon="13.843994160592688"><ele>443.0</ele><time>2026-04-30T10:09:52.001Z</time></trkpt><trkpt lat="37.68249034668585" lon="13.843832292886303"><ele>443.0</ele><time>2026-04-30T10:09:53.001Z</time></trkpt><trkpt lat="37.68243184044428" lon="13.843677248739485"><ele>443.0</ele><time>2026-04-30T10:09:54.001Z</time></trkpt><trkpt lat="37.682388194970905" lon="13.843526078977607"><ele>443.0</ele><time>2026-04-30T10:09:55.001Z</time></trkpt><trkpt lat="37.68237464850985" lon="13.843363332126865"><ele>443.0</ele><time>2026-04-30T10:09:56.001Z</time></trkpt><trkpt lat="37.68240089997707" lon="13.84319196647406"><ele>443.0</ele><time>2026-04-30T10:09:57.001Z</time></trkpt><trkpt lat="37.68245208282136" lon="13.84301483083802"><ele>444.0</ele><time>2026-04-30T10:09:58.001Z</time></trkpt><trkpt lat="37.68250087323994" lon="13.842834571129343"><ele>445.0</ele><time>2026-04-30T10:09:59.001Z</time></trkpt><trkpt lat="37.682535477817225" lon="13.842638801126512"><ele>446.0</ele><time>2026-04-30T10:10:00.001Z</time></trkpt><trkpt lat="37.682564809914915" lon="13.842434630747782"><ele>446.66666666666663</ele><time>2026-04-30T10:10:01.001Z</time></trkpt><trkpt lat="37.6825892201907" lon="13.842223630923321"><ele>447.33333333333337</ele><time>2026-04-30T10:10:02.001Z</time></trkpt><trkpt lat="37.68260693163076" lon="13.84200716205056"><ele>448.0</ele><time>2026-04-30T10:10:03.001Z</time></trkpt><trkpt lat="37.682627105598804" lon="13.841800272042015"><ele>447.6666666666667</ele><time>2026-04-30T10:10:04.001Z</time></trkpt><trkpt lat="37.68265418250863" lon="13.841601174993562"><ele>447.33333333333337</ele><time>2026-04-30T10:10:05.001Z</time></trkpt><trkpt lat="37.682690689176724" lon="13.8414028081873"><ele>447.0</ele><time>2026-04-30T10:10:06.001Z</time></trkpt><trkpt lat="37.68274081473009" lon="13.841214615098236"><ele>448.0</ele><time>2026-04-30T10:10:07.001Z</time></trkpt><trkpt lat="37.68281629914679" lon="13.841046061956149"><ele>449.0</ele><time>2026-04-30T10:10:08.001Z</time></trkpt><trkpt lat="37.682895532176026" lon="13.840889785078012"><ele>450.0</ele><time>2026-04-30T10:10:09.001Z</time></trkpt><trkpt lat="37.68293985748584" lon="13.840725664462171"><ele>451.0</ele><time>2026-04-30T10:10:10.001Z</time></trkpt><trkpt lat="37.68291635347824" lon="13.840549354437407"><ele>451.0</ele><time>2026-04-30T10:10:11.001Z</time></trkpt><trkpt lat="37.68284625559211" lon="13.840376556890556"><ele>451.0</ele><time>2026-04-30T10:10:12.001Z</time></trkpt><trkpt lat="37.682760262562006" lon="13.840219829657627"><ele>451.0</ele><time>2026-04-30T10:10:13.001Z</time></trkpt><trkpt lat="37.6826823179858" lon="13.840066650076933"><ele>451.0</ele><time>2026-04-30T10:10:14.001Z</time></trkpt><trkpt lat="37.68262470792838" lon="13.839914935483051"><ele>450.5</ele><time>2026-04-30T10:10:15.001Z</time></trkpt><trkpt lat="37.68259418110805" lon="13.839755907225177"><ele>450.0</ele><time>2026-04-30T10:10:16.001Z</time></trkpt><trkpt lat="37.68260399481132" lon="13.839578342539173"><ele>449.5</ele><time>2026-04-30T10:10:17.001Z</time></trkpt><trkpt lat="37.68265313134538" lon="13.839401590860826"><ele>449.0</ele><time>2026-04-30T10:10:18.001Z</time></trkpt><trkpt lat="37.682723201684716" lon="13.839229604781332"><ele>449.0</ele><time>2026-04-30T10:10:19.001Z</time></trkpt><trkpt lat="37.68275946818414" lon="13.839048796329397"><ele>449.0</ele><time>2026-04-30T10:10:20.001Z</time></trkpt><trkpt lat="37.682758327362045" lon="13.838861809897455"><ele>449.0</ele><time>2026-04-30T10:10:21.001Z</time></trkpt><trkpt lat="37.68274957037525" lon="13.838682758739976"><ele>449.0</ele><time>2026-04-30T10:10:22.001Z</time></trkpt><trkpt lat="37.6827495834501" lon="13.838503489875851"><ele>449.25</ele><time>2026-04-30T10:10:23.001Z</time></trkpt><trkpt lat="37.68275958334947" lon="13.838324697784254"><ele>449.5</ele><time>2026-04-30T10:10:24.001Z</time></trkpt><trkpt lat="37.682776532459044" lon="13.838160368731518"><ele>449.75</ele><time>2026-04-30T10:10:25.001Z</time></trkpt><trkpt lat="37.68279908287418" lon="13.83800413778857"><ele>450.0</ele><time>2026-04-30T10:10:26.001Z</time></trkpt><trkpt lat="37.682830351652385" lon="13.837841846963627"><ele>452.5</ele><time>2026-04-30T10:10:27.001Z</time></trkpt><trkpt lat="37.68286332325396" lon="13.837673363796055"><ele>455.0</ele><time>2026-04-30T10:10:28.001Z</time></trkpt><trkpt lat="37.682891689612404" lon="13.8375034594806"><ele>457.5</ele><time>2026-04-30T10:10:29.001Z</time></trkpt><trkpt lat="37.6829178107228" lon="13.837328616636167"><ele>460.0</ele><time>2026-04-30T10:10:30.001Z</time></trkpt><trkpt lat="37.68294882605698" lon="13.837163761854702"><ele>460.0</ele><time>2026-04-30T10:10:31.001Z</time></trkpt><trkpt lat="37.682986267115474" lon="13.837013218341239"><ele>460.0</ele><time>2026-04-30T10:10:32.001Z</time></trkpt><trkpt lat="37.68303351338434" lon="13.8368712533668"><ele>460.0</ele><time>2026-04-30T10:10:33.001Z</time></trkpt><trkpt lat="37.68309152702229" lon="13.8367344717883"><ele>460.0</ele><time>2026-04-30T10:10:34.001Z</time></trkpt><trkpt lat="37.6831541652086" lon="13.836600070192217"><ele>459.75</ele><time>2026-04-30T10:10:35.001Z</time></trkpt><trkpt lat="37.683221191213384" lon="13.836455188612838"><ele>459.5</ele><time>2026-04-30T10:10:36.001Z</time></trkpt><trkpt lat="37.68328748146268" lon="13.836297365185333"><ele>459.25</ele><time>2026-04-30T10:10:37.001Z</time></trkpt><trkpt lat="37.68335432705529" lon="13.836133707221798"><ele>459.0</ele><time>2026-04-30T10:10:38.001Z</time></trkpt><trkpt lat="37.68342311753097" lon="13.835970180718297"><ele>459.25</ele><time>2026-04-30T10:10:39.001Z</time></trkpt><trkpt lat="37.683490450730076" lon="13.835802777711994"><ele>459.5</ele><time>2026-04-30T10:10:40.001Z</time></trkpt><trkpt lat="37.6835595932362" lon="13.835632214520219"><ele>459.75</ele><time>2026-04-30T10:10:41.001Z</time></trkpt><trkpt lat="37.6836210490843" lon="13.835474612650692"><ele>460.0</ele><time>2026-04-30T10:10:42.001Z</time></trkpt><trkpt lat="37.683685709492714" lon="13.835325552126248"><ele>461.0</ele><time>2026-04-30T10:10:43.001Z</time></trkpt><trkpt lat="37.68375538594202" lon="13.835174868123358"><ele>462.0</ele><time>2026-04-30T10:10:44.001Z</time></trkpt><trkpt lat="37.6838265731142" lon="13.835026723696606"><ele>463.0</ele><time>2026-04-30T10:10:45.001Z</time></trkpt><trkpt lat="37.68389926822932" lon="13.83488387113304"><ele>464.0</ele><time>2026-04-30T10:10:46.001Z</time></trkpt><trkpt lat="37.68397100430591" lon="13.834758807858154"><ele>464.0</ele><time>2026-04-30T10:10:47.001Z</time></trkpt><trkpt lat="37.68403293712038" lon="13.83464832893025"><ele>464.0</ele><time>2026-04-30T10:10:48.001Z</time></trkpt><trkpt lat="37.684084564004436" lon="13.834545225023263"><ele>464.0</ele><time>2026-04-30T10:10:49.001Z</time></trkpt><trkpt lat="37.684132312140484" lon="13.834445456250345"><ele>464.0</ele><time>2026-04-30T10:10:50.001Z</time></trkpt><trkpt lat="37.684174211203626" lon="13.834347839948734"><ele>464.0</ele><time>2026-04-30T10:10:51.001Z</time></trkpt><trkpt lat="37.68421183892583" lon="13.83426328066106"><ele>463.66666666666663</ele><time>2026-04-30T10:10:52.001Z</time></trkpt><trkpt lat="37.68426707263959" lon="13.834157765100967"><ele>463.3333333333333</ele><time>2026-04-30T10:10:54.001Z</time></trkpt><trkpt lat="37.68431459676348" lon="13.834057997931357"><ele>463.0</ele><time>2026-04-30T10:10:56.001Z</time></trkpt><trkpt lat="37.6843566425734" lon="13.833971848865993"><ele>462.66666666666663</ele><time>2026-04-30T10:10:58.001Z</time></trkpt><trkpt lat="37.68439494409491" lon="13.833908310738524"><ele>462.3333333333333</ele><time>2026-04-30T10:11:00.001Z</time></trkpt><trkpt lat="37.68443633314386" lon="13.834040762667247"><ele>462.0</ele><time>2026-04-30T10:11:05.001Z</time></trkpt><trkpt lat="37.6844363331467" lon="13.834145499139181"><ele>462.0</ele><time>2026-04-30T10:11:06.001Z</time></trkpt><trkpt lat="37.68442724243414" lon="13.834247689630828"><ele>462.00000000000006</ele><time>2026-04-30T10:11:07.001Z</time></trkpt><trkpt lat="37.68443187319402" lon="13.83436751745277"><ele>462.00000000000006</ele><time>2026-04-30T10:11:08.001Z</time></trkpt><trkpt lat="37.68446996390275" lon="13.834506532100594"><ele>462.0</ele><time>2026-04-30T10:11:09.001Z</time></trkpt><trkpt lat="37.6845240903571" lon="13.83463783989146"><ele>462.0</ele><time>2026-04-30T10:11:10.001Z</time></trkpt><trkpt lat="37.684560015615446" lon="13.834745869920223"><ele>464.8</ele><time>2026-04-30T10:11:11.001Z</time></trkpt><trkpt lat="37.68458635904698" lon="13.834844133777317"><ele>467.6</ele><time>2026-04-30T10:11:12.001Z</time></trkpt><trkpt lat="37.68460220771608" lon="13.834955389344172"><ele>470.40000000000003</ele><time>2026-04-30T10:11:13.001Z</time></trkpt><trkpt lat="37.684601397996225" lon="13.835091679474663"><ele>473.20000000000005</ele><time>2026-04-30T10:11:14.001Z</time></trkpt><trkpt lat="37.6846000810888" lon="13.83527081739787"><ele>476.0</ele><time>2026-04-30T10:11:15.001Z</time></trkpt><trkpt lat="37.68459292512275" lon="13.835484119003592"><ele>478.0</ele><time>2026-04-30T10:11:16.001Z</time></trkpt><trkpt lat="37.6845842755431" lon="13.835695383525348"><ele>480.0</ele><time>2026-04-30T10:11:17.001Z</time></trkpt><trkpt lat="37.684560767457064" lon="13.835885623977438"><ele>482.0</ele><time>2026-04-30T10:11:18.001Z</time></trkpt><trkpt lat="37.68453526479709" lon="13.83604885943687"><ele>482.5</ele><time>2026-04-30T10:11:19.001Z</time></trkpt><trkpt lat="37.6845156052089" lon="13.836200137558178"><ele>483.0</ele><time>2026-04-30T10:11:20.001Z</time></trkpt><trkpt lat="37.684493826930485" lon="13.836362723930497"><ele>483.5</ele><time>2026-04-30T10:11:21.001Z</time></trkpt><trkpt lat="37.68451110306561" lon="13.836553587814818"><ele>484.0</ele><time>2026-04-30T10:11:22.001Z</time></trkpt><trkpt lat="37.68455144616109" lon="13.8367489694909"><ele>484.75</ele><time>2026-04-30T10:11:23.001Z</time></trkpt><trkpt lat="37.684591589140844" lon="13.836933349029117"><ele>485.5</ele><time>2026-04-30T10:11:24.001Z</time></trkpt><trkpt lat="37.6846249949968" lon="13.837102359840744"><ele>486.25</ele><time>2026-04-30T10:11:25.001Z</time></trkpt><trkpt lat="37.6846555764856" lon="13.837281329287007"><ele>487.0</ele><time>2026-04-30T10:11:26.001Z</time></trkpt><trkpt lat="37.68468243705991" lon="13.837471760436758"><ele>487.6666666666667</ele><time>2026-04-30T10:11:27.001Z</time></trkpt><trkpt lat="37.68471194674023" lon="13.837673979908296"><ele>488.33333333333337</ele><time>2026-04-30T10:11:28.001Z</time></trkpt><trkpt lat="37.684769117854245" lon="13.837878718584935"><ele>489.0</ele><time>2026-04-30T10:11:29.001Z</time></trkpt><trkpt lat="37.684839658650525" lon="13.838074687169785"><ele>489.0</ele><time>2026-04-30T10:11:30.001Z</time></trkpt><trkpt lat="37.68490785786739" lon="13.838238690645658"><ele>489.0</ele><time>2026-04-30T10:11:31.001Z</time></trkpt><trkpt lat="37.68497699347199" lon="13.83836973766983"><ele>489.0</ele><time>2026-04-30T10:11:32.001Z</time></trkpt><trkpt lat="37.685076186749626" lon="13.838476960115146"><ele>489.0</ele><time>2026-04-30T10:11:33.001Z</time></trkpt><trkpt lat="37.685205494132475" lon="13.838575400693466"><ele>490.75</ele><time>2026-04-30T10:11:34.001Z</time></trkpt><trkpt lat="37.685333358696305" lon="13.838668108109834"><ele>492.5</ele><time>2026-04-30T10:11:35.001Z</time></trkpt><trkpt lat="37.68545858738435" lon="13.838740351270335"><ele>494.25</ele><time>2026-04-30T10:11:36.001Z</time></trkpt><trkpt lat="37.68557952949535" lon="13.838811844218508"><ele>496.0</ele><time>2026-04-30T10:11:37.001Z</time></trkpt><trkpt lat="37.68569259177822" lon="13.8388821780892"><ele>496.0</ele><time>2026-04-30T10:11:38.001Z</time></trkpt><trkpt lat="37.685771954118366" lon="13.838968303002689"><ele>496.0</ele><time>2026-04-30T10:11:39.001Z</time></trkpt><trkpt lat="37.685832987960325" lon="13.839057248634255"><ele>496.0</ele><time>2026-04-30T10:11:40.001Z</time></trkpt><trkpt lat="37.68584298109028" lon="13.839138920686763"><ele>496.0</ele><time>2026-04-30T10:11:41.001Z</time></trkpt><trkpt lat="37.68587081629713" lon="13.83927196200916"><ele>496.0</ele><time>2026-04-30T10:11:42.001Z</time></trkpt><trkpt lat="37.68591757851016" lon="13.839446467982448"><ele>495.0</ele><time>2026-04-30T10:11:43.001Z</time></trkpt><trkpt lat="37.68597954155175" lon="13.839618696233691"><ele>494.0</ele><time>2026-04-30T10:11:44.001Z</time></trkpt><trkpt lat="37.68604581184077" lon="13.839759911860826"><ele>493.0</ele><time>2026-04-30T10:11:45.001Z</time></trkpt><trkpt lat="37.686115964609314" lon="13.83986302490087"><ele>492.0</ele><time>2026-04-30T10:11:46.001Z</time></trkpt><trkpt lat="37.68618029704795" lon="13.83994907708674"><ele>492.75</ele><time>2026-04-30T10:11:47.001Z</time></trkpt><trkpt lat="37.68626153499027" lon="13.840026874556667"><ele>493.5</ele><time>2026-04-30T10:11:48.001Z</time></trkpt><trkpt lat="37.686327346043996" lon="13.840140144038395"><ele>494.25</ele><time>2026-04-30T10:11:49.001Z</time></trkpt><trkpt lat="37.68641677254724" lon="13.840257216993676"><ele>495.0</ele><time>2026-04-30T10:11:50.001Z</time></trkpt><trkpt lat="37.6864972558251" lon="13.840362582007634"><ele>495.0</ele><time>2026-04-30T10:11:51.001Z</time></trkpt><trkpt lat="37.686572046143596" lon="13.84045930328901"><ele>495.0</ele><time>2026-04-30T10:11:52.001Z</time></trkpt><trkpt lat="37.68664019465085" lon="13.840549171786725"><ele>495.0</ele><time>2026-04-30T10:11:53.001Z</time></trkpt><trkpt lat="37.68670041290387" lon="13.840638080350487"><ele>495.0</ele><time>2026-04-30T10:11:54.001Z</time></trkpt><trkpt lat="37.686752806140866" lon="13.840727792988018"><ele>495.0</ele><time>2026-04-30T10:11:55.001Z</time></trkpt><trkpt lat="37.686801039557054" lon="13.840826205984232"><ele>495.0</ele><time>2026-04-30T10:11:56.001Z</time></trkpt><trkpt lat="37.686833341341774" lon="13.840944869107869"><ele>495.0</ele><time>2026-04-30T10:11:57.001Z</time></trkpt><trkpt lat="37.686865165693376" lon="13.841086842669464"><ele>495.0</ele><time>2026-04-30T10:11:58.001Z</time></trkpt><trkpt lat="37.68689103059507" lon="13.841225523218835"><ele>495.0</ele><time>2026-04-30T10:11:59.001Z</time></trkpt><trkpt lat="37.686909644602416" lon="13.841363314362754"><ele>495.0</ele><time>2026-04-30T10:12:00.001Z</time></trkpt><trkpt lat="37.68691732125161" lon="13.841501468428932"><ele>494.4</ele><time>2026-04-30T10:12:01.001Z</time></trkpt><trkpt lat="37.686916732683414" lon="13.841644044268548"><ele>493.8</ele><time>2026-04-30T10:12:02.001Z</time></trkpt><trkpt lat="37.68689797335395" lon="13.84177918147445"><ele>493.20000000000005</ele><time>2026-04-30T10:12:03.001Z</time></trkpt><trkpt lat="37.68688017247882" lon="13.841915335934416"><ele>492.6</ele><time>2026-04-30T10:12:04.001Z</time></trkpt><trkpt lat="37.68687076244076" lon="13.842039557783185"><ele>492.0</ele><time>2026-04-30T10:12:05.001Z</time></trkpt><trkpt lat="37.68687932364748" lon="13.842165352507307"><ele>488.25</ele><time>2026-04-30T10:12:06.001Z</time></trkpt><trkpt lat="37.68693048671798" lon="13.842315360811396"><ele>484.5</ele><time>2026-04-30T10:12:07.001Z</time></trkpt><trkpt lat="37.68702195943489" lon="13.8424341827935"><ele>480.75</ele><time>2026-04-30T10:12:08.001Z</time></trkpt><trkpt lat="37.68709342144485" lon="13.842544663028871"><ele>477.0</ele><time>2026-04-30T10:12:09.001Z</time></trkpt><trkpt lat="37.687157588577946" lon="13.842657807842919"><ele>477.0</ele><time>2026-04-30T10:12:10.001Z</time></trkpt><trkpt lat="37.68721611828189" lon="13.842756862500812"><ele>477.0</ele><time>2026-04-30T10:12:11.001Z</time></trkpt><trkpt lat="37.687257356978456" lon="13.842852978152186"><ele>477.0</ele><time>2026-04-30T10:12:12.001Z</time></trkpt><trkpt lat="37.687270431274285" lon="13.842948619983998"><ele>477.0</ele><time>2026-04-30T10:12:13.001Z</time></trkpt><trkpt lat="37.687266607609594" lon="13.843046217827746"><ele>477.0</ele><time>2026-04-30T10:12:14.001Z</time></trkpt><trkpt lat="37.68726058361483" lon="13.84316306878995"><ele>477.0</ele><time>2026-04-30T10:12:15.001Z</time></trkpt><trkpt lat="37.68725763320187" lon="13.843306170242602"><ele>477.0</ele><time>2026-04-30T10:12:16.001Z</time></trkpt><trkpt lat="37.68726168075714" lon="13.843454543770553"><ele>477.00000000000006</ele><time>2026-04-30T10:12:17.001Z</time></trkpt><trkpt lat="37.68726919859574" lon="13.843597506776911"><ele>477.00000000000006</ele><time>2026-04-30T10:12:18.001Z</time></trkpt><trkpt lat="37.687277828202" lon="13.84373361748156"><ele>477.0</ele><time>2026-04-30T10:12:19.001Z</time></trkpt><trkpt lat="37.68728609179521" lon="13.84386395516305"><ele>477.0</ele><time>2026-04-30T10:12:20.001Z</time></trkpt><trkpt lat="37.68729736506079" lon="13.843978584922642"><ele>477.0</ele><time>2026-04-30T10:12:21.001Z</time></trkpt><trkpt lat="37.68733146959923" lon="13.844085960547824"><ele>477.0</ele><time>2026-04-30T10:12:22.001Z</time></trkpt><trkpt lat="37.68741809895988" lon="13.84417883447807"><ele>477.0</ele><time>2026-04-30T10:12:23.001Z</time></trkpt><trkpt lat="37.68754286250391" lon="13.844221858973153"><ele>477.0</ele><time>2026-04-30T10:12:24.001Z</time></trkpt><trkpt lat="37.68765974537789" lon="13.84426292824564"><ele>476.0</ele><time>2026-04-30T10:12:25.001Z</time></trkpt><trkpt lat="37.687769565866425" lon="13.844312716314205"><ele>475.0</ele><time>2026-04-30T10:12:26.001Z</time></trkpt><trkpt lat="37.68788100189511" lon="13.844333441213069"><ele>474.0</ele><time>2026-04-30T10:12:27.001Z</time></trkpt><trkpt lat="37.68799411803258" lon="13.844335474780229"><ele>473.0</ele><time>2026-04-30T10:12:28.001Z</time></trkpt><trkpt lat="37.68810378186834" lon="13.844295829457945"><ele>471.75</ele><time>2026-04-30T10:12:29.001Z</time></trkpt><trkpt lat="37.68821361892707" lon="13.844266669341973"><ele>470.5</ele><time>2026-04-30T10:12:30.001Z</time></trkpt><trkpt lat="37.68832303853942" lon="13.844230493442657"><ele>469.25</ele><time>2026-04-30T10:12:31.001Z</time></trkpt><trkpt lat="37.68843332469152" lon="13.84419764478251"><ele>468.0</ele><time>2026-04-30T10:12:32.001Z</time></trkpt><trkpt lat="37.688552265349315" lon="13.844162017955194"><ele>467.0</ele><time>2026-04-30T10:12:33.001Z</time></trkpt><trkpt lat="37.68867336599609" lon="13.84412708016391"><ele>466.0</ele><time>2026-04-30T10:12:34.001Z</time></trkpt><trkpt lat="37.68879560708321" lon="13.844095238640149"><ele>465.0</ele><time>2026-04-30T10:12:35.001Z</time></trkpt><trkpt lat="37.688923728004106" lon="13.844064180146647"><ele>464.0</ele><time>2026-04-30T10:12:36.001Z</time></trkpt><trkpt lat="37.689051580552295" lon="13.844062848184173"><ele>464.0</ele><time>2026-04-30T10:12:37.001Z</time></trkpt><trkpt lat="37.6891750776468" lon="13.844045766541994"><ele>464.0</ele><time>2026-04-30T10:12:38.001Z</time></trkpt><trkpt lat="37.689296376979975" lon="13.844028357193572"><ele>464.0</ele><time>2026-04-30T10:12:39.001Z</time></trkpt><trkpt lat="37.68941497477642" lon="13.844001592728343"><ele>464.0</ele><time>2026-04-30T10:12:40.001Z</time></trkpt><trkpt lat="37.68952751933412" lon="13.843946884430741"><ele>463.0</ele><time>2026-04-30T10:12:41.001Z</time></trkpt><trkpt lat="37.68964126139742" lon="13.843902248698349"><ele>462.0</ele><time>2026-04-30T10:12:42.001Z</time></trkpt><trkpt lat="37.689756271907484" lon="13.843858786412042"><ele>461.0</ele><time>2026-04-30T10:12:43.001Z</time></trkpt><trkpt lat="37.689884312561674" lon="13.843821118567474"><ele>460.0</ele><time>2026-04-30T10:12:44.001Z</time></trkpt><trkpt lat="37.69000989671153" lon="13.84378970047877"><ele>460.0</ele><time>2026-04-30T10:12:45.001Z</time></trkpt><trkpt lat="37.69012714910205" lon="13.843796881866332"><ele>460.0</ele><time>2026-04-30T10:12:46.001Z</time></trkpt><trkpt lat="37.69023894216509" lon="13.843812427793749"><ele>460.0</ele><time>2026-04-30T10:12:47.001Z</time></trkpt><trkpt lat="37.69034709738153" lon="13.84385980012483"><ele>460.0</ele><time>2026-04-30T10:12:48.001Z</time></trkpt><trkpt lat="37.69044018774226" lon="13.843933641437557"><ele>457.75</ele><time>2026-04-30T10:12:49.001Z</time></trkpt><trkpt lat="37.69052374918561" lon="13.844033287756474"><ele>455.5</ele><time>2026-04-30T10:12:50.001Z</time></trkpt><trkpt lat="37.69057069403794" lon="13.844133303403526"><ele>453.25</ele><time>2026-04-30T10:12:51.001Z</time></trkpt><trkpt lat="37.690620043445904" lon="13.844246769739485"><ele>451.0</ele><time>2026-04-30T10:12:53.001Z</time></trkpt><trkpt lat="37.69080548345858" lon="13.844119871149896"><ele>451.0</ele><time>2026-04-30T10:12:55.001Z</time></trkpt><trkpt lat="37.6908950112227" lon="13.84401983009815"><ele>451.0</ele><time>2026-04-30T10:12:57.001Z</time></trkpt><trkpt lat="37.69095416210666" lon="13.843940376391572"><ele>451.0</ele><time>2026-04-30T10:12:58.001Z</time></trkpt><trkpt lat="37.69101606288869" lon="13.843837654141964"><ele>451.0</ele><time>2026-04-30T10:12:59.001Z</time></trkpt><trkpt lat="37.691089491049176" lon="13.843722818279755"><ele>451.0</ele><time>2026-04-30T10:13:00.001Z</time></trkpt><trkpt lat="37.69118141157485" lon="13.843590212930915"><ele>449.75</ele><time>2026-04-30T10:13:01.001Z</time></trkpt><trkpt lat="37.69127269298078" lon="13.843452617180414"><ele>448.5</ele><time>2026-04-30T10:13:02.001Z</time></trkpt><trkpt lat="37.69137912771095" lon="13.843313426802798"><ele>447.25</ele><time>2026-04-30T10:13:03.001Z</time></trkpt><trkpt lat="37.69149749585319" lon="13.843189019892488"><ele>446.0</ele><time>2026-04-30T10:13:04.001Z</time></trkpt><trkpt lat="37.69161363681115" lon="13.84309344741957"><ele>446.0</ele><time>2026-04-30T10:13:05.001Z</time></trkpt><trkpt lat="37.69173494033483" lon="13.843051022232332"><ele>446.0</ele><time>2026-04-30T10:13:06.001Z</time></trkpt><trkpt lat="37.69184914608031" lon="13.843033570102119"><ele>446.0</ele><time>2026-04-30T10:13:07.001Z</time></trkpt><trkpt lat="37.691967642213015" lon="13.843041570305603"><ele>446.0</ele><time>2026-04-30T10:13:08.001Z</time></trkpt><trkpt lat="37.692086770114926" lon="13.843075282254405"><ele>445.25</ele><time>2026-04-30T10:13:09.001Z</time></trkpt><trkpt lat="37.69221094143481" lon="13.843122376911127"><ele>444.5</ele><time>2026-04-30T10:13:10.001Z</time></trkpt><trkpt lat="37.69232173728093" lon="13.84317129921323"><ele>443.75</ele><time>2026-04-30T10:13:11.001Z</time></trkpt><trkpt lat="37.69242406717691" lon="13.84321750234539"><ele>443.0</ele><time>2026-04-30T10:13:12.001Z</time></trkpt><trkpt lat="37.69252721854067" lon="13.843262513801552"><ele>443.0</ele><time>2026-04-30T10:13:13.001Z</time></trkpt><trkpt lat="37.69263473299379" lon="13.843308924003177"><ele>443.0</ele><time>2026-04-30T10:13:14.001Z</time></trkpt><trkpt lat="37.69275539872384" lon="13.84336824134732"><ele>443.0</ele><time>2026-04-30T10:13:15.001Z</time></trkpt><trkpt lat="37.69287502841372" lon="13.84343923135103"><ele>443.0</ele><time>2026-04-30T10:13:16.001Z</time></trkpt><trkpt lat="37.692977126926785" lon="13.843532334688934"><ele>442.75</ele><time>2026-04-30T10:13:17.001Z</time></trkpt><trkpt lat="37.69306808455763" lon="13.843651143896043"><ele>442.5</ele><time>2026-04-30T10:13:18.001Z</time></trkpt><trkpt lat="37.69314891689696" lon="13.843783590982587"><ele>442.25</ele><time>2026-04-30T10:13:19.001Z</time></trkpt><trkpt lat="37.69323548995269" lon="13.843927011936188"><ele>442.0</ele><time>2026-04-30T10:13:20.001Z</time></trkpt><trkpt lat="37.693331597105896" lon="13.844081673837083"><ele>442.0</ele><time>2026-04-30T10:13:21.001Z</time></trkpt><trkpt lat="37.69343095348459" lon="13.844243207258977"><ele>442.0</ele><time>2026-04-30T10:13:22.001Z</time></trkpt><trkpt lat="37.69352579937599" lon="13.844398698698116"><ele>442.0</ele><time>2026-04-30T10:13:23.001Z</time></trkpt><trkpt lat="37.69362068056451" lon="13.844551707022896"><ele>445.33333333333337</ele><time>2026-04-30T10:13:24.001Z</time></trkpt><trkpt lat="37.69371738647035" lon="13.844710072359895"><ele>448.66666666666663</ele><time>2026-04-30T10:13:25.001Z</time></trkpt><trkpt lat="37.69381443802451" lon="13.844873276113175"><ele>452.0</ele><time>2026-04-30T10:13:26.001Z</time></trkpt><trkpt lat="37.69391097976355" lon="13.845036875067478"><ele>451.0</ele><time>2026-04-30T10:13:27.001Z</time></trkpt><trkpt lat="37.694012144998176" lon="13.845208308999862"><ele>450.0</ele><time>2026-04-30T10:13:28.001Z</time></trkpt><trkpt lat="37.69411251257593" lon="13.84537839118327"><ele>449.0</ele><time>2026-04-30T10:13:29.001Z</time></trkpt><trkpt lat="37.694200523164675" lon="13.845530263965887"><ele>449.0</ele><time>2026-04-30T10:13:30.001Z</time></trkpt><trkpt lat="37.694279695551835" lon="13.845671455416381"><ele>449.0</ele><time>2026-04-30T10:13:31.001Z</time></trkpt><trkpt lat="37.69435205061469" lon="13.845805710818054"><ele>449.0</ele><time>2026-04-30T10:13:32.001Z</time></trkpt><trkpt lat="37.69442860865494" lon="13.845936216856215"><ele>449.0</ele><time>2026-04-30T10:13:33.001Z</time></trkpt><trkpt lat="37.69451425720133" lon="13.846060002706729"><ele>448.25</ele><time>2026-04-30T10:13:34.001Z</time></trkpt><trkpt lat="37.694607275294715" lon="13.846155776017948"><ele>447.5</ele><time>2026-04-30T10:13:35.001Z</time></trkpt><trkpt lat="37.694732394551274" lon="13.84619741072083"><ele>446.75</ele><time>2026-04-30T10:13:36.001Z</time></trkpt><trkpt lat="37.69486354292223" lon="13.846206956408334"><ele>446.0</ele><time>2026-04-30T10:13:37.001Z</time></trkpt><trkpt lat="37.6950009186319" lon="13.846206131585554"><ele>446.0</ele><time>2026-04-30T10:13:38.001Z</time></trkpt><trkpt lat="37.69514856373167" lon="13.84616315327084"><ele>446.0</ele><time>2026-04-30T10:13:39.001Z</time></trkpt><trkpt lat="37.69529152609506" lon="13.84610357453596"><ele>446.0</ele><time>2026-04-30T10:13:40.001Z</time></trkpt><trkpt lat="37.69543362190237" lon="13.846046690735157"><ele>446.5</ele><time>2026-04-30T10:13:41.001Z</time></trkpt><trkpt lat="37.69557450223109" lon="13.845999354614275"><ele>447.0</ele><time>2026-04-30T10:13:42.001Z</time></trkpt><trkpt lat="37.695704683164415" lon="13.845958991753488"><ele>447.5</ele><time>2026-04-30T10:13:43.001Z</time></trkpt><trkpt lat="37.69582647504119" lon="13.845915761226905"><ele>448.0</ele><time>2026-04-30T10:13:44.001Z</time></trkpt><trkpt lat="37.695952256566386" lon="13.84587396462889"><ele>449.0</ele><time>2026-04-30T10:13:45.001Z</time></trkpt><trkpt lat="37.69608024801966" lon="13.845832025850587"><ele>450.0</ele><time>2026-04-30T10:13:46.001Z</time></trkpt><trkpt lat="37.696211942855896" lon="13.845787090057609"><ele>451.0</ele><time>2026-04-30T10:13:47.001Z</time></trkpt><trkpt lat="37.696353295673866" lon="13.845731663220665"><ele>452.0</ele><time>2026-04-30T10:13:48.001Z</time></trkpt><trkpt lat="37.69649954502784" lon="13.845660575019469"><ele>452.0</ele><time>2026-04-30T10:13:49.001Z</time></trkpt><trkpt lat="37.69664685312027" lon="13.845576070963077"><ele>452.0</ele><time>2026-04-30T10:13:50.001Z</time></trkpt><trkpt lat="37.69679002967443" lon="13.845463389579256"><ele>452.0</ele><time>2026-04-30T10:13:51.001Z</time></trkpt><trkpt lat="37.69692540543135" lon="13.84533673519838"><ele>451.66666666666663</ele><time>2026-04-30T10:13:52.001Z</time></trkpt><trkpt lat="37.69706239397957" lon="13.845193553521927"><ele>451.33333333333337</ele><time>2026-04-30T10:13:53.001Z</time></trkpt><trkpt lat="37.69719275241475" lon="13.84505251740061"><ele>451.0</ele><time>2026-04-30T10:13:54.001Z</time></trkpt><trkpt lat="37.69731779286681" lon="13.84490697095765"><ele>452.33333333333337</ele><time>2026-04-30T10:13:55.001Z</time></trkpt><trkpt lat="37.697443725755015" lon="13.84475219715913"><ele>453.66666666666663</ele><time>2026-04-30T10:13:56.001Z</time></trkpt><trkpt lat="37.69757036716187" lon="13.844590505095331"><ele>455.0</ele><time>2026-04-30T10:13:57.001Z</time></trkpt><trkpt lat="37.697700394218984" lon="13.84442180879657"><ele>456.0</ele><time>2026-04-30T10:13:58.001Z</time></trkpt><trkpt lat="37.69783183307044" lon="13.844254871136398"><ele>457.0</ele><time>2026-04-30T10:13:59.001Z</time></trkpt><trkpt lat="37.69796029633849" lon="13.844106528825114"><ele>458.0</ele><time>2026-04-30T10:14:00.001Z</time></trkpt><trkpt lat="37.698092462487296" lon="13.843972834592213"><ele>458.0</ele><time>2026-04-30T10:14:01.001Z</time></trkpt><trkpt lat="37.698221935691855" lon="13.843847610500342"><ele>458.0</ele><time>2026-04-30T10:14:02.001Z</time></trkpt><trkpt lat="37.69833774510111" lon="13.843744776042147"><ele>458.0</ele><time>2026-04-30T10:14:03.001Z</time></trkpt><trkpt lat="37.69844034112995" lon="13.843651441997718"><ele>458.0</ele><time>2026-04-30T10:14:04.001Z</time></trkpt><trkpt lat="37.69853593828155" lon="13.84356839294668"><ele>457.8333333333333</ele><time>2026-04-30T10:14:05.001Z</time></trkpt><trkpt lat="37.698621924318424" lon="13.843496104954937"><ele>457.66666666666663</ele><time>2026-04-30T10:14:06.001Z</time></trkpt><trkpt lat="37.69869428970761" lon="13.843441983055252"><ele>457.5</ele><time>2026-04-30T10:14:07.001Z</time></trkpt><trkpt lat="37.69875280966749" lon="13.843400695874486"><ele>457.33333333333337</ele><time>2026-04-30T10:14:08.001Z</time></trkpt><trkpt lat="37.698812259328726" lon="13.843371656478308"><ele>457.1666666666667</ele><time>2026-04-30T10:14:09.001Z</time></trkpt><trkpt lat="37.69887966694291" lon="13.843347483174872"><ele>457.0</ele><time>2026-04-30T10:14:10.001Z</time></trkpt><trkpt lat="37.69895559301522" lon="13.843332877223618"><ele>457.40000000000003</ele><time>2026-04-30T10:14:11.001Z</time></trkpt><trkpt lat="37.699047453749166" lon="13.843330819761594"><ele>457.80000000000007</ele><time>2026-04-30T10:14:12.001Z</time></trkpt><trkpt lat="37.69914841781985" lon="13.843354619753157"><ele>458.2</ele><time>2026-04-30T10:14:13.001Z</time></trkpt><trkpt lat="37.69925172012019" lon="13.843381854121882"><ele>458.6</ele><time>2026-04-30T10:14:14.001Z</time></trkpt><trkpt lat="37.69934668947392" lon="13.843444128599698"><ele>459.0</ele><time>2026-04-30T10:14:15.001Z</time></trkpt><trkpt lat="37.69943649899769" lon="13.843528145810998"><ele>461.2</ele><time>2026-04-30T10:14:16.001Z</time></trkpt><trkpt lat="37.69952962307487" lon="13.843621119634955"><ele>463.4</ele><time>2026-04-30T10:14:17.001Z</time></trkpt><trkpt lat="37.69960746891344" lon="13.843715124834192"><ele>465.6</ele><time>2026-04-30T10:14:18.001Z</time></trkpt><trkpt lat="37.699669866260805" lon="13.843808792284385"><ele>467.8</ele><time>2026-04-30T10:14:19.001Z</time></trkpt><trkpt lat="37.69971239480639" lon="13.843912984522401"><ele>470.0</ele><time>2026-04-30T10:14:20.001Z</time></trkpt><trkpt lat="37.69971951480697" lon="13.844030251670043"><ele>470.0</ele><time>2026-04-30T10:14:21.001Z</time></trkpt><trkpt lat="37.699698689169814" lon="13.844151420785026"><ele>470.0</ele><time>2026-04-30T10:14:22.001Z</time></trkpt><trkpt lat="37.69966952691067" lon="13.844293632442481"><ele>470.0</ele><time>2026-04-30T10:14:23Z</time></trkpt><trkpt lat="37.69963174000415" lon="13.8444598068979"><ele>470.0</ele><time>2026-04-30T10:14:24Z</time></trkpt><trkpt lat="37.69959224378869" lon="13.844634673944864"><ele>471.0</ele><time>2026-04-30T10:14:25Z</time></trkpt><trkpt lat="37.69955189603523" lon="13.844819876746545"><ele>472.0</ele><time>2026-04-30T10:14:26Z</time></trkpt><trkpt lat="37.69951720997648" lon="13.84500409091067"><ele>473.0</ele><time>2026-04-30T10:14:27Z</time></trkpt><trkpt lat="37.699495989532544" lon="13.845198076634645"><ele>473.3333333333333</ele><time>2026-04-30T10:14:28Z</time></trkpt><trkpt lat="37.69950348562784" lon="13.845399563576025"><ele>473.66666666666663</ele><time>2026-04-30T10:14:29Z</time></trkpt><trkpt lat="37.699534586672875" lon="13.845596341069895"><ele>474.0</ele><time>2026-04-30T10:14:30Z</time></trkpt><trkpt lat="37.69956465261108" lon="13.845775574750894"><ele>474.0</ele><time>2026-04-30T10:14:31Z</time></trkpt><trkpt lat="37.699603623987" lon="13.845960095510849"><ele>474.0</ele><time>2026-04-30T10:14:32Z</time></trkpt><trkpt lat="37.69965081655427" lon="13.84614890673697"><ele>474.0</ele><time>2026-04-30T10:14:33Z</time></trkpt><trkpt lat="37.69970624831645" lon="13.8463416163939"><ele>474.0</ele><time>2026-04-30T10:14:34Z</time></trkpt><trkpt lat="37.69976581048284" lon="13.846533204827637"><ele>474.0</ele><time>2026-04-30T10:14:35Z</time></trkpt><trkpt lat="37.699829168832274" lon="13.846730067111112"><ele>474.0</ele><time>2026-04-30T10:14:36Z</time></trkpt><trkpt lat="37.6998884918563" lon="13.846914391009758"><ele>473.0</ele><time>2026-04-30T10:14:37Z</time></trkpt><trkpt lat="37.69994936808543" lon="13.847099327521708"><ele>472.0</ele><time>2026-04-30T10:14:38Z</time></trkpt><trkpt lat="37.70001431023768" lon="13.847289441904628"><ele>471.0</ele><time>2026-04-30T10:14:39Z</time></trkpt><trkpt lat="37.700079406124615" lon="13.847480006359659"><ele>471.0</ele><time>2026-04-30T10:14:40Z</time></trkpt><trkpt lat="37.70014190458542" lon="13.847671145412102"><ele>471.0</ele><time>2026-04-30T10:14:41Z</time></trkpt><trkpt lat="37.70020340595751" lon="13.847862342977269"><ele>471.0</ele><time>2026-04-30T10:14:42Z</time></trkpt><trkpt lat="37.70026455608488" lon="13.848052449043486"><ele>473.33333333333337</ele><time>2026-04-30T10:14:43Z</time></trkpt><trkpt lat="37.70032249524037" lon="13.848232497057355"><ele>475.6666666666667</ele><time>2026-04-30T10:14:44Z</time></trkpt><trkpt lat="37.700379339775594" lon="13.848408520941911"><ele>478.0</ele><time>2026-04-30T10:14:45Z</time></trkpt><trkpt lat="37.70043627016787" lon="13.84858198093738"><ele>478.0</ele><time>2026-04-30T10:14:46Z</time></trkpt><trkpt lat="37.700489399336064" lon="13.848742202052488"><ele>478.0</ele><time>2026-04-30T10:14:47Z</time></trkpt><trkpt lat="37.700543556302904" lon="13.848898574980005"><ele>478.0</ele><time>2026-04-30T10:14:48Z</time></trkpt><trkpt lat="37.700612266980464" lon="13.849057141492604"><ele>478.0</ele><time>2026-04-30T10:14:49Z</time></trkpt><trkpt lat="37.700713070506794" lon="13.849206159716243"><ele>476.33333333333337</ele><time>2026-04-30T10:14:50Z</time></trkpt><trkpt lat="37.70082378182087" lon="13.849342150767153"><ele>474.66666666666663</ele><time>2026-04-30T10:14:51Z</time></trkpt><trkpt lat="37.70093367581614" lon="13.849472400835827"><ele>473.0</ele><time>2026-04-30T10:14:52Z</time></trkpt><trkpt lat="37.701031657161565" lon="13.849607285645238"><ele>474.0</ele><time>2026-04-30T10:14:53Z</time></trkpt><trkpt lat="37.70111855583056" lon="13.849757544746558"><ele>475.0</ele><time>2026-04-30T10:14:54Z</time></trkpt><trkpt lat="37.70119164074953" lon="13.849923186939908"><ele>476.0</ele><time>2026-04-30T10:14:55Z</time></trkpt><trkpt lat="37.70125682064081" lon="13.850093023794138"><ele>477.0</ele><time>2026-04-30T10:14:56Z</time></trkpt><trkpt lat="37.701327410343275" lon="13.85026335612189"><ele>477.0</ele><time>2026-04-30T10:14:57Z</time></trkpt><trkpt lat="37.70140347226034" lon="13.850417896311749"><ele>477.0</ele><time>2026-04-30T10:14:58Z</time></trkpt><trkpt lat="37.70149699945595" lon="13.850551383436951"><ele>477.0</ele><time>2026-04-30T10:14:59Z</time></trkpt><trkpt lat="37.70162433096104" lon="13.85065499597588"><ele>477.0</ele><time>2026-04-30T10:15:00Z</time></trkpt><trkpt lat="37.701764355788725" lon="13.85074188363255"><ele>477.0</ele><time>2026-04-30T10:15:01Z</time></trkpt><trkpt lat="37.70190807313951" lon="13.85082773319754"><ele>477.0</ele><time>2026-04-30T10:15:02Z</time></trkpt><trkpt lat="37.702044901945804" lon="13.85091715989606"><ele>477.0</ele><time>2026-04-30T10:15:03Z</time></trkpt><trkpt lat="37.70216286067005" lon="13.851033673063311"><ele>476.75</ele><time>2026-04-30T10:15:04Z</time></trkpt><trkpt lat="37.702257327546334" lon="13.851152503517262"><ele>476.5</ele><time>2026-04-30T10:15:05.001Z</time></trkpt><trkpt lat="37.70234782314275" lon="13.85126194258387"><ele>476.25</ele><time>2026-04-30T10:15:06.001Z</time></trkpt><trkpt lat="37.70244058860706" lon="13.851357399178848"><ele>476.0</ele><time>2026-04-30T10:15:07.001Z</time></trkpt><trkpt lat="37.70256735766861" lon="13.851422913880274"><ele>476.0</ele><time>2026-04-30T10:15:08.001Z</time></trkpt><trkpt lat="37.702703926703585" lon="13.851420550282402"><ele>476.0</ele><time>2026-04-30T10:15:09.001Z</time></trkpt><trkpt lat="37.702831885510875" lon="13.851408908301718"><ele>476.0</ele><time>2026-04-30T10:15:10.001Z</time></trkpt><trkpt lat="37.70296323930915" lon="13.85137503925928"><ele>476.0</ele><time>2026-04-30T10:15:11.001Z</time></trkpt><trkpt lat="37.70310627451696" lon="13.851324611781987"><ele>476.5</ele><time>2026-04-30T10:15:12.001Z</time></trkpt><trkpt lat="37.70324872433917" lon="13.851269325959613"><ele>477.0</ele><time>2026-04-30T10:15:13.001Z</time></trkpt><trkpt lat="37.703387989885705" lon="13.85121722045636"><ele>477.5</ele><time>2026-04-30T10:15:14.001Z</time></trkpt><trkpt lat="37.703516683699505" lon="13.851173446348659"><ele>478.0</ele><time>2026-04-30T10:15:15.001Z</time></trkpt><trkpt lat="37.703638226161104" lon="13.851135560005554"><ele>478.0</ele><time>2026-04-30T10:15:16.001Z</time></trkpt><trkpt lat="37.70376011510802" lon="13.85109568825253"><ele>478.0</ele><time>2026-04-30T10:15:17.001Z</time></trkpt><trkpt lat="37.70388013900788" lon="13.851056038983435"><ele>478.0</ele><time>2026-04-30T10:15:18.001Z</time></trkpt><trkpt lat="37.703998080991184" lon="13.851062254380661"><ele>478.0</ele><time>2026-04-30T10:15:19.001Z</time></trkpt><trkpt lat="37.70409835226006" lon="13.851090413788308"><ele>478.0</ele><time>2026-04-30T10:15:20.001Z</time></trkpt><trkpt lat="37.704194799705235" lon="13.851138722942627"><ele>478.0</ele><time>2026-04-30T10:15:21.001Z</time></trkpt><trkpt lat="37.70427948011208" lon="13.85119007269577"><ele>478.0</ele><time>2026-04-30T10:15:22.001Z</time></trkpt><trkpt lat="37.70437958026722" lon="13.851257166733973"><ele>478.0</ele><time>2026-04-30T10:15:23.001Z</time></trkpt><trkpt lat="37.704604213904275" lon="13.851398831405271"><ele>479.25</ele><time>2026-04-30T10:15:25.001Z</time></trkpt><trkpt lat="37.704722352772606" lon="13.851472370297953"><ele>480.5</ele><time>2026-04-30T10:15:26.001Z</time></trkpt><trkpt lat="37.7048467186248" lon="13.851550987212557"><ele>481.75</ele><time>2026-04-30T10:15:27.001Z</time></trkpt><trkpt lat="37.704972825587305" lon="13.851631884302492"><ele>483.0</ele><time>2026-04-30T10:15:28.001Z</time></trkpt><trkpt lat="37.70509789922999" lon="13.851712840233965"><ele>483.0</ele><time>2026-04-30T10:15:29.001Z</time></trkpt><trkpt lat="37.70522311115611" lon="13.851795641668243"><ele>483.0</ele><time>2026-04-30T10:15:30.001Z</time></trkpt><trkpt lat="37.70534006612309" lon="13.851872982856383"><ele>483.0</ele><time>2026-04-30T10:15:31.001Z</time></trkpt><trkpt lat="37.70545599208785" lon="13.851949644762886"><ele>483.0</ele><time>2026-04-30T10:15:32.001Z</time></trkpt><trkpt lat="37.70557486092068" lon="13.852025621941113"><ele>483.0</ele><time>2026-04-30T10:15:33.001Z</time></trkpt><trkpt lat="37.705700892987835" lon="13.852104789546097"><ele>483.0</ele><time>2026-04-30T10:15:34.001Z</time></trkpt><trkpt lat="37.70582399822423" lon="13.852182109576608"><ele>483.0</ele><time>2026-04-30T10:15:35.001Z</time></trkpt><trkpt lat="37.705946461183785" lon="13.85226141070182"><ele>483.0</ele><time>2026-04-30T10:15:36.001Z</time></trkpt><trkpt lat="37.70606064352464" lon="13.85233534970432"><ele>483.75</ele><time>2026-04-30T10:15:37.001Z</time></trkpt><trkpt lat="37.70617269072393" lon="13.852406709565761"><ele>484.5</ele><time>2026-04-30T10:15:38.001Z</time></trkpt><trkpt lat="37.70628569213996" lon="13.852477185297166"><ele>485.25</ele><time>2026-04-30T10:15:39.001Z</time></trkpt><trkpt lat="37.706393818296625" lon="13.852543553769994"><ele>486.0</ele><time>2026-04-30T10:15:40.001Z</time></trkpt><trkpt lat="37.706503763345744" lon="13.85261496901037"><ele>485.25</ele><time>2026-04-30T10:15:41.001Z</time></trkpt><trkpt lat="37.70661211698092" lon="13.852691255281835"><ele>484.5</ele><time>2026-04-30T10:15:42.001Z</time></trkpt><trkpt lat="37.70671356330714" lon="13.852773561622904"><ele>483.75</ele><time>2026-04-30T10:15:43.001Z</time></trkpt><trkpt lat="37.70679918190273" lon="13.85286257597213"><ele>483.0</ele><time>2026-04-30T10:15:44.001Z</time></trkpt><trkpt lat="37.7068851173436" lon="13.852959452810511"><ele>484.2</ele><time>2026-04-30T10:15:45.001Z</time></trkpt><trkpt lat="37.70696508131925" lon="13.853058421303059"><ele>485.4</ele><time>2026-04-30T10:15:46.001Z</time></trkpt><trkpt lat="37.707035697467774" lon="13.853157648322828"><ele>486.59999999999997</ele><time>2026-04-30T10:15:47.001Z</time></trkpt><trkpt lat="37.707112019745395" lon="13.853250711754058"><ele>487.79999999999995</ele><time>2026-04-30T10:15:48.001Z</time></trkpt><trkpt lat="37.70719189773408" lon="13.853333358512723"><ele>489.0</ele><time>2026-04-30T10:15:49.001Z</time></trkpt><trkpt lat="37.707281432970746" lon="13.853400132402795"><ele>488.25</ele><time>2026-04-30T10:15:50.001Z</time></trkpt><trkpt lat="37.70737561602836" lon="13.853457003864476"><ele>487.5</ele><time>2026-04-30T10:15:51.001Z</time></trkpt><trkpt lat="37.70748254314784" lon="13.853487393804771"><ele>486.75</ele><time>2026-04-30T10:15:52.001Z</time></trkpt><trkpt lat="37.7075939127657" lon="13.853526749362535"><ele>486.0</ele><time>2026-04-30T10:15:53.001Z</time></trkpt><trkpt lat="37.70770918757627" lon="13.853575350697442"><ele>486.5</ele><time>2026-04-30T10:15:54.001Z</time></trkpt><trkpt lat="37.70783321475124" lon="13.853609474466808"><ele>487.0</ele><time>2026-04-30T10:15:55.001Z</time></trkpt><trkpt lat="37.707958944891054" lon="13.853643285876034"><ele>487.5</ele><time>2026-04-30T10:15:56.001Z</time></trkpt><trkpt lat="37.70808888192349" lon="13.853674622219657"><ele>488.0</ele><time>2026-04-30T10:15:57.001Z</time></trkpt><trkpt lat="37.70822982211535" lon="13.853707108649235"><ele>488.0</ele><time>2026-04-30T10:15:58.001Z</time></trkpt><trkpt lat="37.70837490008613" lon="13.853736344597628"><ele>488.0</ele><time>2026-04-30T10:15:59.001Z</time></trkpt><trkpt lat="37.708519607733386" lon="13.853725409507355"><ele>488.0</ele><time>2026-04-30T10:16:00.001Z</time></trkpt><trkpt lat="37.70866078588906" lon="13.853715348557364"><ele>488.0</ele><time>2026-04-30T10:16:01.001Z</time></trkpt><trkpt lat="37.70880058732012" lon="13.85367440774804"><ele>488.66666666666663</ele><time>2026-04-30T10:16:02.001Z</time></trkpt><trkpt lat="37.708942905498205" lon="13.853605291681337"><ele>489.33333333333337</ele><time>2026-04-30T10:16:03.001Z</time></trkpt><trkpt lat="37.70908751522187" lon="13.853531757322958"><ele>490.0</ele><time>2026-04-30T10:16:04.001Z</time></trkpt><trkpt lat="37.70924844733982" lon="13.853441956407009"><ele>492.33333333333337</ele><time>2026-04-30T10:16:05.001Z</time></trkpt><trkpt lat="37.70941728286693" lon="13.853347183279029"><ele>494.66666666666663</ele><time>2026-04-30T10:16:06.001Z</time></trkpt><trkpt lat="37.70958766635055" lon="13.853254811790185"><ele>497.0</ele><time>2026-04-30T10:16:07.001Z</time></trkpt><trkpt lat="37.709743740654645" lon="13.853169047241519"><ele>497.0</ele><time>2026-04-30T10:16:08.001Z</time></trkpt><trkpt lat="37.70989148407069" lon="13.853086595533016"><ele>497.0</ele><time>2026-04-30T10:16:09.001Z</time></trkpt><trkpt lat="37.71003384436463" lon="13.853006026368002"><ele>497.0</ele><time>2026-04-30T10:16:10.001Z</time></trkpt><trkpt lat="37.71017684929753" lon="13.852927231348954"><ele>497.66666666666663</ele><time>2026-04-30T10:16:11.001Z</time></trkpt><trkpt lat="37.71031785033436" lon="13.852850731275119"><ele>498.33333333333337</ele><time>2026-04-30T10:16:12.001Z</time></trkpt><trkpt lat="37.71045530628997" lon="13.852771664374258"><ele>499.0</ele><time>2026-04-30T10:16:13.001Z</time></trkpt><trkpt lat="37.710589164866555" lon="13.852692298893919"><ele>499.0</ele><time>2026-04-30T10:16:14.001Z</time></trkpt><trkpt lat="37.71071950280986" lon="13.852626657903533"><ele>499.0</ele><time>2026-04-30T10:16:15.001Z</time></trkpt><trkpt lat="37.710843681097955" lon="13.852586384552556"><ele>499.0</ele><time>2026-04-30T10:16:16.001Z</time></trkpt><trkpt lat="37.71095955051352" lon="13.8525844072057"><ele>499.0</ele><time>2026-04-30T10:16:17Z</time></trkpt><trkpt lat="37.711064727401336" lon="13.85263170043889"><ele>500.4</ele><time>2026-04-30T10:16:18Z</time></trkpt><trkpt lat="37.71116482944734" lon="13.852697901878095"><ele>501.79999999999995</ele><time>2026-04-30T10:16:19Z</time></trkpt><trkpt lat="37.711255378428135" lon="13.852767139442102"><ele>503.20000000000005</ele><time>2026-04-30T10:16:20Z</time></trkpt><trkpt lat="37.71131698987806" lon="13.852822254304622"><ele>504.6</ele><time>2026-04-30T10:16:21Z</time></trkpt><trkpt lat="37.711368315586625" lon="13.85287077738029"><ele>506.0</ele><time>2026-04-30T10:16:22Z</time></trkpt><trkpt lat="37.71146053153086" lon="13.852942318881919"><ele>506.0</ele><time>2026-04-30T10:16:24Z</time></trkpt><trkpt lat="37.711567989894796" lon="13.852907917337225"><ele>506.0</ele><time>2026-04-30T10:16:26Z</time></trkpt><trkpt lat="37.71163223729201" lon="13.852845253945251"><ele>506.0</ele><time>2026-04-30T10:16:27Z</time></trkpt><trkpt lat="37.711701662751786" lon="13.852772681844153"><ele>506.0</ele><time>2026-04-30T10:16:28Z</time></trkpt><trkpt lat="37.711771530667356" lon="13.852682373239926"><ele>506.0</ele><time>2026-04-30T10:16:29Z</time></trkpt><trkpt lat="37.711856846883144" lon="13.852580914281903"><ele>506.20000000000005</ele><time>2026-04-30T10:16:30Z</time></trkpt><trkpt lat="37.71194041060468" lon="13.852487193161293"><ele>506.40000000000003</ele><time>2026-04-30T10:16:31Z</time></trkpt><trkpt lat="37.71201496592704" lon="13.852398441762624"><ele>506.6</ele><time>2026-04-30T10:16:32Z</time></trkpt><trkpt lat="37.71208280356447" lon="13.85231535916259"><ele>506.8</ele><time>2026-04-30T10:16:33Z</time></trkpt><trkpt lat="37.71215040826316" lon="13.852224618235347"><ele>507.0</ele><time>2026-04-30T10:16:34Z</time></trkpt><trkpt lat="37.712219235894054" lon="13.852121113729938"><ele>507.0</ele><time>2026-04-30T10:16:35Z</time></trkpt><trkpt lat="37.712281357133094" lon="13.852041684499413"><ele>507.00000000000006</ele><time>2026-04-30T10:16:36Z</time></trkpt><trkpt lat="37.71235022759896" lon="13.851982445542053"><ele>507.00000000000006</ele><time>2026-04-30T10:16:37Z</time></trkpt><trkpt lat="37.71243580833062" lon="13.851964720349214"><ele>507.0</ele><time>2026-04-30T10:16:38Z</time></trkpt><trkpt lat="37.7125429638147" lon="13.851963827308346"><ele>507.0</ele><time>2026-04-30T10:16:39Z</time></trkpt><trkpt lat="37.71265729055839" lon="13.851997681808546"><ele>507.8</ele><time>2026-04-30T10:16:40Z</time></trkpt><trkpt lat="37.71274327093902" lon="13.85205035935333"><ele>508.6</ele><time>2026-04-30T10:16:41Z</time></trkpt><trkpt lat="37.71283202011046" lon="13.852080299925271"><ele>509.40000000000003</ele><time>2026-04-30T10:16:42Z</time></trkpt><trkpt lat="37.7129312079123" lon="13.852082210840466"><ele>510.20000000000005</ele><time>2026-04-30T10:16:43Z</time></trkpt><trkpt lat="37.7130117641376" lon="13.852045018680185"><ele>511.0</ele><time>2026-04-30T10:16:44Z</time></trkpt><trkpt lat="37.713081545166304" lon="13.851967111934451"><ele>511.0</ele><time>2026-04-30T10:16:45Z</time></trkpt><trkpt lat="37.71315207795378" lon="13.851860285852078"><ele>511.0</ele><time>2026-04-30T10:16:46Z</time></trkpt><trkpt lat="37.71320479848287" lon="13.851732697575642"><ele>511.0</ele><time>2026-04-30T10:16:47Z</time></trkpt><trkpt lat="37.71323370981144" lon="13.851592770556845"><ele>511.0</ele><time>2026-04-30T10:16:48Z</time></trkpt><trkpt lat="37.71325830478086" lon="13.851442409707023"><ele>510.75</ele><time>2026-04-30T10:16:49Z</time></trkpt><trkpt lat="37.71329594483296" lon="13.851316170759743"><ele>510.5</ele><time>2026-04-30T10:16:50Z</time></trkpt><trkpt lat="37.713345214086885" lon="13.851182667417566"><ele>510.25</ele><time>2026-04-30T10:16:51Z</time></trkpt><trkpt lat="37.71341165685695" lon="13.851015329644797"><ele>510.0</ele><time>2026-04-30T10:16:52Z</time></trkpt><trkpt lat="37.71350130991712" lon="13.850831101451082"><ele>512.3333333333334</ele><time>2026-04-30T10:16:53Z</time></trkpt><trkpt lat="37.713602390319046" lon="13.850656132237955"><ele>514.6666666666667</ele><time>2026-04-30T10:16:54Z</time></trkpt><trkpt lat="37.71370598700843" lon="13.850473132104096"><ele>517.0</ele><time>2026-04-30T10:16:55Z</time></trkpt><trkpt lat="37.713786542715596" lon="13.850292492053425"><ele>516.8000000000001</ele><time>2026-04-30T10:16:56Z</time></trkpt><trkpt lat="37.71384490983703" lon="13.85012477901307"><ele>516.6</ele><time>2026-04-30T10:16:57Z</time></trkpt><trkpt lat="37.713888550639496" lon="13.849977025319923"><ele>516.4000000000001</ele><time>2026-04-30T10:16:58Z</time></trkpt><trkpt lat="37.71392860910396" lon="13.849863303914724"><ele>516.2</ele><time>2026-04-30T10:16:59Z</time></trkpt><trkpt lat="37.71395384884548" lon="13.84977844920172"><ele>516.0</ele><time>2026-04-30T10:17:00Z</time></trkpt><trkpt lat="37.713904914455014" lon="13.8496422228574"><ele>516.0</ele><time>2026-04-30T10:17:02Z</time></trkpt><trkpt lat="37.71383517821437" lon="13.849573618458914"><ele>516.0</ele><time>2026-04-30T10:17:03Z</time></trkpt><trkpt lat="37.7137423511496" lon="13.849496114855624"><ele>516.0</ele><time>2026-04-30T10:17:04Z</time></trkpt><trkpt lat="37.713658950630375" lon="13.849420291578337"><ele>516.0</ele><time>2026-04-30T10:17:05Z</time></trkpt><trkpt lat="37.713609957033746" lon="13.849328249053544"><ele>516.0</ele><time>2026-04-30T10:17:06Z</time></trkpt><trkpt lat="37.71358915675413" lon="13.849204796401459"><ele>516.25</ele><time>2026-04-30T10:17:07Z</time></trkpt><trkpt lat="37.71359774990363" lon="13.849068293490241"><ele>516.5</ele><time>2026-04-30T10:17:08Z</time></trkpt><trkpt lat="37.713609221128756" lon="13.848922092653332"><ele>516.75</ele><time>2026-04-30T10:17:09Z</time></trkpt><trkpt lat="37.7136123266288" lon="13.848761015989226"><ele>517.0</ele><time>2026-04-30T10:17:10Z</time></trkpt><trkpt lat="37.71361743384293" lon="13.848589991354629"><ele>518.25</ele><time>2026-04-30T10:17:11Z</time></trkpt><trkpt lat="37.71361898960154" lon="13.848417622076054"><ele>519.5</ele><time>2026-04-30T10:17:12Z</time></trkpt><trkpt lat="37.71362601640019" lon="13.84824589078795"><ele>520.75</ele><time>2026-04-30T10:17:13Z</time></trkpt><trkpt lat="37.71363491543146" lon="13.84807062217268"><ele>522.0</ele><time>2026-04-30T10:17:14Z</time></trkpt><trkpt lat="37.71362834602385" lon="13.8478797822967"><ele>522.0</ele><time>2026-04-30T10:17:15Z</time></trkpt><trkpt lat="37.713626829112975" lon="13.847693667895792"><ele>522.0</ele><time>2026-04-30T10:17:16Z</time></trkpt><trkpt lat="37.71363060395834" lon="13.847508691147189"><ele>522.0</ele><time>2026-04-30T10:17:17Z</time></trkpt><trkpt lat="37.71363250883367" lon="13.84732038156588"><ele>522.0</ele><time>2026-04-30T10:17:18Z</time></trkpt><trkpt lat="37.713627951187355" lon="13.847134078725707"><ele>523.0</ele><time>2026-04-30T10:17:19Z</time></trkpt><trkpt lat="37.71362464502447" lon="13.846954407884555"><ele>524.0</ele><time>2026-04-30T10:17:20Z</time></trkpt><trkpt lat="37.713621278780735" lon="13.846777513172821"><ele>525.0</ele><time>2026-04-30T10:17:21Z</time></trkpt><trkpt lat="37.71362034123555" lon="13.846592531389858"><ele>526.0</ele><time>2026-04-30T10:17:22Z</time></trkpt><trkpt lat="37.7136217565343" lon="13.846402976079851"><ele>528.3333333333334</ele><time>2026-04-30T10:17:23Z</time></trkpt><trkpt lat="37.713623977337605" lon="13.84621218733695"><ele>530.6666666666666</ele><time>2026-04-30T10:17:24Z</time></trkpt><trkpt lat="37.71362627437782" lon="13.846016176815535"><ele>533.0</ele><time>2026-04-30T10:17:25Z</time></trkpt><trkpt lat="37.71362620802483" lon="13.845806956781868"><ele>534.0</ele><time>2026-04-30T10:17:26Z</time></trkpt><trkpt lat="37.71362768622274" lon="13.845598718085009"><ele>535.0</ele><time>2026-04-30T10:17:27Z</time></trkpt><trkpt lat="37.71362887213398" lon="13.845402956808435"><ele>536.0</ele><time>2026-04-30T10:17:28Z</time></trkpt><trkpt lat="37.713631706341424" lon="13.84521797792248"><ele>537.0</ele><time>2026-04-30T10:17:29Z</time></trkpt><trkpt lat="37.713632832065294" lon="13.845035892226875"><ele>538.0</ele><time>2026-04-30T10:17:30Z</time></trkpt><trkpt lat="37.71363457569284" lon="13.844851272013585"><ele>539.0</ele><time>2026-04-30T10:17:31Z</time></trkpt><trkpt lat="37.71363486874811" lon="13.84466242037934"><ele>540.0</ele><time>2026-04-30T10:17:32Z</time></trkpt><trkpt lat="37.71363166932405" lon="13.84446788353703"><ele>542.0</ele><time>2026-04-30T10:17:33Z</time></trkpt><trkpt lat="37.71362811092952" lon="13.844275053970849"><ele>544.0</ele><time>2026-04-30T10:17:34Z</time></trkpt><trkpt lat="37.713628700956825" lon="13.844082882352176"><ele>546.0</ele><time>2026-04-30T10:17:35Z</time></trkpt><trkpt lat="37.71364145413534" lon="13.843893635478091"><ele>546.0</ele><time>2026-04-30T10:17:36Z</time></trkpt><trkpt lat="37.713676631067614" lon="13.843703967705775"><ele>546.0</ele><time>2026-04-30T10:17:37Z</time></trkpt><trkpt lat="37.71373572281955" lon="13.843515300908669"><ele>546.0</ele><time>2026-04-30T10:17:38Z</time></trkpt><trkpt lat="37.71379277194501" lon="13.84333695419969"><ele>549.0</ele><time>2026-04-30T10:17:39Z</time></trkpt><trkpt lat="37.71384702331386" lon="13.843156789894454"><ele>552.0</ele><time>2026-04-30T10:17:40Z</time></trkpt><trkpt lat="37.71390341098143" lon="13.84298003526458"><ele>555.0</ele><time>2026-04-30T10:17:41Z</time></trkpt><trkpt lat="37.71396057513975" lon="13.842801889576245"><ele>556.0</ele><time>2026-04-30T10:17:42Z</time></trkpt><trkpt lat="37.71401519069363" lon="13.842614681983388"><ele>557.0</ele><time>2026-04-30T10:17:43Z</time></trkpt><trkpt lat="37.71407642425054" lon="13.842419282887093"><ele>558.0</ele><time>2026-04-30T10:17:44Z</time></trkpt><trkpt lat="37.71415180907349" lon="13.842223671195566"><ele>558.0</ele><time>2026-04-30T10:17:45Z</time></trkpt><trkpt lat="37.71424003993779" lon="13.842042989166973"><ele>558.0</ele><time>2026-04-30T10:17:46Z</time></trkpt><trkpt lat="37.71433685500373" lon="13.841879402645175"><ele>558.0</ele><time>2026-04-30T10:17:47Z</time></trkpt><trkpt lat="37.71443429916332" lon="13.841725244740998"><ele>561.5</ele><time>2026-04-30T10:17:48Z</time></trkpt><trkpt lat="37.71452942015375" lon="13.841593701455635"><ele>565.0</ele><time>2026-04-30T10:17:49Z</time></trkpt><trkpt lat="37.714628709383106" lon="13.84147071717979"><ele>568.5</ele><time>2026-04-30T10:17:50Z</time></trkpt><trkpt lat="37.71473931801348" lon="13.841354023661692"><ele>572.0</ele><time>2026-04-30T10:17:51Z</time></trkpt><trkpt lat="37.71485150733075" lon="13.841250649133942"><ele>572.0</ele><time>2026-04-30T10:17:52Z</time></trkpt><trkpt lat="37.714966020849324" lon="13.841151590965023"><ele>572.0</ele><time>2026-04-30T10:17:53Z</time></trkpt><trkpt lat="37.71507673398665" lon="13.84106445934562"><ele>572.0</ele><time>2026-04-30T10:17:54Z</time></trkpt><trkpt lat="37.715176860682995" lon="13.840988928295856"><ele>572.0</ele><time>2026-04-30T10:17:55Z</time></trkpt><trkpt lat="37.7152779713458" lon="13.8409271091984"><ele>571.75</ele><time>2026-04-30T10:17:56Z</time></trkpt><trkpt lat="37.71540346512197" lon="13.840890433982013"><ele>571.5</ele><time>2026-04-30T10:17:57.001Z</time></trkpt><trkpt lat="37.7155467467139" lon="13.84086753953589"><ele>571.25</ele><time>2026-04-30T10:17:58.001Z</time></trkpt><trkpt lat="37.7156798030545" lon="13.840833507538036"><ele>571.0</ele><time>2026-04-30T10:17:59.001Z</time></trkpt><trkpt lat="37.7157950570069" lon="13.840755597646714"><ele>571.0</ele><time>2026-04-30T10:18:00.001Z</time></trkpt><trkpt lat="37.71589185126458" lon="13.840626249279786"><ele>571.0</ele><time>2026-04-30T10:18:01.001Z</time></trkpt><trkpt lat="37.715963640487175" lon="13.840474777652522"><ele>571.0</ele><time>2026-04-30T10:18:02.001Z</time></trkpt><trkpt lat="37.71603841422163" lon="13.840337385936472"><ele>571.0</ele><time>2026-04-30T10:18:03.001Z</time></trkpt><trkpt lat="37.716136294401046" lon="13.840217104919812"><ele>573.5</ele><time>2026-04-30T10:18:04.001Z</time></trkpt><trkpt lat="37.71624790073472" lon="13.840106617099982"><ele>576.0</ele><time>2026-04-30T10:18:05.001Z</time></trkpt><trkpt lat="37.71635665967578" lon="13.840013184475616"><ele>578.5</ele><time>2026-04-30T10:18:06.001Z</time></trkpt><trkpt lat="37.71644104634053" lon="13.839936838204821"><ele>581.0</ele><time>2026-04-30T10:18:07.001Z</time></trkpt><trkpt lat="37.716507767824204" lon="13.839872275462563"><ele>581.0</ele><time>2026-04-30T10:18:08.001Z</time></trkpt><trkpt lat="37.71656580134278" lon="13.83982403263273"><ele>581.0</ele><time>2026-04-30T10:18:09.001Z</time></trkpt><trkpt lat="37.716678042470555" lon="13.839760921122872"><ele>581.0</ele><time>2026-04-30T10:18:11.001Z</time></trkpt><trkpt lat="37.716744917484036" lon="13.839729063100918"><ele>581.0</ele><time>2026-04-30T10:18:12.001Z</time></trkpt><trkpt lat="37.716818152571186" lon="13.839693939570315"><ele>581.0</ele><time>2026-04-30T10:18:13.001Z</time></trkpt><trkpt lat="37.71688034330205" lon="13.839639559666834"><ele>581.0</ele><time>2026-04-30T10:18:14.001Z</time></trkpt><trkpt lat="37.716936614639636" lon="13.839558663594808"><ele>582.6</ele><time>2026-04-30T10:18:15.001Z</time></trkpt><trkpt lat="37.71699983986528" lon="13.839469268705054"><ele>584.2</ele><time>2026-04-30T10:18:16.001Z</time></trkpt><trkpt lat="37.717077110334806" lon="13.839369177963944"><ele>585.8</ele><time>2026-04-30T10:18:17.001Z</time></trkpt><trkpt lat="37.71714990013424" lon="13.839276920743561"><ele>587.4</ele><time>2026-04-30T10:18:18.001Z</time></trkpt><trkpt lat="37.71721240626315" lon="13.83918782327267"><ele>589.0</ele><time>2026-04-30T10:18:19.001Z</time></trkpt><trkpt lat="37.71728324967579" lon="13.839097619088186"><ele>589.0</ele><time>2026-04-30T10:18:20.001Z</time></trkpt><trkpt lat="37.7173603350398" lon="13.83900350862836"><ele>589.0</ele><time>2026-04-30T10:18:21.001Z</time></trkpt><trkpt lat="37.717443469358905" lon="13.838923805004148"><ele>589.0</ele><time>2026-04-30T10:18:22Z</time></trkpt><trkpt lat="37.71753457095164" lon="13.838850132471707"><ele>589.0</ele><time>2026-04-30T10:18:23Z</time></trkpt><trkpt lat="37.71762563920693" lon="13.83875893586676"><ele>589.0</ele><time>2026-04-30T10:18:24Z</time></trkpt><trkpt lat="37.717706790132716" lon="13.838655266041268"><ele>591.0</ele><time>2026-04-30T10:18:25Z</time></trkpt><trkpt lat="37.717781292854596" lon="13.838544581100486"><ele>593.0</ele><time>2026-04-30T10:18:26Z</time></trkpt><trkpt lat="37.71785952939966" lon="13.838435429686642"><ele>595.0</ele><time>2026-04-30T10:18:27Z</time></trkpt><trkpt lat="37.717938401428505" lon="13.838329769107041"><ele>597.0</ele><time>2026-04-30T10:18:28Z</time></trkpt><trkpt lat="37.71800898444727" lon="13.83822191774461"><ele>597.0</ele><time>2026-04-30T10:18:29Z</time></trkpt><trkpt lat="37.71809204663629" lon="13.838139597911729"><ele>597.0</ele><time>2026-04-30T10:18:30Z</time></trkpt><trkpt lat="37.71819155924924" lon="13.838048000379851"><ele>597.0</ele><time>2026-04-30T10:18:31Z</time></trkpt><trkpt lat="37.71828315432003" lon="13.837921343204602"><ele>597.0</ele><time>2026-04-30T10:18:32Z</time></trkpt><trkpt lat="37.718352624014365" lon="13.837780005698733"><ele>595.75</ele><time>2026-04-30T10:18:33Z</time></trkpt><trkpt lat="37.71840861336439" lon="13.837632249857329"><ele>594.5</ele><time>2026-04-30T10:18:34Z</time></trkpt><trkpt lat="37.718462964304024" lon="13.837485289675845"><ele>593.25</ele><time>2026-04-30T10:18:35Z</time></trkpt><trkpt lat="37.71852100522238" lon="13.83733303243543"><ele>592.0</ele><time>2026-04-30T10:18:36Z</time></trkpt><trkpt lat="37.71857662610104" lon="13.83717552155407"><ele>594.25</ele><time>2026-04-30T10:18:37Z</time></trkpt><trkpt lat="37.718626763548514" lon="13.837016717769982"><ele>596.5</ele><time>2026-04-30T10:18:38Z</time></trkpt><trkpt lat="37.718673825041066" lon="13.836858233905822"><ele>598.75</ele><time>2026-04-30T10:18:39Z</time></trkpt><trkpt lat="37.71873142730814" lon="13.836693067120441"><ele>601.0</ele><time>2026-04-30T10:18:40Z</time></trkpt><trkpt lat="37.71880074172629" lon="13.83652128064668"><ele>601.0</ele><time>2026-04-30T10:18:41Z</time></trkpt><trkpt lat="37.718871701998395" lon="13.8363553785103"><ele>601.0</ele><time>2026-04-30T10:18:42Z</time></trkpt><trkpt lat="37.718930789721284" lon="13.836186131492473"><ele>601.0</ele><time>2026-04-30T10:18:43Z</time></trkpt><trkpt lat="37.71897497128527" lon="13.83600744502126"><ele>601.0</ele><time>2026-04-30T10:18:44Z</time></trkpt><trkpt lat="37.7190061542818" lon="13.835823418755043"><ele>601.25</ele><time>2026-04-30T10:18:45Z</time></trkpt><trkpt lat="37.71903878988307" lon="13.835641475759527"><ele>601.5</ele><time>2026-04-30T10:18:46Z</time></trkpt><trkpt lat="37.71906636176155" lon="13.835455230844293"><ele>601.75</ele><time>2026-04-30T10:18:47Z</time></trkpt><trkpt lat="37.71908237933382" lon="13.835265394727"><ele>602.0</ele><time>2026-04-30T10:18:48Z</time></trkpt><trkpt lat="37.71909975600266" lon="13.83506558864532"><ele>605.3333333333333</ele><time>2026-04-30T10:18:49Z</time></trkpt><trkpt lat="37.719121718917464" lon="13.834866061009748"><ele>608.6666666666666</ele><time>2026-04-30T10:18:50Z</time></trkpt><trkpt lat="37.71914980452215" lon="13.834672765304548"><ele>612.0</ele><time>2026-04-30T10:18:51Z</time></trkpt><trkpt lat="37.71918402294193" lon="13.83448839148672"><ele>612.0</ele><time>2026-04-30T10:18:52Z</time></trkpt><trkpt lat="37.71921102041708" lon="13.834304810509359"><ele>612.0</ele><time>2026-04-30T10:18:53Z</time></trkpt><trkpt lat="37.719223645526974" lon="13.83412075821712"><ele>612.0</ele><time>2026-04-30T10:18:54Z</time></trkpt><trkpt lat="37.719223001333745" lon="13.833939680682013"><ele>612.0</ele><time>2026-04-30T10:18:55Z</time></trkpt><trkpt lat="37.71921889680213" lon="13.833773982069532"><ele>614.25</ele><time>2026-04-30T10:18:56Z</time></trkpt><trkpt lat="37.71922956135402" lon="13.833614165224713"><ele>616.5</ele><time>2026-04-30T10:18:57Z</time></trkpt><trkpt lat="37.719260229928985" lon="13.833446709208301"><ele>618.75</ele><time>2026-04-30T10:18:58Z</time></trkpt><trkpt lat="37.719312232033595" lon="13.833275930188774"><ele>621.0</ele><time>2026-04-30T10:18:59Z</time></trkpt><trkpt lat="37.719370969861146" lon="13.833108059444344"><ele>626.25</ele><time>2026-04-30T10:19:00Z</time></trkpt><trkpt lat="37.719416988230634" lon="13.83293655406368"><ele>631.5</ele><time>2026-04-30T10:19:01Z</time></trkpt><trkpt lat="37.71945150218314" lon="13.832769997162721"><ele>636.75</ele><time>2026-04-30T10:19:02Z</time></trkpt><trkpt lat="37.71948321008619" lon="13.832603706470842"><ele>642.0</ele><time>2026-04-30T10:19:03Z</time></trkpt><trkpt lat="37.719519761380546" lon="13.832459376171752"><ele>642.0</ele><time>2026-04-30T10:19:04Z</time></trkpt><trkpt lat="37.719582066119635" lon="13.832355540383778"><ele>642.0</ele><time>2026-04-30T10:19:05Z</time></trkpt><trkpt lat="37.719677770348596" lon="13.832298396221333"><ele>642.0</ele><time>2026-04-30T10:19:06Z</time></trkpt><trkpt lat="37.71978829211835" lon="13.83228331820203"><ele>642.0</ele><time>2026-04-30T10:19:07Z</time></trkpt><trkpt lat="37.71988076084474" lon="13.832265835468258"><ele>642.0</ele><time>2026-04-30T10:19:08Z</time></trkpt><trkpt lat="37.71996590898488" lon="13.832221378029423"><ele>642.0</ele><time>2026-04-30T10:19:09Z</time></trkpt><trkpt lat="37.72003464197265" lon="13.832151428559733"><ele>642.0</ele><time>2026-04-30T10:19:10Z</time></trkpt><trkpt lat="37.72008711191222" lon="13.83205176775919"><ele>642.0</ele><time>2026-04-30T10:19:11Z</time></trkpt><trkpt lat="37.72014105920966" lon="13.831918163248243"><ele>642.0</ele><time>2026-04-30T10:19:12Z</time></trkpt><trkpt lat="37.7201962326243" lon="13.831767135842748"><ele>642.0</ele><time>2026-04-30T10:19:13Z</time></trkpt><trkpt lat="37.720253754353024" lon="13.831627729647856"><ele>645.6</ele><time>2026-04-30T10:19:14Z</time></trkpt><trkpt lat="37.72031060556368" lon="13.831497484687127"><ele>649.2</ele><time>2026-04-30T10:19:15Z</time></trkpt><trkpt lat="37.72036724122202" lon="13.831369523990237"><ele>652.8</ele><time>2026-04-30T10:19:16Z</time></trkpt><trkpt lat="37.72042332662176" lon="13.831248667261924"><ele>656.4</ele><time>2026-04-30T10:19:17Z</time></trkpt><trkpt lat="37.72047498135329" lon="13.831144565681038"><ele>660.0</ele><time>2026-04-30T10:19:18Z</time></trkpt><trkpt lat="37.720526910250726" lon="13.831049076625872"><ele>660.0</ele><time>2026-04-30T10:19:19Z</time></trkpt><trkpt lat="37.72058382457141" lon="13.83097623451829"><ele>660.0</ele><time>2026-04-30T10:19:20Z</time></trkpt><trkpt lat="37.72065417672679" lon="13.830924933517002"><ele>660.0</ele><time>2026-04-30T10:19:21Z</time></trkpt><trkpt lat="37.720736992841815" lon="13.830893913681416"><ele>660.0</ele><time>2026-04-30T10:19:22Z</time></trkpt><trkpt lat="37.72082926377532" lon="13.830878542727334"><ele>660.0</ele><time>2026-04-30T10:19:23Z</time></trkpt><trkpt lat="37.720924196487665" lon="13.83086973592881"><ele>660.0</ele><time>2026-04-30T10:19:24Z</time></trkpt><trkpt lat="37.721018888017404" lon="13.830835724192466"><ele>661.0</ele><time>2026-04-30T10:19:25Z</time></trkpt><trkpt lat="37.72109848719015" lon="13.830770407480099"><ele>662.0</ele><time>2026-04-30T10:19:26Z</time></trkpt><trkpt lat="37.72117362691062" lon="13.830687740077952"><ele>663.0</ele><time>2026-04-30T10:19:27Z</time></trkpt><trkpt lat="37.7212458846165" lon="13.830602637788559"><ele>664.0</ele><time>2026-04-30T10:19:28Z</time></trkpt><trkpt lat="37.72131486403191" lon="13.83052071861584"><ele>665.0</ele><time>2026-04-30T10:19:29Z</time></trkpt><trkpt lat="37.721386936811015" lon="13.830449154447425"><ele>665.0</ele><time>2026-04-30T10:19:30Z</time></trkpt><trkpt lat="37.721463607076714" lon="13.830386661148292"><ele>665.0</ele><time>2026-04-30T10:19:31Z</time></trkpt><trkpt lat="37.72154481110716" lon="13.830327803793788"><ele>665.0</ele><time>2026-04-30T10:19:32Z</time></trkpt><trkpt lat="37.721628482082636" lon="13.830268402203439"><ele>665.0</ele><time>2026-04-30T10:19:33Z</time></trkpt><trkpt lat="37.72171169457412" lon="13.8302015982515"><ele>665.0</ele><time>2026-04-30T10:19:34Z</time></trkpt><trkpt lat="37.72179814080104" lon="13.830127242181101"><ele>663.4</ele><time>2026-04-30T10:19:35Z</time></trkpt><trkpt lat="37.72188018511613" lon="13.830048287129644"><ele>661.8</ele><time>2026-04-30T10:19:36Z</time></trkpt><trkpt lat="37.72195842971018" lon="13.8299619518764"><ele>660.2</ele><time>2026-04-30T10:19:37Z</time></trkpt><trkpt lat="37.72203797040869" lon="13.829882718547552"><ele>658.6</ele><time>2026-04-30T10:19:38Z</time></trkpt><trkpt lat="37.72211725393552" lon="13.829817763027469"><ele>657.0</ele><time>2026-04-30T10:19:39Z</time></trkpt><trkpt lat="37.72219223288693" lon="13.82975445477749"><ele>657.0</ele><time>2026-04-30T10:19:40Z</time></trkpt><trkpt lat="37.72226768822634" lon="13.829705355127002"><ele>657.0</ele><time>2026-04-30T10:19:41Z</time></trkpt><trkpt lat="37.72234898683035" lon="13.829649440837617"><ele>657.0</ele><time>2026-04-30T10:19:42Z</time></trkpt><trkpt lat="37.722425363833224" lon="13.829579127055291"><ele>657.0</ele><time>2026-04-30T10:19:43Z</time></trkpt><trkpt lat="37.722493477750014" lon="13.829505745824607"><ele>657.0</ele><time>2026-04-30T10:19:44Z</time></trkpt><trkpt lat="37.7225566651404" lon="13.829424990757142"><ele>657.0</ele><time>2026-04-30T10:19:45Z</time></trkpt><trkpt lat="37.72261714061933" lon="13.829333035048476"><ele>657.0</ele><time>2026-04-30T10:19:46Z</time></trkpt><trkpt lat="37.722677919579766" lon="13.829234948715081"><ele>657.0</ele><time>2026-04-30T10:19:47Z</time></trkpt><trkpt lat="37.72273637121076" lon="13.829131811084949"><ele>657.0</ele><time>2026-04-30T10:19:48Z</time></trkpt><trkpt lat="37.72279018293862" lon="13.829026391657539"><ele>657.0</ele><time>2026-04-30T10:19:49Z</time></trkpt><trkpt lat="37.72283768346867" lon="13.828913091744202"><ele>658.0</ele><time>2026-04-30T10:19:50Z</time></trkpt><trkpt lat="37.72287213148801" lon="13.828801688309857"><ele>659.0</ele><time>2026-04-30T10:19:51Z</time></trkpt><trkpt lat="37.7228865988489" lon="13.828685218007921"><ele>660.0</ele><time>2026-04-30T10:19:52Z</time></trkpt><trkpt lat="37.72287816587445" lon="13.8285675837017"><ele>661.0</ele><time>2026-04-30T10:19:53Z</time></trkpt><trkpt lat="37.72286402369222" lon="13.828455942238392"><ele>662.0</ele><time>2026-04-30T10:19:54Z</time></trkpt><trkpt lat="37.722858723356346" lon="13.82835030384887"><ele>659.6666666666666</ele><time>2026-04-30T10:19:55Z</time></trkpt><trkpt lat="37.72286234417711" lon="13.828239976065502"><ele>657.3333333333333</ele><time>2026-04-30T10:19:56Z</time></trkpt><trkpt lat="37.72287778797366" lon="13.828138352044082"><ele>655.0</ele><time>2026-04-30T10:19:57Z</time></trkpt><trkpt lat="37.722913257336714" lon="13.828045616679852"><ele>652.6666666666666</ele><time>2026-04-30T10:19:58Z</time></trkpt><trkpt lat="37.72296746169351" lon="13.827963490869989"><ele>650.3333333333334</ele><time>2026-04-30T10:19:59Z</time></trkpt><trkpt lat="37.723041574544084" lon="13.82789497357559"><ele>648.0</ele><time>2026-04-30T10:20:00Z</time></trkpt><trkpt lat="37.72312686765005" lon="13.827822090719094"><ele>648.0</ele><time>2026-04-30T10:20:01Z</time></trkpt><trkpt lat="37.72322254327546" lon="13.827742363193497"><ele>648.0</ele><time>2026-04-30T10:20:02Z</time></trkpt><trkpt lat="37.7233167282872" lon="13.82766923281994"><ele>648.0</ele><time>2026-04-30T10:20:03Z</time></trkpt><trkpt lat="37.72340650547637" lon="13.827601130812289"><ele>648.0</ele><time>2026-04-30T10:20:04Z</time></trkpt><trkpt lat="37.72350514911364" lon="13.827524517319143"><ele>648.0</ele><time>2026-04-30T10:20:05Z</time></trkpt><trkpt lat="37.723608684747504" lon="13.827436212423498"><ele>646.0</ele><time>2026-04-30T10:20:06Z</time></trkpt><trkpt lat="37.72370909258404" lon="13.827338056007111"><ele>644.0</ele><time>2026-04-30T10:20:07Z</time></trkpt><trkpt lat="37.72381142191178" lon="13.827252680054274"><ele>642.0</ele><time>2026-04-30T10:20:08Z</time></trkpt><trkpt lat="37.72391000481606" lon="13.827181911926015"><ele>640.0</ele><time>2026-04-30T10:20:09Z</time></trkpt><trkpt lat="37.72400164890726" lon="13.827120316260704"><ele>640.0</ele><time>2026-04-30T10:20:10Z</time></trkpt><trkpt lat="37.724096090383576" lon="13.827058324079383"><ele>640.0</ele><time>2026-04-30T10:20:11Z</time></trkpt><trkpt lat="37.72419210874247" lon="13.827017567535083"><ele>640.0</ele><time>2026-04-30T10:20:12.001Z</time></trkpt><trkpt lat="37.724291192876684" lon="13.826992681094069"><ele>640.0</ele><time>2026-04-30T10:20:13.001Z</time></trkpt><trkpt lat="37.724380543920134" lon="13.826969567356581"><ele>640.0</ele><time>2026-04-30T10:20:14.001Z</time></trkpt><trkpt lat="37.724459203860675" lon="13.826930604951828"><ele>640.4</ele><time>2026-04-30T10:20:15.001Z</time></trkpt><trkpt lat="37.724531156382355" lon="13.826873270119771"><ele>640.8</ele><time>2026-04-30T10:20:16.001Z</time></trkpt><trkpt lat="37.72459054956079" lon="13.826794771976054"><ele>641.2</ele><time>2026-04-30T10:20:17.001Z</time></trkpt><trkpt lat="37.724631696684554" lon="13.826699643735292"><ele>641.6</ele><time>2026-04-30T10:20:18.001Z</time></trkpt><trkpt lat="37.72465469180768" lon="13.826581479100472"><ele>642.0</ele><time>2026-04-30T10:20:19.001Z</time></trkpt><trkpt lat="37.7246528645727" lon="13.826457245721894"><ele>641.2</ele><time>2026-04-30T10:20:20.001Z</time></trkpt><trkpt lat="37.72462972565525" lon="13.826343584830067"><ele>640.4000000000001</ele><time>2026-04-30T10:20:21.001Z</time></trkpt><trkpt lat="37.724613203940166" lon="13.82623335264899"><ele>639.5999999999999</ele><time>2026-04-30T10:20:22.001Z</time></trkpt><trkpt lat="37.72462383054607" lon="13.826114730426687"><ele>638.8</ele><time>2026-04-30T10:20:23.001Z</time></trkpt><trkpt lat="37.72466401269295" lon="13.82600571033749"><ele>638.0</ele><time>2026-04-30T10:20:24.001Z</time></trkpt><trkpt lat="37.724724219953735" lon="13.825913311352535"><ele>637.1999999999999</ele><time>2026-04-30T10:20:25.001Z</time></trkpt><trkpt lat="37.72479574608411" lon="13.825838605256257"><ele>636.4</ele><time>2026-04-30T10:20:26.001Z</time></trkpt><trkpt lat="37.72487959749524" lon="13.82578023370826"><ele>635.5999999999999</ele><time>2026-04-30T10:20:27.001Z</time></trkpt><trkpt lat="37.72497472889531" lon="13.825741110974526"><ele>634.8</ele><time>2026-04-30T10:20:28Z</time></trkpt><trkpt lat="37.72507422183138" lon="13.825706236919958"><ele>634.0</ele><time>2026-04-30T10:20:29Z</time></trkpt><trkpt lat="37.7251711252043" lon="13.825674387542652"><ele>634.2</ele><time>2026-04-30T10:20:30Z</time></trkpt><trkpt lat="37.72527175169883" lon="13.825634979773488"><ele>634.4</ele><time>2026-04-30T10:20:31Z</time></trkpt><trkpt lat="37.725367597975705" lon="13.825593809903632"><ele>634.6</ele><time>2026-04-30T10:20:32Z</time></trkpt><trkpt lat="37.725469622916144" lon="13.825552191829845"><ele>634.8</ele><time>2026-04-30T10:20:33Z</time></trkpt><trkpt lat="37.72556919072825" lon="13.825508233489282"><ele>635.0</ele><time>2026-04-30T10:20:34Z</time></trkpt><trkpt lat="37.72566573774165" lon="13.825471155812226"><ele>635.0</ele><time>2026-04-30T10:20:35Z</time></trkpt><trkpt lat="37.725757460179764" lon="13.825434575444568"><ele>635.0</ele><time>2026-04-30T10:20:36Z</time></trkpt><trkpt lat="37.72584499387182" lon="13.825394027353438"><ele>635.0</ele><time>2026-04-30T10:20:37Z</time></trkpt><trkpt lat="37.725929273605345" lon="13.825356986963826"><ele>635.0</ele><time>2026-04-30T10:20:38Z</time></trkpt><trkpt lat="37.726011209771954" lon="13.825322056357837"><ele>635.0</ele><time>2026-04-30T10:20:39Z</time></trkpt><trkpt lat="37.72608584469368" lon="13.825292011735693"><ele>635.0</ele><time>2026-04-30T10:20:40Z</time></trkpt><trkpt lat="37.726160308337185" lon="13.82526750287784"><ele>634.6666666666666</ele><time>2026-04-30T10:20:41Z</time></trkpt><trkpt lat="37.72624166018881" lon="13.825253564920699"><ele>634.3333333333333</ele><time>2026-04-30T10:20:42Z</time></trkpt><trkpt lat="37.72632485494279" lon="13.825247788616238"><ele>634.0</ele><time>2026-04-30T10:20:43Z</time></trkpt><trkpt lat="37.72640503287479" lon="13.82524687206249"><ele>633.6666666666666</ele><time>2026-04-30T10:20:44Z</time></trkpt><trkpt lat="37.726480257447065" lon="13.825247903142643"><ele>633.3333333333334</ele><time>2026-04-30T10:20:45Z</time></trkpt><trkpt lat="37.7265596927735" lon="13.825238873723983"><ele>633.0</ele><time>2026-04-30T10:20:46Z</time></trkpt><trkpt lat="37.726643574912615" lon="13.825233907644224"><ele>633.0</ele><time>2026-04-30T10:20:47Z</time></trkpt><trkpt lat="37.72672198340557" lon="13.825227398320065"><ele>633.0</ele><time>2026-04-30T10:20:48Z</time></trkpt><trkpt lat="37.72680427027278" lon="13.825212947373007"><ele>633.0</ele><time>2026-04-30T10:20:49Z</time></trkpt><trkpt lat="37.72688727086292" lon="13.825193862675539"><ele>633.0</ele><time>2026-04-30T10:20:50Z</time></trkpt><trkpt lat="37.726978879665346" lon="13.825169102274804"><ele>633.0</ele><time>2026-04-30T10:20:51Z</time></trkpt><trkpt lat="37.72707391492913" lon="13.825134370750494"><ele>633.0</ele><time>2026-04-30T10:20:52Z</time></trkpt><trkpt lat="37.727169463573446" lon="13.825084938194369"><ele>631.0</ele><time>2026-04-30T10:20:53Z</time></trkpt><trkpt lat="37.72726179288152" lon="13.825014331946885"><ele>629.0</ele><time>2026-04-30T10:20:54Z</time></trkpt><trkpt lat="37.72735561110785" lon="13.824940297694098"><ele>627.0</ele><time>2026-04-30T10:20:55Z</time></trkpt><trkpt lat="37.72745524389546" lon="13.824874132963895"><ele>625.0</ele><time>2026-04-30T10:20:56Z</time></trkpt><trkpt lat="37.727554460008434" lon="13.824803404473661"><ele>623.0</ele><time>2026-04-30T10:20:57Z</time></trkpt><trkpt lat="37.72764820715543" lon="13.824723083846726"><ele>625.0</ele><time>2026-04-30T10:20:58Z</time></trkpt><trkpt lat="37.72774441879812" lon="13.824641852034757"><ele>627.0</ele><time>2026-04-30T10:20:59Z</time></trkpt><trkpt lat="37.727837518652834" lon="13.824549948374612"><ele>629.0</ele><time>2026-04-30T10:21:00Z</time></trkpt><trkpt lat="37.72793516676802" lon="13.824459290731427"><ele>631.0</ele><time>2026-04-30T10:21:01Z</time></trkpt><trkpt lat="37.728035847203024" lon="13.824375011723637"><ele>628.8</ele><time>2026-04-30T10:21:02Z</time></trkpt><trkpt lat="37.728135501538745" lon="13.824291915684546"><ele>626.6</ele><time>2026-04-30T10:21:03Z</time></trkpt><trkpt lat="37.728232899287406" lon="13.824220366054753"><ele>624.4</ele><time>2026-04-30T10:21:04Z</time></trkpt><trkpt lat="37.72832318123755" lon="13.824168171604724"><ele>622.2</ele><time>2026-04-30T10:21:05Z</time></trkpt><trkpt lat="37.7284138101829" lon="13.824137933794738"><ele>620.0</ele><time>2026-04-30T10:21:06Z</time></trkpt><trkpt lat="37.72851092528529" lon="13.824125554182588"><ele>622.8</ele><time>2026-04-30T10:21:07Z</time></trkpt><trkpt lat="37.728602913392166" lon="13.824109122887647"><ele>625.6</ele><time>2026-04-30T10:21:08Z</time></trkpt><trkpt lat="37.72869071898665" lon="13.824077921014277"><ele>628.4</ele><time>2026-04-30T10:21:09Z</time></trkpt><trkpt lat="37.72877488834616" lon="13.82402822731829"><ele>631.2</ele><time>2026-04-30T10:21:10Z</time></trkpt><trkpt lat="37.72885358215735" lon="13.823957024659492"><ele>634.0</ele><time>2026-04-30T10:21:11Z</time></trkpt><trkpt lat="37.728924739060844" lon="13.823873088923522"><ele>634.0</ele><time>2026-04-30T10:21:12Z</time></trkpt><trkpt lat="37.72899245230814" lon="13.823775561105537"><ele>634.0</ele><time>2026-04-30T10:21:13Z</time></trkpt><trkpt lat="37.72905351291563" lon="13.82366853340171"><ele>634.0</ele><time>2026-04-30T10:21:14Z</time></trkpt><trkpt lat="37.729113368721514" lon="13.823572873777515"><ele>634.0</ele><time>2026-04-30T10:21:15Z</time></trkpt><trkpt lat="37.72919249958541" lon="13.823499995809923"><ele>634.0</ele><time>2026-04-30T10:21:16Z</time></trkpt><trkpt lat="37.7292819999417" lon="13.823455621716331"><ele>632.4</ele><time>2026-04-30T10:21:17Z</time></trkpt><trkpt lat="37.72938157827032" lon="13.8234316361482"><ele>630.8</ele><time>2026-04-30T10:21:18Z</time></trkpt><trkpt lat="37.729486590528595" lon="13.823399959169958"><ele>629.2</ele><time>2026-04-30T10:21:19Z</time></trkpt><trkpt lat="37.72959529419783" lon="13.82334029441814"><ele>627.6</ele><time>2026-04-30T10:21:20Z</time></trkpt><trkpt lat="37.729705099907676" lon="13.82327486786773"><ele>626.0</ele><time>2026-04-30T10:21:21Z</time></trkpt><trkpt lat="37.729815409347395" lon="13.823218481701032"><ele>626.0</ele><time>2026-04-30T10:21:22Z</time></trkpt><trkpt lat="37.72992920192257" lon="13.823171512964011"><ele>626.0</ele><time>2026-04-30T10:21:23Z</time></trkpt><trkpt lat="37.73004100749167" lon="13.823125328913486"><ele>626.0</ele><time>2026-04-30T10:21:24Z</time></trkpt><trkpt lat="37.730154050486256" lon="13.823076154814652"><ele>626.0</ele><time>2026-04-30T10:21:25Z</time></trkpt><trkpt lat="37.73027447681957" lon="13.823030085698187"><ele>627.25</ele><time>2026-04-30T10:21:26Z</time></trkpt><trkpt lat="37.73039889185712" lon="13.822986400475767"><ele>628.5</ele><time>2026-04-30T10:21:27Z</time></trkpt><trkpt lat="37.73052849186531" lon="13.822933075087025"><ele>629.75</ele><time>2026-04-30T10:21:28Z</time></trkpt><trkpt lat="37.73065123807642" lon="13.822875371726132"><ele>631.0</ele><time>2026-04-30T10:21:29Z</time></trkpt><trkpt lat="37.730758107095085" lon="13.822818513829883"><ele>631.0</ele><time>2026-04-30T10:21:30Z</time></trkpt><trkpt lat="37.73085992557674" lon="13.822764597494485"><ele>631.0</ele><time>2026-04-30T10:21:31Z</time></trkpt><trkpt lat="37.730973911788745" lon="13.82271481639209"><ele>631.0</ele><time>2026-04-30T10:21:32Z</time></trkpt><trkpt lat="37.73109921342156" lon="13.822667410239216"><ele>631.0</ele><time>2026-04-30T10:21:33Z</time></trkpt><trkpt lat="37.731227201322" lon="13.822602447845894"><ele>630.25</ele><time>2026-04-30T10:21:34Z</time></trkpt><trkpt lat="37.73135812958449" lon="13.822533508756727"><ele>629.5</ele><time>2026-04-30T10:21:35Z</time></trkpt><trkpt lat="37.731494085292766" lon="13.822466867846105"><ele>628.75</ele><time>2026-04-30T10:21:36Z</time></trkpt><trkpt lat="37.73162575894421" lon="13.822406346608847"><ele>628.0</ele><time>2026-04-30T10:21:37Z</time></trkpt><trkpt lat="37.731757352013986" lon="13.82234720484099"><ele>629.25</ele><time>2026-04-30T10:21:38Z</time></trkpt><trkpt lat="37.73189328407117" lon="13.822283183156504"><ele>630.5</ele><time>2026-04-30T10:21:39Z</time></trkpt><trkpt lat="37.73203242175639" lon="13.822218680879004"><ele>631.75</ele><time>2026-04-30T10:21:40Z</time></trkpt><trkpt lat="37.73216573032009" lon="13.82215024462187"><ele>633.0</ele><time>2026-04-30T10:21:41Z</time></trkpt><trkpt lat="37.73229346586227" lon="13.822074027130896"><ele>633.0</ele><time>2026-04-30T10:21:42Z</time></trkpt><trkpt lat="37.73241929548863" lon="13.821993024978097"><ele>633.0</ele><time>2026-04-30T10:21:43Z</time></trkpt><trkpt lat="37.73254697037007" lon="13.821915578680935"><ele>633.0</ele><time>2026-04-30T10:21:44Z</time></trkpt><trkpt lat="37.732666276369294" lon="13.821845957598212"><ele>633.0</ele><time>2026-04-30T10:21:45Z</time></trkpt><trkpt lat="37.73277988170519" lon="13.821779340494775"><ele>631.5</ele><time>2026-04-30T10:21:46Z</time></trkpt><trkpt lat="37.73289012384506" lon="13.821715039373846"><ele>630.0</ele><time>2026-04-30T10:21:47Z</time></trkpt><trkpt lat="37.7329972410232" lon="13.821652418087814"><ele>628.5</ele><time>2026-04-30T10:21:48Z</time></trkpt><trkpt lat="37.73310587587422" lon="13.821584459157467"><ele>627.0</ele><time>2026-04-30T10:21:49Z</time></trkpt><trkpt lat="37.733229411014065" lon="13.82151657891132"><ele>627.0</ele><time>2026-04-30T10:21:50Z</time></trkpt><trkpt lat="37.73335610876047" lon="13.821460921999863"><ele>627.0</ele><time>2026-04-30T10:21:51Z</time></trkpt><trkpt lat="37.733487203397885" lon="13.821421893714426"><ele>627.0</ele><time>2026-04-30T10:21:52Z</time></trkpt><trkpt lat="37.73361156575878" lon="13.821392736900888"><ele>627.0</ele><time>2026-04-30T10:21:53Z</time></trkpt><trkpt lat="37.73373519721643" lon="13.821363341782265"><ele>626.75</ele><time>2026-04-30T10:21:54Z</time></trkpt><trkpt lat="37.73385654947653" lon="13.821332122679955"><ele>626.5</ele><time>2026-04-30T10:21:55Z</time></trkpt><trkpt lat="37.733975039048346" lon="13.821306670672513"><ele>626.25</ele><time>2026-04-30T10:21:56Z</time></trkpt><trkpt lat="37.73408972766124" lon="13.821289490797062"><ele>626.0</ele><time>2026-04-30T10:21:57Z</time></trkpt><trkpt lat="37.73418890824887" lon="13.821296886672846"><ele>626.0</ele><time>2026-04-30T10:21:58Z</time></trkpt><trkpt lat="37.73428982597908" lon="13.821327301940647"><ele>626.0</ele><time>2026-04-30T10:21:59Z</time></trkpt><trkpt lat="37.73438970669485" lon="13.82137553136297"><ele>626.0</ele><time>2026-04-30T10:22:00Z</time></trkpt><trkpt lat="37.734491077123444" lon="13.821446765777225"><ele>626.0</ele><time>2026-04-30T10:22:01Z</time></trkpt><trkpt lat="37.734580056376984" lon="13.821528960340418"><ele>626.0</ele><time>2026-04-30T10:22:02Z</time></trkpt><trkpt lat="37.73466708266915" lon="13.821605613188815"><ele>624.8</ele><time>2026-04-30T10:22:03Z</time></trkpt><trkpt lat="37.734757538073765" lon="13.821659434914933"><ele>623.6</ele><time>2026-04-30T10:22:04Z</time></trkpt><trkpt lat="37.73485380301289" lon="13.821687176972288"><ele>622.4</ele><time>2026-04-30T10:22:05Z</time></trkpt><trkpt lat="37.7349457793993" lon="13.821688780094616"><ele>621.2</ele><time>2026-04-30T10:22:06Z</time></trkpt><trkpt lat="37.73503708390054" lon="13.821682517967439"><ele>620.0</ele><time>2026-04-30T10:22:07Z</time></trkpt><trkpt lat="37.73511434894896" lon="13.821681978663621"><ele>620.0</ele><time>2026-04-30T10:22:08Z</time></trkpt><trkpt lat="37.735205161251294" lon="13.821682054216808"><ele>620.0</ele><time>2026-04-30T10:22:10Z</time></trkpt><trkpt lat="37.7352719749281" lon="13.821678831873196"><ele>620.0</ele><time>2026-04-30T10:22:12.001Z</time></trkpt><trkpt lat="37.7353807800793" lon="13.821640787586032"><ele>620.0</ele><time>2026-04-30T10:22:14.001Z</time></trkpt><trkpt lat="37.73548325565731" lon="13.821579026508216"><ele>620.0</ele><time>2026-04-30T10:22:16.001Z</time></trkpt><trkpt lat="37.73555259903882" lon="13.821516980000734"><ele>621.6</ele><time>2026-04-30T10:22:18.001Z</time></trkpt><trkpt lat="37.73560206370173" lon="13.82145707067354"><ele>623.2</ele><time>2026-04-30T10:22:20.001Z</time></trkpt><trkpt lat="37.73567391507067" lon="13.821363418056757"><ele>624.8</ele><time>2026-04-30T10:22:22.001Z</time></trkpt><trkpt lat="37.73575005269181" lon="13.82126850435164"><ele>626.4</ele><time>2026-04-30T10:22:24.001Z</time></trkpt><trkpt lat="37.735869157969994" lon="13.821179065247446"><ele>628.0</ele><time>2026-04-30T10:22:26.001Z</time></trkpt><trkpt lat="37.73595396957993" lon="13.821151170691373"><ele>631.25</ele><time>2026-04-30T10:22:27.001Z</time></trkpt><trkpt lat="37.736060483781" lon="13.821137544074952"><ele>634.5</ele><time>2026-04-30T10:22:28.001Z</time></trkpt><trkpt lat="37.736186229656845" lon="13.821133420797443"><ele>637.75</ele><time>2026-04-30T10:22:29.001Z</time></trkpt><trkpt lat="37.73631879708554" lon="13.821135723294399"><ele>641.0</ele><time>2026-04-30T10:22:30.001Z</time></trkpt><trkpt lat="37.73645979471433" lon="13.821143036663841"><ele>641.0</ele><time>2026-04-30T10:22:31.001Z</time></trkpt><trkpt lat="37.736609244321464" lon="13.82115298077338"><ele>641.0</ele><time>2026-04-30T10:22:32.001Z</time></trkpt><trkpt lat="37.73674672686736" lon="13.821165793113945"><ele>641.0</ele><time>2026-04-30T10:22:33.001Z</time></trkpt><trkpt lat="37.73688218293294" lon="13.821176580531468"><ele>641.0</ele><time>2026-04-30T10:22:34.001Z</time></trkpt><trkpt lat="37.73701628382477" lon="13.821187077820735"><ele>644.25</ele><time>2026-04-30T10:22:35.001Z</time></trkpt><trkpt lat="37.73713809736868" lon="13.821195233145394"><ele>647.5</ele><time>2026-04-30T10:22:36.001Z</time></trkpt><trkpt lat="37.73728040742311" lon="13.821202149225298"><ele>650.75</ele><time>2026-04-30T10:22:37.001Z</time></trkpt><trkpt lat="37.73744528855731" lon="13.821220665562587"><ele>654.0</ele><time>2026-04-30T10:22:38.001Z</time></trkpt><trkpt lat="37.7376286183746" lon="13.821225313420294"><ele>658.3333333333334</ele><time>2026-04-30T10:22:39.001Z</time></trkpt><trkpt lat="37.73781854453006" lon="13.821215385936355"><ele>662.6666666666667</ele><time>2026-04-30T10:22:40.001Z</time></trkpt><trkpt lat="37.738007773967844" lon="13.821197434346686"><ele>667.0</ele><time>2026-04-30T10:22:41.001Z</time></trkpt><trkpt lat="37.73818467827157" lon="13.82117265513529"><ele>667.0</ele><time>2026-04-30T10:22:42Z</time></trkpt><trkpt lat="37.73834315963046" lon="13.821143018749819"><ele>667.0</ele><time>2026-04-30T10:22:43Z</time></trkpt><trkpt lat="37.7384862614367" lon="13.821112236122385"><ele>667.0</ele><time>2026-04-30T10:22:44Z</time></trkpt><trkpt lat="37.738635783166615" lon="13.821087514096865"><ele>670.3333333333334</ele><time>2026-04-30T10:22:45Z</time></trkpt><trkpt lat="37.738794519098334" lon="13.821061359395161"><ele>673.6666666666666</ele><time>2026-04-30T10:22:46Z</time></trkpt><trkpt lat="37.73896116684263" lon="13.821015763287496"><ele>677.0</ele><time>2026-04-30T10:22:47Z</time></trkpt><trkpt lat="37.73911341649133" lon="13.820968374203755"><ele>679.0</ele><time>2026-04-30T10:22:48Z</time></trkpt><trkpt lat="37.73926511270016" lon="13.820914227815592"><ele>681.0</ele><time>2026-04-30T10:22:49Z</time></trkpt><trkpt lat="37.739431868962505" lon="13.820871052640745"><ele>683.0</ele><time>2026-04-30T10:22:50Z</time></trkpt><trkpt lat="37.73960653333001" lon="13.820817068341817"><ele>685.6666666666666</ele><time>2026-04-30T10:22:51Z</time></trkpt><trkpt lat="37.73977736759578" lon="13.820757008886275"><ele>688.3333333333334</ele><time>2026-04-30T10:22:52Z</time></trkpt><trkpt lat="37.739940259003724" lon="13.82070657782874"><ele>691.0</ele><time>2026-04-30T10:22:53Z</time></trkpt><trkpt lat="37.74010306329133" lon="13.820660259642592"><ele>693.6666666666667</ele><time>2026-04-30T10:22:54Z</time></trkpt><trkpt lat="37.74027095593696" lon="13.82061024752561"><ele>696.3333333333334</ele><time>2026-04-30T10:22:55Z</time></trkpt><trkpt lat="37.74044370627774" lon="13.820552995657339"><ele>699.0</ele><time>2026-04-30T10:22:56Z</time></trkpt><trkpt lat="37.74060526290368" lon="13.82049779700535"><ele>699.0</ele><time>2026-04-30T10:22:57Z</time></trkpt><trkpt lat="37.740762585301745" lon="13.820444578356916"><ele>699.0</ele><time>2026-04-30T10:22:58Z</time></trkpt><trkpt lat="37.74091955097382" lon="13.820386128574242"><ele>699.0</ele><time>2026-04-30T10:22:59Z</time></trkpt><trkpt lat="37.74106988554785" lon="13.820329724370184"><ele>700.6666666666666</ele><time>2026-04-30T10:23:00Z</time></trkpt><trkpt lat="37.7412205213749" lon="13.820275340369456"><ele>702.3333333333333</ele><time>2026-04-30T10:23:01Z</time></trkpt><trkpt lat="37.74137204883552" lon="13.820208809765044"><ele>704.0</ele><time>2026-04-30T10:23:02Z</time></trkpt><trkpt lat="37.741529586414586" lon="13.820143380475514"><ele>707.3333333333333</ele><time>2026-04-30T10:23:03Z</time></trkpt><trkpt lat="37.741685883682564" lon="13.82008356789765"><ele>710.6666666666666</ele><time>2026-04-30T10:23:04Z</time></trkpt><trkpt lat="37.741835974136265" lon="13.820031274356282"><ele>714.0</ele><time>2026-04-30T10:23:05Z</time></trkpt><trkpt lat="37.74197132389019" lon="13.819987714537838"><ele>715.0</ele><time>2026-04-30T10:23:06Z</time></trkpt><trkpt lat="37.74209572397018" lon="13.819942175627675"><ele>716.0</ele><time>2026-04-30T10:23:07Z</time></trkpt><trkpt lat="37.74220063162885" lon="13.819896923345317"><ele>717.0</ele><time>2026-04-30T10:23:08Z</time></trkpt><trkpt lat="37.742259806235566" lon="13.819867010711091"><ele>718.0</ele><time>2026-04-30T10:23:09Z</time></trkpt><trkpt lat="37.74235584096457" lon="13.819822212643432"><ele>719.0</ele><time>2026-04-30T10:23:11Z</time></trkpt><trkpt lat="37.742438235608184" lon="13.819787674370193"><ele>719.0</ele><time>2026-04-30T10:23:12Z</time></trkpt><trkpt lat="37.74252841487933" lon="13.819733850178766"><ele>719.0</ele><time>2026-04-30T10:23:13Z</time></trkpt><trkpt lat="37.742637101924096" lon="13.819662865727205"><ele>719.0</ele><time>2026-04-30T10:23:14Z</time></trkpt><trkpt lat="37.74275474222025" lon="13.81958410226281"><ele>719.0</ele><time>2026-04-30T10:23:15Z</time></trkpt><trkpt lat="37.74287776761527" lon="13.819512907209912"><ele>722.5</ele><time>2026-04-30T10:23:16Z</time></trkpt><trkpt lat="37.743002526980725" lon="13.819438900434598"><ele>726.0</ele><time>2026-04-30T10:23:17Z</time></trkpt><trkpt lat="37.74310799966888" lon="13.819378950915272"><ele>729.5</ele><time>2026-04-30T10:23:18Z</time></trkpt><trkpt lat="37.7432059380021" lon="13.819358255446904"><ele>733.0</ele><time>2026-04-30T10:23:19Z</time></trkpt><trkpt lat="37.74331941175251" lon="13.819338411156155"><ele>735.75</ele><time>2026-04-30T10:23:20Z</time></trkpt><trkpt lat="37.74343754498746" lon="13.819307156514823"><ele>738.5</ele><time>2026-04-30T10:23:21Z</time></trkpt><trkpt lat="37.743542060683986" lon="13.819300850851532"><ele>741.25</ele><time>2026-04-30T10:23:22Z</time></trkpt><trkpt lat="37.74369268250456" lon="13.819257552062576"><ele>744.0</ele><time>2026-04-30T10:23:23Z</time></trkpt><trkpt lat="37.743804309851384" lon="13.819223733811684"><ele>746.0</ele><time>2026-04-30T10:23:24Z</time></trkpt><trkpt lat="37.74388990072918" lon="13.819187740899846"><ele>748.0</ele><time>2026-04-30T10:23:25Z</time></trkpt><trkpt lat="37.74397289259277" lon="13.819141439517525"><ele>750.0</ele><time>2026-04-30T10:23:26Z</time></trkpt><trkpt lat="37.744052954039695" lon="13.81909488926582"><ele>752.0</ele><time>2026-04-30T10:23:27Z</time></trkpt><trkpt lat="37.7441346396693" lon="13.819052429330647"><ele>754.0</ele><time>2026-04-30T10:23:28Z</time></trkpt><trkpt lat="37.744196473707845" lon="13.819020637511398"><ele>756.0</ele><time>2026-04-30T10:23:29Z</time></trkpt><trkpt lat="37.74425794255187" lon="13.818969113161097"><ele>756.0</ele><time>2026-04-30T10:23:53Z</time></trkpt><trkpt lat="37.74432148561375" lon="13.818932014368327"><ele>756.0</ele><time>2026-04-30T10:23:55Z</time></trkpt><trkpt lat="37.74439538999446" lon="13.818922877111147"><ele>756.0</ele><time>2026-04-30T10:23:56Z</time></trkpt><trkpt lat="37.74447277083907" lon="13.818893479924576"><ele>756.0</ele><time>2026-04-30T10:23:57Z</time></trkpt><trkpt lat="37.744549328863066" lon="13.818868369189444"><ele>756.0</ele><time>2026-04-30T10:23:58Z</time></trkpt><trkpt lat="37.74463566306902" lon="13.81885744766104"><ele>756.0</ele><time>2026-04-30T10:23:59Z</time></trkpt><trkpt lat="37.74472011561185" lon="13.818861050144134"><ele>758.1666666666666</ele><time>2026-04-30T10:24:00Z</time></trkpt><trkpt lat="37.7448125565865" lon="13.818869530055688"><ele>760.3333333333333</ele><time>2026-04-30T10:24:01Z</time></trkpt><trkpt lat="37.74490722349615" lon="13.818876696423915"><ele>762.5</ele><time>2026-04-30T10:24:02Z</time></trkpt><trkpt lat="37.74498626321162" lon="13.818866044531012"><ele>764.6666666666666</ele><time>2026-04-30T10:24:03Z</time></trkpt><trkpt lat="37.74505962058191" lon="13.818841701854504"><ele>766.8333333333333</ele><time>2026-04-30T10:24:04Z</time></trkpt><trkpt lat="37.745127652724626" lon="13.81879177820599"><ele>769.0</ele><time>2026-04-30T10:24:05Z</time></trkpt><trkpt lat="37.74521226180603" lon="13.818736935019832"><ele>771.4000000000001</ele><time>2026-04-30T10:24:06Z</time></trkpt><trkpt lat="37.74529790539091" lon="13.818698386465098"><ele>773.8</ele><time>2026-04-30T10:24:07Z</time></trkpt><trkpt lat="37.74538763862009" lon="13.818659690695382"><ele>776.2</ele><time>2026-04-30T10:24:08Z</time></trkpt><trkpt lat="37.7454738979718" lon="13.81862992718771"><ele>778.5999999999999</ele><time>2026-04-30T10:24:09Z</time></trkpt><trkpt lat="37.7455751637725" lon="13.818609015755387"><ele>781.0</ele><time>2026-04-30T10:24:10Z</time></trkpt><trkpt lat="37.74566562396492" lon="13.818588160489647"><ele>781.0</ele><time>2026-04-30T10:24:11Z</time></trkpt><trkpt lat="37.745797598669434" lon="13.81854326979885"><ele>781.0</ele><time>2026-04-30T10:24:13Z</time></trkpt><trkpt lat="37.74587468206556" lon="13.818518728649366"><ele>781.0</ele><time>2026-04-30T10:24:14Z</time></trkpt><trkpt lat="37.74601319365899" lon="13.818559087130952"><ele>781.0</ele><time>2026-04-30T10:24:16Z</time></trkpt><trkpt lat="37.74609265064242" lon="13.818598677672083"><ele>781.0</ele><time>2026-04-30T10:24:17Z</time></trkpt><trkpt lat="37.74618805347785" lon="13.818616140039149"><ele>783.1666666666666</ele><time>2026-04-30T10:24:18Z</time></trkpt><trkpt lat="37.74627544057719" lon="13.818617857549736"><ele>785.3333333333333</ele><time>2026-04-30T10:24:19Z</time></trkpt><trkpt lat="37.74636226518116" lon="13.818617325761066"><ele>787.5</ele><time>2026-04-30T10:24:20Z</time></trkpt><trkpt lat="37.74644632139363" lon="13.81862034096819"><ele>789.6666666666667</ele><time>2026-04-30T10:24:21Z</time></trkpt><trkpt lat="37.74653207514292" lon="13.818617954543827"><ele>791.8333333333334</ele><time>2026-04-30T10:24:22Z</time></trkpt><trkpt lat="37.746613951656386" lon="13.818617937950583"><ele>794.0</ele><time>2026-04-30T10:24:23Z</time></trkpt><trkpt lat="37.74670050690874" lon="13.818623149237327"><ele>794.0</ele><time>2026-04-30T10:24:24Z</time></trkpt><trkpt lat="37.74680091837401" lon="13.818602888731544"><ele>794.0</ele><time>2026-04-30T10:24:25Z</time></trkpt><trkpt lat="37.746884159429136" lon="13.818569041677693"><ele>794.0</ele><time>2026-04-30T10:24:26Z</time></trkpt><trkpt lat="37.74696009887792" lon="13.818524345018805"><ele>794.0</ele><time>2026-04-30T10:24:27Z</time></trkpt><trkpt lat="37.74705653539346" lon="13.81846782260112"><ele>794.0</ele><time>2026-04-30T10:24:28Z</time></trkpt><trkpt lat="37.7471737542122" lon="13.818423628915099"><ele>796.8333333333334</ele><time>2026-04-30T10:24:29Z</time></trkpt><trkpt lat="37.74726824043939" lon="13.818395827858216"><ele>799.6666666666667</ele><time>2026-04-30T10:24:30Z</time></trkpt><trkpt lat="37.7473371925975" lon="13.818379845396532"><ele>802.5</ele><time>2026-04-30T10:24:31Z</time></trkpt><trkpt lat="37.74740812820897" lon="13.818372254689834"><ele>805.3333333333333</ele><time>2026-04-30T10:24:32Z</time></trkpt><trkpt lat="37.74747838373698" lon="13.81837090350377"><ele>808.1666666666666</ele><time>2026-04-30T10:24:33Z</time></trkpt><trkpt lat="37.7475465889155" lon="13.818368172868203"><ele>811.0</ele><time>2026-04-30T10:24:34Z</time></trkpt><trkpt lat="37.7476237050216" lon="13.818360327516817"><ele>811.0</ele><time>2026-04-30T10:24:35Z</time></trkpt><trkpt lat="37.747705405788345" lon="13.818351496878144"><ele>811.0</ele><time>2026-04-30T10:24:36Z</time></trkpt><trkpt lat="37.74779785476614" lon="13.818337344584018"><ele>811.0</ele><time>2026-04-30T10:24:37Z</time></trkpt><trkpt lat="37.74790158429184" lon="13.818313240347464"><ele>811.0</ele><time>2026-04-30T10:24:38Z</time></trkpt><trkpt lat="37.74799811429657" lon="13.818277375465684"><ele>811.0</ele><time>2026-04-30T10:24:39Z</time></trkpt><trkpt lat="37.748091608513526" lon="13.818246919112482"><ele>813.1666666666666</ele><time>2026-04-30T10:24:40.001Z</time></trkpt><trkpt lat="37.74817167688514" lon="13.818222198153002"><ele>815.3333333333333</ele><time>2026-04-30T10:24:41.001Z</time></trkpt><trkpt lat="37.74824870965057" lon="13.818212178616665"><ele>817.5</ele><time>2026-04-30T10:24:42.001Z</time></trkpt><trkpt lat="37.74832433904011" lon="13.81820731787601"><ele>819.6666666666667</ele><time>2026-04-30T10:24:43.001Z</time></trkpt><trkpt lat="37.7483957642598" lon="13.818191961106292"><ele>821.8333333333334</ele><time>2026-04-30T10:24:44.001Z</time></trkpt><trkpt lat="37.748471288427936" lon="13.81816979502538"><ele>824.0</ele><time>2026-04-30T10:24:45Z</time></trkpt><trkpt lat="37.74854784583936" lon="13.818141372304067"><ele>826.4000000000001</ele><time>2026-04-30T10:24:46Z</time></trkpt><trkpt lat="37.74864929387994" lon="13.818096145170092"><ele>828.8</ele><time>2026-04-30T10:24:48Z</time></trkpt><trkpt lat="37.74871330431872" lon="13.81808873144936"><ele>831.2</ele><time>2026-04-30T10:24:49Z</time></trkpt><trkpt lat="37.748817644790364" lon="13.818107891219793"><ele>833.5999999999999</ele><time>2026-04-30T10:24:50Z</time></trkpt><trkpt lat="37.748948018073854" lon="13.81814245637722"><ele>836.0</ele><time>2026-04-30T10:24:51Z</time></trkpt><trkpt lat="37.749051141045555" lon="13.818139089006065"><ele>836.0000000000001</ele><time>2026-04-30T10:24:52Z</time></trkpt><trkpt lat="37.74913258496325" lon="13.818110034367036"><ele>836.0</ele><time>2026-04-30T10:24:53Z</time></trkpt><trkpt lat="37.7492153824151" lon="13.818078499032675"><ele>836.0</ele><time>2026-04-30T10:24:54Z</time></trkpt><trkpt lat="37.749299360497304" lon="13.818046003928137"><ele>836.0</ele><time>2026-04-30T10:24:55Z</time></trkpt><trkpt lat="37.74936236134182" lon="13.818010424282301"><ele>836.0000000000001</ele><time>2026-04-30T10:24:56Z</time></trkpt><trkpt lat="37.749466696305525" lon="13.81798635414683"><ele>836.0</ele><time>2026-04-30T10:24:58Z</time></trkpt><trkpt lat="37.74954232523705" lon="13.817939680371987"><ele>837.8333333333334</ele><time>2026-04-30T10:25:01Z</time></trkpt><trkpt lat="37.74954603105546" lon="13.817834831946833"><ele>839.6666666666667</ele><time>2026-04-30T10:25:03Z</time></trkpt><trkpt lat="37.74951203123932" lon="13.817747109609785"><ele>841.5</ele><time>2026-04-30T10:25:04Z</time></trkpt><trkpt lat="37.74948336030044" lon="13.817652606746712"><ele>843.3333333333333</ele><time>2026-04-30T10:25:05Z</time></trkpt><trkpt lat="37.74947773144641" lon="13.817562620858563"><ele>845.1666666666666</ele><time>2026-04-30T10:25:06Z</time></trkpt><trkpt lat="37.74948332044996" lon="13.817459448898985"><ele>847.0</ele><time>2026-04-30T10:25:08Z</time></trkpt><trkpt lat="37.74951657767269" lon="13.817373122216818"><ele>846.4000000000001</ele><time>2026-04-30T10:25:11Z</time></trkpt><trkpt lat="37.749583592740436" lon="13.817341896515632"><ele>845.8000000000001</ele><time>2026-04-30T10:25:13Z</time></trkpt><trkpt lat="37.749612574038586" lon="13.817257149686183"><ele>845.2</ele><time>2026-04-30T10:25:16Z</time></trkpt><trkpt lat="37.74949133183472" lon="13.817157920366665"><ele>844.6</ele><time>2026-04-30T10:25:18Z</time></trkpt><trkpt lat="37.74941370218265" lon="13.817075867530493"><ele>844.0</ele><time>2026-04-30T10:25:19Z</time></trkpt><trkpt lat="37.749356111588206" lon="13.816963390524919"><ele>844.0</ele><time>2026-04-30T10:25:20Z</time></trkpt><trkpt lat="37.74932538262535" lon="13.816838926866998"><ele>844.0</ele><time>2026-04-30T10:25:21Z</time></trkpt><trkpt lat="37.74930193178358" lon="13.816725573333938"><ele>844.0</ele><time>2026-04-30T10:25:22Z</time></trkpt><trkpt lat="37.74928109134143" lon="13.816616755817074"><ele>844.0</ele><time>2026-04-30T10:25:23Z</time></trkpt><trkpt lat="37.749267037855425" lon="13.81649021477841"><ele>844.0</ele><time>2026-04-30T10:25:24Z</time></trkpt><trkpt lat="37.749273018987076" lon="13.816351664236205"><ele>846.5</ele><time>2026-04-30T10:25:25Z</time></trkpt><trkpt lat="37.74930129514824" lon="13.816216990611968"><ele>849.0</ele><time>2026-04-30T10:25:26Z</time></trkpt><trkpt lat="37.74935484451771" lon="13.816095597389022"><ele>851.5</ele><time>2026-04-30T10:25:27Z</time></trkpt><trkpt lat="37.74942858122006" lon="13.815972228344586"><ele>854.0</ele><time>2026-04-30T10:25:28Z</time></trkpt><trkpt lat="37.74949993335863" lon="13.815844395273341"><ele>858.0</ele><time>2026-04-30T10:25:29Z</time></trkpt><trkpt lat="37.74956157520534" lon="13.815717367704464"><ele>862.0</ele><time>2026-04-30T10:25:30Z</time></trkpt><trkpt lat="37.74960846871645" lon="13.815578006549117"><ele>866.0</ele><time>2026-04-30T10:25:31Z</time></trkpt><trkpt lat="37.749636506074616" lon="13.815418355372469"><ele>870.0</ele><time>2026-04-30T10:25:32Z</time></trkpt><trkpt lat="37.749650358648424" lon="13.815254428372496"><ele>871.25</ele><time>2026-04-30T10:25:33Z</time></trkpt><trkpt lat="37.749662938066095" lon="13.815097476293557"><ele>872.5</ele><time>2026-04-30T10:25:34Z</time></trkpt><trkpt lat="37.74968109855164" lon="13.814945121949217"><ele>873.75</ele><time>2026-04-30T10:25:35Z</time></trkpt><trkpt lat="37.74970777491889" lon="13.814799411848416"><ele>875.0</ele><time>2026-04-30T10:25:36Z</time></trkpt><trkpt lat="37.749737298499" lon="13.81465201042102"><ele>875.0</ele><time>2026-04-30T10:25:37Z</time></trkpt><trkpt lat="37.74975909963443" lon="13.814488223348157"><ele>875.0</ele><time>2026-04-30T10:25:38Z</time></trkpt><trkpt lat="37.74977238450437" lon="13.81431899695076"><ele>875.0</ele><time>2026-04-30T10:25:39Z</time></trkpt><trkpt lat="37.74978173446788" lon="13.81414145991092"><ele>875.0</ele><time>2026-04-30T10:25:40Z</time></trkpt><trkpt lat="37.74978478783532" lon="13.813950047434119"><ele>876.0</ele><time>2026-04-30T10:25:41Z</time></trkpt><trkpt lat="37.749774537930186" lon="13.813732368729019"><ele>877.0</ele><time>2026-04-30T10:25:42Z</time></trkpt><trkpt lat="37.74975371147493" lon="13.813488967715204"><ele>878.0</ele><time>2026-04-30T10:25:43Z</time></trkpt><trkpt lat="37.749728365715" lon="13.813248240889608"><ele>878.3333333333334</ele><time>2026-04-30T10:25:44Z</time></trkpt><trkpt lat="37.749699809113224" lon="13.81299946434023"><ele>878.6666666666667</ele><time>2026-04-30T10:25:45Z</time></trkpt><trkpt lat="37.749672133053714" lon="13.812744610969471"><ele>879.0</ele><time>2026-04-30T10:25:46Z</time></trkpt><trkpt lat="37.749647096827715" lon="13.812490059236492"><ele>879.3333333333333</ele><time>2026-04-30T10:25:47Z</time></trkpt><trkpt lat="37.74962301841987" lon="13.812231388487394"><ele>879.6666666666666</ele><time>2026-04-30T10:25:48Z</time></trkpt><trkpt lat="37.74959890258498" lon="13.811967769835737"><ele>880.0</ele><time>2026-04-30T10:25:49Z</time></trkpt><trkpt lat="37.749579483479984" lon="13.811714928362678"><ele>880.0</ele><time>2026-04-30T10:25:50Z</time></trkpt><trkpt lat="37.749564565053724" lon="13.811492588644775"><ele>880.0</ele><time>2026-04-30T10:25:51Z</time></trkpt><trkpt lat="37.749556787965794" lon="13.811294163735448"><ele>880.0</ele><time>2026-04-30T10:25:52Z</time></trkpt><trkpt lat="37.74955837915167" lon="13.811113548926208"><ele>880.0</ele><time>2026-04-30T10:25:53Z</time></trkpt><trkpt lat="37.74957269863937" lon="13.810945297141728"><ele>880.0</ele><time>2026-04-30T10:25:54Z</time></trkpt><trkpt lat="37.74959895036176" lon="13.81078601327074"><ele>880.0</ele><time>2026-04-30T10:25:55Z</time></trkpt><trkpt lat="37.74961530992217" lon="13.810634696930048"><ele>880.0</ele><time>2026-04-30T10:25:56Z</time></trkpt><trkpt lat="37.74961833375408" lon="13.810483661408592"><ele>880.0</ele><time>2026-04-30T10:25:57Z</time></trkpt><trkpt lat="37.749616668334475" lon="13.810333113646427"><ele>880.0</ele><time>2026-04-30T10:25:58Z</time></trkpt><trkpt lat="37.74962142134467" lon="13.81018242279666"><ele>880.0</ele><time>2026-04-30T10:25:59Z</time></trkpt><trkpt lat="37.7496362098717" lon="13.810009851535566"><ele>880.0</ele><time>2026-04-30T10:26:00Z</time></trkpt><trkpt lat="37.74966606646081" lon="13.809821008638963"><ele>880.6666666666666</ele><time>2026-04-30T10:26:01Z</time></trkpt><trkpt lat="37.749715064983626" lon="13.809627211296373"><ele>881.3333333333333</ele><time>2026-04-30T10:26:02Z</time></trkpt><trkpt lat="37.7497858213053" lon="13.809445003918938"><ele>882.0</ele><time>2026-04-30T10:26:03Z</time></trkpt><trkpt lat="37.749858444502124" lon="13.809285481087748"><ele>882.0</ele><time>2026-04-30T10:26:04Z</time></trkpt><trkpt lat="37.74990480166016" lon="13.809124872917774"><ele>882.0</ele><time>2026-04-30T10:26:05Z</time></trkpt><trkpt lat="37.74991888067475" lon="13.808941722469143"><ele>882.0</ele><time>2026-04-30T10:26:06Z</time></trkpt><trkpt lat="37.74991098598522" lon="13.808737239873295"><ele>882.0</ele><time>2026-04-30T10:26:07Z</time></trkpt><trkpt lat="37.74989818953816" lon="13.808541730019043"><ele>881.75</ele><time>2026-04-30T10:26:08Z</time></trkpt><trkpt lat="37.74988455906177" lon="13.80836216095056"><ele>881.5</ele><time>2026-04-30T10:26:09Z</time></trkpt><trkpt lat="37.74987189925998" lon="13.808195040928057"><ele>881.25</ele><time>2026-04-30T10:26:10Z</time></trkpt><trkpt lat="37.7498540136239" lon="13.808034216156672"><ele>881.0</ele><time>2026-04-30T10:26:11Z</time></trkpt><trkpt lat="37.74983692387857" lon="13.807885294283196"><ele>881.0</ele><time>2026-04-30T10:26:12Z</time></trkpt><trkpt lat="37.74983050890674" lon="13.807748073001234"><ele>880.9999999999999</ele><time>2026-04-30T10:26:13Z</time></trkpt><trkpt lat="37.749844138883105" lon="13.807625010712545"><ele>880.9999999999999</ele><time>2026-04-30T10:26:14Z</time></trkpt><trkpt lat="37.74989337155476" lon="13.807512735238506"><ele>881.0</ele><time>2026-04-30T10:26:15Z</time></trkpt><trkpt lat="37.7499935352352" lon="13.807408605620536"><ele>881.0</ele><time>2026-04-30T10:26:16Z</time></trkpt><trkpt lat="37.75012086086183" lon="13.807307599159413"><ele>877.25</ele><time>2026-04-30T10:26:17Z</time></trkpt><trkpt lat="37.75023417813423" lon="13.80720219024292"><ele>873.5</ele><time>2026-04-30T10:26:18Z</time></trkpt><trkpt lat="37.750319975952884" lon="13.807095871268597"><ele>869.75</ele><time>2026-04-30T10:26:19Z</time></trkpt><trkpt lat="37.75039262649123" lon="13.806970430527782"><ele>866.0</ele><time>2026-04-30T10:26:20Z</time></trkpt><trkpt lat="37.75045637549226" lon="13.806829186632285"><ele>865.8</ele><time>2026-04-30T10:26:21Z</time></trkpt><trkpt lat="37.750515966827194" lon="13.806691527304126"><ele>865.5999999999999</ele><time>2026-04-30T10:26:22Z</time></trkpt><trkpt lat="37.75057146673792" lon="13.806556355461986"><ele>865.4</ele><time>2026-04-30T10:26:23Z</time></trkpt><trkpt lat="37.750620062870965" lon="13.806432558250199"><ele>865.2</ele><time>2026-04-30T10:26:24Z</time></trkpt><trkpt lat="37.750664173847625" lon="13.806327742232318"><ele>865.0</ele><time>2026-04-30T10:26:25Z</time></trkpt><trkpt lat="37.750715804630275" lon="13.806233062391938"><ele>865.0</ele><time>2026-04-30T10:26:26Z</time></trkpt><trkpt lat="37.75077752155704" lon="13.806136922044157"><ele>865.0</ele><time>2026-04-30T10:26:27Z</time></trkpt><trkpt lat="37.75083441518642" lon="13.806047620513196"><ele>865.0</ele><time>2026-04-30T10:26:28Z</time></trkpt><trkpt lat="37.75089190751262" lon="13.805963145671214"><ele>865.0</ele><time>2026-04-30T10:26:29Z</time></trkpt><trkpt lat="37.75095277880925" lon="13.805881332339155"><ele>865.0</ele><time>2026-04-30T10:26:30Z</time></trkpt><trkpt lat="37.751013373675626" lon="13.805793424898475"><ele>866.0</ele><time>2026-04-30T10:26:31Z</time></trkpt><trkpt lat="37.751076221478385" lon="13.805699863269645"><ele>867.0</ele><time>2026-04-30T10:26:32Z</time></trkpt><trkpt lat="37.751141927601466" lon="13.8055996526137"><ele>868.0</ele><time>2026-04-30T10:26:33Z</time></trkpt><trkpt lat="37.751202708851984" lon="13.805499209313211"><ele>869.0</ele><time>2026-04-30T10:26:34Z</time></trkpt><trkpt lat="37.751257373850926" lon="13.805404806792891"><ele>870.0</ele><time>2026-04-30T10:26:35Z</time></trkpt><trkpt lat="37.751310209034386" lon="13.805310340174072"><ele>870.0</ele><time>2026-04-30T10:26:36Z</time></trkpt><trkpt lat="37.75135751063575" lon="13.805216277152233"><ele>870.0</ele><time>2026-04-30T10:26:37Z</time></trkpt><trkpt lat="37.75140315279794" lon="13.805118686713735"><ele>870.0</ele><time>2026-04-30T10:26:38Z</time></trkpt><trkpt lat="37.75145383105603" lon="13.80501862889962"><ele>870.0</ele><time>2026-04-30T10:26:39Z</time></trkpt><trkpt lat="37.751504349838" lon="13.804919676522328"><ele>870.0</ele><time>2026-04-30T10:26:40Z</time></trkpt><trkpt lat="37.751557849857384" lon="13.804818077999455"><ele>871.2</ele><time>2026-04-30T10:26:41Z</time></trkpt><trkpt lat="37.75161498676007" lon="13.80470752103235"><ele>872.4</ele><time>2026-04-30T10:26:42Z</time></trkpt><trkpt lat="37.75168191179629" lon="13.804607878997778"><ele>873.5999999999999</ele><time>2026-04-30T10:26:43Z</time></trkpt><trkpt lat="37.75176685184029" lon="13.804511626152811"><ele>874.8</ele><time>2026-04-30T10:26:44Z</time></trkpt><trkpt lat="37.75185226104889" lon="13.804429123962322"><ele>876.0</ele><time>2026-04-30T10:26:45Z</time></trkpt><trkpt lat="37.751929662287246" lon="13.804358827521739"><ele>876.4</ele><time>2026-04-30T10:26:46Z</time></trkpt><trkpt lat="37.752008043766736" lon="13.80430178355128"><ele>876.8</ele><time>2026-04-30T10:26:47Z</time></trkpt><trkpt lat="37.75209797924555" lon="13.804248877523117"><ele>877.1999999999999</ele><time>2026-04-30T10:26:48Z</time></trkpt><trkpt lat="37.75219639451743" lon="13.80419503135747"><ele>877.5999999999999</ele><time>2026-04-30T10:26:49Z</time></trkpt><trkpt lat="37.75229390458303" lon="13.804143033829314"><ele>878.0</ele><time>2026-04-30T10:26:50Z</time></trkpt><trkpt lat="37.752391874490066" lon="13.804078278370444"><ele>878.0</ele><time>2026-04-30T10:26:51Z</time></trkpt><trkpt lat="37.75247777273074" lon="13.804000760585993"><ele>878.0</ele><time>2026-04-30T10:26:52Z</time></trkpt><trkpt lat="37.75254804995443" lon="13.803925176393708"><ele>878.0</ele><time>2026-04-30T10:26:53Z</time></trkpt><trkpt lat="37.752625730386534" lon="13.803874267584026"><ele>878.0</ele><time>2026-04-30T10:26:54Z</time></trkpt><trkpt lat="37.75271718720857" lon="13.803852831216316"><ele>878.0</ele><time>2026-04-30T10:26:55Z</time></trkpt><trkpt lat="37.75279374084588" lon="13.803828690355672"><ele>878.3333333333334</ele><time>2026-04-30T10:26:56Z</time></trkpt><trkpt lat="37.75288542349625" lon="13.80372976477747"><ele>878.6666666666667</ele><time>2026-04-30T10:26:58Z</time></trkpt><trkpt lat="37.7529188410364" lon="13.803652820048809"><ele>879.0</ele><time>2026-04-30T10:26:59Z</time></trkpt><trkpt lat="37.75295416221972" lon="13.803567418745667"><ele>879.3333333333333</ele><time>2026-04-30T10:27:00Z</time></trkpt><trkpt lat="37.75300048197742" lon="13.803484201071562"><ele>879.6666666666666</ele><time>2026-04-30T10:27:01Z</time></trkpt><trkpt lat="37.75305793645618" lon="13.803409654949615"><ele>880.0</ele><time>2026-04-30T10:27:02Z</time></trkpt><trkpt lat="37.75311739075316" lon="13.80334866191593"><ele>880.0</ele><time>2026-04-30T10:27:03Z</time></trkpt><trkpt lat="37.75317803287441" lon="13.803296421270346"><ele>880.0</ele><time>2026-04-30T10:27:04Z</time></trkpt><trkpt lat="37.753252016584106" lon="13.803256190633048"><ele>880.0</ele><time>2026-04-30T10:27:05Z</time></trkpt><trkpt lat="37.753323524110186" lon="13.803217112936082"><ele>880.0</ele><time>2026-04-30T10:27:06Z</time></trkpt><trkpt lat="37.75340681567103" lon="13.80311566518107"><ele>880.0</ele><time>2026-04-30T10:27:08Z</time></trkpt><trkpt lat="37.75345495696449" lon="13.802979118844382"><ele>880.0</ele><time>2026-04-30T10:27:10Z</time></trkpt><trkpt lat="37.75346815092243" lon="13.802826217348873"><ele>880.0</ele><time>2026-04-30T10:27:12Z</time></trkpt><trkpt lat="37.7535100359267" lon="13.802697821920459"><ele>880.0</ele><time>2026-04-30T10:27:14Z</time></trkpt><trkpt lat="37.753604045806114" lon="13.802579061135507"><ele>880.0</ele><time>2026-04-30T10:27:16Z</time></trkpt><trkpt lat="37.75363419193904" lon="13.802433369753004"><ele>884.0</ele><time>2026-04-30T10:27:18Z</time></trkpt><trkpt lat="37.75361558889255" lon="13.802317887454949"><ele>888.0</ele><time>2026-04-30T10:27:19Z</time></trkpt><trkpt lat="37.753611152287284" lon="13.802200989161658"><ele>892.0</ele><time>2026-04-30T10:27:20Z</time></trkpt><trkpt lat="37.753630431925465" lon="13.802084855934357"><ele>896.0</ele><time>2026-04-30T10:27:21Z</time></trkpt><trkpt lat="37.753658800877645" lon="13.801961695174167"><ele>900.0</ele><time>2026-04-30T10:27:22Z</time></trkpt><trkpt lat="37.75368207439244" lon="13.801832812210254"><ele>900.5</ele><time>2026-04-30T10:27:23Z</time></trkpt><trkpt lat="37.75369290381111" lon="13.801724756902612"><ele>901.0</ele><time>2026-04-30T10:27:24Z</time></trkpt><trkpt lat="37.75374250488733" lon="13.801607648715422"><ele>901.5</ele><time>2026-04-30T10:27:26Z</time></trkpt><trkpt lat="37.75380905074076" lon="13.801534043923603"><ele>902.0</ele><time>2026-04-30T10:27:27Z</time></trkpt><trkpt lat="37.753859440489045" lon="13.801445605654417"><ele>902.5</ele><time>2026-04-30T10:27:28Z</time></trkpt><trkpt lat="37.75387670282037" lon="13.80135953292927"><ele>903.0</ele><time>2026-04-30T10:27:29Z</time></trkpt><trkpt lat="37.753873982489296" lon="13.801272512454716"><ele>903.0</ele><time>2026-04-30T10:27:30Z</time></trkpt><trkpt lat="37.753868419501124" lon="13.801185934882325"><ele>903.0</ele><time>2026-04-30T10:27:31Z</time></trkpt><trkpt lat="37.75390733746799" lon="13.801035752452107"><ele>903.0</ele><time>2026-04-30T10:27:33Z</time></trkpt><trkpt lat="37.753958025404124" lon="13.800976183227426"><ele>903.0</ele><time>2026-04-30T10:27:34Z</time></trkpt><trkpt lat="37.75400890760393" lon="13.8009247382265"><ele>903.0</ele><time>2026-04-30T10:27:35Z</time></trkpt><trkpt lat="37.7540628151897" lon="13.800866189459342"><ele>903.0</ele><time>2026-04-30T10:27:36Z</time></trkpt><trkpt lat="37.75410794371697" lon="13.800808380073354"><ele>902.2</ele><time>2026-04-30T10:27:37Z</time></trkpt><trkpt lat="37.75414078588978" lon="13.800668866922848"><ele>901.4</ele><time>2026-04-30T10:27:39Z</time></trkpt><trkpt lat="37.75413885322959" lon="13.800551471301244"><ele>900.6000000000001</ele><time>2026-04-30T10:27:40Z</time></trkpt><trkpt lat="37.75416618360112" lon="13.800432853851074"><ele>899.8000000000001</ele><time>2026-04-30T10:27:41Z</time></trkpt><trkpt lat="37.75422077682531" lon="13.80031490209825"><ele>899.0</ele><time>2026-04-30T10:27:42Z</time></trkpt><trkpt lat="37.754277943927676" lon="13.80018729626904"><ele>898.4000000000001</ele><time>2026-04-30T10:27:43Z</time></trkpt><trkpt lat="37.754306349067384" lon="13.800060682727883"><ele>897.8000000000001</ele><time>2026-04-30T10:27:44Z</time></trkpt><trkpt lat="37.754325065813234" lon="13.799930174812367"><ele>897.1999999999999</ele><time>2026-04-30T10:27:45Z</time></trkpt><trkpt lat="37.75433590311035" lon="13.799794584613856"><ele>896.5999999999999</ele><time>2026-04-30T10:27:46Z</time></trkpt><trkpt lat="37.754336683468566" lon="13.799644439798348"><ele>896.0</ele><time>2026-04-30T10:27:47Z</time></trkpt><trkpt lat="37.75434236315306" lon="13.799509513761437"><ele>903.8</ele><time>2026-04-30T10:27:48Z</time></trkpt><trkpt lat="37.75437189019318" lon="13.799406389569523"><ele>911.5999999999999</ele><time>2026-04-30T10:27:49Z</time></trkpt><trkpt lat="37.754435338173856" lon="13.799294019093232"><ele>919.4</ele><time>2026-04-30T10:27:50Z</time></trkpt><trkpt lat="37.7544958498035" lon="13.799189590312603"><ele>927.2</ele><time>2026-04-30T10:27:51Z</time></trkpt><trkpt lat="37.754535952959756" lon="13.799086778566584"><ele>935.0</ele><time>2026-04-30T10:27:52Z</time></trkpt><trkpt lat="37.75454112887956" lon="13.79898024338365"><ele>934.5000000000001</ele><time>2026-04-30T10:27:53Z</time></trkpt><trkpt lat="37.7545320882176" lon="13.79887842102162"><ele>934.0</ele><time>2026-04-30T10:27:54Z</time></trkpt><trkpt lat="37.7545307815046" lon="13.798771147895934"><ele>933.5</ele><time>2026-04-30T10:27:55Z</time></trkpt><trkpt lat="37.75454335424416" lon="13.79866605914118"><ele>933.0</ele><time>2026-04-30T10:27:56Z</time></trkpt><trkpt lat="37.75457651576891" lon="13.798553010985605"><ele>932.5000000000001</ele><time>2026-04-30T10:27:57Z</time></trkpt><trkpt lat="37.75462320106758" lon="13.79844305000074"><ele>932.0</ele><time>2026-04-30T10:27:58Z</time></trkpt><trkpt lat="37.75467691367312" lon="13.798320971924252"><ele>932.0</ele><time>2026-04-30T10:27:59Z</time></trkpt><trkpt lat="37.75471800707479" lon="13.798189048802813"><ele>932.0</ele><time>2026-04-30T10:28:00Z</time></trkpt><trkpt lat="37.7547493256506" lon="13.798045112319414"><ele>932.0</ele><time>2026-04-30T10:28:01Z</time></trkpt><trkpt lat="37.75479971335926" lon="13.797905767646098"><ele>932.0</ele><time>2026-04-30T10:28:02Z</time></trkpt><trkpt lat="37.75485494652733" lon="13.797798843806753"><ele>932.0</ele><time>2026-04-30T10:28:03Z</time></trkpt><trkpt lat="37.754912949864476" lon="13.797710981203736"><ele>932.0</ele><time>2026-04-30T10:28:04Z</time></trkpt><trkpt lat="37.754977223835844" lon="13.797619473112233"><ele>932.0</ele><time>2026-04-30T10:28:05Z</time></trkpt><trkpt lat="37.75503586572742" lon="13.797522034057678"><ele>932.0</ele><time>2026-04-30T10:28:06Z</time></trkpt><trkpt lat="37.755083657488484" lon="13.797410716155353"><ele>932.0</ele><time>2026-04-30T10:28:07Z</time></trkpt><trkpt lat="37.755126397091935" lon="13.79729217852515"><ele>930.6</ele><time>2026-04-30T10:28:08Z</time></trkpt><trkpt lat="37.755168717244274" lon="13.797172700162674"><ele>929.2</ele><time>2026-04-30T10:28:09Z</time></trkpt><trkpt lat="37.7552058595616" lon="13.797054280747686"><ele>927.8</ele><time>2026-04-30T10:28:10Z</time></trkpt><trkpt lat="37.755222122035335" lon="13.79692381087007"><ele>926.4</ele><time>2026-04-30T10:28:11Z</time></trkpt><trkpt lat="37.75524276659115" lon="13.796781274595658"><ele>925.0</ele><time>2026-04-30T10:28:12Z</time></trkpt><trkpt lat="37.75528373479924" lon="13.796622374985256"><ele>925.0</ele><time>2026-04-30T10:28:13Z</time></trkpt><trkpt lat="37.75534246409298" lon="13.79646953590416"><ele>925.0</ele><time>2026-04-30T10:28:14Z</time></trkpt><trkpt lat="37.75540082522887" lon="13.796333360079895"><ele>925.0</ele><time>2026-04-30T10:28:15Z</time></trkpt><trkpt lat="37.75546326732376" lon="13.796209122653964"><ele>925.0</ele><time>2026-04-30T10:28:16Z</time></trkpt><trkpt lat="37.755517930290566" lon="13.79607997970363"><ele>924.75</ele><time>2026-04-30T10:28:17Z</time></trkpt><trkpt lat="37.75556529163892" lon="13.795951509758595"><ele>924.5</ele><time>2026-04-30T10:28:18Z</time></trkpt><trkpt lat="37.755612437349264" lon="13.795822905532358"><ele>924.25</ele><time>2026-04-30T10:28:19Z</time></trkpt><trkpt lat="37.755653787813095" lon="13.795687546911374"><ele>924.0</ele><time>2026-04-30T10:28:20Z</time></trkpt><trkpt lat="37.75568647024705" lon="13.795542867332978"><ele>924.0</ele><time>2026-04-30T10:28:21Z</time></trkpt><trkpt lat="37.7557059466597" lon="13.79539468700839"><ele>924.0000000000001</ele><time>2026-04-30T10:28:22Z</time></trkpt><trkpt lat="37.75571604802399" lon="13.7952480695402"><ele>924.0000000000001</ele><time>2026-04-30T10:28:23Z</time></trkpt><trkpt lat="37.75572993485168" lon="13.795103907396236"><ele>924.0</ele><time>2026-04-30T10:28:24Z</time></trkpt><trkpt lat="37.75575111489142" lon="13.79499698942352"><ele>924.0</ele><time>2026-04-30T10:28:25Z</time></trkpt><trkpt lat="37.75579887750438" lon="13.79490091083034"><ele>924.8571428571429</ele><time>2026-04-30T10:28:27Z</time></trkpt><trkpt lat="37.755859770606705" lon="13.794860983616372"><ele>925.7142857142858</ele><time>2026-04-30T10:28:28Z</time></trkpt><trkpt lat="37.755942567506345" lon="13.7948037786349"><ele>926.5714285714286</ele><time>2026-04-30T10:28:29Z</time></trkpt><trkpt lat="37.756013116139556" lon="13.794741333931977"><ele>927.4285714285714</ele><time>2026-04-30T10:28:30Z</time></trkpt><trkpt lat="37.75605977332378" lon="13.794678637113343"><ele>928.2857142857143</ele><time>2026-04-30T10:28:31Z</time></trkpt><trkpt lat="37.756084961977315" lon="13.794600126639718"><ele>929.1428571428571</ele><time>2026-04-30T10:28:32Z</time></trkpt><trkpt lat="37.75608582867857" lon="13.794519393456229"><ele>930.0</ele><time>2026-04-30T10:28:33Z</time></trkpt><trkpt lat="37.75607759697234" lon="13.794416123993022"><ele>934.2</ele><time>2026-04-30T10:28:34Z</time></trkpt><trkpt lat="37.75607650646446" lon="13.794275366324456"><ele>938.4</ele><time>2026-04-30T10:28:35Z</time></trkpt><trkpt lat="37.75608420913604" lon="13.794126356381968"><ele>942.5999999999999</ele><time>2026-04-30T10:28:36Z</time></trkpt><trkpt lat="37.756103136699146" lon="13.793999713384544"><ele>946.8</ele><time>2026-04-30T10:28:37Z</time></trkpt><trkpt lat="37.75612925882452" lon="13.793895074604949"><ele>951.0</ele><time>2026-04-30T10:28:38Z</time></trkpt><trkpt lat="37.75615194897386" lon="13.793794329544378"><ele>951.0</ele><time>2026-04-30T10:28:39Z</time></trkpt><trkpt lat="37.756158227423406" lon="13.793701883581441"><ele>951.0</ele><time>2026-04-30T10:28:40Z</time></trkpt><trkpt lat="37.756156442041686" lon="13.79360283811392"><ele>951.0</ele><time>2026-04-30T10:28:41Z</time></trkpt><trkpt lat="37.756151688161545" lon="13.793507231345076"><ele>951.0</ele><time>2026-04-30T10:28:42Z</time></trkpt><trkpt lat="37.75614263755511" lon="13.793420663009547"><ele>951.0</ele><time>2026-04-30T10:28:43Z</time></trkpt><trkpt lat="37.75613199553115" lon="13.793341056355594"><ele>951.0</ele><time>2026-04-30T10:28:44Z</time></trkpt><trkpt lat="37.756097420140534" lon="13.793192389358534"><ele>949.0</ele><time>2026-04-30T10:28:46Z</time></trkpt><trkpt lat="37.756033865702356" lon="13.79305817731376"><ele>947.0</ele><time>2026-04-30T10:28:48Z</time></trkpt><trkpt lat="37.75598462722296" lon="13.79298217189758"><ele>945.0</ele><time>2026-04-30T10:28:49Z</time></trkpt><trkpt lat="37.755934258263316" lon="13.792893377632684"><ele>943.0</ele><time>2026-04-30T10:28:50Z</time></trkpt><trkpt lat="37.75589246285297" lon="13.792802949155172"><ele>941.0</ele><time>2026-04-30T10:28:51Z</time></trkpt><trkpt lat="37.7558587883565" lon="13.792714237040737"><ele>939.0</ele><time>2026-04-30T10:28:52Z</time></trkpt><trkpt lat="37.75581995833808" lon="13.792625376906948"><ele>939.0</ele><time>2026-04-30T10:28:53Z</time></trkpt><trkpt lat="37.7557554784434" lon="13.792528234817627"><ele>939.0000000000001</ele><time>2026-04-30T10:28:54Z</time></trkpt><trkpt lat="37.755679300202594" lon="13.79243763655061"><ele>939.0000000000001</ele><time>2026-04-30T10:28:55Z</time></trkpt><trkpt lat="37.755607902880946" lon="13.792351856672681"><ele>939.0</ele><time>2026-04-30T10:28:56Z</time></trkpt><trkpt lat="37.75555179110796" lon="13.79225372138384"><ele>939.0</ele><time>2026-04-30T10:28:57Z</time></trkpt><trkpt lat="37.75550678217602" lon="13.79214354083097"><ele>939.0</ele><time>2026-04-30T10:28:58Z</time></trkpt><trkpt lat="37.75546855106493" lon="13.792019623059314"><ele>939.0000000000001</ele><time>2026-04-30T10:28:59Z</time></trkpt><trkpt lat="37.755444724045574" lon="13.79187879351029"><ele>939.0000000000001</ele><time>2026-04-30T10:29:00Z</time></trkpt><trkpt lat="37.755424952272875" lon="13.791732360652825"><ele>939.0</ele><time>2026-04-30T10:29:01Z</time></trkpt><trkpt lat="37.75540146596234" lon="13.79160182782229"><ele>939.0</ele><time>2026-04-30T10:29:02Z</time></trkpt><trkpt lat="37.75538094836588" lon="13.79149787023717"><ele>938.2</ele><time>2026-04-30T10:29:03Z</time></trkpt><trkpt lat="37.75537920807511" lon="13.791404569190508"><ele>937.4000000000001</ele><time>2026-04-30T10:29:04Z</time></trkpt><trkpt lat="37.755393960573855" lon="13.79130733180125"><ele>936.6</ele><time>2026-04-30T10:29:05Z</time></trkpt><trkpt lat="37.75542369633534" lon="13.791207826540067"><ele>935.8</ele><time>2026-04-30T10:29:06Z</time></trkpt><trkpt lat="37.75548337419272" lon="13.791111272038693"><ele>935.0</ele><time>2026-04-30T10:29:07Z</time></trkpt><trkpt lat="37.755578934290206" lon="13.791003694214997"><ele>931.5</ele><time>2026-04-30T10:29:08Z</time></trkpt><trkpt lat="37.755680677460425" lon="13.790869700755621"><ele>928.0</ele><time>2026-04-30T10:29:09Z</time></trkpt><trkpt lat="37.75576286285109" lon="13.790720504943797"><ele>924.5</ele><time>2026-04-30T10:29:10Z</time></trkpt><trkpt lat="37.75584221207064" lon="13.79056866720584"><ele>921.0</ele><time>2026-04-30T10:29:11Z</time></trkpt><trkpt lat="37.755929457716924" lon="13.790416219834261"><ele>921.0</ele><time>2026-04-30T10:29:12Z</time></trkpt><trkpt lat="37.7560161440738" lon="13.79027281856997"><ele>921.0</ele><time>2026-04-30T10:29:13Z</time></trkpt><trkpt lat="37.75609899635584" lon="13.790147795816965"><ele>921.0</ele><time>2026-04-30T10:29:14Z</time></trkpt><trkpt lat="37.75617112910712" lon="13.790032142738271"><ele>921.0</ele><time>2026-04-30T10:29:15Z</time></trkpt><trkpt lat="37.75622914323532" lon="13.789888832140626"><ele>920.75</ele><time>2026-04-30T10:29:16Z</time></trkpt><trkpt lat="37.756281260155255" lon="13.789734145243283"><ele>920.5</ele><time>2026-04-30T10:29:17Z</time></trkpt><trkpt lat="37.7563253043275" lon="13.789588510225165"><ele>920.25</ele><time>2026-04-30T10:29:18Z</time></trkpt><trkpt lat="37.75636662278975" lon="13.789443252674348"><ele>920.0</ele><time>2026-04-30T10:29:19Z</time></trkpt><trkpt lat="37.75640776267254" lon="13.78929272925433"><ele>919.75</ele><time>2026-04-30T10:29:20Z</time></trkpt><trkpt lat="37.75645117703879" lon="13.78914372346479"><ele>919.5</ele><time>2026-04-30T10:29:21Z</time></trkpt><trkpt lat="37.756506270768654" lon="13.789003376714922"><ele>919.25</ele><time>2026-04-30T10:29:22Z</time></trkpt><trkpt lat="37.756569854218235" lon="13.788861738957337"><ele>919.0</ele><time>2026-04-30T10:29:23Z</time></trkpt><trkpt lat="37.75663380820114" lon="13.788716401317686"><ele>919.0</ele><time>2026-04-30T10:29:24Z</time></trkpt><trkpt lat="37.75668438354686" lon="13.788569231632719"><ele>919.0</ele><time>2026-04-30T10:29:25Z</time></trkpt><trkpt lat="37.756728639601434" lon="13.78841348141292"><ele>919.0</ele><time>2026-04-30T10:29:26Z</time></trkpt><trkpt lat="37.756767270943236" lon="13.78826041416051"><ele>919.0</ele><time>2026-04-30T10:29:27Z</time></trkpt><trkpt lat="37.75679926269231" lon="13.788115863661206"><ele>918.25</ele><time>2026-04-30T10:29:28Z</time></trkpt><trkpt lat="37.75682704902057" lon="13.787976135337983"><ele>917.5</ele><time>2026-04-30T10:29:29Z</time></trkpt><trkpt lat="37.75685860018694" lon="13.787831481815841"><ele>916.75</ele><time>2026-04-30T10:29:30Z</time></trkpt><trkpt lat="37.756891271023896" lon="13.787675124637342"><ele>916.0</ele><time>2026-04-30T10:29:31Z</time></trkpt><trkpt lat="37.756919377944335" lon="13.787507356325444"><ele>919.75</ele><time>2026-04-30T10:29:32Z</time></trkpt><trkpt lat="37.756941338784976" lon="13.787339803979183"><ele>923.5</ele><time>2026-04-30T10:29:33Z</time></trkpt><trkpt lat="37.75697919729758" lon="13.78717635367959"><ele>927.25</ele><time>2026-04-30T10:29:34Z</time></trkpt><trkpt lat="37.75703002207545" lon="13.787017042859665"><ele>931.0</ele><time>2026-04-30T10:29:35Z</time></trkpt><trkpt lat="37.75707947574488" lon="13.786862299686309"><ele>929.75</ele><time>2026-04-30T10:29:36Z</time></trkpt><trkpt lat="37.75711821515068" lon="13.786697347425667"><ele>928.5</ele><time>2026-04-30T10:29:37Z</time></trkpt><trkpt lat="37.75715102020949" lon="13.786525802579046"><ele>927.25</ele><time>2026-04-30T10:29:38Z</time></trkpt><trkpt lat="37.75719105003985" lon="13.786356171940453"><ele>926.0</ele><time>2026-04-30T10:29:39Z</time></trkpt><trkpt lat="37.75723946094093" lon="13.786183316213538"><ele>924.0</ele><time>2026-04-30T10:29:40Z</time></trkpt><trkpt lat="37.75729479322732" lon="13.786004123140595"><ele>922.0</ele><time>2026-04-30T10:29:41Z</time></trkpt><trkpt lat="37.75735764671366" lon="13.785832264734768"><ele>920.0</ele><time>2026-04-30T10:29:42Z</time></trkpt><trkpt lat="37.757426264722234" lon="13.785664041639741"><ele>920.0</ele><time>2026-04-30T10:29:43Z</time></trkpt><trkpt lat="37.75748921135755" lon="13.785501130972245"><ele>920.0</ele><time>2026-04-30T10:29:44Z</time></trkpt><trkpt lat="37.7575402138204" lon="13.78533519748279"><ele>920.0</ele><time>2026-04-30T10:29:45Z</time></trkpt><trkpt lat="37.75758012317832" lon="13.78516230789932"><ele>920.0</ele><time>2026-04-30T10:29:46Z</time></trkpt><trkpt lat="37.75762516785123" lon="13.784996325064858"><ele>921.3333333333334</ele><time>2026-04-30T10:29:47Z</time></trkpt><trkpt lat="37.75768697807885" lon="13.784836434253165"><ele>922.6666666666667</ele><time>2026-04-30T10:29:48Z</time></trkpt><trkpt lat="37.75776421983905" lon="13.784667500552494"><ele>924.0</ele><time>2026-04-30T10:29:49Z</time></trkpt><trkpt lat="37.75784151773818" lon="13.784486116704516"><ele>922.0</ele><time>2026-04-30T10:29:50Z</time></trkpt><trkpt lat="37.75791651036981" lon="13.784298998453895"><ele>920.0</ele><time>2026-04-30T10:29:51Z</time></trkpt><trkpt lat="37.757985986250226" lon="13.784115910579404"><ele>918.0</ele><time>2026-04-30T10:29:52Z</time></trkpt><trkpt lat="37.75804501534665" lon="13.783954189217903"><ele>918.0</ele><time>2026-04-30T10:29:53Z</time></trkpt><trkpt lat="37.758097834627186" lon="13.783796030843453"><ele>918.0</ele><time>2026-04-30T10:29:54Z</time></trkpt><trkpt lat="37.75814750713781" lon="13.783640103241993"><ele>918.0</ele><time>2026-04-30T10:29:55Z</time></trkpt><trkpt lat="37.75818123147285" lon="13.78349712839726"><ele>918.0</ele><time>2026-04-30T10:29:56Z</time></trkpt><trkpt lat="37.758194131571564" lon="13.783350716133285"><ele>917.75</ele><time>2026-04-30T10:29:57Z</time></trkpt><trkpt lat="37.758195003085675" lon="13.783186007989315"><ele>917.5</ele><time>2026-04-30T10:29:58Z</time></trkpt><trkpt lat="37.758193107495764" lon="13.7830074862271"><ele>917.25</ele><time>2026-04-30T10:29:59Z</time></trkpt><trkpt lat="37.75819425877393" lon="13.782823398330612"><ele>917.0</ele><time>2026-04-30T10:30:00Z</time></trkpt><trkpt lat="37.758203186502996" lon="13.782640055015705"><ele>917.0</ele><time>2026-04-30T10:30:01Z</time></trkpt><trkpt lat="37.75821078972737" lon="13.782457848248763"><ele>917.0</ele><time>2026-04-30T10:30:02Z</time></trkpt><trkpt lat="37.75821566632121" lon="13.78227530701666"><ele>917.0</ele><time>2026-04-30T10:30:03Z</time></trkpt><trkpt lat="37.758223128036384" lon="13.782093639148583"><ele>917.0</ele><time>2026-04-30T10:30:04Z</time></trkpt><trkpt lat="37.75823228472475" lon="13.781918689906322"><ele>916.5</ele><time>2026-04-30T10:30:05Z</time></trkpt><trkpt lat="37.758240634665974" lon="13.781759326774644"><ele>916.0</ele><time>2026-04-30T10:30:06Z</time></trkpt><trkpt lat="37.758253107744856" lon="13.781610645571268"><ele>915.5</ele><time>2026-04-30T10:30:07Z</time></trkpt><trkpt lat="37.75827810096614" lon="13.781457825380091"><ele>915.0</ele><time>2026-04-30T10:30:08Z</time></trkpt><trkpt lat="37.758307965913744" lon="13.781309571166641"><ele>915.0</ele><time>2026-04-30T10:30:09Z</time></trkpt><trkpt lat="37.75834870356813" lon="13.781162815687576"><ele>915.0</ele><time>2026-04-30T10:30:10Z</time></trkpt><trkpt lat="37.75839171799478" lon="13.780999057215315"><ele>915.0</ele><time>2026-04-30T10:30:11Z</time></trkpt><trkpt lat="37.7584342198631" lon="13.780853786736174"><ele>915.0</ele><time>2026-04-30T10:30:12Z</time></trkpt><trkpt lat="37.758471589605755" lon="13.780712203575446"><ele>914.8</ele><time>2026-04-30T10:30:13Z</time></trkpt><trkpt lat="37.75850421372952" lon="13.780580097350965"><ele>914.6</ele><time>2026-04-30T10:30:14Z</time></trkpt><trkpt lat="37.75853887335609" lon="13.7804587982684"><ele>914.4000000000001</ele><time>2026-04-30T10:30:15Z</time></trkpt><trkpt lat="37.75857473400807" lon="13.780331425488185"><ele>914.2</ele><time>2026-04-30T10:30:16Z</time></trkpt><trkpt lat="37.75861883759601" lon="13.780196056381127"><ele>914.0</ele><time>2026-04-30T10:30:17Z</time></trkpt><trkpt lat="37.758669261659996" lon="13.780053796746483"><ele>909.5</ele><time>2026-04-30T10:30:18Z</time></trkpt><trkpt lat="37.75873072246368" lon="13.779916236245022"><ele>905.0</ele><time>2026-04-30T10:30:19Z</time></trkpt><trkpt lat="37.758811403818335" lon="13.779778686138105"><ele>900.5</ele><time>2026-04-30T10:30:20Z</time></trkpt><trkpt lat="37.75890553262573" lon="13.779638401268814"><ele>896.0</ele><time>2026-04-30T10:30:21Z</time></trkpt><trkpt lat="37.75898813790583" lon="13.779487425387053"><ele>895.5</ele><time>2026-04-30T10:30:22Z</time></trkpt><trkpt lat="37.759071773854195" lon="13.77932026614559"><ele>895.0</ele><time>2026-04-30T10:30:23Z</time></trkpt><trkpt lat="37.75915869383324" lon="13.779152874753711"><ele>894.5</ele><time>2026-04-30T10:30:24Z</time></trkpt><trkpt lat="37.759233385543695" lon="13.779013859818383"><ele>894.0</ele><time>2026-04-30T10:30:25Z</time></trkpt><trkpt lat="37.75929018099921" lon="13.77889371136063"><ele>894.0</ele><time>2026-04-30T10:30:26Z</time></trkpt><trkpt lat="37.75933018291334" lon="13.778767713429527"><ele>894.0</ele><time>2026-04-30T10:30:27Z</time></trkpt><trkpt lat="37.759339746939006" lon="13.778617017098869"><ele>894.0</ele><time>2026-04-30T10:30:28Z</time></trkpt><trkpt lat="37.759329151708954" lon="13.778419912410127"><ele>894.0</ele><time>2026-04-30T10:30:29Z</time></trkpt><trkpt lat="37.759323361460304" lon="13.778183409797581"><ele>895.3333333333333</ele><time>2026-04-30T10:30:30Z</time></trkpt><trkpt lat="37.75932003615386" lon="13.777914360374014"><ele>896.6666666666666</ele><time>2026-04-30T10:30:31Z</time></trkpt><trkpt lat="37.759318811760636" lon="13.777670077024183"><ele>898.0</ele><time>2026-04-30T10:30:32Z</time></trkpt><trkpt lat="37.75931401068577" lon="13.777462142729528"><ele>898.5</ele><time>2026-04-30T10:30:33Z</time></trkpt><trkpt lat="37.759303932944874" lon="13.777284024354602"><ele>899.0</ele><time>2026-04-30T10:30:34Z</time></trkpt><trkpt lat="37.759277766900574" lon="13.777116046914996"><ele>899.5</ele><time>2026-04-30T10:30:35Z</time></trkpt><trkpt lat="37.759231827667925" lon="13.77692411000566"><ele>900.0</ele><time>2026-04-30T10:30:36Z</time></trkpt><trkpt lat="37.75918439522739" lon="13.77674929946483"><ele>900.0</ele><time>2026-04-30T10:30:37Z</time></trkpt><trkpt lat="37.75914995856818" lon="13.77661279133966"><ele>900.0</ele><time>2026-04-30T10:30:38Z</time></trkpt><trkpt lat="37.75913892875565" lon="13.776515816210537"><ele>900.0</ele><time>2026-04-30T10:30:39Z</time></trkpt><trkpt lat="37.759162552974836" lon="13.776428485743066"><ele>900.0</ele><time>2026-04-30T10:30:40Z</time></trkpt><trkpt lat="37.759207033321836" lon="13.77632933990312"><ele>900.0</ele><time>2026-04-30T10:30:41Z</time></trkpt><trkpt lat="37.75928324077838" lon="13.776190960188465"><ele>900.0</ele><time>2026-04-30T10:30:42Z</time></trkpt><trkpt lat="37.759365487224564" lon="13.776024228156077"><ele>900.0</ele><time>2026-04-30T10:30:43Z</time></trkpt><trkpt lat="37.75942178407046" lon="13.775886461769456"><ele>900.0</ele><time>2026-04-30T10:30:44Z</time></trkpt><trkpt lat="37.75945700083343" lon="13.775791930922235"><ele>900.0</ele><time>2026-04-30T10:30:45Z</time></trkpt><trkpt lat="37.759488952182636" lon="13.775699207645705"><ele>900.0</ele><time>2026-04-30T10:30:47Z</time></trkpt><trkpt lat="37.75954242322898" lon="13.775625751784165"><ele>900.4285714285716</ele><time>2026-04-30T10:30:53Z</time></trkpt><trkpt lat="37.75950259859408" lon="13.775689287440624"><ele>900.8571428571429</ele><time>2026-04-30T10:31:09Z</time></trkpt><trkpt lat="37.75947206729535" lon="13.77576682534742"><ele>901.2857142857143</ele><time>2026-04-30T10:31:10Z</time></trkpt><trkpt lat="37.75942945159523" lon="13.775827175740515"><ele>901.7142857142858</ele><time>2026-04-30T10:31:12Z</time></trkpt><trkpt lat="37.759346607985165" lon="13.77584552447423"><ele>902.1428571428571</ele><time>2026-04-30T10:31:15Z</time></trkpt><trkpt lat="37.75926985674569" lon="13.775884271691986"><ele>902.5714285714286</ele><time>2026-04-30T10:33:22Z</time></trkpt><trkpt lat="37.75921195589843" lon="13.775929320161135"><ele>903.0</ele><time>2026-04-30T10:33:28Z</time></trkpt><trkpt lat="37.7591458699231" lon="13.775916808588258"><ele>903.0</ele><time>2026-04-30T10:33:35Z</time></trkpt><trkpt lat="37.759172306636295" lon="13.776025807236019"><ele>903.0</ele><time>2026-04-30T10:34:00Z</time></trkpt><trkpt lat="37.7592428591128" lon="13.776070156230364"><ele>903.0</ele><time>2026-04-30T10:36:58Z</time></trkpt><trkpt lat="37.75928393464968" lon="13.776137999918689"><ele>903.0</ele><time>2026-04-30T10:37:08Z</time></trkpt><trkpt lat="37.759346841427444" lon="13.776129541249968"><ele>903.0</ele><time>2026-04-30T10:37:15Z</time></trkpt><trkpt lat="37.75932845823136" lon="13.77603068194493"><ele>903.0</ele><time>2026-04-30T10:42:22.999Z</time></trkpt><trkpt lat="37.75931049892371" lon="13.775952078168109"><ele>903.0</ele><time>2026-04-30T10:42:27.999Z</time></trkpt><trkpt lat="37.75930923370541" lon="13.775871307254345"><ele>903.0</ele><time>2026-04-30T10:42:34.999Z</time></trkpt><trkpt lat="37.75924407959574" lon="13.775872073543916"><ele>903.0</ele><time>2026-04-30T11:04:11.003Z</time></trkpt><trkpt lat="37.75935956289274" lon="13.775835039134503"><ele>903.0</ele><time>2026-04-30T11:05:50.002Z</time></trkpt><trkpt lat="37.75945267494301" lon="13.775753618273537"><ele>903.0</ele><time>2026-04-30T11:05:52.002Z</time></trkpt><trkpt lat="37.75948122279683" lon="13.77565818695453"><ele>903.0</ele><time>2026-04-30T11:05:53.002Z</time></trkpt><trkpt lat="37.75950773916129" lon="13.775536561070213"><ele>899.5</ele><time>2026-04-30T11:05:54.002Z</time></trkpt><trkpt lat="37.759545011681965" lon="13.775392826411752"><ele>896.0</ele><time>2026-04-30T11:05:55.002Z</time></trkpt><trkpt lat="37.75958877029619" lon="13.77523679672925"><ele>892.5</ele><time>2026-04-30T11:05:56.002Z</time></trkpt><trkpt lat="37.75963542588478" lon="13.775061232237439"><ele>889.0</ele><time>2026-04-30T11:05:57.002Z</time></trkpt><trkpt lat="37.75967883039859" lon="13.774902508643759"><ele>889.0</ele><time>2026-04-30T11:05:58.002Z</time></trkpt><trkpt lat="37.759716336979125" lon="13.77478611118045"><ele>889.0000000000001</ele><time>2026-04-30T11:05:59.002Z</time></trkpt><trkpt lat="37.759762328145285" lon="13.774689701926398"><ele>889.0000000000001</ele><time>2026-04-30T11:06:00.002Z</time></trkpt><trkpt lat="37.759835850971285" lon="13.774599498810245"><ele>889.0</ele><time>2026-04-30T11:06:01.002Z</time></trkpt><trkpt lat="37.759943020329075" lon="13.774517052440256"><ele>889.0</ele><time>2026-04-30T11:06:02.002Z</time></trkpt><trkpt lat="37.76006313789236" lon="13.774417697300809"><ele>888.5</ele><time>2026-04-30T11:06:03.002Z</time></trkpt><trkpt lat="37.76016228886973" lon="13.774293157640974"><ele>888.0</ele><time>2026-04-30T11:06:04.002Z</time></trkpt><trkpt lat="37.76024578063082" lon="13.77417230480097"><ele>887.5</ele><time>2026-04-30T11:06:05.003Z</time></trkpt><trkpt lat="37.760317568496774" lon="13.774081562021067"><ele>887.0</ele><time>2026-04-30T11:06:06.003Z</time></trkpt><trkpt lat="37.76041620487039" lon="13.773998489385958"><ele>887.0</ele><time>2026-04-30T11:06:07.003Z</time></trkpt><trkpt lat="37.76053526044574" lon="13.773911530550935"><ele>887.0</ele><time>2026-04-30T11:06:08.003Z</time></trkpt><trkpt lat="37.76062936647852" lon="13.773829577245262"><ele>887.0</ele><time>2026-04-30T11:06:09.003Z</time></trkpt><trkpt lat="37.760702681009136" lon="13.773743924981996"><ele>887.0</ele><time>2026-04-30T11:06:10.003Z</time></trkpt><trkpt lat="37.760775727087804" lon="13.77362923074109"><ele>886.5</ele><time>2026-04-30T11:06:11.003Z</time></trkpt><trkpt lat="37.76084682710468" lon="13.773485432386549"><ele>886.0</ele><time>2026-04-30T11:06:12.003Z</time></trkpt><trkpt lat="37.760921677001534" lon="13.77333260357786"><ele>885.5</ele><time>2026-04-30T11:06:13.003Z</time></trkpt><trkpt lat="37.76099667039922" lon="13.77319164381244"><ele>885.0</ele><time>2026-04-30T11:06:14.003Z</time></trkpt><trkpt lat="37.76107009156668" lon="13.773061017785965"><ele>883.8</ele><time>2026-04-30T11:06:15.003Z</time></trkpt><trkpt lat="37.76114082014615" lon="13.772932143820206"><ele>882.6</ele><time>2026-04-30T11:06:16.003Z</time></trkpt><trkpt lat="37.761216099760745" lon="13.772808565102277"><ele>881.4000000000001</ele><time>2026-04-30T11:06:17.003Z</time></trkpt><trkpt lat="37.76129286335451" lon="13.772720415114637"><ele>880.2</ele><time>2026-04-30T11:06:18.003Z</time></trkpt><trkpt lat="37.76137777120363" lon="13.77266115221532"><ele>879.0</ele><time>2026-04-30T11:06:19.003Z</time></trkpt><trkpt lat="37.76148839626528" lon="13.772617654877404"><ele>879.0</ele><time>2026-04-30T11:06:20.003Z</time></trkpt><trkpt lat="37.761607137954286" lon="13.772588652261552"><ele>879.0</ele><time>2026-04-30T11:06:21.003Z</time></trkpt><trkpt lat="37.76171822432933" lon="13.772567036857984"><ele>879.0</ele><time>2026-04-30T11:06:22.003Z</time></trkpt><trkpt lat="37.761839389900494" lon="13.772527238122466"><ele>879.0</ele><time>2026-04-30T11:06:23.003Z</time></trkpt><trkpt lat="37.76195952472315" lon="13.772474841278507"><ele>876.8000000000001</ele><time>2026-04-30T11:06:24.003Z</time></trkpt><trkpt lat="37.762068554289115" lon="13.772437364585942"><ele>874.6000000000001</ele><time>2026-04-30T11:06:25.003Z</time></trkpt><trkpt lat="37.762177207781804" lon="13.77240927077162"><ele>872.4</ele><time>2026-04-30T11:06:26.003Z</time></trkpt><trkpt lat="37.76227865281747" lon="13.772382528369857"><ele>870.2</ele><time>2026-04-30T11:06:27.003Z</time></trkpt><trkpt lat="37.76238887945728" lon="13.772353288898678"><ele>868.0</ele><time>2026-04-30T11:06:28.003Z</time></trkpt><trkpt lat="37.76249004766328" lon="13.772322736262758"><ele>868.0</ele><time>2026-04-30T11:06:29.003Z</time></trkpt><trkpt lat="37.762579688263735" lon="13.772289113723104"><ele>868.0</ele><time>2026-04-30T11:06:30.003Z</time></trkpt><trkpt lat="37.76266605900414" lon="13.772234489915231"><ele>868.0</ele><time>2026-04-30T11:06:31.003Z</time></trkpt><trkpt lat="37.76275081883379" lon="13.772162087358108"><ele>868.0</ele><time>2026-04-30T11:06:32.003Z</time></trkpt><trkpt lat="37.762824974297374" lon="13.772083838587376"><ele>868.0</ele><time>2026-04-30T11:06:33.003Z</time></trkpt><trkpt lat="37.762893262573606" lon="13.771999872474428"><ele>864.5</ele><time>2026-04-30T11:06:34.003Z</time></trkpt><trkpt lat="37.76294980870562" lon="13.771909362236173"><ele>861.0</ele><time>2026-04-30T11:06:35.003Z</time></trkpt><trkpt lat="37.76298074238123" lon="13.771830350235733"><ele>857.5</ele><time>2026-04-30T11:06:36.003Z</time></trkpt><trkpt lat="37.76294101387696" lon="13.77163588317602"><ele>854.0</ele><time>2026-04-30T11:06:38Z</time></trkpt><trkpt lat="37.7628535488552" lon="13.771510319312494"><ele>855.0</ele><time>2026-04-30T11:06:39Z</time></trkpt><trkpt lat="37.762743346480725" lon="13.771393943637921"><ele>856.0</ele><time>2026-04-30T11:06:40Z</time></trkpt><trkpt lat="37.76267211072817" lon="13.77129831410117"><ele>857.0</ele><time>2026-04-30T11:06:41Z</time></trkpt><trkpt lat="37.762631027459705" lon="13.771169138685483"><ele>858.0</ele><time>2026-04-30T11:06:42Z</time></trkpt><trkpt lat="37.76262745499974" lon="13.77100858662347"><ele>854.5</ele><time>2026-04-30T11:06:43Z</time></trkpt><trkpt lat="37.762656352710536" lon="13.770846221100008"><ele>851.0</ele><time>2026-04-30T11:06:44Z</time></trkpt><trkpt lat="37.76270078883998" lon="13.770684815860866"><ele>847.5</ele><time>2026-04-30T11:06:45Z</time></trkpt><trkpt lat="37.762762374955834" lon="13.770500939130109"><ele>844.0</ele><time>2026-04-30T11:06:46Z</time></trkpt><trkpt lat="37.76280323938061" lon="13.770313461940502"><ele>839.25</ele><time>2026-04-30T11:06:47Z</time></trkpt><trkpt lat="37.76283830295828" lon="13.770146663579544"><ele>834.5</ele><time>2026-04-30T11:06:48Z</time></trkpt><trkpt lat="37.76286722595416" lon="13.769967702166706"><ele>829.75</ele><time>2026-04-30T11:06:49Z</time></trkpt><trkpt lat="37.76288972513018" lon="13.769780995543554"><ele>825.0</ele><time>2026-04-30T11:06:50Z</time></trkpt><trkpt lat="37.76290094443722" lon="13.76961359064958"><ele>825.0</ele><time>2026-04-30T11:06:51Z</time></trkpt><trkpt lat="37.76290969133744" lon="13.769452214392539"><ele>825.0</ele><time>2026-04-30T11:06:52Z</time></trkpt><trkpt lat="37.76293057383997" lon="13.769256346913442"><ele>825.0</ele><time>2026-04-30T11:06:53Z</time></trkpt><trkpt lat="37.76296761794289" lon="13.769043850648298"><ele>824.75</ele><time>2026-04-30T11:06:54Z</time></trkpt><trkpt lat="37.76300146573933" lon="13.768858652493323"><ele>824.5</ele><time>2026-04-30T11:06:55Z</time></trkpt><trkpt lat="37.76303652683523" lon="13.76869145474705"><ele>824.25</ele><time>2026-04-30T11:06:56Z</time></trkpt><trkpt lat="37.763088701021324" lon="13.76851438270467"><ele>824.0</ele><time>2026-04-30T11:06:57Z</time></trkpt><trkpt lat="37.763164290318954" lon="13.768316937379485"><ele>823.0</ele><time>2026-04-30T11:06:58.001Z</time></trkpt><trkpt lat="37.763253001492785" lon="13.768110420552507"><ele>822.0</ele><time>2026-04-30T11:06:59.001Z</time></trkpt><trkpt lat="37.76334207784628" lon="13.767916471380405"><ele>821.0</ele><time>2026-04-30T11:07:00.001Z</time></trkpt><trkpt lat="37.76343926495709" lon="13.76772203487636"><ele>818.0</ele><time>2026-04-30T11:07:01.001Z</time></trkpt><trkpt lat="37.763538343076874" lon="13.76752722588476"><ele>815.0</ele><time>2026-04-30T11:07:02.001Z</time></trkpt><trkpt lat="37.763637047587174" lon="13.767326700542275"><ele>812.0</ele><time>2026-04-30T11:07:03.001Z</time></trkpt><trkpt lat="37.76373114943812" lon="13.767139477292094"><ele>812.0</ele><time>2026-04-30T11:07:04.001Z</time></trkpt><trkpt lat="37.76382846250203" lon="13.766948899123234"><ele>812.0</ele><time>2026-04-30T11:07:05.001Z</time></trkpt><trkpt lat="37.76391761598457" lon="13.766762209144607"><ele>812.0</ele><time>2026-04-30T11:07:06.001Z</time></trkpt><trkpt lat="37.76399498604841" lon="13.766563479573989"><ele>814.3333333333334</ele><time>2026-04-30T11:07:07.001Z</time></trkpt><trkpt lat="37.76408087492303" lon="13.766379484910985"><ele>816.6666666666667</ele><time>2026-04-30T11:07:08.001Z</time></trkpt><trkpt lat="37.764152266150795" lon="13.76622189774563"><ele>819.0</ele><time>2026-04-30T11:07:09.001Z</time></trkpt><trkpt lat="37.7642234898416" lon="13.766066540370508"><ele>818.5</ele><time>2026-04-30T11:07:10.001Z</time></trkpt><trkpt lat="37.764291218874796" lon="13.765914513715114"><ele>818.0</ele><time>2026-04-30T11:07:11.001Z</time></trkpt><trkpt lat="37.764345534646935" lon="13.765783601270607"><ele>817.5</ele><time>2026-04-30T11:07:12.001Z</time></trkpt><trkpt lat="37.76439327770914" lon="13.765642093013735"><ele>817.0</ele><time>2026-04-30T11:07:13.001Z</time></trkpt><trkpt lat="37.76445256400579" lon="13.765474186123674"><ele>813.6666666666666</ele><time>2026-04-30T11:07:14.001Z</time></trkpt><trkpt lat="37.764524969974346" lon="13.765277296827025"><ele>810.3333333333333</ele><time>2026-04-30T11:07:15.001Z</time></trkpt><trkpt lat="37.764592517229964" lon="13.765094079588103"><ele>807.0</ele><time>2026-04-30T11:07:16.001Z</time></trkpt><trkpt lat="37.76465444970686" lon="13.764921818347554"><ele>806.25</ele><time>2026-04-30T11:07:17.001Z</time></trkpt><trkpt lat="37.764712694743466" lon="13.764754752689685"><ele>805.5</ele><time>2026-04-30T11:07:18.001Z</time></trkpt><trkpt lat="37.76477010772727" lon="13.764591035418507"><ele>804.75</ele><time>2026-04-30T11:07:19.001Z</time></trkpt><trkpt lat="37.76482640051794" lon="13.764447654467947"><ele>804.0</ele><time>2026-04-30T11:07:20.001Z</time></trkpt><trkpt lat="37.764882640703796" lon="13.764308809293015"><ele>803.5</ele><time>2026-04-30T11:07:21.001Z</time></trkpt><trkpt lat="37.76494087141263" lon="13.76418065937776"><ele>803.0</ele><time>2026-04-30T11:07:22.001Z</time></trkpt><trkpt lat="37.7650026787907" lon="13.7640729088001"><ele>802.5</ele><time>2026-04-30T11:07:23.001Z</time></trkpt><trkpt lat="37.76509113637441" lon="13.763967347234578"><ele>802.0</ele><time>2026-04-30T11:07:24.001Z</time></trkpt><trkpt lat="37.76520666164373" lon="13.76384362312785"><ele>799.0</ele><time>2026-04-30T11:07:25.001Z</time></trkpt><trkpt lat="37.765310562352546" lon="13.763720180760357"><ele>796.0</ele><time>2026-04-30T11:07:26.001Z</time></trkpt><trkpt lat="37.7654067436419" lon="13.763615630207365"><ele>793.0</ele><time>2026-04-30T11:07:27.001Z</time></trkpt><trkpt lat="37.765514357789776" lon="13.763508164386373"><ele>790.0</ele><time>2026-04-30T11:07:28.001Z</time></trkpt><trkpt lat="37.765597442902006" lon="13.763411844165622"><ele>788.75</ele><time>2026-04-30T11:07:29.001Z</time></trkpt><trkpt lat="37.76565696836037" lon="13.763319870599418"><ele>787.5</ele><time>2026-04-30T11:07:30.001Z</time></trkpt><trkpt lat="37.765679689770614" lon="13.763205612600709"><ele>786.25</ele><time>2026-04-30T11:07:31.001Z</time></trkpt><trkpt lat="37.76567418083621" lon="13.763046787109888"><ele>785.0</ele><time>2026-04-30T11:07:32.001Z</time></trkpt><trkpt lat="37.765641312657245" lon="13.762861326381485"><ele>782.25</ele><time>2026-04-30T11:07:33.001Z</time></trkpt><trkpt lat="37.76558192470861" lon="13.762677315425766"><ele>779.5</ele><time>2026-04-30T11:07:34.001Z</time></trkpt><trkpt lat="37.76552666843009" lon="13.762524994203659"><ele>776.75</ele><time>2026-04-30T11:07:35.001Z</time></trkpt><trkpt lat="37.765484538793736" lon="13.76238425525452"><ele>774.0</ele><time>2026-04-30T11:07:36.001Z</time></trkpt><trkpt lat="37.76545012172761" lon="13.762224267289776"><ele>774.0</ele><time>2026-04-30T11:07:37.002Z</time></trkpt><trkpt lat="37.76542364512904" lon="13.762044694358082"><ele>774.0</ele><time>2026-04-30T11:07:38.002Z</time></trkpt><trkpt lat="37.765408547788276" lon="13.761881556037755"><ele>774.0</ele><time>2026-04-30T11:07:39.002Z</time></trkpt><trkpt lat="37.76541782989473" lon="13.761671024814438"><ele>774.0</ele><time>2026-04-30T11:07:40.002Z</time></trkpt><trkpt lat="37.76545387582232" lon="13.761428468924402"><ele>771.3333333333334</ele><time>2026-04-30T11:07:41.002Z</time></trkpt><trkpt lat="37.76550585637269" lon="13.761178814927822"><ele>768.6666666666667</ele><time>2026-04-30T11:07:42.002Z</time></trkpt><trkpt lat="37.76554523039076" lon="13.760962861996742"><ele>766.0</ele><time>2026-04-30T11:07:43.002Z</time></trkpt><trkpt lat="37.76555960502923" lon="13.760759382614582"><ele>765.75</ele><time>2026-04-30T11:07:44.002Z</time></trkpt><trkpt lat="37.76555960432113" lon="13.76055598615"><ele>765.5</ele><time>2026-04-30T11:07:45.002Z</time></trkpt><trkpt lat="37.765553526663304" lon="13.760373078320592"><ele>765.25</ele><time>2026-04-30T11:07:46.002Z</time></trkpt><trkpt lat="37.765559392106915" lon="13.760205061198452"><ele>765.0</ele><time>2026-04-30T11:07:47.002Z</time></trkpt><trkpt lat="37.76558645332502" lon="13.760042148601475"><ele>764.25</ele><time>2026-04-30T11:07:48.002Z</time></trkpt><trkpt lat="37.765627974917734" lon="13.759883608351494"><ele>763.5</ele><time>2026-04-30T11:07:49.002Z</time></trkpt><trkpt lat="37.76566963579806" lon="13.759728260717168"><ele>762.75</ele><time>2026-04-30T11:07:50.002Z</time></trkpt><trkpt lat="37.765705140260984" lon="13.75960008139127"><ele>762.0</ele><time>2026-04-30T11:07:51.002Z</time></trkpt><trkpt lat="37.76574812349224" lon="13.759490888109278"><ele>762.0</ele><time>2026-04-30T11:07:52.002Z</time></trkpt><trkpt lat="37.76577931918606" lon="13.759369525724445"><ele>762.0</ele><time>2026-04-30T11:07:53.002Z</time></trkpt><trkpt lat="37.765798768453195" lon="13.759191178235842"><ele>762.0</ele><time>2026-04-30T11:07:54.002Z</time></trkpt><trkpt lat="37.76581005829543" lon="13.758956620274434"><ele>762.0</ele><time>2026-04-30T11:07:55.002Z</time></trkpt><trkpt lat="37.765824473919935" lon="13.758721474710729"><ele>758.3333333333334</ele><time>2026-04-30T11:07:56.002Z</time></trkpt><trkpt lat="37.765838560648625" lon="13.758504180459093"><ele>754.6666666666667</ele><time>2026-04-30T11:07:57.002Z</time></trkpt><trkpt lat="37.76585094982221" lon="13.758296147076361"><ele>751.0</ele><time>2026-04-30T11:07:58.002Z</time></trkpt><trkpt lat="37.765863076982654" lon="13.758105875722915"><ele>751.0</ele><time>2026-04-30T11:07:59.002Z</time></trkpt><trkpt lat="37.76587990651474" lon="13.75793920739578"><ele>751.0</ele><time>2026-04-30T11:08:00.002Z</time></trkpt><trkpt lat="37.76591506711683" lon="13.757796670540278"><ele>751.0</ele><time>2026-04-30T11:08:01.002Z</time></trkpt><trkpt lat="37.76596938420722" lon="13.757673306243866"><ele>751.0</ele><time>2026-04-30T11:08:02.002Z</time></trkpt><trkpt lat="37.76604877057762" lon="13.757567232355486"><ele>749.75</ele><time>2026-04-30T11:08:03.002Z</time></trkpt><trkpt lat="37.76615047742301" lon="13.757465448123575"><ele>748.5</ele><time>2026-04-30T11:08:04.002Z</time></trkpt><trkpt lat="37.76624465267827" lon="13.757350507547399"><ele>747.25</ele><time>2026-04-30T11:08:05.002Z</time></trkpt><trkpt lat="37.766322424666555" lon="13.757223885752687"><ele>746.0</ele><time>2026-04-30T11:08:06.002Z</time></trkpt><trkpt lat="37.76637296653108" lon="13.757086121495876"><ele>746.0</ele><time>2026-04-30T11:08:07.002Z</time></trkpt><trkpt lat="37.76639828424866" lon="13.756932486762112"><ele>746.0</ele><time>2026-04-30T11:08:08.002Z</time></trkpt><trkpt lat="37.76639965718269" lon="13.756760902182702"><ele>746.0</ele><time>2026-04-30T11:08:09.002Z</time></trkpt><trkpt lat="37.76639891024392" lon="13.756553107668493"><ele>746.0</ele><time>2026-04-30T11:08:10.002Z</time></trkpt><trkpt lat="37.76640550098932" lon="13.756315406451288"><ele>747.6666666666666</ele><time>2026-04-30T11:08:11.002Z</time></trkpt><trkpt lat="37.76641917280294" lon="13.756071198590279"><ele>749.3333333333334</ele><time>2026-04-30T11:08:12.002Z</time></trkpt><trkpt lat="37.76643104204193" lon="13.755852004517214"><ele>751.0</ele><time>2026-04-30T11:08:13.003Z</time></trkpt><trkpt lat="37.766430567571696" lon="13.75564351056878"><ele>752.0</ele><time>2026-04-30T11:08:14.003Z</time></trkpt><trkpt lat="37.76641975244511" lon="13.755431732358371"><ele>753.0</ele><time>2026-04-30T11:08:15.003Z</time></trkpt><trkpt lat="37.76640622610677" lon="13.75523491884109"><ele>754.0</ele><time>2026-04-30T11:08:16.003Z</time></trkpt><trkpt lat="37.76638080134668" lon="13.755063420912892"><ele>754.0</ele><time>2026-04-30T11:08:17.003Z</time></trkpt><trkpt lat="37.76633360945221" lon="13.754883508523863"><ele>754.0</ele><time>2026-04-30T11:08:18.003Z</time></trkpt><trkpt lat="37.76626974978202" lon="13.754696849993431"><ele>754.0</ele><time>2026-04-30T11:08:19.003Z</time></trkpt><trkpt lat="37.76623231899509" lon="13.754532088924883"><ele>754.0</ele><time>2026-04-30T11:08:20.003Z</time></trkpt><trkpt lat="37.76621817299617" lon="13.754360100877797"><ele>753.3333333333334</ele><time>2026-04-30T11:08:21.003Z</time></trkpt><trkpt lat="37.76621253684119" lon="13.754173022553418"><ele>752.6666666666666</ele><time>2026-04-30T11:08:22.003Z</time></trkpt><trkpt lat="37.766213956579186" lon="13.753979755531448"><ele>752.0</ele><time>2026-04-30T11:08:23.003Z</time></trkpt><trkpt lat="37.76620821292624" lon="13.753789570116744"><ele>752.0</ele><time>2026-04-30T11:08:24.003Z</time></trkpt><trkpt lat="37.76619897675251" lon="13.753606583142684"><ele>752.0</ele><time>2026-04-30T11:08:25.003Z</time></trkpt><trkpt lat="37.766188537650294" lon="13.753440294132853"><ele>752.0</ele><time>2026-04-30T11:08:26.003Z</time></trkpt><trkpt lat="37.7661949944969" lon="13.753265111378061"><ele>752.0</ele><time>2026-04-30T11:08:27.003Z</time></trkpt><trkpt lat="37.76621435083132" lon="13.753053748718896"><ele>753.0</ele><time>2026-04-30T11:08:28.003Z</time></trkpt><trkpt lat="37.766238556001234" lon="13.75280967505516"><ele>754.0</ele><time>2026-04-30T11:08:29.003Z</time></trkpt><trkpt lat="37.766256759621754" lon="13.752556940884604"><ele>755.0</ele><time>2026-04-30T11:08:30.003Z</time></trkpt><trkpt lat="37.766268783384106" lon="13.752350879519557"><ele>758.0</ele><time>2026-04-30T11:08:31.003Z</time></trkpt><trkpt lat="37.76627635163825" lon="13.752139110765834"><ele>761.0</ele><time>2026-04-30T11:08:32.003Z</time></trkpt><trkpt lat="37.76627531638498" lon="13.751954318131897"><ele>764.0</ele><time>2026-04-30T11:08:33.003Z</time></trkpt><trkpt lat="37.766271262385814" lon="13.751771887768276"><ele>764.0</ele><time>2026-04-30T11:08:34.003Z</time></trkpt><trkpt lat="37.76626950229916" lon="13.751555798433"><ele>764.0</ele><time>2026-04-30T11:08:35.003Z</time></trkpt><trkpt lat="37.766263411871364" lon="13.751294392480117"><ele>764.0</ele><time>2026-04-30T11:08:36.003Z</time></trkpt><trkpt lat="37.76626286443707" lon="13.751032558401024"><ele>762.0</ele><time>2026-04-30T11:08:37.003Z</time></trkpt><trkpt lat="37.76626430786245" lon="13.75077305801339"><ele>760.0</ele><time>2026-04-30T11:08:38.003Z</time></trkpt><trkpt lat="37.766264345944634" lon="13.750521530281503"><ele>758.0</ele><time>2026-04-30T11:08:39.003Z</time></trkpt><trkpt lat="37.766263738658104" lon="13.750278397938231"><ele>757.0</ele><time>2026-04-30T11:08:40.003Z</time></trkpt><trkpt lat="37.76626180258127" lon="13.75003705788706"><ele>756.0</ele><time>2026-04-30T11:08:41.003Z</time></trkpt><trkpt lat="37.76626483299984" lon="13.749808212714328"><ele>755.0</ele><time>2026-04-30T11:08:42.003Z</time></trkpt><trkpt lat="37.766268287947874" lon="13.74962101819582"><ele>755.0</ele><time>2026-04-30T11:08:43.001Z</time></trkpt><trkpt lat="37.76625381679976" lon="13.749433056391032"><ele>755.0</ele><time>2026-04-30T11:08:44.001Z</time></trkpt><trkpt lat="37.76626021569883" lon="13.74921912319354"><ele>755.0</ele><time>2026-04-30T11:08:45.001Z</time></trkpt><trkpt lat="37.76625555921254" lon="13.748999266205173"><ele>756.6666666666666</ele><time>2026-04-30T11:08:46.001Z</time></trkpt><trkpt lat="37.76625726906857" lon="13.74879169678257"><ele>758.3333333333334</ele><time>2026-04-30T11:08:47.001Z</time></trkpt><trkpt lat="37.76624857041246" lon="13.748594607264591"><ele>760.0</ele><time>2026-04-30T11:08:48.001Z</time></trkpt><trkpt lat="37.76623583813511" lon="13.748421181842966"><ele>762.0</ele><time>2026-04-30T11:08:49.001Z</time></trkpt><trkpt lat="37.76620909270868" lon="13.74827905906868"><ele>764.0</ele><time>2026-04-30T11:08:50.001Z</time></trkpt><trkpt lat="37.766165591378915" lon="13.748141336860549"><ele>766.0</ele><time>2026-04-30T11:08:51.001Z</time></trkpt><trkpt lat="37.76611833141762" lon="13.747978044483405"><ele>768.0</ele><time>2026-04-30T11:08:52.001Z</time></trkpt><trkpt lat="37.76609845403312" lon="13.74781110557217"><ele>769.3333333333333</ele><time>2026-04-30T11:08:53.001Z</time></trkpt><trkpt lat="37.76610141519334" lon="13.747619210311903"><ele>770.6666666666666</ele><time>2026-04-30T11:08:54.001Z</time></trkpt><trkpt lat="37.76610841151862" lon="13.747419621689904"><ele>772.0</ele><time>2026-04-30T11:08:55.001Z</time></trkpt><trkpt lat="37.766112505062544" lon="13.747212623738982"><ele>772.0</ele><time>2026-04-30T11:08:56.001Z</time></trkpt><trkpt lat="37.766116750820665" lon="13.747008332110898"><ele>772.0</ele><time>2026-04-30T11:08:57.001Z</time></trkpt><trkpt lat="37.766126134930715" lon="13.746826254855188"><ele>772.0</ele><time>2026-04-30T11:08:58.001Z</time></trkpt><trkpt lat="37.7661413137518" lon="13.746644821554382"><ele>771.5</ele><time>2026-04-30T11:08:59.001Z</time></trkpt><trkpt lat="37.76615546164139" lon="13.746473273444451"><ele>771.0</ele><time>2026-04-30T11:09:00.001Z</time></trkpt><trkpt lat="37.76617927008984" lon="13.746286623501652"><ele>770.5</ele><time>2026-04-30T11:09:01.001Z</time></trkpt><trkpt lat="37.766205009997535" lon="13.746099010333957"><ele>770.0</ele><time>2026-04-30T11:09:02.001Z</time></trkpt><trkpt lat="37.766222119891914" lon="13.745907571105729"><ele>767.0</ele><time>2026-04-30T11:09:03.001Z</time></trkpt><trkpt lat="37.76622643608285" lon="13.745697721235024"><ele>764.0</ele><time>2026-04-30T11:09:04.001Z</time></trkpt><trkpt lat="37.76623083322109" lon="13.745494866899893"><ele>761.0</ele><time>2026-04-30T11:09:05.001Z</time></trkpt><trkpt lat="37.76624233453226" lon="13.745304776290823"><ele>760.25</ele><time>2026-04-30T11:09:06.001Z</time></trkpt><trkpt lat="37.76625417806324" lon="13.745133962668936"><ele>759.5</ele><time>2026-04-30T11:09:07.001Z</time></trkpt><trkpt lat="37.766271861610825" lon="13.744989181680106"><ele>758.75</ele><time>2026-04-30T11:09:08.001Z</time></trkpt><trkpt lat="37.7663070962256" lon="13.744837311886108"><ele>758.0</ele><time>2026-04-30T11:09:09.001Z</time></trkpt><trkpt lat="37.76634963631691" lon="13.744656727287813"><ele>758.0</ele><time>2026-04-30T11:09:10.001Z</time></trkpt><trkpt lat="37.766367703250864" lon="13.744440892220238"><ele>758.0</ele><time>2026-04-30T11:09:11.001Z</time></trkpt><trkpt lat="37.766376483456405" lon="13.74421393076441"><ele>758.0</ele><time>2026-04-30T11:09:12.001Z</time></trkpt><trkpt lat="37.76638451120443" lon="13.743987006719307"><ele>759.0</ele><time>2026-04-30T11:09:13.001Z</time></trkpt><trkpt lat="37.766387204777274" lon="13.74377602712707"><ele>760.0</ele><time>2026-04-30T11:09:14.001Z</time></trkpt><trkpt lat="37.76639144446035" lon="13.743578175362204"><ele>761.0</ele><time>2026-04-30T11:09:15.001Z</time></trkpt><trkpt lat="37.766393737988615" lon="13.743409422722843"><ele>761.0</ele><time>2026-04-30T11:09:16.001Z</time></trkpt><trkpt lat="37.76639825053161" lon="13.743256279765678"><ele>761.0</ele><time>2026-04-30T11:09:17.001Z</time></trkpt><trkpt lat="37.76641835945836" lon="13.74312179030205"><ele>761.0</ele><time>2026-04-30T11:09:18.001Z</time></trkpt><trkpt lat="37.76646279236652" lon="13.742968504325749"><ele>761.0</ele><time>2026-04-30T11:09:19.001Z</time></trkpt><trkpt lat="37.76651885726519" lon="13.742777450704434"><ele>761.0</ele><time>2026-04-30T11:09:20.001Z</time></trkpt><trkpt lat="37.76657683747587" lon="13.742572469804434"><ele>761.0</ele><time>2026-04-30T11:09:21.001Z</time></trkpt><trkpt lat="37.76662533759728" lon="13.742404729225427"><ele>761.0</ele><time>2026-04-30T11:09:22.001Z</time></trkpt><trkpt lat="37.76667334918509" lon="13.742260575708702"><ele>761.0</ele><time>2026-04-30T11:09:23.001Z</time></trkpt><trkpt lat="37.76672685325899" lon="13.742103225813501"><ele>761.0</ele><time>2026-04-30T11:09:24.001Z</time></trkpt><trkpt lat="37.76677486255776" lon="13.741951131659794"><ele>761.0</ele><time>2026-04-30T11:09:25.001Z</time></trkpt><trkpt lat="37.76681434240604" lon="13.741819549570153"><ele>761.0</ele><time>2026-04-30T11:09:26.001Z</time></trkpt><trkpt lat="37.76686242449819" lon="13.74170716456608"><ele>761.0</ele><time>2026-04-30T11:09:27.001Z</time></trkpt><trkpt lat="37.7669330799929" lon="13.741584927250505"><ele>758.6666666666666</ele><time>2026-04-30T11:09:28.001Z</time></trkpt><trkpt lat="37.76701787623678" lon="13.741434413081679"><ele>756.3333333333334</ele><time>2026-04-30T11:09:29.001Z</time></trkpt><trkpt lat="37.76711226261413" lon="13.741273371701517"><ele>754.0</ele><time>2026-04-30T11:09:30.001Z</time></trkpt><trkpt lat="37.76721012857599" lon="13.741126505116789"><ele>753.0</ele><time>2026-04-30T11:09:31.001Z</time></trkpt><trkpt lat="37.76731629339087" lon="13.740992199981116"><ele>752.0</ele><time>2026-04-30T11:09:32.001Z</time></trkpt><trkpt lat="37.76743562434314" lon="13.740849360049893"><ele>751.0</ele><time>2026-04-30T11:09:33.001Z</time></trkpt><trkpt lat="37.76754649302299" lon="13.740717755816844"><ele>751.0</ele><time>2026-04-30T11:09:34.001Z</time></trkpt><trkpt lat="37.76762930735989" lon="13.740614611655912"><ele>751.0</ele><time>2026-04-30T11:09:35.001Z</time></trkpt><trkpt lat="37.767686080608925" lon="13.740540915252431"><ele>751.0</ele><time>2026-04-30T11:09:36.001Z</time></trkpt><trkpt lat="37.767737804073754" lon="13.74048781657728"><ele>751.0</ele><time>2026-04-30T11:09:37.001Z</time></trkpt><trkpt lat="37.76780934816254" lon="13.740486908747494"><ele>751.0</ele><time>2026-04-30T11:09:39.001Z</time></trkpt><trkpt lat="37.76778685925428" lon="13.740661129266563"><ele>751.0</ele><time>2026-04-30T11:09:41.001Z</time></trkpt><trkpt lat="37.767745633557055" lon="13.740820222569447"><ele>751.0</ele><time>2026-04-30T11:09:42.001Z</time></trkpt><trkpt lat="37.767729307315655" lon="13.741015755408137"><ele>751.0</ele><time>2026-04-30T11:09:43.001Z</time></trkpt><trkpt lat="37.767749461504934" lon="13.741207596713616"><ele>751.0</ele><time>2026-04-30T11:09:44.001Z</time></trkpt><trkpt lat="37.7678105629517" lon="13.741358799937931"><ele>751.0</ele><time>2026-04-30T11:09:45.002Z</time></trkpt><trkpt lat="37.767913749446244" lon="13.741466570548898"><ele>751.0</ele><time>2026-04-30T11:09:46.002Z</time></trkpt><trkpt lat="37.76806318805728" lon="13.741532597373189"><ele>751.0</ele><time>2026-04-30T11:09:47.002Z</time></trkpt><trkpt lat="37.76825090637036" lon="13.741557533413488"><ele>751.0</ele><time>2026-04-30T11:09:48.002Z</time></trkpt><trkpt lat="37.768475450924925" lon="13.741575022711462"><ele>751.0</ele><time>2026-04-30T11:09:49.002Z</time></trkpt><trkpt lat="37.76872590613418" lon="13.741613232840976"><ele>750.5</ele><time>2026-04-30T11:09:50.002Z</time></trkpt><trkpt lat="37.768976896892234" lon="13.741657639891722"><ele>750.0</ele><time>2026-04-30T11:09:51.002Z</time></trkpt><trkpt lat="37.76920273229609" lon="13.741697547731965"><ele>748.3333333333334</ele><time>2026-04-30T11:09:52.002Z</time></trkpt><trkpt lat="37.76940575008238" lon="13.741736838738824"><ele>746.6666666666667</ele><time>2026-04-30T11:09:53.002Z</time></trkpt><trkpt lat="37.769602518511114" lon="13.74178087819371"><ele>745.0</ele><time>2026-04-30T11:09:54.002Z</time></trkpt><trkpt lat="37.76981172722928" lon="13.741847056349632"><ele>744.0</ele><time>2026-04-30T11:09:55.002Z</time></trkpt><trkpt lat="37.77003349733192" lon="13.741955249188216"><ele>743.0</ele><time>2026-04-30T11:09:56.002Z</time></trkpt><trkpt lat="37.770263297191036" lon="13.742087340352615"><ele>743.0</ele><time>2026-04-30T11:09:57.002Z</time></trkpt><trkpt lat="37.77050907829783" lon="13.742238682024036"><ele>743.0</ele><time>2026-04-30T11:09:58.002Z</time></trkpt><trkpt lat="37.77076019841818" lon="13.74240417845363"><ele>743.0</ele><time>2026-04-30T11:09:59.002Z</time></trkpt><trkpt lat="37.77098777199453" lon="13.742558453857791"><ele>743.0</ele><time>2026-04-30T11:10:00.002Z</time></trkpt><trkpt lat="37.77117485703132" lon="13.742677776525664"><ele>743.3333333333333</ele><time>2026-04-30T11:10:01.002Z</time></trkpt><trkpt lat="37.771325726768126" lon="13.74277089289886"><ele>743.6666666666666</ele><time>2026-04-30T11:10:02.002Z</time></trkpt><trkpt lat="37.77146739000376" lon="13.742869048633233"><ele>744.0</ele><time>2026-04-30T11:10:03.002Z</time></trkpt><trkpt lat="37.77161799954967" lon="13.742992473175349"><ele>744.0</ele><time>2026-04-30T11:10:04.002Z</time></trkpt><trkpt lat="37.77178605772339" lon="13.743132820530255"><ele>744.0</ele><time>2026-04-30T11:10:05.002Z</time></trkpt><trkpt lat="37.77196719256702" lon="13.743291878171418"><ele>744.0</ele><time>2026-04-30T11:10:06.002Z</time></trkpt><trkpt lat="37.77213389760481" lon="13.743442210391535"><ele>740.6666666666666</ele><time>2026-04-30T11:10:07.002Z</time></trkpt><trkpt lat="37.772267507722084" lon="13.743560721863568"><ele>737.3333333333333</ele><time>2026-04-30T11:10:08.002Z</time></trkpt><trkpt lat="37.77238739492134" lon="13.743671941860434"><ele>734.0</ele><time>2026-04-30T11:10:09.002Z</time></trkpt><trkpt lat="37.77248678862516" lon="13.743811976104551"><ele>734.0</ele><time>2026-04-30T11:10:10.002Z</time></trkpt><trkpt lat="37.772559125046726" lon="13.743990533360677"><ele>734.0</ele><time>2026-04-30T11:10:11.002Z</time></trkpt><trkpt lat="37.77261538563589" lon="13.744171598316377"><ele>734.0</ele><time>2026-04-30T11:10:12.002Z</time></trkpt><trkpt lat="37.77269747953422" lon="13.744444762204077"><ele>732.25</ele><time>2026-04-30T11:10:14.002Z</time></trkpt><trkpt lat="37.77267562784038" lon="13.744583514620466"><ele>730.5</ele><time>2026-04-30T11:10:15.002Z</time></trkpt><trkpt lat="37.77260537184595" lon="13.744714336935148"><ele>728.75</ele><time>2026-04-30T11:10:16.002Z</time></trkpt><trkpt lat="37.77249105368449" lon="13.744807977764976"><ele>727.0</ele><time>2026-04-30T11:10:17.002Z</time></trkpt><trkpt lat="37.77233813868253" lon="13.744864847621036"><ele>727.0</ele><time>2026-04-30T11:10:18.002Z</time></trkpt><trkpt lat="37.77216349197313" lon="13.744941947830709"><ele>727.0</ele><time>2026-04-30T11:10:19.002Z</time></trkpt><trkpt lat="37.772007046020775" lon="13.745070660428942"><ele>727.0</ele><time>2026-04-30T11:10:20.002Z</time></trkpt><trkpt lat="37.771861073834664" lon="13.745209069677099"><ele>726.0</ele><time>2026-04-30T11:10:21.002Z</time></trkpt><trkpt lat="37.77171091009063" lon="13.745350524329897"><ele>725.0</ele><time>2026-04-30T11:10:22.002Z</time></trkpt><trkpt lat="37.771531069672164" lon="13.745516562309202"><ele>724.0</ele><time>2026-04-30T11:10:23.002Z</time></trkpt><trkpt lat="37.77136176403295" lon="13.745700607973207"><ele>724.0</ele><time>2026-04-30T11:10:24.002Z</time></trkpt><trkpt lat="37.77122049211619" lon="13.74585153355725"><ele>724.0</ele><time>2026-04-30T11:10:25.002Z</time></trkpt><trkpt lat="37.771090568055236" lon="13.745976878805882"><ele>724.0</ele><time>2026-04-30T11:10:26.002Z</time></trkpt><trkpt lat="37.770963020251806" lon="13.746104206524208"><ele>724.25</ele><time>2026-04-30T11:10:27.003Z</time></trkpt><trkpt lat="37.770843109558605" lon="13.74622448650515"><ele>724.5</ele><time>2026-04-30T11:10:28.003Z</time></trkpt><trkpt lat="37.77074618504421" lon="13.746292105868458"><ele>724.75</ele><time>2026-04-30T11:10:29.003Z</time></trkpt><trkpt lat="37.77063690896238" lon="13.746324359824406"><ele>725.0</ele><time>2026-04-30T11:10:30.003Z</time></trkpt><trkpt lat="37.77049029572671" lon="13.746340757453384"><ele>725.0</ele><time>2026-04-30T11:10:31.003Z</time></trkpt><trkpt lat="37.77031691154635" lon="13.746351520673073"><ele>725.0</ele><time>2026-04-30T11:10:32.003Z</time></trkpt><trkpt lat="37.77012641053442" lon="13.746336533009782"><ele>725.0</ele><time>2026-04-30T11:10:33.003Z</time></trkpt><trkpt lat="37.769982812257986" lon="13.746306375184258"><ele>726.25</ele><time>2026-04-30T11:10:34.003Z</time></trkpt><trkpt lat="37.76987760194181" lon="13.746300572044971"><ele>727.5</ele><time>2026-04-30T11:10:35.003Z</time></trkpt><trkpt lat="37.769775119864136" lon="13.746343548211483"><ele>728.75</ele><time>2026-04-30T11:10:36.003Z</time></trkpt><trkpt lat="37.769694239926025" lon="13.74646150047958"><ele>730.0</ele><time>2026-04-30T11:10:37.003Z</time></trkpt><trkpt lat="37.76966314638083" lon="13.74660813033844"><ele>730.0</ele><time>2026-04-30T11:10:38.003Z</time></trkpt><trkpt lat="37.769689974766344" lon="13.746764829656106"><ele>730.0</ele><time>2026-04-30T11:10:39.003Z</time></trkpt><trkpt lat="37.76977293316861" lon="13.746930912529185"><ele>730.0</ele><time>2026-04-30T11:10:40.003Z</time></trkpt><trkpt lat="37.769894915719476" lon="13.747118852631077"><ele>730.6666666666667</ele><time>2026-04-30T11:10:41.003Z</time></trkpt><trkpt lat="37.770018642273115" lon="13.747330099805776"><ele>731.3333333333334</ele><time>2026-04-30T11:10:42.003Z</time></trkpt><trkpt lat="37.770128021255985" lon="13.74755698511583"><ele>732.0</ele><time>2026-04-30T11:10:43.003Z</time></trkpt><trkpt lat="37.770222692840804" lon="13.747780703537288"><ele>727.6666666666666</ele><time>2026-04-30T11:10:44.003Z</time></trkpt><trkpt lat="37.77030712225925" lon="13.747971902862808"><ele>723.3333333333333</ele><time>2026-04-30T11:10:45.003Z</time></trkpt><trkpt lat="37.77038372739733" lon="13.748148131440285"><ele>719.0</ele><time>2026-04-30T11:10:46.003Z</time></trkpt><trkpt lat="37.77044777472185" lon="13.748313626806013"><ele>719.0</ele><time>2026-04-30T11:10:47.003Z</time></trkpt><trkpt lat="37.77051177283633" lon="13.748469009353128"><ele>719.0</ele><time>2026-04-30T11:10:48.003Z</time></trkpt><trkpt lat="37.77059147602096" lon="13.748668553621137"><ele>719.0</ele><time>2026-04-30T11:10:49.001Z</time></trkpt><trkpt lat="37.770687265547224" lon="13.748859106128426"><ele>719.3333333333333</ele><time>2026-04-30T11:10:50.001Z</time></trkpt><trkpt lat="37.77076414391775" lon="13.749117109771321"><ele>719.6666666666666</ele><time>2026-04-30T11:10:51.001Z</time></trkpt><trkpt lat="37.77082296979732" lon="13.749336515978314"><ele>720.0</ele><time>2026-04-30T11:10:52.001Z</time></trkpt><trkpt lat="37.7708676480955" lon="13.749511579337229"><ele>720.0</ele><time>2026-04-30T11:10:53.001Z</time></trkpt><trkpt lat="37.770910646304614" lon="13.7496623742095"><ele>720.0</ele><time>2026-04-30T11:10:54.001Z</time></trkpt><trkpt lat="37.770977422201426" lon="13.749775182037348"><ele>720.0</ele><time>2026-04-30T11:10:55.001Z</time></trkpt><trkpt lat="37.77109309009363" lon="13.749851394704182"><ele>720.0</ele><time>2026-04-30T11:10:56.001Z</time></trkpt><trkpt lat="37.77125633970751" lon="13.749883835540155"><ele>718.3333333333334</ele><time>2026-04-30T11:10:57.001Z</time></trkpt><trkpt lat="37.77145059768055" lon="13.749875750491606"><ele>716.6666666666667</ele><time>2026-04-30T11:10:58.001Z</time></trkpt><trkpt lat="37.77168945679302" lon="13.749853056949332"><ele>715.0</ele><time>2026-04-30T11:10:59.001Z</time></trkpt><trkpt lat="37.7719415183062" lon="13.749848493864953"><ele>712.5</ele><time>2026-04-30T11:11:00.001Z</time></trkpt><trkpt lat="37.772193734133445" lon="13.749851106730887"><ele>710.0</ele><time>2026-04-30T11:11:01.001Z</time></trkpt><trkpt lat="37.7724009055688" lon="13.749852936405603"><ele>710.0</ele><time>2026-04-30T11:11:02.001Z</time></trkpt><trkpt lat="37.772576364947234" lon="13.749853021540694"><ele>710.0</ele><time>2026-04-30T11:11:03.001Z</time></trkpt><trkpt lat="37.772731840967225" lon="13.749855842091614"><ele>710.0</ele><time>2026-04-30T11:11:04.001Z</time></trkpt><trkpt lat="37.77286642410312" lon="13.749873274594336"><ele>708.3333333333333</ele><time>2026-04-30T11:11:05.001Z</time></trkpt><trkpt lat="37.77299774832718" lon="13.749932939021202"><ele>706.6666666666666</ele><time>2026-04-30T11:11:06.001Z</time></trkpt><trkpt lat="37.7731444572585" lon="13.750059571940566"><ele>705.0</ele><time>2026-04-30T11:11:07.001Z</time></trkpt><trkpt lat="37.773311156461034" lon="13.75022666591086"><ele>704.5</ele><time>2026-04-30T11:11:08.001Z</time></trkpt><trkpt lat="37.77345682902036" lon="13.75036571290437"><ele>704.0</ele><time>2026-04-30T11:11:09.001Z</time></trkpt><trkpt lat="37.773567362162865" lon="13.750470642705038"><ele>703.5</ele><time>2026-04-30T11:11:10.001Z</time></trkpt><trkpt lat="37.77364254537974" lon="13.750568554269032"><ele>703.0</ele><time>2026-04-30T11:11:11.001Z</time></trkpt><trkpt lat="37.77367567184857" lon="13.75069218959465"><ele>701.0</ele><time>2026-04-30T11:11:12.001Z</time></trkpt><trkpt lat="37.77366107915132" lon="13.750834977153493"><ele>699.0</ele><time>2026-04-30T11:11:13.001Z</time></trkpt><trkpt lat="37.773597670983534" lon="13.75097080652973"><ele>697.0</ele><time>2026-04-30T11:11:14.001Z</time></trkpt><trkpt lat="37.7734860716151" lon="13.751109394939064"><ele>695.0</ele><time>2026-04-30T11:11:15.001Z</time></trkpt><trkpt lat="37.773344606744644" lon="13.751225316261515"><ele>695.0</ele><time>2026-04-30T11:11:16.001Z</time></trkpt><trkpt lat="37.7731667043717" lon="13.751313543034422"><ele>695.0</ele><time>2026-04-30T11:11:17.001Z</time></trkpt><trkpt lat="37.772938627908275" lon="13.75137106191776"><ele>695.0</ele><time>2026-04-30T11:11:18.001Z</time></trkpt><trkpt lat="37.77268567144301" lon="13.751426339291386"><ele>694.6666666666666</ele><time>2026-04-30T11:11:19.001Z</time></trkpt><trkpt lat="37.77244954320305" lon="13.751496747024202"><ele>694.3333333333334</ele><time>2026-04-30T11:11:20.001Z</time></trkpt><trkpt lat="37.77225074967212" lon="13.751555044203227"><ele>694.0</ele><time>2026-04-30T11:11:21.001Z</time></trkpt><trkpt lat="37.77208874875092" lon="13.751597730824013"><ele>694.0</ele><time>2026-04-30T11:11:22.001Z</time></trkpt><trkpt lat="37.77194615820375" lon="13.751641355329767"><ele>694.0</ele><time>2026-04-30T11:11:23.001Z</time></trkpt><trkpt lat="37.771817037679384" lon="13.751694768440515"><ele>694.0</ele><time>2026-04-30T11:11:24.001Z</time></trkpt><trkpt lat="37.77171628606007" lon="13.75177680260506"><ele>694.0</ele><time>2026-04-30T11:11:25.001Z</time></trkpt><trkpt lat="37.77165487509997" lon="13.751916411422142"><ele>696.25</ele><time>2026-04-30T11:11:26.001Z</time></trkpt><trkpt lat="37.771637086241455" lon="13.752095898816837"><ele>698.5</ele><time>2026-04-30T11:11:27.001Z</time></trkpt><trkpt lat="37.77166139548965" lon="13.75226937753596"><ele>700.75</ele><time>2026-04-30T11:11:28.001Z</time></trkpt><trkpt lat="37.7717287050146" lon="13.752415771535201"><ele>703.0</ele><time>2026-04-30T11:11:29.001Z</time></trkpt><trkpt lat="37.771839174016165" lon="13.752544281290884"><ele>702.3333333333334</ele><time>2026-04-30T11:11:30.001Z</time></trkpt><trkpt lat="37.77199567906734" lon="13.752682850799111"><ele>701.6666666666666</ele><time>2026-04-30T11:11:31.001Z</time></trkpt><trkpt lat="37.77218029504001" lon="13.752840531867792"><ele>701.0</ele><time>2026-04-30T11:11:32.001Z</time></trkpt><trkpt lat="37.77240739172083" lon="13.752954610440042"><ele>701.0</ele><time>2026-04-30T11:11:33.001Z</time></trkpt><trkpt lat="37.77265986409547" lon="13.75308475529416"><ele>701.0</ele><time>2026-04-30T11:11:34.001Z</time></trkpt><trkpt lat="37.77287512421392" lon="13.753207138070342"><ele>697.6666666666666</ele><time>2026-04-30T11:11:35.001Z</time></trkpt><trkpt lat="37.773045176809745" lon="13.753304228702934"><ele>694.3333333333334</ele><time>2026-04-30T11:11:36.001Z</time></trkpt><trkpt lat="37.773196885061324" lon="13.753390017087499"><ele>691.0</ele><time>2026-04-30T11:11:37.001Z</time></trkpt><trkpt lat="37.773352518426925" lon="13.753488716080783"><ele>691.3333333333334</ele><time>2026-04-30T11:11:38.001Z</time></trkpt><trkpt lat="37.77352174603134" lon="13.753587712348896"><ele>691.6666666666666</ele><time>2026-04-30T11:11:39.001Z</time></trkpt><trkpt lat="37.77366214216956" lon="13.7536711297593"><ele>692.0</ele><time>2026-04-30T11:11:40.001Z</time></trkpt><trkpt lat="37.773801364082686" lon="13.753757628930948"><ele>689.75</ele><time>2026-04-30T11:11:41.001Z</time></trkpt><trkpt lat="37.77392521655578" lon="13.753850255152269"><ele>687.5</ele><time>2026-04-30T11:11:42.001Z</time></trkpt><trkpt lat="37.774024462903554" lon="13.75395031659146"><ele>685.25</ele><time>2026-04-30T11:11:43.001Z</time></trkpt><trkpt lat="37.77410291695856" lon="13.75409341889976"><ele>683.0</ele><time>2026-04-30T11:11:44.001Z</time></trkpt><trkpt lat="37.77414400854275" lon="13.754265618297712"><ele>681.25</ele><time>2026-04-30T11:11:45.001Z</time></trkpt><trkpt lat="37.77413951573356" lon="13.75439994406481"><ele>679.5</ele><time>2026-04-30T11:11:46.001Z</time></trkpt><trkpt lat="37.774082261928115" lon="13.75452530233605"><ele>677.75</ele><time>2026-04-30T11:11:48.001Z</time></trkpt><trkpt lat="37.77399169197779" lon="13.754599333515774"><ele>676.0</ele><time>2026-04-30T11:11:49.001Z</time></trkpt><trkpt lat="37.77386835592951" lon="13.75471226737955"><ele>676.0</ele><time>2026-04-30T11:11:50.002Z</time></trkpt><trkpt lat="37.77375888867417" lon="13.75485494595547"><ele>676.0</ele><time>2026-04-30T11:11:51.002Z</time></trkpt><trkpt lat="37.77369285311417" lon="13.755024912109988"><ele>676.0</ele><time>2026-04-30T11:11:52.002Z</time></trkpt><trkpt lat="37.773645079699165" lon="13.755247297822175"><ele>676.6666666666667</ele><time>2026-04-30T11:11:53.002Z</time></trkpt><trkpt lat="37.77358988071824" lon="13.755516060749363"><ele>677.3333333333334</ele><time>2026-04-30T11:11:54.002Z</time></trkpt><trkpt lat="37.7735104890145" lon="13.755763076609947"><ele>678.0</ele><time>2026-04-30T11:11:55.002Z</time></trkpt><trkpt lat="37.77346986156934" lon="13.755954034991033"><ele>678.25</ele><time>2026-04-30T11:11:56.002Z</time></trkpt><trkpt lat="37.77343930184015" lon="13.756119829855814"><ele>678.5</ele><time>2026-04-30T11:11:57.002Z</time></trkpt><trkpt lat="37.77343478894969" lon="13.756257072603441"><ele>678.75</ele><time>2026-04-30T11:11:58.002Z</time></trkpt><trkpt lat="37.77348320328132" lon="13.756395467300328"><ele>679.0</ele><time>2026-04-30T11:11:59.002Z</time></trkpt><trkpt lat="37.77358428407232" lon="13.756522448036412"><ele>676.3333333333334</ele><time>2026-04-30T11:12:00.002Z</time></trkpt><trkpt lat="37.773727427595894" lon="13.756634283927689"><ele>673.6666666666666</ele><time>2026-04-30T11:12:01.002Z</time></trkpt><trkpt lat="37.773878691280984" lon="13.756730834725209"><ele>671.0</ele><time>2026-04-30T11:12:02.002Z</time></trkpt><trkpt lat="37.7740021067304" lon="13.756821405607527"><ele>671.25</ele><time>2026-04-30T11:12:03.002Z</time></trkpt><trkpt lat="37.77409299639873" lon="13.756900205665188"><ele>671.5</ele><time>2026-04-30T11:12:04.002Z</time></trkpt><trkpt lat="37.774170067728036" lon="13.756965023330178"><ele>671.75</ele><time>2026-04-30T11:12:05.002Z</time></trkpt><trkpt lat="37.7742676987702" lon="13.757047926602192"><ele>672.0</ele><time>2026-04-30T11:12:06.002Z</time></trkpt><trkpt lat="37.77438656785538" lon="13.75717041456526"><ele>672.0</ele><time>2026-04-30T11:12:07.002Z</time></trkpt><trkpt lat="37.7744925595982" lon="13.757326287796992"><ele>672.0</ele><time>2026-04-30T11:12:08.002Z</time></trkpt><trkpt lat="37.774577122200576" lon="13.75751945467235"><ele>672.0</ele><time>2026-04-30T11:12:09.002Z</time></trkpt><trkpt lat="37.77466123959041" lon="13.757751979074824"><ele>673.0</ele><time>2026-04-30T11:12:10.002Z</time></trkpt><trkpt lat="37.77476397397475" lon="13.75800031192324"><ele>674.0</ele><time>2026-04-30T11:12:11.002Z</time></trkpt><trkpt lat="37.77485259634326" lon="13.75820072707155"><ele>675.0</ele><time>2026-04-30T11:12:12.002Z</time></trkpt><trkpt lat="37.77493009010001" lon="13.75835738149791"><ele>675.0</ele><time>2026-04-30T11:12:13.002Z</time></trkpt><trkpt lat="37.775005503565275" lon="13.758468940278624"><ele>675.0</ele><time>2026-04-30T11:12:14.002Z</time></trkpt><trkpt lat="37.77511931656939" lon="13.758543367243313"><ele>675.0</ele><time>2026-04-30T11:12:15.002Z</time></trkpt><trkpt lat="37.77525489177892" lon="13.75858622881125"><ele>675.0</ele><time>2026-04-30T11:12:16.002Z</time></trkpt><trkpt lat="37.77538956900554" lon="13.7585998599138"><ele>676.75</ele><time>2026-04-30T11:12:17.002Z</time></trkpt><trkpt lat="37.77550508793662" lon="13.758611969590278"><ele>678.5</ele><time>2026-04-30T11:12:18.002Z</time></trkpt><trkpt lat="37.77560104685582" lon="13.75865178228633"><ele>680.25</ele><time>2026-04-30T11:12:19.002Z</time></trkpt><trkpt lat="37.77568823580039" lon="13.758743384520242"><ele>682.0</ele><time>2026-04-30T11:12:20.002Z</time></trkpt><trkpt lat="37.77574661548464" lon="13.758880431841993"><ele>682.0</ele><time>2026-04-30T11:12:21.002Z</time></trkpt><trkpt lat="37.77577494809605" lon="13.759062771228988"><ele>682.0</ele><time>2026-04-30T11:12:22.002Z</time></trkpt><trkpt lat="37.775776197286504" lon="13.75929340433758"><ele>682.0</ele><time>2026-04-30T11:12:23.002Z</time></trkpt><trkpt lat="37.775770159786596" lon="13.75953121633957"><ele>682.0</ele><time>2026-04-30T11:12:24.002Z</time></trkpt><trkpt lat="37.77578491347336" lon="13.759712598077408"><ele>682.0</ele><time>2026-04-30T11:12:25.002Z</time></trkpt><trkpt lat="37.775821523876516" lon="13.759862178126587"><ele>682.0</ele><time>2026-04-30T11:12:26.002Z</time></trkpt><trkpt lat="37.77590177573346" lon="13.760014281250283"><ele>682.0</ele><time>2026-04-30T11:12:27.002Z</time></trkpt><trkpt lat="37.77603823472925" lon="13.760180223533318"><ele>684.0</ele><time>2026-04-30T11:12:28.002Z</time></trkpt><trkpt lat="37.776146298675286" lon="13.760329368551679"><ele>686.0</ele><time>2026-04-30T11:12:29.002Z</time></trkpt><trkpt lat="37.776207510726344" lon="13.760464375563798"><ele>688.0</ele><time>2026-04-30T11:12:30.002Z</time></trkpt><trkpt lat="37.77623032350358" lon="13.760593694119986"><ele>690.0</ele><time>2026-04-30T11:12:31.002Z</time></trkpt><trkpt lat="37.776222312198605" lon="13.760735654401568"><ele>690.0</ele><time>2026-04-30T11:12:32.002Z</time></trkpt><trkpt lat="37.77620382520982" lon="13.760918081698216"><ele>690.0</ele><time>2026-04-30T11:12:33.002Z</time></trkpt><trkpt lat="37.77619792893847" lon="13.761155402751259"><ele>690.0</ele><time>2026-04-30T11:12:34.002Z</time></trkpt><trkpt lat="37.77618407511688" lon="13.761427882217202"><ele>690.3333333333334</ele><time>2026-04-30T11:12:35.002Z</time></trkpt><trkpt lat="37.77615383987748" lon="13.761680473848147"><ele>690.6666666666667</ele><time>2026-04-30T11:12:36.002Z</time></trkpt><trkpt lat="37.77612639338609" lon="13.761875799344072"><ele>691.0</ele><time>2026-04-30T11:12:37.003Z</time></trkpt><trkpt lat="37.77612924770592" lon="13.762039592819521"><ele>691.0</ele><time>2026-04-30T11:12:38.003Z</time></trkpt><trkpt lat="37.776177352739" lon="13.762223561825294"><ele>691.0</ele><time>2026-04-30T11:12:39.003Z</time></trkpt><trkpt lat="37.77626467961628" lon="13.762434740490583"><ele>691.0</ele><time>2026-04-30T11:12:40.003Z</time></trkpt><trkpt lat="37.77634582582072" lon="13.762641506530557"><ele>690.75</ele><time>2026-04-30T11:12:41.003Z</time></trkpt><trkpt lat="37.77641033938709" lon="13.762830679280771"><ele>690.5</ele><time>2026-04-30T11:12:42.003Z</time></trkpt><trkpt lat="37.77644925372698" lon="13.7629861457163"><ele>690.25</ele><time>2026-04-30T11:12:43.003Z</time></trkpt><trkpt lat="37.776464233149674" lon="13.763123815695948"><ele>690.0</ele><time>2026-04-30T11:12:44.003Z</time></trkpt><trkpt lat="37.77645222778785" lon="13.763288029843855"><ele>690.0</ele><time>2026-04-30T11:12:45.003Z</time></trkpt><trkpt lat="37.77641596368432" lon="13.763503728751983"><ele>690.0</ele><time>2026-04-30T11:12:46.003Z</time></trkpt><trkpt lat="37.7763686394372" lon="13.76375194013882"><ele>690.0</ele><time>2026-04-30T11:12:47.003Z</time></trkpt><trkpt lat="37.77632685464571" lon="13.763973351512686"><ele>691.0</ele><time>2026-04-30T11:12:48.003Z</time></trkpt><trkpt lat="37.77630467502504" lon="13.764195324614784"><ele>692.0</ele><time>2026-04-30T11:12:49.003Z</time></trkpt><trkpt lat="37.77631616687265" lon="13.764452734759352"><ele>693.0</ele><time>2026-04-30T11:12:50.003Z</time></trkpt><trkpt lat="37.776335335985955" lon="13.764673189350615"><ele>693.3333333333334</ele><time>2026-04-30T11:12:51.003Z</time></trkpt><trkpt lat="37.776330594719916" lon="13.76484823135143"><ele>693.6666666666667</ele><time>2026-04-30T11:12:52.003Z</time></trkpt><trkpt lat="37.77630644056417" lon="13.765032986540293"><ele>694.0</ele><time>2026-04-30T11:12:53.003Z</time></trkpt><trkpt lat="37.77626830979729" lon="13.765254039115721"><ele>694.75</ele><time>2026-04-30T11:12:54.003Z</time></trkpt><trkpt lat="37.77623204723176" lon="13.765436953754508"><ele>695.5</ele><time>2026-04-30T11:12:55.001Z</time></trkpt><trkpt lat="37.7762033069189" lon="13.765573715806035"><ele>696.25</ele><time>2026-04-30T11:12:56.001Z</time></trkpt><trkpt lat="37.77618090835015" lon="13.765696033420761"><ele>697.0</ele><time>2026-04-30T11:12:57.001Z</time></trkpt><trkpt lat="37.77615713139024" lon="13.765818566708894"><ele>697.0</ele><time>2026-04-30T11:12:58.001Z</time></trkpt><trkpt lat="37.77613124709241" lon="13.765931118389508"><ele>697.0</ele><time>2026-04-30T11:12:59.001Z</time></trkpt><trkpt lat="37.77610538600053" lon="13.76604539452881"><ele>697.0</ele><time>2026-04-30T11:13:00.001Z</time></trkpt><trkpt lat="37.776080312015885" lon="13.766164223009934"><ele>697.0</ele><time>2026-04-30T11:13:01.001Z</time></trkpt><trkpt lat="37.776056643916306" lon="13.76627695316141"><ele>697.0</ele><time>2026-04-30T11:13:02.001Z</time></trkpt><trkpt lat="37.776035299920856" lon="13.766378919663929"><ele>696.6666666666667</ele><time>2026-04-30T11:13:03.001Z</time></trkpt><trkpt lat="37.776015509732645" lon="13.76647371474918"><ele>696.3333333333334</ele><time>2026-04-30T11:13:04.001Z</time></trkpt><trkpt lat="37.77599366207241" lon="13.766560634960815"><ele>696.0</ele><time>2026-04-30T11:13:05.001Z</time></trkpt><trkpt lat="37.77596252605074" lon="13.766657988321306"><ele>695.6666666666666</ele><time>2026-04-30T11:13:06.001Z</time></trkpt><trkpt lat="37.77593128372374" lon="13.766763757561073"><ele>695.3333333333333</ele><time>2026-04-30T11:13:07.001Z</time></trkpt><trkpt lat="37.775912989353294" lon="13.766862919785781"><ele>695.0</ele><time>2026-04-30T11:13:08.001Z</time></trkpt><trkpt lat="37.775895012446334" lon="13.766957846166"><ele>695.0</ele><time>2026-04-30T11:13:09.001Z</time></trkpt><trkpt lat="37.77587516287406" lon="13.767064038474748"><ele>695.0</ele><time>2026-04-30T11:13:10.001Z</time></trkpt><trkpt lat="37.77585252532659" lon="13.767181155093729"><ele>695.0</ele><time>2026-04-30T11:13:11.001Z</time></trkpt><trkpt lat="37.775830963444044" lon="13.767310412720692"><ele>695.0</ele><time>2026-04-30T11:13:12.001Z</time></trkpt><trkpt lat="37.77581986999649" lon="13.76744328820479"><ele>695.0</ele><time>2026-04-30T11:13:13.001Z</time></trkpt><trkpt lat="37.77581487094235" lon="13.767576644377632"><ele>695.5</ele><time>2026-04-30T11:13:14.001Z</time></trkpt><trkpt lat="37.775808016263156" lon="13.767712266208763"><ele>696.0</ele><time>2026-04-30T11:13:15.001Z</time></trkpt><trkpt lat="37.775800103621336" lon="13.767854701829492"><ele>696.5</ele><time>2026-04-30T11:13:16.001Z</time></trkpt><trkpt lat="37.775790165784855" lon="13.768000191588039"><ele>697.0</ele><time>2026-04-30T11:13:17.001Z</time></trkpt><trkpt lat="37.775777176898416" lon="13.768148393518308"><ele>697.0</ele><time>2026-04-30T11:13:18.001Z</time></trkpt><trkpt lat="37.77575925661112" lon="13.768299784255587"><ele>697.0</ele><time>2026-04-30T11:13:19.001Z</time></trkpt><trkpt lat="37.775738185448795" lon="13.768452850342971"><ele>697.0</ele><time>2026-04-30T11:13:20.001Z</time></trkpt><trkpt lat="37.77571336813987" lon="13.768608540023157"><ele>697.0</ele><time>2026-04-30T11:13:21.001Z</time></trkpt><trkpt lat="37.775684205041024" lon="13.768766735178385"><ele>698.0</ele><time>2026-04-30T11:13:22.001Z</time></trkpt><trkpt lat="37.77565258025788" lon="13.76892830684082"><ele>699.0</ele><time>2026-04-30T11:13:23.001Z</time></trkpt><trkpt lat="37.77561371987515" lon="13.769086454575339"><ele>700.0</ele><time>2026-04-30T11:13:24.001Z</time></trkpt><trkpt lat="37.775565249405524" lon="13.769249755791346"><ele>701.0</ele><time>2026-04-30T11:13:25.001Z</time></trkpt><trkpt lat="37.775510016111745" lon="13.769411094285116"><ele>702.5</ele><time>2026-04-30T11:13:26.001Z</time></trkpt><trkpt lat="37.775442405577714" lon="13.769582260011674"><ele>704.0</ele><time>2026-04-30T11:13:27.001Z</time></trkpt><trkpt lat="37.77537630068935" lon="13.769750500424443"><ele>705.5</ele><time>2026-04-30T11:13:28.001Z</time></trkpt><trkpt lat="37.775326848984704" lon="13.769899206728963"><ele>707.0</ele><time>2026-04-30T11:13:29.001Z</time></trkpt><trkpt lat="37.77530299240724" lon="13.770031712260476"><ele>707.0</ele><time>2026-04-30T11:13:30.001Z</time></trkpt><trkpt lat="37.77531035413235" lon="13.77017583114438"><ele>707.0</ele><time>2026-04-30T11:13:31.001Z</time></trkpt><trkpt lat="37.77534673736988" lon="13.770328389459097"><ele>707.0</ele><time>2026-04-30T11:13:32.001Z</time></trkpt><trkpt lat="37.77540365285792" lon="13.770475909513587"><ele>707.0</ele><time>2026-04-30T11:13:33.001Z</time></trkpt><trkpt lat="37.77545644068226" lon="13.770602809160115"><ele>707.2</ele><time>2026-04-30T11:13:34.001Z</time></trkpt><trkpt lat="37.77550501694863" lon="13.770717627124673"><ele>707.4000000000001</ele><time>2026-04-30T11:13:35.001Z</time></trkpt><trkpt lat="37.77553745962666" lon="13.770831047631793"><ele>707.5999999999999</ele><time>2026-04-30T11:13:36.001Z</time></trkpt><trkpt lat="37.77555930186304" lon="13.77093964953332"><ele>707.8</ele><time>2026-04-30T11:13:37.001Z</time></trkpt><trkpt lat="37.77556946866665" lon="13.771043008024703"><ele>708.0</ele><time>2026-04-30T11:13:38.001Z</time></trkpt><trkpt lat="37.77555034584795" lon="13.771150218123202"><ele>707.5999999999999</ele><time>2026-04-30T11:13:39.001Z</time></trkpt><trkpt lat="37.77549888184179" lon="13.771257869134981"><ele>707.1999999999999</ele><time>2026-04-30T11:13:40.001Z</time></trkpt><trkpt lat="37.775426142162104" lon="13.771357217337957"><ele>706.8</ele><time>2026-04-30T11:13:41.001Z</time></trkpt><trkpt lat="37.7753557871268" lon="13.771445187353672"><ele>706.4</ele><time>2026-04-30T11:13:42.001Z</time></trkpt><trkpt lat="37.775276831318685" lon="13.771511023317881"><ele>706.0</ele><time>2026-04-30T11:13:43.001Z</time></trkpt><trkpt lat="37.77519203935218" lon="13.771540569056148"><ele>706.1999999999999</ele><time>2026-04-30T11:13:44.001Z</time></trkpt><trkpt lat="37.77509929162176" lon="13.771531397628666"><ele>706.4</ele><time>2026-04-30T11:13:45.001Z</time></trkpt><trkpt lat="37.77499864232215" lon="13.771493522461412"><ele>706.6</ele><time>2026-04-30T11:13:46.001Z</time></trkpt><trkpt lat="37.77488922274111" lon="13.771495845784484"><ele>706.8</ele><time>2026-04-30T11:13:47.001Z</time></trkpt><trkpt lat="37.774776618309275" lon="13.77153958930031"><ele>707.0</ele><time>2026-04-30T11:13:48.001Z</time></trkpt><trkpt lat="37.77467426177329" lon="13.77161240729676"><ele>707.0</ele><time>2026-04-30T11:13:49.001Z</time></trkpt><trkpt lat="37.774580390070085" lon="13.771692790988318"><ele>707.0</ele><time>2026-04-30T11:13:50.001Z</time></trkpt><trkpt lat="37.77448506659945" lon="13.771771585464304"><ele>707.0</ele><time>2026-04-30T11:13:51.001Z</time></trkpt><trkpt lat="37.774396064092386" lon="13.771836783775022"><ele>707.0</ele><time>2026-04-30T11:13:52.001Z</time></trkpt><trkpt lat="37.774309583394505" lon="13.771905083470207"><ele>707.0</ele><time>2026-04-30T11:13:53.001Z</time></trkpt><trkpt lat="37.77421973081031" lon="13.771998878853537"><ele>710.3333333333333</ele><time>2026-04-30T11:13:54.001Z</time></trkpt><trkpt lat="37.774143886071165" lon="13.772142723579183"><ele>713.6666666666666</ele><time>2026-04-30T11:13:55.001Z</time></trkpt><trkpt lat="37.774075533659214" lon="13.772335046969852"><ele>717.0</ele><time>2026-04-30T11:13:56.001Z</time></trkpt><trkpt lat="37.77400012397607" lon="13.772539666195028"><ele>721.0</ele><time>2026-04-30T11:13:57.002Z</time></trkpt><trkpt lat="37.77391547488588" lon="13.772761421999537"><ele>725.0</ele><time>2026-04-30T11:13:58.002Z</time></trkpt><trkpt lat="37.77383563439217" lon="13.772964286814972"><ele>729.0</ele><time>2026-04-30T11:13:59.002Z</time></trkpt><trkpt lat="37.773766288613075" lon="13.773128643380007"><ele>729.0</ele><time>2026-04-30T11:14:00.002Z</time></trkpt><trkpt lat="37.773701078974646" lon="13.77327330430499"><ele>729.0</ele><time>2026-04-30T11:14:01.002Z</time></trkpt><trkpt lat="37.77364696237408" lon="13.77340817854338"><ele>729.0</ele><time>2026-04-30T11:14:02.002Z</time></trkpt><trkpt lat="37.77360379657409" lon="13.77353182572979"><ele>729.0</ele><time>2026-04-30T11:14:03.002Z</time></trkpt><trkpt lat="37.773566707917354" lon="13.773647275725368"><ele>727.25</ele><time>2026-04-30T11:14:04.002Z</time></trkpt><trkpt lat="37.77353417421817" lon="13.77375687043665"><ele>725.5</ele><time>2026-04-30T11:14:05.002Z</time></trkpt><trkpt lat="37.773513319772974" lon="13.773886347779964"><ele>723.75</ele><time>2026-04-30T11:14:06.002Z</time></trkpt><trkpt lat="37.7734962415848" lon="13.774062205377469"><ele>722.0</ele><time>2026-04-30T11:14:07.002Z</time></trkpt><trkpt lat="37.77347051326905" lon="13.774278637150035"><ele>725.0</ele><time>2026-04-30T11:14:08.002Z</time></trkpt><trkpt lat="37.77343320241808" lon="13.774498058774055"><ele>728.0</ele><time>2026-04-30T11:14:09.002Z</time></trkpt><trkpt lat="37.77337446800155" lon="13.774719557049774"><ele>731.0</ele><time>2026-04-30T11:14:10.002Z</time></trkpt><trkpt lat="37.7732959125654" lon="13.774942831552108"><ele>731.0</ele><time>2026-04-30T11:14:11.002Z</time></trkpt><trkpt lat="37.7732230893804" lon="13.775129648019384"><ele>731.0</ele><time>2026-04-30T11:14:12.002Z</time></trkpt><trkpt lat="37.77315833476691" lon="13.775293034687346"><ele>731.0</ele><time>2026-04-30T11:14:13.002Z</time></trkpt><trkpt lat="37.77309340381283" lon="13.775435890761377"><ele>731.0</ele><time>2026-04-30T11:14:14.002Z</time></trkpt><trkpt lat="37.77302924990665" lon="13.775564272640938"><ele>732.4</ele><time>2026-04-30T11:14:15.002Z</time></trkpt><trkpt lat="37.77297746406011" lon="13.775684505202612"><ele>733.8</ele><time>2026-04-30T11:14:16.002Z</time></trkpt><trkpt lat="37.77295036048833" lon="13.775814856772756"><ele>735.1999999999999</ele><time>2026-04-30T11:14:17.002Z</time></trkpt><trkpt lat="37.7729573795695" lon="13.775941680109508"><ele>736.5999999999999</ele><time>2026-04-30T11:14:18.002Z</time></trkpt><trkpt lat="37.77300604206057" lon="13.776068990144694"><ele>738.0</ele><time>2026-04-30T11:14:19.002Z</time></trkpt><trkpt lat="37.77306089019897" lon="13.776214958496622"><ele>739.25</ele><time>2026-04-30T11:14:20.002Z</time></trkpt><trkpt lat="37.773092676148245" lon="13.776359303595413"><ele>740.5</ele><time>2026-04-30T11:14:21.002Z</time></trkpt><trkpt lat="37.77308912305387" lon="13.776481216490382"><ele>741.75</ele><time>2026-04-30T11:14:22.002Z</time></trkpt><trkpt lat="37.77305090594425" lon="13.776620448740871"><ele>743.0</ele><time>2026-04-30T11:14:23.002Z</time></trkpt><trkpt lat="37.7729907326326" lon="13.776796544755197"><ele>744.3333333333333</ele><time>2026-04-30T11:14:24.002Z</time></trkpt><trkpt lat="37.772922157846295" lon="13.777000202905175"><ele>745.6666666666666</ele><time>2026-04-30T11:14:25.002Z</time></trkpt><trkpt lat="37.77286188785414" lon="13.777217686475751"><ele>747.0</ele><time>2026-04-30T11:14:26.002Z</time></trkpt><trkpt lat="37.772829643814696" lon="13.777430409118551"><ele>747.0</ele><time>2026-04-30T11:14:27.002Z</time></trkpt><trkpt lat="37.772825589378854" lon="13.777642751221476"><ele>747.0</ele><time>2026-04-30T11:14:28.002Z</time></trkpt><trkpt lat="37.77284031047401" lon="13.77787243133274"><ele>747.0</ele><time>2026-04-30T11:14:29.002Z</time></trkpt><trkpt lat="37.77286232878897" lon="13.778121600098947"><ele>746.6666666666666</ele><time>2026-04-30T11:14:30.002Z</time></trkpt><trkpt lat="37.77289278820285" lon="13.778375817700834"><ele>746.3333333333333</ele><time>2026-04-30T11:14:31.002Z</time></trkpt><trkpt lat="37.77292651108835" lon="13.778603599294879"><ele>746.0</ele><time>2026-04-30T11:14:32.002Z</time></trkpt><trkpt lat="37.772962577693185" lon="13.778845979415921"><ele>746.0</ele><time>2026-04-30T11:14:33.002Z</time></trkpt><trkpt lat="37.772996366078864" lon="13.779096513648033"><ele>746.0</ele><time>2026-04-30T11:14:34.002Z</time></trkpt><trkpt lat="37.7730430889159" lon="13.779334622123827"><ele>746.0</ele><time>2026-04-30T11:14:35.002Z</time></trkpt><trkpt lat="37.77311111767573" lon="13.779584143442877"><ele>746.0</ele><time>2026-04-30T11:14:36.002Z</time></trkpt><trkpt lat="37.77319292680582" lon="13.779841409963726"><ele>746.0</ele><time>2026-04-30T11:14:37.002Z</time></trkpt><trkpt lat="37.773270774211" lon="13.780090065184565"><ele>746.0</ele><time>2026-04-30T11:14:38.002Z</time></trkpt><trkpt lat="37.77334253045267" lon="13.780322515617826"><ele>746.3333333333333</ele><time>2026-04-30T11:14:39.002Z</time></trkpt><trkpt lat="37.77340457092135" lon="13.780538162574818"><ele>746.6666666666666</ele><time>2026-04-30T11:14:40.002Z</time></trkpt><trkpt lat="37.7734502403504" lon="13.780735178872233"><ele>747.0</ele><time>2026-04-30T11:14:41.002Z</time></trkpt><trkpt lat="37.77347471765328" lon="13.780942781095598"><ele>748.6666666666666</ele><time>2026-04-30T11:14:42.002Z</time></trkpt><trkpt lat="37.773465118591275" lon="13.781153251651777"><ele>750.3333333333333</ele><time>2026-04-30T11:14:43.002Z</time></trkpt><trkpt lat="37.7734430273249" lon="13.781383445655237"><ele>752.0</ele><time>2026-04-30T11:14:44.002Z</time></trkpt><trkpt lat="37.773424579037005" lon="13.781620260501214"><ele>752.0</ele><time>2026-04-30T11:14:45.002Z</time></trkpt><trkpt lat="37.77341154466691" lon="13.781823933614282"><ele>752.0</ele><time>2026-04-30T11:14:46.003Z</time></trkpt><trkpt lat="37.7733995879109" lon="13.782003726023811"><ele>752.0</ele><time>2026-04-30T11:14:47.003Z</time></trkpt><trkpt lat="37.773400657109555" lon="13.782164958665444"><ele>752.0</ele><time>2026-04-30T11:14:48.003Z</time></trkpt><trkpt lat="37.77341793809142" lon="13.78231378628196"><ele>753.25</ele><time>2026-04-30T11:14:49.003Z</time></trkpt><trkpt lat="37.773447679550415" lon="13.78244738220286"><ele>754.5</ele><time>2026-04-30T11:14:50.003Z</time></trkpt><trkpt lat="37.77348046356867" lon="13.782582922359634"><ele>755.75</ele><time>2026-04-30T11:14:51.003Z</time></trkpt><trkpt lat="37.77350258291228" lon="13.782751741017924"><ele>757.0</ele><time>2026-04-30T11:14:52.003Z</time></trkpt><trkpt lat="37.77352780637326" lon="13.782951694374313"><ele>762.3333333333334</ele><time>2026-04-30T11:14:53.003Z</time></trkpt><trkpt lat="37.77356066515157" lon="13.783174233571973"><ele>767.6666666666667</ele><time>2026-04-30T11:14:54.003Z</time></trkpt><trkpt lat="37.773614916931606" lon="13.783405558625025"><ele>773.0</ele><time>2026-04-30T11:14:55.003Z</time></trkpt><trkpt lat="37.77368325818208" lon="13.783619734031117"><ele>773.0</ele><time>2026-04-30T11:14:56.003Z</time></trkpt><trkpt lat="37.773760719248045" lon="13.783814026736476"><ele>773.0</ele><time>2026-04-30T11:14:57.003Z</time></trkpt><trkpt lat="37.773835724094425" lon="13.783979319371817"><ele>773.0</ele><time>2026-04-30T11:14:58.003Z</time></trkpt><trkpt lat="37.77393317776267" lon="13.7841353799981"><ele>773.0</ele><time>2026-04-30T11:14:59.003Z</time></trkpt><trkpt lat="37.774071754623485" lon="13.784291320265721"><ele>773.0</ele><time>2026-04-30T11:15:00.003Z</time></trkpt><trkpt lat="37.77423067446125" lon="13.784446646217084"><ele>773.0</ele><time>2026-04-30T11:15:01.001Z</time></trkpt><trkpt lat="37.7743650927386" lon="13.784595252698024"><ele>776.6666666666667</ele><time>2026-04-30T11:15:02.001Z</time></trkpt><trkpt lat="37.77448205301777" lon="13.784738099684681"><ele>780.3333333333333</ele><time>2026-04-30T11:15:03.001Z</time></trkpt><trkpt lat="37.77459514012657" lon="13.784892874630621"><ele>784.0</ele><time>2026-04-30T11:15:04.001Z</time></trkpt><trkpt lat="37.774701356609086" lon="13.785070965983438"><ele>783.3333333333333</ele><time>2026-04-30T11:15:05.001Z</time></trkpt><trkpt lat="37.77479499877911" lon="13.785279427688302"><ele>782.6666666666667</ele><time>2026-04-30T11:15:06.001Z</time></trkpt><trkpt lat="37.77487491611311" lon="13.785505979237172"><ele>782.0</ele><time>2026-04-30T11:15:07.001Z</time></trkpt><trkpt lat="37.774952337835856" lon="13.785723669921516"><ele>782.0</ele><time>2026-04-30T11:15:08.001Z</time></trkpt><trkpt lat="37.77503409292732" lon="13.785921384864029"><ele>782.0</ele><time>2026-04-30T11:15:09.001Z</time></trkpt><trkpt lat="37.77512961755106" lon="13.786106746976955"><ele>782.0</ele><time>2026-04-30T11:15:10.001Z</time></trkpt><trkpt lat="37.77524729884587" lon="13.786280251910771"><ele>785.6666666666667</ele><time>2026-04-30T11:15:11.001Z</time></trkpt><trkpt lat="37.77534878694784" lon="13.786443513722055"><ele>789.3333333333333</ele><time>2026-04-30T11:15:12.001Z</time></trkpt><trkpt lat="37.775451063282176" lon="13.786611338011014"><ele>793.0</ele><time>2026-04-30T11:15:13.001Z</time></trkpt><trkpt lat="37.775539625860496" lon="13.786796968522989"><ele>791.75</ele><time>2026-04-30T11:15:14.001Z</time></trkpt><trkpt lat="37.77560568552355" lon="13.786977714602877"><ele>790.5</ele><time>2026-04-30T11:15:15.001Z</time></trkpt><trkpt lat="37.775667360583924" lon="13.787138642534515"><ele>789.25</ele><time>2026-04-30T11:15:16.001Z</time></trkpt><trkpt lat="37.77574007974428" lon="13.787278639147761"><ele>788.0</ele><time>2026-04-30T11:15:17.001Z</time></trkpt><trkpt lat="37.775832211099626" lon="13.787402893580218"><ele>788.0</ele><time>2026-04-30T11:15:18.001Z</time></trkpt><trkpt lat="37.77594962745764" lon="13.787507983080133"><ele>788.0</ele><time>2026-04-30T11:15:19.001Z</time></trkpt><trkpt lat="37.776091637203834" lon="13.78760269883656"><ele>788.0</ele><time>2026-04-30T11:15:20.001Z</time></trkpt><trkpt lat="37.77625355231591" lon="13.787687215405594"><ele>788.6666666666667</ele><time>2026-04-30T11:15:21.001Z</time></trkpt><trkpt lat="37.776422718395644" lon="13.78777432795092"><ele>789.3333333333333</ele><time>2026-04-30T11:15:22.001Z</time></trkpt><trkpt lat="37.77659590280693" lon="13.787875953044043"><ele>790.0</ele><time>2026-04-30T11:15:23.001Z</time></trkpt><trkpt lat="37.776773829582794" lon="13.787979100073024"><ele>793.6666666666666</ele><time>2026-04-30T11:15:24.001Z</time></trkpt><trkpt lat="37.7769539929748" lon="13.788080696872557"><ele>797.3333333333333</ele><time>2026-04-30T11:15:25.001Z</time></trkpt><trkpt lat="37.77712247485115" lon="13.78817942530659"><ele>801.0</ele><time>2026-04-30T11:15:26.001Z</time></trkpt><trkpt lat="37.77727806511907" lon="13.78827107037635"><ele>801.0</ele><time>2026-04-30T11:15:27.001Z</time></trkpt><trkpt lat="37.77741574740238" lon="13.788352455787992"><ele>801.0</ele><time>2026-04-30T11:15:28.001Z</time></trkpt><trkpt lat="37.777538342302684" lon="13.78842838145865"><ele>801.0</ele><time>2026-04-30T11:15:29.001Z</time></trkpt><trkpt lat="37.777649784948494" lon="13.788495159541906"><ele>801.0</ele><time>2026-04-30T11:15:30.001Z</time></trkpt><trkpt lat="37.777766321279856" lon="13.788561150031954"><ele>800.6666666666667</ele><time>2026-04-30T11:15:31.001Z</time></trkpt><trkpt lat="37.777906727142124" lon="13.788635969615273"><ele>800.3333333333334</ele><time>2026-04-30T11:15:32.001Z</time></trkpt><trkpt lat="37.77805008930284" lon="13.788700123088661"><ele>800.0</ele><time>2026-04-30T11:15:33.001Z</time></trkpt><trkpt lat="37.77819754836202" lon="13.788746443000191"><ele>800.0</ele><time>2026-04-30T11:15:34.001Z</time></trkpt><trkpt lat="37.778356249295996" lon="13.788768902659555"><ele>800.0</ele><time>2026-04-30T11:15:35.001Z</time></trkpt><trkpt lat="37.77852914001015" lon="13.788766933844785"><ele>800.0</ele><time>2026-04-30T11:15:36.001Z</time></trkpt><trkpt lat="37.7787064423848" lon="13.788744732442623"><ele>800.0</ele><time>2026-04-30T11:15:37.001Z</time></trkpt><trkpt lat="37.77887313538965" lon="13.788702465041355"><ele>800.0</ele><time>2026-04-30T11:15:38.001Z</time></trkpt><trkpt lat="37.77902410924025" lon="13.788643978403451"><ele>800.0</ele><time>2026-04-30T11:15:39.001Z</time></trkpt><trkpt lat="37.779162799203434" lon="13.788570141745929"><ele>800.75</ele><time>2026-04-30T11:15:40.001Z</time></trkpt><trkpt lat="37.77929098163613" lon="13.788502622891768"><ele>801.5</ele><time>2026-04-30T11:15:41.001Z</time></trkpt><trkpt lat="37.77941661132524" lon="13.788461348381228"><ele>802.25</ele><time>2026-04-30T11:15:42.001Z</time></trkpt><trkpt lat="37.779545317855906" lon="13.78843685958305"><ele>803.0</ele><time>2026-04-30T11:15:43.001Z</time></trkpt><trkpt lat="37.77966993860137" lon="13.788421053072732"><ele>803.0</ele><time>2026-04-30T11:15:44.001Z</time></trkpt><trkpt lat="37.77978965034023" lon="13.78840408789456"><ele>803.0</ele><time>2026-04-30T11:15:45.001Z</time></trkpt><trkpt lat="37.77991723587448" lon="13.788352210416996"><ele>803.0</ele><time>2026-04-30T11:15:46.001Z</time></trkpt><trkpt lat="37.78005110039949" lon="13.788291033102263"><ele>803.0</ele><time>2026-04-30T11:15:47.001Z</time></trkpt><trkpt lat="37.78018848295061" lon="13.788228840469333"><ele>799.5</ele><time>2026-04-30T11:15:48.001Z</time></trkpt><trkpt lat="37.78032035788831" lon="13.7881682673346"><ele>796.0</ele><time>2026-04-30T11:15:49.001Z</time></trkpt><trkpt lat="37.78044668740464" lon="13.78811314330478"><ele>792.5</ele><time>2026-04-30T11:15:50.001Z</time></trkpt><trkpt lat="37.78057169819795" lon="13.788059348977956"><ele>789.0</ele><time>2026-04-30T11:15:51.001Z</time></trkpt><trkpt lat="37.78069568112322" lon="13.78800885621215"><ele>789.0</ele><time>2026-04-30T11:15:52.001Z</time></trkpt><trkpt lat="37.780816583991644" lon="13.787958175115483"><ele>789.0</ele><time>2026-04-30T11:15:53.001Z</time></trkpt><trkpt lat="37.78093468822177" lon="13.787910613256784"><ele>789.0</ele><time>2026-04-30T11:15:54.001Z</time></trkpt><trkpt lat="37.781049170335095" lon="13.787863373755364"><ele>789.0</ele><time>2026-04-30T11:15:55.001Z</time></trkpt><trkpt lat="37.78116024068065" lon="13.787817473808659"><ele>787.75</ele><time>2026-04-30T11:15:56.001Z</time></trkpt><trkpt lat="37.78126888762473" lon="13.787776591809752"><ele>786.5</ele><time>2026-04-30T11:15:57.001Z</time></trkpt><trkpt lat="37.78138215018298" lon="13.787760847396564"><ele>785.25</ele><time>2026-04-30T11:15:58.001Z</time></trkpt><trkpt lat="37.781490774640105" lon="13.787800022253052"><ele>784.0</ele><time>2026-04-30T11:15:59.002Z</time></trkpt><trkpt lat="37.781603286072105" lon="13.787895692242905"><ele>784.0</ele><time>2026-04-30T11:16:00.002Z</time></trkpt><trkpt lat="37.781720713908676" lon="13.78803685690175"><ele>784.0</ele><time>2026-04-30T11:16:01.002Z</time></trkpt><trkpt lat="37.78183591076257" lon="13.78819804889111"><ele>784.0</ele><time>2026-04-30T11:16:02.002Z</time></trkpt><trkpt lat="37.781940149941605" lon="13.788345561438032"><ele>783.0</ele><time>2026-04-30T11:16:03.002Z</time></trkpt><trkpt lat="37.782040030221914" lon="13.788484396051757"><ele>782.0</ele><time>2026-04-30T11:16:04.002Z</time></trkpt><trkpt lat="37.78213412427989" lon="13.788617019056481"><ele>781.0</ele><time>2026-04-30T11:16:05.002Z</time></trkpt><trkpt lat="37.78223095834181" lon="13.788746914690146"><ele>780.0</ele><time>2026-04-30T11:16:06.002Z</time></trkpt><trkpt lat="37.78232795671067" lon="13.788870278743646"><ele>780.0</ele><time>2026-04-30T11:16:07.002Z</time></trkpt><trkpt lat="37.78241813176342" lon="13.788994072435509"><ele>780.0</ele><time>2026-04-30T11:16:08.002Z</time></trkpt><trkpt lat="37.7825072164626" lon="13.789120619112131"><ele>780.0</ele><time>2026-04-30T11:16:09.002Z</time></trkpt><trkpt lat="37.782605639647386" lon="13.789232092395705"><ele>780.0</ele><time>2026-04-30T11:16:10.002Z</time></trkpt><trkpt lat="37.78272883142568" lon="13.789323651863379"><ele>775.25</ele><time>2026-04-30T11:16:11.002Z</time></trkpt><trkpt lat="37.7828600821271" lon="13.789401122691425"><ele>770.5</ele><time>2026-04-30T11:16:12.002Z</time></trkpt><trkpt lat="37.78299033773501" lon="13.789457825669121"><ele>765.75</ele><time>2026-04-30T11:16:13.002Z</time></trkpt><trkpt lat="37.78311813684997" lon="13.789502164324604"><ele>761.0</ele><time>2026-04-30T11:16:14.002Z</time></trkpt><trkpt lat="37.78324749970179" lon="13.78953435907347"><ele>761.0</ele><time>2026-04-30T11:16:15.002Z</time></trkpt><trkpt lat="37.78337701995517" lon="13.7895598231975"><ele>761.0</ele><time>2026-04-30T11:16:16.002Z</time></trkpt><trkpt lat="37.78350423196066" lon="13.789592444160379"><ele>761.0</ele><time>2026-04-30T11:16:17.002Z</time></trkpt><trkpt lat="37.78361830196842" lon="13.789635603521775"><ele>761.0</ele><time>2026-04-30T11:16:18.002Z</time></trkpt><trkpt lat="37.783727868565364" lon="13.789690541530192"><ele>760.5</ele><time>2026-04-30T11:16:19.002Z</time></trkpt><trkpt lat="37.78382309605137" lon="13.789784015410083"><ele>760.0</ele><time>2026-04-30T11:16:20.002Z</time></trkpt><trkpt lat="37.78390770539659" lon="13.789914611531772"><ele>759.5</ele><time>2026-04-30T11:16:21.002Z</time></trkpt><trkpt lat="37.78398053984629" lon="13.790060565326794"><ele>759.0</ele><time>2026-04-30T11:16:22.002Z</time></trkpt><trkpt lat="37.78404405775967" lon="13.790222804646584"><ele>759.0</ele><time>2026-04-30T11:16:23.002Z</time></trkpt><trkpt lat="37.78410496811228" lon="13.790380445571422"><ele>759.0</ele><time>2026-04-30T11:16:24.002Z</time></trkpt><trkpt lat="37.7841625090617" lon="13.790537640212461"><ele>759.0</ele><time>2026-04-30T11:16:25.002Z</time></trkpt><trkpt lat="37.78420974608696" lon="13.79070165283842"><ele>759.0</ele><time>2026-04-30T11:16:26.002Z</time></trkpt><trkpt lat="37.78425637462151" lon="13.790855274568965"><ele>759.0</ele><time>2026-04-30T11:16:27.002Z</time></trkpt><trkpt lat="37.78430143669795" lon="13.790990640850982"><ele>759.0</ele><time>2026-04-30T11:16:28.002Z</time></trkpt><trkpt lat="37.7843399820302" lon="13.791101187303811"><ele>759.0</ele><time>2026-04-30T11:16:29.002Z</time></trkpt><trkpt lat="37.784368922582885" lon="13.791188181481496"><ele>759.0</ele><time>2026-04-30T11:16:30.002Z</time></trkpt><trkpt lat="37.78435209566327" lon="13.79131906575217"><ele>759.0</ele><time>2026-04-30T11:16:55.002Z</time></trkpt><trkpt lat="37.784358089537044" lon="13.79147716781143"><ele>759.1666666666666</ele><time>2026-04-30T11:16:57.002Z</time></trkpt><trkpt lat="37.784390536330534" lon="13.791582367560741"><ele>759.3333333333334</ele><time>2026-04-30T11:16:58.003Z</time></trkpt><trkpt lat="37.78441922215374" lon="13.791681322955801"><ele>759.5</ele><time>2026-04-30T11:16:59.003Z</time></trkpt><trkpt lat="37.78444379821699" lon="13.791770905047514"><ele>759.6666666666667</ele><time>2026-04-30T11:17:00.003Z</time></trkpt><trkpt lat="37.784474181753666" lon="13.79185624907082"><ele>759.8333333333334</ele><time>2026-04-30T11:17:01.003Z</time></trkpt><trkpt lat="37.7845171501976" lon="13.791928224665726"><ele>760.0</ele><time>2026-04-30T11:17:02.003Z</time></trkpt><trkpt lat="37.7845684899384" lon="13.791984351455483"><ele>758.1666666666667</ele><time>2026-04-30T11:17:03.003Z</time></trkpt><trkpt lat="37.78463019647562" lon="13.792016754976828"><ele>756.3333333333334</ele><time>2026-04-30T11:17:04.003Z</time></trkpt><trkpt lat="37.784702798015104" lon="13.79203277695349"><ele>754.5</ele><time>2026-04-30T11:17:05.003Z</time></trkpt><trkpt lat="37.78477566294057" lon="13.79206450461601"><ele>752.6666666666666</ele><time>2026-04-30T11:17:06.003Z</time></trkpt><trkpt lat="37.784830287896874" lon="13.792137395400486"><ele>750.8333333333333</ele><time>2026-04-30T11:17:07.001Z</time></trkpt><trkpt lat="37.78488231156441" lon="13.792234332136522"><ele>749.0</ele><time>2026-04-30T11:17:08.001Z</time></trkpt><trkpt lat="37.78494016969746" lon="13.792332156604598"><ele>749.0</ele><time>2026-04-30T11:17:09.001Z</time></trkpt><trkpt lat="37.7850021266856" lon="13.792424694288366"><ele>749.0</ele><time>2026-04-30T11:17:10.001Z</time></trkpt><trkpt lat="37.785073046588195" lon="13.792518395120265"><ele>749.0</ele><time>2026-04-30T11:17:11.001Z</time></trkpt><trkpt lat="37.785139085908604" lon="13.792617159222214"><ele>749.0</ele><time>2026-04-30T11:17:12.001Z</time></trkpt><trkpt lat="37.78519575457436" lon="13.79271273026152"><ele>749.0</ele><time>2026-04-30T11:17:13.001Z</time></trkpt><trkpt lat="37.785244489853966" lon="13.79279363911494"><ele>748.3333333333333</ele><time>2026-04-30T11:17:14.001Z</time></trkpt><trkpt lat="37.78529310833045" lon="13.792873245114608"><ele>747.6666666666666</ele><time>2026-04-30T11:17:15.001Z</time></trkpt><trkpt lat="37.78534175485631" lon="13.792958810819776"><ele>747.0</ele><time>2026-04-30T11:17:16.001Z</time></trkpt><trkpt lat="37.78538530183061" lon="13.793046817704374"><ele>746.3333333333334</ele><time>2026-04-30T11:17:17.001Z</time></trkpt><trkpt lat="37.78543274874084" lon="13.793126509542148"><ele>745.6666666666667</ele><time>2026-04-30T11:17:18.001Z</time></trkpt><trkpt lat="37.78548779076137" lon="13.79319662854156"><ele>745.0</ele><time>2026-04-30T11:17:19.001Z</time></trkpt><trkpt lat="37.78555471153653" lon="13.793266145554126"><ele>745.0</ele><time>2026-04-30T11:17:20.001Z</time></trkpt><trkpt lat="37.785623470629744" lon="13.793345862838116"><ele>745.0</ele><time>2026-04-30T11:17:21.001Z</time></trkpt><trkpt lat="37.78569690242861" lon="13.793431463934459"><ele>745.0</ele><time>2026-04-30T11:17:22.001Z</time></trkpt><trkpt lat="37.78575915611946" lon="13.793518205531159"><ele>745.0</ele><time>2026-04-30T11:17:23.001Z</time></trkpt><trkpt lat="37.78580294506278" lon="13.793620900414073"><ele>745.0</ele><time>2026-04-30T11:17:24.001Z</time></trkpt><trkpt lat="37.785847326087975" lon="13.7937183138824"><ele>745.4</ele><time>2026-04-30T11:17:25.001Z</time></trkpt><trkpt lat="37.78590584811126" lon="13.793802166322537"><ele>745.8</ele><time>2026-04-30T11:17:26.001Z</time></trkpt><trkpt lat="37.785978115373425" lon="13.793884150648305"><ele>746.2</ele><time>2026-04-30T11:17:27.001Z</time></trkpt><trkpt lat="37.78604821268894" lon="13.793980792950576"><ele>746.6</ele><time>2026-04-30T11:17:28.001Z</time></trkpt><trkpt lat="37.78611102472593" lon="13.794085725278912"><ele>747.0</ele><time>2026-04-30T11:17:29.001Z</time></trkpt><trkpt lat="37.78616465878356" lon="13.79418383666766"><ele>747.0</ele><time>2026-04-30T11:17:30.001Z</time></trkpt><trkpt lat="37.7862180745324" lon="13.794277921030076"><ele>747.0</ele><time>2026-04-30T11:17:31.001Z</time></trkpt><trkpt lat="37.78627000622443" lon="13.794373526800769"><ele>747.0</ele><time>2026-04-30T11:17:32.001Z</time></trkpt><trkpt lat="37.78631767807945" lon="13.794462847404958"><ele>747.0</ele><time>2026-04-30T11:17:33.001Z</time></trkpt><trkpt lat="37.78635949973005" lon="13.794545176080042"><ele>747.0</ele><time>2026-04-30T11:17:34.001Z</time></trkpt><trkpt lat="37.78639469549463" lon="13.794630794472088"><ele>747.0</ele><time>2026-04-30T11:17:35.001Z</time></trkpt><trkpt lat="37.786426886296425" lon="13.7947342329271"><ele>745.4000000000001</ele><time>2026-04-30T11:17:36.001Z</time></trkpt><trkpt lat="37.786457672157944" lon="13.794857354313"><ele>743.8000000000001</ele><time>2026-04-30T11:17:37.001Z</time></trkpt><trkpt lat="37.786487384788344" lon="13.79499670224903"><ele>742.2</ele><time>2026-04-30T11:17:38.001Z</time></trkpt><trkpt lat="37.786505328851355" lon="13.79511479899369"><ele>740.6</ele><time>2026-04-30T11:17:39.001Z</time></trkpt><trkpt lat="37.786521396792" lon="13.795214511941587"><ele>739.0</ele><time>2026-04-30T11:17:40.001Z</time></trkpt><trkpt lat="37.78651989983204" lon="13.795304176848001"><ele>738.3333333333334</ele><time>2026-04-30T11:17:41.001Z</time></trkpt><trkpt lat="37.78650105786399" lon="13.79539222431588"><ele>737.6666666666667</ele><time>2026-04-30T11:17:42.001Z</time></trkpt><trkpt lat="37.78647196415519" lon="13.795473325484213"><ele>737.0</ele><time>2026-04-30T11:17:43.001Z</time></trkpt><trkpt lat="37.78643939238675" lon="13.795555946028957"><ele>736.3333333333334</ele><time>2026-04-30T11:17:44.001Z</time></trkpt><trkpt lat="37.786408148088846" lon="13.795640744947548"><ele>735.6666666666666</ele><time>2026-04-30T11:17:45.001Z</time></trkpt><trkpt lat="37.786380802448285" lon="13.795732496333894"><ele>735.0</ele><time>2026-04-30T11:17:46.001Z</time></trkpt><trkpt lat="37.78635281032611" lon="13.795834423768259"><ele>735.0</ele><time>2026-04-30T11:17:47.001Z</time></trkpt><trkpt lat="37.78632798165322" lon="13.7959423410862"><ele>735.0</ele><time>2026-04-30T11:17:48.001Z</time></trkpt><trkpt lat="37.786304665343444" lon="13.796054079949783"><ele>735.0</ele><time>2026-04-30T11:17:49.001Z</time></trkpt><trkpt lat="37.786275683178296" lon="13.7961694342788"><ele>735.0</ele><time>2026-04-30T11:17:50.001Z</time></trkpt><trkpt lat="37.786239413094975" lon="13.796270350443217"><ele>735.0</ele><time>2026-04-30T11:17:51.001Z</time></trkpt><trkpt lat="37.78620644180848" lon="13.79636087824773"><ele>735.0</ele><time>2026-04-30T11:17:52.001Z</time></trkpt><trkpt lat="37.78617937712719" lon="13.796445034611232"><ele>734.7142857142857</ele><time>2026-04-30T11:17:53.001Z</time></trkpt><trkpt lat="37.786153509269994" lon="13.796528926710382"><ele>734.4285714285714</ele><time>2026-04-30T11:17:54.001Z</time></trkpt><trkpt lat="37.78612536849121" lon="13.796614965398584"><ele>734.1428571428571</ele><time>2026-04-30T11:17:55.001Z</time></trkpt><trkpt lat="37.78609919092199" lon="13.796700160159505"><ele>733.8571428571429</ele><time>2026-04-30T11:17:56.001Z</time></trkpt><trkpt lat="37.786071142625936" lon="13.796789979154104"><ele>733.5714285714286</ele><time>2026-04-30T11:17:57.001Z</time></trkpt><trkpt lat="37.78604744082056" lon="13.79688395596931"><ele>733.2857142857142</ele><time>2026-04-30T11:17:58.001Z</time></trkpt><trkpt lat="37.786034964011094" lon="13.79697200897629"><ele>733.0</ele><time>2026-04-30T11:17:59.001Z</time></trkpt><trkpt lat="37.78607338353633" lon="13.797100071320449"><ele>732.8</ele><time>2026-04-30T11:18:01.001Z</time></trkpt><trkpt lat="37.786132847955514" lon="13.797128390806451"><ele>732.5999999999999</ele><time>2026-04-30T11:18:02.001Z</time></trkpt><trkpt lat="37.78620808206926" lon="13.797136115044616"><ele>732.4000000000001</ele><time>2026-04-30T11:18:03.001Z</time></trkpt><trkpt lat="37.78630523270803" lon="13.797137236717983"><ele>732.2</ele><time>2026-04-30T11:18:04.001Z</time></trkpt><trkpt lat="37.78641380644318" lon="13.7971639457816"><ele>732.0</ele><time>2026-04-30T11:18:05.001Z</time></trkpt><trkpt lat="37.7865284178681" lon="13.797199956223013"><ele>732.0</ele><time>2026-04-30T11:18:06.001Z</time></trkpt><trkpt lat="37.78665294545373" lon="13.797224484116198"><ele>732.0</ele><time>2026-04-30T11:18:07.001Z</time></trkpt><trkpt lat="37.786781658766344" lon="13.797251634406429"><ele>732.0</ele><time>2026-04-30T11:18:08.001Z</time></trkpt><trkpt lat="37.78691181564273" lon="13.797287538866138"><ele>732.0</ele><time>2026-04-30T11:18:09.002Z</time></trkpt><trkpt lat="37.78704311386695" lon="13.79731950402825"><ele>735.75</ele><time>2026-04-30T11:18:10.002Z</time></trkpt><trkpt lat="37.78717445503544" lon="13.797343904839892"><ele>739.5</ele><time>2026-04-30T11:18:11.002Z</time></trkpt><trkpt lat="37.787304250639984" lon="13.797373076639616"><ele>743.25</ele><time>2026-04-30T11:18:12.002Z</time></trkpt><trkpt lat="37.78743461020126" lon="13.797414050444429"><ele>747.0</ele><time>2026-04-30T11:18:13.002Z</time></trkpt><trkpt lat="37.787564502620064" lon="13.79744257718365"><ele>747.0</ele><time>2026-04-30T11:18:14.002Z</time></trkpt><trkpt lat="37.78767610822449" lon="13.797439562119882"><ele>747.0</ele><time>2026-04-30T11:18:15.002Z</time></trkpt><trkpt lat="37.78776935606262" lon="13.797399579937734"><ele>747.0</ele><time>2026-04-30T11:18:16.002Z</time></trkpt><trkpt lat="37.78785324945565" lon="13.797353419398792"><ele>747.0</ele><time>2026-04-30T11:18:17.002Z</time></trkpt><trkpt lat="37.78794283451566" lon="13.797359508887105"><ele>747.0</ele><time>2026-04-30T11:18:18.002Z</time></trkpt><trkpt lat="37.7880498566518" lon="13.797409454549939"><ele>750.3333333333334</ele><time>2026-04-30T11:18:19.002Z</time></trkpt><trkpt lat="37.788175356124555" lon="13.797483688378993"><ele>753.6666666666667</ele><time>2026-04-30T11:18:20.002Z</time></trkpt><trkpt lat="37.78831801721489" lon="13.79755830230873"><ele>757.0</ele><time>2026-04-30T11:18:21.002Z</time></trkpt><trkpt lat="37.7884904071697" lon="13.797614238055745"><ele>757.6666666666667</ele><time>2026-04-30T11:18:22.002Z</time></trkpt><trkpt lat="37.78868379307727" lon="13.797656829404017"><ele>758.3333333333334</ele><time>2026-04-30T11:18:23.002Z</time></trkpt><trkpt lat="37.788888262332" lon="13.797683899556766"><ele>759.0</ele><time>2026-04-30T11:18:24.002Z</time></trkpt><trkpt lat="37.78907298101807" lon="13.797699386785583"><ele>757.0</ele><time>2026-04-30T11:18:25.002Z</time></trkpt><trkpt lat="37.78925318832221" lon="13.797723832731942"><ele>755.0</ele><time>2026-04-30T11:18:26.002Z</time></trkpt><trkpt lat="37.78943481142811" lon="13.797746311434487"><ele>753.0</ele><time>2026-04-30T11:18:27.002Z</time></trkpt><trkpt lat="37.78962219829496" lon="13.7977628647609"><ele>753.0</ele><time>2026-04-30T11:18:28.002Z</time></trkpt><trkpt lat="37.78980896780025" lon="13.797780113034522"><ele>753.0</ele><time>2026-04-30T11:18:29.002Z</time></trkpt><trkpt lat="37.78999751364075" lon="13.79779770216507"><ele>753.0</ele><time>2026-04-30T11:18:30.002Z</time></trkpt><trkpt lat="37.79018772857291" lon="13.797812511795385"><ele>754.0</ele><time>2026-04-30T11:18:31.002Z</time></trkpt><trkpt lat="37.79036986319585" lon="13.797819694544733"><ele>755.0</ele><time>2026-04-30T11:18:32.002Z</time></trkpt><trkpt lat="37.790536839513514" lon="13.79781815655693"><ele>756.0</ele><time>2026-04-30T11:18:33.002Z</time></trkpt><trkpt lat="37.790698804356964" lon="13.79781690440751"><ele>756.0</ele><time>2026-04-30T11:18:34.002Z</time></trkpt><trkpt lat="37.79085322752803" lon="13.797823851418741"><ele>756.0</ele><time>2026-04-30T11:18:35.002Z</time></trkpt><trkpt lat="37.791004985356786" lon="13.797830398669237"><ele>756.0</ele><time>2026-04-30T11:18:36.002Z</time></trkpt><trkpt lat="37.791153094478645" lon="13.797836269611077"><ele>759.5</ele><time>2026-04-30T11:18:37.002Z</time></trkpt><trkpt lat="37.79129659466929" lon="13.797835595299537"><ele>763.0</ele><time>2026-04-30T11:18:38.002Z</time></trkpt><trkpt lat="37.79142993971334" lon="13.797854758574626"><ele>766.5</ele><time>2026-04-30T11:18:39.002Z</time></trkpt><trkpt lat="37.791551452617725" lon="13.79791538862149"><ele>770.0</ele><time>2026-04-30T11:18:40.002Z</time></trkpt><trkpt lat="37.79168009404014" lon="13.7980090560064"><ele>770.0</ele><time>2026-04-30T11:18:41.002Z</time></trkpt><trkpt lat="37.79181545002886" lon="13.798108007093157"><ele>770.0</ele><time>2026-04-30T11:18:42.002Z</time></trkpt><trkpt lat="37.79195143980673" lon="13.79821309676874"><ele>770.0</ele><time>2026-04-30T11:18:43.002Z</time></trkpt><trkpt lat="37.792090738404916" lon="13.798311476044587"><ele>773.5</ele><time>2026-04-30T11:18:44.002Z</time></trkpt><trkpt lat="37.79223363397502" lon="13.798385996176506"><ele>777.0</ele><time>2026-04-30T11:18:45.002Z</time></trkpt><trkpt lat="37.79237906233403" lon="13.798430843745821"><ele>780.5</ele><time>2026-04-30T11:18:46.002Z</time></trkpt><trkpt lat="37.79250593663218" lon="13.798443140528562"><ele>784.0</ele><time>2026-04-30T11:18:47.002Z</time></trkpt><trkpt lat="37.79257960222486" lon="13.798414756580897"><ele>784.0</ele><time>2026-04-30T11:18:48.002Z</time></trkpt><trkpt lat="37.79263457502923" lon="13.798341375933648"><ele>784.0</ele><time>2026-04-30T11:18:49.002Z</time></trkpt><trkpt lat="37.792674050360745" lon="13.798223548745698"><ele>784.0</ele><time>2026-04-30T11:18:50.002Z</time></trkpt><trkpt lat="37.792706734554905" lon="13.798073694593517"><ele>784.0</ele><time>2026-04-30T11:18:51.002Z</time></trkpt><trkpt lat="37.792774596879845" lon="13.79794048024857"><ele>784.0</ele><time>2026-04-30T11:18:52.002Z</time></trkpt><trkpt lat="37.79287618190694" lon="13.797822529038775"><ele>786.75</ele><time>2026-04-30T11:18:53.002Z</time></trkpt><trkpt lat="37.79300928697217" lon="13.797731502305185"><ele>789.5</ele><time>2026-04-30T11:18:54.002Z</time></trkpt><trkpt lat="37.79314975850201" lon="13.79766162103972"><ele>792.25</ele><time>2026-04-30T11:18:55.002Z</time></trkpt><trkpt lat="37.793287914693146" lon="13.797612132627405"><ele>795.0</ele><time>2026-04-30T11:18:56.002Z</time></trkpt><trkpt lat="37.79342160673362" lon="13.797593714506087"><ele>794.75</ele><time>2026-04-30T11:18:57.002Z</time></trkpt><trkpt lat="37.79356767404235" lon="13.797593406589687"><ele>794.5</ele><time>2026-04-30T11:18:58.002Z</time></trkpt><trkpt lat="37.79371225053187" lon="13.797569186502598"><ele>794.25</ele><time>2026-04-30T11:18:59.002Z</time></trkpt><trkpt lat="37.79384753318083" lon="13.79752158232764"><ele>794.0</ele><time>2026-04-30T11:19:00.002Z</time></trkpt><trkpt lat="37.793973393602315" lon="13.797475096762126"><ele>794.0</ele><time>2026-04-30T11:19:01.002Z</time></trkpt><trkpt lat="37.79409202205472" lon="13.797465212949255"><ele>794.0</ele><time>2026-04-30T11:19:02.002Z</time></trkpt><trkpt lat="37.79419645998988" lon="13.797506532614545"><ele>794.0</ele><time>2026-04-30T11:19:03.002Z</time></trkpt><trkpt lat="37.794296467206266" lon="13.797572870790479"><ele>794.0</ele><time>2026-04-30T11:19:04.002Z</time></trkpt><trkpt lat="37.79441327214699" lon="13.797628667338731"><ele>796.5</ele><time>2026-04-30T11:19:05.002Z</time></trkpt><trkpt lat="37.79454608872794" lon="13.79766785905753"><ele>799.0</ele><time>2026-04-30T11:19:06.002Z</time></trkpt><trkpt lat="37.79469058415484" lon="13.797692529721548"><ele>801.5</ele><time>2026-04-30T11:19:07.002Z</time></trkpt><trkpt lat="37.79484342949899" lon="13.797696674379356"><ele>804.0</ele><time>2026-04-30T11:19:08.002Z</time></trkpt><trkpt lat="37.79499521820352" lon="13.797696809556513"><ele>802.6</ele><time>2026-04-30T11:19:09.002Z</time></trkpt><trkpt lat="37.79513736092613" lon="13.797714602750183"><ele>801.2</ele><time>2026-04-30T11:19:10.002Z</time></trkpt><trkpt lat="37.79524417071475" lon="13.797737121573729"><ele>799.8000000000001</ele><time>2026-04-30T11:19:11.002Z</time></trkpt><trkpt lat="37.79531794486046" lon="13.797725589911103"><ele>798.4000000000001</ele><time>2026-04-30T11:19:12.002Z</time></trkpt><trkpt lat="37.79539114938719" lon="13.797648397931226"><ele>797.0</ele><time>2026-04-30T11:19:13.001Z</time></trkpt><trkpt lat="37.79545091594306" lon="13.797514946882703"><ele>797.0</ele><time>2026-04-30T11:19:14.001Z</time></trkpt><trkpt lat="37.79550639092404" lon="13.797376878940476"><ele>797.0</ele><time>2026-04-30T11:19:15.001Z</time></trkpt><trkpt lat="37.79557519884753" lon="13.797254174195658"><ele>797.0</ele><time>2026-04-30T11:19:16.001Z</time></trkpt><trkpt lat="37.79565863723972" lon="13.797142102776244"><ele>797.0</ele><time>2026-04-30T11:19:17.001Z</time></trkpt><trkpt lat="37.79575722038599" lon="13.797033079516478"><ele>797.0</ele><time>2026-04-30T11:19:18.001Z</time></trkpt><trkpt lat="37.79586940435575" lon="13.796922864597887"><ele>797.0</ele><time>2026-04-30T11:19:19.001Z</time></trkpt><trkpt lat="37.79599281345378" lon="13.796805354206423"><ele>797.0</ele><time>2026-04-30T11:19:20.001Z</time></trkpt><trkpt lat="37.79611594433871" lon="13.796707611321347"><ele>797.0</ele><time>2026-04-30T11:19:21.001Z</time></trkpt><trkpt lat="37.79622849789678" lon="13.796651510901892"><ele>800.5</ele><time>2026-04-30T11:19:22.001Z</time></trkpt><trkpt lat="37.79635867949662" lon="13.796637005468023"><ele>804.0</ele><time>2026-04-30T11:19:23.001Z</time></trkpt><trkpt lat="37.79651019373814" lon="13.796627343901202"><ele>807.5</ele><time>2026-04-30T11:19:24.001Z</time></trkpt><trkpt lat="37.79666829746363" lon="13.796597148684882"><ele>811.0</ele><time>2026-04-30T11:19:25.001Z</time></trkpt><trkpt lat="37.79682817726202" lon="13.796548416078103"><ele>811.0</ele><time>2026-04-30T11:19:26.001Z</time></trkpt><trkpt lat="37.79698563979457" lon="13.796485980852138"><ele>811.0</ele><time>2026-04-30T11:19:27.001Z</time></trkpt><trkpt lat="37.79712831117644" lon="13.796404879127554"><ele>811.0</ele><time>2026-04-30T11:19:28.001Z</time></trkpt><trkpt lat="37.79726527328898" lon="13.79632603328557"><ele>811.0</ele><time>2026-04-30T11:19:29.001Z</time></trkpt><trkpt lat="37.797406089940736" lon="13.796256916491105"><ele>811.0</ele><time>2026-04-30T11:19:30.001Z</time></trkpt><trkpt lat="37.79754684059706" lon="13.796198844805291"><ele>811.0</ele><time>2026-04-30T11:19:31.001Z</time></trkpt><trkpt lat="37.79769021794291" lon="13.79614915972926"><ele>811.0</ele><time>2026-04-30T11:19:32.001Z</time></trkpt><trkpt lat="37.7978347087677" lon="13.796108435390781"><ele>812.0</ele><time>2026-04-30T11:19:33.001Z</time></trkpt><trkpt lat="37.79798562938944" lon="13.79606101614632"><ele>813.0</ele><time>2026-04-30T11:19:34.001Z</time></trkpt><trkpt lat="37.798122853323974" lon="13.796012731296688"><ele>814.0</ele><time>2026-04-30T11:19:35.001Z</time></trkpt><trkpt lat="37.79825341170938" lon="13.795969971383348"><ele>815.0</ele><time>2026-04-30T11:19:36.001Z</time></trkpt><trkpt lat="37.79838051129783" lon="13.795948706187843"><ele>818.5</ele><time>2026-04-30T11:19:37.001Z</time></trkpt><trkpt lat="37.798507856687124" lon="13.795939403833389"><ele>822.0</ele><time>2026-04-30T11:19:38.001Z</time></trkpt><trkpt lat="37.79862697882249" lon="13.79592635220454"><ele>825.5</ele><time>2026-04-30T11:19:39.001Z</time></trkpt><trkpt lat="37.79873428858737" lon="13.795951929853528"><ele>829.0</ele><time>2026-04-30T11:19:40.001Z</time></trkpt><trkpt lat="37.7988516190712" lon="13.795995707369704"><ele>826.0</ele><time>2026-04-30T11:19:41.001Z</time></trkpt><trkpt lat="37.79898883748354" lon="13.796043165983045"><ele>823.0</ele><time>2026-04-30T11:19:42.001Z</time></trkpt><trkpt lat="37.799134498126236" lon="13.796108308352235"><ele>820.0</ele><time>2026-04-30T11:19:43.001Z</time></trkpt><trkpt lat="37.799276691778914" lon="13.796190870778242"><ele>827.6666666666666</ele><time>2026-04-30T11:19:44.001Z</time></trkpt><trkpt lat="37.79941796279114" lon="13.796288835241244"><ele>835.3333333333333</ele><time>2026-04-30T11:19:45.001Z</time></trkpt><trkpt lat="37.79955842535745" lon="13.796394191771167"><ele>843.0</ele><time>2026-04-30T11:19:46.001Z</time></trkpt><trkpt lat="37.79969637695169" lon="13.796511751993764"><ele>843.0</ele><time>2026-04-30T11:19:47.001Z</time></trkpt><trkpt lat="37.79982921453812" lon="13.79663804252395"><ele>843.0</ele><time>2026-04-30T11:19:48.001Z</time></trkpt><trkpt lat="37.799943781470375" lon="13.796760682440652"><ele>843.0</ele><time>2026-04-30T11:19:49.001Z</time></trkpt><trkpt lat="37.80005117842559" lon="13.796876448372304"><ele>846.0</ele><time>2026-04-30T11:19:50.001Z</time></trkpt><trkpt lat="37.800171959783704" lon="13.79698167817648"><ele>849.0</ele><time>2026-04-30T11:19:51.001Z</time></trkpt><trkpt lat="37.80030503245563" lon="13.79704889218847"><ele>852.0</ele><time>2026-04-30T11:19:52.001Z</time></trkpt><trkpt lat="37.800435567045014" lon="13.797081122005514"><ele>855.0</ele><time>2026-04-30T11:19:53.001Z</time></trkpt><trkpt lat="37.800575079930105" lon="13.797084463522717"><ele>855.0</ele><time>2026-04-30T11:19:54.001Z</time></trkpt><trkpt lat="37.80072203340593" lon="13.797054991654083"><ele>855.0</ele><time>2026-04-30T11:19:55.001Z</time></trkpt><trkpt lat="37.80086689826761" lon="13.797005182535624"><ele>855.0</ele><time>2026-04-30T11:19:56.001Z</time></trkpt><trkpt lat="37.80098575130403" lon="13.79693559370597"><ele>855.0</ele><time>2026-04-30T11:19:57.001Z</time></trkpt><trkpt lat="37.80107482489042" lon="13.796850622426442"><ele>856.5</ele><time>2026-04-30T11:19:58.001Z</time></trkpt><trkpt lat="37.801156135698804" lon="13.796745337924143"><ele>858.0</ele><time>2026-04-30T11:19:59.001Z</time></trkpt><trkpt lat="37.80125834686483" lon="13.796621629302168"><ele>859.5</ele><time>2026-04-30T11:20:00.001Z</time></trkpt><trkpt lat="37.80137465381456" lon="13.796483903292494"><ele>861.0</ele><time>2026-04-30T11:20:01.001Z</time></trkpt><trkpt lat="37.80148824327384" lon="13.796336441589698"><ele>861.0</ele><time>2026-04-30T11:20:02.001Z</time></trkpt><trkpt lat="37.80159462637632" lon="13.796188806495545"><ele>861.0</ele><time>2026-04-30T11:20:03.001Z</time></trkpt><trkpt lat="37.80170054884901" lon="13.796022592046924"><ele>861.0</ele><time>2026-04-30T11:20:04.001Z</time></trkpt><trkpt lat="37.80179896836265" lon="13.795844763760616"><ele>864.6666666666667</ele><time>2026-04-30T11:20:05.001Z</time></trkpt><trkpt lat="37.80188541689293" lon="13.795667410693573"><ele>868.3333333333334</ele><time>2026-04-30T11:20:06.001Z</time></trkpt><trkpt lat="37.80197093208923" lon="13.795504314038821"><ele>872.0</ele><time>2026-04-30T11:20:07.001Z</time></trkpt><trkpt lat="37.802062980229294" lon="13.795343218333207"><ele>872.0</ele><time>2026-04-30T11:20:08.001Z</time></trkpt><trkpt lat="37.80214991833889" lon="13.795196845720662"><ele>872.0</ele><time>2026-04-30T11:20:09.001Z</time></trkpt><trkpt lat="37.80222817380905" lon="13.795080943748308"><ele>872.0</ele><time>2026-04-30T11:20:10.001Z</time></trkpt><trkpt lat="37.802318199620466" lon="13.794992685322484"><ele>872.0</ele><time>2026-04-30T11:20:11.001Z</time></trkpt><trkpt lat="37.80243732389781" lon="13.794929486870178"><ele>869.75</ele><time>2026-04-30T11:20:12.001Z</time></trkpt><trkpt lat="37.80257942839741" lon="13.79486804870301"><ele>867.5</ele><time>2026-04-30T11:20:13.001Z</time></trkpt><trkpt lat="37.802707855695594" lon="13.794786382993802"><ele>865.25</ele><time>2026-04-30T11:20:14.001Z</time></trkpt><trkpt lat="37.80281679562946" lon="13.794683151582563"><ele>863.0</ele><time>2026-04-30T11:20:15.001Z</time></trkpt><trkpt lat="37.80293254166571" lon="13.79457244588084"><ele>865.6666666666667</ele><time>2026-04-30T11:20:16.001Z</time></trkpt><trkpt lat="37.8030596157779" lon="13.794458835999473"><ele>868.3333333333333</ele><time>2026-04-30T11:20:17.001Z</time></trkpt><trkpt lat="37.80319091628476" lon="13.794330364087793"><ele>871.0</ele><time>2026-04-30T11:20:18.001Z</time></trkpt><trkpt lat="37.80332382637859" lon="13.794196400062322"><ele>871.0</ele><time>2026-04-30T11:20:19.001Z</time></trkpt><trkpt lat="37.80345142916648" lon="13.794072056224786"><ele>871.0</ele><time>2026-04-30T11:20:20.002Z</time></trkpt><trkpt lat="37.80356260371097" lon="13.793959069897928"><ele>871.0</ele><time>2026-04-30T11:20:21.002Z</time></trkpt><trkpt lat="37.803671555987705" lon="13.793835021504671"><ele>876.0</ele><time>2026-04-30T11:20:22.002Z</time></trkpt><trkpt lat="37.80377413350174" lon="13.79369018865191"><ele>881.0</ele><time>2026-04-30T11:20:23.002Z</time></trkpt><trkpt lat="37.80386235142669" lon="13.793520051554848"><ele>886.0</ele><time>2026-04-30T11:20:24.002Z</time></trkpt><trkpt lat="37.803948368579235" lon="13.793350481136207"><ele>886.0</ele><time>2026-04-30T11:20:25.002Z</time></trkpt><trkpt lat="37.80403911417771" lon="13.793190054574191"><ele>886.0</ele><time>2026-04-30T11:20:26.002Z</time></trkpt><trkpt lat="37.804132023289206" lon="13.793052892581638"><ele>886.0</ele><time>2026-04-30T11:20:27.002Z</time></trkpt><trkpt lat="37.80423958426026" lon="13.792947760982136"><ele>886.0</ele><time>2026-04-30T11:20:28.002Z</time></trkpt><trkpt lat="37.80436749446822" lon="13.792858507052827"><ele>886.75</ele><time>2026-04-30T11:20:29.002Z</time></trkpt><trkpt lat="37.80451597559845" lon="13.792783723598905"><ele>887.5</ele><time>2026-04-30T11:20:30.002Z</time></trkpt><trkpt lat="37.80465380827972" lon="13.792717505115272"><ele>888.25</ele><time>2026-04-30T11:20:31.002Z</time></trkpt><trkpt lat="37.804774871221014" lon="13.792659689172577"><ele>889.0</ele><time>2026-04-30T11:20:32.002Z</time></trkpt><trkpt lat="37.804888707368136" lon="13.792608374704715"><ele>889.0</ele><time>2026-04-30T11:20:33.002Z</time></trkpt><trkpt lat="37.80500441200394" lon="13.792562610271398"><ele>889.0</ele><time>2026-04-30T11:20:34.002Z</time></trkpt><trkpt lat="37.80512221993921" lon="13.792533993846469"><ele>889.0</ele><time>2026-04-30T11:20:35.002Z</time></trkpt><trkpt lat="37.80524867333722" lon="13.792527017294951"><ele>889.0</ele><time>2026-04-30T11:20:36.002Z</time></trkpt><trkpt lat="37.80538392340302" lon="13.792527847806321"><ele>891.0</ele><time>2026-04-30T11:20:37.002Z</time></trkpt><trkpt lat="37.80551167890284" lon="13.79249863771036"><ele>893.0</ele><time>2026-04-30T11:20:38.002Z</time></trkpt><trkpt lat="37.80564171014448" lon="13.79244267252817"><ele>895.0</ele><time>2026-04-30T11:20:39.002Z</time></trkpt><trkpt lat="37.80578041566944" lon="13.792371333006175"><ele>897.0</ele><time>2026-04-30T11:20:40.002Z</time></trkpt><trkpt lat="37.805923617660596" lon="13.792285326976566"><ele>899.3333333333333</ele><time>2026-04-30T11:20:41.002Z</time></trkpt><trkpt lat="37.80606650772828" lon="13.792195316717493"><ele>901.6666666666666</ele><time>2026-04-30T11:20:42.002Z</time></trkpt><trkpt lat="37.80620320627228" lon="13.792106683353074"><ele>904.0</ele><time>2026-04-30T11:20:43.002Z</time></trkpt><trkpt lat="37.8063332939442" lon="13.792029534475398"><ele>904.0</ele><time>2026-04-30T11:20:44.002Z</time></trkpt><trkpt lat="37.80646961459209" lon="13.791953105533416"><ele>904.0</ele><time>2026-04-30T11:20:45.002Z</time></trkpt><trkpt lat="37.80661583204409" lon="13.79185754229504"><ele>904.0</ele><time>2026-04-30T11:20:46.002Z</time></trkpt><trkpt lat="37.80675536883603" lon="13.79173472967574"><ele>905.6666666666666</ele><time>2026-04-30T11:20:47.002Z</time></trkpt><trkpt lat="37.80688359986843" lon="13.79158870832795"><ele>907.3333333333333</ele><time>2026-04-30T11:20:48.002Z</time></trkpt><trkpt lat="37.80700104062365" lon="13.79145175884465"><ele>909.0</ele><time>2026-04-30T11:20:49.002Z</time></trkpt><trkpt lat="37.80712490444306" lon="13.791355838644044"><ele>909.0</ele><time>2026-04-30T11:20:50.002Z</time></trkpt><trkpt lat="37.80726313877454" lon="13.791284242381476"><ele>909.0</ele><time>2026-04-30T11:20:51.002Z</time></trkpt><trkpt lat="37.807401504883266" lon="13.791191503645564"><ele>909.0</ele><time>2026-04-30T11:20:52.002Z</time></trkpt><trkpt lat="37.807528545540904" lon="13.791068207099524"><ele>908.0</ele><time>2026-04-30T11:20:53.002Z</time></trkpt><trkpt lat="37.807645199664044" lon="13.790944146496965"><ele>907.0</ele><time>2026-04-30T11:20:54.002Z</time></trkpt><trkpt lat="37.80772831594929" lon="13.79081624995062"><ele>906.0</ele><time>2026-04-30T11:20:55.002Z</time></trkpt><trkpt lat="37.80779900097129" lon="13.790658795309554"><ele>905.0</ele><time>2026-04-30T11:20:56.002Z</time></trkpt><trkpt lat="37.80784806663285" lon="13.790468805640455"><ele>910.0</ele><time>2026-04-30T11:20:57.002Z</time></trkpt><trkpt lat="37.80789325564285" lon="13.790304597102482"><ele>915.0</ele><time>2026-04-30T11:20:58.002Z</time></trkpt><trkpt lat="37.80795900891127" lon="13.790160013315003"><ele>920.0</ele><time>2026-04-30T11:20:59.002Z</time></trkpt><trkpt lat="37.80804734116524" lon="13.790017356631626"><ele>925.0</ele><time>2026-04-30T11:21:00.002Z</time></trkpt><trkpt lat="37.80816590157488" lon="13.789877579076535"><ele>925.0</ele><time>2026-04-30T11:21:01.002Z</time></trkpt><trkpt lat="37.808303521221546" lon="13.789742643728701"><ele>925.0</ele><time>2026-04-30T11:21:02.002Z</time></trkpt><trkpt lat="37.808440464265054" lon="13.789600558279394"><ele>925.0</ele><time>2026-04-30T11:21:03.002Z</time></trkpt><trkpt lat="37.80855606435955" lon="13.789452621100429"><ele>930.5</ele><time>2026-04-30T11:21:04.002Z</time></trkpt><trkpt lat="37.80865265599398" lon="13.78932820866334"><ele>936.0</ele><time>2026-04-30T11:21:05.002Z</time></trkpt><trkpt lat="37.80874032997467" lon="13.789213117565538"><ele>941.5</ele><time>2026-04-30T11:21:06.002Z</time></trkpt><trkpt lat="37.808811451472494" lon="13.789090263680075"><ele>947.0</ele><time>2026-04-30T11:21:07.002Z</time></trkpt><trkpt lat="37.80887159006004" lon="13.788961600023232"><ele>947.0</ele><time>2026-04-30T11:21:08.002Z</time></trkpt><trkpt lat="37.80891598041993" lon="13.788825235900639"><ele>947.0</ele><time>2026-04-30T11:21:09.002Z</time></trkpt><trkpt lat="37.808954616176734" lon="13.788694168917054"><ele>947.0</ele><time>2026-04-30T11:21:10.002Z</time></trkpt><trkpt lat="37.80900475343622" lon="13.78858290809287"><ele>947.0</ele><time>2026-04-30T11:21:11.002Z</time></trkpt><trkpt lat="37.80907526986403" lon="13.78850031362426"><ele>947.0</ele><time>2026-04-30T11:21:12.002Z</time></trkpt><trkpt lat="37.80915815402107" lon="13.788441509698155"><ele>945.6</ele><time>2026-04-30T11:21:13.002Z</time></trkpt><trkpt lat="37.809245023524966" lon="13.788392438909415"><ele>944.2</ele><time>2026-04-30T11:21:14.002Z</time></trkpt><trkpt lat="37.80934513174185" lon="13.788362044380392"><ele>942.8</ele><time>2026-04-30T11:21:15.002Z</time></trkpt><trkpt lat="37.809443050403296" lon="13.788354061526283"><ele>941.4</ele><time>2026-04-30T11:21:16.002Z</time></trkpt><trkpt lat="37.8095288869929" lon="13.788366871499766"><ele>940.0</ele><time>2026-04-30T11:21:17.002Z</time></trkpt><trkpt lat="37.809626353547465" lon="13.78839405197057"><ele>940.0</ele><time>2026-04-30T11:21:18.002Z</time></trkpt><trkpt lat="37.8097374026189" lon="13.788456002657766"><ele>940.0</ele><time>2026-04-30T11:21:19.001Z</time></trkpt><trkpt lat="37.80986982835995" lon="13.788541948316594"><ele>940.0</ele><time>2026-04-30T11:21:20.001Z</time></trkpt><trkpt lat="37.81001067102158" lon="13.78863384680773"><ele>940.0</ele><time>2026-04-30T11:21:21.001Z</time></trkpt><trkpt lat="37.81014190912398" lon="13.788736741965527"><ele>937.0</ele><time>2026-04-30T11:21:22.001Z</time></trkpt><trkpt lat="37.810274535529196" lon="13.788874115099482"><ele>934.0</ele><time>2026-04-30T11:21:23.001Z</time></trkpt><trkpt lat="37.810409392352035" lon="13.789030409977679"><ele>931.0</ele><time>2026-04-30T11:21:24.001Z</time></trkpt><trkpt lat="37.81054224598651" lon="13.789162777941106"><ele>931.0</ele><time>2026-04-30T11:21:25.001Z</time></trkpt><trkpt lat="37.810672957123174" lon="13.789271327486512"><ele>931.0</ele><time>2026-04-30T11:21:26.001Z</time></trkpt><trkpt lat="37.81079404423593" lon="13.789381481651429"><ele>931.0</ele><time>2026-04-30T11:21:27.001Z</time></trkpt><trkpt lat="37.810908527139624" lon="13.789494719673119"><ele>928.25</ele><time>2026-04-30T11:21:28.001Z</time></trkpt><trkpt lat="37.811015547563436" lon="13.789613671764663"><ele>925.5</ele><time>2026-04-30T11:21:29.001Z</time></trkpt><trkpt lat="37.811117285452234" lon="13.78973456405318"><ele>922.75</ele><time>2026-04-30T11:21:30.001Z</time></trkpt><trkpt lat="37.811221116669415" lon="13.789862247573502"><ele>920.0</ele><time>2026-04-30T11:21:31.001Z</time></trkpt><trkpt lat="37.811330678947954" lon="13.79000251963198"><ele>920.0</ele><time>2026-04-30T11:21:32.001Z</time></trkpt><trkpt lat="37.811438428336004" lon="13.790157812766612"><ele>920.0</ele><time>2026-04-30T11:21:33.001Z</time></trkpt><trkpt lat="37.81154232730758" lon="13.790314942580078"><ele>920.0</ele><time>2026-04-30T11:21:34.001Z</time></trkpt><trkpt lat="37.81164259795622" lon="13.790455379592048"><ele>920.75</ele><time>2026-04-30T11:21:35.001Z</time></trkpt><trkpt lat="37.81174856162779" lon="13.790578071053405"><ele>921.5</ele><time>2026-04-30T11:21:36.001Z</time></trkpt><trkpt lat="37.811853846720865" lon="13.790660062497846"><ele>922.25</ele><time>2026-04-30T11:21:37.001Z</time></trkpt><trkpt lat="37.811961055694006" lon="13.790686512656753"><ele>923.0</ele><time>2026-04-30T11:21:38.001Z</time></trkpt><trkpt lat="37.8120626428861" lon="13.790676170073105"><ele>923.0000000000001</ele><time>2026-04-30T11:21:39.001Z</time></trkpt><trkpt lat="37.81215297443927" lon="13.790658931741481"><ele>923.0</ele><time>2026-04-30T11:21:40.001Z</time></trkpt><trkpt lat="37.812231517529355" lon="13.790650556026108"><ele>923.0</ele><time>2026-04-30T11:21:41.001Z</time></trkpt><trkpt lat="37.81230272049849" lon="13.790659253404247"><ele>923.0</ele><time>2026-04-30T11:21:42.001Z</time></trkpt><trkpt lat="37.812360639700515" lon="13.790703511187315"><ele>923.0000000000001</ele><time>2026-04-30T11:21:43.001Z</time></trkpt><trkpt lat="37.81239807911159" lon="13.790789706725036"><ele>923.0</ele><time>2026-04-30T11:21:44.001Z</time></trkpt><trkpt lat="37.812411535895905" lon="13.790902300006493"><ele>923.25</ele><time>2026-04-30T11:21:45.001Z</time></trkpt><trkpt lat="37.812404517065886" lon="13.791034696158585"><ele>923.5</ele><time>2026-04-30T11:21:46.001Z</time></trkpt><trkpt lat="37.8123772164146" lon="13.791187867961344"><ele>923.75</ele><time>2026-04-30T11:21:47.001Z</time></trkpt><trkpt lat="37.81238710192881" lon="13.791346929989134"><ele>924.0</ele><time>2026-04-30T11:21:48.001Z</time></trkpt><trkpt lat="37.81245673413776" lon="13.791478033392027"><ele>924.0</ele><time>2026-04-30T11:21:49.001Z</time></trkpt><trkpt lat="37.812553480172596" lon="13.791583509843523"><ele>924.0</ele><time>2026-04-30T11:21:50.001Z</time></trkpt><trkpt lat="37.812654696042344" lon="13.791685643441069"><ele>924.0</ele><time>2026-04-30T11:21:51.001Z</time></trkpt><trkpt lat="37.81274249684988" lon="13.791795655066112"><ele>924.0</ele><time>2026-04-30T11:21:52.001Z</time></trkpt><trkpt lat="37.8128284420884" lon="13.791908935688745"><ele>922.25</ele><time>2026-04-30T11:21:53.001Z</time></trkpt><trkpt lat="37.81291740235899" lon="13.79201741461404"><ele>920.5</ele><time>2026-04-30T11:21:54.001Z</time></trkpt><trkpt lat="37.81300482701212" lon="13.792121441601266"><ele>918.75</ele><time>2026-04-30T11:21:55.001Z</time></trkpt><trkpt lat="37.81309175100652" lon="13.792221427454033"><ele>917.0</ele><time>2026-04-30T11:21:56.001Z</time></trkpt><trkpt lat="37.813175796379205" lon="13.792317214067907"><ele>917.0</ele><time>2026-04-30T11:21:57.001Z</time></trkpt><trkpt lat="37.813259148291095" lon="13.792410461054176"><ele>917.0</ele><time>2026-04-30T11:21:58.001Z</time></trkpt><trkpt lat="37.8133400852236" lon="13.79250822005115"><ele>917.0</ele><time>2026-04-30T11:21:59.001Z</time></trkpt><trkpt lat="37.81342148412878" lon="13.792606536553295"><ele>917.0</ele><time>2026-04-30T11:22:00.001Z</time></trkpt><trkpt lat="37.81350386806112" lon="13.792705440927845"><ele>917.0</ele><time>2026-04-30T11:22:01.001Z</time></trkpt><trkpt lat="37.81358622465499" lon="13.792798765421075"><ele>918.8</ele><time>2026-04-30T11:22:02.001Z</time></trkpt><trkpt lat="37.81366643385493" lon="13.792886042934764"><ele>920.6</ele><time>2026-04-30T11:22:03.001Z</time></trkpt><trkpt lat="37.8137473518576" lon="13.792967011624503"><ele>922.3999999999999</ele><time>2026-04-30T11:22:04.001Z</time></trkpt><trkpt lat="37.81383436003961" lon="13.793028604148708"><ele>924.1999999999999</ele><time>2026-04-30T11:22:05.001Z</time></trkpt><trkpt lat="37.81392637227512" lon="13.79308246354754"><ele>926.0</ele><time>2026-04-30T11:22:06.001Z</time></trkpt><trkpt lat="37.81403350813588" lon="13.793124677095312"><ele>926.0</ele><time>2026-04-30T11:22:07.001Z</time></trkpt><trkpt lat="37.81415899317671" lon="13.793135195925066"><ele>926.0</ele><time>2026-04-30T11:22:08.001Z</time></trkpt><trkpt lat="37.81429238531061" lon="13.793100151986973"><ele>926.0</ele><time>2026-04-30T11:22:09.001Z</time></trkpt><trkpt lat="37.81441798840339" lon="13.793063435688577"><ele>926.0</ele><time>2026-04-30T11:22:10.001Z</time></trkpt><trkpt lat="37.81452787712984" lon="13.793071768156018"><ele>926.5</ele><time>2026-04-30T11:22:11.001Z</time></trkpt><trkpt lat="37.814645073073585" lon="13.793110714606572"><ele>927.0</ele><time>2026-04-30T11:22:12.001Z</time></trkpt><trkpt lat="37.814761941239375" lon="13.793161542451683"><ele>927.5</ele><time>2026-04-30T11:22:13.001Z</time></trkpt><trkpt lat="37.81486189421255" lon="13.793223850566266"><ele>928.0</ele><time>2026-04-30T11:22:14.001Z</time></trkpt><trkpt lat="37.8149467338706" lon="13.793310116661036"><ele>928.0</ele><time>2026-04-30T11:22:15.001Z</time></trkpt><trkpt lat="37.815019407032956" lon="13.79343221751"><ele>928.0</ele><time>2026-04-30T11:22:16.001Z</time></trkpt><trkpt lat="37.81509187549655" lon="13.793583486724248"><ele>928.0</ele><time>2026-04-30T11:22:17.001Z</time></trkpt><trkpt lat="37.815170444128135" lon="13.793750249372504"><ele>928.0</ele><time>2026-04-30T11:22:18.001Z</time></trkpt><trkpt lat="37.81526887455955" lon="13.793913489451718"><ele>929.0</ele><time>2026-04-30T11:22:19.001Z</time></trkpt><trkpt lat="37.81537864702054" lon="13.794088265746353"><ele>930.0</ele><time>2026-04-30T11:22:20.001Z</time></trkpt><trkpt lat="37.8154934681802" lon="13.794279256082703"><ele>931.0</ele><time>2026-04-30T11:22:21.001Z</time></trkpt><trkpt lat="37.815604795428115" lon="13.794464983822415"><ele>931.0</ele><time>2026-04-30T11:22:22.001Z</time></trkpt><trkpt lat="37.8156967390839" lon="13.794650396396714"><ele>931.0</ele><time>2026-04-30T11:22:23.001Z</time></trkpt><trkpt lat="37.815764460075314" lon="13.794837124415023"><ele>931.0</ele><time>2026-04-30T11:22:24.001Z</time></trkpt><trkpt lat="37.81584270789199" lon="13.795018054696042"><ele>934.3333333333333</ele><time>2026-04-30T11:22:25.001Z</time></trkpt><trkpt lat="37.81593801903433" lon="13.795193589115819"><ele>937.6666666666667</ele><time>2026-04-30T11:22:26.001Z</time></trkpt><trkpt lat="37.8160449919019" lon="13.795363148249537"><ele>941.0</ele><time>2026-04-30T11:22:27.001Z</time></trkpt><trkpt lat="37.81614618116732" lon="13.79552241679726"><ele>938.25</ele><time>2026-04-30T11:22:28.001Z</time></trkpt><trkpt lat="37.81623699411219" lon="13.795673819271183"><ele>935.5</ele><time>2026-04-30T11:22:29.001Z</time></trkpt><trkpt lat="37.816328392665625" lon="13.79582025755189"><ele>932.75</ele><time>2026-04-30T11:22:30.001Z</time></trkpt><trkpt lat="37.816429854395864" lon="13.795957440237125"><ele>930.0</ele><time>2026-04-30T11:22:31.001Z</time></trkpt><trkpt lat="37.81652872304545" lon="13.796092098686959"><ele>930.0</ele><time>2026-04-30T11:22:32.001Z</time></trkpt><trkpt lat="37.81662937528245" lon="13.796236626153878"><ele>930.0</ele><time>2026-04-30T11:22:33.001Z</time></trkpt><trkpt lat="37.81672700791358" lon="13.79638552433187"><ele>930.0</ele><time>2026-04-30T11:22:34.001Z</time></trkpt><trkpt lat="37.81682367195476" lon="13.796521164994614"><ele>930.0</ele><time>2026-04-30T11:22:35.001Z</time></trkpt><trkpt lat="37.816917338318106" lon="13.796647573122817"><ele>925.75</ele><time>2026-04-30T11:22:36.001Z</time></trkpt><trkpt lat="37.81700979322178" lon="13.796774056547912"><ele>921.5</ele><time>2026-04-30T11:22:37.001Z</time></trkpt><trkpt lat="37.817100151240965" lon="13.79690336449554"><ele>917.25</ele><time>2026-04-30T11:22:38.001Z</time></trkpt><trkpt lat="37.817190797331" lon="13.797036550922149"><ele>913.0</ele><time>2026-04-30T11:22:39.002Z</time></trkpt><trkpt lat="37.817283713050585" lon="13.797169482685623"><ele>913.0</ele><time>2026-04-30T11:22:40.002Z</time></trkpt><trkpt lat="37.81738487566119" lon="13.797290562136013"><ele>913.0</ele><time>2026-04-30T11:22:41.002Z</time></trkpt><trkpt lat="37.81749637607691" lon="13.79739394653117"><ele>913.0</ele><time>2026-04-30T11:22:42.002Z</time></trkpt><trkpt lat="37.817606111470546" lon="13.797496388929602"><ele>913.0</ele><time>2026-04-30T11:22:43.002Z</time></trkpt><trkpt lat="37.81771198287948" lon="13.79761666205747"><ele>909.5</ele><time>2026-04-30T11:22:44.002Z</time></trkpt><trkpt lat="37.81781240166787" lon="13.797749211469664"><ele>906.0</ele><time>2026-04-30T11:22:45.002Z</time></trkpt><trkpt lat="37.8179109998127" lon="13.797881069119164"><ele>902.5</ele><time>2026-04-30T11:22:46.002Z</time></trkpt><trkpt lat="37.818007226195775" lon="13.798014675956596"><ele>899.0</ele><time>2026-04-30T11:22:47.002Z</time></trkpt><trkpt lat="37.81809375191295" lon="13.798154745948192"><ele>899.0</ele><time>2026-04-30T11:22:48.002Z</time></trkpt><trkpt lat="37.8181689809458" lon="13.798308654725776"><ele>899.0</ele><time>2026-04-30T11:22:49.002Z</time></trkpt><trkpt lat="37.81822936899371" lon="13.798473763303402"><ele>899.0</ele><time>2026-04-30T11:22:50.002Z</time></trkpt><trkpt lat="37.81827087338111" lon="13.798642596973362"><ele>899.0</ele><time>2026-04-30T11:22:51.002Z</time></trkpt><trkpt lat="37.81829429138914" lon="13.798828518166895"><ele>901.0</ele><time>2026-04-30T11:22:52.002Z</time></trkpt><trkpt lat="37.81832220803013" lon="13.799015694544197"><ele>903.0</ele><time>2026-04-30T11:22:53.002Z</time></trkpt><trkpt lat="37.818362066228474" lon="13.799185984792231"><ele>905.0</ele><time>2026-04-30T11:22:54.002Z</time></trkpt><trkpt lat="37.81841897915847" lon="13.799344415334843"><ele>907.0</ele><time>2026-04-30T11:22:55.002Z</time></trkpt><trkpt lat="37.81847297767934" lon="13.799496714192193"><ele>904.25</ele><time>2026-04-30T11:22:56.002Z</time></trkpt><trkpt lat="37.81850989470208" lon="13.79964942762602"><ele>901.5</ele><time>2026-04-30T11:22:57.002Z</time></trkpt><trkpt lat="37.81853201213045" lon="13.799808572780583"><ele>898.75</ele><time>2026-04-30T11:22:58.002Z</time></trkpt><trkpt lat="37.818551221669324" lon="13.799965966997389"><ele>896.0</ele><time>2026-04-30T11:22:59.002Z</time></trkpt><trkpt lat="37.81858036242662" lon="13.800121647695084"><ele>897.8</ele><time>2026-04-30T11:23:00.002Z</time></trkpt><trkpt lat="37.81861564529754" lon="13.80026768644505"><ele>899.5999999999999</ele><time>2026-04-30T11:23:01.002Z</time></trkpt><trkpt lat="37.81863996578712" lon="13.80039985645961"><ele>901.4</ele><time>2026-04-30T11:23:02.002Z</time></trkpt><trkpt lat="37.818643187743966" lon="13.800533036395791"><ele>903.2</ele><time>2026-04-30T11:23:03.002Z</time></trkpt><trkpt lat="37.81862352589501" lon="13.800672997211466"><ele>905.0</ele><time>2026-04-30T11:23:04.002Z</time></trkpt><trkpt lat="37.81858648412693" lon="13.800821763943283"><ele>905.0</ele><time>2026-04-30T11:23:05.002Z</time></trkpt><trkpt lat="37.818551302666584" lon="13.800974089349504"><ele>905.0</ele><time>2026-04-30T11:23:06.002Z</time></trkpt><trkpt lat="37.81854559430627" lon="13.801122487659619"><ele>905.0</ele><time>2026-04-30T11:23:07.002Z</time></trkpt><trkpt lat="37.81857460617295" lon="13.801263606621493"><ele>905.0</ele><time>2026-04-30T11:23:08.002Z</time></trkpt><trkpt lat="37.81862005785974" lon="13.801396772843436"><ele>908.25</ele><time>2026-04-30T11:23:09.002Z</time></trkpt><trkpt lat="37.8186710490391" lon="13.80152924769223"><ele>911.5</ele><time>2026-04-30T11:23:10.002Z</time></trkpt><trkpt lat="37.818713521254175" lon="13.801667855639364"><ele>914.75</ele><time>2026-04-30T11:23:11.002Z</time></trkpt><trkpt lat="37.818745655129995" lon="13.801817296991173"><ele>918.0</ele><time>2026-04-30T11:23:12.002Z</time></trkpt><trkpt lat="37.81877489810766" lon="13.801975241504438"><ele>920.25</ele><time>2026-04-30T11:23:13.002Z</time></trkpt><trkpt lat="37.81880744925951" lon="13.802136356328294"><ele>922.5</ele><time>2026-04-30T11:23:14.002Z</time></trkpt><trkpt lat="37.81885113382485" lon="13.80229343932388"><ele>924.75</ele><time>2026-04-30T11:23:15.002Z</time></trkpt><trkpt lat="37.81890854883504" lon="13.802442451214095"><ele>927.0</ele><time>2026-04-30T11:23:16.002Z</time></trkpt><trkpt lat="37.818985483178125" lon="13.80257732883941"><ele>930.0</ele><time>2026-04-30T11:23:17.002Z</time></trkpt><trkpt lat="37.819073605801435" lon="13.802702866567698"><ele>933.0</ele><time>2026-04-30T11:23:18.002Z</time></trkpt><trkpt lat="37.81915280461617" lon="13.802840473827382"><ele>936.0</ele><time>2026-04-30T11:23:19.002Z</time></trkpt><trkpt lat="37.81922569952139" lon="13.802988874893598"><ele>939.0</ele><time>2026-04-30T11:23:20.002Z</time></trkpt><trkpt lat="37.81930771378509" lon="13.80313523995089"><ele>937.75</ele><time>2026-04-30T11:23:21.002Z</time></trkpt><trkpt lat="37.8194011911186" lon="13.803271886364998"><ele>936.5</ele><time>2026-04-30T11:23:22.002Z</time></trkpt><trkpt lat="37.81949536310861" lon="13.803397392124937"><ele>935.25</ele><time>2026-04-30T11:23:23.002Z</time></trkpt><trkpt lat="37.819581671515216" lon="13.803511849388372"><ele>934.0</ele><time>2026-04-30T11:23:24.002Z</time></trkpt><trkpt lat="37.81966494110636" lon="13.803605372372447"><ele>934.0</ele><time>2026-04-30T11:23:25.001Z</time></trkpt><trkpt lat="37.819746675337484" lon="13.803678244947548"><ele>934.0000000000001</ele><time>2026-04-30T11:23:26.001Z</time></trkpt><trkpt lat="37.819821884734885" lon="13.80372032136922"><ele>934.0000000000001</ele><time>2026-04-30T11:23:27.001Z</time></trkpt><trkpt lat="37.81989000380187" lon="13.803730785706442"><ele>934.0</ele><time>2026-04-30T11:23:28.001Z</time></trkpt><trkpt lat="37.820000601985996" lon="13.803685479311177"><ele>934.0</ele><time>2026-04-30T11:23:30.001Z</time></trkpt><trkpt lat="37.82010974088246" lon="13.803589119241526"><ele>934.4000000000001</ele><time>2026-04-30T11:23:32.001Z</time></trkpt><trkpt lat="37.82017139213414" lon="13.80351268632006"><ele>934.8000000000001</ele><time>2026-04-30T11:23:33.001Z</time></trkpt><trkpt lat="37.820235037631946" lon="13.803432699402569"><ele>935.1999999999999</ele><time>2026-04-30T11:23:34.001Z</time></trkpt><trkpt lat="37.82030599921061" lon="13.803346871466577"><ele>935.5999999999999</ele><time>2026-04-30T11:23:35.001Z</time></trkpt><trkpt lat="37.82038587708089" lon="13.803257329630465"><ele>936.0</ele><time>2026-04-30T11:23:36.001Z</time></trkpt><trkpt lat="37.82047777680744" lon="13.803170071456908"><ele>934.5</ele><time>2026-04-30T11:23:37.001Z</time></trkpt><trkpt lat="37.82058784944982" lon="13.803094606621228"><ele>933.0</ele><time>2026-04-30T11:23:38.001Z</time></trkpt><trkpt lat="37.820708442247835" lon="13.803022403750354"><ele>931.5</ele><time>2026-04-30T11:23:39.001Z</time></trkpt><trkpt lat="37.82083069817995" lon="13.80293800508968"><ele>930.0</ele><time>2026-04-30T11:23:40.001Z</time></trkpt><trkpt lat="37.82095378990129" lon="13.80285885952777"><ele>927.25</ele><time>2026-04-30T11:23:41.001Z</time></trkpt><trkpt lat="37.82107672337831" lon="13.802779245826196"><ele>924.5</ele><time>2026-04-30T11:23:42.001Z</time></trkpt><trkpt lat="37.821203761664606" lon="13.802698528361722"><ele>921.75</ele><time>2026-04-30T11:23:43.001Z</time></trkpt><trkpt lat="37.82134199383475" lon="13.802626027275979"><ele>919.0</ele><time>2026-04-30T11:23:44.001Z</time></trkpt><trkpt lat="37.821479107161046" lon="13.802554342767243"><ele>917.0</ele><time>2026-04-30T11:23:45.001Z</time></trkpt><trkpt lat="37.821608484458366" lon="13.802479428535722"><ele>915.0</ele><time>2026-04-30T11:23:46.001Z</time></trkpt><trkpt lat="37.82173584162015" lon="13.802414230361855"><ele>913.0</ele><time>2026-04-30T11:23:47.001Z</time></trkpt><trkpt lat="37.82186729963402" lon="13.802356251109902"><ele>911.0</ele><time>2026-04-30T11:23:48.001Z</time></trkpt><trkpt lat="37.82198591596313" lon="13.802306001549994"><ele>908.25</ele><time>2026-04-30T11:23:49.001Z</time></trkpt><trkpt lat="37.82209284218022" lon="13.802244017297241"><ele>905.5</ele><time>2026-04-30T11:23:50.001Z</time></trkpt><trkpt lat="37.822198698027755" lon="13.802163468633651"><ele>902.75</ele><time>2026-04-30T11:23:51.001Z</time></trkpt><trkpt lat="37.82231088083969" lon="13.802065871718499"><ele>900.0</ele><time>2026-04-30T11:23:52.001Z</time></trkpt><trkpt lat="37.82243271636347" lon="13.80194065514916"><ele>898.3333333333333</ele><time>2026-04-30T11:23:53.001Z</time></trkpt><trkpt lat="37.82255104249179" lon="13.801780065736182"><ele>896.6666666666666</ele><time>2026-04-30T11:23:54.001Z</time></trkpt><trkpt lat="37.82265262281987" lon="13.80160307793392"><ele>895.0</ele><time>2026-04-30T11:23:55.001Z</time></trkpt><trkpt lat="37.82274427542049" lon="13.801443277342793"><ele>895.0</ele><time>2026-04-30T11:23:56.001Z</time></trkpt><trkpt lat="37.82284481225311" lon="13.801303005265613"><ele>895.0</ele><time>2026-04-30T11:23:57.001Z</time></trkpt><trkpt lat="37.82295125632043" lon="13.80117536221296"><ele>895.0</ele><time>2026-04-30T11:23:58.001Z</time></trkpt><trkpt lat="37.82306514564302" lon="13.801066761086258"><ele>895.0</ele><time>2026-04-30T11:23:59.001Z</time></trkpt><trkpt lat="37.82317224078442" lon="13.800969541397404"><ele>893.75</ele><time>2026-04-30T11:24:00.001Z</time></trkpt><trkpt lat="37.82325898516767" lon="13.800871762030255"><ele>892.5</ele><time>2026-04-30T11:24:01.001Z</time></trkpt><trkpt lat="37.82331438374039" lon="13.800749577338902"><ele>891.25</ele><time>2026-04-30T11:24:02.001Z</time></trkpt><trkpt lat="37.82334534699662" lon="13.800607601093903"><ele>890.0</ele><time>2026-04-30T11:24:03.001Z</time></trkpt><trkpt lat="37.823364049989536" lon="13.800432688082246"><ele>890.0</ele><time>2026-04-30T11:24:04.001Z</time></trkpt><trkpt lat="37.823386595535204" lon="13.800237126207666"><ele>890.0</ele><time>2026-04-30T11:24:05.001Z</time></trkpt><trkpt lat="37.82340695433242" lon="13.800030627225"><ele>890.0</ele><time>2026-04-30T11:24:06.001Z</time></trkpt><trkpt lat="37.82342814758994" lon="13.799840119196583"><ele>890.0</ele><time>2026-04-30T11:24:07.001Z</time></trkpt><trkpt lat="37.823453807989615" lon="13.799661354863012"><ele>890.0</ele><time>2026-04-30T11:24:08.001Z</time></trkpt><trkpt lat="37.823485430081234" lon="13.79948614944828"><ele>890.0</ele><time>2026-04-30T11:24:09.001Z</time></trkpt><trkpt lat="37.823518477422354" lon="13.799317332987657"><ele>890.0</ele><time>2026-04-30T11:24:10.001Z</time></trkpt><trkpt lat="37.82355004953139" lon="13.79914929244101"><ele>890.0</ele><time>2026-04-30T11:24:11.001Z</time></trkpt><trkpt lat="37.823577091120605" lon="13.798983838335591"><ele>890.0</ele><time>2026-04-30T11:24:12.001Z</time></trkpt><trkpt lat="37.82360540449443" lon="13.798815244970674"><ele>890.0</ele><time>2026-04-30T11:24:13.001Z</time></trkpt><trkpt lat="37.82363722503278" lon="13.798635616413005"><ele>890.0</ele><time>2026-04-30T11:24:14.001Z</time></trkpt><trkpt lat="37.82366868999264" lon="13.798458998879742"><ele>886.5</ele><time>2026-04-30T11:24:15.001Z</time></trkpt><trkpt lat="37.823690253925356" lon="13.798280542739473"><ele>883.0</ele><time>2026-04-30T11:24:16.001Z</time></trkpt><trkpt lat="37.82369937780136" lon="13.798098360608565"><ele>879.5</ele><time>2026-04-30T11:24:17.001Z</time></trkpt><trkpt lat="37.82369690438896" lon="13.797920281150773"><ele>876.0</ele><time>2026-04-30T11:24:18.001Z</time></trkpt><trkpt lat="37.82368642566152" lon="13.797745569802553"><ele>873.5</ele><time>2026-04-30T11:24:19.001Z</time></trkpt><trkpt lat="37.82366911751422" lon="13.79757123184406"><ele>871.0</ele><time>2026-04-30T11:24:20.001Z</time></trkpt><trkpt lat="37.82364698424799" lon="13.797396303300111"><ele>868.5</ele><time>2026-04-30T11:24:21.001Z</time></trkpt><trkpt lat="37.82362153579444" lon="13.797219525221186"><ele>866.0</ele><time>2026-04-30T11:24:22.001Z</time></trkpt><trkpt lat="37.82358779508749" lon="13.797042879259077"><ele>866.0</ele><time>2026-04-30T11:24:23.001Z</time></trkpt><trkpt lat="37.82354716635286" lon="13.796869978949097"><ele>866.0</ele><time>2026-04-30T11:24:24.001Z</time></trkpt><trkpt lat="37.823508460425806" lon="13.796709550501316"><ele>866.0</ele><time>2026-04-30T11:24:25.001Z</time></trkpt><trkpt lat="37.82348562663379" lon="13.796560151262655"><ele>866.0</ele><time>2026-04-30T11:24:26.001Z</time></trkpt><trkpt lat="37.82348746460399" lon="13.796404989768291"><ele>863.25</ele><time>2026-04-30T11:24:27.001Z</time></trkpt><trkpt lat="37.82350876849853" lon="13.796238056721782"><ele>860.5</ele><time>2026-04-30T11:24:28.001Z</time></trkpt><trkpt lat="37.823542977694935" lon="13.796054129512491"><ele>857.75</ele><time>2026-04-30T11:24:29.001Z</time></trkpt><trkpt lat="37.823579513756" lon="13.795880656557111"><ele>855.0</ele><time>2026-04-30T11:24:30.001Z</time></trkpt><trkpt lat="37.82362324945272" lon="13.79572635953465"><ele>851.5</ele><time>2026-04-30T11:24:31.001Z</time></trkpt><trkpt lat="37.82367851978743" lon="13.795591270994667"><ele>848.0</ele><time>2026-04-30T11:24:32.001Z</time></trkpt><trkpt lat="37.82374354933573" lon="13.795468350265125"><ele>844.5</ele><time>2026-04-30T11:24:33.001Z</time></trkpt><trkpt lat="37.823795334070816" lon="13.795343884933363"><ele>841.0</ele><time>2026-04-30T11:24:34.001Z</time></trkpt><trkpt lat="37.82381300912549" lon="13.795212397193678"><ele>839.5</ele><time>2026-04-30T11:24:35.001Z</time></trkpt><trkpt lat="37.82380196232631" lon="13.795065660432403"><ele>838.0</ele><time>2026-04-30T11:24:36.001Z</time></trkpt><trkpt lat="37.82377269030101" lon="13.794890484182064"><ele>836.5</ele><time>2026-04-30T11:24:37.001Z</time></trkpt><trkpt lat="37.82374041268521" lon="13.794707174676992"><ele>835.0</ele><time>2026-04-30T11:24:38.001Z</time></trkpt><trkpt lat="37.82371441743684" lon="13.794542758865495"><ele>835.0</ele><time>2026-04-30T11:24:39.001Z</time></trkpt><trkpt lat="37.82369628091609" lon="13.79438159762242"><ele>835.0</ele><time>2026-04-30T11:24:40.001Z</time></trkpt><trkpt lat="37.82369955749875" lon="13.794205810261518"><ele>835.0</ele><time>2026-04-30T11:24:41.001Z</time></trkpt><trkpt lat="37.82373075938187" lon="13.793997805609244"><ele>835.0</ele><time>2026-04-30T11:24:42.001Z</time></trkpt><trkpt lat="37.823779388243686" lon="13.793759551338798"><ele>833.0</ele><time>2026-04-30T11:24:43.001Z</time></trkpt><trkpt lat="37.823822248585756" lon="13.793511440726284"><ele>831.0</ele><time>2026-04-30T11:24:44.001Z</time></trkpt><trkpt lat="37.823855854781236" lon="13.793281603228905"><ele>829.0</ele><time>2026-04-30T11:24:45.001Z</time></trkpt><trkpt lat="37.823889422137505" lon="13.793068957445065"><ele>826.3333333333333</ele><time>2026-04-30T11:24:46.001Z</time></trkpt><trkpt lat="37.82391453884561" lon="13.792866075747435"><ele>823.6666666666667</ele><time>2026-04-30T11:24:47.001Z</time></trkpt><trkpt lat="37.823918376612156" lon="13.792672488644303"><ele>821.0</ele><time>2026-04-30T11:24:48.001Z</time></trkpt><trkpt lat="37.82389971917085" lon="13.792487981136658"><ele>819.5</ele><time>2026-04-30T11:24:49.001Z</time></trkpt><trkpt lat="37.823885433885614" lon="13.792312662634044"><ele>818.0</ele><time>2026-04-30T11:24:50.001Z</time></trkpt><trkpt lat="37.82388771137641" lon="13.792143836818525"><ele>816.5</ele><time>2026-04-30T11:24:51.001Z</time></trkpt><trkpt lat="37.8239162815069" lon="13.791973051470007"><ele>815.0</ele><time>2026-04-30T11:24:52.001Z</time></trkpt><trkpt lat="37.823975587955005" lon="13.791819073876841"><ele>813.0</ele><time>2026-04-30T11:24:53.001Z</time></trkpt><trkpt lat="37.824073013884856" lon="13.79168510545672"><ele>811.0</ele><time>2026-04-30T11:24:54.001Z</time></trkpt><trkpt lat="37.824196054887864" lon="13.791551349346639"><ele>809.0</ele><time>2026-04-30T11:24:55.001Z</time></trkpt><trkpt lat="37.82430954085281" lon="13.791429824767414"><ele>807.75</ele><time>2026-04-30T11:24:56.001Z</time></trkpt><trkpt lat="37.82439106102617" lon="13.79129318739146"><ele>806.5</ele><time>2026-04-30T11:24:57.001Z</time></trkpt><trkpt lat="37.82444361265908" lon="13.791148703325577"><ele>805.25</ele><time>2026-04-30T11:24:58.001Z</time></trkpt><trkpt lat="37.82451631521286" lon="13.791025262190475"><ele>804.0</ele><time>2026-04-30T11:24:59.001Z</time></trkpt><trkpt lat="37.8246217679817" lon="13.790933985882617"><ele>804.0</ele><time>2026-04-30T11:25:00.001Z</time></trkpt><trkpt lat="37.824734581316044" lon="13.790853911213748"><ele>804.0</ele><time>2026-04-30T11:25:01.001Z</time></trkpt><trkpt lat="37.82485004702418" lon="13.790764870949072"><ele>804.0</ele><time>2026-04-30T11:25:02.001Z</time></trkpt><trkpt lat="37.82496026012863" lon="13.790664125801335"><ele>804.0</ele><time>2026-04-30T11:25:03.001Z</time></trkpt><trkpt lat="37.8250684392264" lon="13.790561392622706"><ele>803.25</ele><time>2026-04-30T11:25:04.001Z</time></trkpt><trkpt lat="37.825175754356415" lon="13.790454403445029"><ele>802.5</ele><time>2026-04-30T11:25:05.001Z</time></trkpt><trkpt lat="37.825272636064945" lon="13.7903373393268"><ele>801.75</ele><time>2026-04-30T11:25:06.001Z</time></trkpt><trkpt lat="37.825344594759706" lon="13.790207692845133"><ele>801.0</ele><time>2026-04-30T11:25:07.002Z</time></trkpt><trkpt lat="37.82538933858747" lon="13.79006095488259"><ele>801.0</ele><time>2026-04-30T11:25:08.002Z</time></trkpt><trkpt lat="37.825418652087855" lon="13.78991597732089"><ele>801.0</ele><time>2026-04-30T11:25:09.002Z</time></trkpt><trkpt lat="37.825457202217976" lon="13.789784895346124"><ele>801.0</ele><time>2026-04-30T11:25:10.002Z</time></trkpt><trkpt lat="37.82551545608196" lon="13.789662101600834"><ele>801.0</ele><time>2026-04-30T11:25:11.002Z</time></trkpt><trkpt lat="37.82558440706294" lon="13.7895426278213"><ele>801.0</ele><time>2026-04-30T11:25:12.002Z</time></trkpt><trkpt lat="37.825642843799876" lon="13.789411695495216"><ele>801.0</ele><time>2026-04-30T11:25:13.002Z</time></trkpt><trkpt lat="37.82566686788781" lon="13.789263542133899"><ele>801.0</ele><time>2026-04-30T11:25:14.002Z</time></trkpt><trkpt lat="37.82566701001769" lon="13.789111725372662"><ele>801.0</ele><time>2026-04-30T11:25:15.002Z</time></trkpt><trkpt lat="37.82565518187803" lon="13.78896848984094"><ele>799.4</ele><time>2026-04-30T11:25:16.002Z</time></trkpt><trkpt lat="37.82565804696118" lon="13.788832755740641"><ele>797.8</ele><time>2026-04-30T11:25:17.002Z</time></trkpt><trkpt lat="37.82567818623439" lon="13.788704658881192"><ele>796.1999999999999</ele><time>2026-04-30T11:25:18.002Z</time></trkpt><trkpt lat="37.82570644906587" lon="13.788581692406703"><ele>794.5999999999999</ele><time>2026-04-30T11:25:19.002Z</time></trkpt><trkpt lat="37.82573568302801" lon="13.788444353299049"><ele>793.0</ele><time>2026-04-30T11:25:20.002Z</time></trkpt><trkpt lat="37.825771161264264" lon="13.788295029863349"><ele>793.0</ele><time>2026-04-30T11:25:21.002Z</time></trkpt><trkpt lat="37.825804771802716" lon="13.788142526646356"><ele>793.0</ele><time>2026-04-30T11:25:22.002Z</time></trkpt><trkpt lat="37.82583466624211" lon="13.787993200265172"><ele>793.0</ele><time>2026-04-30T11:25:23.002Z</time></trkpt><trkpt lat="37.82586103215083" lon="13.787861137542635"><ele>793.0</ele><time>2026-04-30T11:25:24.002Z</time></trkpt><trkpt lat="37.82586374979921" lon="13.787725596476887"><ele>796.0</ele><time>2026-04-30T11:25:25.002Z</time></trkpt><trkpt lat="37.825818487115505" lon="13.787583465747971"><ele>799.0</ele><time>2026-04-30T11:25:26.002Z</time></trkpt><trkpt lat="37.82573960959771" lon="13.78745080929889"><ele>802.0</ele><time>2026-04-30T11:25:27.002Z</time></trkpt><trkpt lat="37.825641789879946" lon="13.787331718114311"><ele>805.0</ele><time>2026-04-30T11:25:28.002Z</time></trkpt><trkpt lat="37.8255476957691" lon="13.787237177824755"><ele>805.0</ele><time>2026-04-30T11:25:29.002Z</time></trkpt><trkpt lat="37.82547596015136" lon="13.7871442267158"><ele>805.0</ele><time>2026-04-30T11:25:30.002Z</time></trkpt><trkpt lat="37.82543079926926" lon="13.787029853131882"><ele>805.0</ele><time>2026-04-30T11:25:31.001Z</time></trkpt><trkpt lat="37.825415472808565" lon="13.786903816050323"><ele>805.0</ele><time>2026-04-30T11:25:32.001Z</time></trkpt><trkpt lat="37.825436324258725" lon="13.786772355364054"><ele>805.0</ele><time>2026-04-30T11:25:33.001Z</time></trkpt><trkpt lat="37.82548338381234" lon="13.786634960958647"><ele>806.5</ele><time>2026-04-30T11:25:34.001Z</time></trkpt><trkpt lat="37.8255367146807" lon="13.786491073903232"><ele>808.0</ele><time>2026-04-30T11:25:35.001Z</time></trkpt><trkpt lat="37.825600220803274" lon="13.78636262301515"><ele>809.5</ele><time>2026-04-30T11:25:36.001Z</time></trkpt><trkpt lat="37.825682746530184" lon="13.786257386983252"><ele>811.0</ele><time>2026-04-30T11:25:37.001Z</time></trkpt><trkpt lat="37.825776556581395" lon="13.786169498051743"><ele>811.0</ele><time>2026-04-30T11:25:38.001Z</time></trkpt><trkpt lat="37.825868342232226" lon="13.786071660759228"><ele>811.0</ele><time>2026-04-30T11:25:39.001Z</time></trkpt><trkpt lat="37.82595136346987" lon="13.785951375856484"><ele>811.0</ele><time>2026-04-30T11:25:40.001Z</time></trkpt><trkpt lat="37.82602619006233" lon="13.785816559664726"><ele>811.0</ele><time>2026-04-30T11:25:41.001Z</time></trkpt><trkpt lat="37.82608624483243" lon="13.785662785868965"><ele>810.0</ele><time>2026-04-30T11:25:42.001Z</time></trkpt><trkpt lat="37.82612889971573" lon="13.785503213157572"><ele>809.0</ele><time>2026-04-30T11:25:43.001Z</time></trkpt><trkpt lat="37.82617963343599" lon="13.78534834139331"><ele>808.0</ele><time>2026-04-30T11:25:44.001Z</time></trkpt><trkpt lat="37.82622642097591" lon="13.785193133799023"><ele>807.0</ele><time>2026-04-30T11:25:45.001Z</time></trkpt><trkpt lat="37.82626033045609" lon="13.785029415632842"><ele>807.0</ele><time>2026-04-30T11:25:46.001Z</time></trkpt><trkpt lat="37.82626432056921" lon="13.784857357878359"><ele>807.0</ele><time>2026-04-30T11:25:47.001Z</time></trkpt><trkpt lat="37.826233151351104" lon="13.784684545914928"><ele>807.0</ele><time>2026-04-30T11:25:48.001Z</time></trkpt><trkpt lat="37.826178492735174" lon="13.78451947684306"><ele>807.0</ele><time>2026-04-30T11:25:49.001Z</time></trkpt><trkpt lat="37.826150887434764" lon="13.78435956763618"><ele>808.0</ele><time>2026-04-30T11:25:50.001Z</time></trkpt><trkpt lat="37.82615960900319" lon="13.784191768765774"><ele>809.0</ele><time>2026-04-30T11:25:51.001Z</time></trkpt><trkpt lat="37.826180666417464" lon="13.784019175938308"><ele>810.0</ele><time>2026-04-30T11:25:52.001Z</time></trkpt><trkpt lat="37.826200614432054" lon="13.783843701434638"><ele>811.0</ele><time>2026-04-30T11:25:53.001Z</time></trkpt><trkpt lat="37.82623349721956" lon="13.783665279329789"><ele>812.3333333333333</ele><time>2026-04-30T11:25:54.001Z</time></trkpt><trkpt lat="37.82627668834192" lon="13.783484545833653"><ele>813.6666666666667</ele><time>2026-04-30T11:25:55.001Z</time></trkpt><trkpt lat="37.82629378645619" lon="13.78328770066755"><ele>815.0</ele><time>2026-04-30T11:25:56.001Z</time></trkpt><trkpt lat="37.826286703226046" lon="13.78308487392112"><ele>815.0</ele><time>2026-04-30T11:25:57.001Z</time></trkpt><trkpt lat="37.82626320356897" lon="13.782878260001318"><ele>815.0</ele><time>2026-04-30T11:25:58.001Z</time></trkpt><trkpt lat="37.82623763969677" lon="13.782666568491432"><ele>815.0</ele><time>2026-04-30T11:25:59.001Z</time></trkpt><trkpt lat="37.82621918855785" lon="13.782450971758795"><ele>817.0</ele><time>2026-04-30T11:26:00.001Z</time></trkpt><trkpt lat="37.82620015060022" lon="13.78223389564901"><ele>819.0</ele><time>2026-04-30T11:26:01.001Z</time></trkpt><trkpt lat="37.82617347096991" lon="13.78201743531403"><ele>821.0</ele><time>2026-04-30T11:26:02.001Z</time></trkpt><trkpt lat="37.82613759881461" lon="13.781811698275611"><ele>822.5</ele><time>2026-04-30T11:26:03.001Z</time></trkpt><trkpt lat="37.826095226908926" lon="13.781639344926363"><ele>824.0</ele><time>2026-04-30T11:26:04.001Z</time></trkpt><trkpt lat="37.82604942918503" lon="13.781476582861117"><ele>825.5</ele><time>2026-04-30T11:26:05.001Z</time></trkpt><trkpt lat="37.82601968862879" lon="13.781314052439583"><ele>827.0</ele><time>2026-04-30T11:26:06.001Z</time></trkpt><trkpt lat="37.8260113971038" lon="13.781166606486424"><ele>827.0</ele><time>2026-04-30T11:26:07.001Z</time></trkpt><trkpt lat="37.82602644643998" lon="13.781028468188424"><ele>827.0</ele><time>2026-04-30T11:26:08.001Z</time></trkpt><trkpt lat="37.82602955743732" lon="13.780889534554728"><ele>827.0</ele><time>2026-04-30T11:26:09.001Z</time></trkpt><trkpt lat="37.826012423162396" lon="13.780752984115765"><ele>827.0</ele><time>2026-04-30T11:26:10.001Z</time></trkpt><trkpt lat="37.82598247535165" lon="13.780611848451155"><ele>827.0</ele><time>2026-04-30T11:26:11.001Z</time></trkpt><trkpt lat="37.82596021844291" lon="13.78046468997609"><ele>825.75</ele><time>2026-04-30T11:26:12.001Z</time></trkpt><trkpt lat="37.82595055712205" lon="13.7803146750307"><ele>824.5</ele><time>2026-04-30T11:26:13.001Z</time></trkpt><trkpt lat="37.82595385756022" lon="13.780163611395556"><ele>823.25</ele><time>2026-04-30T11:26:14.001Z</time></trkpt><trkpt lat="37.82597333336029" lon="13.78001579151739"><ele>822.0</ele><time>2026-04-30T11:26:15.001Z</time></trkpt><trkpt lat="37.8260078643251" lon="13.779873809319431"><ele>818.0</ele><time>2026-04-30T11:26:16.001Z</time></trkpt><trkpt lat="37.82606623354898" lon="13.779734442737375"><ele>814.0</ele><time>2026-04-30T11:26:17.001Z</time></trkpt><trkpt lat="37.82614331943103" lon="13.779611688705765"><ele>810.0</ele><time>2026-04-30T11:26:18.001Z</time></trkpt><trkpt lat="37.82622676778022" lon="13.779519133565246"><ele>806.0</ele><time>2026-04-30T11:26:19.001Z</time></trkpt><trkpt lat="37.826332054248184" lon="13.779445170659299"><ele>806.0</ele><time>2026-04-30T11:26:20.001Z</time></trkpt><trkpt lat="37.82644329264227" lon="13.779398204225936"><ele>806.0</ele><time>2026-04-30T11:26:21.001Z</time></trkpt><trkpt lat="37.82654840469908" lon="13.779359445514897"><ele>806.0</ele><time>2026-04-30T11:26:22.001Z</time></trkpt><trkpt lat="37.82665071722443" lon="13.779327372101907"><ele>806.0</ele><time>2026-04-30T11:26:23.001Z</time></trkpt><trkpt lat="37.82675811820621" lon="13.779309298726652"><ele>806.0</ele><time>2026-04-30T11:26:24.001Z</time></trkpt><trkpt lat="37.82687485561661" lon="13.779308508890896"><ele>800.1999999999999</ele><time>2026-04-30T11:26:25.001Z</time></trkpt><trkpt lat="37.82697956223725" lon="13.779329298900057"><ele>794.4</ele><time>2026-04-30T11:26:26.001Z</time></trkpt><trkpt lat="37.82708053835062" lon="13.779347081782042"><ele>788.6</ele><time>2026-04-30T11:26:27.001Z</time></trkpt><trkpt lat="37.827188665975484" lon="13.779350286121728"><ele>782.8</ele><time>2026-04-30T11:26:28.001Z</time></trkpt><trkpt lat="37.827301833769596" lon="13.779338204170218"><ele>777.0</ele><time>2026-04-30T11:26:29.001Z</time></trkpt><trkpt lat="37.827421030396934" lon="13.779321540265071"><ele>777.0</ele><time>2026-04-30T11:26:30.001Z</time></trkpt><trkpt lat="37.82753393750354" lon="13.779302695117124"><ele>777.0</ele><time>2026-04-30T11:26:31.001Z</time></trkpt><trkpt lat="37.82764171058793" lon="13.779275719489789"><ele>777.0</ele><time>2026-04-30T11:26:32.001Z</time></trkpt><trkpt lat="37.82773895845747" lon="13.779223503724353"><ele>777.0</ele><time>2026-04-30T11:26:33.001Z</time></trkpt><trkpt lat="37.827824959359205" lon="13.779141499520483"><ele>777.0</ele><time>2026-04-30T11:26:34.001Z</time></trkpt><trkpt lat="37.827898846137465" lon="13.779035955197088"><ele>775.75</ele><time>2026-04-30T11:26:35.001Z</time></trkpt><trkpt lat="37.82797107212258" lon="13.778908162695943"><ele>774.5</ele><time>2026-04-30T11:26:36.001Z</time></trkpt><trkpt lat="37.828049037119776" lon="13.778774561905985"><ele>773.25</ele><time>2026-04-30T11:26:37.001Z</time></trkpt><trkpt lat="37.82813404924966" lon="13.778635592595576"><ele>772.0</ele><time>2026-04-30T11:26:38.001Z</time></trkpt><trkpt lat="37.82822308543197" lon="13.778503592152441"><ele>770.75</ele><time>2026-04-30T11:26:39.001Z</time></trkpt><trkpt lat="37.828313922517786" lon="13.778375545690624"><ele>769.5</ele><time>2026-04-30T11:26:40.001Z</time></trkpt><trkpt lat="37.82839832356067" lon="13.778252816775543"><ele>768.25</ele><time>2026-04-30T11:26:41.001Z</time></trkpt><trkpt lat="37.82848163281311" lon="13.778135063626742"><ele>767.0</ele><time>2026-04-30T11:26:42.001Z</time></trkpt><trkpt lat="37.828566700236955" lon="13.778015982451093"><ele>767.0</ele><time>2026-04-30T11:26:43.001Z</time></trkpt><trkpt lat="37.828649270189246" lon="13.777901393504635"><ele>767.0</ele><time>2026-04-30T11:26:44.001Z</time></trkpt><trkpt lat="37.82872957015777" lon="13.777790886110884"><ele>767.0</ele><time>2026-04-30T11:26:45.001Z</time></trkpt><trkpt lat="37.82881633835277" lon="13.777694705603581"><ele>767.0</ele><time>2026-04-30T11:26:46.001Z</time></trkpt><trkpt lat="37.82890570676063" lon="13.777618390406099"><ele>763.8</ele><time>2026-04-30T11:26:47.001Z</time></trkpt><trkpt lat="37.828992606061256" lon="13.777564152901087"><ele>760.6</ele><time>2026-04-30T11:26:48.001Z</time></trkpt><trkpt lat="37.829084196530104" lon="13.77752297664512"><ele>757.4</ele><time>2026-04-30T11:26:49.001Z</time></trkpt><trkpt lat="37.829176994310295" lon="13.7775008322431"><ele>754.1999999999999</ele><time>2026-04-30T11:26:50.001Z</time></trkpt><trkpt lat="37.829272721450174" lon="13.77751039679369"><ele>751.0</ele><time>2026-04-30T11:26:51.001Z</time></trkpt><trkpt lat="37.82937442110553" lon="13.777515480435051"><ele>750.5</ele><time>2026-04-30T11:26:52.001Z</time></trkpt><trkpt lat="37.82947767423816" lon="13.777476463597784"><ele>750.0</ele><time>2026-04-30T11:26:53.001Z</time></trkpt><trkpt lat="37.82957591523478" lon="13.777390939454092"><ele>749.5</ele><time>2026-04-30T11:26:54.001Z</time></trkpt><trkpt lat="37.82967173845536" lon="13.777286128616202"><ele>749.0</ele><time>2026-04-30T11:26:55.001Z</time></trkpt><trkpt lat="37.82976783300413" lon="13.777184247380525"><ele>749.0</ele><time>2026-04-30T11:26:56.001Z</time></trkpt><trkpt lat="37.8298645184079" lon="13.777077476619416"><ele>749.0</ele><time>2026-04-30T11:26:57.001Z</time></trkpt><trkpt lat="37.82995880111034" lon="13.776950327993438"><ele>749.0</ele><time>2026-04-30T11:26:58.001Z</time></trkpt><trkpt lat="37.83004879469483" lon="13.776814418856151"><ele>749.0</ele><time>2026-04-30T11:26:59.001Z</time></trkpt><trkpt lat="37.83013009989582" lon="13.776672164254983"><ele>749.0</ele><time>2026-04-30T11:27:00.001Z</time></trkpt><trkpt lat="37.83019942293378" lon="13.776505727802698"><ele>749.0</ele><time>2026-04-30T11:27:01.001Z</time></trkpt><trkpt lat="37.83024858241396" lon="13.776355599356386"><ele>749.0</ele><time>2026-04-30T11:27:02.001Z</time></trkpt><trkpt lat="37.830269360782225" lon="13.776222767281391"><ele>749.0</ele><time>2026-04-30T11:27:03.001Z</time></trkpt><trkpt lat="37.83025645118993" lon="13.776104598462519"><ele>746.25</ele><time>2026-04-30T11:27:04.001Z</time></trkpt><trkpt lat="37.83020827203335" lon="13.775991661570204"><ele>743.5</ele><time>2026-04-30T11:27:05.001Z</time></trkpt><trkpt lat="37.830127967449314" lon="13.775866846750137"><ele>740.75</ele><time>2026-04-30T11:27:06.001Z</time></trkpt><trkpt lat="37.8300322322399" lon="13.775727745980994"><ele>738.0</ele><time>2026-04-30T11:27:07.001Z</time></trkpt><trkpt lat="37.82995685264195" lon="13.775581176547423"><ele>734.75</ele><time>2026-04-30T11:27:08.001Z</time></trkpt><trkpt lat="37.829906721632476" lon="13.775427284840715"><ele>731.5</ele><time>2026-04-30T11:27:09.001Z</time></trkpt><trkpt lat="37.829866084776555" lon="13.775279300192771"><ele>728.25</ele><time>2026-04-30T11:27:10.001Z</time></trkpt><trkpt lat="37.829826128719894" lon="13.77513880818722"><ele>725.0</ele><time>2026-04-30T11:27:11.001Z</time></trkpt><trkpt lat="37.82979551826634" lon="13.774994064126219"><ele>723.5</ele><time>2026-04-30T11:27:12.001Z</time></trkpt><trkpt lat="37.82978069325268" lon="13.774841777213032"><ele>722.0</ele><time>2026-04-30T11:27:13.001Z</time></trkpt><trkpt lat="37.82976162463432" lon="13.774691078472696"><ele>720.5</ele><time>2026-04-30T11:27:14.001Z</time></trkpt><trkpt lat="37.82971832207872" lon="13.774540994243793"><ele>719.0</ele><time>2026-04-30T11:27:15.001Z</time></trkpt><trkpt lat="37.82966706610984" lon="13.774397747020338"><ele>718.0</ele><time>2026-04-30T11:27:16.001Z</time></trkpt><trkpt lat="37.82960708313799" lon="13.774241072104132"><ele>717.0</ele><time>2026-04-30T11:27:17.001Z</time></trkpt><trkpt lat="37.829545472369944" lon="13.77406671400495"><ele>716.0</ele><time>2026-04-30T11:27:18.001Z</time></trkpt><trkpt lat="37.8294794112564" lon="13.7738808576106"><ele>715.0</ele><time>2026-04-30T11:27:19.001Z</time></trkpt><trkpt lat="37.82941595642503" lon="13.773710027187787"><ele>715.0</ele><time>2026-04-30T11:27:20.001Z</time></trkpt><trkpt lat="37.829355942115676" lon="13.773549036218224"><ele>715.0</ele><time>2026-04-30T11:27:21.001Z</time></trkpt><trkpt lat="37.82929890698851" lon="13.77339559772064"><ele>715.0</ele><time>2026-04-30T11:27:22.001Z</time></trkpt><trkpt lat="37.82924300258208" lon="13.773251533357698"><ele>715.0</ele><time>2026-04-30T11:27:23.001Z</time></trkpt><trkpt lat="37.82918605234721" lon="13.773120326638068"><ele>711.25</ele><time>2026-04-30T11:27:24.001Z</time></trkpt><trkpt lat="37.829133271842586" lon="13.77299014377861"><ele>707.5</ele><time>2026-04-30T11:27:25.001Z</time></trkpt><trkpt lat="37.829092189314196" lon="13.772852592296326"><ele>703.75</ele><time>2026-04-30T11:27:26.001Z</time></trkpt><trkpt lat="37.82906792703796" lon="13.772703310956619"><ele>700.0</ele><time>2026-04-30T11:27:27.001Z</time></trkpt><trkpt lat="37.829064689527314" lon="13.772548107217439"><ele>699.0</ele><time>2026-04-30T11:27:28.001Z</time></trkpt><trkpt lat="37.8290789706905" lon="13.772393072331354"><ele>698.0</ele><time>2026-04-30T11:27:29.001Z</time></trkpt><trkpt lat="37.82909908698432" lon="13.772245280730408"><ele>697.0</ele><time>2026-04-30T11:27:30.001Z</time></trkpt><trkpt lat="37.82911877315412" lon="13.772129024278485"><ele>696.0</ele><time>2026-04-30T11:27:31.001Z</time></trkpt><trkpt lat="37.82917877501637" lon="13.772008713640915"><ele>695.0</ele><time>2026-04-30T11:27:33.001Z</time></trkpt><trkpt lat="37.829249738640975" lon="13.771990554942628"><ele>695.6</ele><time>2026-04-30T11:27:34.001Z</time></trkpt><trkpt lat="37.82933550554525" lon="13.772014065122406"><ele>696.2</ele><time>2026-04-30T11:27:35.001Z</time></trkpt><trkpt lat="37.82942065253194" lon="13.772034672529525"><ele>696.8</ele><time>2026-04-30T11:27:36.001Z</time></trkpt><trkpt lat="37.82951380237549" lon="13.771997375409734"><ele>697.4</ele><time>2026-04-30T11:27:37.001Z</time></trkpt><trkpt lat="37.829597897384254" lon="13.771897846616353"><ele>698.0</ele><time>2026-04-30T11:27:38.001Z</time></trkpt><trkpt lat="37.82967335116128" lon="13.771771220346142"><ele>692.75</ele><time>2026-04-30T11:27:39.001Z</time></trkpt><trkpt lat="37.829750115774004" lon="13.771647147164892"><ele>687.5</ele><time>2026-04-30T11:27:40.001Z</time></trkpt><trkpt lat="37.829828195731494" lon="13.771529200655346"><ele>682.25</ele><time>2026-04-30T11:27:41.001Z</time></trkpt><trkpt lat="37.82990788332898" lon="13.77141205765403"><ele>677.0</ele><time>2026-04-30T11:27:42.001Z</time></trkpt><trkpt lat="37.82998416619388" lon="13.771281348922873"><ele>677.0</ele><time>2026-04-30T11:27:43.001Z</time></trkpt><trkpt lat="37.830044357468005" lon="13.771142782682542"><ele>677.0</ele><time>2026-04-30T11:27:44.001Z</time></trkpt><trkpt lat="37.83008707376639" lon="13.771006015512965"><ele>677.0</ele><time>2026-04-30T11:27:45.001Z</time></trkpt><trkpt lat="37.83012372700364" lon="13.77088387054309"><ele>677.0</ele><time>2026-04-30T11:27:46.001Z</time></trkpt><trkpt lat="37.83017598949676" lon="13.770782356048779"><ele>677.0</ele><time>2026-04-30T11:27:47.001Z</time></trkpt><trkpt lat="37.830253202458174" lon="13.770714922699877"><ele>673.2</ele><time>2026-04-30T11:27:48.001Z</time></trkpt><trkpt lat="37.830354948504414" lon="13.770687832370694"><ele>669.4000000000001</ele><time>2026-04-30T11:27:49.001Z</time></trkpt><trkpt lat="37.83046308440536" lon="13.770680594721872"><ele>665.5999999999999</ele><time>2026-04-30T11:27:50.001Z</time></trkpt><trkpt lat="37.83057090624896" lon="13.770654221263385"><ele>661.8</ele><time>2026-04-30T11:27:51.001Z</time></trkpt><trkpt lat="37.83067859375747" lon="13.770604359115454"><ele>658.0</ele><time>2026-04-30T11:27:52.001Z</time></trkpt><trkpt lat="37.830780892621256" lon="13.770517785877773"><ele>658.0</ele><time>2026-04-30T11:27:53.001Z</time></trkpt><trkpt lat="37.830869669600986" lon="13.770400475190298"><ele>658.0</ele><time>2026-04-30T11:27:54.001Z</time></trkpt><trkpt lat="37.830940178298476" lon="13.77026076021709"><ele>658.0</ele><time>2026-04-30T11:27:55.001Z</time></trkpt><trkpt lat="37.8310172460889" lon="13.770125172381407"><ele>658.0</ele><time>2026-04-30T11:27:56.001Z</time></trkpt><trkpt lat="37.83110781185779" lon="13.769999193147065"><ele>653.5</ele><time>2026-04-30T11:27:57.001Z</time></trkpt><trkpt lat="37.83120525871272" lon="13.769878672457144"><ele>649.0</ele><time>2026-04-30T11:27:58.001Z</time></trkpt><trkpt lat="37.83130750293626" lon="13.76976371865166"><ele>644.5</ele><time>2026-04-30T11:27:59.001Z</time></trkpt><trkpt lat="37.83140809298823" lon="13.769665715186616"><ele>640.0</ele><time>2026-04-30T11:28:00.001Z</time></trkpt><trkpt lat="37.83149578411698" lon="13.769603352587364"><ele>640.0</ele><time>2026-04-30T11:28:01.001Z</time></trkpt><trkpt lat="37.831567676928195" lon="13.769559090647157"><ele>640.0</ele><time>2026-04-30T11:28:02.001Z</time></trkpt><trkpt lat="37.8316275058322" lon="13.76952391476456"><ele>640.0</ele><time>2026-04-30T11:28:03.001Z</time></trkpt><trkpt lat="37.83169972750652" lon="13.769485444724864"><ele>640.0</ele><time>2026-04-30T11:28:05.001Z</time></trkpt><trkpt lat="37.83178763318372" lon="13.769421888884189"><ele>640.0</ele><time>2026-04-30T11:28:26.001Z</time></trkpt><trkpt lat="37.83187192647577" lon="13.769368309401862"><ele>640.0</ele><time>2026-04-30T11:28:28.001Z</time></trkpt><trkpt lat="37.83192465380427" lon="13.76931412259886"><ele>640.6666666666667</ele><time>2026-04-30T11:28:29.001Z</time></trkpt><trkpt lat="37.831994319826165" lon="13.76925181068092"><ele>641.3333333333334</ele><time>2026-04-30T11:28:30.001Z</time></trkpt><trkpt lat="37.83207830313047" lon="13.769174855801598"><ele>642.0</ele><time>2026-04-30T11:28:31.001Z</time></trkpt><trkpt lat="37.8321561973756" lon="13.769119259531037"><ele>642.6666666666666</ele><time>2026-04-30T11:28:32.001Z</time></trkpt><trkpt lat="37.83222629787112" lon="13.76908099082396"><ele>643.3333333333333</ele><time>2026-04-30T11:28:33.001Z</time></trkpt><trkpt lat="37.83228562679816" lon="13.769035598015241"><ele>644.0</ele><time>2026-04-30T11:28:34.001Z</time></trkpt><trkpt lat="37.832325388561515" lon="13.768973444312552"><ele>644.0</ele><time>2026-04-30T11:28:35.001Z</time></trkpt><trkpt lat="37.83236631375497" lon="13.768906437370642"><ele>644.0</ele><time>2026-04-30T11:28:36.001Z</time></trkpt><trkpt lat="37.83243293445076" lon="13.768832255701557"><ele>644.0</ele><time>2026-04-30T11:28:37.001Z</time></trkpt><trkpt lat="37.83249765080758" lon="13.768775527526703"><ele>644.0</ele><time>2026-04-30T11:28:38.001Z</time></trkpt><trkpt lat="37.83260211088256" lon="13.76874364011011"><ele>644.0</ele><time>2026-04-30T11:28:40.001Z</time></trkpt><trkpt lat="37.83266530489864" lon="13.76875256438263"><ele>644.0</ele><time>2026-04-30T11:28:41.001Z</time></trkpt><trkpt lat="37.83272999840415" lon="13.768735429766258"><ele>643.8333333333333</ele><time>2026-04-30T11:28:43.001Z</time></trkpt><trkpt lat="37.83278597141748" lon="13.768657398405384"><ele>643.6666666666666</ele><time>2026-04-30T11:28:46.001Z</time></trkpt><trkpt lat="37.832836132855995" lon="13.768584857233728"><ele>643.5</ele><time>2026-04-30T11:29:03.001Z</time></trkpt><trkpt lat="37.83289365872525" lon="13.768515852589676"><ele>643.3333333333334</ele><time>2026-04-30T11:29:07.001Z</time></trkpt><trkpt lat="37.832946526994306" lon="13.768455872275231"><ele>643.1666666666667</ele><time>2026-04-30T11:29:10.001Z</time></trkpt><trkpt lat="37.83299590408503" lon="13.768406295005803"><ele>643.0</ele><time>2026-04-30T11:29:13.001Z</time></trkpt><trkpt lat="37.83306870734718" lon="13.768345040515133"><ele>643.0</ele><time>2026-04-30T11:29:16.001Z</time></trkpt><trkpt lat="37.833129998893845" lon="13.768298209860948"><ele>643.0</ele><time>2026-04-30T11:29:18.001Z</time></trkpt><trkpt lat="37.83319686348337" lon="13.76824978792153"><ele>643.0</ele><time>2026-04-30T11:29:20.001Z</time></trkpt><trkpt lat="37.83328258346806" lon="13.76818572835697"><ele>643.0</ele><time>2026-04-30T11:29:22.001Z</time></trkpt><trkpt lat="37.833351952840545" lon="13.768085191674734"><ele>643.0</ele><time>2026-04-30T11:29:24.001Z</time></trkpt><trkpt lat="37.83341884053438" lon="13.7679436102385"><ele>643.0</ele><time>2026-04-30T11:29:26.001Z</time></trkpt><trkpt lat="37.8334581228569" lon="13.767865607502825"><ele>643.0</ele><time>2026-04-30T11:29:27.001Z</time></trkpt><trkpt lat="37.83349076260296" lon="13.767793673557204"><ele>643.0</ele><time>2026-04-30T11:29:28.001Z</time></trkpt><trkpt lat="37.8335194242405" lon="13.767718290568041"><ele>643.0</ele><time>2026-04-30T11:29:29.001Z</time></trkpt><trkpt lat="37.83354730591515" lon="13.76763969720204"><ele>643.0</ele><time>2026-04-30T11:29:30.001Z</time></trkpt><trkpt lat="37.833577003762976" lon="13.767566401175328"><ele>643.0</ele><time>2026-04-30T11:29:31.001Z</time></trkpt><trkpt lat="37.833667595489764" lon="13.76746594541141"><ele>643.4285714285714</ele><time>2026-04-30T11:29:33.001Z</time></trkpt><trkpt lat="37.833730036186" lon="13.767440358879954"><ele>643.8571428571429</ele><time>2026-04-30T11:29:34.001Z</time></trkpt><trkpt lat="37.833797167584144" lon="13.767406672231546"><ele>644.2857142857143</ele><time>2026-04-30T11:29:35.001Z</time></trkpt><trkpt lat="37.8338646725964" lon="13.767361047414012"><ele>644.7142857142858</ele><time>2026-04-30T11:29:36.001Z</time></trkpt><trkpt lat="37.8339319785946" lon="13.767308775657682"><ele>645.1428571428571</ele><time>2026-04-30T11:29:37.001Z</time></trkpt><trkpt lat="37.833998069115054" lon="13.76724704887222"><ele>645.5714285714287</ele><time>2026-04-30T11:29:38.001Z</time></trkpt><trkpt lat="37.83405600877514" lon="13.767191422668798"><ele>646.0</ele><time>2026-04-30T11:29:39.001Z</time></trkpt><trkpt lat="37.83411197574155" lon="13.767129638345134"><ele>646.0</ele><time>2026-04-30T11:29:40.001Z</time></trkpt><trkpt lat="37.8341702884963" lon="13.767068751203858"><ele>646.0</ele><time>2026-04-30T11:29:41.001Z</time></trkpt><trkpt lat="37.83422565752758" lon="13.767013832291413"><ele>646.0</ele><time>2026-04-30T11:29:42.001Z</time></trkpt><trkpt lat="37.834286581035585" lon="13.766973264308783"><ele>646.0</ele><time>2026-04-30T11:29:43.001Z</time></trkpt><trkpt lat="37.8343552836046" lon="13.766947162288348"><ele>646.0</ele><time>2026-04-30T11:29:44.001Z</time></trkpt><trkpt lat="37.83443306236647" lon="13.766936281617362"><ele>646.0</ele><time>2026-04-30T11:29:45.001Z</time></trkpt><trkpt lat="37.834521556081754" lon="13.76693281694243"><ele>647.0</ele><time>2026-04-30T11:29:46.001Z</time></trkpt><trkpt lat="37.83460345067375" lon="13.766934926268481"><ele>648.0</ele><time>2026-04-30T11:29:47.001Z</time></trkpt><trkpt lat="37.834691713563544" lon="13.766921700971386"><ele>649.0</ele><time>2026-04-30T11:29:48.001Z</time></trkpt><trkpt lat="37.83478832418312" lon="13.766891049269395"><ele>650.0</ele><time>2026-04-30T11:29:49.001Z</time></trkpt><trkpt lat="37.834885928199476" lon="13.766870857978617"><ele>651.0</ele><time>2026-04-30T11:29:50.001Z</time></trkpt><trkpt lat="37.83498376858705" lon="13.766867795158783"><ele>651.0</ele><time>2026-04-30T11:29:51.001Z</time></trkpt><trkpt lat="37.83507791244312" lon="13.766873284426435"><ele>651.0</ele><time>2026-04-30T11:29:52.001Z</time></trkpt><trkpt lat="37.8351724404764" lon="13.766879232294013"><ele>651.0</ele><time>2026-04-30T11:29:53.001Z</time></trkpt><trkpt lat="37.83526294412894" lon="13.766884142132602"><ele>651.0</ele><time>2026-04-30T11:29:54.001Z</time></trkpt><trkpt lat="37.83535132651996" lon="13.766893816150708"><ele>651.0</ele><time>2026-04-30T11:29:55.001Z</time></trkpt><trkpt lat="37.83543395736908" lon="13.766903514975715"><ele>650.3333333333334</ele><time>2026-04-30T11:29:56.001Z</time></trkpt><trkpt lat="37.8355124242788" lon="13.76690955616801"><ele>649.6666666666666</ele><time>2026-04-30T11:29:57.001Z</time></trkpt><trkpt lat="37.83559695492948" lon="13.76692276654562"><ele>649.0</ele><time>2026-04-30T11:29:58.001Z</time></trkpt><trkpt lat="37.83567001022309" lon="13.766937637561808"><ele>648.3333333333333</ele><time>2026-04-30T11:29:59.001Z</time></trkpt><trkpt lat="37.83575457218006" lon="13.766894796198251"><ele>647.6666666666666</ele><time>2026-04-30T11:30:01.001Z</time></trkpt><trkpt lat="37.83576638170933" lon="13.766746812835013"><ele>647.0</ele><time>2026-04-30T11:30:03.001Z</time></trkpt><trkpt lat="37.8357830726757" lon="13.766656187634911"><ele>646.0</ele><time>2026-04-30T11:30:04.001Z</time></trkpt><trkpt lat="37.83581700413158" lon="13.766560211682053"><ele>645.0</ele><time>2026-04-30T11:30:05.001Z</time></trkpt><trkpt lat="37.83586013011144" lon="13.766479055324696"><ele>644.0</ele><time>2026-04-30T11:30:06.001Z</time></trkpt><trkpt lat="37.83589947799563" lon="13.766398345022239"><ele>643.0</ele><time>2026-04-30T11:30:07.001Z</time></trkpt><trkpt lat="37.835942354015536" lon="13.766321359862742"><ele>642.0</ele><time>2026-04-30T11:30:08.001Z</time></trkpt><trkpt lat="37.83599910151009" lon="13.766266862047063"><ele>641.0</ele><time>2026-04-30T11:30:09.001Z</time></trkpt><trkpt lat="37.836059473220914" lon="13.766219274831197"><ele>641.0</ele><time>2026-04-30T11:30:10.001Z</time></trkpt><trkpt lat="37.83612324171103" lon="13.766168039134735"><ele>641.0</ele><time>2026-04-30T11:30:11.001Z</time></trkpt><trkpt lat="37.8361942447947" lon="13.766112623121662"><ele>641.0</ele><time>2026-04-30T11:30:12.001Z</time></trkpt><trkpt lat="37.836279567559586" lon="13.766041002790516"><ele>641.0</ele><time>2026-04-30T11:30:13.001Z</time></trkpt><trkpt lat="37.83636018341679" lon="13.765993408834888"><ele>641.0</ele><time>2026-04-30T11:30:14.001Z</time></trkpt><trkpt lat="37.83644112108849" lon="13.765937844808766"><ele>641.0</ele><time>2026-04-30T11:30:15.001Z</time></trkpt><trkpt lat="37.836515229193374" lon="13.765885543645357"><ele>637.8333333333333</ele><time>2026-04-30T11:30:16.001Z</time></trkpt><trkpt lat="37.83656666571726" lon="13.765812454530964"><ele>634.6666666666666</ele><time>2026-04-30T11:30:17.001Z</time></trkpt><trkpt lat="37.83660506131841" lon="13.765711305926942"><ele>631.5</ele><time>2026-04-30T11:30:18.001Z</time></trkpt><trkpt lat="37.836644968208645" lon="13.765616343382723"><ele>628.3333333333334</ele><time>2026-04-30T11:30:19.001Z</time></trkpt><trkpt lat="37.83668118063078" lon="13.765523322066562"><ele>625.1666666666667</ele><time>2026-04-30T11:30:20.001Z</time></trkpt><trkpt lat="37.83671045239981" lon="13.76543268859365"><ele>622.0</ele><time>2026-04-30T11:30:21.001Z</time></trkpt><trkpt lat="37.836741343440956" lon="13.765346854851389"><ele>622.0</ele><time>2026-04-30T11:30:22.001Z</time></trkpt><trkpt lat="37.836782173692335" lon="13.765268123481405"><ele>622.0</ele><time>2026-04-30T11:30:23.001Z</time></trkpt><trkpt lat="37.836819533603304" lon="13.765190901361901"><ele>622.0</ele><time>2026-04-30T11:30:24.001Z</time></trkpt><trkpt lat="37.83684964219706" lon="13.765111027171336"><ele>622.0</ele><time>2026-04-30T11:30:25.001Z</time></trkpt><trkpt lat="37.83690479647198" lon="13.764977231911509"><ele>622.0</ele><time>2026-04-30T11:30:27.001Z</time></trkpt><trkpt lat="37.836959840727864" lon="13.764937007579663"><ele>622.0</ele><time>2026-04-30T11:30:28.001Z</time></trkpt><trkpt lat="37.83702343382989" lon="13.764912041192597"><ele>619.8333333333334</ele><time>2026-04-30T11:30:29.001Z</time></trkpt><trkpt lat="37.83709409828148" lon="13.76489405847131"><ele>617.6666666666667</ele><time>2026-04-30T11:30:30.001Z</time></trkpt><trkpt lat="37.837173682365346" lon="13.764888515394537"><ele>615.5</ele><time>2026-04-30T11:30:31.001Z</time></trkpt><trkpt lat="37.83726098568767" lon="13.764876385225863"><ele>613.3333333333334</ele><time>2026-04-30T11:30:32.001Z</time></trkpt><trkpt lat="37.83735798074572" lon="13.764862977839211"><ele>611.1666666666666</ele><time>2026-04-30T11:30:33.001Z</time></trkpt><trkpt lat="37.83745947313057" lon="13.76484658545919"><ele>609.0</ele><time>2026-04-30T11:30:34.001Z</time></trkpt><trkpt lat="37.83755935921322" lon="13.76482356848476"><ele>609.0</ele><time>2026-04-30T11:30:35.001Z</time></trkpt><trkpt lat="37.837652710941285" lon="13.76479559761203"><ele>609.0</ele><time>2026-04-30T11:30:36.001Z</time></trkpt><trkpt lat="37.83774744292152" lon="13.764769103822015"><ele>609.0</ele><time>2026-04-30T11:30:37.001Z</time></trkpt><trkpt lat="37.837833338323975" lon="13.764744517917903"><ele>609.0</ele><time>2026-04-30T11:30:38.001Z</time></trkpt><trkpt lat="37.837913801656654" lon="13.764708904025746"><ele>609.0</ele><time>2026-04-30T11:30:39.001Z</time></trkpt><trkpt lat="37.83799115299952" lon="13.764659274249288"><ele>609.0</ele><time>2026-04-30T11:30:40.001Z</time></trkpt><trkpt lat="37.8380627010961" lon="13.764606047272563"><ele>609.0</ele><time>2026-04-30T11:30:41.001Z</time></trkpt><trkpt lat="37.838132168195315" lon="13.76454760076702"><ele>609.0</ele><time>2026-04-30T11:30:42.001Z</time></trkpt><trkpt lat="37.83819909134395" lon="13.764485074256983"><ele>609.0</ele><time>2026-04-30T11:30:43.001Z</time></trkpt><trkpt lat="37.83826305691413" lon="13.764414932140777"><ele>609.0</ele><time>2026-04-30T11:30:44.001Z</time></trkpt><trkpt lat="37.838324730792806" lon="13.76434541604022"><ele>609.0</ele><time>2026-04-30T11:30:45.001Z</time></trkpt><trkpt lat="37.83838565294422" lon="13.764281726422494"><ele>607.1666666666666</ele><time>2026-04-30T11:30:46.001Z</time></trkpt><trkpt lat="37.83845343567872" lon="13.764220041014399"><ele>605.3333333333334</ele><time>2026-04-30T11:30:47.001Z</time></trkpt><trkpt lat="37.83852573731181" lon="13.764161315845955"><ele>603.5</ele><time>2026-04-30T11:30:48.001Z</time></trkpt><trkpt lat="37.83859937116325" lon="13.764103013026903"><ele>601.6666666666667</ele><time>2026-04-30T11:30:49.001Z</time></trkpt><trkpt lat="37.83867168721813" lon="13.764039124668242"><ele>599.8333333333334</ele><time>2026-04-30T11:30:50.001Z</time></trkpt><trkpt lat="37.83873139754091" lon="13.763956078563039"><ele>598.0</ele><time>2026-04-30T11:30:51.001Z</time></trkpt><trkpt lat="37.8387789565217" lon="13.763852003580547"><ele>598.0</ele><time>2026-04-30T11:30:52.001Z</time></trkpt><trkpt lat="37.83882665374663" lon="13.76375809305024"><ele>598.0</ele><time>2026-04-30T11:30:53.001Z</time></trkpt><trkpt lat="37.838881563305094" lon="13.763669358209146"><ele>598.0</ele><time>2026-04-30T11:30:54.001Z</time></trkpt><trkpt lat="37.83894079608984" lon="13.763584330542061"><ele>598.0</ele><time>2026-04-30T11:30:55.001Z</time></trkpt><trkpt lat="37.83899982985403" lon="13.763500455573825"><ele>598.0</ele><time>2026-04-30T11:30:56.001Z</time></trkpt><trkpt lat="37.83906084482092" lon="13.7634131215412"><ele>598.0</ele><time>2026-04-30T11:30:57.001Z</time></trkpt><trkpt lat="37.839126619352186" lon="13.76331972191332"><ele>595.6</ele><time>2026-04-30T11:30:58.001Z</time></trkpt><trkpt lat="37.839187590711695" lon="13.763219424882946"><ele>593.1999999999999</ele><time>2026-04-30T11:30:59.001Z</time></trkpt><trkpt lat="37.839234886230834" lon="13.763115748983836"><ele>590.8</ele><time>2026-04-30T11:31:00.001Z</time></trkpt><trkpt lat="37.8392693662812" lon="13.763009802543854"><ele>588.4</ele><time>2026-04-30T11:31:01.001Z</time></trkpt><trkpt lat="37.839293912197434" lon="13.762894539399834"><ele>586.0</ele><time>2026-04-30T11:31:02.001Z</time></trkpt><trkpt lat="37.83932951402615" lon="13.762791401983302"><ele>586.0</ele><time>2026-04-30T11:31:03.001Z</time></trkpt><trkpt lat="37.839366748279346" lon="13.76272226133877"><ele>586.0</ele><time>2026-04-30T11:31:04.001Z</time></trkpt><trkpt lat="37.83942073980999" lon="13.76266062282809"><ele>586.0</ele><time>2026-04-30T11:31:05.001Z</time></trkpt><trkpt lat="37.839496709353185" lon="13.762605865858312"><ele>586.0</ele><time>2026-04-30T11:31:06.001Z</time></trkpt><trkpt lat="37.83956904786331" lon="13.762552866902835"><ele>586.0</ele><time>2026-04-30T11:31:07.001Z</time></trkpt><trkpt lat="37.839629782593086" lon="13.762504240194355"><ele>586.0</ele><time>2026-04-30T11:31:08.001Z</time></trkpt><trkpt lat="37.8396921499205" lon="13.762463290159301"><ele>582.5</ele><time>2026-04-30T11:31:09.001Z</time></trkpt><trkpt lat="37.83976227297033" lon="13.76242798097567"><ele>579.0</ele><time>2026-04-30T11:31:10.001Z</time></trkpt><trkpt lat="37.839837964494585" lon="13.762408023747469"><ele>575.5</ele><time>2026-04-30T11:31:11.001Z</time></trkpt><trkpt lat="37.83992503564483" lon="13.76239781700351"><ele>572.0</ele><time>2026-04-30T11:31:12.001Z</time></trkpt><trkpt lat="37.84001311241054" lon="13.762396887161337"><ele>568.5</ele><time>2026-04-30T11:31:13.001Z</time></trkpt><trkpt lat="37.84009694684585" lon="13.762387293881481"><ele>565.0</ele><time>2026-04-30T11:31:14.001Z</time></trkpt><trkpt lat="37.840178429278524" lon="13.762353121872218"><ele>564.6666666666667</ele><time>2026-04-30T11:31:15.001Z</time></trkpt><trkpt lat="37.84025230642615" lon="13.762313535089461"><ele>564.3333333333334</ele><time>2026-04-30T11:31:16.001Z</time></trkpt><trkpt lat="37.840330955850625" lon="13.762268484336998"><ele>564.0</ele><time>2026-04-30T11:31:17.001Z</time></trkpt><trkpt lat="37.84041091200239" lon="13.762221960087022"><ele>563.6666666666666</ele><time>2026-04-30T11:31:18.001Z</time></trkpt><trkpt lat="37.84049250529207" lon="13.762177676277153"><ele>563.3333333333333</ele><time>2026-04-30T11:31:19.001Z</time></trkpt><trkpt lat="37.84057893571323" lon="13.762137792784106"><ele>563.0</ele><time>2026-04-30T11:31:20.001Z</time></trkpt><trkpt lat="37.84066792302318" lon="13.762097367901845"><ele>563.0</ele><time>2026-04-30T11:31:21.001Z</time></trkpt><trkpt lat="37.84075385176334" lon="13.762047929101914"><ele>563.0</ele><time>2026-04-30T11:31:22.001Z</time></trkpt><trkpt lat="37.8408307890176" lon="13.76199114517748"><ele>563.0</ele><time>2026-04-30T11:31:23.001Z</time></trkpt><trkpt lat="37.840893051672346" lon="13.76194076139652"><ele>563.0</ele><time>2026-04-30T11:31:24.001Z</time></trkpt><trkpt lat="37.840954843029614" lon="13.761903839051167"><ele>563.0</ele><time>2026-04-30T11:31:25.001Z</time></trkpt><trkpt lat="37.84103932666972" lon="13.761884216648353"><ele>563.0</ele><time>2026-04-30T11:31:26.001Z</time></trkpt><trkpt lat="37.84113831803772" lon="13.761866276365966"><ele>558.25</ele><time>2026-04-30T11:31:27.001Z</time></trkpt><trkpt lat="37.8412377252935" lon="13.761842238556985"><ele>553.5</ele><time>2026-04-30T11:31:28.001Z</time></trkpt><trkpt lat="37.84134456361969" lon="13.761819180787898"><ele>548.75</ele><time>2026-04-30T11:31:29.001Z</time></trkpt><trkpt lat="37.841483189873856" lon="13.761810733007923"><ele>544.0</ele><time>2026-04-30T11:31:30.001Z</time></trkpt><trkpt lat="37.84165293081776" lon="13.761809844205802"><ele>543.3333333333334</ele><time>2026-04-30T11:31:31.001Z</time></trkpt><trkpt lat="37.84182956913253" lon="13.761808026548048"><ele>542.6666666666666</ele><time>2026-04-30T11:31:32.001Z</time></trkpt><trkpt lat="37.84198930426376" lon="13.761804333197137"><ele>542.0</ele><time>2026-04-30T11:31:33.001Z</time></trkpt><trkpt lat="37.8421403943709" lon="13.76179685221965"><ele>542.0</ele><time>2026-04-30T11:31:34.001Z</time></trkpt><trkpt lat="37.842304370545556" lon="13.761793805409313"><ele>542.0</ele><time>2026-04-30T11:31:35.001Z</time></trkpt><trkpt lat="37.84249164232715" lon="13.76179526571239"><ele>542.0</ele><time>2026-04-30T11:31:36.001Z</time></trkpt><trkpt lat="37.84266607445438" lon="13.761797629715733"><ele>541.0</ele><time>2026-04-30T11:31:37.001Z</time></trkpt><trkpt lat="37.84282255112175" lon="13.761802048981618"><ele>540.0</ele><time>2026-04-30T11:31:38.001Z</time></trkpt><trkpt lat="37.84296524378665" lon="13.76181336439296"><ele>539.0</ele><time>2026-04-30T11:31:39.001Z</time></trkpt><trkpt lat="37.843098729912285" lon="13.761838752355407"><ele>538.0</ele><time>2026-04-30T11:31:40.001Z</time></trkpt><trkpt lat="37.84322762463665" lon="13.761882723457841"><ele>540.0</ele><time>2026-04-30T11:31:41.001Z</time></trkpt><trkpt lat="37.84336307102876" lon="13.761940101190776"><ele>542.0</ele><time>2026-04-30T11:31:42.001Z</time></trkpt><trkpt lat="37.84349382521232" lon="13.761995116349551"><ele>544.0</ele><time>2026-04-30T11:31:43.001Z</time></trkpt><trkpt lat="37.84362130923819" lon="13.762043525510029"><ele>546.0</ele><time>2026-04-30T11:31:44.001Z</time></trkpt><trkpt lat="37.84374131547563" lon="13.762080042507444"><ele>546.0</ele><time>2026-04-30T11:31:45.001Z</time></trkpt><trkpt lat="37.84385388968317" lon="13.762116886772601"><ele>546.0</ele><time>2026-04-30T11:31:46.001Z</time></trkpt><trkpt lat="37.84395621198398" lon="13.762161066546348"><ele>546.0</ele><time>2026-04-30T11:31:47.001Z</time></trkpt><trkpt lat="37.84406673153336" lon="13.76216981050222"><ele>546.0</ele><time>2026-04-30T11:31:48.001Z</time></trkpt><trkpt lat="37.8441833699507" lon="13.762146238237953"><ele>546.0</ele><time>2026-04-30T11:31:49.001Z</time></trkpt><trkpt lat="37.84429341680795" lon="13.762071286545314"><ele>546.0</ele><time>2026-04-30T11:31:50.001Z</time></trkpt><trkpt lat="37.844392331808635" lon="13.76196893904354"><ele>546.0</ele><time>2026-04-30T11:31:51.001Z</time></trkpt><trkpt lat="37.84447839954361" lon="13.761840886947507"><ele>546.0</ele><time>2026-04-30T11:31:52.001Z</time></trkpt><trkpt lat="37.84456108293144" lon="13.761706117490773"><ele>544.25</ele><time>2026-04-30T11:31:53.001Z</time></trkpt><trkpt lat="37.84464751580304" lon="13.76158224667512"><ele>542.5</ele><time>2026-04-30T11:31:54.001Z</time></trkpt><trkpt lat="37.84473751576384" lon="13.761467735618398"><ele>540.75</ele><time>2026-04-30T11:31:55.001Z</time></trkpt><trkpt lat="37.84484178630747" lon="13.761368981746418"><ele>539.0</ele><time>2026-04-30T11:31:56.001Z</time></trkpt><trkpt lat="37.844957736998204" lon="13.761295688569195"><ele>539.0</ele><time>2026-04-30T11:31:57.001Z</time></trkpt><trkpt lat="37.84506945539404" lon="13.761242417103123"><ele>539.0</ele><time>2026-04-30T11:31:58.001Z</time></trkpt><trkpt lat="37.84517511083192" lon="13.761195721307764"><ele>539.0</ele><time>2026-04-30T11:31:59.001Z</time></trkpt><trkpt lat="37.84527186837235" lon="13.761157250477437"><ele>539.0</ele><time>2026-04-30T11:32:00.001Z</time></trkpt><trkpt lat="37.84536216469581" lon="13.761124534726383"><ele>539.0</ele><time>2026-04-30T11:32:01.001Z</time></trkpt><trkpt lat="37.845456261297784" lon="13.76110987868866"><ele>540.0</ele><time>2026-04-30T11:32:02.001Z</time></trkpt><trkpt lat="37.8455455784964" lon="13.761108710132788"><ele>541.0</ele><time>2026-04-30T11:32:03.001Z</time></trkpt><trkpt lat="37.84563522674439" lon="13.761134164080465"><ele>542.0</ele><time>2026-04-30T11:32:04.001Z</time></trkpt><trkpt lat="37.845731034715904" lon="13.761170926267313"><ele>543.0</ele><time>2026-04-30T11:32:05.001Z</time></trkpt><trkpt lat="37.845823934775744" lon="13.761215326006692"><ele>544.0</ele><time>2026-04-30T11:32:06.001Z</time></trkpt><trkpt lat="37.84592276823859" lon="13.761252142664807"><ele>542.25</ele><time>2026-04-30T11:32:07.001Z</time></trkpt><trkpt lat="37.846029306165775" lon="13.761282796674006"><ele>540.5</ele><time>2026-04-30T11:32:08.001Z</time></trkpt><trkpt lat="37.84614329049314" lon="13.76131868222047"><ele>538.75</ele><time>2026-04-30T11:32:09.001Z</time></trkpt><trkpt lat="37.84625850056267" lon="13.761356167326682"><ele>537.0</ele><time>2026-04-30T11:32:10.001Z</time></trkpt><trkpt lat="37.846366034976406" lon="13.761398784827147"><ele>537.0</ele><time>2026-04-30T11:32:11.001Z</time></trkpt><trkpt lat="37.84647197568248" lon="13.76143873497591"><ele>537.0</ele><time>2026-04-30T11:32:12.001Z</time></trkpt><trkpt lat="37.846574739041245" lon="13.76147808361634"><ele>537.0</ele><time>2026-04-30T11:32:13.001Z</time></trkpt><trkpt lat="37.84667441027697" lon="13.761520705993588"><ele>537.0</ele><time>2026-04-30T11:32:14.001Z</time></trkpt><trkpt lat="37.84677622027751" lon="13.76155874966486"><ele>537.0</ele><time>2026-04-30T11:32:15.001Z</time></trkpt><trkpt lat="37.84687179759412" lon="13.761597378923842"><ele>535.0</ele><time>2026-04-30T11:32:16.001Z</time></trkpt><trkpt lat="37.84696137015301" lon="13.7616319467679"><ele>533.0</ele><time>2026-04-30T11:32:17.001Z</time></trkpt><trkpt lat="37.84703566776533" lon="13.761664838476458"><ele>531.0</ele><time>2026-04-30T11:32:18.001Z</time></trkpt><trkpt lat="37.847106459611695" lon="13.76168275492687"><ele>529.0</ele><time>2026-04-30T11:32:19.001Z</time></trkpt><trkpt lat="37.847164773337575" lon="13.761716131381853"><ele>527.0</ele><time>2026-04-30T11:32:20.001Z</time></trkpt><trkpt lat="37.84722429569036" lon="13.761746592319822"><ele>525.0</ele><time>2026-04-30T11:32:21.001Z</time></trkpt><trkpt lat="37.847314496701664" lon="13.761784794633568"><ele>525.0</ele><time>2026-04-30T11:32:23.001Z</time></trkpt><trkpt lat="37.84739080638632" lon="13.761646007918477"><ele>525.0</ele><time>2026-04-30T11:32:26.001Z</time></trkpt><trkpt lat="37.84740655004708" lon="13.761535814715705"><ele>525.0</ele><time>2026-04-30T11:32:27.001Z</time></trkpt><trkpt lat="37.84742449714846" lon="13.761425844666132"><ele>525.0</ele><time>2026-04-30T11:32:28.001Z</time></trkpt><trkpt lat="37.84746657041903" lon="13.761312285055787"><ele>525.0</ele><time>2026-04-30T11:32:29.001Z</time></trkpt><trkpt lat="37.8475012113937" lon="13.761191392011876"><ele>525.0</ele><time>2026-04-30T11:32:30.001Z</time></trkpt><trkpt lat="37.84753325234023" lon="13.76106280930972"><ele>525.0</ele><time>2026-04-30T11:32:31.001Z</time></trkpt><trkpt lat="37.8475621156182" lon="13.760939170839878"><ele>525.0</ele><time>2026-04-30T11:32:32.001Z</time></trkpt><trkpt lat="37.84759414523381" lon="13.760817793898132"><ele>525.0</ele><time>2026-04-30T11:32:33.001Z</time></trkpt><trkpt lat="37.847628450661894" lon="13.760682511954004"><ele>525.0</ele><time>2026-04-30T11:32:34.001Z</time></trkpt><trkpt lat="37.847657226636336" lon="13.760540518668826"><ele>521.0</ele><time>2026-04-30T11:32:35.001Z</time></trkpt><trkpt lat="37.84769649430309" lon="13.76040404770017"><ele>517.0</ele><time>2026-04-30T11:32:36.001Z</time></trkpt><trkpt lat="37.847729739959476" lon="13.760275350277423"><ele>513.0</ele><time>2026-04-30T11:32:37.001Z</time></trkpt><trkpt lat="37.847762136076646" lon="13.760149193571882"><ele>509.0</ele><time>2026-04-30T11:32:38.001Z</time></trkpt><trkpt lat="37.84778590996419" lon="13.760031529018493"><ele>505.0</ele><time>2026-04-30T11:32:39.001Z</time></trkpt><trkpt lat="37.847808034102805" lon="13.759927628538243"><ele>504.83333333333337</ele><time>2026-04-30T11:32:40.001Z</time></trkpt><trkpt lat="37.847832000399436" lon="13.759834996407436"><ele>504.6666666666667</ele><time>2026-04-30T11:32:41.001Z</time></trkpt><trkpt lat="37.84786581965725" lon="13.759709186211808"><ele>504.5</ele><time>2026-04-30T11:32:43.001Z</time></trkpt><trkpt lat="37.8478773156153" lon="13.759597620618765"><ele>504.33333333333337</ele><time>2026-04-30T11:33:41.001Z</time></trkpt><trkpt lat="37.84790926688213" lon="13.759495248379869"><ele>504.1666666666667</ele><time>2026-04-30T11:33:44.001Z</time></trkpt><trkpt lat="37.84793378294197" lon="13.759401794392994"><ele>504.0</ele><time>2026-04-30T11:34:04.001Z</time></trkpt><trkpt lat="37.8478658096769" lon="13.759519475477012"><ele>504.0</ele><time>2026-04-30T11:34:09.001Z</time></trkpt><trkpt lat="37.847847574945334" lon="13.759634798341036"><ele>504.0</ele><time>2026-04-30T11:34:10Z</time></trkpt><trkpt lat="37.84782062266095" lon="13.759765159079512"><ele>504.0</ele><time>2026-04-30T11:34:11Z</time></trkpt><trkpt lat="37.847785714630575" lon="13.759915123126044"><ele>504.0</ele><time>2026-04-30T11:34:12Z</time></trkpt><trkpt lat="37.847741245672566" lon="13.76009220098437"><ele>504.25</ele><time>2026-04-30T11:34:13Z</time></trkpt><trkpt lat="37.84769206380253" lon="13.760302217530343"><ele>504.5</ele><time>2026-04-30T11:34:14Z</time></trkpt><trkpt lat="37.84765038478331" lon="13.76047738849006"><ele>504.75</ele><time>2026-04-30T11:34:15Z</time></trkpt><trkpt lat="37.84761625815625" lon="13.7606168160112"><ele>505.0</ele><time>2026-04-30T11:34:16Z</time></trkpt><trkpt lat="37.84758897824972" lon="13.760723899980697"><ele>508.0</ele><time>2026-04-30T11:34:17Z</time></trkpt><trkpt lat="37.847561701288875" lon="13.76083321505181"><ele>511.0</ele><time>2026-04-30T11:34:18Z</time></trkpt><trkpt lat="37.847536895923994" lon="13.76095607108111"><ele>514.0</ele><time>2026-04-30T11:34:19Z</time></trkpt><trkpt lat="37.847514306973295" lon="13.761060040032158"><ele>517.0</ele><time>2026-04-30T11:34:20Z</time></trkpt><trkpt lat="37.847485528363116" lon="13.761164190445383"><ele>520.0</ele><time>2026-04-30T11:34:22Z</time></trkpt><trkpt lat="37.84752826834407" lon="13.761261972289395"><ele>520.8333333333334</ele><time>2026-04-30T11:34:25Z</time></trkpt><trkpt lat="37.8475998522346" lon="13.761280622406453"><ele>521.6666666666667</ele><time>2026-04-30T11:34:26Z</time></trkpt><trkpt lat="37.84768326815488" lon="13.761310485234752"><ele>522.5</ele><time>2026-04-30T11:34:27Z</time></trkpt><trkpt lat="37.84776225240409" lon="13.761347581837686"><ele>523.3333333333334</ele><time>2026-04-30T11:34:28Z</time></trkpt><trkpt lat="37.847846437983684" lon="13.76138483750834"><ele>524.1666666666666</ele><time>2026-04-30T11:34:29Z</time></trkpt><trkpt lat="37.84792657913486" lon="13.761428481665934"><ele>525.0</ele><time>2026-04-30T11:34:30Z</time></trkpt><trkpt lat="37.848008215163" lon="13.761470653332625"><ele>522.8333333333334</ele><time>2026-04-30T11:34:31Z</time></trkpt><trkpt lat="37.84809172898413" lon="13.761509071733936"><ele>520.6666666666666</ele><time>2026-04-30T11:34:32Z</time></trkpt><trkpt lat="37.84817190212709" lon="13.761549059850404"><ele>518.5</ele><time>2026-04-30T11:34:33Z</time></trkpt><trkpt lat="37.848235010596866" lon="13.761576613599814"><ele>516.3333333333333</ele><time>2026-04-30T11:34:34Z</time></trkpt><trkpt lat="37.848320695054895" lon="13.761630051969814"><ele>514.1666666666666</ele><time>2026-04-30T11:34:36Z</time></trkpt><trkpt lat="37.848363915344564" lon="13.761721509289414"><ele>512.0</ele><time>2026-04-30T11:34:38Z</time></trkpt><trkpt lat="37.84834806189913" lon="13.761812116702556"><ele>513.3333333333333</ele><time>2026-04-30T11:34:39Z</time></trkpt><trkpt lat="37.848310800498915" lon="13.761901830708403"><ele>514.6666666666666</ele><time>2026-04-30T11:34:40Z</time></trkpt><trkpt lat="37.84828888316112" lon="13.761980052504114"><ele>516.0</ele><time>2026-04-30T11:34:41Z</time></trkpt><trkpt lat="37.84827619445979" lon="13.762107573855955"><ele>517.3333333333334</ele><time>2026-04-30T11:34:43Z</time></trkpt><trkpt lat="37.848322947304005" lon="13.762198149441597"><ele>518.6666666666667</ele><time>2026-04-30T11:34:45Z</time></trkpt><trkpt lat="37.848359955766334" lon="13.762267316649451"><ele>520.0</ele><time>2026-04-30T11:34:48Z</time></trkpt><trkpt lat="37.84827102493375" lon="13.762251299940422"><ele>520.0000000000001</ele><time>2026-04-30T11:34:53Z</time></trkpt><trkpt lat="37.84821041328483" lon="13.762144448239468"><ele>520.0</ele><time>2026-04-30T11:34:55Z</time></trkpt><trkpt lat="37.848159818530505" lon="13.762093645958343"><ele>520.0</ele><time>2026-04-30T11:34:57.001Z</time></trkpt><trkpt lat="37.84808973288417" lon="13.762097760172074"><ele>520.0</ele><time>2026-04-30T11:35:10.001Z</time></trkpt><trkpt lat="37.848035050049596" lon="13.762045169886699"><ele>520.0</ele><time>2026-04-30T11:35:52.001Z</time></trkpt><trkpt lat="37.84797663233755" lon="13.762085576192277"><ele>520.0000000000001</ele><time>2026-04-30T11:35:59.001Z</time></trkpt><trkpt lat="37.847945060628675" lon="13.762157993776986"><ele>520.0</ele><time>2026-04-30T11:36:47Z</time></trkpt><trkpt lat="37.84812158323638" lon="13.762268478107492"><ele>520.0</ele><time>2026-04-30T11:39:21.702Z</time></trkpt><trkpt lat="37.84815687530048" lon="13.762344108962546"><ele>520.0</ele><time>2026-04-30T11:41:43.095Z</time></trkpt><trkpt lat="37.84822670867092" lon="13.76241116609488"><ele>520.0</ele><time>2026-04-30T11:41:45.048Z</time></trkpt><trkpt lat="37.848150405530156" lon="13.762332522398284"><ele>520.0</ele><time>2026-04-30T11:41:53.213Z</time></trkpt><trkpt lat="37.84814450179475" lon="13.762227006681892"><ele>520.0</ele><time>2026-04-30T11:43:46.018Z</time></trkpt><trkpt lat="37.84805717481926" lon="13.762227361039704"><ele>520.0</ele><time>2026-04-30T11:44:07.999Z</time></trkpt><trkpt lat="37.8479870561032" lon="13.762173330750667"><ele>520.0</ele><time>2026-04-30T11:44:08.999Z</time></trkpt><trkpt lat="37.84802853674211" lon="13.762000426563292"><ele>520.0</ele><time>2026-04-30T12:12:40Z</time></trkpt><trkpt lat="37.84792259186698" lon="13.761959558033157"><ele>520.0</ele><time>2026-04-30T12:13:19Z</time></trkpt><trkpt lat="37.84784530406732" lon="13.761930079083207"><ele>520.0</ele><time>2026-04-30T12:13:21Z</time></trkpt><trkpt lat="37.84775544560792" lon="13.76189194047409"><ele>520.0</ele><time>2026-04-30T12:13:23Z</time></trkpt><trkpt lat="37.8476572332587" lon="13.761844720353565"><ele>520.8333333333334</ele><time>2026-04-30T12:13:25Z</time></trkpt><trkpt lat="37.847551542984455" lon="13.761804631099967"><ele>521.6666666666667</ele><time>2026-04-30T12:13:27Z</time></trkpt><trkpt lat="37.847439771693516" lon="13.761774312963755"><ele>522.5</ele><time>2026-04-30T12:13:29Z</time></trkpt><trkpt lat="37.847360129749745" lon="13.761738971047132"><ele>523.3333333333334</ele><time>2026-04-30T12:13:31Z</time></trkpt><trkpt lat="37.8473544178126" lon="13.761651369492203"><ele>524.1666666666666</ele><time>2026-04-30T12:13:34Z</time></trkpt><trkpt lat="37.84738214009737" lon="13.761573856054431"><ele>525.0</ele><time>2026-04-30T12:13:35Z</time></trkpt><trkpt lat="37.8473950899671" lon="13.76147597255645"><ele>525.0</ele><time>2026-04-30T12:13:36Z</time></trkpt><trkpt lat="37.84740767734111" lon="13.76137359625289"><ele>525.0</ele><time>2026-04-30T12:13:37Z</time></trkpt><trkpt lat="37.84744374857898" lon="13.761280723675329"><ele>525.0</ele><time>2026-04-30T12:13:38Z</time></trkpt><trkpt lat="37.84747146106031" lon="13.76117360147051"><ele>525.0</ele><time>2026-04-30T12:13:39Z</time></trkpt><trkpt lat="37.8474968818658" lon="13.761055274181405"><ele>525.0</ele><time>2026-04-30T12:13:40Z</time></trkpt><trkpt lat="37.84753104714322" lon="13.76092352127151"><ele>523.75</ele><time>2026-04-30T12:13:41Z</time></trkpt><trkpt lat="37.84756804243187" lon="13.760777983834219"><ele>522.5</ele><time>2026-04-30T12:13:42Z</time></trkpt><trkpt lat="37.847608887583014" lon="13.760624034622863"><ele>521.25</ele><time>2026-04-30T12:13:43Z</time></trkpt><trkpt lat="37.847643990112054" lon="13.760469856978967"><ele>520.0</ele><time>2026-04-30T12:13:44Z</time></trkpt><trkpt lat="37.847678516635796" lon="13.760323012652004"><ele>516.8</ele><time>2026-04-30T12:13:45Z</time></trkpt><trkpt lat="37.8477105999849" lon="13.760182770415552"><ele>513.6</ele><time>2026-04-30T12:13:46Z</time></trkpt><trkpt lat="37.84774078654917" lon="13.760043149379223"><ele>510.4</ele><time>2026-04-30T12:13:47Z</time></trkpt><trkpt lat="37.847767757790066" lon="13.759907969873318"><ele>507.2</ele><time>2026-04-30T12:13:48Z</time></trkpt><trkpt lat="37.84780096211666" lon="13.75977695644262"><ele>504.0</ele><time>2026-04-30T12:13:49Z</time></trkpt><trkpt lat="37.847833621444884" lon="13.759647040847497"><ele>504.0</ele><time>2026-04-30T12:13:50Z</time></trkpt><trkpt lat="37.84786313200145" lon="13.759521761697478"><ele>504.0</ele><time>2026-04-30T12:13:51Z</time></trkpt><trkpt lat="37.84789830319346" lon="13.759394229184727"><ele>504.0</ele><time>2026-04-30T12:13:52Z</time></trkpt><trkpt lat="37.84793824024142" lon="13.759258898251831"><ele>504.0</ele><time>2026-04-30T12:13:53Z</time></trkpt><trkpt lat="37.84797439912872" lon="13.759114688362999"><ele>504.0</ele><time>2026-04-30T12:13:54Z</time></trkpt><trkpt lat="37.84800981865684" lon="13.758964767870022"><ele>503.75</ele><time>2026-04-30T12:13:55Z</time></trkpt><trkpt lat="37.84804696882177" lon="13.758810824925403"><ele>503.5</ele><time>2026-04-30T12:13:56Z</time></trkpt><trkpt lat="37.84808694247428" lon="13.758657118002613"><ele>503.25</ele><time>2026-04-30T12:13:57Z</time></trkpt><trkpt lat="37.84812240681332" lon="13.758516498111861"><ele>503.0</ele><time>2026-04-30T12:13:58Z</time></trkpt><trkpt lat="37.84815897428441" lon="13.75838245406977"><ele>502.25</ele><time>2026-04-30T12:13:59Z</time></trkpt><trkpt lat="37.84819511073086" lon="13.758256373739984"><ele>501.5</ele><time>2026-04-30T12:14:00Z</time></trkpt><trkpt lat="37.848233579078496" lon="13.75811396655315"><ele>500.75</ele><time>2026-04-30T12:14:01Z</time></trkpt><trkpt lat="37.84827482763257" lon="13.757968043309628"><ele>500.0</ele><time>2026-04-30T12:14:02Z</time></trkpt><trkpt lat="37.848309505840525" lon="13.757806447235163"><ele>499.25</ele><time>2026-04-30T12:14:03Z</time></trkpt><trkpt lat="37.84835434213492" lon="13.757646641386545"><ele>498.5</ele><time>2026-04-30T12:14:04Z</time></trkpt><trkpt lat="37.84839166284635" lon="13.757491223759338"><ele>497.75</ele><time>2026-04-30T12:14:05Z</time></trkpt><trkpt lat="37.848428466679216" lon="13.757339622857463"><ele>497.0</ele><time>2026-04-30T12:14:06Z</time></trkpt><trkpt lat="37.84846615367226" lon="13.757188623204021"><ele>497.0</ele><time>2026-04-30T12:14:07Z</time></trkpt><trkpt lat="37.848505340752496" lon="13.75703625717734"><ele>497.0</ele><time>2026-04-30T12:14:08Z</time></trkpt><trkpt lat="37.84853879631756" lon="13.756878691648211"><ele>497.0</ele><time>2026-04-30T12:14:09Z</time></trkpt><trkpt lat="37.84857609124932" lon="13.756722729250228"><ele>497.0</ele><time>2026-04-30T12:14:10Z</time></trkpt><trkpt lat="37.848615686865834" lon="13.756565940983062"><ele>497.25</ele><time>2026-04-30T12:14:11Z</time></trkpt><trkpt lat="37.84865938758181" lon="13.756411264641148"><ele>497.5</ele><time>2026-04-30T12:14:12Z</time></trkpt><trkpt lat="37.84869378817225" lon="13.756257149185018"><ele>497.75</ele><time>2026-04-30T12:14:13Z</time></trkpt><trkpt lat="37.8487346696813" lon="13.756105407154571"><ele>498.0</ele><time>2026-04-30T12:14:14Z</time></trkpt><trkpt lat="37.84877576218082" lon="13.755952300556869"><ele>499.0</ele><time>2026-04-30T12:14:15Z</time></trkpt><trkpt lat="37.848815744913324" lon="13.755803360676275"><ele>500.0</ele><time>2026-04-30T12:14:16Z</time></trkpt><trkpt lat="37.84885353539621" lon="13.755658973700093"><ele>501.0</ele><time>2026-04-30T12:14:17Z</time></trkpt><trkpt lat="37.84888899414234" lon="13.755515623177152"><ele>502.0</ele><time>2026-04-30T12:14:18Z</time></trkpt><trkpt lat="37.84892898951835" lon="13.755378737917654"><ele>502.00000000000006</ele><time>2026-04-30T12:14:19Z</time></trkpt><trkpt lat="37.84897147897722" lon="13.755250834404851"><ele>502.0</ele><time>2026-04-30T12:14:20Z</time></trkpt><trkpt lat="37.84900108593073" lon="13.755139581266773"><ele>502.0</ele><time>2026-04-30T12:14:21Z</time></trkpt><trkpt lat="37.84900218358379" lon="13.755054482088752"><ele>502.0</ele><time>2026-04-30T12:14:22Z</time></trkpt><trkpt lat="37.84894254503509" lon="13.754959971521414"><ele>502.00000000000006</ele><time>2026-04-30T12:14:24Z</time></trkpt><trkpt lat="37.84886489559603" lon="13.754938492934672"><ele>502.0</ele><time>2026-04-30T12:14:25Z</time></trkpt><trkpt lat="37.84878489091538" lon="13.754913022644798"><ele>501.6</ele><time>2026-04-30T12:14:26Z</time></trkpt><trkpt lat="37.8487008938869" lon="13.754874497125964"><ele>501.20000000000005</ele><time>2026-04-30T12:14:27Z</time></trkpt><trkpt lat="37.84861201243926" lon="13.754835650228435"><ele>500.8</ele><time>2026-04-30T12:14:28Z</time></trkpt><trkpt lat="37.84852263342889" lon="13.75480147046087"><ele>500.4</ele><time>2026-04-30T12:14:29Z</time></trkpt><trkpt lat="37.848433004285766" lon="13.754766765248034"><ele>500.0</ele><time>2026-04-30T12:14:30Z</time></trkpt><trkpt lat="37.848351556203355" lon="13.75472749333849"><ele>499.99999999999994</ele><time>2026-04-30T12:14:31Z</time></trkpt><trkpt lat="37.848289872446024" lon="13.754673103224718"><ele>500.0</ele><time>2026-04-30T12:14:32Z</time></trkpt><trkpt lat="37.84824907195324" lon="13.754601131127394"><ele>500.0</ele><time>2026-04-30T12:14:33Z</time></trkpt><trkpt lat="37.84822975913664" lon="13.754505750871262"><ele>500.0</ele><time>2026-04-30T12:14:34Z</time></trkpt><trkpt lat="37.84823888152059" lon="13.7543971833896"><ele>499.99999999999994</ele><time>2026-04-30T12:14:35Z</time></trkpt><trkpt lat="37.848261533568525" lon="13.754286132517098"><ele>500.0</ele><time>2026-04-30T12:14:36Z</time></trkpt><trkpt lat="37.84829158250806" lon="13.754179782349079"><ele>499.8</ele><time>2026-04-30T12:14:37Z</time></trkpt><trkpt lat="37.84831603907892" lon="13.754071537327176"><ele>499.6</ele><time>2026-04-30T12:14:38Z</time></trkpt><trkpt lat="37.84833851478786" lon="13.753956044446598"><ele>499.4</ele><time>2026-04-30T12:14:39Z</time></trkpt><trkpt lat="37.84836555251177" lon="13.753827247542954"><ele>499.2</ele><time>2026-04-30T12:14:40Z</time></trkpt><trkpt lat="37.84839276994512" lon="13.75369468246566"><ele>499.0</ele><time>2026-04-30T12:14:41Z</time></trkpt><trkpt lat="37.84842347687815" lon="13.753559380368412"><ele>497.79999999999995</ele><time>2026-04-30T12:14:42Z</time></trkpt><trkpt lat="37.848452899568414" lon="13.753425388383162"><ele>496.59999999999997</ele><time>2026-04-30T12:14:43Z</time></trkpt><trkpt lat="37.848481800534664" lon="13.753292134473556"><ele>495.4</ele><time>2026-04-30T12:14:44Z</time></trkpt><trkpt lat="37.84850986406359" lon="13.753167727053764"><ele>494.2</ele><time>2026-04-30T12:14:45Z</time></trkpt><trkpt lat="37.84854912232257" lon="13.753041534577095"><ele>493.0</ele><time>2026-04-30T12:14:46Z</time></trkpt><trkpt lat="37.84860256547258" lon="13.75290733044981"><ele>492.0</ele><time>2026-04-30T12:14:47Z</time></trkpt><trkpt lat="37.84867126225923" lon="13.752768301310697"><ele>491.0</ele><time>2026-04-30T12:14:48Z</time></trkpt><trkpt lat="37.84874354583022" lon="13.752622772081773"><ele>490.0</ele><time>2026-04-30T12:14:49Z</time></trkpt><trkpt lat="37.84881769348309" lon="13.75248032695212"><ele>489.0</ele><time>2026-04-30T12:14:50Z</time></trkpt><trkpt lat="37.8488921733544" lon="13.75234228721144"><ele>486.5</ele><time>2026-04-30T12:14:51Z</time></trkpt><trkpt lat="37.84896309871321" lon="13.752200282909582"><ele>484.0</ele><time>2026-04-30T12:14:52Z</time></trkpt><trkpt lat="37.8490357442902" lon="13.752056667070976"><ele>481.5</ele><time>2026-04-30T12:14:53Z</time></trkpt><trkpt lat="37.84911506630235" lon="13.751906590847291"><ele>479.0</ele><time>2026-04-30T12:14:54Z</time></trkpt><trkpt lat="37.849191173052596" lon="13.751742135111021"><ele>479.0</ele><time>2026-04-30T12:14:55Z</time></trkpt><trkpt lat="37.849254960470645" lon="13.751567318706455"><ele>479.0</ele><time>2026-04-30T12:14:56Z</time></trkpt><trkpt lat="37.849310514315846" lon="13.751399091348574"><ele>479.0</ele><time>2026-04-30T12:14:57Z</time></trkpt><trkpt lat="37.849372466253186" lon="13.75122523381551"><ele>479.0</ele><time>2026-04-30T12:14:58Z</time></trkpt><trkpt lat="37.8494433593821" lon="13.751047693739837"><ele>472.66666666666663</ele><time>2026-04-30T12:14:59Z</time></trkpt><trkpt lat="37.84952442087773" lon="13.750869285634161"><ele>466.33333333333337</ele><time>2026-04-30T12:15:00Z</time></trkpt><trkpt lat="37.8496103624663" lon="13.750701936715052"><ele>460.0</ele><time>2026-04-30T12:15:01Z</time></trkpt><trkpt lat="37.84970796546414" lon="13.750558796442466"><ele>460.0</ele><time>2026-04-30T12:15:02Z</time></trkpt><trkpt lat="37.84979776473124" lon="13.750419653523313"><ele>460.0</ele><time>2026-04-30T12:15:03Z</time></trkpt><trkpt lat="37.84988200638391" lon="13.750284898434561"><ele>460.0</ele><time>2026-04-30T12:15:04Z</time></trkpt><trkpt lat="37.84996309503843" lon="13.75014931587143"><ele>460.0</ele><time>2026-04-30T12:15:05Z</time></trkpt><trkpt lat="37.85003914516672" lon="13.750013916408092"><ele>461.0</ele><time>2026-04-30T12:15:06Z</time></trkpt><trkpt lat="37.85010517290902" lon="13.749876921838398"><ele>462.0</ele><time>2026-04-30T12:15:07Z</time></trkpt><trkpt lat="37.8501597220302" lon="13.749734441434912"><ele>463.0</ele><time>2026-04-30T12:15:08Z</time></trkpt><trkpt lat="37.85017507869664" lon="13.7495766761458"><ele>464.0</ele><time>2026-04-30T12:15:09Z</time></trkpt><trkpt lat="37.850161417937606" lon="13.74940552705874"><ele>463.0</ele><time>2026-04-30T12:15:10Z</time></trkpt><trkpt lat="37.85013118339803" lon="13.749234534140948"><ele>462.0</ele><time>2026-04-30T12:15:11Z</time></trkpt><trkpt lat="37.850104118124264" lon="13.749077347651825"><ele>461.0</ele><time>2026-04-30T12:15:12Z</time></trkpt><trkpt lat="37.85008283150455" lon="13.748936863456303"><ele>460.0</ele><time>2026-04-30T12:15:13Z</time></trkpt><trkpt lat="37.85006463171504" lon="13.748815560097482"><ele>460.00000000000006</ele><time>2026-04-30T12:15:14Z</time></trkpt><trkpt lat="37.85004924756478" lon="13.748729309015324"><ele>460.0</ele><time>2026-04-30T12:15:15Z</time></trkpt><trkpt lat="37.850038227865305" lon="13.748650378373354"><ele>460.0</ele><time>2026-04-30T12:15:16Z</time></trkpt><trkpt lat="37.85002729482548" lon="13.748521974347808"><ele>460.0</ele><time>2026-04-30T12:15:18Z</time></trkpt><trkpt lat="37.85001400879449" lon="13.748393461903078"><ele>460.00000000000006</ele><time>2026-04-30T12:15:20Z</time></trkpt><trkpt lat="37.85000083879234" lon="13.748297703991328"><ele>460.0</ele><time>2026-04-30T12:15:22Z</time></trkpt><trkpt lat="37.849983060587945" lon="13.748184747944451"><ele>459.33333333333337</ele><time>2026-04-30T12:15:25.001Z</time></trkpt><trkpt lat="37.84997248211941" lon="13.748063937017339"><ele>458.6666666666667</ele><time>2026-04-30T12:15:28.001Z</time></trkpt><trkpt lat="37.84996833479132" lon="13.747977683000412"><ele>458.0</ele><time>2026-04-30T12:15:30.001Z</time></trkpt><trkpt lat="37.84996528379249" lon="13.747888430328171"><ele>457.33333333333337</ele><time>2026-04-30T12:15:32.001Z</time></trkpt><trkpt lat="37.849982454526426" lon="13.747795453772552"><ele>456.6666666666667</ele><time>2026-04-30T12:15:34.001Z</time></trkpt><trkpt lat="37.850018639872" lon="13.747705395145488"><ele>456.0</ele><time>2026-04-30T12:15:36.001Z</time></trkpt><trkpt lat="37.850084110823566" lon="13.747625942007307"><ele>454.6666666666667</ele><time>2026-04-30T12:15:38.001Z</time></trkpt><trkpt lat="37.850167560812004" lon="13.747572629413192"><ele>453.33333333333337</ele><time>2026-04-30T12:15:40.001Z</time></trkpt><trkpt lat="37.85023044347407" lon="13.74754735591047"><ele>452.0</ele><time>2026-04-30T12:15:41.001Z</time></trkpt><trkpt lat="37.850325264455726" lon="13.747515152205963"><ele>450.6666666666667</ele><time>2026-04-30T12:15:42.001Z</time></trkpt><trkpt lat="37.8504238535591" lon="13.747475570859676"><ele>449.33333333333337</ele><time>2026-04-30T12:15:43Z</time></trkpt><trkpt lat="37.85049324447736" lon="13.747421655262254"><ele>448.0</ele><time>2026-04-30T12:15:44Z</time></trkpt><trkpt lat="37.850520887930834" lon="13.74733623745591"><ele>448.0</ele><time>2026-04-30T12:15:45Z</time></trkpt><trkpt lat="37.85049703907415" lon="13.747237447625887"><ele>447.99999999999994</ele><time>2026-04-30T12:15:46Z</time></trkpt><trkpt lat="37.850423735997666" lon="13.7471430366947"><ele>447.99999999999994</ele><time>2026-04-30T12:15:47Z</time></trkpt><trkpt lat="37.85034378897658" lon="13.747047516337833"><ele>448.0</ele><time>2026-04-30T12:15:48Z</time></trkpt><trkpt lat="37.85027968584441" lon="13.746937878202942"><ele>448.0</ele><time>2026-04-30T12:15:49Z</time></trkpt><trkpt lat="37.850221974313364" lon="13.746816482838822"><ele>447.75</ele><time>2026-04-30T12:15:50Z</time></trkpt><trkpt lat="37.85015602915464" lon="13.746686080539407"><ele>447.5</ele><time>2026-04-30T12:15:51Z</time></trkpt><trkpt lat="37.850084045975166" lon="13.746553789143373"><ele>447.25</ele><time>2026-04-30T12:15:52Z</time></trkpt><trkpt lat="37.85000858920963" lon="13.74641811861411"><ele>447.0</ele><time>2026-04-30T12:15:53Z</time></trkpt><trkpt lat="37.8499328724425" lon="13.746278832621345"><ele>446.75</ele><time>2026-04-30T12:15:54Z</time></trkpt><trkpt lat="37.84985320701398" lon="13.746127506317045"><ele>446.5</ele><time>2026-04-30T12:15:55Z</time></trkpt><trkpt lat="37.84977149500025" lon="13.745970913566785"><ele>446.25</ele><time>2026-04-30T12:15:56Z</time></trkpt><trkpt lat="37.849690984294725" lon="13.745821051190802"><ele>446.0</ele><time>2026-04-30T12:15:57Z</time></trkpt><trkpt lat="37.849616966840145" lon="13.745671353021624"><ele>445.75</ele><time>2026-04-30T12:15:58Z</time></trkpt><trkpt lat="37.84954866490348" lon="13.745511075543801"><ele>445.5</ele><time>2026-04-30T12:15:59Z</time></trkpt><trkpt lat="37.849484848826116" lon="13.745348824736862"><ele>445.25</ele><time>2026-04-30T12:16:00Z</time></trkpt><trkpt lat="37.849416633866745" lon="13.74519275155593"><ele>445.0</ele><time>2026-04-30T12:16:01Z</time></trkpt><trkpt lat="37.849346945129504" lon="13.745041162094466"><ele>443.0</ele><time>2026-04-30T12:16:02Z</time></trkpt><trkpt lat="37.849277280289094" lon="13.744892867321395"><ele>441.0</ele><time>2026-04-30T12:16:03Z</time></trkpt><trkpt lat="37.84921306737645" lon="13.744738747073097"><ele>439.0</ele><time>2026-04-30T12:16:04Z</time></trkpt><trkpt lat="37.84914864030292" lon="13.744570976595996"><ele>437.0</ele><time>2026-04-30T12:16:05Z</time></trkpt><trkpt lat="37.84907731650094" lon="13.744392398213156"><ele>436.3333333333333</ele><time>2026-04-30T12:16:06Z</time></trkpt><trkpt lat="37.848996991982276" lon="13.744203821365145"><ele>435.66666666666663</ele><time>2026-04-30T12:16:07Z</time></trkpt><trkpt lat="37.84891299790049" lon="13.744015010894572"><ele>435.0</ele><time>2026-04-30T12:16:08Z</time></trkpt><trkpt lat="37.84883113354894" lon="13.743835550809727"><ele>435.0</ele><time>2026-04-30T12:16:09Z</time></trkpt><trkpt lat="37.8487517406981" lon="13.743656609792065"><ele>435.0</ele><time>2026-04-30T12:16:10Z</time></trkpt><trkpt lat="37.848665899735146" lon="13.743483283792363"><ele>435.0</ele><time>2026-04-30T12:16:11Z</time></trkpt><trkpt lat="37.848576827196005" lon="13.743308757967254"><ele>436.66666666666663</ele><time>2026-04-30T12:16:12Z</time></trkpt><trkpt lat="37.848478270709734" lon="13.743133740125131"><ele>438.3333333333333</ele><time>2026-04-30T12:16:13Z</time></trkpt><trkpt lat="37.848375141775065" lon="13.74295604350821"><ele>440.0</ele><time>2026-04-30T12:16:14Z</time></trkpt><trkpt lat="37.848275983457974" lon="13.742784291423607"><ele>436.0</ele><time>2026-04-30T12:16:15Z</time></trkpt><trkpt lat="37.848184637002376" lon="13.742622853608347"><ele>432.0</ele><time>2026-04-30T12:16:16Z</time></trkpt><trkpt lat="37.848096368711" lon="13.742472685840298"><ele>428.0</ele><time>2026-04-30T12:16:17Z</time></trkpt><trkpt lat="37.84800494523956" lon="13.742325862898802"><ele>428.0</ele><time>2026-04-30T12:16:18Z</time></trkpt><trkpt lat="37.847915237632805" lon="13.742163871292794"><ele>428.0</ele><time>2026-04-30T12:16:19Z</time></trkpt><trkpt lat="37.8478455897326" lon="13.742008595853658"><ele>428.0</ele><time>2026-04-30T12:16:20Z</time></trkpt><trkpt lat="37.84781540985205" lon="13.741857025353065"><ele>428.0</ele><time>2026-04-30T12:16:21Z</time></trkpt><trkpt lat="37.84782956100524" lon="13.741696520985487"><ele>429.75</ele><time>2026-04-30T12:16:22Z</time></trkpt><trkpt lat="37.84788020000936" lon="13.741555217082073"><ele>431.5</ele><time>2026-04-30T12:16:23Z</time></trkpt><trkpt lat="37.84796278817823" lon="13.741420369217364"><ele>433.25</ele><time>2026-04-30T12:16:24Z</time></trkpt><trkpt lat="37.84805002559313" lon="13.741283851988312"><ele>435.0</ele><time>2026-04-30T12:16:25Z</time></trkpt><trkpt lat="37.848137288696286" lon="13.741138868607354"><ele>434.25</ele><time>2026-04-30T12:16:26Z</time></trkpt><trkpt lat="37.848218614944756" lon="13.740995846246781"><ele>433.5</ele><time>2026-04-30T12:16:27Z</time></trkpt><trkpt lat="37.84828837024384" lon="13.740863554826182"><ele>432.75</ele><time>2026-04-30T12:16:28Z</time></trkpt><trkpt lat="37.84835431703159" lon="13.740722377583358"><ele>432.0</ele><time>2026-04-30T12:16:29Z</time></trkpt><trkpt lat="37.848401990446035" lon="13.740571946812139"><ele>432.0</ele><time>2026-04-30T12:16:30Z</time></trkpt><trkpt lat="37.848435533242345" lon="13.740417517881843"><ele>432.0</ele><time>2026-04-30T12:16:31Z</time></trkpt><trkpt lat="37.84845700462289" lon="13.740254322759178"><ele>432.0</ele><time>2026-04-30T12:16:32Z</time></trkpt><trkpt lat="37.84847213109087" lon="13.740103413228022"><ele>432.0</ele><time>2026-04-30T12:16:33Z</time></trkpt><trkpt lat="37.848504191948635" lon="13.73995864069823"><ele>436.75</ele><time>2026-04-30T12:16:34Z</time></trkpt><trkpt lat="37.848550749117706" lon="13.73982428342093"><ele>441.5</ele><time>2026-04-30T12:16:35Z</time></trkpt><trkpt lat="37.848623906110944" lon="13.739688040787769"><ele>446.25</ele><time>2026-04-30T12:16:36Z</time></trkpt><trkpt lat="37.84871122995507" lon="13.739547207660715"><ele>451.0</ele><time>2026-04-30T12:16:37Z</time></trkpt><trkpt lat="37.848793559551616" lon="13.73941228084577"><ele>449.0</ele><time>2026-04-30T12:16:38Z</time></trkpt><trkpt lat="37.84887218615827" lon="13.73927661180083"><ele>447.0</ele><time>2026-04-30T12:16:39Z</time></trkpt><trkpt lat="37.84894907878376" lon="13.73914210313168"><ele>445.0</ele><time>2026-04-30T12:16:40Z</time></trkpt><trkpt lat="37.84901156028576" lon="13.739018568309442"><ele>443.0</ele><time>2026-04-30T12:16:41Z</time></trkpt><trkpt lat="37.84905040336131" lon="13.738892290139793"><ele>443.0</ele><time>2026-04-30T12:16:42Z</time></trkpt><trkpt lat="37.84905582517071" lon="13.738755376850785"><ele>442.99999999999994</ele><time>2026-04-30T12:16:43Z</time></trkpt><trkpt lat="37.849028239305476" lon="13.738619966748724"><ele>442.99999999999994</ele><time>2026-04-30T12:16:44Z</time></trkpt><trkpt lat="37.848978677235216" lon="13.738494673697787"><ele>443.0</ele><time>2026-04-30T12:16:45Z</time></trkpt><trkpt lat="37.8489144931041" lon="13.738370603045153"><ele>443.0</ele><time>2026-04-30T12:16:46Z</time></trkpt><trkpt lat="37.84883432412102" lon="13.738247376941809"><ele>444.0</ele><time>2026-04-30T12:16:47Z</time></trkpt><trkpt lat="37.84873947286684" lon="13.73814116882217"><ele>445.0</ele><time>2026-04-30T12:16:48Z</time></trkpt><trkpt lat="37.84864708713069" lon="13.738041726281539"><ele>446.0</ele><time>2026-04-30T12:16:49Z</time></trkpt><trkpt lat="37.848557181431644" lon="13.737936649590344"><ele>447.0</ele><time>2026-04-30T12:16:50Z</time></trkpt><trkpt lat="37.84847469723565" lon="13.737820643352528"><ele>446.75</ele><time>2026-04-30T12:16:51Z</time></trkpt><trkpt lat="37.84840991171669" lon="13.7376794418746"><ele>446.5</ele><time>2026-04-30T12:16:52Z</time></trkpt><trkpt lat="37.8483613367159" lon="13.737520223987067"><ele>446.25</ele><time>2026-04-30T12:16:53Z</time></trkpt><trkpt lat="37.84833119480626" lon="13.737359998674123"><ele>446.0</ele><time>2026-04-30T12:16:54Z</time></trkpt><trkpt lat="37.848308559023124" lon="13.737196725609481"><ele>446.0</ele><time>2026-04-30T12:16:55Z</time></trkpt><trkpt lat="37.84829047108551" lon="13.73702981495101"><ele>446.0</ele><time>2026-04-30T12:16:56Z</time></trkpt><trkpt lat="37.848279532998724" lon="13.736866000955976"><ele>446.0</ele><time>2026-04-30T12:16:57Z</time></trkpt><trkpt lat="37.84827262817712" lon="13.736712933677108"><ele>446.0</ele><time>2026-04-30T12:16:58Z</time></trkpt><trkpt lat="37.848269071006186" lon="13.736568035493978"><ele>446.6</ele><time>2026-04-30T12:16:59Z</time></trkpt><trkpt lat="37.84828665345521" lon="13.736433160143166"><ele>447.20000000000005</ele><time>2026-04-30T12:17:00Z</time></trkpt><trkpt lat="37.848336178597116" lon="13.736316336525633"><ele>447.79999999999995</ele><time>2026-04-30T12:17:01Z</time></trkpt><trkpt lat="37.84842323454681" lon="13.736241936967838"><ele>448.4</ele><time>2026-04-30T12:17:02Z</time></trkpt><trkpt lat="37.84853210313529" lon="13.736185991956825"><ele>449.0</ele><time>2026-04-30T12:17:03Z</time></trkpt><trkpt lat="37.84864764587754" lon="13.736146012338589"><ele>451.6</ele><time>2026-04-30T12:17:04Z</time></trkpt><trkpt lat="37.84875642722271" lon="13.736121201712198"><ele>454.2</ele><time>2026-04-30T12:17:05Z</time></trkpt><trkpt lat="37.84886509495692" lon="13.736081438999154"><ele>456.80000000000007</ele><time>2026-04-30T12:17:06Z</time></trkpt><trkpt lat="37.84895461715155" lon="13.736000179309984"><ele>459.40000000000003</ele><time>2026-04-30T12:17:07Z</time></trkpt><trkpt lat="37.84901100337545" lon="13.735887235077797"><ele>462.0</ele><time>2026-04-30T12:17:08Z</time></trkpt><trkpt lat="37.84902486203743" lon="13.735771889569474"><ele>462.0</ele><time>2026-04-30T12:17:09Z</time></trkpt><trkpt lat="37.8490019012071" lon="13.735653671669288"><ele>462.00000000000006</ele><time>2026-04-30T12:17:10Z</time></trkpt><trkpt lat="37.848953623931386" lon="13.735533458017288"><ele>462.00000000000006</ele><time>2026-04-30T12:17:11Z</time></trkpt><trkpt lat="37.848889719601964" lon="13.735415973913206"><ele>462.0</ele><time>2026-04-30T12:17:12Z</time></trkpt><trkpt lat="37.8488102107831" lon="13.735312865701008"><ele>462.0</ele><time>2026-04-30T12:17:13Z</time></trkpt><trkpt lat="37.848721160418584" lon="13.735233639822019"><ele>465.0</ele><time>2026-04-30T12:17:14Z</time></trkpt><trkpt lat="37.84860899136988" lon="13.735167769111182"><ele>468.0</ele><time>2026-04-30T12:17:15Z</time></trkpt><trkpt lat="37.84849026391661" lon="13.735086009726267"><ele>471.0</ele><time>2026-04-30T12:17:16Z</time></trkpt><trkpt lat="37.84837790729173" lon="13.734982397001442"><ele>474.0</ele><time>2026-04-30T12:17:17Z</time></trkpt><trkpt lat="37.848266813812295" lon="13.73487576782261"><ele>467.75</ele><time>2026-04-30T12:17:18Z</time></trkpt><trkpt lat="37.84815274818019" lon="13.734773179850688"><ele>461.5</ele><time>2026-04-30T12:17:19Z</time></trkpt><trkpt lat="37.84804194019599" lon="13.734675560157122"><ele>455.25</ele><time>2026-04-30T12:17:20Z</time></trkpt><trkpt lat="37.847930332172695" lon="13.73458856160802"><ele>449.0</ele><time>2026-04-30T12:17:21Z</time></trkpt><trkpt lat="37.847807340284" lon="13.734516112508127"><ele>449.0</ele><time>2026-04-30T12:17:22Z</time></trkpt><trkpt lat="37.847679016061555" lon="13.734447290057629"><ele>449.0</ele><time>2026-04-30T12:17:23Z</time></trkpt><trkpt lat="37.84754115927997" lon="13.734381397384924"><ele>449.0</ele><time>2026-04-30T12:17:24Z</time></trkpt><trkpt lat="37.84739174461841" lon="13.734319499519065"><ele>449.0</ele><time>2026-04-30T12:17:25Z</time></trkpt><trkpt lat="37.84724741691846" lon="13.734258641984232"><ele>449.0</ele><time>2026-04-30T12:17:26Z</time></trkpt><trkpt lat="37.847104875757346" lon="13.734206696553967"><ele>449.0</ele><time>2026-04-30T12:17:27Z</time></trkpt><trkpt lat="37.84696618266506" lon="13.734158417353573"><ele>449.0</ele><time>2026-04-30T12:17:28Z</time></trkpt><trkpt lat="37.84683181841062" lon="13.734107468416175"><ele>449.0</ele><time>2026-04-30T12:17:29Z</time></trkpt><trkpt lat="37.84669677188163" lon="13.734059550340888"><ele>449.0</ele><time>2026-04-30T12:17:30.001Z</time></trkpt><trkpt lat="37.84656399441707" lon="13.734020762053982"><ele>449.0</ele><time>2026-04-30T12:17:31.001Z</time></trkpt><trkpt lat="37.8464364617906" lon="13.733977280213708"><ele>449.0</ele><time>2026-04-30T12:17:32.001Z</time></trkpt><trkpt lat="37.84631391804968" lon="13.73391508792035"><ele>449.0</ele><time>2026-04-30T12:17:33.001Z</time></trkpt><trkpt lat="37.846201104451985" lon="13.73382871147983"><ele>449.0</ele><time>2026-04-30T12:17:34.001Z</time></trkpt><trkpt lat="37.846105947808994" lon="13.733723929436836"><ele>449.0</ele><time>2026-04-30T12:17:35.001Z</time></trkpt><trkpt lat="37.8460209354007" lon="13.733605290342558"><ele>449.0</ele><time>2026-04-30T12:17:36.001Z</time></trkpt><trkpt lat="37.8459499697707" lon="13.73349230532298"><ele>449.0</ele><time>2026-04-30T12:17:37.001Z</time></trkpt><trkpt lat="37.84591541993529" lon="13.733372148033816"><ele>450.79999999999995</ele><time>2026-04-30T12:17:38.001Z</time></trkpt><trkpt lat="37.845928335680966" lon="13.73324787658569"><ele>452.59999999999997</ele><time>2026-04-30T12:17:39.001Z</time></trkpt><trkpt lat="37.8459785526708" lon="13.73312620147997"><ele>454.4</ele><time>2026-04-30T12:17:40.001Z</time></trkpt><trkpt lat="37.84605716482423" lon="13.733022966879098"><ele>456.2</ele><time>2026-04-30T12:17:41.001Z</time></trkpt><trkpt lat="37.84615934940648" lon="13.73293640556125"><ele>458.0</ele><time>2026-04-30T12:17:42.001Z</time></trkpt><trkpt lat="37.84626552525659" lon="13.732857674385908"><ele>458.5</ele><time>2026-04-30T12:17:43.001Z</time></trkpt><trkpt lat="37.846363710337606" lon="13.732776283927267"><ele>459.0</ele><time>2026-04-30T12:17:44.001Z</time></trkpt><trkpt lat="37.846460948482786" lon="13.732685745310913"><ele>459.5</ele><time>2026-04-30T12:17:45.001Z</time></trkpt><trkpt lat="37.84656483105009" lon="13.732595163606643"><ele>460.0</ele><time>2026-04-30T12:17:46.001Z</time></trkpt><trkpt lat="37.846666569672486" lon="13.732508919698887"><ele>460.0</ele><time>2026-04-30T12:17:47.001Z</time></trkpt><trkpt lat="37.84676696109393" lon="13.732442582793563"><ele>460.0</ele><time>2026-04-30T12:17:48Z</time></trkpt><trkpt lat="37.8468695102497" lon="13.732411020156654"><ele>460.0</ele><time>2026-04-30T12:17:49Z</time></trkpt><trkpt lat="37.846970971845664" lon="13.732410291589519"><ele>460.0</ele><time>2026-04-30T12:17:50Z</time></trkpt><trkpt lat="37.84707572183747" lon="13.732415235102275"><ele>460.0</ele><time>2026-04-30T12:17:51Z</time></trkpt><trkpt lat="37.847184076207604" lon="13.732420329397238"><ele>462.0</ele><time>2026-04-30T12:17:52Z</time></trkpt><trkpt lat="37.84729332556661" lon="13.73241870536386"><ele>464.0</ele><time>2026-04-30T12:17:53Z</time></trkpt><trkpt lat="37.84740537544355" lon="13.732409715025575"><ele>466.0</ele><time>2026-04-30T12:17:54Z</time></trkpt><trkpt lat="37.847525270260185" lon="13.732396096186744"><ele>468.0</ele><time>2026-04-30T12:17:55Z</time></trkpt><trkpt lat="37.84764559691009" lon="13.732380941165028"><ele>469.59999999999997</ele><time>2026-04-30T12:17:56Z</time></trkpt><trkpt lat="37.847752094302635" lon="13.73235468222957"><ele>471.19999999999993</ele><time>2026-04-30T12:17:57Z</time></trkpt><trkpt lat="37.84785417359827" lon="13.732315174842373"><ele>472.8</ele><time>2026-04-30T12:17:58Z</time></trkpt><trkpt lat="37.847959756852944" lon="13.732274283324728"><ele>474.4</ele><time>2026-04-30T12:17:59Z</time></trkpt><trkpt lat="37.84807280800951" lon="13.732222009205524"><ele>476.0</ele><time>2026-04-30T12:18:00Z</time></trkpt><trkpt lat="37.84819115013807" lon="13.732157135317369"><ele>476.0</ele><time>2026-04-30T12:18:01Z</time></trkpt><trkpt lat="37.84831049018632" lon="13.732080669327013"><ele>476.0</ele><time>2026-04-30T12:18:02Z</time></trkpt><trkpt lat="37.848423570001906" lon="13.732004615121104"><ele>476.0</ele><time>2026-04-30T12:18:03Z</time></trkpt><trkpt lat="37.84854309114389" lon="13.731923542978777"><ele>476.0</ele><time>2026-04-30T12:18:04Z</time></trkpt><trkpt lat="37.84866260132024" lon="13.731847725969018"><ele>474.0</ele><time>2026-04-30T12:18:05Z</time></trkpt><trkpt lat="37.84878344006376" lon="13.731776114629554"><ele>472.0</ele><time>2026-04-30T12:18:06Z</time></trkpt><trkpt lat="37.848908179910126" lon="13.731705048631"><ele>470.0</ele><time>2026-04-30T12:18:07Z</time></trkpt><trkpt lat="37.849032576043726" lon="13.731631209009727"><ele>468.0</ele><time>2026-04-30T12:18:08Z</time></trkpt><trkpt lat="37.849154832413184" lon="13.73155880212325"><ele>468.0</ele><time>2026-04-30T12:18:09Z</time></trkpt><trkpt lat="37.84927466801435" lon="13.73148554345796"><ele>468.0</ele><time>2026-04-30T12:18:10Z</time></trkpt><trkpt lat="37.84939863276868" lon="13.73141250382882"><ele>468.0</ele><time>2026-04-30T12:18:11Z</time></trkpt><trkpt lat="37.849524753670856" lon="13.7313354034019"><ele>468.0</ele><time>2026-04-30T12:18:12Z</time></trkpt><trkpt lat="37.84965419877325" lon="13.731257697256261"><ele>467.5</ele><time>2026-04-30T12:18:13Z</time></trkpt><trkpt lat="37.849785973730775" lon="13.7311777764413"><ele>467.0</ele><time>2026-04-30T12:18:14Z</time></trkpt><trkpt lat="37.84992077608211" lon="13.731099055239428"><ele>466.5</ele><time>2026-04-30T12:18:15Z</time></trkpt><trkpt lat="37.85005834390601" lon="13.731018173347799"><ele>466.0</ele><time>2026-04-30T12:18:16Z</time></trkpt><trkpt lat="37.85018760989032" lon="13.7309377165564"><ele>468.25</ele><time>2026-04-30T12:18:17Z</time></trkpt><trkpt lat="37.850301207587584" lon="13.730868698993495"><ele>470.5</ele><time>2026-04-30T12:18:18Z</time></trkpt><trkpt lat="37.850411340052084" lon="13.730794651572156"><ele>472.75</ele><time>2026-04-30T12:18:19Z</time></trkpt><trkpt lat="37.85050031307853" lon="13.730700639424557"><ele>475.0</ele><time>2026-04-30T12:18:20Z</time></trkpt><trkpt lat="37.85057417180984" lon="13.730587251825312"><ele>475.0</ele><time>2026-04-30T12:18:21Z</time></trkpt><trkpt lat="37.850630357835136" lon="13.730454745247131"><ele>475.0</ele><time>2026-04-30T12:18:22Z</time></trkpt><trkpt lat="37.85069025063228" lon="13.730303674282064"><ele>475.0</ele><time>2026-04-30T12:18:23Z</time></trkpt><trkpt lat="37.85075649178725" lon="13.730148081410054"><ele>475.0</ele><time>2026-04-30T12:18:24Z</time></trkpt><trkpt lat="37.85082690857756" lon="13.729993190709523"><ele>476.75</ele><time>2026-04-30T12:18:25Z</time></trkpt><trkpt lat="37.85089845878928" lon="13.729838770096388"><ele>478.5</ele><time>2026-04-30T12:18:26Z</time></trkpt><trkpt lat="37.85097277258721" lon="13.729687755034535"><ele>480.25</ele><time>2026-04-30T12:18:27Z</time></trkpt><trkpt lat="37.85103738633328" lon="13.729539383408264"><ele>482.0</ele><time>2026-04-30T12:18:28Z</time></trkpt><trkpt lat="37.85110120322429" lon="13.7293939404558"><ele>480.40000000000003</ele><time>2026-04-30T12:18:29Z</time></trkpt><trkpt lat="37.85115612469999" lon="13.729250159223701"><ele>478.80000000000007</ele><time>2026-04-30T12:18:30Z</time></trkpt><trkpt lat="37.8512151738307" lon="13.729115474316417"><ele>477.2</ele><time>2026-04-30T12:18:31Z</time></trkpt><trkpt lat="37.85125985827106" lon="13.729003687897002"><ele>475.6</ele><time>2026-04-30T12:18:32Z</time></trkpt><trkpt lat="37.85128903353922" lon="13.728911066867527"><ele>474.0</ele><time>2026-04-30T12:18:33Z</time></trkpt><trkpt lat="37.851295194049925" lon="13.728817736012859"><ele>474.0</ele><time>2026-04-30T12:18:34Z</time></trkpt><trkpt lat="37.8512753843437" lon="13.728712084666128"><ele>474.0</ele><time>2026-04-30T12:18:35Z</time></trkpt><trkpt lat="37.85123482650663" lon="13.728603129633832"><ele>474.0</ele><time>2026-04-30T12:18:36Z</time></trkpt><trkpt lat="37.85116654166306" lon="13.728494414903578"><ele>474.0</ele><time>2026-04-30T12:18:37Z</time></trkpt><trkpt lat="37.85106864364927" lon="13.72838109789212"><ele>474.0</ele><time>2026-04-30T12:18:38Z</time></trkpt><trkpt lat="37.85096550330212" lon="13.728261195106573"><ele>468.75</ele><time>2026-04-30T12:18:39Z</time></trkpt><trkpt lat="37.85086989686529" lon="13.72815370420314"><ele>463.5</ele><time>2026-04-30T12:18:40Z</time></trkpt><trkpt lat="37.85077561731812" lon="13.728056524064849"><ele>458.25</ele><time>2026-04-30T12:18:41Z</time></trkpt><trkpt lat="37.85068979909947" lon="13.727960205460741"><ele>453.0</ele><time>2026-04-30T12:18:42Z</time></trkpt><trkpt lat="37.85061680726066" lon="13.727863007357213"><ele>453.0</ele><time>2026-04-30T12:18:43Z</time></trkpt><trkpt lat="37.85054188574158" lon="13.727772276759074"><ele>452.99999999999994</ele><time>2026-04-30T12:18:44Z</time></trkpt><trkpt lat="37.85046350731557" lon="13.727698294343394"><ele>452.99999999999994</ele><time>2026-04-30T12:18:45Z</time></trkpt><trkpt lat="37.85038225172262" lon="13.727645160034061"><ele>453.0</ele><time>2026-04-30T12:18:46Z</time></trkpt><trkpt lat="37.85030356684793" lon="13.727623162573304"><ele>453.0</ele><time>2026-04-30T12:18:47Z</time></trkpt><trkpt lat="37.850210452520365" lon="13.727618232288163"><ele>450.59999999999997</ele><time>2026-04-30T12:18:48Z</time></trkpt><trkpt lat="37.850109068455474" lon="13.727610789295644"><ele>448.19999999999993</ele><time>2026-04-30T12:18:49Z</time></trkpt><trkpt lat="37.850019852411535" lon="13.727595101276933"><ele>445.8</ele><time>2026-04-30T12:18:50Z</time></trkpt><trkpt lat="37.84993892225062" lon="13.727572721836115"><ele>443.4</ele><time>2026-04-30T12:18:51Z</time></trkpt><trkpt lat="37.849850812784574" lon="13.727551584152023"><ele>441.0</ele><time>2026-04-30T12:18:52Z</time></trkpt><trkpt lat="37.84975093429111" lon="13.727532283366438"><ele>441.0</ele><time>2026-04-30T12:18:53Z</time></trkpt><trkpt lat="37.849643000371664" lon="13.727514651090058"><ele>441.0</ele><time>2026-04-30T12:18:54Z</time></trkpt><trkpt lat="37.84953222031588" lon="13.727493488062281"><ele>441.0</ele><time>2026-04-30T12:18:55Z</time></trkpt><trkpt lat="37.849427211469596" lon="13.72746230371051"><ele>441.0</ele><time>2026-04-30T12:18:56Z</time></trkpt><trkpt lat="37.84932573622239" lon="13.727437773932179"><ele>441.0</ele><time>2026-04-30T12:18:57Z</time></trkpt><trkpt lat="37.84922433509444" lon="13.727431436400991"><ele>440.20000000000005</ele><time>2026-04-30T12:18:58Z</time></trkpt><trkpt lat="37.84911353498647" lon="13.72743766803017"><ele>439.40000000000003</ele><time>2026-04-30T12:18:59Z</time></trkpt><trkpt lat="37.84899502376234" lon="13.727442205434349"><ele>438.6</ele><time>2026-04-30T12:19:00Z</time></trkpt><trkpt lat="37.84890698384166" lon="13.727443791807252"><ele>437.8</ele><time>2026-04-30T12:19:01Z</time></trkpt><trkpt lat="37.848836775513966" lon="13.727437787260968"><ele>437.0</ele><time>2026-04-30T12:19:02Z</time></trkpt><trkpt lat="37.848772750182434" lon="13.72741329135602"><ele>436.99999999999994</ele><time>2026-04-30T12:19:03Z</time></trkpt><trkpt lat="37.8487140187642" lon="13.727363626205182"><ele>437.0</ele><time>2026-04-30T12:19:04Z</time></trkpt><trkpt lat="37.84864696997266" lon="13.727262298576798"><ele>437.0</ele><time>2026-04-30T12:19:06Z</time></trkpt><trkpt lat="37.84867050820378" lon="13.727133398189356"><ele>437.0</ele><time>2026-04-30T12:19:08Z</time></trkpt><trkpt lat="37.848724030670994" lon="13.72708089740267"><ele>436.99999999999994</ele><time>2026-04-30T12:19:09Z</time></trkpt><trkpt lat="37.84880457800849" lon="13.72705120951169"><ele>437.0</ele><time>2026-04-30T12:19:10Z</time></trkpt><trkpt lat="37.84890523708597" lon="13.727039617704826"><ele>437.0</ele><time>2026-04-30T12:19:11Z</time></trkpt><trkpt lat="37.84902220515027" lon="13.7270451611027"><ele>437.00000000000006</ele><time>2026-04-30T12:19:12Z</time></trkpt><trkpt lat="37.84913004120942" lon="13.727048985549631"><ele>437.00000000000006</ele><time>2026-04-30T12:19:13Z</time></trkpt><trkpt lat="37.84921366615994" lon="13.727048619383574"><ele>437.0</ele><time>2026-04-30T12:19:14Z</time></trkpt><trkpt lat="37.84928911324643" lon="13.727037878459798"><ele>437.0</ele><time>2026-04-30T12:19:15Z</time></trkpt><trkpt lat="37.84936685127881" lon="13.727001820010218"><ele>437.8</ele><time>2026-04-30T12:19:16Z</time></trkpt><trkpt lat="37.84945476269627" lon="13.726946814730303"><ele>438.6</ele><time>2026-04-30T12:19:17Z</time></trkpt><trkpt lat="37.849552733738435" lon="13.726886790555241"><ele>439.40000000000003</ele><time>2026-04-30T12:19:18Z</time></trkpt><trkpt lat="37.849643400190075" lon="13.726849044715697"><ele>440.20000000000005</ele><time>2026-04-30T12:19:19Z</time></trkpt><trkpt lat="37.84974824535061" lon="13.726819922979896"><ele>441.0</ele><time>2026-04-30T12:19:20Z</time></trkpt><trkpt lat="37.84986556021375" lon="13.726799934947115"><ele>436.0</ele><time>2026-04-30T12:19:21Z</time></trkpt><trkpt lat="37.84999360443883" lon="13.72679082030599"><ele>431.0</ele><time>2026-04-30T12:19:22Z</time></trkpt><trkpt lat="37.850120049051675" lon="13.726782706870068"><ele>426.0</ele><time>2026-04-30T12:19:23Z</time></trkpt><trkpt lat="37.85023654127658" lon="13.726773215345588"><ele>421.0</ele><time>2026-04-30T12:19:24Z</time></trkpt><trkpt lat="37.85033336048639" lon="13.726760592676456"><ele>421.0</ele><time>2026-04-30T12:19:25Z</time></trkpt><trkpt lat="37.85042699554808" lon="13.726747374867955"><ele>421.0</ele><time>2026-04-30T12:19:26Z</time></trkpt><trkpt lat="37.85053425793669" lon="13.726715646678175"><ele>421.0</ele><time>2026-04-30T12:19:27Z</time></trkpt><trkpt lat="37.85065929259164" lon="13.726655528694126"><ele>421.0</ele><time>2026-04-30T12:19:28Z</time></trkpt><trkpt lat="37.85077729446989" lon="13.726590792056694"><ele>421.0</ele><time>2026-04-30T12:19:29Z</time></trkpt><trkpt lat="37.850891873215936" lon="13.726522188546943"><ele>421.0</ele><time>2026-04-30T12:19:30Z</time></trkpt><trkpt lat="37.85101339297436" lon="13.726444693006508"><ele>421.0</ele><time>2026-04-30T12:19:31Z</time></trkpt><trkpt lat="37.851144253802" lon="13.726361446022606"><ele>421.0</ele><time>2026-04-30T12:19:32Z</time></trkpt><trkpt lat="37.8512771290764" lon="13.726281435935253"><ele>422.75</ele><time>2026-04-30T12:19:33Z</time></trkpt><trkpt lat="37.85140141418546" lon="13.726211633052467"><ele>424.5</ele><time>2026-04-30T12:19:34Z</time></trkpt><trkpt lat="37.85151731463295" lon="13.726133066681692"><ele>426.25</ele><time>2026-04-30T12:19:35Z</time></trkpt><trkpt lat="37.85161669126079" lon="13.726063338954836"><ele>428.0</ele><time>2026-04-30T12:19:36.001Z</time></trkpt><trkpt lat="37.85170151012047" lon="13.725999527477068"><ele>425.0</ele><time>2026-04-30T12:19:37.001Z</time></trkpt><trkpt lat="37.85177129205653" lon="13.725931906764433"><ele>421.99999999999994</ele><time>2026-04-30T12:19:38.001Z</time></trkpt><trkpt lat="37.85182689369392" lon="13.725850844604567"><ele>419.0</ele><time>2026-04-30T12:19:39.001Z</time></trkpt><trkpt lat="37.85186741381131" lon="13.725748955286967"><ele>416.0</ele><time>2026-04-30T12:19:40.001Z</time></trkpt><trkpt lat="37.85190439807969" lon="13.725608263581563"><ele>413.0</ele><time>2026-04-30T12:19:41.001Z</time></trkpt><trkpt lat="37.851938659704494" lon="13.725448331478646"><ele>418.25</ele><time>2026-04-30T12:19:42.001Z</time></trkpt><trkpt lat="37.851967444548904" lon="13.72529118344939"><ele>423.5</ele><time>2026-04-30T12:19:43.001Z</time></trkpt><trkpt lat="37.85199652992636" lon="13.725142260738"><ele>428.75</ele><time>2026-04-30T12:19:44Z</time></trkpt><trkpt lat="37.852036458020095" lon="13.724989146823921"><ele>434.0</ele><time>2026-04-30T12:19:45Z</time></trkpt><trkpt lat="37.85205645973543" lon="13.72482737465367"><ele>434.0</ele><time>2026-04-30T12:19:46Z</time></trkpt><trkpt lat="37.852085554005875" lon="13.724648932073569"><ele>434.0</ele><time>2026-04-30T12:19:47Z</time></trkpt><trkpt lat="37.85212335248389" lon="13.724466093422338"><ele>434.0</ele><time>2026-04-30T12:19:48Z</time></trkpt><trkpt lat="37.85216914797727" lon="13.724282852772408"><ele>434.0</ele><time>2026-04-30T12:19:49Z</time></trkpt><trkpt lat="37.85221314143396" lon="13.724102131293531"><ele>431.75</ele><time>2026-04-30T12:19:50Z</time></trkpt><trkpt lat="37.85224554407856" lon="13.723925455343972"><ele>429.5</ele><time>2026-04-30T12:19:51Z</time></trkpt><trkpt lat="37.85227707257237" lon="13.723732670843907"><ele>427.25</ele><time>2026-04-30T12:19:52Z</time></trkpt><trkpt lat="37.85230746903355" lon="13.723559169359223"><ele>425.0</ele><time>2026-04-30T12:19:53Z</time></trkpt><trkpt lat="37.85233745306493" lon="13.7234048269664"><ele>424.8</ele><time>2026-04-30T12:19:54Z</time></trkpt><trkpt lat="37.852368375368435" lon="13.723265464685422"><ele>424.6</ele><time>2026-04-30T12:19:55Z</time></trkpt><trkpt lat="37.85239349446205" lon="13.723133151016459"><ele>424.4</ele><time>2026-04-30T12:19:56Z</time></trkpt><trkpt lat="37.852408491187184" lon="13.723004519873887"><ele>424.2</ele><time>2026-04-30T12:19:57Z</time></trkpt><trkpt lat="37.85240411313522" lon="13.722846738787242"><ele>424.0</ele><time>2026-04-30T12:19:58Z</time></trkpt><trkpt lat="37.852381898837535" lon="13.722672251192519"><ele>425.5</ele><time>2026-04-30T12:19:59Z</time></trkpt><trkpt lat="37.852349487030864" lon="13.722510847725053"><ele>427.0</ele><time>2026-04-30T12:20:00Z</time></trkpt><trkpt lat="37.852305839798525" lon="13.722356139527594"><ele>428.5</ele><time>2026-04-30T12:20:01Z</time></trkpt><trkpt lat="37.85225224781625" lon="13.722209122888662"><ele>430.0</ele><time>2026-04-30T12:20:02Z</time></trkpt><trkpt lat="37.85220354325472" lon="13.72207745107127"><ele>430.0</ele><time>2026-04-30T12:20:03Z</time></trkpt><trkpt lat="37.852159449023944" lon="13.72195958186912"><ele>430.0</ele><time>2026-04-30T12:20:04Z</time></trkpt><trkpt lat="37.852101643414414" lon="13.72182699549294"><ele>430.0</ele><time>2026-04-30T12:20:05Z</time></trkpt><trkpt lat="37.85202159401353" lon="13.721687281447595"><ele>430.0</ele><time>2026-04-30T12:20:06Z</time></trkpt><trkpt lat="37.85194294737166" lon="13.721553648198048"><ele>430.4</ele><time>2026-04-30T12:20:07Z</time></trkpt><trkpt lat="37.85187033626985" lon="13.721433854296949"><ele>430.8</ele><time>2026-04-30T12:20:08Z</time></trkpt><trkpt lat="37.851807786463816" lon="13.721319305777223"><ele>431.20000000000005</ele><time>2026-04-30T12:20:09Z</time></trkpt><trkpt lat="37.85174524283244" lon="13.721220435600317"><ele>431.6</ele><time>2026-04-30T12:20:10Z</time></trkpt><trkpt lat="37.851678832541275" lon="13.72113019845164"><ele>432.0</ele><time>2026-04-30T12:20:11Z</time></trkpt><trkpt lat="37.851617017795625" lon="13.721017180078007"><ele>432.0</ele><time>2026-04-30T12:20:12Z</time></trkpt><trkpt lat="37.85155997094775" lon="13.720872595770198"><ele>432.0</ele><time>2026-04-30T12:20:13Z</time></trkpt><trkpt lat="37.85150545068639" lon="13.720704526895279"><ele>432.0</ele><time>2026-04-30T12:20:14Z</time></trkpt><trkpt lat="37.85145689134503" lon="13.720536281311903"><ele>432.0</ele><time>2026-04-30T12:20:15Z</time></trkpt><trkpt lat="37.85141558954599" lon="13.72039208865921"><ele>432.0</ele><time>2026-04-30T12:20:16Z</time></trkpt><trkpt lat="37.85138880005599" lon="13.720263729721966"><ele>432.0</ele><time>2026-04-30T12:20:17Z</time></trkpt><trkpt lat="37.85137387440479" lon="13.72011655870424"><ele>432.0</ele><time>2026-04-30T12:20:18Z</time></trkpt><trkpt lat="37.851367374890664" lon="13.719946984522355"><ele>432.0</ele><time>2026-04-30T12:20:19Z</time></trkpt><trkpt lat="37.85136427914704" lon="13.719754575192974"><ele>435.5</ele><time>2026-04-30T12:20:20Z</time></trkpt><trkpt lat="37.851364747700025" lon="13.719566255878222"><ele>439.0</ele><time>2026-04-30T12:20:21Z</time></trkpt><trkpt lat="37.851353152002766" lon="13.719405570612624"><ele>442.5</ele><time>2026-04-30T12:20:22Z</time></trkpt><trkpt lat="37.85131536165369" lon="13.719256575551269"><ele>446.0</ele><time>2026-04-30T12:20:23Z</time></trkpt><trkpt lat="37.85125681348466" lon="13.71911630108274"><ele>450.0</ele><time>2026-04-30T12:20:24Z</time></trkpt><trkpt lat="37.85118094029895" lon="13.71897019075813"><ele>454.0</ele><time>2026-04-30T12:20:25Z</time></trkpt><trkpt lat="37.85111371795086" lon="13.718839823312988"><ele>458.0</ele><time>2026-04-30T12:20:26Z</time></trkpt><trkpt lat="37.851066927465226" lon="13.71872902198564"><ele>462.0</ele><time>2026-04-30T12:20:27Z</time></trkpt><trkpt lat="37.85103382011825" lon="13.71862208857886"><ele>461.5</ele><time>2026-04-30T12:20:28Z</time></trkpt><trkpt lat="37.851016854073315" lon="13.71850482521183"><ele>461.0</ele><time>2026-04-30T12:20:29Z</time></trkpt><trkpt lat="37.85101892480664" lon="13.71837050839622"><ele>460.5</ele><time>2026-04-30T12:20:30Z</time></trkpt><trkpt lat="37.85104000045724" lon="13.718207023566018"><ele>460.0</ele><time>2026-04-30T12:20:31Z</time></trkpt><trkpt lat="37.8510673986734" lon="13.718028806407771"><ele>460.0</ele><time>2026-04-30T12:20:32Z</time></trkpt><trkpt lat="37.85107612272063" lon="13.717870713579273"><ele>460.0</ele><time>2026-04-30T12:20:33Z</time></trkpt><trkpt lat="37.85106129301886" lon="13.717739025402418"><ele>460.0</ele><time>2026-04-30T12:20:34Z</time></trkpt><trkpt lat="37.851017341736146" lon="13.717594886764774"><ele>460.0</ele><time>2026-04-30T12:20:35Z</time></trkpt><trkpt lat="37.85097587652794" lon="13.717420204950736"><ele>454.0</ele><time>2026-04-30T12:20:36Z</time></trkpt><trkpt lat="37.85094185346737" lon="13.717255073399032"><ele>448.0</ele><time>2026-04-30T12:20:37Z</time></trkpt><trkpt lat="37.85090232257964" lon="13.7171118830588"><ele>442.0</ele><time>2026-04-30T12:20:38Z</time></trkpt><trkpt lat="37.850848521697806" lon="13.716979822346744"><ele>436.0</ele><time>2026-04-30T12:20:39Z</time></trkpt><trkpt lat="37.85077964102266" lon="13.716835718666905"><ele>436.0</ele><time>2026-04-30T12:20:40Z</time></trkpt><trkpt lat="37.85068982349201" lon="13.716669149454162"><ele>436.0</ele><time>2026-04-30T12:20:41Z</time></trkpt><trkpt lat="37.850583055038115" lon="13.716479607093266"><ele>436.0</ele><time>2026-04-30T12:20:42Z</time></trkpt><trkpt lat="37.85048264042974" lon="13.716315140027781"><ele>436.0</ele><time>2026-04-30T12:20:43Z</time></trkpt><trkpt lat="37.85039213646995" lon="13.716172258889207"><ele>436.0</ele><time>2026-04-30T12:20:44Z</time></trkpt><trkpt lat="37.85030558921112" lon="13.716021088466256"><ele>436.0</ele><time>2026-04-30T12:20:45Z</time></trkpt><trkpt lat="37.8502196910818" lon="13.71586341973662"><ele>436.0</ele><time>2026-04-30T12:20:46Z</time></trkpt><trkpt lat="37.85012960643564" lon="13.715707926205836"><ele>431.5</ele><time>2026-04-30T12:20:47Z</time></trkpt><trkpt lat="37.850050061452734" lon="13.715575497795548"><ele>427.0</ele><time>2026-04-30T12:20:48Z</time></trkpt><trkpt lat="37.84997921907259" lon="13.715456148431604"><ele>422.5</ele><time>2026-04-30T12:20:49Z</time></trkpt><trkpt lat="37.84991545650527" lon="13.715342894709263"><ele>418.0</ele><time>2026-04-30T12:20:50Z</time></trkpt><trkpt lat="37.84986756761912" lon="13.715238686877845"><ele>420.2</ele><time>2026-04-30T12:20:51Z</time></trkpt><trkpt lat="37.84984033888981" lon="13.715141747372595"><ele>422.4</ele><time>2026-04-30T12:20:52Z</time></trkpt><trkpt lat="37.849840663694735" lon="13.715042902690978"><ele>424.59999999999997</ele><time>2026-04-30T12:20:53Z</time></trkpt><trkpt lat="37.84986029176386" lon="13.71492325924011"><ele>426.79999999999995</ele><time>2026-04-30T12:20:54Z</time></trkpt><trkpt lat="37.84989922480455" lon="13.71476499386354"><ele>429.0</ele><time>2026-04-30T12:20:55Z</time></trkpt><trkpt lat="37.84993783752177" lon="13.71456228502533"><ele>427.5</ele><time>2026-04-30T12:20:56Z</time></trkpt><trkpt lat="37.849978637467494" lon="13.714343999144365"><ele>426.0</ele><time>2026-04-30T12:20:57Z</time></trkpt><trkpt lat="37.85000565934865" lon="13.71416135732951"><ele>424.5</ele><time>2026-04-30T12:20:58Z</time></trkpt><trkpt lat="37.85002327417482" lon="13.714005794403299"><ele>423.0</ele><time>2026-04-30T12:20:59Z</time></trkpt><trkpt lat="37.85003903734451" lon="13.71386504681448"><ele>423.0</ele><time>2026-04-30T12:21:00Z</time></trkpt><trkpt lat="37.85005060096723" lon="13.713727141858694"><ele>423.0</ele><time>2026-04-30T12:21:01Z</time></trkpt><trkpt lat="37.85004337021077" lon="13.713588149522613"><ele>423.0</ele><time>2026-04-30T12:21:02Z</time></trkpt><trkpt lat="37.85001508549608" lon="13.713428557017098"><ele>423.0</ele><time>2026-04-30T12:21:03Z</time></trkpt><trkpt lat="37.84995702436156" lon="13.713259374927148"><ele>422.0</ele><time>2026-04-30T12:21:04Z</time></trkpt><trkpt lat="37.849870633684745" lon="13.71306721799407"><ele>421.0</ele><time>2026-04-30T12:21:05Z</time></trkpt><trkpt lat="37.84979606757749" lon="13.712902053183495"><ele>420.0</ele><time>2026-04-30T12:21:06Z</time></trkpt><trkpt lat="37.84974134502158" lon="13.712755723979097"><ele>421.2</ele><time>2026-04-30T12:21:07Z</time></trkpt><trkpt lat="37.849697511310495" lon="13.71262249516482"><ele>422.4</ele><time>2026-04-30T12:21:08Z</time></trkpt><trkpt lat="37.84965508933084" lon="13.71250792844149"><ele>423.6</ele><time>2026-04-30T12:21:09Z</time></trkpt><trkpt lat="37.84961875080837" lon="13.712408211096227"><ele>424.8</ele><time>2026-04-30T12:21:10Z</time></trkpt><trkpt lat="37.84960869617137" lon="13.712319660399222"><ele>426.0</ele><time>2026-04-30T12:21:11Z</time></trkpt><trkpt lat="37.84962355328536" lon="13.712206391753655"><ele>426.0</ele><time>2026-04-30T12:21:12Z</time></trkpt><trkpt lat="37.84966314540995" lon="13.712049408211628"><ele>426.0</ele><time>2026-04-30T12:21:13Z</time></trkpt><trkpt lat="37.84972004702335" lon="13.71187971997743"><ele>426.0</ele><time>2026-04-30T12:21:14Z</time></trkpt><trkpt lat="37.849779975280825" lon="13.711715382028192"><ele>426.0</ele><time>2026-04-30T12:21:15Z</time></trkpt><trkpt lat="37.8498282144504" lon="13.711562525992553"><ele>423.6</ele><time>2026-04-30T12:21:16Z</time></trkpt><trkpt lat="37.84986642411672" lon="13.711421583809178"><ele>421.20000000000005</ele><time>2026-04-30T12:21:17Z</time></trkpt><trkpt lat="37.84989956214655" lon="13.71128521675638"><ele>418.79999999999995</ele><time>2026-04-30T12:21:18Z</time></trkpt><trkpt lat="37.84993306681181" lon="13.711157043824189"><ele>416.4</ele><time>2026-04-30T12:21:19Z</time></trkpt><trkpt lat="37.849978858470806" lon="13.711046114261544"><ele>414.0</ele><time>2026-04-30T12:21:20Z</time></trkpt><trkpt lat="37.85004102928668" lon="13.710957688097352"><ele>410.2</ele><time>2026-04-30T12:21:21Z</time></trkpt><trkpt lat="37.850116286510726" lon="13.710884320929377"><ele>406.4</ele><time>2026-04-30T12:21:21.999Z</time></trkpt><trkpt lat="37.85018971484722" lon="13.710823064554793"><ele>402.6</ele><time>2026-04-30T12:21:22.999Z</time></trkpt><trkpt lat="37.85026895312355" lon="13.71077370198319"><ele>398.8</ele><time>2026-04-30T12:21:23.999Z</time></trkpt><trkpt lat="37.85036237985213" lon="13.710742311251732"><ele>395.0</ele><time>2026-04-30T12:21:24.999Z</time></trkpt><trkpt lat="37.85046210477399" lon="13.710744536158415"><ele>395.0</ele><time>2026-04-30T12:21:25.999Z</time></trkpt><trkpt lat="37.85057033828828" lon="13.710776415369331"><ele>395.0</ele><time>2026-04-30T12:21:26.999Z</time></trkpt><trkpt lat="37.850689935301986" lon="13.71083508612157"><ele>395.0</ele><time>2026-04-30T12:21:27.999Z</time></trkpt><trkpt lat="37.85081955171913" lon="13.710897548777128"><ele>395.0</ele><time>2026-04-30T12:21:28.999Z</time></trkpt><trkpt lat="37.85096643731728" lon="13.710963120365259"><ele>395.66666666666663</ele><time>2026-04-30T12:21:29.999Z</time></trkpt><trkpt lat="37.8511262260117" lon="13.711038241447762"><ele>396.33333333333337</ele><time>2026-04-30T12:21:30.999Z</time></trkpt><trkpt lat="37.85129260466572" lon="13.711126681536784"><ele>397.0</ele><time>2026-04-30T12:21:31.999Z</time></trkpt><trkpt lat="37.85145073068287" lon="13.711209677836804"><ele>397.0</ele><time>2026-04-30T12:21:32.999Z</time></trkpt><trkpt lat="37.85159386702161" lon="13.711283045744027"><ele>397.0</ele><time>2026-04-30T12:21:33.999Z</time></trkpt><trkpt lat="37.851723430304105" lon="13.711351654148228"><ele>397.0</ele><time>2026-04-30T12:21:34.999Z</time></trkpt><trkpt lat="37.85184241854197" lon="13.711411761760589"><ele>397.0</ele><time>2026-04-30T12:21:35.999Z</time></trkpt><trkpt lat="37.851953689613005" lon="13.711470545008241"><ele>395.8</ele><time>2026-04-30T12:21:36.999Z</time></trkpt><trkpt lat="37.852056892348386" lon="13.711520127607248"><ele>394.6</ele><time>2026-04-30T12:21:37.999Z</time></trkpt><trkpt lat="37.852147280389374" lon="13.711547396607964"><ele>393.40000000000003</ele><time>2026-04-30T12:21:38.999Z</time></trkpt><trkpt lat="37.85223133773858" lon="13.711547982840456"><ele>392.20000000000005</ele><time>2026-04-30T12:21:39.999Z</time></trkpt><trkpt lat="37.852342543993295" lon="13.711527917643652"><ele>391.0</ele><time>2026-04-30T12:21:40.999Z</time></trkpt><trkpt lat="37.85246748071898" lon="13.711517188089871"><ele>391.0</ele><time>2026-04-30T12:21:42Z</time></trkpt><trkpt lat="37.85257846692643" lon="13.71150038115284"><ele>391.0</ele><time>2026-04-30T12:21:43Z</time></trkpt><trkpt lat="37.852675895555834" lon="13.711478432131246"><ele>391.0</ele><time>2026-04-30T12:21:44Z</time></trkpt><trkpt lat="37.85277925077139" lon="13.711457695991834"><ele>391.0</ele><time>2026-04-30T12:21:45Z</time></trkpt><trkpt lat="37.85288124945528" lon="13.711447212003279"><ele>391.0</ele><time>2026-04-30T12:21:46Z</time></trkpt><trkpt lat="37.85297559939336" lon="13.711460697857744"><ele>390.0</ele><time>2026-04-30T12:21:47Z</time></trkpt><trkpt lat="37.853070591567906" lon="13.711492212377513"><ele>389.0</ele><time>2026-04-30T12:21:48Z</time></trkpt><trkpt lat="37.853163165020376" lon="13.711538204183016"><ele>388.0</ele><time>2026-04-30T12:21:49Z</time></trkpt><trkpt lat="37.85325630175956" lon="13.711596137597054"><ele>387.0</ele><time>2026-04-30T12:21:50Z</time></trkpt><trkpt lat="37.85335016788509" lon="13.711651915477841"><ele>386.0</ele><time>2026-04-30T12:21:51Z</time></trkpt><trkpt lat="37.85344881875233" lon="13.71171432021969"><ele>383.8</ele><time>2026-04-30T12:21:52Z</time></trkpt><trkpt lat="37.853554801760474" lon="13.711774282109197"><ele>381.6</ele><time>2026-04-30T12:21:53Z</time></trkpt><trkpt lat="37.85366007178789" lon="13.711822793151063"><ele>379.4</ele><time>2026-04-30T12:21:54Z</time></trkpt><trkpt lat="37.853762082009666" lon="13.711859934673772"><ele>377.2</ele><time>2026-04-30T12:21:55Z</time></trkpt><trkpt lat="37.8538635411256" lon="13.711868639575918"><ele>375.0</ele><time>2026-04-30T12:21:56Z</time></trkpt><trkpt lat="37.85393994491137" lon="13.711886163813425"><ele>375.0</ele><time>2026-04-30T12:21:57Z</time></trkpt><trkpt lat="37.85404099065767" lon="13.711886145712693"><ele>375.0</ele><time>2026-04-30T12:21:59Z</time></trkpt><trkpt lat="37.854096976453086" lon="13.711805617456493"><ele>375.0</ele><time>2026-04-30T12:22:02Z</time></trkpt><trkpt lat="37.854068296477756" lon="13.71173005380402"><ele>375.0</ele><time>2026-04-30T12:22:05Z</time></trkpt><trkpt lat="37.85402482465243" lon="13.711671356010825"><ele>375.0</ele><time>2026-04-30T12:22:07Z</time></trkpt><trkpt lat="37.85398359347638" lon="13.711588054917895"><ele>375.0</ele><time>2026-04-30T12:22:11Z</time></trkpt><trkpt lat="37.85392763702791" lon="13.711511482017135"><ele>375.0</ele><time>2026-04-30T12:22:18Z</time></trkpt><trkpt lat="37.853810085666666" lon="13.711429276694194"><ele>375.0</ele><time>2026-04-30T12:22:20Z</time></trkpt><trkpt lat="37.85372570770377" lon="13.711404551723154"><ele>375.0</ele><time>2026-04-30T12:22:21Z</time></trkpt><trkpt lat="37.85362906444608" lon="13.71139810654007"><ele>375.0</ele><time>2026-04-30T12:22:22Z</time></trkpt><trkpt lat="37.85353029860729" lon="13.711400070992541"><ele>375.0</ele><time>2026-04-30T12:22:23Z</time></trkpt><trkpt lat="37.853428605891025" lon="13.711387250530302"><ele>374.2</ele><time>2026-04-30T12:22:24Z</time></trkpt><trkpt lat="37.853341109755135" lon="13.711348792838765"><ele>373.4</ele><time>2026-04-30T12:22:25Z</time></trkpt><trkpt lat="37.85327594540336" lon="13.711271781313808"><ele>372.6</ele><time>2026-04-30T12:22:26Z</time></trkpt><trkpt lat="37.85324218722241" lon="13.711165409484117"><ele>371.8</ele><time>2026-04-30T12:22:27Z</time></trkpt><trkpt lat="37.85323379523626" lon="13.711023692173868"><ele>371.0</ele><time>2026-04-30T12:22:28Z</time></trkpt><trkpt lat="37.85324507748247" lon="13.710882930449213"><ele>371.0</ele><time>2026-04-30T12:22:29Z</time></trkpt><trkpt lat="37.853235528401335" lon="13.710762499915386"><ele>371.0</ele><time>2026-04-30T12:22:30Z</time></trkpt><trkpt lat="37.85319656898276" lon="13.710654562552245"><ele>371.0</ele><time>2026-04-30T12:22:31Z</time></trkpt><trkpt lat="37.8531241196644" lon="13.710572688782232"><ele>371.0</ele><time>2026-04-30T12:22:32Z</time></trkpt><trkpt lat="37.853026422762426" lon="13.710528360319701"><ele>371.0</ele><time>2026-04-30T12:22:33Z</time></trkpt><trkpt lat="37.852900585679116" lon="13.710525956713782"><ele>371.0</ele><time>2026-04-30T12:22:34Z</time></trkpt><trkpt lat="37.852753542752" lon="13.710556815418323"><ele>371.0</ele><time>2026-04-30T12:22:35Z</time></trkpt><trkpt lat="37.85261651615854" lon="13.710595860256708"><ele>371.0</ele><time>2026-04-30T12:22:36Z</time></trkpt><trkpt lat="37.852468386074044" lon="13.710659936972927"><ele>371.0</ele><time>2026-04-30T12:22:37Z</time></trkpt><trkpt lat="37.85234450598197" lon="13.710752119054499"><ele>371.6</ele><time>2026-04-30T12:22:38Z</time></trkpt><trkpt lat="37.852255149061186" lon="13.710829355605666"><ele>372.20000000000005</ele><time>2026-04-30T12:22:39Z</time></trkpt><trkpt lat="37.852169257458144" lon="13.710879944331717"><ele>372.79999999999995</ele><time>2026-04-30T12:22:40Z</time></trkpt><trkpt lat="37.85207038225038" lon="13.710890099203072"><ele>373.4</ele><time>2026-04-30T12:22:41Z</time></trkpt><trkpt lat="37.851966236563555" lon="13.710843662751913"><ele>374.0</ele><time>2026-04-30T12:22:42Z</time></trkpt><trkpt lat="37.851867179179" lon="13.710762896006056"><ele>374.5</ele><time>2026-04-30T12:22:43Z</time></trkpt><trkpt lat="37.851772400889345" lon="13.710642686622004"><ele>375.0</ele><time>2026-04-30T12:22:44Z</time></trkpt><trkpt lat="37.851678817414744" lon="13.710511100417127"><ele>375.5</ele><time>2026-04-30T12:22:45Z</time></trkpt><trkpt lat="37.85159192174137" lon="13.710364410818944"><ele>376.0</ele><time>2026-04-30T12:22:46Z</time></trkpt><trkpt lat="37.85151113071355" lon="13.710211091639753"><ele>372.0</ele><time>2026-04-30T12:22:47Z</time></trkpt><trkpt lat="37.85144249990742" lon="13.71006530459118"><ele>368.0</ele><time>2026-04-30T12:22:48Z</time></trkpt><trkpt lat="37.85137636866783" lon="13.709924531931591"><ele>364.0</ele><time>2026-04-30T12:22:49Z</time></trkpt><trkpt lat="37.851326555890196" lon="13.709777770908275"><ele>360.0</ele><time>2026-04-30T12:22:50Z</time></trkpt><trkpt lat="37.851285411114624" lon="13.709618245701098"><ele>360.0</ele><time>2026-04-30T12:22:51Z</time></trkpt><trkpt lat="37.85125173712436" lon="13.7094631595207"><ele>360.0</ele><time>2026-04-30T12:22:52Z</time></trkpt><trkpt lat="37.85121983859977" lon="13.709314725616352"><ele>360.0</ele><time>2026-04-30T12:22:52.999Z</time></trkpt><trkpt lat="37.85118572754323" lon="13.70918610139889"><ele>360.0</ele><time>2026-04-30T12:22:53.999Z</time></trkpt><trkpt lat="37.85113528541769" lon="13.709077188601029"><ele>360.5</ele><time>2026-04-30T12:22:54.999Z</time></trkpt><trkpt lat="37.851052031925654" lon="13.708971851525032"><ele>361.0</ele><time>2026-04-30T12:22:55.999Z</time></trkpt><trkpt lat="37.85094749966864" lon="13.708883023434224"><ele>361.5</ele><time>2026-04-30T12:22:56.999Z</time></trkpt><trkpt lat="37.85083905137171" lon="13.708800268836315"><ele>362.0</ele><time>2026-04-30T12:22:57.999Z</time></trkpt><trkpt lat="37.850748127633615" lon="13.708724313398708"><ele>362.0</ele><time>2026-04-30T12:22:58.999Z</time></trkpt><trkpt lat="37.8506571436672" lon="13.708654826246798"><ele>362.0</ele><time>2026-04-30T12:22:59.999Z</time></trkpt><trkpt lat="37.850551799771296" lon="13.70858906829351"><ele>362.0</ele><time>2026-04-30T12:23:00.999Z</time></trkpt><trkpt lat="37.850429216531886" lon="13.708537252103145"><ele>362.0</ele><time>2026-04-30T12:23:01.999Z</time></trkpt><trkpt lat="37.85030419813456" lon="13.708507446482106"><ele>361.75</ele><time>2026-04-30T12:23:02.999Z</time></trkpt><trkpt lat="37.85019487147482" lon="13.708488484666248"><ele>361.5</ele><time>2026-04-30T12:23:03.999Z</time></trkpt><trkpt lat="37.85008335051106" lon="13.708488562009505"><ele>361.25</ele><time>2026-04-30T12:23:04.999Z</time></trkpt><trkpt lat="37.84996356610808" lon="13.708542673768012"><ele>361.0</ele><time>2026-04-30T12:23:05.999Z</time></trkpt><trkpt lat="37.849858751029046" lon="13.708645515195952"><ele>361.0</ele><time>2026-04-30T12:23:06.999Z</time></trkpt><trkpt lat="37.849788865448055" lon="13.708737483947994"><ele>361.0</ele><time>2026-04-30T12:23:07.999Z</time></trkpt><trkpt lat="37.84966670505878" lon="13.708764026861374"><ele>361.0</ele><time>2026-04-30T12:23:09.999Z</time></trkpt><trkpt lat="37.849605935170445" lon="13.708695520370533"><ele>361.0</ele><time>2026-04-30T12:23:10.999Z</time></trkpt><trkpt lat="37.84958133565953" lon="13.708584299357891"><ele>361.0</ele><time>2026-04-30T12:23:11.999Z</time></trkpt><trkpt lat="37.84960773324548" lon="13.708464624987904"><ele>356.5</ele><time>2026-04-30T12:23:12.999Z</time></trkpt><trkpt lat="37.84969201682888" lon="13.708380665135044"><ele>352.0</ele><time>2026-04-30T12:23:13.999Z</time></trkpt><trkpt lat="37.84982197855204" lon="13.708332262359468"><ele>347.5</ele><time>2026-04-30T12:23:14.999Z</time></trkpt><trkpt lat="37.84996235267536" lon="13.708304319741615"><ele>343.0</ele><time>2026-04-30T12:23:15.999Z</time></trkpt><trkpt lat="37.85008283396593" lon="13.70826355912386"><ele>343.25</ele><time>2026-04-30T12:23:16.999Z</time></trkpt><trkpt lat="37.85019787498307" lon="13.708214343998765"><ele>343.5</ele><time>2026-04-30T12:23:17.999Z</time></trkpt><trkpt lat="37.850309145013775" lon="13.708169049793808"><ele>343.75</ele><time>2026-04-30T12:23:18.999Z</time></trkpt><trkpt lat="37.85041895651285" lon="13.708128837820935"><ele>344.0</ele><time>2026-04-30T12:23:19.999Z</time></trkpt><trkpt lat="37.850535215726055" lon="13.708097189488985"><ele>344.0</ele><time>2026-04-30T12:23:20.999Z</time></trkpt><trkpt lat="37.85066431409924" lon="13.708085627134043"><ele>344.0</ele><time>2026-04-30T12:23:21.999Z</time></trkpt><trkpt lat="37.85080512853075" lon="13.708124020560932"><ele>344.0</ele><time>2026-04-30T12:23:22.999Z</time></trkpt><trkpt lat="37.85094328569814" lon="13.70818160418875"><ele>344.0</ele><time>2026-04-30T12:23:23.999Z</time></trkpt><trkpt lat="37.85107223391229" lon="13.708232390782246"><ele>342.25</ele><time>2026-04-30T12:23:24.999Z</time></trkpt><trkpt lat="37.85119037705694" lon="13.708268074145307"><ele>340.5</ele><time>2026-04-30T12:23:25.999Z</time></trkpt><trkpt lat="37.851319162605726" lon="13.70827578616145"><ele>338.75</ele><time>2026-04-30T12:23:26.999Z</time></trkpt><trkpt lat="37.85147093456929" lon="13.708274552335379"><ele>337.0</ele><time>2026-04-30T12:23:27.999Z</time></trkpt><trkpt lat="37.85162352205024" lon="13.708232677282327"><ele>337.0</ele><time>2026-04-30T12:23:28.999Z</time></trkpt><trkpt lat="37.851761237327494" lon="13.708173119138616"><ele>337.0</ele><time>2026-04-30T12:23:29.999Z</time></trkpt><trkpt lat="37.85190080137265" lon="13.708119168729246"><ele>337.0</ele><time>2026-04-30T12:23:30.999Z</time></trkpt><trkpt lat="37.85203937894696" lon="13.708075790726056"><ele>337.0</ele><time>2026-04-30T12:23:31.999Z</time></trkpt><trkpt lat="37.85216665001349" lon="13.70803890438436"><ele>334.75</ele><time>2026-04-30T12:23:32.999Z</time></trkpt><trkpt lat="37.85228316489676" lon="13.708021058776685"><ele>332.5</ele><time>2026-04-30T12:23:33.999Z</time></trkpt><trkpt lat="37.852390576848094" lon="13.708049768201478"><ele>330.25</ele><time>2026-04-30T12:23:34.999Z</time></trkpt><trkpt lat="37.852500123954854" lon="13.708135337990672"><ele>328.0</ele><time>2026-04-30T12:23:35.999Z</time></trkpt><trkpt lat="37.852585533752276" lon="13.708216520424106"><ele>328.0</ele><time>2026-04-30T12:23:36.999Z</time></trkpt><trkpt lat="37.85266036150315" lon="13.708233462002475"><ele>328.0</ele><time>2026-04-30T12:23:37.999Z</time></trkpt><trkpt lat="37.852725642676404" lon="13.70817625404673"><ele>328.0</ele><time>2026-04-30T12:23:38.999Z</time></trkpt><trkpt lat="37.852755521487985" lon="13.708068666209705"><ele>328.0</ele><time>2026-04-30T12:23:39.999Z</time></trkpt><trkpt lat="37.852741786783966" lon="13.70795173461552"><ele>328.0</ele><time>2026-04-30T12:23:40.999Z</time></trkpt><trkpt lat="37.85267823555516" lon="13.707864437773907"><ele>328.0</ele><time>2026-04-30T12:23:41.999Z</time></trkpt><trkpt lat="37.85257220417339" lon="13.707829677507469"><ele>328.0</ele><time>2026-04-30T12:23:42.999Z</time></trkpt><trkpt lat="37.85243824241575" lon="13.707839207214802"><ele>328.0</ele><time>2026-04-30T12:23:43.999Z</time></trkpt><trkpt lat="37.85229726593707" lon="13.707857556670477"><ele>328.0</ele><time>2026-04-30T12:23:44.999Z</time></trkpt><trkpt lat="37.852164711387324" lon="13.707847466964388"><ele>328.0</ele><time>2026-04-30T12:23:45.999Z</time></trkpt><trkpt lat="37.852031328863454" lon="13.70783255459824"><ele>328.0</ele><time>2026-04-30T12:23:46.999Z</time></trkpt><trkpt lat="37.851893772962484" lon="13.707831479705806"><ele>328.0</ele><time>2026-04-30T12:23:48Z</time></trkpt><trkpt lat="37.85175485522761" lon="13.70782114665229"><ele>328.0</ele><time>2026-04-30T12:23:49Z</time></trkpt><trkpt lat="37.851609869278064" lon="13.707800650500301"><ele>328.0</ele><time>2026-04-30T12:23:50Z</time></trkpt><trkpt lat="37.8514610312472" lon="13.707767974301174"><ele>326.0</ele><time>2026-04-30T12:23:51Z</time></trkpt><trkpt lat="37.85131955375686" lon="13.707729787649601"><ele>324.0</ele><time>2026-04-30T12:23:52Z</time></trkpt><trkpt lat="37.85118354201828" lon="13.70769119437196"><ele>322.0</ele><time>2026-04-30T12:23:53Z</time></trkpt><trkpt lat="37.85104667127042" lon="13.707647003810582"><ele>320.0</ele><time>2026-04-30T12:23:54Z</time></trkpt><trkpt lat="37.8509160062341" lon="13.70759226620483"><ele>320.0</ele><time>2026-04-30T12:23:55Z</time></trkpt><trkpt lat="37.8507834431533" lon="13.707523317978188"><ele>320.0</ele><time>2026-04-30T12:23:56Z</time></trkpt><trkpt lat="37.85065620560933" lon="13.707442851801838"><ele>320.0</ele><time>2026-04-30T12:23:57Z</time></trkpt><trkpt lat="37.85054117476873" lon="13.707340385066273"><ele>320.0</ele><time>2026-04-30T12:23:58Z</time></trkpt><trkpt lat="37.850441414111685" lon="13.707220327631825"><ele>320.0</ele><time>2026-04-30T12:23:59Z</time></trkpt><trkpt lat="37.85035214981066" lon="13.707094788526385"><ele>320.0</ele><time>2026-04-30T12:24:00Z</time></trkpt><trkpt lat="37.850251572919625" lon="13.706992182107733"><ele>320.0</ele><time>2026-04-30T12:24:01Z</time></trkpt><trkpt lat="37.85012483726563" lon="13.706928856678303"><ele>320.0</ele><time>2026-04-30T12:24:02Z</time></trkpt><trkpt lat="37.84998348001244" lon="13.706898259776972"><ele>320.75</ele><time>2026-04-30T12:24:03Z</time></trkpt><trkpt lat="37.84985520874568" lon="13.706898915696767"><ele>321.5</ele><time>2026-04-30T12:24:04Z</time></trkpt><trkpt lat="37.84975588801786" lon="13.706924804598072"><ele>322.25</ele><time>2026-04-30T12:24:05Z</time></trkpt><trkpt lat="37.84966170870627" lon="13.70699948506372"><ele>323.0</ele><time>2026-04-30T12:24:06Z</time></trkpt><trkpt lat="37.84957776186708" lon="13.707140124594037"><ele>323.0</ele><time>2026-04-30T12:24:07Z</time></trkpt><trkpt lat="37.84950207653846" lon="13.707289540194635"><ele>323.0</ele><time>2026-04-30T12:24:08Z</time></trkpt><trkpt lat="37.849409842212246" lon="13.707396402281189"><ele>323.0</ele><time>2026-04-30T12:24:09Z</time></trkpt><trkpt lat="37.849299452593726" lon="13.707458301424392"><ele>323.0</ele><time>2026-04-30T12:24:10Z</time></trkpt><trkpt lat="37.84918758583962" lon="13.707506652337718"><ele>319.83333333333337</ele><time>2026-04-30T12:24:11Z</time></trkpt><trkpt lat="37.84908398274153" lon="13.70755348527908"><ele>316.6666666666667</ele><time>2026-04-30T12:24:12Z</time></trkpt><trkpt lat="37.84899996513411" lon="13.70759511523572"><ele>313.5</ele><time>2026-04-30T12:24:13Z</time></trkpt><trkpt lat="37.84892904859418" lon="13.70761746120166"><ele>310.3333333333333</ele><time>2026-04-30T12:24:14Z</time></trkpt><trkpt lat="37.84885898955572" lon="13.707594291752274"><ele>307.16666666666663</ele><time>2026-04-30T12:24:15Z</time></trkpt><trkpt lat="37.84880397188969" lon="13.707508381931154"><ele>304.0</ele><time>2026-04-30T12:24:16Z</time></trkpt><trkpt lat="37.84880285110645" lon="13.70738581650485"><ele>304.0</ele><time>2026-04-30T12:24:17Z</time></trkpt><trkpt lat="37.84884973204815" lon="13.707282248187532"><ele>304.0</ele><time>2026-04-30T12:24:18Z</time></trkpt><trkpt lat="37.84894018052034" lon="13.707224247803873"><ele>304.0</ele><time>2026-04-30T12:24:19Z</time></trkpt><trkpt lat="37.84905613508544" lon="13.707220961089405"><ele>304.0</ele><time>2026-04-30T12:24:20Z</time></trkpt><trkpt lat="37.84916878979286" lon="13.707234935321154"><ele>304.0</ele><time>2026-04-30T12:24:21Z</time></trkpt><trkpt lat="37.84926357758063" lon="13.707194824698563"><ele>303.5</ele><time>2026-04-30T12:24:22Z</time></trkpt><trkpt lat="37.84934140523338" lon="13.707102822912256"><ele>303.0</ele><time>2026-04-30T12:24:23Z</time></trkpt><trkpt lat="37.84940007533598" lon="13.706974617482125"><ele>302.5</ele><time>2026-04-30T12:24:24Z</time></trkpt><trkpt lat="37.849449370547774" lon="13.706832663584793"><ele>302.0</ele><time>2026-04-30T12:24:25Z</time></trkpt><trkpt lat="37.84949796276434" lon="13.706677388247895"><ele>302.0</ele><time>2026-04-30T12:24:26Z</time></trkpt><trkpt lat="37.849548987121366" lon="13.70652236872007"><ele>302.0</ele><time>2026-04-30T12:24:27Z</time></trkpt><trkpt lat="37.84961033247015" lon="13.706391834057797"><ele>302.0</ele><time>2026-04-30T12:24:28Z</time></trkpt><trkpt lat="37.84968394530758" lon="13.706293028710007"><ele>302.0</ele><time>2026-04-30T12:24:29Z</time></trkpt><trkpt lat="37.84977675725637" lon="13.706230485113826"><ele>302.0</ele><time>2026-04-30T12:24:30Z</time></trkpt><trkpt lat="37.84990123202921" lon="13.706221571759349"><ele>302.0</ele><time>2026-04-30T12:24:31Z</time></trkpt><trkpt lat="37.850046517737646" lon="13.706213733232087"><ele>302.0</ele><time>2026-04-30T12:24:32Z</time></trkpt><trkpt lat="37.85019231514529" lon="13.706188680357167"><ele>302.0</ele><time>2026-04-30T12:24:33Z</time></trkpt><trkpt lat="37.85031890687295" lon="13.706171055233447"><ele>300.0</ele><time>2026-04-30T12:24:34Z</time></trkpt><trkpt lat="37.85043487176591" lon="13.706188110995026"><ele>298.0</ele><time>2026-04-30T12:24:35Z</time></trkpt><trkpt lat="37.8505515219979" lon="13.70624825576905"><ele>296.0</ele><time>2026-04-30T12:24:36Z</time></trkpt><trkpt lat="37.850659763694466" lon="13.70635950232694"><ele>294.0</ele><time>2026-04-30T12:24:37Z</time></trkpt><trkpt lat="37.850765316078856" lon="13.706482237135592"><ele>294.0</ele><time>2026-04-30T12:24:38Z</time></trkpt><trkpt lat="37.85087965482847" lon="13.70655993039254"><ele>294.0</ele><time>2026-04-30T12:24:39Z</time></trkpt><trkpt lat="37.851014127622506" lon="13.706582297320084"><ele>294.0</ele><time>2026-04-30T12:24:40Z</time></trkpt><trkpt lat="37.85116268169418" lon="13.706570686165529"><ele>294.0</ele><time>2026-04-30T12:24:41Z</time></trkpt><trkpt lat="37.85130342050363" lon="13.706551705850876"><ele>294.25</ele><time>2026-04-30T12:24:42Z</time></trkpt><trkpt lat="37.85143302793182" lon="13.706546701814288"><ele>294.5</ele><time>2026-04-30T12:24:43Z</time></trkpt><trkpt lat="37.8515571346744" lon="13.70654797070644"><ele>294.75</ele><time>2026-04-30T12:24:44Z</time></trkpt><trkpt lat="37.85168317843339" lon="13.706536409189994"><ele>295.0</ele><time>2026-04-30T12:24:45Z</time></trkpt><trkpt lat="37.851813125508684" lon="13.70647884620726"><ele>295.0</ele><time>2026-04-30T12:24:46Z</time></trkpt><trkpt lat="37.85192235706117" lon="13.706381151507399"><ele>295.0</ele><time>2026-04-30T12:24:47Z</time></trkpt><trkpt lat="37.85202632953458" lon="13.70625734294324"><ele>295.0</ele><time>2026-04-30T12:24:48Z</time></trkpt><trkpt lat="37.852106710213" lon="13.706114743328847"><ele>295.0</ele><time>2026-04-30T12:24:49Z</time></trkpt><trkpt lat="37.85217868128792" lon="13.705972004427325"><ele>286.0</ele><time>2026-04-30T12:24:50Z</time></trkpt><trkpt lat="37.85227354928087" lon="13.705855514537928"><ele>277.0</ele><time>2026-04-30T12:24:51Z</time></trkpt><trkpt lat="37.85241219845107" lon="13.705785366733275"><ele>268.0</ele><time>2026-04-30T12:24:52Z</time></trkpt><trkpt lat="37.85258036251366" lon="13.705735199777134"><ele>268.66666666666663</ele><time>2026-04-30T12:24:53Z</time></trkpt><trkpt lat="37.8527427606054" lon="13.705702211924418"><ele>269.3333333333333</ele><time>2026-04-30T12:24:54Z</time></trkpt><trkpt lat="37.85289980001098" lon="13.70563980024292"><ele>270.0</ele><time>2026-04-30T12:24:55Z</time></trkpt><trkpt lat="37.853047653517116" lon="13.705596977179592"><ele>270.0</ele><time>2026-04-30T12:24:56Z</time></trkpt><trkpt lat="37.8531805895539" lon="13.705561847117977"><ele>270.0</ele><time>2026-04-30T12:24:57Z</time></trkpt><trkpt lat="37.85330943326118" lon="13.705533553541368"><ele>270.0</ele><time>2026-04-30T12:24:58Z</time></trkpt><trkpt lat="37.85343976266468" lon="13.705522838687576"><ele>270.0</ele><time>2026-04-30T12:24:58.999Z</time></trkpt><trkpt lat="37.853577864492394" lon="13.705536295268542"><ele>268.5</ele><time>2026-04-30T12:24:59.999Z</time></trkpt><trkpt lat="37.853722581758" lon="13.705577832312784"><ele>267.0</ele><time>2026-04-30T12:25:00.999Z</time></trkpt><trkpt lat="37.853864421346934" lon="13.705625925633178"><ele>265.5</ele><time>2026-04-30T12:25:01.999Z</time></trkpt><trkpt lat="37.85399895246058" lon="13.705661248006827"><ele>264.0</ele><time>2026-04-30T12:25:02.999Z</time></trkpt><trkpt lat="37.854129491553124" lon="13.705690853577511"><ele>264.0</ele><time>2026-04-30T12:25:03.999Z</time></trkpt><trkpt lat="37.85425847507396" lon="13.705718215099433"><ele>264.0</ele><time>2026-04-30T12:25:04.999Z</time></trkpt><trkpt lat="37.85438673690967" lon="13.705744582540776"><ele>264.0</ele><time>2026-04-30T12:25:05.999Z</time></trkpt><trkpt lat="37.85451349888792" lon="13.705768402893115"><ele>264.0</ele><time>2026-04-30T12:25:06.999Z</time></trkpt><trkpt lat="37.85463494397339" lon="13.705760896429428"><ele>260.75</ele><time>2026-04-30T12:25:07.999Z</time></trkpt><trkpt lat="37.854743718479064" lon="13.705692402266212"><ele>257.5</ele><time>2026-04-30T12:25:08.999Z</time></trkpt><trkpt lat="37.85482214294516" lon="13.705580246386432"><ele>254.25</ele><time>2026-04-30T12:25:09.999Z</time></trkpt><trkpt lat="37.85485976949874" lon="13.705436649384776"><ele>251.0</ele><time>2026-04-30T12:25:10.999Z</time></trkpt><trkpt lat="37.85487012772959" lon="13.705279409894883"><ele>251.75</ele><time>2026-04-30T12:25:11.999Z</time></trkpt><trkpt lat="37.85484555610266" lon="13.705132452885081"><ele>252.5</ele><time>2026-04-30T12:25:12.999Z</time></trkpt><trkpt lat="37.85477302240861" lon="13.705020346759467"><ele>253.25</ele><time>2026-04-30T12:25:13.999Z</time></trkpt><trkpt lat="37.85466686036173" lon="13.704951495328793"><ele>254.0</ele><time>2026-04-30T12:25:14.999Z</time></trkpt><trkpt lat="37.854542960384045" lon="13.704902019558029"><ele>254.0</ele><time>2026-04-30T12:25:15.999Z</time></trkpt><trkpt lat="37.85442823610055" lon="13.704846490163694"><ele>254.0</ele><time>2026-04-30T12:25:16.999Z</time></trkpt><trkpt lat="37.85432034133842" lon="13.704779244334013"><ele>254.0</ele><time>2026-04-30T12:25:17.999Z</time></trkpt><trkpt lat="37.8542151463586" lon="13.704708431016357"><ele>254.0</ele><time>2026-04-30T12:25:18.999Z</time></trkpt><trkpt lat="37.85410977190591" lon="13.704642073399805"><ele>253.25</ele><time>2026-04-30T12:25:19.999Z</time></trkpt><trkpt lat="37.85399415588794" lon="13.704590075911296"><ele>252.5</ele><time>2026-04-30T12:25:20.999Z</time></trkpt><trkpt lat="37.85386760416548" lon="13.704554329161876"><ele>251.75</ele><time>2026-04-30T12:25:21.999Z</time></trkpt><trkpt lat="37.85373369154944" lon="13.704539470226617"><ele>251.0</ele><time>2026-04-30T12:25:22.999Z</time></trkpt><trkpt lat="37.8536031527434" lon="13.70452970972704"><ele>251.0</ele><time>2026-04-30T12:25:23.999Z</time></trkpt><trkpt lat="37.85347292112671" lon="13.704513868701769"><ele>251.0</ele><time>2026-04-30T12:25:24.999Z</time></trkpt><trkpt lat="37.85334376868024" lon="13.704491638809783"><ele>251.0</ele><time>2026-04-30T12:25:25.999Z</time></trkpt><trkpt lat="37.85321541652165" lon="13.704480313485433"><ele>251.0</ele><time>2026-04-30T12:25:26.999Z</time></trkpt><trkpt lat="37.85308639128976" lon="13.70446922945678"><ele>249.75</ele><time>2026-04-30T12:25:27.999Z</time></trkpt><trkpt lat="37.852955998576185" lon="13.704444489959835"><ele>248.5</ele><time>2026-04-30T12:25:28.999Z</time></trkpt><trkpt lat="37.85282556470499" lon="13.704426671536373"><ele>247.25</ele><time>2026-04-30T12:25:29.999Z</time></trkpt><trkpt lat="37.8526952443409" lon="13.704416456283194"><ele>246.0</ele><time>2026-04-30T12:25:30.999Z</time></trkpt><trkpt lat="37.85256562531614" lon="13.704398765702965"><ele>242.75</ele><time>2026-04-30T12:25:31.999Z</time></trkpt><trkpt lat="37.852437671991204" lon="13.70437438713623"><ele>239.5</ele><time>2026-04-30T12:25:32.999Z</time></trkpt><trkpt lat="37.852309618822716" lon="13.704356429219159"><ele>236.25</ele><time>2026-04-30T12:25:33.999Z</time></trkpt><trkpt lat="37.85218213766768" lon="13.704342377879513"><ele>233.0</ele><time>2026-04-30T12:25:34.999Z</time></trkpt><trkpt lat="37.8520606609885" lon="13.70434019622994"><ele>233.0</ele><time>2026-04-30T12:25:35.999Z</time></trkpt><trkpt lat="37.851947083681374" lon="13.704374336470662"><ele>233.0</ele><time>2026-04-30T12:25:36.999Z</time></trkpt><trkpt lat="37.851851154403654" lon="13.70446389158568"><ele>233.0</ele><time>2026-04-30T12:25:37.999Z</time></trkpt><trkpt lat="37.851782084970544" lon="13.704593441915888"><ele>233.0</ele><time>2026-04-30T12:25:38.999Z</time></trkpt><trkpt lat="37.85172812113702" lon="13.704728254539633"><ele>233.60000000000002</ele><time>2026-04-30T12:25:39.999Z</time></trkpt><trkpt lat="37.851665376555644" lon="13.704839469923174"><ele>234.20000000000002</ele><time>2026-04-30T12:25:40.999Z</time></trkpt><trkpt lat="37.85159590985291" lon="13.704899190020367"><ele>234.8</ele><time>2026-04-30T12:25:41.999Z</time></trkpt><trkpt lat="37.851499593315864" lon="13.7048829629082"><ele>235.4</ele><time>2026-04-30T12:25:42.999Z</time></trkpt><trkpt lat="37.85140711319163" lon="13.704797349530761"><ele>236.0</ele><time>2026-04-30T12:25:43.999Z</time></trkpt><trkpt lat="37.85134507278567" lon="13.704662719383693"><ele>236.0</ele><time>2026-04-30T12:25:44.999Z</time></trkpt><trkpt lat="37.85131483384587" lon="13.704511863559974"><ele>236.0</ele><time>2026-04-30T12:25:45.999Z</time></trkpt><trkpt lat="37.85125976313837" lon="13.704394232833126"><ele>236.0</ele><time>2026-04-30T12:25:46.999Z</time></trkpt><trkpt lat="37.85116063700249" lon="13.704333146317783"><ele>236.0</ele><time>2026-04-30T12:25:47.999Z</time></trkpt><trkpt lat="37.851034449803535" lon="13.704329115015252"><ele>230.25</ele><time>2026-04-30T12:25:48.999Z</time></trkpt><trkpt lat="37.85089725633961" lon="13.704345653964506"><ele>224.5</ele><time>2026-04-30T12:25:49.999Z</time></trkpt><trkpt lat="37.850758812753334" lon="13.704343374251176"><ele>218.75</ele><time>2026-04-30T12:25:50.999Z</time></trkpt><trkpt lat="37.85063036279637" lon="13.704313592885926"><ele>213.0</ele><time>2026-04-30T12:25:51.999Z</time></trkpt><trkpt lat="37.8505133268958" lon="13.704246430008759"><ele>213.0</ele><time>2026-04-30T12:25:52.999Z</time></trkpt><trkpt lat="37.85041207415015" lon="13.704147799406668"><ele>213.0</ele><time>2026-04-30T12:25:54Z</time></trkpt><trkpt lat="37.85032619893942" lon="13.704029715538239"><ele>213.0</ele><time>2026-04-30T12:25:55Z</time></trkpt><trkpt lat="37.85023854010706" lon="13.703924207578615"><ele>213.0</ele><time>2026-04-30T12:25:56Z</time></trkpt><trkpt lat="37.85014007243475" lon="13.703870450336558"><ele>213.75</ele><time>2026-04-30T12:25:57Z</time></trkpt><trkpt lat="37.850028593499644" lon="13.70388267264266"><ele>214.5</ele><time>2026-04-30T12:25:58Z</time></trkpt><trkpt lat="37.84991084074148" lon="13.703959051007788"><ele>215.25</ele><time>2026-04-30T12:25:59Z</time></trkpt><trkpt lat="37.849788492858075" lon="13.704044907609227"><ele>216.0</ele><time>2026-04-30T12:26:00Z</time></trkpt><trkpt lat="37.849663161203665" lon="13.704112551086384"><ele>216.0</ele><time>2026-04-30T12:26:01Z</time></trkpt><trkpt lat="37.849534272820804" lon="13.70417167771865"><ele>216.0</ele><time>2026-04-30T12:26:02Z</time></trkpt><trkpt lat="37.849404129539195" lon="13.704227752287562"><ele>216.0</ele><time>2026-04-30T12:26:03Z</time></trkpt><trkpt lat="37.84926983716374" lon="13.704278708311074"><ele>216.0</ele><time>2026-04-30T12:26:04Z</time></trkpt><trkpt lat="37.84913807522712" lon="13.704337055331633"><ele>212.0</ele><time>2026-04-30T12:26:05Z</time></trkpt><trkpt lat="37.84901038063195" lon="13.704381313140914"><ele>208.0</ele><time>2026-04-30T12:26:06Z</time></trkpt><trkpt lat="37.848872738084374" lon="13.70440315220752"><ele>204.0</ele><time>2026-04-30T12:26:07Z</time></trkpt><trkpt lat="37.84874387557854" lon="13.704440640290617"><ele>200.0</ele><time>2026-04-30T12:26:08Z</time></trkpt><trkpt lat="37.84861848712169" lon="13.704475040683677"><ele>202.5</ele><time>2026-04-30T12:26:09Z</time></trkpt><trkpt lat="37.84849058290381" lon="13.704512089015655"><ele>205.0</ele><time>2026-04-30T12:26:10Z</time></trkpt><trkpt lat="37.84836655388907" lon="13.70455329948027"><ele>207.5</ele><time>2026-04-30T12:26:11Z</time></trkpt><trkpt lat="37.848242052779526" lon="13.70459563042004"><ele>210.0</ele><time>2026-04-30T12:26:12Z</time></trkpt><trkpt lat="37.84812134520706" lon="13.70461450641816"><ele>210.0</ele><time>2026-04-30T12:26:13Z</time></trkpt><trkpt lat="37.84800199206755" lon="13.70458716904207"><ele>210.0</ele><time>2026-04-30T12:26:14Z</time></trkpt><trkpt lat="37.84788933209361" lon="13.704508934187952"><ele>210.0</ele><time>2026-04-30T12:26:15Z</time></trkpt><trkpt lat="37.84779741214207" lon="13.70439533320738"><ele>210.0</ele><time>2026-04-30T12:26:16Z</time></trkpt><trkpt lat="37.847738058288314" lon="13.704247635247201"><ele>205.5</ele><time>2026-04-30T12:26:17Z</time></trkpt><trkpt lat="37.84770703670494" lon="13.704073903506055"><ele>201.0</ele><time>2026-04-30T12:26:18Z</time></trkpt><trkpt lat="37.84768847696287" lon="13.703899616684533"><ele>196.5</ele><time>2026-04-30T12:26:19Z</time></trkpt><trkpt lat="37.84766776167623" lon="13.703730580428116"><ele>192.0</ele><time>2026-04-30T12:26:20Z</time></trkpt><trkpt lat="37.847642873975325" lon="13.703567650602807"><ele>192.0</ele><time>2026-04-30T12:26:21Z</time></trkpt><trkpt lat="37.847619711598306" lon="13.703407371108197"><ele>192.0</ele><time>2026-04-30T12:26:22Z</time></trkpt><trkpt lat="37.84759836091281" lon="13.703249472417076"><ele>192.0</ele><time>2026-04-30T12:26:23Z</time></trkpt><trkpt lat="37.84761496647903" lon="13.703085529021118"><ele>192.0</ele><time>2026-04-30T12:26:24Z</time></trkpt><trkpt lat="37.84767075613438" lon="13.702927499774447"><ele>191.5</ele><time>2026-04-30T12:26:25Z</time></trkpt><trkpt lat="37.847765063773245" lon="13.702801694220936"><ele>191.0</ele><time>2026-04-30T12:26:26Z</time></trkpt><trkpt lat="37.847879328257115" lon="13.702706968636361"><ele>190.5</ele><time>2026-04-30T12:26:27Z</time></trkpt><trkpt lat="37.847999059315" lon="13.70262766724226"><ele>190.0</ele><time>2026-04-30T12:26:28Z</time></trkpt><trkpt lat="37.84811261497666" lon="13.702544075700862"><ele>190.0</ele><time>2026-04-30T12:26:29Z</time></trkpt><trkpt lat="37.84822023769968" lon="13.702450712153038"><ele>190.0</ele><time>2026-04-30T12:26:30Z</time></trkpt><trkpt lat="37.848324337436864" lon="13.702349519890374"><ele>190.0</ele><time>2026-04-30T12:26:31Z</time></trkpt><trkpt lat="37.848412350158185" lon="13.702223257660387"><ele>190.0</ele><time>2026-04-30T12:26:32Z</time></trkpt><trkpt lat="37.8484778123907" lon="13.702070748966817"><ele>189.0</ele><time>2026-04-30T12:26:33Z</time></trkpt><trkpt lat="37.84852962739078" lon="13.701899996611532"><ele>188.0</ele><time>2026-04-30T12:26:34Z</time></trkpt><trkpt lat="37.84858029207236" lon="13.701722765116035"><ele>187.0</ele><time>2026-04-30T12:26:35Z</time></trkpt><trkpt lat="37.848641635786834" lon="13.701543086593501"><ele>186.0</ele><time>2026-04-30T12:26:36Z</time></trkpt><trkpt lat="37.84871587314762" lon="13.701362974913573"><ele>186.0</ele><time>2026-04-30T12:26:37Z</time></trkpt><trkpt lat="37.84880163466849" lon="13.701185060256053"><ele>186.0</ele><time>2026-04-30T12:26:38Z</time></trkpt><trkpt lat="37.84889809884395" lon="13.701013879585432"><ele>186.0</ele><time>2026-04-30T12:26:39Z</time></trkpt><trkpt lat="37.848999528124885" lon="13.700847849921182"><ele>187.0</ele><time>2026-04-30T12:26:40Z</time></trkpt><trkpt lat="37.849101988733565" lon="13.700680031042005"><ele>188.0</ele><time>2026-04-30T12:26:41Z</time></trkpt><trkpt lat="37.849201856074146" lon="13.700506557599814"><ele>189.0</ele><time>2026-04-30T12:26:42Z</time></trkpt><trkpt lat="37.84930584044961" lon="13.700327409593125"><ele>187.33333333333334</ele><time>2026-04-30T12:26:43Z</time></trkpt><trkpt lat="37.84941244569132" lon="13.700146207460238"><ele>185.66666666666669</ele><time>2026-04-30T12:26:44Z</time></trkpt><trkpt lat="37.849528380376476" lon="13.699964190627675"><ele>184.0</ele><time>2026-04-30T12:26:45Z</time></trkpt><trkpt lat="37.84965210709195" lon="13.69978345314899"><ele>184.0</ele><time>2026-04-30T12:26:46Z</time></trkpt><trkpt lat="37.8497811289415" lon="13.69960120179635"><ele>184.0</ele><time>2026-04-30T12:26:47Z</time></trkpt><trkpt lat="37.84990474964623" lon="13.699417663473634"><ele>184.0</ele><time>2026-04-30T12:26:48Z</time></trkpt><trkpt lat="37.85003284101013" lon="13.699237178929062"><ele>182.0</ele><time>2026-04-30T12:26:49Z</time></trkpt><trkpt lat="37.85015549351871" lon="13.699062608168784"><ele>180.0</ele><time>2026-04-30T12:26:50Z</time></trkpt><trkpt lat="37.850268971140096" lon="13.698896557605657"><ele>178.0</ele><time>2026-04-30T12:26:51Z</time></trkpt><trkpt lat="37.8503788617693" lon="13.69873772693622"><ele>179.66666666666669</ele><time>2026-04-30T12:26:51.999Z</time></trkpt><trkpt lat="37.850488249171775" lon="13.698582467079683"><ele>181.33333333333334</ele><time>2026-04-30T12:26:52.999Z</time></trkpt><trkpt lat="37.85058946458513" lon="13.698436144919706"><ele>183.0</ele><time>2026-04-30T12:26:53.999Z</time></trkpt><trkpt lat="37.85068437728913" lon="13.69828576198938"><ele>183.0</ele><time>2026-04-30T12:26:54.999Z</time></trkpt><trkpt lat="37.85076054483759" lon="13.698127614515252"><ele>183.0</ele><time>2026-04-30T12:26:55.999Z</time></trkpt><trkpt lat="37.85080844544315" lon="13.697944834950118"><ele>183.0</ele><time>2026-04-30T12:26:56.999Z</time></trkpt><trkpt lat="37.85086720417106" lon="13.697773285401409"><ele>183.0</ele><time>2026-04-30T12:26:57.999Z</time></trkpt><trkpt lat="37.85092353334281" lon="13.697591503668393"><ele>182.25</ele><time>2026-04-30T12:26:58.999Z</time></trkpt><trkpt lat="37.85097425123291" lon="13.697417823502507"><ele>181.5</ele><time>2026-04-30T12:26:59.999Z</time></trkpt><trkpt lat="37.85103007056527" lon="13.697245487380869"><ele>180.75</ele><time>2026-04-30T12:27:00.999Z</time></trkpt><trkpt lat="37.8510928614687" lon="13.697076737856126"><ele>180.0</ele><time>2026-04-30T12:27:01.999Z</time></trkpt><trkpt lat="37.851172018966324" lon="13.696911893963431"><ele>180.0</ele><time>2026-04-30T12:27:02.999Z</time></trkpt><trkpt lat="37.85126143692016" lon="13.69675452115497"><ele>180.0</ele><time>2026-04-30T12:27:03.999Z</time></trkpt><trkpt lat="37.85135071969147" lon="13.696606553504326"><ele>180.0</ele><time>2026-04-30T12:27:04.999Z</time></trkpt><trkpt lat="37.85143995207328" lon="13.696457856743303"><ele>180.0</ele><time>2026-04-30T12:27:05.999Z</time></trkpt><trkpt lat="37.851527616663944" lon="13.69631092351995"><ele>180.0</ele><time>2026-04-30T12:27:06.999Z</time></trkpt><trkpt lat="37.85161272200651" lon="13.696175636392637"><ele>180.0</ele><time>2026-04-30T12:27:07.999Z</time></trkpt><trkpt lat="37.85168074909101" lon="13.696060942589028"><ele>180.0</ele><time>2026-04-30T12:27:08.999Z</time></trkpt><trkpt lat="37.85172043517563" lon="13.695981834866641"><ele>180.0</ele><time>2026-04-30T12:27:09.999Z</time></trkpt><trkpt lat="37.8517371981619" lon="13.695855344657293"><ele>180.0</ele><time>2026-04-30T12:27:11.999Z</time></trkpt><trkpt lat="37.8516930780076" lon="13.695761824854513"><ele>181.6</ele><time>2026-04-30T12:27:14.999Z</time></trkpt><trkpt lat="37.8516221303915" lon="13.695689887585052"><ele>183.2</ele><time>2026-04-30T12:27:16.999Z</time></trkpt><trkpt lat="37.8515565764834" lon="13.695632271770872"><ele>184.8</ele><time>2026-04-30T12:27:17.999Z</time></trkpt><trkpt lat="37.85148329828552" lon="13.695563077803135"><ele>186.4</ele><time>2026-04-30T12:27:18.999Z</time></trkpt><trkpt lat="37.85140410092336" lon="13.695488987412135"><ele>188.0</ele><time>2026-04-30T12:27:19.999Z</time></trkpt><trkpt lat="37.85132404582979" lon="13.695411679975694"><ele>188.0</ele><time>2026-04-30T12:27:20.999Z</time></trkpt><trkpt lat="37.85123248521552" lon="13.695324335762363"><ele>188.0</ele><time>2026-04-30T12:27:21.999Z</time></trkpt><trkpt lat="37.8511447829576" lon="13.695238062746688"><ele>188.0</ele><time>2026-04-30T12:27:22.999Z</time></trkpt><trkpt lat="37.85104923122897" lon="13.69514887739808"><ele>188.0</ele><time>2026-04-30T12:27:23.999Z</time></trkpt><trkpt lat="37.85093711631632" lon="13.695069113723518"><ele>189.0</ele><time>2026-04-30T12:27:24.999Z</time></trkpt><trkpt lat="37.850804749495154" lon="13.695003809672654"><ele>190.0</ele><time>2026-04-30T12:27:25.999Z</time></trkpt><trkpt lat="37.85065016714838" lon="13.694966833161686"><ele>191.0</ele><time>2026-04-30T12:27:26.999Z</time></trkpt><trkpt lat="37.85048820510245" lon="13.69494403517891"><ele>191.0</ele><time>2026-04-30T12:27:27.999Z</time></trkpt><trkpt lat="37.850332882201535" lon="13.694923464012827"><ele>191.0</ele><time>2026-04-30T12:27:28.999Z</time></trkpt><trkpt lat="37.850172009349784" lon="13.694903834906395"><ele>191.0</ele><time>2026-04-30T12:27:29.999Z</time></trkpt><trkpt lat="37.850005372663595" lon="13.694886471421091"><ele>190.0</ele><time>2026-04-30T12:27:30.999Z</time></trkpt><trkpt lat="37.84983351941336" lon="13.694865177704672"><ele>189.0</ele><time>2026-04-30T12:27:31.999Z</time></trkpt><trkpt lat="37.84966025338958" lon="13.69484346588504"><ele>188.0</ele><time>2026-04-30T12:27:32.999Z</time></trkpt><trkpt lat="37.84949607931516" lon="13.69482385006123"><ele>188.0</ele><time>2026-04-30T12:27:33.999Z</time></trkpt><trkpt lat="37.84933600456933" lon="13.694805086999251"><ele>188.0</ele><time>2026-04-30T12:27:34.999Z</time></trkpt><trkpt lat="37.84918165041653" lon="13.69478730349072"><ele>188.0</ele><time>2026-04-30T12:27:35.999Z</time></trkpt><trkpt lat="37.84902435052666" lon="13.694767873891893"><ele>188.0</ele><time>2026-04-30T12:27:36.999Z</time></trkpt><trkpt lat="37.848863797138094" lon="13.69475094428037"><ele>188.0</ele><time>2026-04-30T12:27:37.999Z</time></trkpt><trkpt lat="37.84870333723392" lon="13.694731075528479"><ele>188.0</ele><time>2026-04-30T12:27:38.999Z</time></trkpt><trkpt lat="37.84854832816961" lon="13.694706756270493"><ele>188.5</ele><time>2026-04-30T12:27:39.999Z</time></trkpt><trkpt lat="37.848399818754736" lon="13.694684156316645"><ele>189.0</ele><time>2026-04-30T12:27:40.999Z</time></trkpt><trkpt lat="37.8482547508126" lon="13.694667840989048"><ele>189.5</ele><time>2026-04-30T12:27:41.999Z</time></trkpt><trkpt lat="37.84811301706678" lon="13.694662667437544"><ele>190.0</ele><time>2026-04-30T12:27:42.999Z</time></trkpt><trkpt lat="37.84797517788769" lon="13.694657370114246"><ele>190.0</ele><time>2026-04-30T12:27:43.999Z</time></trkpt><trkpt lat="37.847843999706335" lon="13.69462654136218"><ele>190.0</ele><time>2026-04-30T12:27:44.999Z</time></trkpt><trkpt lat="37.847723659346535" lon="13.694567792953407"><ele>190.0</ele><time>2026-04-30T12:27:45.999Z</time></trkpt><trkpt lat="37.84761475089863" lon="13.694487325434952"><ele>190.0</ele><time>2026-04-30T12:27:46.999Z</time></trkpt><trkpt lat="37.84752592088152" lon="13.69438698479859"><ele>186.25</ele><time>2026-04-30T12:27:47.999Z</time></trkpt><trkpt lat="37.84745848490262" lon="13.694269306094013"><ele>182.5</ele><time>2026-04-30T12:27:48.999Z</time></trkpt><trkpt lat="37.84740611828076" lon="13.694130941317953"><ele>178.75</ele><time>2026-04-30T12:27:49.999Z</time></trkpt><trkpt lat="37.84736623122487" lon="13.693967126913334"><ele>175.0</ele><time>2026-04-30T12:27:50.999Z</time></trkpt><trkpt lat="37.84732556301179" lon="13.693796458424195"><ele>175.0</ele><time>2026-04-30T12:27:51.999Z</time></trkpt><trkpt lat="37.84727454773498" lon="13.693624148094065"><ele>175.0</ele><time>2026-04-30T12:27:52.999Z</time></trkpt><trkpt lat="37.84721678474565" lon="13.693450307499313"><ele>175.0</ele><time>2026-04-30T12:27:53.999Z</time></trkpt><trkpt lat="37.84715526079788" lon="13.693273688342108"><ele>175.0</ele><time>2026-04-30T12:27:54.999Z</time></trkpt><trkpt lat="37.84709159419736" lon="13.693093494976761"><ele>174.66666666666669</ele><time>2026-04-30T12:27:55.999Z</time></trkpt><trkpt lat="37.84702908899054" lon="13.692907627485743"><ele>174.33333333333334</ele><time>2026-04-30T12:27:56.999Z</time></trkpt><trkpt lat="37.84696689731326" lon="13.692710164019289"><ele>174.0</ele><time>2026-04-30T12:27:57.999Z</time></trkpt><trkpt lat="37.84690249136609" lon="13.692507888787723"><ele>174.0</ele><time>2026-04-30T12:27:58.999Z</time></trkpt><trkpt lat="37.846836172824034" lon="13.692301674126016"><ele>174.0</ele><time>2026-04-30T12:28:00Z</time></trkpt><trkpt lat="37.84676646557848" lon="13.692091895682903"><ele>174.0</ele><time>2026-04-30T12:28:01Z</time></trkpt><trkpt lat="37.846696174655804" lon="13.691883183280487"><ele>174.33333333333334</ele><time>2026-04-30T12:28:02Z</time></trkpt><trkpt lat="37.84662622581327" lon="13.691676487842901"><ele>174.66666666666669</ele><time>2026-04-30T12:28:03Z</time></trkpt><trkpt lat="37.84655554980595" lon="13.691472451325144"><ele>175.0</ele><time>2026-04-30T12:28:04Z</time></trkpt><trkpt lat="37.846492031615625" lon="13.69126980334068"><ele>175.66666666666669</ele><time>2026-04-30T12:28:05Z</time></trkpt><trkpt lat="37.846429235050046" lon="13.69106529808527"><ele>176.33333333333334</ele><time>2026-04-30T12:28:06Z</time></trkpt><trkpt lat="37.846364559355955" lon="13.690858536961926"><ele>177.0</ele><time>2026-04-30T12:28:07Z</time></trkpt><trkpt lat="37.846296711345026" lon="13.690657536064892"><ele>177.0</ele><time>2026-04-30T12:28:08Z</time></trkpt><trkpt lat="37.8462285342843" lon="13.69046105557192"><ele>177.0</ele><time>2026-04-30T12:28:09Z</time></trkpt><trkpt lat="37.84616597726304" lon="13.690262916894742"><ele>177.0</ele><time>2026-04-30T12:28:10Z</time></trkpt><trkpt lat="37.84610415134671" lon="13.690063156911451"><ele>177.33333333333334</ele><time>2026-04-30T12:28:11Z</time></trkpt><trkpt lat="37.846038272195415" lon="13.68986580936575"><ele>177.66666666666669</ele><time>2026-04-30T12:28:12Z</time></trkpt><trkpt lat="37.84597125994226" lon="13.689666370801055"><ele>178.0</ele><time>2026-04-30T12:28:13Z</time></trkpt><trkpt lat="37.84590700677028" lon="13.689469792418695"><ele>180.33333333333334</ele><time>2026-04-30T12:28:14Z</time></trkpt><trkpt lat="37.84584253661866" lon="13.689271306710637"><ele>182.66666666666666</ele><time>2026-04-30T12:28:15Z</time></trkpt><trkpt lat="37.84576363172526" lon="13.68906938809003"><ele>185.0</ele><time>2026-04-30T12:28:16Z</time></trkpt><trkpt lat="37.84566537594257" lon="13.688871257394"><ele>185.0</ele><time>2026-04-30T12:28:17Z</time></trkpt><trkpt lat="37.84555275517183" lon="13.688677604940944"><ele>185.0</ele><time>2026-04-30T12:28:18Z</time></trkpt><trkpt lat="37.84544240036908" lon="13.688481585224592"><ele>185.0</ele><time>2026-04-30T12:28:19Z</time></trkpt><trkpt lat="37.84533567655213" lon="13.68828094456872"><ele>187.33333333333331</ele><time>2026-04-30T12:28:20Z</time></trkpt><trkpt lat="37.84523378400556" lon="13.688090205704869"><ele>189.66666666666666</ele><time>2026-04-30T12:28:21Z</time></trkpt><trkpt lat="37.845133681386386" lon="13.687906165232645"><ele>192.0</ele><time>2026-04-30T12:28:22Z</time></trkpt><trkpt lat="37.845042162402905" lon="13.687727572287013"><ele>192.0</ele><time>2026-04-30T12:28:23Z</time></trkpt><trkpt lat="37.84496125424269" lon="13.687565774352892"><ele>192.0</ele><time>2026-04-30T12:28:24Z</time></trkpt><trkpt lat="37.844908309218724" lon="13.687425637195986"><ele>192.0</ele><time>2026-04-30T12:28:25Z</time></trkpt><trkpt lat="37.84489956025916" lon="13.687286441920142"><ele>192.0</ele><time>2026-04-30T12:28:26Z</time></trkpt><trkpt lat="37.844935121703" lon="13.6871491445863"><ele>192.0</ele><time>2026-04-30T12:28:27Z</time></trkpt><trkpt lat="37.84501009657187" lon="13.687019930501842"><ele>192.0</ele><time>2026-04-30T12:28:28Z</time></trkpt><trkpt lat="37.845119110635544" lon="13.686928185411825"><ele>192.0</ele><time>2026-04-30T12:28:29Z</time></trkpt><trkpt lat="37.845244372386674" lon="13.686883445972816"><ele>192.0</ele><time>2026-04-30T12:28:30Z</time></trkpt><trkpt lat="37.84537096415317" lon="13.686870648573203"><ele>195.5</ele><time>2026-04-30T12:28:31Z</time></trkpt><trkpt lat="37.8454932119088" lon="13.686866252770002"><ele>199.0</ele><time>2026-04-30T12:28:32Z</time></trkpt><trkpt lat="37.84561450169134" lon="13.686854710563782"><ele>202.5</ele><time>2026-04-30T12:28:33Z</time></trkpt><trkpt lat="37.845724931882536" lon="13.686791026489168"><ele>206.0</ele><time>2026-04-30T12:28:34Z</time></trkpt><trkpt lat="37.84581007174343" lon="13.68668872826607"><ele>206.0</ele><time>2026-04-30T12:28:35Z</time></trkpt><trkpt lat="37.845865996072504" lon="13.6865644802328"><ele>206.0</ele><time>2026-04-30T12:28:36Z</time></trkpt><trkpt lat="37.84587932883554" lon="13.686413000829896"><ele>206.0</ele><time>2026-04-30T12:28:37Z</time></trkpt><trkpt lat="37.845856986415605" lon="13.686234607315091"><ele>206.0</ele><time>2026-04-30T12:28:38Z</time></trkpt><trkpt lat="37.845815914340584" lon="13.686045731276186"><ele>206.66666666666669</ele><time>2026-04-30T12:28:39Z</time></trkpt><trkpt lat="37.84577970383323" lon="13.685854802632358"><ele>207.33333333333331</ele><time>2026-04-30T12:28:40Z</time></trkpt><trkpt lat="37.845753512549265" lon="13.685656095617382"><ele>208.0</ele><time>2026-04-30T12:28:41Z</time></trkpt><trkpt lat="37.84573227855034" lon="13.685457887962828"><ele>208.25</ele><time>2026-04-30T12:28:42Z</time></trkpt><trkpt lat="37.84571070297834" lon="13.685261309557859"><ele>208.5</ele><time>2026-04-30T12:28:43Z</time></trkpt><trkpt lat="37.84568996988463" lon="13.685079642982666"><ele>208.75</ele><time>2026-04-30T12:28:44Z</time></trkpt><trkpt lat="37.84567388286399" lon="13.684913101995301"><ele>209.0</ele><time>2026-04-30T12:28:45Z</time></trkpt><trkpt lat="37.84567399611828" lon="13.68475890528101"><ele>209.0</ele><time>2026-04-30T12:28:46Z</time></trkpt><trkpt lat="37.84570257632588" lon="13.684626348013007"><ele>209.0</ele><time>2026-04-30T12:28:47Z</time></trkpt><trkpt lat="37.84575817241178" lon="13.684510284224682"><ele>209.0</ele><time>2026-04-30T12:28:48Z</time></trkpt><trkpt lat="37.84583125333159" lon="13.684419339183618"><ele>209.0</ele><time>2026-04-30T12:28:49Z</time></trkpt><trkpt lat="37.8459198677132" lon="13.684357211057035"><ele>209.0</ele><time>2026-04-30T12:28:50Z</time></trkpt><trkpt lat="37.846032798246895" lon="13.684323012645777"><ele>209.25</ele><time>2026-04-30T12:28:51Z</time></trkpt><trkpt lat="37.84616366722995" lon="13.684315515350331"><ele>209.5</ele><time>2026-04-30T12:28:52Z</time></trkpt><trkpt lat="37.84630103268405" lon="13.68432960175719"><ele>209.75</ele><time>2026-04-30T12:28:53Z</time></trkpt><trkpt lat="37.846428101527955" lon="13.68434564765883"><ele>210.0</ele><time>2026-04-30T12:28:54Z</time></trkpt><trkpt lat="37.84654915220282" lon="13.684354213579557"><ele>210.0</ele><time>2026-04-30T12:28:55Z</time></trkpt><trkpt lat="37.84667207546378" lon="13.684365108401483"><ele>210.0</ele><time>2026-04-30T12:28:56Z</time></trkpt><trkpt lat="37.84679316193495" lon="13.684380336615279"><ele>210.0</ele><time>2026-04-30T12:28:56.999Z</time></trkpt><trkpt lat="37.8469008664348" lon="13.684396864866269"><ele>210.0</ele><time>2026-04-30T12:28:57.999Z</time></trkpt><trkpt lat="37.84701447129966" lon="13.684407341951063"><ele>211.6</ele><time>2026-04-30T12:28:58.999Z</time></trkpt><trkpt lat="37.84712640987772" lon="13.684406800988404"><ele>213.2</ele><time>2026-04-30T12:28:59.999Z</time></trkpt><trkpt lat="37.84722531330521" lon="13.684366723399357"><ele>214.8</ele><time>2026-04-30T12:29:00.999Z</time></trkpt><trkpt lat="37.84730015360679" lon="13.684287611790072"><ele>216.4</ele><time>2026-04-30T12:29:01.999Z</time></trkpt><trkpt lat="37.84734356487872" lon="13.68418496125372"><ele>218.0</ele><time>2026-04-30T12:29:02.999Z</time></trkpt><trkpt lat="37.84737286156151" lon="13.684065178268522"><ele>218.0</ele><time>2026-04-30T12:29:03.999Z</time></trkpt><trkpt lat="37.847375190135345" lon="13.683931272990382"><ele>218.0</ele><time>2026-04-30T12:29:04.999Z</time></trkpt><trkpt lat="37.84734169668166" lon="13.68380334372694"><ele>218.0</ele><time>2026-04-30T12:29:05.999Z</time></trkpt><trkpt lat="37.84727687547574" lon="13.683679397579047"><ele>218.0</ele><time>2026-04-30T12:29:06.999Z</time></trkpt><trkpt lat="37.847200487558084" lon="13.683554015785003"><ele>219.4</ele><time>2026-04-30T12:29:07.999Z</time></trkpt><trkpt lat="37.84714074209554" lon="13.683424928045897"><ele>220.8</ele><time>2026-04-30T12:29:08.999Z</time></trkpt><trkpt lat="37.847091743575895" lon="13.683295147385879"><ele>222.2</ele><time>2026-04-30T12:29:09.999Z</time></trkpt><trkpt lat="37.84706344191413" lon="13.683158166865269"><ele>223.6</ele><time>2026-04-30T12:29:10.999Z</time></trkpt><trkpt lat="37.84706749049386" lon="13.683024921788412"><ele>225.0</ele><time>2026-04-30T12:29:11.999Z</time></trkpt><trkpt lat="37.84710325373966" lon="13.682900069096831"><ele>225.0</ele><time>2026-04-30T12:29:12.999Z</time></trkpt><trkpt lat="37.84716669169523" lon="13.682777992906034"><ele>225.0</ele><time>2026-04-30T12:29:13.999Z</time></trkpt><trkpt lat="37.84725028083157" lon="13.682665737166019"><ele>225.0</ele><time>2026-04-30T12:29:14.999Z</time></trkpt><trkpt lat="37.84734519896494" lon="13.682568708324597"><ele>225.0</ele><time>2026-04-30T12:29:15.999Z</time></trkpt><trkpt lat="37.84744105386707" lon="13.682487199163754"><ele>224.25</ele><time>2026-04-30T12:29:16.999Z</time></trkpt><trkpt lat="37.84754082104713" lon="13.682408745050795"><ele>223.5</ele><time>2026-04-30T12:29:17.999Z</time></trkpt><trkpt lat="37.84765425264969" lon="13.682349934155297"><ele>222.75</ele><time>2026-04-30T12:29:18.999Z</time></trkpt><trkpt lat="37.84776895428388" lon="13.68231539222043"><ele>222.0</ele><time>2026-04-30T12:29:19.999Z</time></trkpt><trkpt lat="37.84788894342502" lon="13.682302589984582"><ele>224.0</ele><time>2026-04-30T12:29:20.999Z</time></trkpt><trkpt lat="37.84801478261885" lon="13.682294231947807"><ele>226.0</ele><time>2026-04-30T12:29:21.999Z</time></trkpt><trkpt lat="37.84814334727815" lon="13.682279575430744"><ele>228.0</ele><time>2026-04-30T12:29:22.999Z</time></trkpt><trkpt lat="37.84827483218966" lon="13.682271353107222"><ele>230.0</ele><time>2026-04-30T12:29:23.999Z</time></trkpt><trkpt lat="37.84840681190557" lon="13.682268713473482"><ele>230.5</ele><time>2026-04-30T12:29:24.999Z</time></trkpt><trkpt lat="37.84854066166968" lon="13.682276061705553"><ele>231.0</ele><time>2026-04-30T12:29:25.999Z</time></trkpt><trkpt lat="37.848675035707174" lon="13.682286157708841"><ele>231.5</ele><time>2026-04-30T12:29:26.999Z</time></trkpt><trkpt lat="37.84881512152531" lon="13.682285848226744"><ele>232.0</ele><time>2026-04-30T12:29:27.999Z</time></trkpt><trkpt lat="37.84895845243839" lon="13.682295492610217"><ele>232.0</ele><time>2026-04-30T12:29:28.999Z</time></trkpt><trkpt lat="37.84909284728078" lon="13.682308250057126"><ele>232.0</ele><time>2026-04-30T12:29:29.999Z</time></trkpt><trkpt lat="37.84921586975734" lon="13.682334251050564"><ele>232.0</ele><time>2026-04-30T12:29:30.999Z</time></trkpt><trkpt lat="37.84933982334164" lon="13.682388455447978"><ele>232.0</ele><time>2026-04-30T12:29:31.999Z</time></trkpt><trkpt lat="37.849473441274824" lon="13.682462146573586"><ele>231.66666666666666</ele><time>2026-04-30T12:29:32.999Z</time></trkpt><trkpt lat="37.84961899146373" lon="13.68252672532369"><ele>231.33333333333331</ele><time>2026-04-30T12:29:33.999Z</time></trkpt><trkpt lat="37.84976957036102" lon="13.682565993386858"><ele>231.0</ele><time>2026-04-30T12:29:34.999Z</time></trkpt><trkpt lat="37.84992309607351" lon="13.682572033894745"><ele>231.0</ele><time>2026-04-30T12:29:35.999Z</time></trkpt><trkpt lat="37.85007942492721" lon="13.682586277675075"><ele>231.0</ele><time>2026-04-30T12:29:36.999Z</time></trkpt><trkpt lat="37.850230471101014" lon="13.682602867573124"><ele>231.0</ele><time>2026-04-30T12:29:37.999Z</time></trkpt><trkpt lat="37.850378024583634" lon="13.68262373472517"><ele>232.66666666666669</ele><time>2026-04-30T12:29:38.999Z</time></trkpt><trkpt lat="37.85052690710355" lon="13.682643264486506"><ele>234.33333333333334</ele><time>2026-04-30T12:29:39.999Z</time></trkpt><trkpt lat="37.850679986143476" lon="13.682657378585489"><ele>236.0</ele><time>2026-04-30T12:29:40.999Z</time></trkpt><trkpt lat="37.850831322641895" lon="13.682664828558767"><ele>236.5</ele><time>2026-04-30T12:29:41.999Z</time></trkpt><trkpt lat="37.85097389223688" lon="13.6826655685794"><ele>237.0</ele><time>2026-04-30T12:29:42.999Z</time></trkpt><trkpt lat="37.851092610723995" lon="13.682648053114772"><ele>237.5</ele><time>2026-04-30T12:29:43.999Z</time></trkpt><trkpt lat="37.85119219951152" lon="13.68257932577474"><ele>238.0</ele><time>2026-04-30T12:29:44.999Z</time></trkpt><trkpt lat="37.85127574580265" lon="13.682472027118818"><ele>238.0</ele><time>2026-04-30T12:29:45.999Z</time></trkpt><trkpt lat="37.85134100772809" lon="13.68233185619618"><ele>238.0</ele><time>2026-04-30T12:29:46.999Z</time></trkpt><trkpt lat="37.851396637589545" lon="13.682192627241296"><ele>238.0</ele><time>2026-04-30T12:29:47.999Z</time></trkpt><trkpt lat="37.851454389217054" lon="13.682058486960804"><ele>238.0</ele><time>2026-04-30T12:29:48.999Z</time></trkpt><trkpt lat="37.85150251066455" lon="13.681920393549781"><ele>239.75</ele><time>2026-04-30T12:29:49.999Z</time></trkpt><trkpt lat="37.851518322166406" lon="13.681770028954274"><ele>241.5</ele><time>2026-04-30T12:29:50.999Z</time></trkpt><trkpt lat="37.85149852948233" lon="13.681611933130707"><ele>243.25</ele><time>2026-04-30T12:29:51.999Z</time></trkpt><trkpt lat="37.85144800418452" lon="13.681457286423306"><ele>245.0</ele><time>2026-04-30T12:29:52.999Z</time></trkpt><trkpt lat="37.85138059306671" lon="13.68132146084249"><ele>245.0</ele><time>2026-04-30T12:29:53.999Z</time></trkpt><trkpt lat="37.85129121263248" lon="13.681214190274154"><ele>245.0</ele><time>2026-04-30T12:29:54.999Z</time></trkpt><trkpt lat="37.851177208826925" lon="13.6811301937394"><ele>245.0</ele><time>2026-04-30T12:29:55.999Z</time></trkpt><trkpt lat="37.851064664646714" lon="13.681066132954939"><ele>245.0</ele><time>2026-04-30T12:29:56.999Z</time></trkpt><trkpt lat="37.85096526154919" lon="13.680991743002217"><ele>245.4</ele><time>2026-04-30T12:29:57.999Z</time></trkpt><trkpt lat="37.85088271556799" lon="13.680906196211987"><ele>245.8</ele><time>2026-04-30T12:29:58.999Z</time></trkpt><trkpt lat="37.85081630626588" lon="13.680799232028505"><ele>246.2</ele><time>2026-04-30T12:29:59.999Z</time></trkpt><trkpt lat="37.85078218940958" lon="13.680673141253362"><ele>246.6</ele><time>2026-04-30T12:30:00.999Z</time></trkpt><trkpt lat="37.85078459035964" lon="13.68054240422292"><ele>247.0</ele><time>2026-04-30T12:30:01.999Z</time></trkpt><trkpt lat="37.85081527133265" lon="13.680397589796808"><ele>248.0</ele><time>2026-04-30T12:30:02.999Z</time></trkpt><trkpt lat="37.85086526459476" lon="13.680252710175516"><ele>249.0</ele><time>2026-04-30T12:30:03.999Z</time></trkpt><trkpt lat="37.85091709143265" lon="13.680111382339508"><ele>250.0</ele><time>2026-04-30T12:30:04.999Z</time></trkpt><trkpt lat="37.850970347190376" lon="13.679970967923495"><ele>251.0</ele><time>2026-04-30T12:30:06Z</time></trkpt><trkpt lat="37.851010239815984" lon="13.679836586966648"><ele>251.75</ele><time>2026-04-30T12:30:07Z</time></trkpt><trkpt lat="37.851036082076696" lon="13.679695276598554"><ele>252.5</ele><time>2026-04-30T12:30:08Z</time></trkpt><trkpt lat="37.851035342447865" lon="13.67954171102007"><ele>253.25</ele><time>2026-04-30T12:30:09Z</time></trkpt><trkpt lat="37.850999787757935" lon="13.679385831250741"><ele>254.0</ele><time>2026-04-30T12:30:10Z</time></trkpt><trkpt lat="37.85094570714363" lon="13.679236277795814"><ele>254.0</ele><time>2026-04-30T12:30:11Z</time></trkpt><trkpt lat="37.85090478239194" lon="13.679087128602921"><ele>254.0</ele><time>2026-04-30T12:30:12Z</time></trkpt><trkpt lat="37.85090219885868" lon="13.678938064512781"><ele>254.0</ele><time>2026-04-30T12:30:13Z</time></trkpt><trkpt lat="37.850938577977054" lon="13.67880725824739"><ele>254.0</ele><time>2026-04-30T12:30:14Z</time></trkpt><trkpt lat="37.85100864987991" lon="13.678701530222158"><ele>256.75</ele><time>2026-04-30T12:30:15Z</time></trkpt><trkpt lat="37.85110803844773" lon="13.678616240593465"><ele>259.5</ele><time>2026-04-30T12:30:16Z</time></trkpt><trkpt lat="37.851223672991125" lon="13.678556417720328"><ele>262.25</ele><time>2026-04-30T12:30:17Z</time></trkpt><trkpt lat="37.8513414461083" lon="13.678506038017908"><ele>265.0</ele><time>2026-04-30T12:30:18Z</time></trkpt><trkpt lat="37.85145065501202" lon="13.678443517115014"><ele>265.0</ele><time>2026-04-30T12:30:19Z</time></trkpt><trkpt lat="37.85155188023079" lon="13.678370416218515"><ele>265.0</ele><time>2026-04-30T12:30:20Z</time></trkpt><trkpt lat="37.85163404356991" lon="13.678297850798447"><ele>265.0</ele><time>2026-04-30T12:30:21Z</time></trkpt><trkpt lat="37.85170077584062" lon="13.678220724417777"><ele>265.0</ele><time>2026-04-30T12:30:22Z</time></trkpt><trkpt lat="37.85175610599522" lon="13.678129295650267"><ele>265.0</ele><time>2026-04-30T12:30:23Z</time></trkpt><trkpt lat="37.851804661966185" lon="13.678015036045613"><ele>266.5</ele><time>2026-04-30T12:30:24Z</time></trkpt><trkpt lat="37.85185246415676" lon="13.677870939855337"><ele>268.0</ele><time>2026-04-30T12:30:25Z</time></trkpt><trkpt lat="37.85190644663517" lon="13.677711906974324"><ele>269.5</ele><time>2026-04-30T12:30:26Z</time></trkpt><trkpt lat="37.85196932600106" lon="13.677544363633007"><ele>271.0</ele><time>2026-04-30T12:30:27Z</time></trkpt><trkpt lat="37.852040262151434" lon="13.677366672868013"><ele>271.0</ele><time>2026-04-30T12:30:28Z</time></trkpt><trkpt lat="37.85210622899461" lon="13.677199520800997"><ele>271.0</ele><time>2026-04-30T12:30:29Z</time></trkpt><trkpt lat="37.852168285221886" lon="13.677039645250755"><ele>271.0</ele><time>2026-04-30T12:30:30Z</time></trkpt><trkpt lat="37.8522411776957" lon="13.676865319127588"><ele>271.0</ele><time>2026-04-30T12:30:31Z</time></trkpt><trkpt lat="37.852310304653095" lon="13.67669112164925"><ele>271.0</ele><time>2026-04-30T12:30:32Z</time></trkpt><trkpt lat="37.852379102038384" lon="13.676521508669236"><ele>271.0</ele><time>2026-04-30T12:30:33Z</time></trkpt><trkpt lat="37.85244019094578" lon="13.67635125292744"><ele>271.0</ele><time>2026-04-30T12:30:34Z</time></trkpt><trkpt lat="37.85248609574941" lon="13.676179634886727"><ele>271.0</ele><time>2026-04-30T12:30:35Z</time></trkpt><trkpt lat="37.8525083167258" lon="13.675994661577791"><ele>273.3333333333333</ele><time>2026-04-30T12:30:36Z</time></trkpt><trkpt lat="37.85249971855174" lon="13.675794955450606"><ele>275.6666666666667</ele><time>2026-04-30T12:30:37Z</time></trkpt><trkpt lat="37.8524642027726" lon="13.675596240624124"><ele>278.0</ele><time>2026-04-30T12:30:38Z</time></trkpt><trkpt lat="37.85240650348426" lon="13.675413692719143"><ele>279.25</ele><time>2026-04-30T12:30:39Z</time></trkpt><trkpt lat="37.852351734664126" lon="13.67524607448182"><ele>280.5</ele><time>2026-04-30T12:30:40Z</time></trkpt><trkpt lat="37.85231910243774" lon="13.675075762932085"><ele>281.75</ele><time>2026-04-30T12:30:41Z</time></trkpt><trkpt lat="37.85228994616847" lon="13.674905244035438"><ele>283.0</ele><time>2026-04-30T12:30:42Z</time></trkpt><trkpt lat="37.85226156982398" lon="13.674731990668725"><ele>283.0</ele><time>2026-04-30T12:30:43Z</time></trkpt><trkpt lat="37.85224092568911" lon="13.674550942144545"><ele>283.0</ele><time>2026-04-30T12:30:44Z</time></trkpt><trkpt lat="37.85223147580414" lon="13.674368648832631"><ele>283.0</ele><time>2026-04-30T12:30:45Z</time></trkpt><trkpt lat="37.85224308489706" lon="13.674187575460145"><ele>283.0</ele><time>2026-04-30T12:30:46Z</time></trkpt><trkpt lat="37.85225790602165" lon="13.674011225278713"><ele>283.0</ele><time>2026-04-30T12:30:47Z</time></trkpt><trkpt lat="37.85226473919077" lon="13.673839145665337"><ele>283.0</ele><time>2026-04-30T12:30:48Z</time></trkpt><trkpt lat="37.85225919592439" lon="13.673685901869687"><ele>283.0</ele><time>2026-04-30T12:30:49Z</time></trkpt><trkpt lat="37.852237345466264" lon="13.673552808940567"><ele>283.0</ele><time>2026-04-30T12:30:50Z</time></trkpt><trkpt lat="37.852181488278404" lon="13.673429184419238"><ele>282.5</ele><time>2026-04-30T12:30:51Z</time></trkpt><trkpt lat="37.85208007936255" lon="13.673325809557774"><ele>282.0</ele><time>2026-04-30T12:30:52Z</time></trkpt><trkpt lat="37.851950515359185" lon="13.673238394409859"><ele>281.5</ele><time>2026-04-30T12:30:53Z</time></trkpt><trkpt lat="37.85181052802686" lon="13.67314415252968"><ele>281.0</ele><time>2026-04-30T12:30:54Z</time></trkpt><trkpt lat="37.85169320793106" lon="13.673008463176185"><ele>286.33333333333337</ele><time>2026-04-30T12:30:55Z</time></trkpt><trkpt lat="37.85160293073189" lon="13.672848861097279"><ele>291.6666666666667</ele><time>2026-04-30T12:30:56Z</time></trkpt><trkpt lat="37.85152414960122" lon="13.67268159157543"><ele>297.0</ele><time>2026-04-30T12:30:57Z</time></trkpt><trkpt lat="37.851450642599836" lon="13.672513669596356"><ele>297.0</ele><time>2026-04-30T12:30:58Z</time></trkpt><trkpt lat="37.851381554215806" lon="13.672344696576877"><ele>297.0</ele><time>2026-04-30T12:30:59Z</time></trkpt><trkpt lat="37.851302075131976" lon="13.672194238684217"><ele>297.0</ele><time>2026-04-30T12:31:00Z</time></trkpt><trkpt lat="37.85116816370681" lon="13.672096538207398"><ele>297.0</ele><time>2026-04-30T12:31:00.999Z</time></trkpt><trkpt lat="37.85110137130694" lon="13.671937240654163"><ele>297.75</ele><time>2026-04-30T12:31:01.999Z</time></trkpt><trkpt lat="37.851009585544276" lon="13.671818998270263"><ele>298.5</ele><time>2026-04-30T12:31:02.999Z</time></trkpt><trkpt lat="37.850905113283474" lon="13.671706152061985"><ele>299.25</ele><time>2026-04-30T12:31:03.999Z</time></trkpt><trkpt lat="37.85080020782651" lon="13.671588717334647"><ele>300.0</ele><time>2026-04-30T12:31:04.999Z</time></trkpt><trkpt lat="37.85069256192903" lon="13.671464926310778"><ele>300.0</ele><time>2026-04-30T12:31:05.999Z</time></trkpt><trkpt lat="37.850577377294286" lon="13.6713324761846"><ele>300.0</ele><time>2026-04-30T12:31:06.999Z</time></trkpt><trkpt lat="37.85046768646846" lon="13.671217825765575"><ele>300.0</ele><time>2026-04-30T12:31:07.999Z</time></trkpt><trkpt lat="37.850369620466594" lon="13.67110745530207"><ele>300.0</ele><time>2026-04-30T12:31:08.999Z</time></trkpt><trkpt lat="37.85027093411107" lon="13.670994245609048"><ele>300.25</ele><time>2026-04-30T12:31:09.999Z</time></trkpt><trkpt lat="37.850167843594505" lon="13.67088563237583"><ele>300.5</ele><time>2026-04-30T12:31:10.999Z</time></trkpt><trkpt lat="37.850065863761834" lon="13.670752664586342"><ele>300.75</ele><time>2026-04-30T12:31:11.999Z</time></trkpt><trkpt lat="37.849949034170244" lon="13.67063021294148"><ele>301.0</ele><time>2026-04-30T12:31:12.999Z</time></trkpt><trkpt lat="37.84982642577869" lon="13.670496276652052"><ele>301.0</ele><time>2026-04-30T12:31:13.999Z</time></trkpt><trkpt lat="37.84971429551872" lon="13.670352405198463"><ele>301.0</ele><time>2026-04-30T12:31:14.999Z</time></trkpt><trkpt lat="37.849596060109576" lon="13.670210052024002"><ele>301.0</ele><time>2026-04-30T12:31:15.999Z</time></trkpt><trkpt lat="37.8494814615516" lon="13.670075531594426"><ele>301.0</ele><time>2026-04-30T12:31:16.999Z</time></trkpt><trkpt lat="37.84938434837608" lon="13.669935488581924"><ele>301.0</ele><time>2026-04-30T12:31:17.999Z</time></trkpt><trkpt lat="37.84930485400023" lon="13.66979056502315"><ele>301.0</ele><time>2026-04-30T12:31:18.999Z</time></trkpt><trkpt lat="37.84923508859278" lon="13.669625265355632"><ele>301.0</ele><time>2026-04-30T12:31:19.999Z</time></trkpt><trkpt lat="37.84918547179142" lon="13.669444620275073"><ele>299.25</ele><time>2026-04-30T12:31:20.999Z</time></trkpt><trkpt lat="37.849151878481635" lon="13.669266182004925"><ele>297.5</ele><time>2026-04-30T12:31:21.999Z</time></trkpt><trkpt lat="37.84911339097442" lon="13.669086907138587"><ele>295.75</ele><time>2026-04-30T12:31:22.999Z</time></trkpt><trkpt lat="37.84909320162717" lon="13.668935782869498"><ele>294.0</ele><time>2026-04-30T12:31:23.999Z</time></trkpt><trkpt lat="37.849020075289836" lon="13.668789199565385"><ele>294.0</ele><time>2026-04-30T12:31:24.999Z</time></trkpt><trkpt lat="37.84893490724887" lon="13.668659128189477"><ele>294.0</ele><time>2026-04-30T12:31:25.999Z</time></trkpt><trkpt lat="37.84886024203182" lon="13.6685277878963"><ele>294.0</ele><time>2026-04-30T12:31:26.999Z</time></trkpt><trkpt lat="37.84881546908022" lon="13.668387449830295"><ele>294.0</ele><time>2026-04-30T12:31:27.999Z</time></trkpt><trkpt lat="37.84880173460493" lon="13.668237566546354"><ele>292.5</ele><time>2026-04-30T12:31:28.999Z</time></trkpt><trkpt lat="37.84881011233144" lon="13.668077541277064"><ele>291.0</ele><time>2026-04-30T12:31:29.999Z</time></trkpt><trkpt lat="37.848835397802546" lon="13.667909728758499"><ele>289.5</ele><time>2026-04-30T12:31:30.999Z</time></trkpt><trkpt lat="37.84887135861657" lon="13.667738978462426"><ele>288.0</ele><time>2026-04-30T12:31:31.999Z</time></trkpt><trkpt lat="37.84890504120454" lon="13.667576199517743"><ele>288.0</ele><time>2026-04-30T12:31:32.999Z</time></trkpt><trkpt lat="37.84893176990707" lon="13.667416391076422"><ele>288.0</ele><time>2026-04-30T12:31:33.999Z</time></trkpt><trkpt lat="37.84895651536014" lon="13.66725426472653"><ele>288.0</ele><time>2026-04-30T12:31:34.999Z</time></trkpt><trkpt lat="37.84898397979249" lon="13.667087794652595"><ele>288.0</ele><time>2026-04-30T12:31:35.999Z</time></trkpt><trkpt lat="37.84901217870012" lon="13.666915809426573"><ele>287.75</ele><time>2026-04-30T12:31:36.999Z</time></trkpt><trkpt lat="37.84903970982563" lon="13.66674736628413"><ele>287.5</ele><time>2026-04-30T12:31:37.999Z</time></trkpt><trkpt lat="37.84906867178421" lon="13.666583140358947"><ele>287.25</ele><time>2026-04-30T12:31:38.999Z</time></trkpt><trkpt lat="37.849102870524405" lon="13.666422974960183"><ele>287.0</ele><time>2026-04-30T12:31:39.999Z</time></trkpt><trkpt lat="37.84913352987939" lon="13.666267525124745"><ele>286.5</ele><time>2026-04-30T12:31:40.999Z</time></trkpt><trkpt lat="37.84915828490187" lon="13.666108828056002"><ele>286.0</ele><time>2026-04-30T12:31:41.999Z</time></trkpt><trkpt lat="37.84916746245374" lon="13.665953005948305"><ele>285.5</ele><time>2026-04-30T12:31:42.999Z</time></trkpt><trkpt lat="37.84915512779007" lon="13.665805635916634"><ele>285.0</ele><time>2026-04-30T12:31:43.999Z</time></trkpt><trkpt lat="37.84911412312681" lon="13.665661871768698"><ele>285.0</ele><time>2026-04-30T12:31:44.999Z</time></trkpt><trkpt lat="37.849048925808" lon="13.665510247238402"><ele>285.0</ele><time>2026-04-30T12:31:45.999Z</time></trkpt><trkpt lat="37.84896451069771" lon="13.665367111155145"><ele>285.0</ele><time>2026-04-30T12:31:46.999Z</time></trkpt><trkpt lat="37.848863450863554" lon="13.66522026761546"><ele>285.0</ele><time>2026-04-30T12:31:47.999Z</time></trkpt><trkpt lat="37.84877478620554" lon="13.665079681249932"><ele>286.5</ele><time>2026-04-30T12:31:48.999Z</time></trkpt><trkpt lat="37.848693856204754" lon="13.664930460642513"><ele>288.0</ele><time>2026-04-30T12:31:49.999Z</time></trkpt><trkpt lat="37.84861281727103" lon="13.664778696060418"><ele>289.5</ele><time>2026-04-30T12:31:50.999Z</time></trkpt><trkpt lat="37.8485451488799" lon="13.664619484879026"><ele>291.0</ele><time>2026-04-30T12:31:51.999Z</time></trkpt><trkpt lat="37.84850638016129" lon="13.66444586007873"><ele>292.25</ele><time>2026-04-30T12:31:52.999Z</time></trkpt><trkpt lat="37.84849505256379" lon="13.664260186451628"><ele>293.5</ele><time>2026-04-30T12:31:53.999Z</time></trkpt><trkpt lat="37.84851206102455" lon="13.664085155680382"><ele>294.75</ele><time>2026-04-30T12:31:54.999Z</time></trkpt><trkpt lat="37.84855617190096" lon="13.663916584482045"><ele>296.0</ele><time>2026-04-30T12:31:55.999Z</time></trkpt><trkpt lat="37.848607178523075" lon="13.663752561685303"><ele>297.25</ele><time>2026-04-30T12:31:56.999Z</time></trkpt><trkpt lat="37.848642442783536" lon="13.66357035934497"><ele>298.5</ele><time>2026-04-30T12:31:57.999Z</time></trkpt><trkpt lat="37.84865009002343" lon="13.663407392984446"><ele>299.75</ele><time>2026-04-30T12:31:58.999Z</time></trkpt><trkpt lat="37.848620784586366" lon="13.66324419639767"><ele>301.0</ele><time>2026-04-30T12:31:59.999Z</time></trkpt><trkpt lat="37.848563896727725" lon="13.663081791336536"><ele>301.0</ele><time>2026-04-30T12:32:00.999Z</time></trkpt><trkpt lat="37.84849090666655" lon="13.662917590369124"><ele>301.0</ele><time>2026-04-30T12:32:01.999Z</time></trkpt><trkpt lat="37.8484030906138" lon="13.662768288168364"><ele>301.0</ele><time>2026-04-30T12:32:02.999Z</time></trkpt><trkpt lat="37.84830310929334" lon="13.66262937024702"><ele>301.0</ele><time>2026-04-30T12:32:03.999Z</time></trkpt><trkpt lat="37.84819327744026" lon="13.662492195316144"><ele>300.0</ele><time>2026-04-30T12:32:04.999Z</time></trkpt><trkpt lat="37.84806341568428" lon="13.662377006527088"><ele>299.0</ele><time>2026-04-30T12:32:05.999Z</time></trkpt><trkpt lat="37.84791881300332" lon="13.662279724156745"><ele>298.0</ele><time>2026-04-30T12:32:06.999Z</time></trkpt><trkpt lat="37.847778512469965" lon="13.662188279542775"><ele>298.0</ele><time>2026-04-30T12:32:07.999Z</time></trkpt><trkpt lat="37.84764350436094" lon="13.662098202684684"><ele>298.0</ele><time>2026-04-30T12:32:08.999Z</time></trkpt><trkpt lat="37.84751654350039" lon="13.661995329626109"><ele>298.0</ele><time>2026-04-30T12:32:09.999Z</time></trkpt><trkpt lat="37.84740635883647" lon="13.66188156294674"><ele>298.0</ele><time>2026-04-30T12:32:11Z</time></trkpt><trkpt lat="37.84730765838938" lon="13.66177177022725"><ele>298.25</ele><time>2026-04-30T12:32:12Z</time></trkpt><trkpt lat="37.84723301240341" lon="13.66166312253486"><ele>298.5</ele><time>2026-04-30T12:32:13Z</time></trkpt><trkpt lat="37.84719987736231" lon="13.661542901169936"><ele>298.75</ele><time>2026-04-30T12:32:14Z</time></trkpt><trkpt lat="37.84720641617412" lon="13.661405570042332"><ele>299.0</ele><time>2026-04-30T12:32:15Z</time></trkpt><trkpt lat="37.847241166593484" lon="13.661250162097414"><ele>299.25</ele><time>2026-04-30T12:32:16Z</time></trkpt><trkpt lat="37.84729029927069" lon="13.661086319910732"><ele>299.5</ele><time>2026-04-30T12:32:17Z</time></trkpt><trkpt lat="37.84733610472307" lon="13.660919128352766"><ele>299.75</ele><time>2026-04-30T12:32:18Z</time></trkpt><trkpt lat="37.84738225560241" lon="13.660750561152476"><ele>300.0</ele><time>2026-04-30T12:32:19Z</time></trkpt><trkpt lat="37.84742266851992" lon="13.660585657616584"><ele>300.0</ele><time>2026-04-30T12:32:20Z</time></trkpt><trkpt lat="37.847459423175145" lon="13.660426287503336"><ele>300.0</ele><time>2026-04-30T12:32:21Z</time></trkpt><trkpt lat="37.84749764217839" lon="13.660277248632596"><ele>300.0</ele><time>2026-04-30T12:32:22Z</time></trkpt><trkpt lat="37.84753399145001" lon="13.660135915066821"><ele>300.0</ele><time>2026-04-30T12:32:23Z</time></trkpt><trkpt lat="37.84756982562929" lon="13.659996360686828"><ele>300.0</ele><time>2026-04-30T12:32:24Z</time></trkpt><trkpt lat="37.84760575424342" lon="13.659861271686124"><ele>300.0</ele><time>2026-04-30T12:32:25Z</time></trkpt><trkpt lat="37.847640454768936" lon="13.659734765357214"><ele>300.0</ele><time>2026-04-30T12:32:26Z</time></trkpt><trkpt lat="37.84767483957724" lon="13.659615047100575"><ele>300.0</ele><time>2026-04-30T12:32:27Z</time></trkpt><trkpt lat="37.84771275918442" lon="13.65950002721209"><ele>300.0</ele><time>2026-04-30T12:32:28Z</time></trkpt><trkpt lat="37.847771471521284" lon="13.659380768266534"><ele>301.25</ele><time>2026-04-30T12:32:29Z</time></trkpt><trkpt lat="37.84785270361422" lon="13.659273581205"><ele>302.5</ele><time>2026-04-30T12:32:30Z</time></trkpt><trkpt lat="37.84795388808525" lon="13.659180284780108"><ele>303.75</ele><time>2026-04-30T12:32:31Z</time></trkpt><trkpt lat="37.84806404191345" lon="13.659113806623825"><ele>305.0</ele><time>2026-04-30T12:32:32Z</time></trkpt><trkpt lat="37.848182869761345" lon="13.659065742021106"><ele>305.0</ele><time>2026-04-30T12:32:33Z</time></trkpt><trkpt lat="37.84830449817798" lon="13.65902006947403"><ele>305.0</ele><time>2026-04-30T12:32:34Z</time></trkpt><trkpt lat="37.84842589673195" lon="13.65897875485454"><ele>305.0</ele><time>2026-04-30T12:32:35Z</time></trkpt><trkpt lat="37.84854294601558" lon="13.65893562904135"><ele>305.0</ele><time>2026-04-30T12:32:36Z</time></trkpt><trkpt lat="37.84865580935828" lon="13.658892187754976"><ele>305.4</ele><time>2026-04-30T12:32:37Z</time></trkpt><trkpt lat="37.84876400092721" lon="13.658852964446188"><ele>305.8</ele><time>2026-04-30T12:32:38Z</time></trkpt><trkpt lat="37.84886993372646" lon="13.658814891568714"><ele>306.2</ele><time>2026-04-30T12:32:39Z</time></trkpt><trkpt lat="37.84897237471995" lon="13.65877331278829"><ele>306.6</ele><time>2026-04-30T12:32:40Z</time></trkpt><trkpt lat="37.84907458803518" lon="13.658736420186635"><ele>307.0</ele><time>2026-04-30T12:32:41Z</time></trkpt><trkpt lat="37.84918680839337" lon="13.658702834940765"><ele>306.5</ele><time>2026-04-30T12:32:42Z</time></trkpt><trkpt lat="37.84930745340219" lon="13.658662019582822"><ele>306.0</ele><time>2026-04-30T12:32:43Z</time></trkpt><trkpt lat="37.84943701564651" lon="13.658628180452364"><ele>305.5</ele><time>2026-04-30T12:32:44Z</time></trkpt><trkpt lat="37.849571793530664" lon="13.658605615918184"><ele>305.0</ele><time>2026-04-30T12:32:45Z</time></trkpt><trkpt lat="37.84970681426809" lon="13.658584192866934"><ele>303.0</ele><time>2026-04-30T12:32:46Z</time></trkpt><trkpt lat="37.84984344020458" lon="13.658557847950231"><ele>301.0</ele><time>2026-04-30T12:32:47Z</time></trkpt><trkpt lat="37.849983071847056" lon="13.658527581486595"><ele>299.0</ele><time>2026-04-30T12:32:48Z</time></trkpt><trkpt lat="37.85011982473707" lon="13.658495012205574"><ele>297.0</ele><time>2026-04-30T12:32:49Z</time></trkpt><trkpt lat="37.850256927288015" lon="13.658461333898092"><ele>295.75</ele><time>2026-04-30T12:32:50Z</time></trkpt><trkpt lat="37.85039544590651" lon="13.658424316073287"><ele>294.5</ele><time>2026-04-30T12:32:51Z</time></trkpt><trkpt lat="37.850541240955685" lon="13.658378347357258"><ele>293.25</ele><time>2026-04-30T12:32:52Z</time></trkpt><trkpt lat="37.85068615105741" lon="13.658326404705289"><ele>292.0</ele><time>2026-04-30T12:32:53Z</time></trkpt><trkpt lat="37.85083518757754" lon="13.658264427419976"><ele>292.0</ele><time>2026-04-30T12:32:54Z</time></trkpt><trkpt lat="37.850975733884205" lon="13.658205459569341"><ele>292.0</ele><time>2026-04-30T12:32:55Z</time></trkpt><trkpt lat="37.85109766676904" lon="13.658147474701776"><ele>292.0</ele><time>2026-04-30T12:32:56Z</time></trkpt><trkpt lat="37.851233222670906" lon="13.658069495031505"><ele>292.0</ele><time>2026-04-30T12:32:57Z</time></trkpt><trkpt lat="37.85138024468467" lon="13.657987476029591"><ele>292.0</ele><time>2026-04-30T12:32:58Z</time></trkpt><trkpt lat="37.85151112702711" lon="13.657911332591995"><ele>292.0</ele><time>2026-04-30T12:32:59Z</time></trkpt><trkpt lat="37.851637438917244" lon="13.657841607564228"><ele>292.0</ele><time>2026-04-30T12:33:00Z</time></trkpt><trkpt lat="37.85176436756252" lon="13.6577786944937"><ele>292.0</ele><time>2026-04-30T12:33:01Z</time></trkpt><trkpt lat="37.85189091301802" lon="13.657728356347539"><ele>287.75</ele><time>2026-04-30T12:33:02Z</time></trkpt><trkpt lat="37.85202675922243" lon="13.657693629128277"><ele>283.5</ele><time>2026-04-30T12:33:03Z</time></trkpt><trkpt lat="37.85215641815906" lon="13.65767728301508"><ele>279.25</ele><time>2026-04-30T12:33:04Z</time></trkpt><trkpt lat="37.852280174164456" lon="13.65766650702226"><ele>275.0</ele><time>2026-04-30T12:33:05Z</time></trkpt><trkpt lat="37.85240426861492" lon="13.657661179569883"><ele>275.0</ele><time>2026-04-30T12:33:06Z</time></trkpt><trkpt lat="37.8525254561502" lon="13.657669341148829"><ele>275.0</ele><time>2026-04-30T12:33:07Z</time></trkpt><trkpt lat="37.852659356939576" lon="13.657692595488072"><ele>275.0</ele><time>2026-04-30T12:33:08Z</time></trkpt><trkpt lat="37.85278676104014" lon="13.65769773392928"><ele>275.0</ele><time>2026-04-30T12:33:09Z</time></trkpt><trkpt lat="37.852913015092334" lon="13.657701380408895"><ele>273.5</ele><time>2026-04-30T12:33:09.999Z</time></trkpt><trkpt lat="37.853042340377215" lon="13.65770262360204"><ele>272.0</ele><time>2026-04-30T12:33:10.999Z</time></trkpt><trkpt lat="37.853169978358146" lon="13.657704615326354"><ele>270.5</ele><time>2026-04-30T12:33:11.999Z</time></trkpt><trkpt lat="37.853306454662096" lon="13.657733658755781"><ele>269.0</ele><time>2026-04-30T12:33:12.999Z</time></trkpt><trkpt lat="37.85345376181359" lon="13.657784079205648"><ele>268.6666666666667</ele><time>2026-04-30T12:33:13.999Z</time></trkpt><trkpt lat="37.853608322397946" lon="13.657842480946746"><ele>268.3333333333333</ele><time>2026-04-30T12:33:14.999Z</time></trkpt><trkpt lat="37.85375484178747" lon="13.65790358865162"><ele>268.0</ele><time>2026-04-30T12:33:15.999Z</time></trkpt><trkpt lat="37.85389275405616" lon="13.657964315169396"><ele>268.0</ele><time>2026-04-30T12:33:16.999Z</time></trkpt><trkpt lat="37.85402333007676" lon="13.658031382704783"><ele>268.0</ele><time>2026-04-30T12:33:17.999Z</time></trkpt><trkpt lat="37.854147702502296" lon="13.658092982959253"><ele>268.0</ele><time>2026-04-30T12:33:18.999Z</time></trkpt><trkpt lat="37.85425818446738" lon="13.658147500981102"><ele>268.0</ele><time>2026-04-30T12:33:19.999Z</time></trkpt><trkpt lat="37.8543578371381" lon="13.65822699850544"><ele>265.5</ele><time>2026-04-30T12:33:20.999Z</time></trkpt><trkpt lat="37.85445037346664" lon="13.658325633488307"><ele>263.0</ele><time>2026-04-30T12:33:21.999Z</time></trkpt><trkpt lat="37.85453586539871" lon="13.658431834095081"><ele>260.5</ele><time>2026-04-30T12:33:22.999Z</time></trkpt><trkpt lat="37.85460776585531" lon="13.658531723159257"><ele>258.0</ele><time>2026-04-30T12:33:23.999Z</time></trkpt><trkpt lat="37.85465446957204" lon="13.658646898394109"><ele>257.6666666666667</ele><time>2026-04-30T12:33:24.999Z</time></trkpt><trkpt lat="37.8546683596967" lon="13.658781765518187"><ele>257.3333333333333</ele><time>2026-04-30T12:33:25.999Z</time></trkpt><trkpt lat="37.85466025003624" lon="13.658906061887604"><ele>257.0</ele><time>2026-04-30T12:33:26.999Z</time></trkpt><trkpt lat="37.85466874222718" lon="13.659010628955208"><ele>256.66666666666663</ele><time>2026-04-30T12:33:27.999Z</time></trkpt><trkpt lat="37.85470851197161" lon="13.659073850510511"><ele>256.3333333333333</ele><time>2026-04-30T12:33:28.999Z</time></trkpt><trkpt lat="37.85479037113932" lon="13.659088333310038"><ele>256.0</ele><time>2026-04-30T12:33:30.999Z</time></trkpt><trkpt lat="37.854882192059094" lon="13.659015000399293"><ele>255.99999999999997</ele><time>2026-04-30T12:33:32.999Z</time></trkpt><trkpt lat="37.85494224742133" lon="13.658954135263297"><ele>256.0</ele><time>2026-04-30T12:33:33.999Z</time></trkpt><trkpt lat="37.855002910845364" lon="13.658920031125803"><ele>256.0</ele><time>2026-04-30T12:33:34.999Z</time></trkpt><trkpt lat="37.8550985988974" lon="13.658927189185166"><ele>256.0</ele><time>2026-04-30T12:33:36.999Z</time></trkpt><trkpt lat="37.85519445951696" lon="13.659039032192068"><ele>255.99999999999997</ele><time>2026-04-30T12:33:38.999Z</time></trkpt><trkpt lat="37.855220064550274" lon="13.659131460891638"><ele>256.0</ele><time>2026-04-30T12:33:39.999Z</time></trkpt><trkpt lat="37.85523061450254" lon="13.659239913568268"><ele>257.0</ele><time>2026-04-30T12:33:40.999Z</time></trkpt><trkpt lat="37.85524789766084" lon="13.659360576462637"><ele>258.0</ele><time>2026-04-30T12:33:41.999Z</time></trkpt><trkpt lat="37.85529246492735" lon="13.659454920053344"><ele>259.0</ele><time>2026-04-30T12:33:42.999Z</time></trkpt><trkpt lat="37.85534319108613" lon="13.659536923055288"><ele>260.0</ele><time>2026-04-30T12:33:43.999Z</time></trkpt><trkpt lat="37.85540702105254" lon="13.659622635502744"><ele>261.0</ele><time>2026-04-30T12:33:44.999Z</time></trkpt><trkpt lat="37.85550647196297" lon="13.65971592323867"><ele>261.0</ele><time>2026-04-30T12:33:45.999Z</time></trkpt><trkpt lat="37.85559826990175" lon="13.65979899513408"><ele>261.0</ele><time>2026-04-30T12:33:46.999Z</time></trkpt><trkpt lat="37.8556708159873" lon="13.65989619062379"><ele>261.0</ele><time>2026-04-30T12:33:47.999Z</time></trkpt><trkpt lat="37.85574484264491" lon="13.660022954776853"><ele>261.0</ele><time>2026-04-30T12:33:48.999Z</time></trkpt><trkpt lat="37.8558265191537" lon="13.660169298523009"><ele>260.5</ele><time>2026-04-30T12:33:49.999Z</time></trkpt><trkpt lat="37.85590218703722" lon="13.660323928198226"><ele>260.0</ele><time>2026-04-30T12:33:50.999Z</time></trkpt><trkpt lat="37.85595623779958" lon="13.66048368596569"><ele>259.5</ele><time>2026-04-30T12:33:51.999Z</time></trkpt><trkpt lat="37.85599876012622" lon="13.660645557758595"><ele>259.0</ele><time>2026-04-30T12:33:52.999Z</time></trkpt><trkpt lat="37.856035276836224" lon="13.660810535719435"><ele>261.0</ele><time>2026-04-30T12:33:53.999Z</time></trkpt><trkpt lat="37.85607541263127" lon="13.660968839429936"><ele>263.0</ele><time>2026-04-30T12:33:54.999Z</time></trkpt><trkpt lat="37.85613488061634" lon="13.661107356785518"><ele>265.0</ele><time>2026-04-30T12:33:55.999Z</time></trkpt><trkpt lat="37.856217604543225" lon="13.661228951716991"><ele>267.0</ele><time>2026-04-30T12:33:56.999Z</time></trkpt><trkpt lat="37.856307254429446" lon="13.661345199969494"><ele>267.0</ele><time>2026-04-30T12:33:57.999Z</time></trkpt><trkpt lat="37.85640047300855" lon="13.661461845191138"><ele>267.0</ele><time>2026-04-30T12:33:58.999Z</time></trkpt><trkpt lat="37.8565116998325" lon="13.661553023559435"><ele>267.0</ele><time>2026-04-30T12:33:59.999Z</time></trkpt><trkpt lat="37.8566443773596" lon="13.661632145858166"><ele>267.0</ele><time>2026-04-30T12:34:00.999Z</time></trkpt><trkpt lat="37.85675416650969" lon="13.661711434841163"><ele>268.0</ele><time>2026-04-30T12:34:01.999Z</time></trkpt><trkpt lat="37.856854800827286" lon="13.661796981273257"><ele>269.0</ele><time>2026-04-30T12:34:02.999Z</time></trkpt><trkpt lat="37.856960980723166" lon="13.661879860513606"><ele>270.0</ele><time>2026-04-30T12:34:03.999Z</time></trkpt><trkpt lat="37.857077185863915" lon="13.661946963798702"><ele>271.0</ele><time>2026-04-30T12:34:04.999Z</time></trkpt><trkpt lat="37.85720767557402" lon="13.661987690956353"><ele>271.0</ele><time>2026-04-30T12:34:05.999Z</time></trkpt><trkpt lat="37.85734538634054" lon="13.662018486969068"><ele>271.0</ele><time>2026-04-30T12:34:06.999Z</time></trkpt><trkpt lat="37.85748347489331" lon="13.662053545781374"><ele>271.0</ele><time>2026-04-30T12:34:07.999Z</time></trkpt><trkpt lat="37.85761781962308" lon="13.662094844076696"><ele>271.0</ele><time>2026-04-30T12:34:08.999Z</time></trkpt><trkpt lat="37.85775244139183" lon="13.662136936878575"><ele>273.0</ele><time>2026-04-30T12:34:09.999Z</time></trkpt><trkpt lat="37.85788371997236" lon="13.662174010408625"><ele>275.0</ele><time>2026-04-30T12:34:10.999Z</time></trkpt><trkpt lat="37.85801661345811" lon="13.662210884199169"><ele>277.0</ele><time>2026-04-30T12:34:11.999Z</time></trkpt><trkpt lat="37.858155674457194" lon="13.662251339695212"><ele>279.0</ele><time>2026-04-30T12:34:12.999Z</time></trkpt><trkpt lat="37.858297079337014" lon="13.662295822955457"><ele>279.0</ele><time>2026-04-30T12:34:13.999Z</time></trkpt><trkpt lat="37.85843933456774" lon="13.662338451800457"><ele>279.0</ele><time>2026-04-30T12:34:14.999Z</time></trkpt><trkpt lat="37.858581504837865" lon="13.662382355837671"><ele>279.0</ele><time>2026-04-30T12:34:15.999Z</time></trkpt><trkpt lat="37.85871980124977" lon="13.66243217598456"><ele>279.0</ele><time>2026-04-30T12:34:17Z</time></trkpt><trkpt lat="37.85885493983487" lon="13.662491074471225"><ele>280.25</ele><time>2026-04-30T12:34:18Z</time></trkpt><trkpt lat="37.85898847466443" lon="13.66255468762391"><ele>281.5</ele><time>2026-04-30T12:34:19Z</time></trkpt><trkpt lat="37.85911347802355" lon="13.662618105059257"><ele>282.75</ele><time>2026-04-30T12:34:20Z</time></trkpt><trkpt lat="37.859227354728226" lon="13.6626696177366"><ele>284.0</ele><time>2026-04-30T12:34:21Z</time></trkpt><trkpt lat="37.85933839507234" lon="13.662697193824958"><ele>284.5</ele><time>2026-04-30T12:34:22Z</time></trkpt><trkpt lat="37.859458479327614" lon="13.662679383581219"><ele>285.0</ele><time>2026-04-30T12:34:23Z</time></trkpt><trkpt lat="37.859579250468514" lon="13.662613434646143"><ele>285.5</ele><time>2026-04-30T12:34:24Z</time></trkpt><trkpt lat="37.85968634296013" lon="13.662505362730736"><ele>286.0</ele><time>2026-04-30T12:34:25Z</time></trkpt><trkpt lat="37.85978381411605" lon="13.66236501389982"><ele>286.0</ele><time>2026-04-30T12:34:26Z</time></trkpt><trkpt lat="37.85988458199642" lon="13.662215509667789"><ele>286.0</ele><time>2026-04-30T12:34:27Z</time></trkpt><trkpt lat="37.859995203785" lon="13.662069488936252"><ele>286.0</ele><time>2026-04-30T12:34:28Z</time></trkpt><trkpt lat="37.86011278301877" lon="13.661923140846977"><ele>288.3333333333333</ele><time>2026-04-30T12:34:29Z</time></trkpt><trkpt lat="37.8602278798014" lon="13.661774269075133"><ele>290.6666666666667</ele><time>2026-04-30T12:34:30Z</time></trkpt><trkpt lat="37.86033740264014" lon="13.661636670383801"><ele>293.0</ele><time>2026-04-30T12:34:31Z</time></trkpt><trkpt lat="37.86044844837926" lon="13.661512441596257"><ele>293.0</ele><time>2026-04-30T12:34:32Z</time></trkpt><trkpt lat="37.8605597300742" lon="13.661408845227626"><ele>293.0</ele><time>2026-04-30T12:34:33Z</time></trkpt><trkpt lat="37.86066708818057" lon="13.661318724794777"><ele>293.0</ele><time>2026-04-30T12:34:34Z</time></trkpt><trkpt lat="37.86077219117299" lon="13.661239054621877"><ele>293.0</ele><time>2026-04-30T12:34:35Z</time></trkpt><trkpt lat="37.86087336197099" lon="13.661168863580908"><ele>293.2</ele><time>2026-04-30T12:34:36Z</time></trkpt><trkpt lat="37.86097058246882" lon="13.661121907462741"><ele>293.4</ele><time>2026-04-30T12:34:37Z</time></trkpt><trkpt lat="37.86105785406498" lon="13.661119206035416"><ele>293.59999999999997</ele><time>2026-04-30T12:34:38Z</time></trkpt><trkpt lat="37.861143469234406" lon="13.661134425440412"><ele>293.8</ele><time>2026-04-30T12:34:39Z</time></trkpt><trkpt lat="37.86123557673459" lon="13.661159886706367"><ele>294.0</ele><time>2026-04-30T12:34:40Z</time></trkpt><trkpt lat="37.86132846337552" lon="13.661194698298528"><ele>294.0</ele><time>2026-04-30T12:34:41Z</time></trkpt><trkpt lat="37.86142918962808" lon="13.661204892057409"><ele>294.0</ele><time>2026-04-30T12:34:42Z</time></trkpt><trkpt lat="37.861541375554246" lon="13.66115121064715"><ele>294.0</ele><time>2026-04-30T12:34:43Z</time></trkpt><trkpt lat="37.86164226926834" lon="13.66106965183882"><ele>294.0</ele><time>2026-04-30T12:34:44Z</time></trkpt><trkpt lat="37.8617336321479" lon="13.660961599542702"><ele>295.0</ele><time>2026-04-30T12:34:45Z</time></trkpt><trkpt lat="37.86182497976882" lon="13.660849279133155"><ele>296.0</ele><time>2026-04-30T12:34:46Z</time></trkpt><trkpt lat="37.86191927896532" lon="13.66075014565678"><ele>297.0</ele><time>2026-04-30T12:34:47Z</time></trkpt><trkpt lat="37.862015975039874" lon="13.660662031950396"><ele>298.0</ele><time>2026-04-30T12:34:48Z</time></trkpt><trkpt lat="37.86211874076935" lon="13.660591868660848"><ele>298.0</ele><time>2026-04-30T12:34:49Z</time></trkpt><trkpt lat="37.86222953216215" lon="13.660564416274816"><ele>298.0</ele><time>2026-04-30T12:34:50Z</time></trkpt><trkpt lat="37.86234916934727" lon="13.66057560049656"><ele>298.0</ele><time>2026-04-30T12:34:51Z</time></trkpt><trkpt lat="37.86247014609724" lon="13.660597707795691"><ele>298.0</ele><time>2026-04-30T12:34:52Z</time></trkpt><trkpt lat="37.86258459561245" lon="13.660602853204644"><ele>298.5</ele><time>2026-04-30T12:34:53Z</time></trkpt><trkpt lat="37.86270248894543" lon="13.66059285501701"><ele>299.0</ele><time>2026-04-30T12:34:54Z</time></trkpt><trkpt lat="37.86282588565526" lon="13.660570097992258"><ele>299.5</ele><time>2026-04-30T12:34:55Z</time></trkpt><trkpt lat="37.862951936430846" lon="13.660544327285642"><ele>300.0</ele><time>2026-04-30T12:34:56Z</time></trkpt><trkpt lat="37.86307994636425" lon="13.660522461963424"><ele>300.0</ele><time>2026-04-30T12:34:57Z</time></trkpt><trkpt lat="37.8632120087081" lon="13.660499326491733"><ele>300.0</ele><time>2026-04-30T12:34:58Z</time></trkpt><trkpt lat="37.86334860882529" lon="13.660459666927627"><ele>300.0</ele><time>2026-04-30T12:34:59Z</time></trkpt><trkpt lat="37.8634907648111" lon="13.660407134288146"><ele>300.0</ele><time>2026-04-30T12:35:00Z</time></trkpt><trkpt lat="37.86363329811471" lon="13.660356501740937"><ele>301.0</ele><time>2026-04-30T12:35:01Z</time></trkpt><trkpt lat="37.86376290337299" lon="13.66031325415578"><ele>302.0</ele><time>2026-04-30T12:35:02Z</time></trkpt><trkpt lat="37.86387376744501" lon="13.660265495682195"><ele>303.0</ele><time>2026-04-30T12:35:03Z</time></trkpt><trkpt lat="37.86396567900725" lon="13.660186981132322"><ele>304.0</ele><time>2026-04-30T12:35:04Z</time></trkpt><trkpt lat="37.86403902175277" lon="13.660063624194166"><ele>305.5</ele><time>2026-04-30T12:35:05Z</time></trkpt><trkpt lat="37.86410283844873" lon="13.659905293790434"><ele>307.0</ele><time>2026-04-30T12:35:06Z</time></trkpt><trkpt lat="37.86417242341965" lon="13.659740778415651"><ele>308.5</ele><time>2026-04-30T12:35:07Z</time></trkpt><trkpt lat="37.864241781470206" lon="13.659592335943016"><ele>310.0</ele><time>2026-04-30T12:35:08Z</time></trkpt><trkpt lat="37.8643175739422" lon="13.659462016598273"><ele>311.0</ele><time>2026-04-30T12:35:09Z</time></trkpt><trkpt lat="37.86439750648277" lon="13.659350450242574"><ele>312.0</ele><time>2026-04-30T12:35:10Z</time></trkpt><trkpt lat="37.86447635479791" lon="13.659275755308613"><ele>313.0</ele><time>2026-04-30T12:35:11Z</time></trkpt><trkpt lat="37.8645635101423" lon="13.659229159175364"><ele>314.0</ele><time>2026-04-30T12:35:12Z</time></trkpt><trkpt lat="37.86467002858598" lon="13.659185217197228"><ele>315.0</ele><time>2026-04-30T12:35:13Z</time></trkpt><trkpt lat="37.86477445784564" lon="13.659124483790313"><ele>315.0</ele><time>2026-04-30T12:35:14Z</time></trkpt><trkpt lat="37.864874659505304" lon="13.659048207218344"><ele>315.0</ele><time>2026-04-30T12:35:14.999Z</time></trkpt><trkpt lat="37.86496951666375" lon="13.658957379677977"><ele>315.0</ele><time>2026-04-30T12:35:15.999Z</time></trkpt><trkpt lat="37.86506443164956" lon="13.658858815859256"><ele>315.0</ele><time>2026-04-30T12:35:16.999Z</time></trkpt><trkpt lat="37.86516439187181" lon="13.658758758249261"><ele>315.75</ele><time>2026-04-30T12:35:17.999Z</time></trkpt><trkpt lat="37.86527730819987" lon="13.658656780939904"><ele>316.5</ele><time>2026-04-30T12:35:18.999Z</time></trkpt><trkpt lat="37.86539533704914" lon="13.658549981502912"><ele>317.25</ele><time>2026-04-30T12:35:19.999Z</time></trkpt><trkpt lat="37.86551150502859" lon="13.658437653637282"><ele>318.0</ele><time>2026-04-30T12:35:20.999Z</time></trkpt><trkpt lat="37.86562556202195" lon="13.658327500403074"><ele>319.25</ele><time>2026-04-30T12:35:21.999Z</time></trkpt><trkpt lat="37.86573864295267" lon="13.658220010778802"><ele>320.5</ele><time>2026-04-30T12:35:22.999Z</time></trkpt><trkpt lat="37.865856939804644" lon="13.65812918244225"><ele>321.75</ele><time>2026-04-30T12:35:23.999Z</time></trkpt><trkpt lat="37.86598658108006" lon="13.658050009973428"><ele>323.0</ele><time>2026-04-30T12:35:24.999Z</time></trkpt><trkpt lat="37.866115748855016" lon="13.657981625029736"><ele>324.0</ele><time>2026-04-30T12:35:25.999Z</time></trkpt><trkpt lat="37.86624463834519" lon="13.657929813535576"><ele>325.0</ele><time>2026-04-30T12:35:26.999Z</time></trkpt><trkpt lat="37.86637939794215" lon="13.657894536971225"><ele>326.0</ele><time>2026-04-30T12:35:27.999Z</time></trkpt><trkpt lat="37.86650166292012" lon="13.657839469916317"><ele>327.0</ele><time>2026-04-30T12:35:28.999Z</time></trkpt><trkpt lat="37.86660410770051" lon="13.657758592144946"><ele>328.20000000000005</ele><time>2026-04-30T12:35:29.999Z</time></trkpt><trkpt lat="37.86669790786938" lon="13.657686554178937"><ele>329.4</ele><time>2026-04-30T12:35:30.999Z</time></trkpt><trkpt lat="37.86679703803888" lon="13.657663056915144"><ele>330.6</ele><time>2026-04-30T12:35:31.999Z</time></trkpt><trkpt lat="37.866888229021505" lon="13.657696211708897"><ele>331.79999999999995</ele><time>2026-04-30T12:35:32.999Z</time></trkpt><trkpt lat="37.86696581888548" lon="13.657780848704933"><ele>333.0</ele><time>2026-04-30T12:35:33.999Z</time></trkpt><trkpt lat="37.86704591025547" lon="13.657880147590662"><ele>334.25</ele><time>2026-04-30T12:35:34.999Z</time></trkpt><trkpt lat="37.86713139929008" lon="13.657982107762555"><ele>335.5</ele><time>2026-04-30T12:35:35.999Z</time></trkpt><trkpt lat="37.86720670772515" lon="13.658093508379062"><ele>336.75</ele><time>2026-04-30T12:35:36.999Z</time></trkpt><trkpt lat="37.867256424532506" lon="13.65821237910571"><ele>338.0</ele><time>2026-04-30T12:35:37.999Z</time></trkpt><trkpt lat="37.867279115112076" lon="13.658351518835751"><ele>338.0</ele><time>2026-04-30T12:35:38.999Z</time></trkpt><trkpt lat="37.8672811365943" lon="13.658494620169739"><ele>338.0</ele><time>2026-04-30T12:35:39.999Z</time></trkpt><trkpt lat="37.86727158644222" lon="13.658651159377309"><ele>338.0</ele><time>2026-04-30T12:35:40.999Z</time></trkpt><trkpt lat="37.86725136146177" lon="13.6588159969762"><ele>338.0</ele><time>2026-04-30T12:35:41.999Z</time></trkpt><trkpt lat="37.867228148460256" lon="13.65896665446485"><ele>339.0</ele><time>2026-04-30T12:35:42.999Z</time></trkpt><trkpt lat="37.86719036111455" lon="13.65910055006767"><ele>340.0</ele><time>2026-04-30T12:35:43.999Z</time></trkpt><trkpt lat="37.86713014275083" lon="13.659208775326798"><ele>341.0</ele><time>2026-04-30T12:35:44.999Z</time></trkpt><trkpt lat="37.86704412980181" lon="13.659286548319796"><ele>342.0</ele><time>2026-04-30T12:35:45.999Z</time></trkpt><trkpt lat="37.86693289947213" lon="13.659362565935206"><ele>343.0</ele><time>2026-04-30T12:35:46.999Z</time></trkpt><trkpt lat="37.8668169996142" lon="13.659454839829003"><ele>342.0</ele><time>2026-04-30T12:35:47.999Z</time></trkpt><trkpt lat="37.8667081401446" lon="13.659546353244819"><ele>341.0</ele><time>2026-04-30T12:35:48.999Z</time></trkpt><trkpt lat="37.86661009887757" lon="13.6596372227866"><ele>340.0</ele><time>2026-04-30T12:35:49.999Z</time></trkpt><trkpt lat="37.86652723862832" lon="13.659727845132265"><ele>339.0</ele><time>2026-04-30T12:35:50.999Z</time></trkpt><trkpt lat="37.866471014322364" lon="13.659852094562416"><ele>339.0</ele><time>2026-04-30T12:35:51.999Z</time></trkpt><trkpt lat="37.86644042314568" lon="13.660008365696665"><ele>339.0</ele><time>2026-04-30T12:35:52.999Z</time></trkpt><trkpt lat="37.8664212607068" lon="13.660180270947828"><ele>339.0</ele><time>2026-04-30T12:35:53.999Z</time></trkpt><trkpt lat="37.866405971641804" lon="13.660344882145402"><ele>339.0</ele><time>2026-04-30T12:35:54.999Z</time></trkpt><trkpt lat="37.86639448559893" lon="13.66050580637762"><ele>341.0</ele><time>2026-04-30T12:35:55.999Z</time></trkpt><trkpt lat="37.86638412312201" lon="13.660670238028437"><ele>343.0</ele><time>2026-04-30T12:35:56.999Z</time></trkpt><trkpt lat="37.866375420584966" lon="13.66083492596142"><ele>345.0</ele><time>2026-04-30T12:35:57.999Z</time></trkpt><trkpt lat="37.866370822143054" lon="13.66099671833645"><ele>347.0</ele><time>2026-04-30T12:35:58.999Z</time></trkpt><trkpt lat="37.86637810070022" lon="13.661152004526109"><ele>348.0</ele><time>2026-04-30T12:35:59.999Z</time></trkpt><trkpt lat="37.86639476656662" lon="13.661302052401124"><ele>349.0</ele><time>2026-04-30T12:36:00.999Z</time></trkpt><trkpt lat="37.866426833753046" lon="13.661445159921623"><ele>350.0</ele><time>2026-04-30T12:36:01.999Z</time></trkpt><trkpt lat="37.86649291422427" lon="13.66158178122185"><ele>351.0</ele><time>2026-04-30T12:36:02.999Z</time></trkpt><trkpt lat="37.866577983911284" lon="13.66171240143203"><ele>351.0</ele><time>2026-04-30T12:36:03.999Z</time></trkpt><trkpt lat="37.86667331970141" lon="13.661843602927942"><ele>351.0</ele><time>2026-04-30T12:36:04.999Z</time></trkpt><trkpt lat="37.8667873576136" lon="13.66196192702656"><ele>351.0</ele><time>2026-04-30T12:36:05.999Z</time></trkpt><trkpt lat="37.86690201760643" lon="13.662073290766703"><ele>351.0</ele><time>2026-04-30T12:36:06.999Z</time></trkpt><trkpt lat="37.86699618027588" lon="13.662180078626466"><ele>355.5</ele><time>2026-04-30T12:36:07.999Z</time></trkpt><trkpt lat="37.867074520389565" lon="13.662315392447116"><ele>360.0</ele><time>2026-04-30T12:36:08.999Z</time></trkpt><trkpt lat="37.867135749821124" lon="13.662477560675798"><ele>364.5</ele><time>2026-04-30T12:36:09.999Z</time></trkpt><trkpt lat="37.86717398913255" lon="13.662664394694241"><ele>369.0</ele><time>2026-04-30T12:36:10.999Z</time></trkpt><trkpt lat="37.86720687167606" lon="13.662851427434376"><ele>369.75</ele><time>2026-04-30T12:36:11.999Z</time></trkpt><trkpt lat="37.8672403736006" lon="13.663028552548981"><ele>370.5</ele><time>2026-04-30T12:36:12.999Z</time></trkpt><trkpt lat="37.86725757463846" lon="13.663200809653112"><ele>371.25</ele><time>2026-04-30T12:36:13.999Z</time></trkpt><trkpt lat="37.86724593756065" lon="13.66338230787277"><ele>372.0</ele><time>2026-04-30T12:36:14.999Z</time></trkpt><trkpt lat="37.867219263250696" lon="13.66357354581408"><ele>373.5</ele><time>2026-04-30T12:36:15.999Z</time></trkpt><trkpt lat="37.86719899211689" lon="13.66375695373979"><ele>375.0</ele><time>2026-04-30T12:36:16.999Z</time></trkpt><trkpt lat="37.867183682763624" lon="13.663918445572742"><ele>376.5</ele><time>2026-04-30T12:36:17.999Z</time></trkpt><trkpt lat="37.86716809812658" lon="13.664062407436951"><ele>378.0</ele><time>2026-04-30T12:36:18.999Z</time></trkpt><trkpt lat="37.86714409903099" lon="13.664189438080689"><ele>378.0</ele><time>2026-04-30T12:36:19.999Z</time></trkpt><trkpt lat="37.86709841412233" lon="13.664312839039443"><ele>378.0</ele><time>2026-04-30T12:36:20.999Z</time></trkpt><trkpt lat="37.86702859855582" lon="13.66444455527249"><ele>378.0</ele><time>2026-04-30T12:36:21.999Z</time></trkpt><trkpt lat="37.86696911143022" lon="13.664587235180313"><ele>378.0</ele><time>2026-04-30T12:36:23Z</time></trkpt><trkpt lat="37.8669377203121" lon="13.664758412987949"><ele>377.25</ele><time>2026-04-30T12:36:24Z</time></trkpt><trkpt lat="37.866915181773074" lon="13.664943160757057"><ele>376.5</ele><time>2026-04-30T12:36:25Z</time></trkpt><trkpt lat="37.86687494463836" lon="13.665116596134952"><ele>375.75</ele><time>2026-04-30T12:36:26Z</time></trkpt><trkpt lat="37.866808975385865" lon="13.665285028385192"><ele>375.0</ele><time>2026-04-30T12:36:27Z</time></trkpt><trkpt lat="37.866721598149546" lon="13.665449229623144"><ele>375.0</ele><time>2026-04-30T12:36:28Z</time></trkpt><trkpt lat="37.86663631496207" lon="13.665617284871301"><ele>375.0</ele><time>2026-04-30T12:36:29Z</time></trkpt><trkpt lat="37.86657053332524" lon="13.665784940597652"><ele>375.0</ele><time>2026-04-30T12:36:30Z</time></trkpt><trkpt lat="37.8665227400947" lon="13.665940636500055"><ele>375.0</ele><time>2026-04-30T12:36:31Z</time></trkpt><trkpt lat="37.86650730381664" lon="13.666089299423584"><ele>374.4</ele><time>2026-04-30T12:36:32Z</time></trkpt><trkpt lat="37.86652685386235" lon="13.666232845180389"><ele>373.8</ele><time>2026-04-30T12:36:33Z</time></trkpt><trkpt lat="37.866582186213954" lon="13.666346463934289"><ele>373.20000000000005</ele><time>2026-04-30T12:36:34Z</time></trkpt><trkpt lat="37.86666925565859" lon="13.666421888318972"><ele>372.6</ele><time>2026-04-30T12:36:35Z</time></trkpt><trkpt lat="37.86677575576808" lon="13.666457336295428"><ele>372.0</ele><time>2026-04-30T12:36:36Z</time></trkpt><trkpt lat="37.86689014196426" lon="13.66644245621346"><ele>374.6</ele><time>2026-04-30T12:36:37Z</time></trkpt><trkpt lat="37.86699948366256" lon="13.666418057007288"><ele>377.20000000000005</ele><time>2026-04-30T12:36:38Z</time></trkpt><trkpt lat="37.86710905655614" lon="13.666419720859503"><ele>379.8</ele><time>2026-04-30T12:36:39Z</time></trkpt><trkpt lat="37.867218076586816" lon="13.666443417643066"><ele>382.4</ele><time>2026-04-30T12:36:40Z</time></trkpt><trkpt lat="37.867318154495486" lon="13.666496280744376"><ele>385.0</ele><time>2026-04-30T12:36:41Z</time></trkpt><trkpt lat="37.86740349197225" lon="13.666585290327168"><ele>385.0</ele><time>2026-04-30T12:36:42Z</time></trkpt><trkpt lat="37.86749056510155" lon="13.666690217649942"><ele>385.0</ele><time>2026-04-30T12:36:43Z</time></trkpt><trkpt lat="37.867587967938924" lon="13.666780195314518"><ele>385.0</ele><time>2026-04-30T12:36:44Z</time></trkpt><trkpt lat="37.86769169432527" lon="13.666834321637914"><ele>385.0</ele><time>2026-04-30T12:36:45Z</time></trkpt><trkpt lat="37.867807534510824" lon="13.666845568561769"><ele>386.75</ele><time>2026-04-30T12:36:46Z</time></trkpt><trkpt lat="37.86793258232977" lon="13.66683804557345"><ele>388.5</ele><time>2026-04-30T12:36:47Z</time></trkpt><trkpt lat="37.86806160070667" lon="13.666837353238455"><ele>390.25</ele><time>2026-04-30T12:36:48Z</time></trkpt><trkpt lat="37.86818722016592" lon="13.666853431047677"><ele>392.0</ele><time>2026-04-30T12:36:49Z</time></trkpt><trkpt lat="37.868306832947944" lon="13.666839420507234"><ele>392.0</ele><time>2026-04-30T12:36:50Z</time></trkpt><trkpt lat="37.868413824464604" lon="13.666780481554"><ele>392.0</ele><time>2026-04-30T12:36:51Z</time></trkpt><trkpt lat="37.86851070137358" lon="13.666729133931705"><ele>392.0</ele><time>2026-04-30T12:36:52Z</time></trkpt><trkpt lat="37.868608691384466" lon="13.666719780036704"><ele>392.0</ele><time>2026-04-30T12:36:53Z</time></trkpt><trkpt lat="37.868699426811474" lon="13.666756489445493"><ele>392.0</ele><time>2026-04-30T12:36:54Z</time></trkpt><trkpt lat="37.868787442065454" lon="13.666822887643058"><ele>393.6</ele><time>2026-04-30T12:36:55Z</time></trkpt><trkpt lat="37.86887293593919" lon="13.66690537501708"><ele>395.20000000000005</ele><time>2026-04-30T12:36:56Z</time></trkpt><trkpt lat="37.86894097193179" lon="13.667014042162771"><ele>396.8</ele><time>2026-04-30T12:36:57Z</time></trkpt><trkpt lat="37.86898021628041" lon="13.667145235785812"><ele>398.4</ele><time>2026-04-30T12:36:58Z</time></trkpt><trkpt lat="37.86897242117932" lon="13.667276403423536"><ele>400.0</ele><time>2026-04-30T12:36:59Z</time></trkpt><trkpt lat="37.868928958756456" lon="13.667399776244844"><ele>400.75</ele><time>2026-04-30T12:37:00Z</time></trkpt><trkpt lat="37.868846402240116" lon="13.66749957307247"><ele>401.5</ele><time>2026-04-30T12:37:01Z</time></trkpt><trkpt lat="37.86874097751857" lon="13.667562766853953"><ele>402.25</ele><time>2026-04-30T12:37:02Z</time></trkpt><trkpt lat="37.868627951249046" lon="13.667615660775601"><ele>403.0</ele><time>2026-04-30T12:37:03Z</time></trkpt><trkpt lat="37.86852268105895" lon="13.667680575643582"><ele>404.25</ele><time>2026-04-30T12:37:04Z</time></trkpt><trkpt lat="37.86843490602964" lon="13.667770461576538"><ele>405.5</ele><time>2026-04-30T12:37:05Z</time></trkpt><trkpt lat="37.868358095256774" lon="13.667890413793584"><ele>406.75</ele><time>2026-04-30T12:37:06Z</time></trkpt><trkpt lat="37.86828380248557" lon="13.668032682731786"><ele>408.0</ele><time>2026-04-30T12:37:07Z</time></trkpt><trkpt lat="37.868209418203456" lon="13.668173978214941"><ele>408.0</ele><time>2026-04-30T12:37:08Z</time></trkpt><trkpt lat="37.868134372302485" lon="13.668304997579536"><ele>408.0</ele><time>2026-04-30T12:37:09Z</time></trkpt><trkpt lat="37.86805228803487" lon="13.668427022749004"><ele>408.0</ele><time>2026-04-30T12:37:10Z</time></trkpt><trkpt lat="37.86795291439715" lon="13.668527124737011"><ele>408.0</ele><time>2026-04-30T12:37:11Z</time></trkpt><trkpt lat="37.867838923335675" lon="13.668613504099842"><ele>407.75</ele><time>2026-04-30T12:37:12Z</time></trkpt><trkpt lat="37.86773288692534" lon="13.668713217468257"><ele>407.5</ele><time>2026-04-30T12:37:13Z</time></trkpt><trkpt lat="37.867643821225116" lon="13.668832969383347"><ele>407.25</ele><time>2026-04-30T12:37:14Z</time></trkpt><trkpt lat="37.86757180341443" lon="13.668964677013376"><ele>407.0</ele><time>2026-04-30T12:37:15Z</time></trkpt><trkpt lat="37.86752780739465" lon="13.66912475114676"><ele>407.0</ele><time>2026-04-30T12:37:16Z</time></trkpt><trkpt lat="37.8675086199513" lon="13.669303005139664"><ele>407.0</ele><time>2026-04-30T12:37:17Z</time></trkpt><trkpt lat="37.86749686121169" lon="13.669491078186441"><ele>407.0</ele><time>2026-04-30T12:37:18Z</time></trkpt><trkpt lat="37.867484262045146" lon="13.669679595270225"><ele>407.0</ele><time>2026-04-30T12:37:19Z</time></trkpt><trkpt lat="37.867474019631764" lon="13.669864537664955"><ele>406.25</ele><time>2026-04-30T12:37:20Z</time></trkpt><trkpt lat="37.86747376548262" lon="13.670030155269545"><ele>405.5</ele><time>2026-04-30T12:37:21Z</time></trkpt><trkpt lat="37.86748293270459" lon="13.67017846002458"><ele>404.75</ele><time>2026-04-30T12:37:22Z</time></trkpt><trkpt lat="37.86751481540728" lon="13.670307333362542"><ele>404.0</ele><time>2026-04-30T12:37:23Z</time></trkpt><trkpt lat="37.86757966643502" lon="13.670422157850554"><ele>407.5</ele><time>2026-04-30T12:37:24Z</time></trkpt><trkpt lat="37.86768409898857" lon="13.670513317751286"><ele>411.0</ele><time>2026-04-30T12:37:25Z</time></trkpt><trkpt lat="37.86780905858838" lon="13.670572777924288"><ele>414.5</ele><time>2026-04-30T12:37:25.999Z</time></trkpt><trkpt lat="37.86794630539092" lon="13.670600604360041"><ele>418.0</ele><time>2026-04-30T12:37:26.999Z</time></trkpt><trkpt lat="37.868092615118876" lon="13.670596815940565"><ele>418.0</ele><time>2026-04-30T12:37:27.999Z</time></trkpt><trkpt lat="37.86823799028155" lon="13.670570278935829"><ele>418.0</ele><time>2026-04-30T12:37:28.999Z</time></trkpt><trkpt lat="37.86837892811153" lon="13.670526969172059"><ele>418.0</ele><time>2026-04-30T12:37:29.999Z</time></trkpt><trkpt lat="37.86850692075078" lon="13.670529327881018"><ele>418.0</ele><time>2026-04-30T12:37:30.999Z</time></trkpt><trkpt lat="37.86862405025075" lon="13.670573203147367"><ele>422.25</ele><time>2026-04-30T12:37:31.999Z</time></trkpt><trkpt lat="37.868730456424544" lon="13.670648673193288"><ele>426.5</ele><time>2026-04-30T12:37:32.999Z</time></trkpt><trkpt lat="37.868842113325606" lon="13.670743674853135"><ele>430.75</ele><time>2026-04-30T12:37:33.999Z</time></trkpt><trkpt lat="37.868945460240816" lon="13.670841738069694"><ele>435.0</ele><time>2026-04-30T12:37:34.999Z</time></trkpt><trkpt lat="37.86900686568961" lon="13.670959519503075"><ele>434.5</ele><time>2026-04-30T12:37:35.999Z</time></trkpt><trkpt lat="37.86903607260436" lon="13.671110507351125"><ele>434.0</ele><time>2026-04-30T12:37:36.999Z</time></trkpt><trkpt lat="37.869046067683236" lon="13.671279411927674"><ele>433.5</ele><time>2026-04-30T12:37:37.999Z</time></trkpt><trkpt lat="37.86906906999352" lon="13.671425805866322"><ele>433.0</ele><time>2026-04-30T12:37:38.999Z</time></trkpt><trkpt lat="37.869124727480255" lon="13.671526287099606"><ele>433.0</ele><time>2026-04-30T12:37:39.999Z</time></trkpt><trkpt lat="37.86921854560594" lon="13.671579634083182"><ele>432.99999999999994</ele><time>2026-04-30T12:37:40.999Z</time></trkpt><trkpt lat="37.86932668747173" lon="13.671584934446095"><ele>432.99999999999994</ele><time>2026-04-30T12:37:41.999Z</time></trkpt><trkpt lat="37.86943073519146" lon="13.671529887348088"><ele>433.0</ele><time>2026-04-30T12:37:42.999Z</time></trkpt><trkpt lat="37.86950328691032" lon="13.671426886124268"><ele>433.0</ele><time>2026-04-30T12:37:43.999Z</time></trkpt><trkpt lat="37.86953344884019" lon="13.6712875917503"><ele>439.0</ele><time>2026-04-30T12:37:44.999Z</time></trkpt><trkpt lat="37.8695126158467" lon="13.671136580390089"><ele>445.0</ele><time>2026-04-30T12:37:45.999Z</time></trkpt><trkpt lat="37.869452026933565" lon="13.670998731778262"><ele>451.0</ele><time>2026-04-30T12:37:46.999Z</time></trkpt><trkpt lat="37.86938138348838" lon="13.67086731516591"><ele>457.0</ele><time>2026-04-30T12:37:47.999Z</time></trkpt><trkpt lat="37.869315087080146" lon="13.670743941698134"><ele>457.20000000000005</ele><time>2026-04-30T12:37:48.999Z</time></trkpt><trkpt lat="37.86926694693663" lon="13.670622510168236"><ele>457.40000000000003</ele><time>2026-04-30T12:37:49.999Z</time></trkpt><trkpt lat="37.86924316491189" lon="13.6704955189606"><ele>457.59999999999997</ele><time>2026-04-30T12:37:50.999Z</time></trkpt><trkpt lat="37.86924493658415" lon="13.670348332127144"><ele>457.79999999999995</ele><time>2026-04-30T12:37:51.999Z</time></trkpt><trkpt lat="37.869266069314556" lon="13.670201175787144"><ele>458.0</ele><time>2026-04-30T12:37:52.999Z</time></trkpt><trkpt lat="37.86931796835259" lon="13.670067399288815"><ele>458.0</ele><time>2026-04-30T12:37:53.999Z</time></trkpt><trkpt lat="37.86938933449746" lon="13.669939750403"><ele>458.0</ele><time>2026-04-30T12:37:54.999Z</time></trkpt><trkpt lat="37.869489780474716" lon="13.669823853240318"><ele>458.0</ele><time>2026-04-30T12:37:55.999Z</time></trkpt><trkpt lat="37.86961048118489" lon="13.669727344542599"><ele>458.0</ele><time>2026-04-30T12:37:56.999Z</time></trkpt><trkpt lat="37.869749680562144" lon="13.669645818631215"><ele>458.0</ele><time>2026-04-30T12:37:57.999Z</time></trkpt><trkpt lat="37.86989292599419" lon="13.669573268900301"><ele>458.0</ele><time>2026-04-30T12:37:58.999Z</time></trkpt><trkpt lat="37.87001657957888" lon="13.669500678913504"><ele>458.0</ele><time>2026-04-30T12:37:59.999Z</time></trkpt><trkpt lat="37.87012615991862" lon="13.669428345600103"><ele>458.0</ele><time>2026-04-30T12:38:00.999Z</time></trkpt><trkpt lat="37.87023602427836" lon="13.669364081067739"><ele>458.0</ele><time>2026-04-30T12:38:01.999Z</time></trkpt><trkpt lat="37.870343080654" lon="13.669303661400322"><ele>458.0</ele><time>2026-04-30T12:38:02.999Z</time></trkpt><trkpt lat="37.87045613171472" lon="13.669244492327751"><ele>458.0</ele><time>2026-04-30T12:38:03.999Z</time></trkpt><trkpt lat="37.870582725423624" lon="13.669191363546112"><ele>458.0</ele><time>2026-04-30T12:38:04.999Z</time></trkpt><trkpt lat="37.87071026642523" lon="13.669136588480603"><ele>458.0</ele><time>2026-04-30T12:38:05.999Z</time></trkpt><trkpt lat="37.87083664319987" lon="13.669079458492478"><ele>458.0</ele><time>2026-04-30T12:38:06.999Z</time></trkpt><trkpt lat="37.87095891291636" lon="13.669002395404966"><ele>458.0</ele><time>2026-04-30T12:38:07.999Z</time></trkpt><trkpt lat="37.8710726195035" lon="13.668915915439063"><ele>458.0</ele><time>2026-04-30T12:38:08.999Z</time></trkpt><trkpt lat="37.87118612063992" lon="13.668819956051896"><ele>458.75</ele><time>2026-04-30T12:38:09.999Z</time></trkpt><trkpt lat="37.871305927061535" lon="13.668728584265283"><ele>459.5</ele><time>2026-04-30T12:38:10.999Z</time></trkpt><trkpt lat="37.87143194019728" lon="13.668647029521493"><ele>460.25</ele><time>2026-04-30T12:38:11.999Z</time></trkpt><trkpt lat="37.87156653878151" lon="13.668558140863333"><ele>461.0</ele><time>2026-04-30T12:38:12.999Z</time></trkpt><trkpt lat="37.871712364798725" lon="13.668460398576466"><ele>468.66666666666663</ele><time>2026-04-30T12:38:13.999Z</time></trkpt><trkpt lat="37.87186990283784" lon="13.668362984948729"><ele>476.33333333333337</ele><time>2026-04-30T12:38:14.999Z</time></trkpt><trkpt lat="37.8720324198926" lon="13.66826981872223"><ele>484.0</ele><time>2026-04-30T12:38:15.999Z</time></trkpt><trkpt lat="37.87217282426484" lon="13.668188817716171"><ele>484.0</ele><time>2026-04-30T12:38:16.999Z</time></trkpt><trkpt lat="37.87228279164177" lon="13.668114259881117"><ele>484.0</ele><time>2026-04-30T12:38:17.999Z</time></trkpt><trkpt lat="37.872367144395746" lon="13.668019787858595"><ele>484.0</ele><time>2026-04-30T12:38:18.999Z</time></trkpt><trkpt lat="37.87242256579391" lon="13.667887305885467"><ele>484.0</ele><time>2026-04-30T12:38:19.999Z</time></trkpt><trkpt lat="37.87244267869281" lon="13.667728478371233"><ele>484.0</ele><time>2026-04-30T12:38:20.999Z</time></trkpt><trkpt lat="37.87242760494376" lon="13.667578461977747"><ele>484.0</ele><time>2026-04-30T12:38:21.999Z</time></trkpt><trkpt lat="37.87238151448117" lon="13.667455930814286"><ele>484.0</ele><time>2026-04-30T12:38:22.999Z</time></trkpt><trkpt lat="37.872290973207235" lon="13.667350512616057"><ele>484.0</ele><time>2026-04-30T12:38:23.999Z</time></trkpt><trkpt lat="37.87216268929524" lon="13.667260094023508"><ele>484.0</ele><time>2026-04-30T12:38:24.999Z</time></trkpt><trkpt lat="37.872042265360484" lon="13.66716606604942"><ele>484.0</ele><time>2026-04-30T12:38:25.999Z</time></trkpt><trkpt lat="37.87195136583895" lon="13.667046311061906"><ele>484.0</ele><time>2026-04-30T12:38:26.999Z</time></trkpt><trkpt lat="37.871866362600095" lon="13.66689529168569"><ele>484.0</ele><time>2026-04-30T12:38:27.999Z</time></trkpt><trkpt lat="37.87179544056439" lon="13.66674574026165"><ele>486.25</ele><time>2026-04-30T12:38:29Z</time></trkpt><trkpt lat="37.871751889586406" lon="13.666609975780814"><ele>488.5</ele><time>2026-04-30T12:38:30Z</time></trkpt><trkpt lat="37.87173681797028" lon="13.666464201843425"><ele>490.75</ele><time>2026-04-30T12:38:31Z</time></trkpt><trkpt lat="37.87174848778443" lon="13.666300154706091"><ele>493.0</ele><time>2026-04-30T12:38:32Z</time></trkpt><trkpt lat="37.871780892162704" lon="13.666140373915242"><ele>492.5</ele><time>2026-04-30T12:38:33Z</time></trkpt><trkpt lat="37.8718346563307" lon="13.666000276863958"><ele>492.0</ele><time>2026-04-30T12:38:34Z</time></trkpt><trkpt lat="37.87190729585463" lon="13.665880848106141"><ele>491.5</ele><time>2026-04-30T12:38:35Z</time></trkpt><trkpt lat="37.87200138468314" lon="13.665770284916334"><ele>491.0</ele><time>2026-04-30T12:38:36Z</time></trkpt><trkpt lat="37.8721107431865" lon="13.66566156228708"><ele>491.0</ele><time>2026-04-30T12:38:37Z</time></trkpt><trkpt lat="37.87222597023985" lon="13.665547071884866"><ele>491.0</ele><time>2026-04-30T12:38:38Z</time></trkpt><trkpt lat="37.87234209854866" lon="13.665427424753569"><ele>491.0</ele><time>2026-04-30T12:38:39Z</time></trkpt><trkpt lat="37.87243519410298" lon="13.665293675174421"><ele>491.0</ele><time>2026-04-30T12:38:40Z</time></trkpt><trkpt lat="37.87247909633685" lon="13.665131956403012"><ele>489.0</ele><time>2026-04-30T12:38:41Z</time></trkpt><trkpt lat="37.872479562031586" lon="13.664939274377982"><ele>487.0</ele><time>2026-04-30T12:38:42Z</time></trkpt><trkpt lat="37.87247102540705" lon="13.664733030658402"><ele>485.0</ele><time>2026-04-30T12:38:43Z</time></trkpt><trkpt lat="37.87248676163979" lon="13.664553788678928"><ele>484.75</ele><time>2026-04-30T12:38:44Z</time></trkpt><trkpt lat="37.872514064879475" lon="13.664407037005452"><ele>484.5</ele><time>2026-04-30T12:38:45Z</time></trkpt><trkpt lat="37.872566249829234" lon="13.66429619551999"><ele>484.25</ele><time>2026-04-30T12:38:46Z</time></trkpt><trkpt lat="37.872655375283045" lon="13.664200802617048"><ele>484.0</ele><time>2026-04-30T12:38:47Z</time></trkpt><trkpt lat="37.87276851556442" lon="13.664126586526477"><ele>488.25</ele><time>2026-04-30T12:38:48Z</time></trkpt><trkpt lat="37.87290060155298" lon="13.664078441217475"><ele>492.5</ele><time>2026-04-30T12:38:49Z</time></trkpt><trkpt lat="37.87304533766811" lon="13.664052540901043"><ele>496.75</ele><time>2026-04-30T12:38:50Z</time></trkpt><trkpt lat="37.8731643370943" lon="13.664047490568432"><ele>501.0</ele><time>2026-04-30T12:38:51Z</time></trkpt><trkpt lat="37.87327122226006" lon="13.664088321819937"><ele>501.0</ele><time>2026-04-30T12:38:52Z</time></trkpt><trkpt lat="37.873362654734606" lon="13.664176230661202"><ele>501.0</ele><time>2026-04-30T12:38:53Z</time></trkpt><trkpt lat="37.87342055345814" lon="13.66429248089946"><ele>501.0</ele><time>2026-04-30T12:38:54Z</time></trkpt><trkpt lat="37.87344652268656" lon="13.664429697155036"><ele>501.0</ele><time>2026-04-30T12:38:55Z</time></trkpt><trkpt lat="37.873440177724234" lon="13.664583346947909"><ele>502.66666666666663</ele><time>2026-04-30T12:38:56Z</time></trkpt><trkpt lat="37.87340522081446" lon="13.664760129210784"><ele>504.3333333333333</ele><time>2026-04-30T12:38:57Z</time></trkpt><trkpt lat="37.873360765047494" lon="13.66495109992197"><ele>506.0</ele><time>2026-04-30T12:38:58Z</time></trkpt><trkpt lat="37.873313158876954" lon="13.66514724293453"><ele>508.0</ele><time>2026-04-30T12:38:59Z</time></trkpt><trkpt lat="37.87326699590339" lon="13.665343838103354"><ele>510.0</ele><time>2026-04-30T12:39:00Z</time></trkpt><trkpt lat="37.873215416679066" lon="13.66554416451561"><ele>512.0</ele><time>2026-04-30T12:39:01Z</time></trkpt><trkpt lat="37.87316155180355" lon="13.665741930162635"><ele>512.0</ele><time>2026-04-30T12:39:02Z</time></trkpt><trkpt lat="37.873105427526326" lon="13.665930787066529"><ele>512.0</ele><time>2026-04-30T12:39:03Z</time></trkpt><trkpt lat="37.87304574188436" lon="13.666096691065764"><ele>512.0</ele><time>2026-04-30T12:39:04Z</time></trkpt><trkpt lat="37.87298457354978" lon="13.666241536469979"><ele>512.0</ele><time>2026-04-30T12:39:05Z</time></trkpt><trkpt lat="37.87294359742828" lon="13.666354213248857"><ele>512.0</ele><time>2026-04-30T12:39:06Z</time></trkpt><trkpt lat="37.87294811803154" lon="13.666474852502114"><ele>512.0</ele><time>2026-04-30T12:39:07Z</time></trkpt><trkpt lat="37.8729895379267" lon="13.666602566140366"><ele>512.0</ele><time>2026-04-30T12:39:08Z</time></trkpt><trkpt lat="37.87307013779866" lon="13.666711660648936"><ele>512.0</ele><time>2026-04-30T12:39:09Z</time></trkpt><trkpt lat="37.87319179054135" lon="13.66677998476563"><ele>512.0</ele><time>2026-04-30T12:39:10Z</time></trkpt><trkpt lat="37.87332265779159" lon="13.666831391717205"><ele>512.0</ele><time>2026-04-30T12:39:11Z</time></trkpt><trkpt lat="37.87341806643393" lon="13.666907384720194"><ele>512.0</ele><time>2026-04-30T12:39:12Z</time></trkpt><trkpt lat="37.873471938868654" lon="13.66701850994643"><ele>512.0</ele><time>2026-04-30T12:39:13Z</time></trkpt><trkpt lat="37.8734808223805" lon="13.66715652299982"><ele>512.2</ele><time>2026-04-30T12:39:14Z</time></trkpt><trkpt lat="37.87344728141642" lon="13.667281000330087"><ele>512.4000000000001</ele><time>2026-04-30T12:39:15Z</time></trkpt><trkpt lat="37.87339115721184" lon="13.667395743207875"><ele>512.5999999999999</ele><time>2026-04-30T12:39:16Z</time></trkpt><trkpt lat="37.87332263648044" lon="13.667498487378348"><ele>512.8</ele><time>2026-04-30T12:39:17Z</time></trkpt><trkpt lat="37.873283904957546" lon="13.66762766839336"><ele>513.0</ele><time>2026-04-30T12:39:18Z</time></trkpt><trkpt lat="37.87327957190139" lon="13.667758841632878"><ele>514.0</ele><time>2026-04-30T12:39:19Z</time></trkpt><trkpt lat="37.873311892727415" lon="13.667909825790568"><ele>515.0</ele><time>2026-04-30T12:39:20Z</time></trkpt><trkpt lat="37.873382390778254" lon="13.66807367340216"><ele>516.0</ele><time>2026-04-30T12:39:21Z</time></trkpt><trkpt lat="37.87345655385477" lon="13.668239191436095"><ele>517.0</ele><time>2026-04-30T12:39:22Z</time></trkpt><trkpt lat="37.87348756789622" lon="13.668412422966679"><ele>525.25</ele><time>2026-04-30T12:39:23Z</time></trkpt><trkpt lat="37.87349897937277" lon="13.668592693478258"><ele>533.5</ele><time>2026-04-30T12:39:24Z</time></trkpt><trkpt lat="37.87351735178402" lon="13.668768762833402"><ele>541.75</ele><time>2026-04-30T12:39:25Z</time></trkpt><trkpt lat="37.87353089992935" lon="13.668938227058348"><ele>550.0</ele><time>2026-04-30T12:39:26Z</time></trkpt><trkpt lat="37.87352646684439" lon="13.669116069752105"><ele>552.3333333333334</ele><time>2026-04-30T12:39:27Z</time></trkpt><trkpt lat="37.87350783014738" lon="13.669299724262029"><ele>554.6666666666666</ele><time>2026-04-30T12:39:28Z</time></trkpt><trkpt lat="37.87348202967428" lon="13.66948870595547"><ele>557.0</ele><time>2026-04-30T12:39:29Z</time></trkpt><trkpt lat="37.87345684514535" lon="13.669681924960114"><ele>551.75</ele><time>2026-04-30T12:39:30Z</time></trkpt><trkpt lat="37.87343104440039" lon="13.66987181352046"><ele>546.5</ele><time>2026-04-30T12:39:31Z</time></trkpt><trkpt lat="37.873403914883404" lon="13.670058073415555"><ele>541.25</ele><time>2026-04-30T12:39:32Z</time></trkpt><trkpt lat="37.87337452424262" lon="13.67022049166278"><ele>536.0</ele><time>2026-04-30T12:39:32.999Z</time></trkpt><trkpt lat="37.8733600075789" lon="13.670375954953053"><ele>536.0</ele><time>2026-04-30T12:39:33.999Z</time></trkpt><trkpt lat="37.87339829582727" lon="13.670525128113773"><ele>536.0</ele><time>2026-04-30T12:39:34.999Z</time></trkpt><trkpt lat="37.87348515840136" lon="13.670662783905252"><ele>536.0</ele><time>2026-04-30T12:39:35.999Z</time></trkpt><trkpt lat="37.87359786876525" lon="13.670776435199707"><ele>536.0</ele><time>2026-04-30T12:39:36.999Z</time></trkpt><trkpt lat="37.87371459737152" lon="13.670884516015136"><ele>535.75</ele><time>2026-04-30T12:39:37.999Z</time></trkpt><trkpt lat="37.873829628597875" lon="13.670988662075432"><ele>535.5</ele><time>2026-04-30T12:39:38.999Z</time></trkpt><trkpt lat="37.87394713706749" lon="13.671064723902866"><ele>535.25</ele><time>2026-04-30T12:39:39.999Z</time></trkpt><trkpt lat="37.87405884589262" lon="13.671124935818876"><ele>535.0</ele><time>2026-04-30T12:39:40.999Z</time></trkpt><trkpt lat="37.874164612233564" lon="13.671172040951953"><ele>531.5</ele><time>2026-04-30T12:39:41.999Z</time></trkpt><trkpt lat="37.87428097715096" lon="13.671205733165978"><ele>528.0</ele><time>2026-04-30T12:39:42.999Z</time></trkpt><trkpt lat="37.874416255530875" lon="13.671212524760534"><ele>524.5</ele><time>2026-04-30T12:39:43.999Z</time></trkpt><trkpt lat="37.87455793310295" lon="13.671227608845852"><ele>521.0</ele><time>2026-04-30T12:39:44.999Z</time></trkpt><trkpt lat="37.87470411718071" lon="13.671243870812164"><ele>521.0</ele><time>2026-04-30T12:39:45.999Z</time></trkpt><trkpt lat="37.87484833103867" lon="13.671263792037902"><ele>521.0</ele><time>2026-04-30T12:39:46.999Z</time></trkpt><trkpt lat="37.87499457509507" lon="13.671284794561547"><ele>521.0</ele><time>2026-04-30T12:39:47.999Z</time></trkpt><trkpt lat="37.87513663076321" lon="13.671294949243809"><ele>521.0</ele><time>2026-04-30T12:39:48.999Z</time></trkpt><trkpt lat="37.875261705398856" lon="13.671287696567532"><ele>522.75</ele><time>2026-04-30T12:39:49.999Z</time></trkpt><trkpt lat="37.87538486693026" lon="13.671246726070295"><ele>524.5</ele><time>2026-04-30T12:39:50.999Z</time></trkpt><trkpt lat="37.87550534607326" lon="13.671157783550562"><ele>526.25</ele><time>2026-04-30T12:39:51.999Z</time></trkpt><trkpt lat="37.87562024106494" lon="13.67105779155695"><ele>528.0</ele><time>2026-04-30T12:39:52.999Z</time></trkpt><trkpt lat="37.87572730321829" lon="13.670980801948303"><ele>528.0</ele><time>2026-04-30T12:39:53.999Z</time></trkpt><trkpt lat="37.87582089614901" lon="13.670930064328035"><ele>528.0</ele><time>2026-04-30T12:39:54.999Z</time></trkpt><trkpt lat="37.875916833088944" lon="13.670913961509896"><ele>528.0</ele><time>2026-04-30T12:39:55.999Z</time></trkpt><trkpt lat="37.87604317178535" lon="13.670942551337957"><ele>528.0</ele><time>2026-04-30T12:39:56.999Z</time></trkpt><trkpt lat="37.876182175045926" lon="13.671020876768518"><ele>524.75</ele><time>2026-04-30T12:39:57.999Z</time></trkpt><trkpt lat="37.87631780384368" lon="13.671126177170724"><ele>521.5</ele><time>2026-04-30T12:39:58.999Z</time></trkpt><trkpt lat="37.876444021977086" lon="13.671224156026017"><ele>518.25</ele><time>2026-04-30T12:39:59.999Z</time></trkpt><trkpt lat="37.876565572576766" lon="13.671309310566432"><ele>515.0</ele><time>2026-04-30T12:40:00.999Z</time></trkpt><trkpt lat="37.876686079853904" lon="13.671395938706397"><ele>515.25</ele><time>2026-04-30T12:40:01.999Z</time></trkpt><trkpt lat="37.87680587609769" lon="13.671492245752322"><ele>515.5</ele><time>2026-04-30T12:40:02.999Z</time></trkpt><trkpt lat="37.87691671965707" lon="13.67159749324843"><ele>515.75</ele><time>2026-04-30T12:40:03.999Z</time></trkpt><trkpt lat="37.87701651030184" lon="13.671707137038643"><ele>516.0</ele><time>2026-04-30T12:40:04.999Z</time></trkpt><trkpt lat="37.8771076761447" lon="13.671811474390529"><ele>516.0</ele><time>2026-04-30T12:40:05.999Z</time></trkpt><trkpt lat="37.877188845746915" lon="13.671901593555933"><ele>516.0</ele><time>2026-04-30T12:40:06.999Z</time></trkpt><trkpt lat="37.87728704909271" lon="13.67195838169903"><ele>516.0</ele><time>2026-04-30T12:40:07.999Z</time></trkpt><trkpt lat="37.87740466976693" lon="13.671979412778716"><ele>516.0</ele><time>2026-04-30T12:40:08.999Z</time></trkpt><trkpt lat="37.877539197753244" lon="13.671967663486969"><ele>511.75</ele><time>2026-04-30T12:40:09.999Z</time></trkpt><trkpt lat="37.877681074303965" lon="13.671949269554736"><ele>507.5</ele><time>2026-04-30T12:40:10.999Z</time></trkpt><trkpt lat="37.877821490133165" lon="13.67195317923533"><ele>503.25</ele><time>2026-04-30T12:40:11.999Z</time></trkpt><trkpt lat="37.877954574393904" lon="13.671970912140896"><ele>499.0</ele><time>2026-04-30T12:40:12.999Z</time></trkpt><trkpt lat="37.87809021086653" lon="13.67200768207714"><ele>499.0</ele><time>2026-04-30T12:40:13.999Z</time></trkpt><trkpt lat="37.87824023610175" lon="13.672033361368516"><ele>499.0</ele><time>2026-04-30T12:40:14.999Z</time></trkpt><trkpt lat="37.8783816468725" lon="13.672056635894105"><ele>499.0</ele><time>2026-04-30T12:40:15.999Z</time></trkpt><trkpt lat="37.878517736191725" lon="13.672083559715443"><ele>499.0</ele><time>2026-04-30T12:40:16.999Z</time></trkpt><trkpt lat="37.87865074074297" lon="13.672110875783929"><ele>497.5</ele><time>2026-04-30T12:40:17.999Z</time></trkpt><trkpt lat="37.878789579078536" lon="13.672129063852553"><ele>496.0</ele><time>2026-04-30T12:40:18.999Z</time></trkpt><trkpt lat="37.87892607867767" lon="13.672155449276593"><ele>494.5</ele><time>2026-04-30T12:40:19.999Z</time></trkpt><trkpt lat="37.879067937541635" lon="13.672177778347189"><ele>493.0</ele><time>2026-04-30T12:40:20.999Z</time></trkpt><trkpt lat="37.87920859902541" lon="13.672201880379859"><ele>491.75</ele><time>2026-04-30T12:40:21.999Z</time></trkpt><trkpt lat="37.879358309790376" lon="13.672215360148869"><ele>490.5</ele><time>2026-04-30T12:40:22.999Z</time></trkpt><trkpt lat="37.879504395017506" lon="13.672209691042863"><ele>489.25</ele><time>2026-04-30T12:40:23.999Z</time></trkpt><trkpt lat="37.87964806395876" lon="13.67219652258081"><ele>488.0</ele><time>2026-04-30T12:40:24.999Z</time></trkpt><trkpt lat="37.87979670659321" lon="13.672173953155468"><ele>488.0</ele><time>2026-04-30T12:40:25.999Z</time></trkpt><trkpt lat="37.879955462404205" lon="13.672157958511557"><ele>488.0</ele><time>2026-04-30T12:40:26.999Z</time></trkpt><trkpt lat="37.880099715239126" lon="13.67214518193781"><ele>488.0</ele><time>2026-04-30T12:40:27.999Z</time></trkpt><trkpt lat="37.88023636463615" lon="13.67213873467316"><ele>488.0</ele><time>2026-04-30T12:40:28.999Z</time></trkpt><trkpt lat="37.88037085534298" lon="13.672145487647764"><ele>487.0</ele><time>2026-04-30T12:40:29.999Z</time></trkpt><trkpt lat="37.88049793250912" lon="13.672179047148873"><ele>486.0</ele><time>2026-04-30T12:40:30.999Z</time></trkpt><trkpt lat="37.88061942272687" lon="13.672249964129964"><ele>485.0</ele><time>2026-04-30T12:40:31.999Z</time></trkpt><trkpt lat="37.88073993418779" lon="13.672353712072738"><ele>484.0</ele><time>2026-04-30T12:40:32.999Z</time></trkpt><trkpt lat="37.88085905532372" lon="13.672452914459303"><ele>483.5</ele><time>2026-04-30T12:40:33.999Z</time></trkpt><trkpt lat="37.880987741073646" lon="13.672522670974969"><ele>483.0</ele><time>2026-04-30T12:40:35Z</time></trkpt><trkpt lat="37.881117044820506" lon="13.672573375291229"><ele>482.5</ele><time>2026-04-30T12:40:36Z</time></trkpt><trkpt lat="37.881250968718184" lon="13.672595703077524"><ele>482.0</ele><time>2026-04-30T12:40:37Z</time></trkpt><trkpt lat="37.88139661638981" lon="13.672594199267003"><ele>482.0</ele><time>2026-04-30T12:40:38Z</time></trkpt><trkpt lat="37.88155198669786" lon="13.672558987712563"><ele>482.0</ele><time>2026-04-30T12:40:39Z</time></trkpt><trkpt lat="37.88171846110154" lon="13.672488853224706"><ele>482.0</ele><time>2026-04-30T12:40:40Z</time></trkpt><trkpt lat="37.8818858928269" lon="13.67242517268081"><ele>480.0</ele><time>2026-04-30T12:40:41Z</time></trkpt><trkpt lat="37.88205070012613" lon="13.672360237685703"><ele>478.0</ele><time>2026-04-30T12:40:42Z</time></trkpt><trkpt lat="37.882214372716334" lon="13.672308983026609"><ele>476.0</ele><time>2026-04-30T12:40:43Z</time></trkpt><trkpt lat="37.88237697578516" lon="13.6722687274099"><ele>476.0</ele><time>2026-04-30T12:40:44Z</time></trkpt><trkpt lat="37.882521940045166" lon="13.672229722540381"><ele>476.0</ele><time>2026-04-30T12:40:45Z</time></trkpt><trkpt lat="37.88266011509355" lon="13.672191799978691"><ele>476.0</ele><time>2026-04-30T12:40:46Z</time></trkpt><trkpt lat="37.88279579127756" lon="13.672149301061442"><ele>476.0</ele><time>2026-04-30T12:40:47Z</time></trkpt><trkpt lat="37.882924917495814" lon="13.672101179139025"><ele>476.75</ele><time>2026-04-30T12:40:48Z</time></trkpt><trkpt lat="37.883039738358754" lon="13.672025870365003"><ele>477.5</ele><time>2026-04-30T12:40:49Z</time></trkpt><trkpt lat="37.883142247131424" lon="13.671923411656874"><ele>478.25</ele><time>2026-04-30T12:40:50Z</time></trkpt><trkpt lat="37.88324646719751" lon="13.671801330611068"><ele>479.0</ele><time>2026-04-30T12:40:51Z</time></trkpt><trkpt lat="37.883349565944684" lon="13.671681665067101"><ele>477.75</ele><time>2026-04-30T12:40:52Z</time></trkpt><trkpt lat="37.88344550739654" lon="13.67156233056916"><ele>476.5</ele><time>2026-04-30T12:40:53Z</time></trkpt><trkpt lat="37.88353347890649" lon="13.671456762992122"><ele>475.25</ele><time>2026-04-30T12:40:54Z</time></trkpt><trkpt lat="37.88362547679252" lon="13.671368940945724"><ele>474.0</ele><time>2026-04-30T12:40:55Z</time></trkpt><trkpt lat="37.883706701801515" lon="13.67128863754956"><ele>474.0</ele><time>2026-04-30T12:40:56Z</time></trkpt><trkpt lat="37.88378037528776" lon="13.6712287223909"><ele>474.0</ele><time>2026-04-30T12:40:57Z</time></trkpt><trkpt lat="37.88386192561859" lon="13.67120479999492"><ele>474.0</ele><time>2026-04-30T12:40:58Z</time></trkpt><trkpt lat="37.88395294454672" lon="13.671202398681213"><ele>474.0</ele><time>2026-04-30T12:40:59Z</time></trkpt><trkpt lat="37.884056207048516" lon="13.671230299345359"><ele>474.0</ele><time>2026-04-30T12:41:00Z</time></trkpt><trkpt lat="37.88416075140492" lon="13.67127858466312"><ele>474.25</ele><time>2026-04-30T12:41:01Z</time></trkpt><trkpt lat="37.884267755660346" lon="13.67132417953221"><ele>474.5</ele><time>2026-04-30T12:41:02Z</time></trkpt><trkpt lat="37.88438007055105" lon="13.671338570897639"><ele>474.75</ele><time>2026-04-30T12:41:03Z</time></trkpt><trkpt lat="37.88449760234403" lon="13.671316004859994"><ele>475.0</ele><time>2026-04-30T12:41:04Z</time></trkpt><trkpt lat="37.8846116529122" lon="13.671262773861772"><ele>475.0</ele><time>2026-04-30T12:41:05Z</time></trkpt><trkpt lat="37.88471936552823" lon="13.671186846235255"><ele>475.0</ele><time>2026-04-30T12:41:06Z</time></trkpt><trkpt lat="37.88483374724513" lon="13.671109584668184"><ele>475.0</ele><time>2026-04-30T12:41:07Z</time></trkpt><trkpt lat="37.88494875167978" lon="13.671041386110087"><ele>475.0</ele><time>2026-04-30T12:41:08Z</time></trkpt><trkpt lat="37.885074944378445" lon="13.67098587772938"><ele>478.25</ele><time>2026-04-30T12:41:09Z</time></trkpt><trkpt lat="37.88519511988286" lon="13.670946804030038"><ele>481.5</ele><time>2026-04-30T12:41:10Z</time></trkpt><trkpt lat="37.88532893288456" lon="13.670964047260975"><ele>484.75</ele><time>2026-04-30T12:41:11Z</time></trkpt><trkpt lat="37.8854561620668" lon="13.671005511925353"><ele>488.0</ele><time>2026-04-30T12:41:12Z</time></trkpt><trkpt lat="37.885587143093936" lon="13.671047524719173"><ele>488.0</ele><time>2026-04-30T12:41:13Z</time></trkpt><trkpt lat="37.88573051744257" lon="13.67107264162002"><ele>488.0</ele><time>2026-04-30T12:41:14Z</time></trkpt><trkpt lat="37.885883483806175" lon="13.671087073683497"><ele>488.0</ele><time>2026-04-30T12:41:15Z</time></trkpt><trkpt lat="37.88604359317175" lon="13.671100962300239"><ele>487.25</ele><time>2026-04-30T12:41:16Z</time></trkpt><trkpt lat="37.886199462081635" lon="13.671123074414279"><ele>486.5</ele><time>2026-04-30T12:41:17Z</time></trkpt><trkpt lat="37.88633991092989" lon="13.671142628059776"><ele>485.75</ele><time>2026-04-30T12:41:18Z</time></trkpt><trkpt lat="37.88646926942943" lon="13.671161543167642"><ele>485.0</ele><time>2026-04-30T12:41:19Z</time></trkpt><trkpt lat="37.8865700707829" lon="13.67116256179027"><ele>485.0</ele><time>2026-04-30T12:41:20Z</time></trkpt><trkpt lat="37.88663551191857" lon="13.671143035090033"><ele>485.0</ele><time>2026-04-30T12:41:21Z</time></trkpt><trkpt lat="37.88670159575607" lon="13.671063646522143"><ele>485.0</ele><time>2026-04-30T12:41:23Z</time></trkpt><trkpt lat="37.88670786780837" lon="13.670948687485037"><ele>485.0</ele><time>2026-04-30T12:41:26Z</time></trkpt><trkpt lat="37.88666527904761" lon="13.670763749469742"><ele>485.0</ele><time>2026-04-30T12:41:28Z</time></trkpt><trkpt lat="37.88662007765443" lon="13.6706388710259"><ele>486.75</ele><time>2026-04-30T12:41:29Z</time></trkpt><trkpt lat="37.886574991272795" lon="13.670495567286093"><ele>488.5</ele><time>2026-04-30T12:41:30Z</time></trkpt><trkpt lat="37.88653985529761" lon="13.670348267819376"><ele>490.25</ele><time>2026-04-30T12:41:31Z</time></trkpt><trkpt lat="37.8865099872202" lon="13.670209006398284"><ele>492.0</ele><time>2026-04-30T12:41:32Z</time></trkpt><trkpt lat="37.886483155651334" lon="13.670063635532305"><ele>494.25</ele><time>2026-04-30T12:41:33Z</time></trkpt><trkpt lat="37.88646611459284" lon="13.669912809874152"><ele>496.5</ele><time>2026-04-30T12:41:34Z</time></trkpt><trkpt lat="37.88646348338759" lon="13.669757521311464"><ele>498.75</ele><time>2026-04-30T12:41:35Z</time></trkpt><trkpt lat="37.8864743694495" lon="13.669593898482177"><ele>501.0</ele><time>2026-04-30T12:41:36Z</time></trkpt><trkpt lat="37.88650202529513" lon="13.6694285357092"><ele>502.4</ele><time>2026-04-30T12:41:37Z</time></trkpt><trkpt lat="37.886546983966284" lon="13.669271159522799"><ele>503.8</ele><time>2026-04-30T12:41:38Z</time></trkpt><trkpt lat="37.88659948548983" lon="13.66914814288102"><ele>505.19999999999993</ele><time>2026-04-30T12:41:38.999Z</time></trkpt><trkpt lat="37.88665012998921" lon="13.6690393992206"><ele>506.59999999999997</ele><time>2026-04-30T12:41:39.999Z</time></trkpt><trkpt lat="37.88669347523441" lon="13.668932639415186"><ele>508.0</ele><time>2026-04-30T12:41:40.999Z</time></trkpt><trkpt lat="37.886728904681284" lon="13.668799342639765"><ele>507.5</ele><time>2026-04-30T12:41:41.999Z</time></trkpt><trkpt lat="37.886767996086085" lon="13.66863925478487"><ele>507.0</ele><time>2026-04-30T12:41:42.999Z</time></trkpt><trkpt lat="37.886814331631804" lon="13.668460159186296"><ele>506.5</ele><time>2026-04-30T12:41:43.999Z</time></trkpt><trkpt lat="37.886867049754244" lon="13.668273325487577"><ele>506.0</ele><time>2026-04-30T12:41:44.999Z</time></trkpt><trkpt lat="37.88692125219155" lon="13.668090944035065"><ele>506.25</ele><time>2026-04-30T12:41:45.999Z</time></trkpt><trkpt lat="37.88697179083811" lon="13.66791773363294"><ele>506.5</ele><time>2026-04-30T12:41:46.999Z</time></trkpt><trkpt lat="37.88701389375468" lon="13.66775310008702"><ele>506.75</ele><time>2026-04-30T12:41:47.999Z</time></trkpt><trkpt lat="37.8870407940088" lon="13.667599184998638"><ele>507.0</ele><time>2026-04-30T12:41:48.999Z</time></trkpt><trkpt lat="37.887039055412636" lon="13.667451585228678"><ele>507.0</ele><time>2026-04-30T12:41:49.999Z</time></trkpt><trkpt lat="37.88700013036378" lon="13.667312687348343"><ele>507.0</ele><time>2026-04-30T12:41:50.999Z</time></trkpt><trkpt lat="37.886936991140956" lon="13.667170730906667"><ele>507.0</ele><time>2026-04-30T12:41:51.999Z</time></trkpt><trkpt lat="37.88686732968489" lon="13.667022909976858"><ele>507.0</ele><time>2026-04-30T12:41:52.999Z</time></trkpt><trkpt lat="37.8867997659236" lon="13.666865480933179"><ele>508.25</ele><time>2026-04-30T12:41:53.999Z</time></trkpt><trkpt lat="37.88672984442704" lon="13.666704414242693"><ele>509.5</ele><time>2026-04-30T12:41:54.999Z</time></trkpt><trkpt lat="37.886662173444165" lon="13.666542587923464"><ele>510.75</ele><time>2026-04-30T12:41:55.999Z</time></trkpt><trkpt lat="37.886602409743276" lon="13.6663807959355"><ele>512.0</ele><time>2026-04-30T12:41:56.999Z</time></trkpt><trkpt lat="37.886560070625556" lon="13.666219678749181"><ele>513.25</ele><time>2026-04-30T12:41:57.999Z</time></trkpt><trkpt lat="37.88652967770425" lon="13.666058984643538"><ele>514.5</ele><time>2026-04-30T12:41:58.999Z</time></trkpt><trkpt lat="37.8865019523344" lon="13.665897092486702"><ele>515.75</ele><time>2026-04-30T12:41:59.999Z</time></trkpt><trkpt lat="37.88645196018762" lon="13.66574072668773"><ele>517.0</ele><time>2026-04-30T12:42:00.999Z</time></trkpt><trkpt lat="37.886371043338734" lon="13.665601206302119"><ele>517.0</ele><time>2026-04-30T12:42:01.999Z</time></trkpt><trkpt lat="37.886288983184386" lon="13.665463724300194"><ele>517.0</ele><time>2026-04-30T12:42:02.999Z</time></trkpt><trkpt lat="37.88623593876792" lon="13.665307208692887"><ele>517.0</ele><time>2026-04-30T12:42:03.999Z</time></trkpt><trkpt lat="37.886217116908895" lon="13.665137085825108"><ele>517.0</ele><time>2026-04-30T12:42:04.999Z</time></trkpt><trkpt lat="37.886211074026036" lon="13.66497567908507"><ele>518.25</ele><time>2026-04-30T12:42:05.999Z</time></trkpt><trkpt lat="37.886177365231774" lon="13.664824034716544"><ele>519.5</ele><time>2026-04-30T12:42:06.999Z</time></trkpt><trkpt lat="37.88610247442231" lon="13.664686124504925"><ele>520.75</ele><time>2026-04-30T12:42:07.999Z</time></trkpt><trkpt lat="37.88600776758931" lon="13.664570488573352"><ele>522.0</ele><time>2026-04-30T12:42:08.999Z</time></trkpt><trkpt lat="37.88589410605499" lon="13.664482327668214"><ele>523.5</ele><time>2026-04-30T12:42:09.999Z</time></trkpt><trkpt lat="37.88579011074876" lon="13.66438721685946"><ele>525.0</ele><time>2026-04-30T12:42:10.999Z</time></trkpt><trkpt lat="37.88569669143494" lon="13.664270362663183"><ele>526.5</ele><time>2026-04-30T12:42:11.999Z</time></trkpt><trkpt lat="37.885605171403796" lon="13.664143306803497"><ele>528.0</ele><time>2026-04-30T12:42:12.999Z</time></trkpt><trkpt lat="37.88550743159442" lon="13.663996316781144"><ele>528.0</ele><time>2026-04-30T12:42:13.999Z</time></trkpt><trkpt lat="37.8854130092318" lon="13.663857617067404"><ele>528.0</ele><time>2026-04-30T12:42:14.999Z</time></trkpt><trkpt lat="37.88531155331452" lon="13.663722690679286"><ele>528.0</ele><time>2026-04-30T12:42:15.999Z</time></trkpt><trkpt lat="37.88520535940364" lon="13.663577896593074"><ele>528.0</ele><time>2026-04-30T12:42:16.999Z</time></trkpt><trkpt lat="37.885105293342036" lon="13.663442087417765"><ele>531.25</ele><time>2026-04-30T12:42:17.999Z</time></trkpt><trkpt lat="37.88503616035775" lon="13.663323608299969"><ele>534.5</ele><time>2026-04-30T12:42:18.999Z</time></trkpt><trkpt lat="37.885013049689256" lon="13.663173633218914"><ele>537.75</ele><time>2026-04-30T12:42:19.999Z</time></trkpt><trkpt lat="37.884989906572635" lon="13.663023223797229"><ele>541.0</ele><time>2026-04-30T12:42:20.999Z</time></trkpt><trkpt lat="37.88495593715722" lon="13.662859913526974"><ele>543.75</ele><time>2026-04-30T12:42:21.999Z</time></trkpt><trkpt lat="37.884903984632714" lon="13.662704478442981"><ele>546.5</ele><time>2026-04-30T12:42:22.999Z</time></trkpt><trkpt lat="37.88482991712669" lon="13.662530070248636"><ele>549.25</ele><time>2026-04-30T12:42:23.999Z</time></trkpt><trkpt lat="37.88473778615608" lon="13.662377745536608"><ele>552.0</ele><time>2026-04-30T12:42:24.999Z</time></trkpt><trkpt lat="37.88463961754603" lon="13.662223428245216"><ele>552.0</ele><time>2026-04-30T12:42:25.999Z</time></trkpt><trkpt lat="37.88453019035892" lon="13.66207686178272"><ele>552.0</ele><time>2026-04-30T12:42:26.999Z</time></trkpt><trkpt lat="37.88440586799666" lon="13.661943065949108"><ele>552.0</ele><time>2026-04-30T12:42:27.999Z</time></trkpt><trkpt lat="37.88427770093197" lon="13.66180925545744"><ele>555.3333333333334</ele><time>2026-04-30T12:42:28.999Z</time></trkpt><trkpt lat="37.88415882816866" lon="13.661674158665319"><ele>558.6666666666667</ele><time>2026-04-30T12:42:29.999Z</time></trkpt><trkpt lat="37.88404815282264" lon="13.661542041181201"><ele>562.0</ele><time>2026-04-30T12:42:30.999Z</time></trkpt><trkpt lat="37.88394001307316" lon="13.661407260502639"><ele>562.0</ele><time>2026-04-30T12:42:31.999Z</time></trkpt><trkpt lat="37.88384388397719" lon="13.661265863917507"><ele>562.0</ele><time>2026-04-30T12:42:32.999Z</time></trkpt><trkpt lat="37.88376239160729" lon="13.661108847885629"><ele>562.0</ele><time>2026-04-30T12:42:33.999Z</time></trkpt><trkpt lat="37.883694974262596" lon="13.660937186303636"><ele>562.0</ele><time>2026-04-30T12:42:34.999Z</time></trkpt><trkpt lat="37.88362789836695" lon="13.660764041123349"><ele>565.0</ele><time>2026-04-30T12:42:35.999Z</time></trkpt><trkpt lat="37.88355537919584" lon="13.66059206709481"><ele>568.0</ele><time>2026-04-30T12:42:36.999Z</time></trkpt><trkpt lat="37.883477532014304" lon="13.660420975977946"><ele>571.0</ele><time>2026-04-30T12:42:37.999Z</time></trkpt><trkpt lat="37.883399141710704" lon="13.660244491846438"><ele>573.6666666666667</ele><time>2026-04-30T12:42:38.999Z</time></trkpt><trkpt lat="37.883321912291954" lon="13.660065040294826"><ele>576.3333333333334</ele><time>2026-04-30T12:42:39.999Z</time></trkpt><trkpt lat="37.88324386788613" lon="13.659888504601566"><ele>579.0</ele><time>2026-04-30T12:42:41Z</time></trkpt><trkpt lat="37.88317706088913" lon="13.659729059392637"><ele>579.0</ele><time>2026-04-30T12:42:42Z</time></trkpt><trkpt lat="37.88312076278579" lon="13.659574156610121"><ele>579.0</ele><time>2026-04-30T12:42:43Z</time></trkpt><trkpt lat="37.883073911161745" lon="13.659416510434548"><ele>579.0</ele><time>2026-04-30T12:42:44Z</time></trkpt><trkpt lat="37.883045284928976" lon="13.659275165908657"><ele>579.0</ele><time>2026-04-30T12:42:45Z</time></trkpt><trkpt lat="37.88303648464483" lon="13.659145813083452"><ele>580.2</ele><time>2026-04-30T12:42:46Z</time></trkpt><trkpt lat="37.883054812203596" lon="13.659022380267006"><ele>581.4</ele><time>2026-04-30T12:42:47Z</time></trkpt><trkpt lat="37.883105502707025" lon="13.658910221803295"><ele>582.6</ele><time>2026-04-30T12:42:48Z</time></trkpt><trkpt lat="37.8831814042598" lon="13.658797585166738"><ele>583.8</ele><time>2026-04-30T12:42:49Z</time></trkpt><trkpt lat="37.883261230043345" lon="13.658685671226444"><ele>585.0</ele><time>2026-04-30T12:42:50Z</time></trkpt><trkpt lat="37.88334208505186" lon="13.65858301292983"><ele>588.25</ele><time>2026-04-30T12:42:51Z</time></trkpt><trkpt lat="37.88343233310068" lon="13.658476311071107"><ele>591.5</ele><time>2026-04-30T12:42:52Z</time></trkpt><trkpt lat="37.88352955697913" lon="13.65837387428558"><ele>594.75</ele><time>2026-04-30T12:42:53Z</time></trkpt><trkpt lat="37.883634967217795" lon="13.658283832675284"><ele>598.0</ele><time>2026-04-30T12:42:54Z</time></trkpt><trkpt lat="37.88374208115893" lon="13.658195191704154"><ele>598.0</ele><time>2026-04-30T12:42:55Z</time></trkpt><trkpt lat="37.883852210703544" lon="13.658101384787367"><ele>598.0</ele><time>2026-04-30T12:42:56Z</time></trkpt><trkpt lat="37.8839598555516" lon="13.658002874668941"><ele>598.0</ele><time>2026-04-30T12:42:57Z</time></trkpt><trkpt lat="37.88406764607049" lon="13.657908128602356"><ele>598.0</ele><time>2026-04-30T12:42:58Z</time></trkpt><trkpt lat="37.88417924832458" lon="13.657824507369515"><ele>602.75</ele><time>2026-04-30T12:42:59Z</time></trkpt><trkpt lat="37.884294629838784" lon="13.657759126050143"><ele>607.5</ele><time>2026-04-30T12:43:00Z</time></trkpt><trkpt lat="37.88441672391784" lon="13.657719952216206"><ele>612.25</ele><time>2026-04-30T12:43:01Z</time></trkpt><trkpt lat="37.88453978274854" lon="13.657706925761927"><ele>617.0</ele><time>2026-04-30T12:43:02Z</time></trkpt><trkpt lat="37.88465965621302" lon="13.65770968223483"><ele>617.0</ele><time>2026-04-30T12:43:03Z</time></trkpt><trkpt lat="37.8847654334397" lon="13.657699767844326"><ele>617.0</ele><time>2026-04-30T12:43:04Z</time></trkpt><trkpt lat="37.88484924961666" lon="13.657679069314778"><ele>617.0</ele><time>2026-04-30T12:43:05Z</time></trkpt><trkpt lat="37.88493132206525" lon="13.657650469561423"><ele>617.0</ele><time>2026-04-30T12:43:06Z</time></trkpt><trkpt lat="37.88501803433564" lon="13.657608759746635"><ele>617.0</ele><time>2026-04-30T12:43:07Z</time></trkpt><trkpt lat="37.88510561448989" lon="13.657536627962738"><ele>620.2</ele><time>2026-04-30T12:43:08Z</time></trkpt><trkpt lat="37.88518228054731" lon="13.657434034317733"><ele>623.4000000000001</ele><time>2026-04-30T12:43:09Z</time></trkpt><trkpt lat="37.88524675238895" lon="13.65731181746389"><ele>626.5999999999999</ele><time>2026-04-30T12:43:10Z</time></trkpt><trkpt lat="37.885297453619756" lon="13.657196523458966"><ele>629.8</ele><time>2026-04-30T12:43:11Z</time></trkpt><trkpt lat="37.88535001025034" lon="13.657087260877292"><ele>633.0</ele><time>2026-04-30T12:43:12Z</time></trkpt><trkpt lat="37.88540932614059" lon="13.65698293750058"><ele>633.1999999999999</ele><time>2026-04-30T12:43:13Z</time></trkpt><trkpt lat="37.88547231376215" lon="13.656875736355145"><ele>633.4</ele><time>2026-04-30T12:43:14Z</time></trkpt><trkpt lat="37.88552354270318" lon="13.65675725851733"><ele>633.5999999999999</ele><time>2026-04-30T12:43:15Z</time></trkpt><trkpt lat="37.885559868044794" lon="13.656623128027672"><ele>633.8</ele><time>2026-04-30T12:43:16Z</time></trkpt><trkpt lat="37.885576736984376" lon="13.656490592326453"><ele>634.0</ele><time>2026-04-30T12:43:17Z</time></trkpt><trkpt lat="37.88557580844139" lon="13.656350603305475"><ele>634.0</ele><time>2026-04-30T12:43:18Z</time></trkpt><trkpt lat="37.88556804544038" lon="13.656198686849356"><ele>634.0</ele><time>2026-04-30T12:43:19Z</time></trkpt><trkpt lat="37.88555571371281" lon="13.656034852716694"><ele>634.0</ele><time>2026-04-30T12:43:20Z</time></trkpt><trkpt lat="37.88553884914172" lon="13.655860742971493"><ele>634.0</ele><time>2026-04-30T12:43:21Z</time></trkpt><trkpt lat="37.88551470734227" lon="13.65568644818538"><ele>634.5</ele><time>2026-04-30T12:43:22Z</time></trkpt><trkpt lat="37.885490151412455" lon="13.655513115204018"><ele>635.0</ele><time>2026-04-30T12:43:23Z</time></trkpt><trkpt lat="37.8854635297367" lon="13.655336619189358"><ele>635.5</ele><time>2026-04-30T12:43:24Z</time></trkpt><trkpt lat="37.88544011622357" lon="13.655150416067254"><ele>636.0</ele><time>2026-04-30T12:43:25Z</time></trkpt><trkpt lat="37.88541939401938" lon="13.654964290198073"><ele>636.6666666666666</ele><time>2026-04-30T12:43:26Z</time></trkpt><trkpt lat="37.885409109543374" lon="13.654772625806467"><ele>637.3333333333333</ele><time>2026-04-30T12:43:27Z</time></trkpt><trkpt lat="37.88540071591546" lon="13.6545738367689"><ele>638.0</ele><time>2026-04-30T12:43:28Z</time></trkpt><trkpt lat="37.885395912145405" lon="13.654374624199168"><ele>638.0</ele><time>2026-04-30T12:43:29Z</time></trkpt><trkpt lat="37.88539097348246" lon="13.654177486390777"><ele>638.0</ele><time>2026-04-30T12:43:30Z</time></trkpt><trkpt lat="37.88538920645917" lon="13.653992663857839"><ele>638.0</ele><time>2026-04-30T12:43:31Z</time></trkpt><trkpt lat="37.88538473794778" lon="13.65381923425009"><ele>638.0</ele><time>2026-04-30T12:43:32Z</time></trkpt><trkpt lat="37.88537830340159" lon="13.65366024721703"><ele>636.6</ele><time>2026-04-30T12:43:33Z</time></trkpt><trkpt lat="37.885372384931294" lon="13.653515917576849"><ele>635.1999999999999</ele><time>2026-04-30T12:43:34Z</time></trkpt><trkpt lat="37.88536617596641" lon="13.653398700005992"><ele>633.8</ele><time>2026-04-30T12:43:35Z</time></trkpt><trkpt lat="37.885352133185485" lon="13.653312588894435"><ele>632.4</ele><time>2026-04-30T12:43:36Z</time></trkpt><trkpt lat="37.8853056810773" lon="13.653189328820327"><ele>631.0</ele><time>2026-04-30T12:43:38Z</time></trkpt><trkpt lat="37.88526359131887" lon="13.653072701927634"><ele>631.0</ele><time>2026-04-30T12:43:40Z</time></trkpt><trkpt lat="37.88522672006143" lon="13.653001864635602"><ele>631.0</ele><time>2026-04-30T12:43:41Z</time></trkpt><trkpt lat="37.8851752216229" lon="13.652921024220761"><ele>631.0</ele><time>2026-04-30T12:43:41.999Z</time></trkpt><trkpt lat="37.885127237516876" lon="13.652836831807674"><ele>631.0</ele><time>2026-04-30T12:43:42.999Z</time></trkpt><trkpt lat="37.88507843595127" lon="13.652748903069087"><ele>631.0</ele><time>2026-04-30T12:43:43.999Z</time></trkpt><trkpt lat="37.88503824714079" lon="13.652674337488957"><ele>631.0</ele><time>2026-04-30T12:43:45.999Z</time></trkpt><trkpt lat="37.88508728957472" lon="13.652564324272856"><ele>631.4</ele><time>2026-04-30T12:43:49.999Z</time></trkpt><trkpt lat="37.88513993815347" lon="13.652430807934138"><ele>631.8</ele><time>2026-04-30T12:43:51.999Z</time></trkpt><trkpt lat="37.88519316542798" lon="13.652373198081508"><ele>632.1999999999999</ele><time>2026-04-30T12:43:52.999Z</time></trkpt><trkpt lat="37.88526985485697" lon="13.652330745819974"><ele>632.6</ele><time>2026-04-30T12:43:53.999Z</time></trkpt><trkpt lat="37.88536873531911" lon="13.652299887318339"><ele>633.0</ele><time>2026-04-30T12:43:54.999Z</time></trkpt><trkpt lat="37.88547622654254" lon="13.652269593519417"><ele>633.0</ele><time>2026-04-30T12:43:55.999Z</time></trkpt><trkpt lat="37.885588118955596" lon="13.652245813484708"><ele>633.0</ele><time>2026-04-30T12:43:56.999Z</time></trkpt><trkpt lat="37.8857077118736" lon="13.652227721197384"><ele>633.0</ele><time>2026-04-30T12:43:57.999Z</time></trkpt><trkpt lat="37.885830981189365" lon="13.652209554656011"><ele>633.0</ele><time>2026-04-30T12:43:58.999Z</time></trkpt><trkpt lat="37.8859649991902" lon="13.652186598933826"><ele>632.75</ele><time>2026-04-30T12:43:59.999Z</time></trkpt><trkpt lat="37.88609327447082" lon="13.652168559135806"><ele>632.5</ele><time>2026-04-30T12:44:00.999Z</time></trkpt><trkpt lat="37.88621559116599" lon="13.652163820900272"><ele>632.25</ele><time>2026-04-30T12:44:01.999Z</time></trkpt><trkpt lat="37.8863282702329" lon="13.652165577819753"><ele>632.0</ele><time>2026-04-30T12:44:02.999Z</time></trkpt><trkpt lat="37.8864340308678" lon="13.652171761183363"><ele>632.0</ele><time>2026-04-30T12:44:03.999Z</time></trkpt><trkpt lat="37.886535202714406" lon="13.652175355946383"><ele>632.0</ele><time>2026-04-30T12:44:04.999Z</time></trkpt><trkpt lat="37.88663789456363" lon="13.652170954787541"><ele>632.0</ele><time>2026-04-30T12:44:05.999Z</time></trkpt><trkpt lat="37.88675300556276" lon="13.652162947094215"><ele>632.0</ele><time>2026-04-30T12:44:06.999Z</time></trkpt><trkpt lat="37.886877452835556" lon="13.65215374959301"><ele>632.0</ele><time>2026-04-30T12:44:07.999Z</time></trkpt><trkpt lat="37.88700554975312" lon="13.652140691288581"><ele>630.75</ele><time>2026-04-30T12:44:08.999Z</time></trkpt><trkpt lat="37.88713130288053" lon="13.6521217696079"><ele>629.5</ele><time>2026-04-30T12:44:09.999Z</time></trkpt><trkpt lat="37.887267381576606" lon="13.65209788970915"><ele>628.25</ele><time>2026-04-30T12:44:10.999Z</time></trkpt><trkpt lat="37.887405824168454" lon="13.652068528852958"><ele>627.0</ele><time>2026-04-30T12:44:11.999Z</time></trkpt><trkpt lat="37.88754436482963" lon="13.652036880299766"><ele>625.75</ele><time>2026-04-30T12:44:12.999Z</time></trkpt><trkpt lat="37.88767704955399" lon="13.652004660490379"><ele>624.5</ele><time>2026-04-30T12:44:13.999Z</time></trkpt><trkpt lat="37.88781182485669" lon="13.65196312022899"><ele>623.25</ele><time>2026-04-30T12:44:14.999Z</time></trkpt><trkpt lat="37.88795266208556" lon="13.65191397927018"><ele>622.0</ele><time>2026-04-30T12:44:15.999Z</time></trkpt><trkpt lat="37.8880984717524" lon="13.65185648420284"><ele>626.6666666666667</ele><time>2026-04-30T12:44:16.999Z</time></trkpt><trkpt lat="37.88824066719396" lon="13.651792583919171"><ele>631.3333333333334</ele><time>2026-04-30T12:44:17.999Z</time></trkpt><trkpt lat="37.88839321506034" lon="13.6517250468338"><ele>636.0</ele><time>2026-04-30T12:44:18.999Z</time></trkpt><trkpt lat="37.88854891674057" lon="13.651661919900777"><ele>636.3333333333334</ele><time>2026-04-30T12:44:19.999Z</time></trkpt><trkpt lat="37.88870911850164" lon="13.651607810721897"><ele>636.6666666666667</ele><time>2026-04-30T12:44:20.999Z</time></trkpt><trkpt lat="37.888879673726606" lon="13.651563333528257"><ele>637.0</ele><time>2026-04-30T12:44:21.999Z</time></trkpt><trkpt lat="37.88904551234848" lon="13.651518607350683"><ele>637.0</ele><time>2026-04-30T12:44:22.999Z</time></trkpt><trkpt lat="37.88919422974978" lon="13.651475455007292"><ele>637.0</ele><time>2026-04-30T12:44:23.999Z</time></trkpt><trkpt lat="37.88931736170045" lon="13.651442017631181"><ele>637.0</ele><time>2026-04-30T12:44:24.999Z</time></trkpt><trkpt lat="37.8894121586659" lon="13.651400040955997"><ele>637.0</ele><time>2026-04-30T12:44:25.999Z</time></trkpt><trkpt lat="37.88950407023118" lon="13.651338151572606"><ele>637.25</ele><time>2026-04-30T12:44:26.999Z</time></trkpt><trkpt lat="37.88959333014814" lon="13.651268270246662"><ele>637.5</ele><time>2026-04-30T12:44:27.999Z</time></trkpt><trkpt lat="37.88969898412124" lon="13.651196405711739"><ele>637.75</ele><time>2026-04-30T12:44:28.999Z</time></trkpt><trkpt lat="37.88981005282412" lon="13.65112769437618"><ele>638.0</ele><time>2026-04-30T12:44:29.999Z</time></trkpt><trkpt lat="37.88991613752552" lon="13.65106182524278"><ele>638.0</ele><time>2026-04-30T12:44:30.999Z</time></trkpt><trkpt lat="37.89001728272519" lon="13.650997269920886"><ele>638.0</ele><time>2026-04-30T12:44:31.999Z</time></trkpt><trkpt lat="37.8901321485121" lon="13.650931927487097"><ele>638.0</ele><time>2026-04-30T12:44:32.999Z</time></trkpt><trkpt lat="37.89025010198852" lon="13.650863153859435"><ele>638.0</ele><time>2026-04-30T12:44:33.999Z</time></trkpt><trkpt lat="37.890372653805926" lon="13.650786582877782"><ele>640.0</ele><time>2026-04-30T12:44:34.999Z</time></trkpt><trkpt lat="37.89048262395682" lon="13.650707271789015"><ele>642.0</ele><time>2026-04-30T12:44:35.999Z</time></trkpt><trkpt lat="37.89058829838859" lon="13.650610961492362"><ele>644.0</ele><time>2026-04-30T12:44:36.999Z</time></trkpt><trkpt lat="37.8906813925134" lon="13.650502385162225"><ele>646.0</ele><time>2026-04-30T12:44:37.999Z</time></trkpt><trkpt lat="37.89077131464153" lon="13.650397903532326"><ele>646.0</ele><time>2026-04-30T12:44:38.999Z</time></trkpt><trkpt lat="37.89086930584956" lon="13.650305388896786"><ele>646.0</ele><time>2026-04-30T12:44:39.999Z</time></trkpt><trkpt lat="37.89097733189226" lon="13.650228394725831"><ele>646.0</ele><time>2026-04-30T12:44:40.999Z</time></trkpt><trkpt lat="37.89109428145468" lon="13.65017380701899"><ele>646.0</ele><time>2026-04-30T12:44:41.999Z</time></trkpt><trkpt lat="37.89121350558992" lon="13.650116295468663"><ele>644.25</ele><time>2026-04-30T12:44:42.999Z</time></trkpt><trkpt lat="37.89132537228487" lon="13.65003617522044"><ele>642.5</ele><time>2026-04-30T12:44:43.999Z</time></trkpt><trkpt lat="37.89142394608924" lon="13.649940352802332"><ele>640.75</ele><time>2026-04-30T12:44:44.999Z</time></trkpt><trkpt lat="37.89151789956475" lon="13.649837803353687"><ele>639.0</ele><time>2026-04-30T12:44:45.999Z</time></trkpt><trkpt lat="37.89161369987122" lon="13.649729898372865"><ele>639.0</ele><time>2026-04-30T12:44:47Z</time></trkpt><trkpt lat="37.89170282646351" lon="13.649625207574267"><ele>639.0</ele><time>2026-04-30T12:44:48Z</time></trkpt><trkpt lat="37.89178760152672" lon="13.649520235357299"><ele>639.0</ele><time>2026-04-30T12:44:49Z</time></trkpt><trkpt lat="37.89186344941612" lon="13.649419668895792"><ele>639.0</ele><time>2026-04-30T12:44:50Z</time></trkpt><trkpt lat="37.8919420022752" lon="13.649334046990818"><ele>637.75</ele><time>2026-04-30T12:44:51Z</time></trkpt><trkpt lat="37.8920403767309" lon="13.649253885319252"><ele>636.5</ele><time>2026-04-30T12:44:52Z</time></trkpt><trkpt lat="37.892151780861965" lon="13.649187587743244"><ele>635.25</ele><time>2026-04-30T12:44:53Z</time></trkpt><trkpt lat="37.89225850404543" lon="13.649117458930442"><ele>634.0</ele><time>2026-04-30T12:44:54Z</time></trkpt><trkpt lat="37.8923543153247" lon="13.64903102629075"><ele>634.0</ele><time>2026-04-30T12:44:55Z</time></trkpt><trkpt lat="37.89245282456268" lon="13.648929728603312"><ele>634.0</ele><time>2026-04-30T12:44:56Z</time></trkpt><trkpt lat="37.89255171322247" lon="13.648823162054574"><ele>634.0</ele><time>2026-04-30T12:44:57Z</time></trkpt><trkpt lat="37.892653559052256" lon="13.64870916590188"><ele>634.0</ele><time>2026-04-30T12:44:58Z</time></trkpt><trkpt lat="37.8927681044814" lon="13.648595117557642"><ele>633.0</ele><time>2026-04-30T12:44:59Z</time></trkpt><trkpt lat="37.892892778909754" lon="13.648486334861829"><ele>632.0</ele><time>2026-04-30T12:45:00Z</time></trkpt><trkpt lat="37.893019607150784" lon="13.64838109382346"><ele>631.0</ele><time>2026-04-30T12:45:01Z</time></trkpt><trkpt lat="37.89314713417877" lon="13.648280078638967"><ele>631.0</ele><time>2026-04-30T12:45:02Z</time></trkpt><trkpt lat="37.893276789456905" lon="13.648181231345133"><ele>631.0</ele><time>2026-04-30T12:45:03Z</time></trkpt><trkpt lat="37.89340478778535" lon="13.64808462047001"><ele>631.0</ele><time>2026-04-30T12:45:04Z</time></trkpt><trkpt lat="37.893520124452465" lon="13.647995180740622"><ele>631.0</ele><time>2026-04-30T12:45:05Z</time></trkpt><trkpt lat="37.89362864785801" lon="13.64792277067569"><ele>633.4</ele><time>2026-04-30T12:45:06Z</time></trkpt><trkpt lat="37.893735046991495" lon="13.64785624865747"><ele>635.8</ele><time>2026-04-30T12:45:07Z</time></trkpt><trkpt lat="37.893830410620595" lon="13.64778826679773"><ele>638.1999999999999</ele><time>2026-04-30T12:45:08Z</time></trkpt><trkpt lat="37.893907793874234" lon="13.647709464872651"><ele>640.6</ele><time>2026-04-30T12:45:09Z</time></trkpt><trkpt lat="37.893976427729015" lon="13.64761677528656"><ele>643.0</ele><time>2026-04-30T12:45:10Z</time></trkpt><trkpt lat="37.89402932614871" lon="13.647519205968996"><ele>643.0</ele><time>2026-04-30T12:45:11Z</time></trkpt><trkpt lat="37.894063040371805" lon="13.647411751772738"><ele>643.0</ele><time>2026-04-30T12:45:12Z</time></trkpt><trkpt lat="37.8940809821083" lon="13.647287675219046"><ele>643.0</ele><time>2026-04-30T12:45:13Z</time></trkpt><trkpt lat="37.894092043106326" lon="13.647152425065322"><ele>643.0</ele><time>2026-04-30T12:45:14Z</time></trkpt><trkpt lat="37.89409950061726" lon="13.646999043758983"><ele>643.0</ele><time>2026-04-30T12:45:15Z</time></trkpt><trkpt lat="37.89410396577454" lon="13.646838769487355"><ele>645.25</ele><time>2026-04-30T12:45:16Z</time></trkpt><trkpt lat="37.89409909687785" lon="13.646667607624437"><ele>647.5</ele><time>2026-04-30T12:45:17Z</time></trkpt><trkpt lat="37.89407682474807" lon="13.646501493983262"><ele>649.75</ele><time>2026-04-30T12:45:18Z</time></trkpt><trkpt lat="37.89402962895172" lon="13.646362516506242"><ele>652.0</ele><time>2026-04-30T12:45:19Z</time></trkpt><trkpt lat="37.893961734927956" lon="13.64622600510818"><ele>654.75</ele><time>2026-04-30T12:45:20Z</time></trkpt><trkpt lat="37.89388175037343" lon="13.646079692132648"><ele>657.5</ele><time>2026-04-30T12:45:21Z</time></trkpt><trkpt lat="37.89379850650955" lon="13.645934009731175"><ele>660.25</ele><time>2026-04-30T12:45:22Z</time></trkpt><trkpt lat="37.893728073250806" lon="13.64580371219309"><ele>663.0</ele><time>2026-04-30T12:45:23Z</time></trkpt><trkpt lat="37.893667235285854" lon="13.645680407724864"><ele>663.0</ele><time>2026-04-30T12:45:24Z</time></trkpt><trkpt lat="37.893604229154285" lon="13.645555561996265"><ele>663.0</ele><time>2026-04-30T12:45:25Z</time></trkpt><trkpt lat="37.893537559438364" lon="13.645427116011275"><ele>663.0</ele><time>2026-04-30T12:45:26Z</time></trkpt><trkpt lat="37.89347668239167" lon="13.645295722286393"><ele>663.0</ele><time>2026-04-30T12:45:27Z</time></trkpt><trkpt lat="37.89342196583768" lon="13.645151034012903"><ele>660.25</ele><time>2026-04-30T12:45:28Z</time></trkpt><trkpt lat="37.8933794929533" lon="13.644992151481508"><ele>657.5</ele><time>2026-04-30T12:45:29Z</time></trkpt><trkpt lat="37.89334025113892" lon="13.644816906554732"><ele>654.75</ele><time>2026-04-30T12:45:30Z</time></trkpt><trkpt lat="37.893304535184754" lon="13.644641332691844"><ele>652.0</ele><time>2026-04-30T12:45:31Z</time></trkpt><trkpt lat="37.893283670523864" lon="13.644476884061273"><ele>653.0</ele><time>2026-04-30T12:45:32Z</time></trkpt><trkpt lat="37.89326211696269" lon="13.644324529736652"><ele>654.0</ele><time>2026-04-30T12:45:33Z</time></trkpt><trkpt lat="37.89321788050299" lon="13.644190126505293"><ele>655.0</ele><time>2026-04-30T12:45:34Z</time></trkpt><trkpt lat="37.893153258899815" lon="13.644066921377414"><ele>656.0</ele><time>2026-04-30T12:45:35Z</time></trkpt><trkpt lat="37.89307206099839" lon="13.6439360562572"><ele>656.0</ele><time>2026-04-30T12:45:36Z</time></trkpt><trkpt lat="37.89299426339019" lon="13.643800988382612"><ele>656.0</ele><time>2026-04-30T12:45:37Z</time></trkpt><trkpt lat="37.8929268341796" lon="13.643653987528664"><ele>656.0</ele><time>2026-04-30T12:45:38Z</time></trkpt><trkpt lat="37.89288701081192" lon="13.643503470684417"><ele>656.0</ele><time>2026-04-30T12:45:39Z</time></trkpt><trkpt lat="37.89285984486096" lon="13.643341423946037"><ele>657.0</ele><time>2026-04-30T12:45:40Z</time></trkpt><trkpt lat="37.89283424836265" lon="13.643170664627839"><ele>658.0</ele><time>2026-04-30T12:45:41Z</time></trkpt><trkpt lat="37.892815746207276" lon="13.64299621408617"><ele>659.0</ele><time>2026-04-30T12:45:42Z</time></trkpt><trkpt lat="37.89281475409628" lon="13.642818795648274"><ele>660.0</ele><time>2026-04-30T12:45:43Z</time></trkpt><trkpt lat="37.892821901465624" lon="13.64264655235426"><ele>660.5</ele><time>2026-04-30T12:45:44Z</time></trkpt><trkpt lat="37.89282930507678" lon="13.642488308111323"><ele>661.0</ele><time>2026-04-30T12:45:45Z</time></trkpt><trkpt lat="37.89282808289116" lon="13.642335000624332"><ele>661.5</ele><time>2026-04-30T12:45:45.999Z</time></trkpt><trkpt lat="37.89281243574464" lon="13.642189840552472"><ele>662.0</ele><time>2026-04-30T12:45:46.999Z</time></trkpt><trkpt lat="37.89277406217416" lon="13.642051467175103"><ele>663.0</ele><time>2026-04-30T12:45:47.999Z</time></trkpt><trkpt lat="37.892713598894915" lon="13.641919421355087"><ele>664.0</ele><time>2026-04-30T12:45:48.999Z</time></trkpt><trkpt lat="37.89264690967383" lon="13.641792026372014"><ele>665.0</ele><time>2026-04-30T12:45:49.999Z</time></trkpt><trkpt lat="37.89257783587312" lon="13.641675266459314"><ele>666.0</ele><time>2026-04-30T12:45:50.999Z</time></trkpt><trkpt lat="37.89249819677539" lon="13.641577648145846"><ele>662.4</ele><time>2026-04-30T12:45:51.999Z</time></trkpt><trkpt lat="37.8924050290453" lon="13.641509304392354"><ele>658.8</ele><time>2026-04-30T12:45:52.999Z</time></trkpt><trkpt lat="37.89230860927495" lon="13.641456775144222"><ele>655.1999999999999</ele><time>2026-04-30T12:45:53.999Z</time></trkpt><trkpt lat="37.89220848277988" lon="13.641426715719309"><ele>651.5999999999999</ele><time>2026-04-30T12:45:54.999Z</time></trkpt><trkpt lat="37.89210592297526" lon="13.641427151458126"><ele>648.0</ele><time>2026-04-30T12:45:55.999Z</time></trkpt><trkpt lat="37.892015563272096" lon="13.641455568710747"><ele>648.0</ele><time>2026-04-30T12:45:56.999Z</time></trkpt><trkpt lat="37.89192521255346" lon="13.641505096676008"><ele>648.0</ele><time>2026-04-30T12:45:57.999Z</time></trkpt><trkpt lat="37.891835159127936" lon="13.641551676559269"><ele>648.0</ele><time>2026-04-30T12:45:58.999Z</time></trkpt><trkpt lat="37.891759455552425" lon="13.641565335551773"><ele>648.0</ele><time>2026-04-30T12:45:59.999Z</time></trkpt><trkpt lat="37.891698607908815" lon="13.641542365704803"><ele>648.0</ele><time>2026-04-30T12:46:00.999Z</time></trkpt><trkpt lat="37.89164558295501" lon="13.641482306940802"><ele>648.0</ele><time>2026-04-30T12:46:01.999Z</time></trkpt><trkpt lat="37.8916041175536" lon="13.641395764711993"><ele>647.5</ele><time>2026-04-30T12:46:02.999Z</time></trkpt><trkpt lat="37.89158745344616" lon="13.641301820008382"><ele>647.0</ele><time>2026-04-30T12:46:03.999Z</time></trkpt><trkpt lat="37.891587171920456" lon="13.641211052174931"><ele>646.5</ele><time>2026-04-30T12:46:04.999Z</time></trkpt><trkpt lat="37.89157084695232" lon="13.64112088269433"><ele>646.0</ele><time>2026-04-30T12:46:05.999Z</time></trkpt><trkpt lat="37.89151751293846" lon="13.641057437256073"><ele>645.5</ele><time>2026-04-30T12:46:06.999Z</time></trkpt><trkpt lat="37.891428560769654" lon="13.640999902138555"><ele>645.0</ele><time>2026-04-30T12:46:07.999Z</time></trkpt><trkpt lat="37.891334496334714" lon="13.640911971734877"><ele>644.5</ele><time>2026-04-30T12:46:08.999Z</time></trkpt><trkpt lat="37.89125320204619" lon="13.640817021735392"><ele>644.0</ele><time>2026-04-30T12:46:09.999Z</time></trkpt><trkpt lat="37.891185857452" lon="13.640711438263805"><ele>643.5</ele><time>2026-04-30T12:46:10.999Z</time></trkpt><trkpt lat="37.89110035445873" lon="13.64062136676298"><ele>643.0</ele><time>2026-04-30T12:46:11.999Z</time></trkpt><trkpt lat="37.89099076559169" lon="13.640544247807384"><ele>646.0</ele><time>2026-04-30T12:46:12.999Z</time></trkpt><trkpt lat="37.89088686659606" lon="13.640447433801464"><ele>649.0</ele><time>2026-04-30T12:46:13.999Z</time></trkpt><trkpt lat="37.89080067515584" lon="13.640339728682713"><ele>652.0</ele><time>2026-04-30T12:46:14.999Z</time></trkpt><trkpt lat="37.89071007113505" lon="13.640245749592506"><ele>655.0</ele><time>2026-04-30T12:46:15.999Z</time></trkpt><trkpt lat="37.890615414033824" lon="13.640186739841091"><ele>649.8</ele><time>2026-04-30T12:46:16.999Z</time></trkpt><trkpt lat="37.89053037396832" lon="13.640134914111481"><ele>644.6</ele><time>2026-04-30T12:46:17.999Z</time></trkpt><trkpt lat="37.89045352503567" lon="13.640075975761949"><ele>639.4</ele><time>2026-04-30T12:46:18.999Z</time></trkpt><trkpt lat="37.89038236484304" lon="13.640033617616698"><ele>634.2</ele><time>2026-04-30T12:46:19.999Z</time></trkpt><trkpt lat="37.89027649813837" lon="13.639973408776257"><ele>629.0</ele><time>2026-04-30T12:46:21.999Z</time></trkpt><trkpt lat="37.89015452142087" lon="13.639907642000953"><ele>630.2857142857142</ele><time>2026-04-30T12:46:23.999Z</time></trkpt><trkpt lat="37.89008544422559" lon="13.639878377614195"><ele>631.5714285714287</ele><time>2026-04-30T12:46:24.999Z</time></trkpt><trkpt lat="37.89002792898946" lon="13.639839262479343"><ele>632.8571428571429</ele><time>2026-04-30T12:46:25.999Z</time></trkpt><trkpt lat="37.889976802613454" lon="13.639789511991934"><ele>634.1428571428571</ele><time>2026-04-30T12:46:26.999Z</time></trkpt><trkpt lat="37.889919836485895" lon="13.639725645277007"><ele>635.4285714285713</ele><time>2026-04-30T12:46:27.999Z</time></trkpt><trkpt lat="37.889877440822595" lon="13.639664464793995"><ele>636.7142857142858</ele><time>2026-04-30T12:46:28.999Z</time></trkpt><trkpt lat="37.88982552805047" lon="13.639607696700482"><ele>638.0</ele><time>2026-04-30T12:46:29.999Z</time></trkpt><trkpt lat="37.88977134669688" lon="13.639551663721083"><ele>638.0</ele><time>2026-04-30T12:46:30.999Z</time></trkpt><trkpt lat="37.8897119497011" lon="13.63950919726862"><ele>638.0</ele><time>2026-04-30T12:46:31.999Z</time></trkpt><trkpt lat="37.88964303890875" lon="13.639474999420289"><ele>638.0</ele><time>2026-04-30T12:46:32.999Z</time></trkpt><trkpt lat="37.88957709706564" lon="13.63945021581659"><ele>638.0</ele><time>2026-04-30T12:46:33.999Z</time></trkpt><trkpt lat="37.8895131829453" lon="13.639431484690196"><ele>638.0</ele><time>2026-04-30T12:46:34.999Z</time></trkpt><trkpt lat="37.889396830903536" lon="13.63941236547405"><ele>638.0</ele><time>2026-04-30T12:46:36.999Z</time></trkpt><trkpt lat="37.88928678737302" lon="13.63939787667323"><ele>631.4</ele><time>2026-04-30T12:46:38.999Z</time></trkpt><trkpt lat="37.88915837120639" lon="13.639396882143421"><ele>624.8</ele><time>2026-04-30T12:46:40.999Z</time></trkpt><trkpt lat="37.88903601053933" lon="13.639394398390705"><ele>618.2</ele><time>2026-04-30T12:46:42.999Z</time></trkpt><trkpt lat="37.888920949529854" lon="13.639382098369563"><ele>611.6</ele><time>2026-04-30T12:46:44.999Z</time></trkpt><trkpt lat="37.88885679418791" lon="13.639378137759534"><ele>605.0</ele><time>2026-04-30T12:46:45.999Z</time></trkpt><trkpt lat="37.88878861711619" lon="13.639369620558945"><ele>605.0</ele><time>2026-04-30T12:46:46.999Z</time></trkpt><trkpt lat="37.888726660436404" lon="13.639354010259853"><ele>605.0</ele><time>2026-04-30T12:46:47.999Z</time></trkpt><trkpt lat="37.888616335664295" lon="13.639331611257154"><ele>605.0</ele><time>2026-04-30T12:46:49.999Z</time></trkpt><trkpt lat="37.8885120371017" lon="13.639300399732077"><ele>605.0</ele><time>2026-04-30T12:46:51.999Z</time></trkpt><trkpt lat="37.888386671457035" lon="13.639301027895101"><ele>605.0</ele><time>2026-04-30T12:46:54Z</time></trkpt><trkpt lat="37.88826456082361" lon="13.639283867408103"><ele>604.2</ele><time>2026-04-30T12:46:56Z</time></trkpt><trkpt lat="37.888147742169345" lon="13.63926835442944"><ele>603.4</ele><time>2026-04-30T12:46:58Z</time></trkpt><trkpt lat="37.88804411232903" lon="13.639210494836126"><ele>602.6</ele><time>2026-04-30T12:47:00Z</time></trkpt><trkpt lat="37.88796845010448" lon="13.639069569699156"><ele>601.8</ele><time>2026-04-30T12:47:02Z</time></trkpt><trkpt lat="37.88792597352416" lon="13.638985707739241"><ele>601.0</ele><time>2026-04-30T12:47:03Z</time></trkpt><trkpt lat="37.88788942714537" lon="13.638908356829305"><ele>601.0</ele><time>2026-04-30T12:47:04Z</time></trkpt><trkpt lat="37.88785123473691" lon="13.638838618233674"><ele>601.0</ele><time>2026-04-30T12:47:05Z</time></trkpt><trkpt lat="37.88776425538594" lon="13.638738106749924"><ele>601.0</ele><time>2026-04-30T12:47:07Z</time></trkpt><trkpt lat="37.88765585812778" lon="13.63872262452975"><ele>601.0</ele><time>2026-04-30T12:47:09Z</time></trkpt><trkpt lat="37.88758297500536" lon="13.638723204038754"><ele>601.0</ele><time>2026-04-30T12:47:10Z</time></trkpt><trkpt lat="37.887497244838784" lon="13.638724781462306"><ele>602.1666666666667</ele><time>2026-04-30T12:47:11Z</time></trkpt><trkpt lat="37.887377256739015" lon="13.638714031830581"><ele>603.3333333333334</ele><time>2026-04-30T12:47:13Z</time></trkpt><trkpt lat="37.887310593644195" lon="13.63870910556502"><ele>604.5</ele><time>2026-04-30T12:47:14Z</time></trkpt><trkpt lat="37.88724014025481" lon="13.638698448949642"><ele>605.6666666666666</ele><time>2026-04-30T12:47:15Z</time></trkpt><trkpt lat="37.88717609337226" lon="13.63866259262016"><ele>606.8333333333333</ele><time>2026-04-30T12:47:16Z</time></trkpt><trkpt lat="37.88712014368392" lon="13.638620001982364"><ele>608.0</ele><time>2026-04-30T12:47:17Z</time></trkpt><trkpt lat="37.88706139964816" lon="13.638575793768748"><ele>604.1666666666666</ele><time>2026-04-30T12:47:18Z</time></trkpt><trkpt lat="37.886988650161896" lon="13.63854288031679"><ele>600.3333333333333</ele><time>2026-04-30T12:47:19Z</time></trkpt><trkpt lat="37.88691119142301" lon="13.638515265177082"><ele>596.5</ele><time>2026-04-30T12:47:20Z</time></trkpt><trkpt lat="37.88683783761868" lon="13.638484803041186"><ele>592.6666666666666</ele><time>2026-04-30T12:47:21Z</time></trkpt><trkpt lat="37.886762354061624" lon="13.638453903172213"><ele>588.8333333333334</ele><time>2026-04-30T12:47:22Z</time></trkpt><trkpt lat="37.8866936472889" lon="13.638419111170055"><ele>585.0</ele><time>2026-04-30T12:47:23Z</time></trkpt><trkpt lat="37.88663115096011" lon="13.638358867751812"><ele>585.0</ele><time>2026-04-30T12:47:24Z</time></trkpt><trkpt lat="37.88657597581531" lon="13.638288228062539"><ele>585.0</ele><time>2026-04-30T12:47:25Z</time></trkpt><trkpt lat="37.88652547984078" lon="13.638222368858184"><ele>585.0</ele><time>2026-04-30T12:47:26Z</time></trkpt><trkpt lat="37.88648754197498" lon="13.638148791518974"><ele>585.0</ele><time>2026-04-30T12:47:27Z</time></trkpt><trkpt lat="37.8864508943454" lon="13.638073764939902"><ele>585.0</ele><time>2026-04-30T12:47:28Z</time></trkpt><trkpt lat="37.88640100711003" lon="13.638011891855614"><ele>585.0</ele><time>2026-04-30T12:47:29Z</time></trkpt><trkpt lat="37.886327947751056" lon="13.637954457971773"><ele>585.0</ele><time>2026-04-30T12:47:31Z</time></trkpt><trkpt lat="37.88626607633653" lon="13.637919551153034"><ele>585.0</ele><time>2026-04-30T12:47:34Z</time></trkpt><trkpt lat="37.88633166904042" lon="13.637897210145539"><ele>585.0</ele><time>2026-04-30T12:47:38Z</time></trkpt><trkpt lat="37.88640315833257" lon="13.637893813130832"><ele>585.0</ele><time>2026-04-30T12:47:40Z</time></trkpt><trkpt lat="37.88648013243773" lon="13.637858418108538"><ele>585.0</ele><time>2026-04-30T12:47:43Z</time></trkpt><trkpt lat="37.886554696182785" lon="13.637782543489907"><ele>585.0</ele><time>2026-04-30T12:47:46Z</time></trkpt><trkpt lat="37.886602356217765" lon="13.637694675041526"><ele>585.0</ele><time>2026-04-30T12:47:47.999Z</time></trkpt><trkpt lat="37.886642140405954" lon="13.637617997259746"><ele>579.4</ele><time>2026-04-30T12:47:48.999Z</time></trkpt><trkpt lat="37.88670062305118" lon="13.637514374055284"><ele>573.8</ele><time>2026-04-30T12:47:49.999Z</time></trkpt><trkpt lat="37.88676233294759" lon="13.63741591609794"><ele>568.2</ele><time>2026-04-30T12:47:50.999Z</time></trkpt><trkpt lat="37.88683038346831" lon="13.637333102176799"><ele>562.6</ele><time>2026-04-30T12:47:51.999Z</time></trkpt><trkpt lat="37.88691489761876" lon="13.637276187266174"><ele>557.0</ele><time>2026-04-30T12:47:52.999Z</time></trkpt><trkpt lat="37.88700893280704" lon="13.63724760823711"><ele>557.0</ele><time>2026-04-30T12:47:53.999Z</time></trkpt><trkpt lat="37.887111244770445" lon="13.63724693544567"><ele>557.0</ele><time>2026-04-30T12:47:54.999Z</time></trkpt><trkpt lat="37.88722358390789" lon="13.63724919195985"><ele>557.0</ele><time>2026-04-30T12:47:55.999Z</time></trkpt><trkpt lat="37.88733620234873" lon="13.637243124940145"><ele>557.0</ele><time>2026-04-30T12:47:56.999Z</time></trkpt><trkpt lat="37.887444551684546" lon="13.637227161654991"><ele>557.0</ele><time>2026-04-30T12:47:57.999Z</time></trkpt><trkpt lat="37.887550095544434" lon="13.637188721870608"><ele>558.0</ele><time>2026-04-30T12:47:58.999Z</time></trkpt><trkpt lat="37.88765988385666" lon="13.637107878142803"><ele>559.0</ele><time>2026-04-30T12:47:59.999Z</time></trkpt><trkpt lat="37.88777249134201" lon="13.63699704497355"><ele>560.0</ele><time>2026-04-30T12:48:00.999Z</time></trkpt><trkpt lat="37.88788527821259" lon="13.636899716766472"><ele>561.0</ele><time>2026-04-30T12:48:01.999Z</time></trkpt><trkpt lat="37.88801208468791" lon="13.636841500980433"><ele>558.0</ele><time>2026-04-30T12:48:02.999Z</time></trkpt><trkpt lat="37.888164793739364" lon="13.636809536352509"><ele>555.0</ele><time>2026-04-30T12:48:03.999Z</time></trkpt><trkpt lat="37.888311543510305" lon="13.636780029272757"><ele>552.0</ele><time>2026-04-30T12:48:04.999Z</time></trkpt><trkpt lat="37.888435960753625" lon="13.636731607281696"><ele>549.0</ele><time>2026-04-30T12:48:05.999Z</time></trkpt><trkpt lat="37.888541454819496" lon="13.636677059310392"><ele>549.0</ele><time>2026-04-30T12:48:06.999Z</time></trkpt><trkpt lat="37.888640306080134" lon="13.636625506675609"><ele>549.0</ele><time>2026-04-30T12:48:07.999Z</time></trkpt><trkpt lat="37.88874124251846" lon="13.636581095459906"><ele>549.0</ele><time>2026-04-30T12:48:08.999Z</time></trkpt><trkpt lat="37.88884741486331" lon="13.636538474878225"><ele>549.0</ele><time>2026-04-30T12:48:09.999Z</time></trkpt><trkpt lat="37.88895554038322" lon="13.636501908329189"><ele>549.0</ele><time>2026-04-30T12:48:10.999Z</time></trkpt><trkpt lat="37.889070965075945" lon="13.63646654421677"><ele>549.0</ele><time>2026-04-30T12:48:11.999Z</time></trkpt><trkpt lat="37.889192757386866" lon="13.6364457190012"><ele>549.0</ele><time>2026-04-30T12:48:12.999Z</time></trkpt><trkpt lat="37.88931953664333" lon="13.636433636431315"><ele>549.0</ele><time>2026-04-30T12:48:13.999Z</time></trkpt><trkpt lat="37.88944598010694" lon="13.63642070051944"><ele>549.0</ele><time>2026-04-30T12:48:14.999Z</time></trkpt><trkpt lat="37.88957290882736" lon="13.636404181816554"><ele>550.0</ele><time>2026-04-30T12:48:15.999Z</time></trkpt><trkpt lat="37.889705177242725" lon="13.636382457281139"><ele>551.0</ele><time>2026-04-30T12:48:16.999Z</time></trkpt><trkpt lat="37.889839901330554" lon="13.636347852815053"><ele>552.0</ele><time>2026-04-30T12:48:17.999Z</time></trkpt><trkpt lat="37.88997278257688" lon="13.63630296751748"><ele>553.0</ele><time>2026-04-30T12:48:18.999Z</time></trkpt><trkpt lat="37.890106317560544" lon="13.636258059758585"><ele>554.0</ele><time>2026-04-30T12:48:19.999Z</time></trkpt><trkpt lat="37.890243899170976" lon="13.636215685402519"><ele>555.0</ele><time>2026-04-30T12:48:20.999Z</time></trkpt><trkpt lat="37.89038493687619" lon="13.636168510699214"><ele>556.0</ele><time>2026-04-30T12:48:21.999Z</time></trkpt><trkpt lat="37.890528744009785" lon="13.636122376535829"><ele>557.0</ele><time>2026-04-30T12:48:22.999Z</time></trkpt><trkpt lat="37.89066852709437" lon="13.636077631154569"><ele>554.0</ele><time>2026-04-30T12:48:23.999Z</time></trkpt><trkpt lat="37.89079936713711" lon="13.636046659395488"><ele>551.0</ele><time>2026-04-30T12:48:24.999Z</time></trkpt><trkpt lat="37.89093300382581" lon="13.636038598029696"><ele>548.0</ele><time>2026-04-30T12:48:25.999Z</time></trkpt><trkpt lat="37.89107284536473" lon="13.636055412542937"><ele>545.0</ele><time>2026-04-30T12:48:26.999Z</time></trkpt><trkpt lat="37.891220923203136" lon="13.636085937475558"><ele>544.0</ele><time>2026-04-30T12:48:27.999Z</time></trkpt><trkpt lat="37.891355016332376" lon="13.636114276148719"><ele>543.0</ele><time>2026-04-30T12:48:28.999Z</time></trkpt><trkpt lat="37.89147900340876" lon="13.63614148612916"><ele>542.0</ele><time>2026-04-30T12:48:29.999Z</time></trkpt><trkpt lat="37.891591028080256" lon="13.636165428236389"><ele>541.0</ele><time>2026-04-30T12:48:30.999Z</time></trkpt><trkpt lat="37.89168697717007" lon="13.636192647376207"><ele>542.2</ele><time>2026-04-30T12:48:31.999Z</time></trkpt><trkpt lat="37.89175534934796" lon="13.636215234183357"><ele>543.4000000000001</ele><time>2026-04-30T12:48:32.999Z</time></trkpt><trkpt lat="37.89184931135376" lon="13.636184638817062"><ele>544.6</ele><time>2026-04-30T12:48:34.999Z</time></trkpt><trkpt lat="37.89191492982758" lon="13.636050194552068"><ele>545.8000000000001</ele><time>2026-04-30T12:48:36.999Z</time></trkpt><trkpt lat="37.891933412060915" lon="13.635950361167344"><ele>547.0</ele><time>2026-04-30T12:48:37.999Z</time></trkpt><trkpt lat="37.89195004298315" lon="13.6358304347242"><ele>543.6</ele><time>2026-04-30T12:48:38.999Z</time></trkpt><trkpt lat="37.891971078405014" lon="13.635699048645979"><ele>540.2</ele><time>2026-04-30T12:48:39.999Z</time></trkpt><trkpt lat="37.8920005456178" lon="13.63556372966355"><ele>536.8</ele><time>2026-04-30T12:48:40.999Z</time></trkpt><trkpt lat="37.89203383406168" lon="13.635431651712372"><ele>533.4</ele><time>2026-04-30T12:48:41.999Z</time></trkpt><trkpt lat="37.89206862539703" lon="13.635302489265905"><ele>530.0</ele><time>2026-04-30T12:48:42.999Z</time></trkpt><trkpt lat="37.89208342270019" lon="13.635170292665943"><ele>526.0</ele><time>2026-04-30T12:48:43.999Z</time></trkpt><trkpt lat="37.89207357556595" lon="13.63503544796193"><ele>522.0</ele><time>2026-04-30T12:48:44.999Z</time></trkpt><trkpt lat="37.892055644979365" lon="13.63491752434265"><ele>518.0</ele><time>2026-04-30T12:48:45.999Z</time></trkpt><trkpt lat="37.89205279897822" lon="13.634808065255022"><ele>514.0</ele><time>2026-04-30T12:48:46.999Z</time></trkpt><trkpt lat="37.89207546213208" lon="13.634695395855845"><ele>510.0</ele><time>2026-04-30T12:48:47.999Z</time></trkpt><trkpt lat="37.8921159727174" lon="13.634577095819097"><ele>509.4</ele><time>2026-04-30T12:48:48.999Z</time></trkpt><trkpt lat="37.8921602807655" lon="13.634462278456331"><ele>508.8</ele><time>2026-04-30T12:48:49.999Z</time></trkpt><trkpt lat="37.89219960855802" lon="13.634353468155934"><ele>508.20000000000005</ele><time>2026-04-30T12:48:50.999Z</time></trkpt><trkpt lat="37.8922338235312" lon="13.634246497725691"><ele>507.6</ele><time>2026-04-30T12:48:51.999Z</time></trkpt><trkpt lat="37.89226427098798" lon="13.634144202997218"><ele>507.0</ele><time>2026-04-30T12:48:52.999Z</time></trkpt><trkpt lat="37.89229770354609" lon="13.634048508542524"><ele>507.0</ele><time>2026-04-30T12:48:53.999Z</time></trkpt><trkpt lat="37.89234365939755" lon="13.633960800277212"><ele>507.0</ele><time>2026-04-30T12:48:54.999Z</time></trkpt><trkpt lat="37.892397852049164" lon="13.633879884869726"><ele>507.0</ele><time>2026-04-30T12:48:55.999Z</time></trkpt><trkpt lat="37.892443100048204" lon="13.633792318513787"><ele>507.0</ele><time>2026-04-30T12:48:56.999Z</time></trkpt><trkpt lat="37.8924739361623" lon="13.633691010826475"><ele>507.0</ele><time>2026-04-30T12:48:57.999Z</time></trkpt><trkpt lat="37.89249049671249" lon="13.633579815038116"><ele>507.0</ele><time>2026-04-30T12:48:59Z</time></trkpt><trkpt lat="37.89248209845876" lon="13.633461385839205"><ele>505.20000000000005</ele><time>2026-04-30T12:49:00Z</time></trkpt><trkpt lat="37.892442073370496" lon="13.633343639860398"><ele>503.40000000000003</ele><time>2026-04-30T12:49:01Z</time></trkpt><trkpt lat="37.892379370147" lon="13.63323557485619"><ele>501.59999999999997</ele><time>2026-04-30T12:49:02Z</time></trkpt><trkpt lat="37.892303382915244" lon="13.633130429659222"><ele>499.79999999999995</ele><time>2026-04-30T12:49:03Z</time></trkpt><trkpt lat="37.89222367661329" lon="13.633033886937355"><ele>498.0</ele><time>2026-04-30T12:49:04Z</time></trkpt><trkpt lat="37.892161140598056" lon="13.63295630436559"><ele>498.0</ele><time>2026-04-30T12:49:05Z</time></trkpt><trkpt lat="37.892117821897564" lon="13.632893454580687"><ele>497.99999999999994</ele><time>2026-04-30T12:49:06Z</time></trkpt><trkpt lat="37.89205869539127" lon="13.632786583150981"><ele>497.99999999999994</ele><time>2026-04-30T12:49:08Z</time></trkpt><trkpt lat="37.89201189905941" lon="13.632702624335236"><ele>498.0</ele><time>2026-04-30T12:49:13Z</time></trkpt><trkpt lat="37.89203935317004" lon="13.632804269377768"><ele>498.0</ele><time>2026-04-30T12:49:57.999Z</time></trkpt><trkpt lat="37.89212526810386" lon="13.632920054456187"><ele>498.0</ele><time>2026-04-30T12:49:59.999Z</time></trkpt><trkpt lat="37.89217696876953" lon="13.632983596495965"><ele>497.99999999999994</ele><time>2026-04-30T12:50:00.999Z</time></trkpt><trkpt lat="37.89223109771025" lon="13.633050082764004"><ele>498.0</ele><time>2026-04-30T12:50:01.999Z</time></trkpt><trkpt lat="37.892282994125885" lon="13.633120247765424"><ele>498.0</ele><time>2026-04-30T12:50:02.999Z</time></trkpt><trkpt lat="37.89233102884293" lon="13.633191202623724"><ele>497.99999999999994</ele><time>2026-04-30T12:50:03.999Z</time></trkpt><trkpt lat="37.892374844871156" lon="13.633258972228306"><ele>498.0</ele><time>2026-04-30T12:50:04.999Z</time></trkpt><trkpt lat="37.892414606671295" lon="13.633330940326632"><ele>498.0</ele><time>2026-04-30T12:50:05.999Z</time></trkpt><trkpt lat="37.89246370976036" lon="13.633460430791198"><ele>498.0</ele><time>2026-04-30T12:50:07.999Z</time></trkpt><trkpt lat="37.89247782740622" lon="13.633544840136134"><ele>497.99999999999994</ele><time>2026-04-30T12:50:11.999Z</time></trkpt><trkpt lat="37.892544362383404" lon="13.63352025378954"><ele>497.99999999999994</ele><time>2026-04-30T12:50:14.999Z</time></trkpt><trkpt lat="37.892579920186996" lon="13.633403225972982"><ele>498.0</ele><time>2026-04-30T12:50:16.999Z</time></trkpt><trkpt lat="37.892610209957" lon="13.63327412070264"><ele>498.0</ele><time>2026-04-30T12:50:18.999Z</time></trkpt><trkpt lat="37.892649156944145" lon="13.633128987616109"><ele>490.79999999999995</ele><time>2026-04-30T12:50:20.999Z</time></trkpt><trkpt lat="37.892681550581806" lon="13.632983626554354"><ele>483.59999999999997</ele><time>2026-04-30T12:50:22.999Z</time></trkpt><trkpt lat="37.8927454700959" lon="13.632860050421522"><ele>476.40000000000003</ele><time>2026-04-30T12:50:24.999Z</time></trkpt><trkpt lat="37.8927975950284" lon="13.632756755316704"><ele>469.20000000000005</ele><time>2026-04-30T12:50:26.999Z</time></trkpt><trkpt lat="37.89283334377211" lon="13.632645371887065"><ele>462.0</ele><time>2026-04-30T12:50:28.999Z</time></trkpt><trkpt lat="37.89284171491659" lon="13.632539723099566"><ele>460.3333333333333</ele><time>2026-04-30T12:50:30.999Z</time></trkpt><trkpt lat="37.8928573910234" lon="13.632434535352846"><ele>458.66666666666663</ele><time>2026-04-30T12:50:32.999Z</time></trkpt><trkpt lat="37.89286751643025" lon="13.63233046169847"><ele>457.0</ele><time>2026-04-30T12:50:35.999Z</time></trkpt><trkpt lat="37.89281109424697" lon="13.63226564338301"><ele>455.3333333333333</ele><time>2026-04-30T12:50:38.999Z</time></trkpt><trkpt lat="37.892720217323394" lon="13.6322656291054"><ele>453.66666666666663</ele><time>2026-04-30T12:50:40.999Z</time></trkpt><trkpt lat="37.89262273008548" lon="13.632287551282818"><ele>452.0</ele><time>2026-04-30T12:50:42.999Z</time></trkpt><trkpt lat="37.89256175681391" lon="13.63226166826187"><ele>449.49999999999994</ele><time>2026-04-30T12:50:44.999Z</time></trkpt><trkpt lat="37.892508213875935" lon="13.632171519763721"><ele>447.0</ele><time>2026-04-30T12:50:46.999Z</time></trkpt><trkpt lat="37.89248821406007" lon="13.632074911689381"><ele>444.5</ele><time>2026-04-30T12:50:48.999Z</time></trkpt><trkpt lat="37.89253531285134" lon="13.631989601841504"><ele>442.0</ele><time>2026-04-30T12:50:52.999Z</time></trkpt><trkpt lat="37.892612807530035" lon="13.631962561070088"><ele>439.49999999999994</ele><time>2026-04-30T12:50:55.999Z</time></trkpt><trkpt lat="37.89270917822608" lon="13.631969412567326"><ele>437.0</ele><time>2026-04-30T12:50:58.999Z</time></trkpt><trkpt lat="37.89278561325842" lon="13.631956423336323"><ele>436.99999999999994</ele><time>2026-04-30T12:50:59.999Z</time></trkpt><trkpt lat="37.89285364272254" lon="13.631898583990438"><ele>437.0</ele><time>2026-04-30T12:51:01.999Z</time></trkpt><trkpt lat="37.892906924284844" lon="13.63184738445237"><ele>437.0</ele><time>2026-04-30T12:51:03.999Z</time></trkpt><trkpt lat="37.892996388896044" lon="13.631824277542668"><ele>437.0</ele><time>2026-04-30T12:51:07Z</time></trkpt><trkpt lat="37.893067431788026" lon="13.6318373575655"><ele>436.99999999999994</ele><time>2026-04-30T12:51:10Z</time></trkpt><trkpt lat="37.893127378225785" lon="13.631893122010158"><ele>437.0</ele><time>2026-04-30T12:51:12Z</time></trkpt><trkpt lat="37.893195022387225" lon="13.631954411597459"><ele>437.40000000000003</ele><time>2026-04-30T12:51:14Z</time></trkpt><trkpt lat="37.893266902847785" lon="13.632018438705176"><ele>437.80000000000007</ele><time>2026-04-30T12:51:16Z</time></trkpt><trkpt lat="37.89333037459735" lon="13.632065695589803"><ele>438.2</ele><time>2026-04-30T12:51:18Z</time></trkpt><trkpt lat="37.89343094657377" lon="13.63214041074068"><ele>438.6</ele><time>2026-04-30T12:51:20Z</time></trkpt><trkpt lat="37.89349070652946" lon="13.632173472198616"><ele>439.0</ele><time>2026-04-30T12:51:21Z</time></trkpt><trkpt lat="37.89358482095384" lon="13.632258822667595"><ele>439.00000000000006</ele><time>2026-04-30T12:51:23Z</time></trkpt><trkpt lat="37.89363396136317" lon="13.632336884462921"><ele>439.0</ele><time>2026-04-30T12:51:24Z</time></trkpt><trkpt lat="37.89369545885302" lon="13.63242862208488"><ele>439.0</ele><time>2026-04-30T12:51:25Z</time></trkpt><trkpt lat="37.89375762282281" lon="13.632511115636305"><ele>439.0</ele><time>2026-04-30T12:51:26Z</time></trkpt><trkpt lat="37.8938068221039" lon="13.632572220649525"><ele>439.00000000000006</ele><time>2026-04-30T12:51:27Z</time></trkpt><trkpt lat="37.89385733898478" lon="13.63262068421181"><ele>439.0</ele><time>2026-04-30T12:51:28Z</time></trkpt><trkpt lat="37.89396644169887" lon="13.632610278715411"><ele>439.00000000000006</ele><time>2026-04-30T12:51:30Z</time></trkpt><trkpt lat="37.8940275391117" lon="13.632559075450711"><ele>439.0</ele><time>2026-04-30T12:51:31Z</time></trkpt><trkpt lat="37.89409161440285" lon="13.632499590952067"><ele>439.0</ele><time>2026-04-30T12:51:32Z</time></trkpt><trkpt lat="37.8941470123713" lon="13.632450972660815"><ele>439.0</ele><time>2026-04-30T12:51:33Z</time></trkpt><trkpt lat="37.89424059932102" lon="13.632376768447214"><ele>439.00000000000006</ele><time>2026-04-30T12:51:35Z</time></trkpt><trkpt lat="37.89429320952787" lon="13.632332116188005"><ele>439.0</ele><time>2026-04-30T12:51:36Z</time></trkpt><trkpt lat="37.894365981784475" lon="13.63229752783961"><ele>439.83333333333337</ele><time>2026-04-30T12:51:37Z</time></trkpt><trkpt lat="37.89446321486466" lon="13.632254013045712"><ele>440.6666666666667</ele><time>2026-04-30T12:51:38Z</time></trkpt><trkpt lat="37.89455165479619" lon="13.632216575626817"><ele>441.5</ele><time>2026-04-30T12:51:39Z</time></trkpt><trkpt lat="37.8946326810414" lon="13.632191608958754"><ele>442.33333333333337</ele><time>2026-04-30T12:51:40Z</time></trkpt><trkpt lat="37.894710108374014" lon="13.632188491653158"><ele>443.1666666666667</ele><time>2026-04-30T12:51:41Z</time></trkpt><trkpt lat="37.89479713364986" lon="13.63220180887816"><ele>444.0</ele><time>2026-04-30T12:51:42Z</time></trkpt><trkpt lat="37.89489765440619" lon="13.632223481800995"><ele>444.0</ele><time>2026-04-30T12:51:43Z</time></trkpt><trkpt lat="37.89500917848643" lon="13.632236979840846"><ele>444.0</ele><time>2026-04-30T12:51:44Z</time></trkpt><trkpt lat="37.89512212528969" lon="13.632233750585499"><ele>444.0</ele><time>2026-04-30T12:51:45Z</time></trkpt><trkpt lat="37.89524377395608" lon="13.632222314998904"><ele>444.0</ele><time>2026-04-30T12:51:46Z</time></trkpt><trkpt lat="37.8953471669879" lon="13.632209373477988"><ele>444.8333333333333</ele><time>2026-04-30T12:51:47Z</time></trkpt><trkpt lat="37.89543375425573" lon="13.632195878686447"><ele>445.66666666666663</ele><time>2026-04-30T12:51:48Z</time></trkpt><trkpt lat="37.89550250206449" lon="13.632205687131258"><ele>446.5</ele><time>2026-04-30T12:51:49Z</time></trkpt><trkpt lat="37.895589069077026" lon="13.632279939488324"><ele>447.3333333333333</ele><time>2026-04-30T12:51:51Z</time></trkpt><trkpt lat="37.89562205044562" lon="13.632349477449846"><ele>448.16666666666663</ele><time>2026-04-30T12:51:52Z</time></trkpt><trkpt lat="37.89566701685075" lon="13.632434051890348"><ele>449.0</ele><time>2026-04-30T12:51:53Z</time></trkpt><trkpt lat="37.895715895231874" lon="13.632511364577951"><ele>448.99999999999994</ele><time>2026-04-30T12:51:54Z</time></trkpt><trkpt lat="37.89578868474606" lon="13.632565681404868"><ele>449.0</ele><time>2026-04-30T12:51:55Z</time></trkpt><trkpt lat="37.89587643524071" lon="13.632596571510652"><ele>449.0</ele><time>2026-04-30T12:51:56Z</time></trkpt><trkpt lat="37.89595452053979" lon="13.632583685384104"><ele>449.0</ele><time>2026-04-30T12:51:57Z</time></trkpt><trkpt lat="37.89603546717698" lon="13.632550539872398"><ele>448.99999999999994</ele><time>2026-04-30T12:51:58Z</time></trkpt><trkpt lat="37.89611193223998" lon="13.632518525278408"><ele>449.0</ele><time>2026-04-30T12:51:59Z</time></trkpt><trkpt lat="37.89618669224006" lon="13.632503808732036"><ele>450.66666666666663</ele><time>2026-04-30T12:52:00Z</time></trkpt><trkpt lat="37.89625623136438" lon="13.632493731035883"><ele>452.3333333333333</ele><time>2026-04-30T12:52:01Z</time></trkpt><trkpt lat="37.89632032688531" lon="13.632476074694765"><ele>454.0</ele><time>2026-04-30T12:52:02Z</time></trkpt><trkpt lat="37.89638248771332" lon="13.632435511788506"><ele>455.66666666666663</ele><time>2026-04-30T12:52:02.999Z</time></trkpt><trkpt lat="37.89644108078509" lon="13.632378800334644"><ele>457.3333333333333</ele><time>2026-04-30T12:52:03.999Z</time></trkpt><trkpt lat="37.89650849934568" lon="13.632306277454013"><ele>459.0</ele><time>2026-04-30T12:52:04.999Z</time></trkpt><trkpt lat="37.89658506063999" lon="13.632220549191038"><ele>459.0</ele><time>2026-04-30T12:52:05.999Z</time></trkpt><trkpt lat="37.89664864701188" lon="13.632130465370984"><ele>459.0</ele><time>2026-04-30T12:52:06.999Z</time></trkpt><trkpt lat="37.896713589039656" lon="13.632062716203908"><ele>459.0</ele><time>2026-04-30T12:52:07.999Z</time></trkpt><trkpt lat="37.896780510619365" lon="13.63202576609001"><ele>459.0</ele><time>2026-04-30T12:52:08.999Z</time></trkpt><trkpt lat="37.89685313616715" lon="13.63200474225333"><ele>459.0</ele><time>2026-04-30T12:52:09.999Z</time></trkpt><trkpt lat="37.89691627379727" lon="13.631975586841158"><ele>459.0</ele><time>2026-04-30T12:52:10.999Z</time></trkpt><trkpt lat="37.897030921026015" lon="13.631931552905696"><ele>455.6</ele><time>2026-04-30T12:52:12.999Z</time></trkpt><trkpt lat="37.897099867945144" lon="13.631901294628907"><ele>452.2</ele><time>2026-04-30T12:52:13.999Z</time></trkpt><trkpt lat="37.897160688645236" lon="13.631873510148326"><ele>448.80000000000007</ele><time>2026-04-30T12:52:14.999Z</time></trkpt><trkpt lat="37.89726047185214" lon="13.631815221720432"><ele>445.40000000000003</ele><time>2026-04-30T12:52:16.999Z</time></trkpt><trkpt lat="37.89736946561533" lon="13.631747326084739"><ele>442.0</ele><time>2026-04-30T12:52:18.999Z</time></trkpt><trkpt lat="37.89748040533788" lon="13.631683671709919"><ele>441.33333333333337</ele><time>2026-04-30T12:52:20.999Z</time></trkpt><trkpt lat="37.8975861728932" lon="13.631656283638442"><ele>440.6666666666667</ele><time>2026-04-30T12:52:22.999Z</time></trkpt><trkpt lat="37.89770311459133" lon="13.631668548188737"><ele>440.0</ele><time>2026-04-30T12:52:24.999Z</time></trkpt><trkpt lat="37.89777135822036" lon="13.631680690941067"><ele>439.33333333333337</ele><time>2026-04-30T12:52:25.999Z</time></trkpt><trkpt lat="37.89784451906499" lon="13.631699622662262"><ele>438.6666666666667</ele><time>2026-04-30T12:52:26.999Z</time></trkpt><trkpt lat="37.89792311211805" lon="13.631702444342682"><ele>438.0</ele><time>2026-04-30T12:52:27.999Z</time></trkpt><trkpt lat="37.89800706796129" lon="13.631682186586891"><ele>438.0</ele><time>2026-04-30T12:52:28.999Z</time></trkpt><trkpt lat="37.89809266389957" lon="13.631653961255116"><ele>438.0</ele><time>2026-04-30T12:52:29.999Z</time></trkpt><trkpt lat="37.89817483783568" lon="13.63161739754541"><ele>438.0</ele><time>2026-04-30T12:52:30.999Z</time></trkpt><trkpt lat="37.89825407342813" lon="13.631570899296696"><ele>438.0</ele><time>2026-04-30T12:52:31.999Z</time></trkpt><trkpt lat="37.8983308441044" lon="13.631540599614173"><ele>438.0</ele><time>2026-04-30T12:52:32.999Z</time></trkpt><trkpt lat="37.89841306578884" lon="13.631529566864174"><ele>438.0</ele><time>2026-04-30T12:52:33.999Z</time></trkpt><trkpt lat="37.898501887334966" lon="13.631508715689689"><ele>439.1666666666667</ele><time>2026-04-30T12:52:34.999Z</time></trkpt><trkpt lat="37.89856996549258" lon="13.63148242136792"><ele>440.33333333333337</ele><time>2026-04-30T12:52:35.999Z</time></trkpt><trkpt lat="37.89864560387346" lon="13.631455660538629"><ele>441.5</ele><time>2026-04-30T12:52:36.999Z</time></trkpt><trkpt lat="37.89871982533585" lon="13.631434532127813"><ele>442.6666666666667</ele><time>2026-04-30T12:52:37.999Z</time></trkpt><trkpt lat="37.89879759860216" lon="13.63142927230638"><ele>443.83333333333337</ele><time>2026-04-30T12:52:38.999Z</time></trkpt><trkpt lat="37.89887969749996" lon="13.631425044702137"><ele>445.0</ele><time>2026-04-30T12:52:39.999Z</time></trkpt><trkpt lat="37.89896882727097" lon="13.631409075774254"><ele>445.0</ele><time>2026-04-30T12:52:40.999Z</time></trkpt><trkpt lat="37.89904945908983" lon="13.631374911607859"><ele>445.0</ele><time>2026-04-30T12:52:41.999Z</time></trkpt><trkpt lat="37.89911982043264" lon="13.631340024658249"><ele>445.0</ele><time>2026-04-30T12:52:42.999Z</time></trkpt><trkpt lat="37.899189105779115" lon="13.631319537637573"><ele>445.0</ele><time>2026-04-30T12:52:43.999Z</time></trkpt><trkpt lat="37.899260454886594" lon="13.63131003576819"><ele>445.0</ele><time>2026-04-30T12:52:44.999Z</time></trkpt><trkpt lat="37.89933002991012" lon="13.631298802757962"><ele>445.0</ele><time>2026-04-30T12:52:45.999Z</time></trkpt><trkpt lat="37.89940041741261" lon="13.631286786523788"><ele>445.0</ele><time>2026-04-30T12:52:46.999Z</time></trkpt><trkpt lat="37.89947264192611" lon="13.631269699332986"><ele>443.6666666666667</ele><time>2026-04-30T12:52:47.999Z</time></trkpt><trkpt lat="37.899545288534654" lon="13.631248482160162"><ele>442.33333333333337</ele><time>2026-04-30T12:52:48.999Z</time></trkpt><trkpt lat="37.89961945775897" lon="13.631226334423376"><ele>441.0</ele><time>2026-04-30T12:52:49.999Z</time></trkpt><trkpt lat="37.899689289403" lon="13.631199669230188"><ele>439.66666666666663</ele><time>2026-04-30T12:52:50.999Z</time></trkpt><trkpt lat="37.89976516176982" lon="13.631175393657164"><ele>438.3333333333333</ele><time>2026-04-30T12:52:51.999Z</time></trkpt><trkpt lat="37.89984513828311" lon="13.631160396465852"><ele>437.0</ele><time>2026-04-30T12:52:52.999Z</time></trkpt><trkpt lat="37.89993322753316" lon="13.631153555640966"><ele>436.99999999999994</ele><time>2026-04-30T12:52:53.999Z</time></trkpt><trkpt lat="37.900012023768" lon="13.631142657870523"><ele>437.0</ele><time>2026-04-30T12:52:54.999Z</time></trkpt><trkpt lat="37.90008876664967" lon="13.631141603411512"><ele>437.0</ele><time>2026-04-30T12:52:55.999Z</time></trkpt><trkpt lat="37.90016254451152" lon="13.631159245619799"><ele>437.0</ele><time>2026-04-30T12:52:56.999Z</time></trkpt><trkpt lat="37.90024204193612" lon="13.63118349915707"><ele>436.99999999999994</ele><time>2026-04-30T12:52:57.999Z</time></trkpt><trkpt lat="37.900329674700586" lon="13.631208856759239"><ele>437.0</ele><time>2026-04-30T12:52:58.999Z</time></trkpt><trkpt lat="37.90041521885212" lon="13.631231743185483"><ele>434.3333333333333</ele><time>2026-04-30T12:52:59.999Z</time></trkpt><trkpt lat="37.90049392754415" lon="13.631251189315753"><ele>431.66666666666663</ele><time>2026-04-30T12:53:00.999Z</time></trkpt><trkpt lat="37.90057406037245" lon="13.631266085011953"><ele>429.0</ele><time>2026-04-30T12:53:01.999Z</time></trkpt><trkpt lat="37.90065737864506" lon="13.631280818697629"><ele>426.33333333333337</ele><time>2026-04-30T12:53:02.999Z</time></trkpt><trkpt lat="37.90074124485742" lon="13.631292982306551"><ele>423.6666666666667</ele><time>2026-04-30T12:53:03.999Z</time></trkpt><trkpt lat="37.90082695134959" lon="13.631313874174818"><ele>421.0</ele><time>2026-04-30T12:53:04.999Z</time></trkpt><trkpt lat="37.90089973458628" lon="13.631336581053555"><ele>419.33333333333337</ele><time>2026-04-30T12:53:05.999Z</time></trkpt><trkpt lat="37.900999653243936" lon="13.631344711315643"><ele>417.6666666666667</ele><time>2026-04-30T12:53:07.999Z</time></trkpt><trkpt lat="37.90100787217814" lon="13.631231559822613"><ele>416.0</ele><time>2026-04-30T12:53:14Z</time></trkpt><trkpt lat="37.90099238297691" lon="13.631134282126377"><ele>414.33333333333337</ele><time>2026-04-30T12:53:17Z</time></trkpt><trkpt lat="37.90100288305582" lon="13.63103775251611"><ele>412.6666666666667</ele><time>2026-04-30T12:53:19Z</time></trkpt><trkpt lat="37.90100256640029" lon="13.630942033641313"><ele>411.0</ele><time>2026-04-30T12:53:23Z</time></trkpt><trkpt lat="37.900994074993626" lon="13.630844806845227"><ele>406.8333333333333</ele><time>2026-04-30T12:53:27Z</time></trkpt><trkpt lat="37.900986578006524" lon="13.63075412981707"><ele>402.66666666666663</ele><time>2026-04-30T12:53:29Z</time></trkpt><trkpt lat="37.90098404531098" lon="13.630596838220775"><ele>398.5</ele><time>2026-04-30T12:53:31Z</time></trkpt><trkpt lat="37.9009942995145" lon="13.630511128344175"><ele>394.3333333333333</ele><time>2026-04-30T12:53:32Z</time></trkpt><trkpt lat="37.90100946444289" lon="13.63040335828937"><ele>390.16666666666663</ele><time>2026-04-30T12:53:33Z</time></trkpt><trkpt lat="37.901027854856494" lon="13.630284457639581"><ele>386.0</ele><time>2026-04-30T12:53:34Z</time></trkpt><trkpt lat="37.901046360189035" lon="13.630157446205796"><ele>382.0</ele><time>2026-04-30T12:53:35Z</time></trkpt><trkpt lat="37.90105201236014" lon="13.630024372916925"><ele>378.0</ele><time>2026-04-30T12:53:36Z</time></trkpt><trkpt lat="37.901041553777176" lon="13.629875884920088"><ele>374.0</ele><time>2026-04-30T12:53:37Z</time></trkpt><trkpt lat="37.901044362097295" lon="13.629735653723873"><ele>370.0</ele><time>2026-04-30T12:53:38Z</time></trkpt><trkpt lat="37.901068941174664" lon="13.629586136806104"><ele>369.0</ele><time>2026-04-30T12:53:39Z</time></trkpt><trkpt lat="37.90109054138116" lon="13.629435633281282"><ele>368.0</ele><time>2026-04-30T12:53:40Z</time></trkpt><trkpt lat="37.90111541941282" lon="13.629287563910237"><ele>367.0</ele><time>2026-04-30T12:53:41Z</time></trkpt><trkpt lat="37.90113956493483" lon="13.629153738914177"><ele>366.0</ele><time>2026-04-30T12:53:42Z</time></trkpt><trkpt lat="37.90116138534452" lon="13.629039435849181"><ele>365.0</ele><time>2026-04-30T12:53:42.999Z</time></trkpt><trkpt lat="37.90118011155142" lon="13.628930595620961"><ele>365.0</ele><time>2026-04-30T12:53:43.999Z</time></trkpt><trkpt lat="37.9012004578301" lon="13.628826136882946"><ele>365.0</ele><time>2026-04-30T12:53:44.999Z</time></trkpt><trkpt lat="37.901233746521804" lon="13.628719658973704"><ele>365.0</ele><time>2026-04-30T12:53:45.999Z</time></trkpt><trkpt lat="37.90128103871218" lon="13.628597058725191"><ele>365.0</ele><time>2026-04-30T12:53:46.999Z</time></trkpt><trkpt lat="37.90132345738365" lon="13.628471880185405"><ele>365.0</ele><time>2026-04-30T12:53:47.999Z</time></trkpt><trkpt lat="37.901363309191105" lon="13.628343988489698"><ele>364.4</ele><time>2026-04-30T12:53:48.999Z</time></trkpt><trkpt lat="37.90140632482494" lon="13.62821453158753"><ele>363.8</ele><time>2026-04-30T12:53:49.999Z</time></trkpt><trkpt lat="37.90144514015198" lon="13.628091177421059"><ele>363.20000000000005</ele><time>2026-04-30T12:53:50.999Z</time></trkpt><trkpt lat="37.9014886139396" lon="13.627964900290397"><ele>362.6</ele><time>2026-04-30T12:53:51.999Z</time></trkpt><trkpt lat="37.90154406205735" lon="13.627826834349008"><ele>362.0</ele><time>2026-04-30T12:53:52.999Z</time></trkpt><trkpt lat="37.901601296076485" lon="13.62768687209349"><ele>361.20000000000005</ele><time>2026-04-30T12:53:53.999Z</time></trkpt><trkpt lat="37.90164599789378" lon="13.62753154419653"><ele>360.4</ele><time>2026-04-30T12:53:54.999Z</time></trkpt><trkpt lat="37.90168629897448" lon="13.627402993957762"><ele>359.6</ele><time>2026-04-30T12:53:55.999Z</time></trkpt><trkpt lat="37.90172385591076" lon="13.627293686006428"><ele>358.79999999999995</ele><time>2026-04-30T12:53:56.999Z</time></trkpt><trkpt lat="37.90172964026761" lon="13.627189582690157"><ele>358.0</ele><time>2026-04-30T12:53:57.999Z</time></trkpt><trkpt lat="37.901718321551364" lon="13.62706452429595"><ele>356.75</ele><time>2026-04-30T12:53:58.999Z</time></trkpt><trkpt lat="37.901701107849725" lon="13.626892468865847"><ele>355.5</ele><time>2026-04-30T12:53:59.999Z</time></trkpt><trkpt lat="37.901694365777935" lon="13.626725765970857"><ele>354.25</ele><time>2026-04-30T12:54:00.999Z</time></trkpt><trkpt lat="37.90169741124858" lon="13.626582605304337"><ele>353.0</ele><time>2026-04-30T12:54:01.999Z</time></trkpt><trkpt lat="37.90171274274315" lon="13.626466903976697"><ele>353.0</ele><time>2026-04-30T12:54:02.999Z</time></trkpt><trkpt lat="37.901731929831065" lon="13.626315742686913"><ele>353.0</ele><time>2026-04-30T12:54:03.999Z</time></trkpt><trkpt lat="37.90173794645562" lon="13.626166012667714"><ele>353.0</ele><time>2026-04-30T12:54:04.999Z</time></trkpt><trkpt lat="37.90175223898241" lon="13.626019849010621"><ele>353.0</ele><time>2026-04-30T12:54:05.999Z</time></trkpt><trkpt lat="37.90176419401143" lon="13.625873468228304"><ele>350.0</ele><time>2026-04-30T12:54:06.999Z</time></trkpt><trkpt lat="37.90176894067579" lon="13.625730483651441"><ele>347.0</ele><time>2026-04-30T12:54:07.999Z</time></trkpt><trkpt lat="37.90178423931532" lon="13.625597187558162"><ele>344.0</ele><time>2026-04-30T12:54:08.999Z</time></trkpt><trkpt lat="37.90180433337274" lon="13.625464956531033"><ele>341.0</ele><time>2026-04-30T12:54:09.999Z</time></trkpt><trkpt lat="37.901815355769195" lon="13.625335093014863"><ele>338.0</ele><time>2026-04-30T12:54:10.999Z</time></trkpt><trkpt lat="37.901839848509574" lon="13.625244330481626"><ele>338.0</ele><time>2026-04-30T12:54:11.999Z</time></trkpt><trkpt lat="37.901863148878554" lon="13.625157489189352"><ele>338.0</ele><time>2026-04-30T12:54:12.999Z</time></trkpt><trkpt lat="37.90188343385843" lon="13.62505866739777"><ele>338.0</ele><time>2026-04-30T12:54:13.999Z</time></trkpt><trkpt lat="37.90189793470661" lon="13.624931796709731"><ele>338.0</ele><time>2026-04-30T12:54:14.999Z</time></trkpt><trkpt lat="37.90193904790685" lon="13.624841086410532"><ele>338.0</ele><time>2026-04-30T12:54:15.999Z</time></trkpt><trkpt lat="37.90198348403201" lon="13.624742324602057"><ele>338.0</ele><time>2026-04-30T12:54:16.999Z</time></trkpt><trkpt lat="37.90199510761015" lon="13.62462741970422"><ele>338.0</ele><time>2026-04-30T12:54:17.999Z</time></trkpt><trkpt lat="37.902005265463266" lon="13.624527064663262"><ele>338.0</ele><time>2026-04-30T12:54:18.999Z</time></trkpt><trkpt lat="37.90203663294689" lon="13.624443279613766"><ele>338.0</ele><time>2026-04-30T12:54:19.999Z</time></trkpt><trkpt lat="37.90207402953184" lon="13.62437085579272"><ele>338.0</ele><time>2026-04-30T12:54:20.999Z</time></trkpt><trkpt lat="37.90211612113695" lon="13.624242987908561"><ele>338.0</ele><time>2026-04-30T12:54:22.999Z</time></trkpt><trkpt lat="37.90214700955116" lon="13.624083727397265"><ele>338.6666666666667</ele><time>2026-04-30T12:54:24.999Z</time></trkpt><trkpt lat="37.90216843596524" lon="13.623987336251991"><ele>339.33333333333337</ele><time>2026-04-30T12:54:25.999Z</time></trkpt><trkpt lat="37.90218699728625" lon="13.623898333975163"><ele>340.0</ele><time>2026-04-30T12:54:26.999Z</time></trkpt><trkpt lat="37.902225885015326" lon="13.62383372726672"><ele>340.6666666666667</ele><time>2026-04-30T12:54:27.999Z</time></trkpt><trkpt lat="37.90228938263159" lon="13.623722789128536"><ele>341.3333333333333</ele><time>2026-04-30T12:54:29.999Z</time></trkpt><trkpt lat="37.90231528098699" lon="13.623632394809613"><ele>342.0</ele><time>2026-04-30T12:54:31.999Z</time></trkpt><trkpt lat="37.90233278015585" lon="13.623506922676874"><ele>342.20000000000005</ele><time>2026-04-30T12:54:33.999Z</time></trkpt><trkpt lat="37.902340487666464" lon="13.623399047639188"><ele>342.4</ele><time>2026-04-30T12:54:35.999Z</time></trkpt><trkpt lat="37.90234700594508" lon="13.62331931120898"><ele>342.6</ele><time>2026-04-30T12:54:37.999Z</time></trkpt><trkpt lat="37.90234499293584" lon="13.6231955812401"><ele>342.79999999999995</ele><time>2026-04-30T12:54:39.999Z</time></trkpt><trkpt lat="37.902338131676174" lon="13.62306507645473"><ele>343.0</ele><time>2026-04-30T12:54:41.999Z</time></trkpt><trkpt lat="37.90235052191393" lon="13.62293571394226"><ele>343.0</ele><time>2026-04-30T12:54:43.999Z</time></trkpt><trkpt lat="37.90236847311877" lon="13.622822324435868"><ele>343.0</ele><time>2026-04-30T12:54:45.999Z</time></trkpt><trkpt lat="37.90240248113064" lon="13.622713372244899"><ele>343.0</ele><time>2026-04-30T12:54:47.999Z</time></trkpt><trkpt lat="37.90244013887929" lon="13.622617326654197"><ele>343.0</ele><time>2026-04-30T12:54:49.999Z</time></trkpt><trkpt lat="37.902486382325925" lon="13.62251538110861"><ele>343.0</ele><time>2026-04-30T12:54:51.999Z</time></trkpt><trkpt lat="37.90253479174477" lon="13.622400651654784"><ele>341.4</ele><time>2026-04-30T12:54:53.999Z</time></trkpt><trkpt lat="37.902559663453005" lon="13.622270927572634"><ele>339.79999999999995</ele><time>2026-04-30T12:54:55.999Z</time></trkpt><trkpt lat="37.902564405019625" lon="13.622141244273307"><ele>338.2</ele><time>2026-04-30T12:54:57.999Z</time></trkpt><trkpt lat="37.902585906703884" lon="13.621991378093401"><ele>336.6</ele><time>2026-04-30T12:54:59.999Z</time></trkpt><trkpt lat="37.90259704972126" lon="13.621912128307441"><ele>335.0</ele><time>2026-04-30T12:55:00.999Z</time></trkpt><trkpt lat="37.902606990650106" lon="13.62182972733071"><ele>333.33333333333337</ele><time>2026-04-30T12:55:01.999Z</time></trkpt><trkpt lat="37.90261796629437" lon="13.621748035016045"><ele>331.6666666666667</ele><time>2026-04-30T12:55:02.999Z</time></trkpt><trkpt lat="37.90263131825819" lon="13.621666025062634"><ele>330.0</ele><time>2026-04-30T12:55:03.999Z</time></trkpt><trkpt lat="37.90265127637521" lon="13.62158360502022"><ele>328.3333333333333</ele><time>2026-04-30T12:55:04.999Z</time></trkpt><trkpt lat="37.902668595876044" lon="13.621500959183896"><ele>326.66666666666663</ele><time>2026-04-30T12:55:05.999Z</time></trkpt><trkpt lat="37.9027047693691" lon="13.62135774645435"><ele>325.0</ele><time>2026-04-30T12:55:07.999Z</time></trkpt><trkpt lat="37.9027388228931" lon="13.62123670906147"><ele>324.5</ele><time>2026-04-30T12:55:09.999Z</time></trkpt><trkpt lat="37.902771213177346" lon="13.621078823691084"><ele>324.0</ele><time>2026-04-30T12:55:11.999Z</time></trkpt><trkpt lat="37.902790795555966" lon="13.621002633379582"><ele>323.5</ele><time>2026-04-30T12:55:12.999Z</time></trkpt><trkpt lat="37.90280228314338" lon="13.62086637193705"><ele>323.0</ele><time>2026-04-30T12:55:14.999Z</time></trkpt><trkpt lat="37.90280527735118" lon="13.620783762754586"><ele>322.5</ele><time>2026-04-30T12:55:16Z</time></trkpt><trkpt lat="37.90280634059456" lon="13.620699150358764"><ele>322.0</ele><time>2026-04-30T12:55:17Z</time></trkpt><trkpt lat="37.90282579664744" lon="13.620614963106922"><ele>322.0</ele><time>2026-04-30T12:55:18Z</time></trkpt><trkpt lat="37.90285487891884" lon="13.620535321915902"><ele>322.0</ele><time>2026-04-30T12:55:19Z</time></trkpt><trkpt lat="37.90288725531879" lon="13.620454030636477"><ele>322.0</ele><time>2026-04-30T12:55:20Z</time></trkpt><trkpt lat="37.90291568485779" lon="13.620374898041774"><ele>322.0</ele><time>2026-04-30T12:55:21Z</time></trkpt><trkpt lat="37.90294290477268" lon="13.620288297739148"><ele>322.0</ele><time>2026-04-30T12:55:22Z</time></trkpt><trkpt lat="37.90295438270982" lon="13.620203613908547"><ele>322.0</ele><time>2026-04-30T12:55:23Z</time></trkpt><trkpt lat="37.90297316392197" lon="13.620117418617683"><ele>322.0</ele><time>2026-04-30T12:55:24Z</time></trkpt><trkpt lat="37.902996876173034" lon="13.62003226498513"><ele>320.6</ele><time>2026-04-30T12:55:25Z</time></trkpt><trkpt lat="37.90302941622012" lon="13.619895002381229"><ele>319.20000000000005</ele><time>2026-04-30T12:55:27Z</time></trkpt><trkpt lat="37.90305554336302" lon="13.61978115454641"><ele>317.8</ele><time>2026-04-30T12:55:29Z</time></trkpt><trkpt lat="37.90309167630504" lon="13.619665447947803"><ele>316.4</ele><time>2026-04-30T12:55:31Z</time></trkpt><trkpt lat="37.90314948832776" lon="13.619527071064043"><ele>315.0</ele><time>2026-04-30T12:55:33Z</time></trkpt><trkpt lat="37.9031824719284" lon="13.619450824634345"><ele>313.1666666666667</ele><time>2026-04-30T12:55:34Z</time></trkpt><trkpt lat="37.90321906405884" lon="13.61936985277431"><ele>311.3333333333333</ele><time>2026-04-30T12:55:35Z</time></trkpt><trkpt lat="37.90325687443659" lon="13.619294837759211"><ele>309.5</ele><time>2026-04-30T12:55:36Z</time></trkpt><trkpt lat="37.90332916058757" lon="13.619189488946047"><ele>307.66666666666663</ele><time>2026-04-30T12:55:38Z</time></trkpt><trkpt lat="37.903367141285294" lon="13.61912306454287"><ele>305.8333333333333</ele><time>2026-04-30T12:55:40Z</time></trkpt><trkpt lat="37.90342655603952" lon="13.61902912733798"><ele>304.0</ele><time>2026-04-30T12:55:42Z</time></trkpt><trkpt lat="37.90346122869679" lon="13.618957422275876"><ele>303.16666666666663</ele><time>2026-04-30T12:55:43Z</time></trkpt><trkpt lat="37.9034948965257" lon="13.61887487943446"><ele>302.3333333333333</ele><time>2026-04-30T12:55:44Z</time></trkpt><trkpt lat="37.903524271635625" lon="13.618787510769348"><ele>301.5</ele><time>2026-04-30T12:55:45Z</time></trkpt><trkpt lat="37.90352872483444" lon="13.61869252745079"><ele>300.6666666666667</ele><time>2026-04-30T12:55:46Z</time></trkpt><trkpt lat="37.90351738426736" lon="13.61859433282666"><ele>299.83333333333337</ele><time>2026-04-30T12:55:47Z</time></trkpt><trkpt lat="37.90349637554362" lon="13.61849931111516"><ele>299.0</ele><time>2026-04-30T12:55:48Z</time></trkpt><trkpt lat="37.90347648740435" lon="13.618402663110908"><ele>298.83333333333337</ele><time>2026-04-30T12:55:49Z</time></trkpt><trkpt lat="37.90345463649366" lon="13.618308028436735"><ele>298.6666666666667</ele><time>2026-04-30T12:55:50Z</time></trkpt><trkpt lat="37.903437701503066" lon="13.618214669536933"><ele>298.5</ele><time>2026-04-30T12:55:51Z</time></trkpt><trkpt lat="37.903432380100114" lon="13.618117575282842"><ele>298.3333333333333</ele><time>2026-04-30T12:55:52Z</time></trkpt><trkpt lat="37.903434818379935" lon="13.61801922176506"><ele>298.16666666666663</ele><time>2026-04-30T12:55:53Z</time></trkpt><trkpt lat="37.903426571217715" lon="13.617922536918892"><ele>298.0</ele><time>2026-04-30T12:55:54Z</time></trkpt><trkpt lat="37.90340074504418" lon="13.61783078499423"><ele>296.2</ele><time>2026-04-30T12:55:55Z</time></trkpt><trkpt lat="37.90336320730508" lon="13.617743121015208"><ele>294.4</ele><time>2026-04-30T12:55:56Z</time></trkpt><trkpt lat="37.90331400007546" lon="13.617668516884153"><ele>292.59999999999997</ele><time>2026-04-30T12:55:57Z</time></trkpt><trkpt lat="37.90327252109784" lon="13.617591303580006"><ele>290.8</ele><time>2026-04-30T12:55:58Z</time></trkpt><trkpt lat="37.903211807508825" lon="13.617455912976057"><ele>289.0</ele><time>2026-04-30T12:56:00Z</time></trkpt><trkpt lat="37.90316683341719" lon="13.617319160576692"><ele>289.0</ele><time>2026-04-30T12:56:02Z</time></trkpt><trkpt lat="37.903137524223936" lon="13.617199720046004"><ele>289.0</ele><time>2026-04-30T12:56:04Z</time></trkpt><trkpt lat="37.90314789973332" lon="13.617079092649048"><ele>289.0</ele><time>2026-04-30T12:56:06Z</time></trkpt><trkpt lat="37.903110486166625" lon="13.616949221214412"><ele>289.0</ele><time>2026-04-30T12:56:08Z</time></trkpt><trkpt lat="37.90304143888218" lon="13.616863991376539"><ele>289.0</ele><time>2026-04-30T12:56:10Z</time></trkpt><trkpt lat="37.903000906572764" lon="13.616789125908934"><ele>289.0</ele><time>2026-04-30T12:56:12Z</time></trkpt><trkpt lat="37.902978150260644" lon="13.616708839961499"><ele>289.0</ele><time>2026-04-30T12:56:14Z</time></trkpt><trkpt lat="37.90292073894415" lon="13.616645476643244"><ele>289.0</ele><time>2026-04-30T12:56:16Z</time></trkpt><trkpt lat="37.902844764541726" lon="13.616580586368256"><ele>289.0</ele><time>2026-04-30T12:56:17.999Z</time></trkpt><trkpt lat="37.90277092472443" lon="13.616486706109109"><ele>289.0</ele><time>2026-04-30T12:56:19.999Z</time></trkpt><trkpt lat="37.902686475173205" lon="13.616433237810922"><ele>289.0</ele><time>2026-04-30T12:56:21.999Z</time></trkpt><trkpt lat="37.902588233251635" lon="13.61639226167221"><ele>284.4</ele><time>2026-04-30T12:56:23.999Z</time></trkpt><trkpt lat="37.90249231289466" lon="13.616350302683042"><ele>279.79999999999995</ele><time>2026-04-30T12:56:25.999Z</time></trkpt><trkpt lat="37.902412617457415" lon="13.616309201771548"><ele>275.20000000000005</ele><time>2026-04-30T12:56:27.999Z</time></trkpt><trkpt lat="37.902315996921324" lon="13.616266176491132"><ele>270.6</ele><time>2026-04-30T12:56:29.999Z</time></trkpt><trkpt lat="37.90221461220014" lon="13.616232681510212"><ele>266.0</ele><time>2026-04-30T12:56:31.999Z</time></trkpt><trkpt lat="37.90212452828822" lon="13.616167683180809"><ele>263.1666666666667</ele><time>2026-04-30T12:56:33.999Z</time></trkpt><trkpt lat="37.902076255623534" lon="13.616113851377413"><ele>260.33333333333337</ele><time>2026-04-30T12:56:34.999Z</time></trkpt><trkpt lat="37.902024919097045" lon="13.61605843849806"><ele>257.5</ele><time>2026-04-30T12:56:35.999Z</time></trkpt><trkpt lat="37.901949276624265" lon="13.615957619968789"><ele>254.66666666666669</ele><time>2026-04-30T12:56:37.999Z</time></trkpt><trkpt lat="37.90193171004178" lon="13.615858933996314"><ele>251.83333333333334</ele><time>2026-04-30T12:56:40.999Z</time></trkpt><trkpt lat="37.901901444655316" lon="13.615754960375291"><ele>249.0</ele><time>2026-04-30T12:56:42.999Z</time></trkpt><trkpt lat="37.9018894708903" lon="13.61566946136952"><ele>249.0</ele><time>2026-04-30T12:56:44.999Z</time></trkpt><trkpt lat="37.90187418606442" lon="13.615586771260986"><ele>248.99999999999997</ele><time>2026-04-30T12:56:46.999Z</time></trkpt><trkpt lat="37.901857516413" lon="13.615506539401556"><ele>249.0</ele><time>2026-04-30T12:56:48.999Z</time></trkpt><trkpt lat="37.90183885043911" lon="13.615423890657887"><ele>249.0</ele><time>2026-04-30T12:56:50.999Z</time></trkpt><trkpt lat="37.901825917607184" lon="13.615345489042149"><ele>248.99999999999997</ele><time>2026-04-30T12:56:52.999Z</time></trkpt><trkpt lat="37.90181134252981" lon="13.61524159599454"><ele>249.0</ele><time>2026-04-30T12:56:54.999Z</time></trkpt><trkpt lat="37.90180199954953" lon="13.61511583987252"><ele>249.0</ele><time>2026-04-30T12:56:57.999Z</time></trkpt><trkpt lat="37.901802257306606" lon="13.614972320081003"><ele>245.83333333333334</ele><time>2026-04-30T12:56:59.999Z</time></trkpt><trkpt lat="37.90180760204702" lon="13.614880600287426"><ele>242.66666666666669</ele><time>2026-04-30T12:57:00.999Z</time></trkpt><trkpt lat="37.90181501514912" lon="13.614771463708697"><ele>239.5</ele><time>2026-04-30T12:57:01.999Z</time></trkpt><trkpt lat="37.901821735258885" lon="13.61467171248944"><ele>236.33333333333334</ele><time>2026-04-30T12:57:02.999Z</time></trkpt><trkpt lat="37.90182697781695" lon="13.61457611020467"><ele>233.16666666666669</ele><time>2026-04-30T12:57:03.999Z</time></trkpt><trkpt lat="37.90182805744664" lon="13.614485282339862"><ele>230.0</ele><time>2026-04-30T12:57:04.999Z</time></trkpt><trkpt lat="37.901835367263494" lon="13.614396031176364"><ele>227.16666666666669</ele><time>2026-04-30T12:57:05.999Z</time></trkpt><trkpt lat="37.90185944969141" lon="13.61431735291506"><ele>224.33333333333334</ele><time>2026-04-30T12:57:06.999Z</time></trkpt><trkpt lat="37.90189526023232" lon="13.614227498154749"><ele>221.5</ele><time>2026-04-30T12:57:07.999Z</time></trkpt><trkpt lat="37.90192710564482" lon="13.614124271197493"><ele>218.66666666666669</ele><time>2026-04-30T12:57:08.999Z</time></trkpt><trkpt lat="37.90195572028027" lon="13.614023558954075"><ele>215.83333333333334</ele><time>2026-04-30T12:57:09.999Z</time></trkpt><trkpt lat="37.9019871554403" lon="13.613922060681853"><ele>213.0</ele><time>2026-04-30T12:57:10.999Z</time></trkpt><trkpt lat="37.902026176104535" lon="13.613815129665845"><ele>213.0</ele><time>2026-04-30T12:57:11.999Z</time></trkpt><trkpt lat="37.90206965413066" lon="13.61371698023423"><ele>213.0</ele><time>2026-04-30T12:57:12.999Z</time></trkpt><trkpt lat="37.90210544746683" lon="13.613621561309044"><ele>213.0</ele><time>2026-04-30T12:57:13.999Z</time></trkpt><trkpt lat="37.902127822011785" lon="13.61352735833508"><ele>213.0</ele><time>2026-04-30T12:57:14.999Z</time></trkpt><trkpt lat="37.902137084889496" lon="13.613416823218726"><ele>213.0</ele><time>2026-04-30T12:57:15.999Z</time></trkpt><trkpt lat="37.90214087621806" lon="13.613286642630875"><ele>213.0</ele><time>2026-04-30T12:57:16.999Z</time></trkpt><trkpt lat="37.90215547946422" lon="13.613167493151979"><ele>211.0</ele><time>2026-04-30T12:57:17.999Z</time></trkpt><trkpt lat="37.90217114899967" lon="13.613060205512607"><ele>209.0</ele><time>2026-04-30T12:57:18.999Z</time></trkpt><trkpt lat="37.90218954258965" lon="13.612965085766096"><ele>207.0</ele><time>2026-04-30T12:57:19.999Z</time></trkpt><trkpt lat="37.90220212443987" lon="13.61288567297349"><ele>205.0</ele><time>2026-04-30T12:57:20.999Z</time></trkpt><trkpt lat="37.90224334024019" lon="13.612743794877357"><ele>203.0</ele><time>2026-04-30T12:57:23Z</time></trkpt><trkpt lat="37.90229332366565" lon="13.61267985994967"><ele>201.0</ele><time>2026-04-30T12:57:24Z</time></trkpt><trkpt lat="37.902356965647364" lon="13.612633444099695"><ele>199.66666666666666</ele><time>2026-04-30T12:57:25Z</time></trkpt><trkpt lat="37.90242204719738" lon="13.612582267582972"><ele>198.33333333333331</ele><time>2026-04-30T12:57:26Z</time></trkpt><trkpt lat="37.90247015199297" lon="13.612522372436812"><ele>197.0</ele><time>2026-04-30T12:57:27Z</time></trkpt><trkpt lat="37.90250518942861" lon="13.612445775718982"><ele>195.66666666666666</ele><time>2026-04-30T12:57:28Z</time></trkpt><trkpt lat="37.90253608968379" lon="13.612354331575379"><ele>194.33333333333331</ele><time>2026-04-30T12:57:29Z</time></trkpt><trkpt lat="37.902551002071185" lon="13.612255479522416"><ele>193.0</ele><time>2026-04-30T12:57:30Z</time></trkpt><trkpt lat="37.902542106970905" lon="13.612151084861258"><ele>192.99999999999997</ele><time>2026-04-30T12:57:31Z</time></trkpt><trkpt lat="37.90251657089295" lon="13.612057634418782"><ele>193.0</ele><time>2026-04-30T12:57:32Z</time></trkpt><trkpt lat="37.902497237652305" lon="13.611940433183252"><ele>193.0</ele><time>2026-04-30T12:57:34Z</time></trkpt><trkpt lat="37.90255320820427" lon="13.611866804797781"><ele>193.0</ele><time>2026-04-30T12:57:37Z</time></trkpt><trkpt lat="37.90260401477486" lon="13.61193531896276"><ele>192.99999999999997</ele><time>2026-04-30T12:58:10Z</time></trkpt><trkpt lat="37.90269655858583" lon="13.612027313849236"><ele>193.0</ele><time>2026-04-30T12:58:12Z</time></trkpt><trkpt lat="37.902782047836276" lon="13.612080357087748"><ele>193.5</ele><time>2026-04-30T12:58:13Z</time></trkpt><trkpt lat="37.90288280210898" lon="13.612134488208355"><ele>194.0</ele><time>2026-04-30T12:58:14Z</time></trkpt><trkpt lat="37.902986592568496" lon="13.612173136216875"><ele>194.5</ele><time>2026-04-30T12:58:15Z</time></trkpt><trkpt lat="37.90311230855288" lon="13.612191869624112"><ele>195.0</ele><time>2026-04-30T12:58:16Z</time></trkpt><trkpt lat="37.90322447296181" lon="13.61219046030541"><ele>195.0</ele><time>2026-04-30T12:58:17Z</time></trkpt><trkpt lat="37.903342035362996" lon="13.612179818915953"><ele>195.0</ele><time>2026-04-30T12:58:18Z</time></trkpt><trkpt lat="37.90344577805291" lon="13.612169879115376"><ele>195.0</ele><time>2026-04-30T12:58:19Z</time></trkpt><trkpt lat="37.90355005920022" lon="13.612146914472751"><ele>195.0</ele><time>2026-04-30T12:58:20Z</time></trkpt><trkpt lat="37.90366914911811" lon="13.612100073879452"><ele>194.83333333333334</ele><time>2026-04-30T12:58:21Z</time></trkpt><trkpt lat="37.90377627385646" lon="13.612058628549939"><ele>194.66666666666669</ele><time>2026-04-30T12:58:21.999Z</time></trkpt><trkpt lat="37.9038526071131" lon="13.612026349034302"><ele>194.5</ele><time>2026-04-30T12:58:22.999Z</time></trkpt><trkpt lat="37.903917973604806" lon="13.611981537393651"><ele>194.33333333333334</ele><time>2026-04-30T12:58:23.999Z</time></trkpt><trkpt lat="37.903983448380686" lon="13.611918520877579"><ele>194.16666666666669</ele><time>2026-04-30T12:58:24.999Z</time></trkpt><trkpt lat="37.90404179708654" lon="13.61184662994779"><ele>194.0</ele><time>2026-04-30T12:58:25.999Z</time></trkpt><trkpt lat="37.90411101102078" lon="13.611748498302125"><ele>194.0</ele><time>2026-04-30T12:58:26.999Z</time></trkpt><trkpt lat="37.90418399559751" lon="13.611636876411982"><ele>194.0</ele><time>2026-04-30T12:58:27.999Z</time></trkpt><trkpt lat="37.904263821101786" lon="13.611523760636372"><ele>194.0</ele><time>2026-04-30T12:58:28.999Z</time></trkpt><trkpt lat="37.904361087042126" lon="13.611399258906884"><ele>194.0</ele><time>2026-04-30T12:58:29.999Z</time></trkpt><trkpt lat="37.904470509538925" lon="13.611269167075157"><ele>194.79999999999998</ele><time>2026-04-30T12:58:30.999Z</time></trkpt><trkpt lat="37.904572523842305" lon="13.611158770907284"><ele>195.6</ele><time>2026-04-30T12:58:31.999Z</time></trkpt><trkpt lat="37.904656308577124" lon="13.611064008361204"><ele>196.4</ele><time>2026-04-30T12:58:32.999Z</time></trkpt><trkpt lat="37.90471802942842" lon="13.610971794105483"><ele>197.2</ele><time>2026-04-30T12:58:33.999Z</time></trkpt><trkpt lat="37.9047793712995" lon="13.610883079618999"><ele>198.0</ele><time>2026-04-30T12:58:34.999Z</time></trkpt><trkpt lat="37.90484285786525" lon="13.610814615575944"><ele>198.0</ele><time>2026-04-30T12:58:35.999Z</time></trkpt><trkpt lat="37.904926492310125" lon="13.610778192688342"><ele>198.0</ele><time>2026-04-30T12:58:36.999Z</time></trkpt><trkpt lat="37.905017396142746" lon="13.610768863742893"><ele>198.0</ele><time>2026-04-30T12:58:37.999Z</time></trkpt><trkpt lat="37.90510648250626" lon="13.610754294108341"><ele>198.0</ele><time>2026-04-30T12:58:38.999Z</time></trkpt><trkpt lat="37.90517955900238" lon="13.610706776067257"><ele>198.0</ele><time>2026-04-30T12:58:39.999Z</time></trkpt><trkpt lat="37.90521716116564" lon="13.610612760995672"><ele>198.0</ele><time>2026-04-30T12:58:40.999Z</time></trkpt><trkpt lat="37.90526702744143" lon="13.610505094198215"><ele>200.4</ele><time>2026-04-30T12:58:41.999Z</time></trkpt><trkpt lat="37.905322608587056" lon="13.610440186209614"><ele>202.8</ele><time>2026-04-30T12:58:42.999Z</time></trkpt><trkpt lat="37.90538886465221" lon="13.610414360193477"><ele>205.2</ele><time>2026-04-30T12:58:43.999Z</time></trkpt><trkpt lat="37.90548112246019" lon="13.610428020619555"><ele>207.6</ele><time>2026-04-30T12:58:44.999Z</time></trkpt><trkpt lat="37.9056078663697" lon="13.610460646424443"><ele>210.0</ele><time>2026-04-30T12:58:45.999Z</time></trkpt><trkpt lat="37.90574796670908" lon="13.610499375704377"><ele>210.0</ele><time>2026-04-30T12:58:46.999Z</time></trkpt><trkpt lat="37.90587585128795" lon="13.61052578050007"><ele>210.0</ele><time>2026-04-30T12:58:47.999Z</time></trkpt><trkpt lat="37.90599188136584" lon="13.610534320893905"><ele>210.0</ele><time>2026-04-30T12:58:48.999Z</time></trkpt><trkpt lat="37.906098852538136" lon="13.61052197242177"><ele>210.0</ele><time>2026-04-30T12:58:49.999Z</time></trkpt><trkpt lat="37.906182794042884" lon="13.610496414875263"><ele>210.0</ele><time>2026-04-30T12:58:50.999Z</time></trkpt><trkpt lat="37.906259449572076" lon="13.610474549934072"><ele>209.4</ele><time>2026-04-30T12:58:51.999Z</time></trkpt><trkpt lat="37.9063433026646" lon="13.610470553226579"><ele>208.8</ele><time>2026-04-30T12:58:52.999Z</time></trkpt><trkpt lat="37.90643095192961" lon="13.61053393883054"><ele>208.2</ele><time>2026-04-30T12:58:53.999Z</time></trkpt><trkpt lat="37.9065255633623" lon="13.610584498932052"><ele>207.6</ele><time>2026-04-30T12:58:54.999Z</time></trkpt><trkpt lat="37.90660530396353" lon="13.6106096702405"><ele>207.0</ele><time>2026-04-30T12:58:55.999Z</time></trkpt><trkpt lat="37.906686088681205" lon="13.610601680755872"><ele>205.5</ele><time>2026-04-30T12:58:56.999Z</time></trkpt><trkpt lat="37.906769464514475" lon="13.610572922638726"><ele>204.0</ele><time>2026-04-30T12:58:57.999Z</time></trkpt><trkpt lat="37.90684739442383" lon="13.610528045695617"><ele>202.5</ele><time>2026-04-30T12:58:58.999Z</time></trkpt><trkpt lat="37.90692215560992" lon="13.610477059052435"><ele>201.0</ele><time>2026-04-30T12:58:59.999Z</time></trkpt><trkpt lat="37.90698419254024" lon="13.610420477937538"><ele>199.5</ele><time>2026-04-30T12:59:00.999Z</time></trkpt><trkpt lat="37.90704153120331" lon="13.610365356835459"><ele>198.0</ele><time>2026-04-30T12:59:01.999Z</time></trkpt><trkpt lat="37.90709388302126" lon="13.610312023122383"><ele>195.33333333333334</ele><time>2026-04-30T12:59:02.999Z</time></trkpt><trkpt lat="37.90718328635586" lon="13.610232006976489"><ele>192.66666666666666</ele><time>2026-04-30T12:59:04.999Z</time></trkpt><trkpt lat="37.90722293668847" lon="13.610154978674212"><ele>190.0</ele><time>2026-04-30T12:59:07.999Z</time></trkpt><trkpt lat="37.90716280135182" lon="13.610124769844292"><ele>187.33333333333331</ele><time>2026-04-30T12:59:09.999Z</time></trkpt><trkpt lat="37.907091245958725" lon="13.610143257204463"><ele>184.66666666666666</ele><time>2026-04-30T12:59:10.999Z</time></trkpt><trkpt lat="37.90701604948854" lon="13.610190410702995"><ele>182.0</ele><time>2026-04-30T12:59:11.999Z</time></trkpt><trkpt lat="37.906941599785924" lon="13.610263734028974"><ele>182.0</ele><time>2026-04-30T12:59:12.999Z</time></trkpt><trkpt lat="37.90686929599117" lon="13.610323745310735"><ele>182.0</ele><time>2026-04-30T12:59:13.999Z</time></trkpt><trkpt lat="37.90675523287326" lon="13.610345696255886"><ele>182.0</ele><time>2026-04-30T12:59:15.999Z</time></trkpt><trkpt lat="37.90664573774748" lon="13.610267155886156"><ele>182.0</ele><time>2026-04-30T12:59:17.999Z</time></trkpt><trkpt lat="37.9065875411227" lon="13.610164937877311"><ele>182.0</ele><time>2026-04-30T12:59:18.999Z</time></trkpt><trkpt lat="37.90651512137259" lon="13.610041098558682"><ele>182.0</ele><time>2026-04-30T12:59:19.999Z</time></trkpt><trkpt lat="37.90646361640146" lon="13.60990843010646"><ele>182.0</ele><time>2026-04-30T12:59:20.999Z</time></trkpt><trkpt lat="37.9064127021342" lon="13.609807801498532"><ele>182.0</ele><time>2026-04-30T12:59:21.999Z</time></trkpt><trkpt lat="37.90636682240351" lon="13.609704636444905"><ele>182.0</ele><time>2026-04-30T12:59:22.999Z</time></trkpt><trkpt lat="37.90630859740764" lon="13.609592244920208"><ele>182.0</ele><time>2026-04-30T12:59:23.999Z</time></trkpt><trkpt lat="37.90625353923426" lon="13.609480311272941"><ele>182.0</ele><time>2026-04-30T12:59:24.999Z</time></trkpt><trkpt lat="37.90620080219383" lon="13.60937339235147"><ele>182.0</ele><time>2026-04-30T12:59:25.999Z</time></trkpt><trkpt lat="37.906157252156746" lon="13.60927389521271"><ele>182.0</ele><time>2026-04-30T12:59:26.999Z</time></trkpt><trkpt lat="37.906119343102" lon="13.609177234291733"><ele>182.0</ele><time>2026-04-30T12:59:28Z</time></trkpt><trkpt lat="37.90607672679735" lon="13.609086176542252"><ele>182.0</ele><time>2026-04-30T12:59:29Z</time></trkpt><trkpt lat="37.90602126163101" lon="13.609010536993923"><ele>182.0</ele><time>2026-04-30T12:59:30Z</time></trkpt><trkpt lat="37.90594680374855" lon="13.608956485825873"><ele>181.39999999999998</ele><time>2026-04-30T12:59:31Z</time></trkpt><trkpt lat="37.90586282414937" lon="13.608927567963244"><ele>180.79999999999998</ele><time>2026-04-30T12:59:32Z</time></trkpt><trkpt lat="37.90577180433127" lon="13.608913720310195"><ele>180.2</ele><time>2026-04-30T12:59:33Z</time></trkpt><trkpt lat="37.90567559483924" lon="13.608905414854114"><ele>179.6</ele><time>2026-04-30T12:59:34Z</time></trkpt><trkpt lat="37.905572576604456" lon="13.608906261154042"><ele>179.0</ele><time>2026-04-30T12:59:35Z</time></trkpt><trkpt lat="37.90547050024676" lon="13.608889151741728"><ele>179.0</ele><time>2026-04-30T12:59:36Z</time></trkpt><trkpt lat="37.90536243907954" lon="13.608845389375679"><ele>179.0</ele><time>2026-04-30T12:59:37Z</time></trkpt><trkpt lat="37.90525128781979" lon="13.608801337470801"><ele>179.0</ele><time>2026-04-30T12:59:38Z</time></trkpt><trkpt lat="37.90514973159468" lon="13.608774612604494"><ele>179.0</ele><time>2026-04-30T12:59:39Z</time></trkpt><trkpt lat="37.905068741334496" lon="13.608752409382383"><ele>179.0</ele><time>2026-04-30T12:59:40Z</time></trkpt><trkpt lat="37.905000111193694" lon="13.608719998715786"><ele>178.66666666666666</ele><time>2026-04-30T12:59:41Z</time></trkpt><trkpt lat="37.90492551171649" lon="13.608682349157442"><ele>178.33333333333331</ele><time>2026-04-30T12:59:42Z</time></trkpt><trkpt lat="37.90484958362974" lon="13.608662397711123"><ele>178.0</ele><time>2026-04-30T12:59:43Z</time></trkpt><trkpt lat="37.9047794123574" lon="13.608644271197921"><ele>177.66666666666666</ele><time>2026-04-30T12:59:44Z</time></trkpt><trkpt lat="37.904711509933925" lon="13.60862557208"><ele>177.33333333333334</ele><time>2026-04-30T12:59:45Z</time></trkpt><trkpt lat="37.90463689642525" lon="13.608516602633225"><ele>177.0</ele><time>2026-04-30T12:59:47Z</time></trkpt><trkpt lat="37.90462578225522" lon="13.608418578136215"><ele>179.25</ele><time>2026-04-30T12:59:48Z</time></trkpt><trkpt lat="37.904599280232354" lon="13.60828622791065"><ele>181.5</ele><time>2026-04-30T12:59:49Z</time></trkpt><trkpt lat="37.90455885856495" lon="13.608144335706253"><ele>183.75</ele><time>2026-04-30T12:59:50Z</time></trkpt><trkpt lat="37.90451342210227" lon="13.60800535813979"><ele>186.0</ele><time>2026-04-30T12:59:51Z</time></trkpt><trkpt lat="37.90447111819604" lon="13.607861236129978"><ele>186.4</ele><time>2026-04-30T12:59:52Z</time></trkpt><trkpt lat="37.90441845743711" lon="13.607727132545083"><ele>186.8</ele><time>2026-04-30T12:59:53Z</time></trkpt><trkpt lat="37.90435145983248" lon="13.607646456954836"><ele>187.20000000000002</ele><time>2026-04-30T12:59:54Z</time></trkpt><trkpt lat="37.90426154667376" lon="13.60757873808401"><ele>187.60000000000002</ele><time>2026-04-30T12:59:55Z</time></trkpt><trkpt lat="37.90416809733356" lon="13.60752580739741"><ele>188.0</ele><time>2026-04-30T12:59:56Z</time></trkpt><trkpt lat="37.90408195020094" lon="13.60747592406951"><ele>188.0</ele><time>2026-04-30T12:59:57Z</time></trkpt><trkpt lat="37.90401910699785" lon="13.607413143343797"><ele>188.0</ele><time>2026-04-30T12:59:58Z</time></trkpt><trkpt lat="37.90396905538345" lon="13.607325103659923"><ele>188.0</ele><time>2026-04-30T12:59:59Z</time></trkpt><trkpt lat="37.90392441291128" lon="13.607222550643485"><ele>188.0</ele><time>2026-04-30T13:00:00Z</time></trkpt><trkpt lat="37.90388607068869" lon="13.607119425400674"><ele>188.0</ele><time>2026-04-30T13:00:01Z</time></trkpt><trkpt lat="37.903833090144815" lon="13.607007629701101"><ele>191.0</ele><time>2026-04-30T13:00:02Z</time></trkpt><trkpt lat="37.90376905730042" lon="13.606903538164344"><ele>194.0</ele><time>2026-04-30T13:00:03Z</time></trkpt><trkpt lat="37.903716148634935" lon="13.60680998317751"><ele>197.0</ele><time>2026-04-30T13:00:04Z</time></trkpt><trkpt lat="37.90368225129476" lon="13.606716858625648"><ele>200.0</ele><time>2026-04-30T13:00:05Z</time></trkpt><trkpt lat="37.90366144000948" lon="13.606587628775358"><ele>203.0</ele><time>2026-04-30T13:00:06Z</time></trkpt><trkpt lat="37.90364716529168" lon="13.60644086200955"><ele>203.0</ele><time>2026-04-30T13:00:07Z</time></trkpt><trkpt lat="37.903627246054974" lon="13.606294694772195"><ele>203.0</ele><time>2026-04-30T13:00:08Z</time></trkpt><trkpt lat="37.903589974196265" lon="13.606161359295102"><ele>203.0</ele><time>2026-04-30T13:00:09Z</time></trkpt><trkpt lat="37.90354092844582" lon="13.606038965378666"><ele>203.0</ele><time>2026-04-30T13:00:10Z</time></trkpt><trkpt lat="37.9034822155549" lon="13.605898571280072"><ele>203.4</ele><time>2026-04-30T13:00:11Z</time></trkpt><trkpt lat="37.903429911673555" lon="13.605769820842273"><ele>203.8</ele><time>2026-04-30T13:00:12Z</time></trkpt><trkpt lat="37.903388413912516" lon="13.605654887172445"><ele>204.2</ele><time>2026-04-30T13:00:13Z</time></trkpt><trkpt lat="37.903349146801425" lon="13.605554668964338"><ele>204.6</ele><time>2026-04-30T13:00:14Z</time></trkpt><trkpt lat="37.903305001471956" lon="13.605449064058977"><ele>205.0</ele><time>2026-04-30T13:00:15Z</time></trkpt><trkpt lat="37.90326618233323" lon="13.605331429037472"><ele>206.2</ele><time>2026-04-30T13:00:16Z</time></trkpt><trkpt lat="37.90323739433609" lon="13.605204080203373"><ele>207.4</ele><time>2026-04-30T13:00:17Z</time></trkpt><trkpt lat="37.903208808536306" lon="13.60506744029016"><ele>208.60000000000002</ele><time>2026-04-30T13:00:18Z</time></trkpt><trkpt lat="37.903184449880804" lon="13.604929902512369"><ele>209.8</ele><time>2026-04-30T13:00:19Z</time></trkpt><trkpt lat="37.90316261704456" lon="13.60478550615922"><ele>211.0</ele><time>2026-04-30T13:00:20Z</time></trkpt><trkpt lat="37.90313397878018" lon="13.604640481589556"><ele>211.25</ele><time>2026-04-30T13:00:20.999Z</time></trkpt><trkpt lat="37.903108300831114" lon="13.604478211196575"><ele>211.5</ele><time>2026-04-30T13:00:21.999Z</time></trkpt><trkpt lat="37.9030943258341" lon="13.604321349952347"><ele>211.75</ele><time>2026-04-30T13:00:22.999Z</time></trkpt><trkpt lat="37.90308607415738" lon="13.604172309638221"><ele>212.0</ele><time>2026-04-30T13:00:23.999Z</time></trkpt><trkpt lat="37.90307318572923" lon="13.60403213271"><ele>212.0</ele><time>2026-04-30T13:00:24.999Z</time></trkpt><trkpt lat="37.9030713450168" lon="13.603892996092602"><ele>212.0</ele><time>2026-04-30T13:00:25.999Z</time></trkpt><trkpt lat="37.90308160126287" lon="13.603759631924143"><ele>212.0</ele><time>2026-04-30T13:00:26.999Z</time></trkpt><trkpt lat="37.90308694999722" lon="13.60362034945385"><ele>212.0</ele><time>2026-04-30T13:00:27.999Z</time></trkpt><trkpt lat="37.90307195676723" lon="13.603472153391351"><ele>212.0</ele><time>2026-04-30T13:00:28.999Z</time></trkpt><trkpt lat="37.903050736158455" lon="13.603318214510894"><ele>212.5</ele><time>2026-04-30T13:00:29.999Z</time></trkpt><trkpt lat="37.90303677817649" lon="13.603153184339078"><ele>213.0</ele><time>2026-04-30T13:00:30.999Z</time></trkpt><trkpt lat="37.90302610525708" lon="13.602986623446084"><ele>213.5</ele><time>2026-04-30T13:00:31.999Z</time></trkpt><trkpt lat="37.90301179942331" lon="13.602824370451858"><ele>214.0</ele><time>2026-04-30T13:00:32.999Z</time></trkpt><trkpt lat="37.90299099373979" lon="13.60267385889372"><ele>214.25</ele><time>2026-04-30T13:00:33.999Z</time></trkpt><trkpt lat="37.90297073133676" lon="13.602521176839655"><ele>214.5</ele><time>2026-04-30T13:00:34.999Z</time></trkpt><trkpt lat="37.902945991812025" lon="13.602373777538581"><ele>214.75</ele><time>2026-04-30T13:00:35.999Z</time></trkpt><trkpt lat="37.90293130163525" lon="13.602234709838156"><ele>215.0</ele><time>2026-04-30T13:00:36.999Z</time></trkpt><trkpt lat="37.90291379348978" lon="13.60210299950048"><ele>215.4</ele><time>2026-04-30T13:00:37.999Z</time></trkpt><trkpt lat="37.90289741181974" lon="13.601973915270626"><ele>215.8</ele><time>2026-04-30T13:00:38.999Z</time></trkpt><trkpt lat="37.9029003599964" lon="13.601854120220278"><ele>216.2</ele><time>2026-04-30T13:00:39.999Z</time></trkpt><trkpt lat="37.9029240502233" lon="13.601770053281541"><ele>216.6</ele><time>2026-04-30T13:00:40.999Z</time></trkpt><trkpt lat="37.903022616179996" lon="13.60185276459812"><ele>217.0</ele><time>2026-04-30T13:00:56.999Z</time></trkpt><trkpt lat="37.90314395347169" lon="13.601811273987662"><ele>217.0</ele><time>2026-04-30T13:00:58.999Z</time></trkpt><trkpt lat="37.90324978141632" lon="13.60174731328078"><ele>217.0</ele><time>2026-04-30T13:00:59.999Z</time></trkpt><trkpt lat="37.90336295614973" lon="13.601697480101201"><ele>217.0</ele><time>2026-04-30T13:01:00.999Z</time></trkpt><trkpt lat="37.903457896124124" lon="13.601662831949822"><ele>217.0</ele><time>2026-04-30T13:01:01.999Z</time></trkpt><trkpt lat="37.90352963661386" lon="13.601639419378296"><ele>217.0</ele><time>2026-04-30T13:01:02.999Z</time></trkpt><trkpt lat="37.90363974718476" lon="13.601600470018683"><ele>218.33333333333331</ele><time>2026-04-30T13:01:04.999Z</time></trkpt><trkpt lat="37.90376972767259" lon="13.60157044112672"><ele>219.66666666666666</ele><time>2026-04-30T13:01:06.999Z</time></trkpt><trkpt lat="37.90383640379579" lon="13.601547486044547"><ele>221.0</ele><time>2026-04-30T13:01:07.999Z</time></trkpt><trkpt lat="37.903901496378744" lon="13.601519099679685"><ele>222.33333333333331</ele><time>2026-04-30T13:01:08.999Z</time></trkpt><trkpt lat="37.903976209614136" lon="13.601486081066152"><ele>223.66666666666666</ele><time>2026-04-30T13:01:09.999Z</time></trkpt><trkpt lat="37.9040664880706" lon="13.601451949938783"><ele>225.0</ele><time>2026-04-30T13:01:10.999Z</time></trkpt><trkpt lat="37.90416159805619" lon="13.601415928924093"><ele>228.5</ele><time>2026-04-30T13:01:11.999Z</time></trkpt><trkpt lat="37.904261511132034" lon="13.601371707745427"><ele>232.0</ele><time>2026-04-30T13:01:12.999Z</time></trkpt><trkpt lat="37.9043678175986" lon="13.60131951190401"><ele>235.5</ele><time>2026-04-30T13:01:13.999Z</time></trkpt><trkpt lat="37.90447886680064" lon="13.601269328260754"><ele>239.0</ele><time>2026-04-30T13:01:14.999Z</time></trkpt><trkpt lat="37.90459710564025" lon="13.6012147105688"><ele>238.25</ele><time>2026-04-30T13:01:15.999Z</time></trkpt><trkpt lat="37.90471963290766" lon="13.601154756867972"><ele>237.5</ele><time>2026-04-30T13:01:16.999Z</time></trkpt><trkpt lat="37.904844717502996" lon="13.601092688434287"><ele>236.75</ele><time>2026-04-30T13:01:17.999Z</time></trkpt><trkpt lat="37.904963025726396" lon="13.601044419713118"><ele>236.0</ele><time>2026-04-30T13:01:18.999Z</time></trkpt><trkpt lat="37.90507648563182" lon="13.601015692786966"><ele>238.8</ele><time>2026-04-30T13:01:19.999Z</time></trkpt><trkpt lat="37.905181940869255" lon="13.60099045264529"><ele>241.60000000000002</ele><time>2026-04-30T13:01:20.999Z</time></trkpt><trkpt lat="37.90528581365133" lon="13.600974051038445"><ele>244.4</ele><time>2026-04-30T13:01:21.999Z</time></trkpt><trkpt lat="37.90539726256418" lon="13.600963694396198"><ele>247.2</ele><time>2026-04-30T13:01:22.999Z</time></trkpt><trkpt lat="37.90551991257522" lon="13.600945282076749"><ele>250.0</ele><time>2026-04-30T13:01:23.999Z</time></trkpt><trkpt lat="37.90565363487388" lon="13.600930420847236"><ele>250.0</ele><time>2026-04-30T13:01:24.999Z</time></trkpt><trkpt lat="37.90578485567016" lon="13.600943821907004"><ele>250.0</ele><time>2026-04-30T13:01:25.999Z</time></trkpt><trkpt lat="37.90591080789985" lon="13.600998787757629"><ele>250.0</ele><time>2026-04-30T13:01:26.999Z</time></trkpt><trkpt lat="37.90603766398807" lon="13.601076820727837"><ele>250.0</ele><time>2026-04-30T13:01:27.999Z</time></trkpt><trkpt lat="37.906171040242526" lon="13.601137738234236"><ele>254.75</ele><time>2026-04-30T13:01:28.999Z</time></trkpt><trkpt lat="37.906303633471104" lon="13.601180244936735"><ele>259.5</ele><time>2026-04-30T13:01:29.999Z</time></trkpt><trkpt lat="37.90643591272833" lon="13.60121179952475"><ele>264.25</ele><time>2026-04-30T13:01:30.999Z</time></trkpt><trkpt lat="37.90654804790503" lon="13.601220997114376"><ele>269.0</ele><time>2026-04-30T13:01:31.999Z</time></trkpt><trkpt lat="37.9066509451339" lon="13.601204988984835"><ele>271.75</ele><time>2026-04-30T13:01:32.999Z</time></trkpt><trkpt lat="37.90675441353522" lon="13.601148783519827"><ele>274.5</ele><time>2026-04-30T13:01:34Z</time></trkpt><trkpt lat="37.906860064699686" lon="13.601076980184454"><ele>277.25</ele><time>2026-04-30T13:01:35Z</time></trkpt><trkpt lat="37.90697045390489" lon="13.60099627243454"><ele>280.0</ele><time>2026-04-30T13:01:36Z</time></trkpt><trkpt lat="37.90709330965805" lon="13.600917074116555"><ele>280.0</ele><time>2026-04-30T13:01:37Z</time></trkpt><trkpt lat="37.90722243729163" lon="13.6008384683383"><ele>280.0</ele><time>2026-04-30T13:01:38Z</time></trkpt><trkpt lat="37.90735488977077" lon="13.600757552670437"><ele>280.0</ele><time>2026-04-30T13:01:39Z</time></trkpt><trkpt lat="37.90749184526768" lon="13.600677028366096"><ele>280.0</ele><time>2026-04-30T13:01:40Z</time></trkpt><trkpt lat="37.90762933619408" lon="13.600597891762765"><ele>284.0</ele><time>2026-04-30T13:01:41Z</time></trkpt><trkpt lat="37.90776690516321" lon="13.600529123421206"><ele>288.0</ele><time>2026-04-30T13:01:42Z</time></trkpt><trkpt lat="37.90790714860897" lon="13.600470125550693"><ele>292.0</ele><time>2026-04-30T13:01:43Z</time></trkpt><trkpt lat="37.90805337447723" lon="13.60040748334542"><ele>292.0</ele><time>2026-04-30T13:01:44Z</time></trkpt><trkpt lat="37.908198505206585" lon="13.600342381134439"><ele>292.0</ele><time>2026-04-30T13:01:45Z</time></trkpt><trkpt lat="37.90834078972364" lon="13.600275941429274"><ele>292.0</ele><time>2026-04-30T13:01:46Z</time></trkpt><trkpt lat="37.908494931747846" lon="13.600198183876067"><ele>295.3333333333333</ele><time>2026-04-30T13:01:47Z</time></trkpt><trkpt lat="37.90865973600046" lon="13.600109478917952"><ele>298.6666666666667</ele><time>2026-04-30T13:01:48Z</time></trkpt><trkpt lat="37.908826997144665" lon="13.600014950692906"><ele>302.0</ele><time>2026-04-30T13:01:49Z</time></trkpt><trkpt lat="37.908994766722834" lon="13.599918250221863"><ele>302.0</ele><time>2026-04-30T13:01:50Z</time></trkpt><trkpt lat="37.909155486742016" lon="13.599819875112525"><ele>302.0</ele><time>2026-04-30T13:01:51Z</time></trkpt><trkpt lat="37.909308249149156" lon="13.599728463773657"><ele>302.0</ele><time>2026-04-30T13:01:52Z</time></trkpt><trkpt lat="37.90945461523571" lon="13.599637427950208"><ele>307.33333333333337</ele><time>2026-04-30T13:01:53Z</time></trkpt><trkpt lat="37.90959524019638" lon="13.599541505948157"><ele>312.6666666666667</ele><time>2026-04-30T13:01:54Z</time></trkpt><trkpt lat="37.90972877867812" lon="13.599434663942867"><ele>318.0</ele><time>2026-04-30T13:01:55Z</time></trkpt><trkpt lat="37.909864389509615" lon="13.599320248094909"><ele>318.0</ele><time>2026-04-30T13:01:56Z</time></trkpt><trkpt lat="37.91000894671491" lon="13.599210054917739"><ele>318.0</ele><time>2026-04-30T13:01:57Z</time></trkpt><trkpt lat="37.91016278760372" lon="13.599104727343834"><ele>318.0</ele><time>2026-04-30T13:01:58Z</time></trkpt><trkpt lat="37.91032061186776" lon="13.598998130859409"><ele>325.0</ele><time>2026-04-30T13:01:59Z</time></trkpt><trkpt lat="37.91047482214042" lon="13.598891420638083"><ele>332.0</ele><time>2026-04-30T13:02:00Z</time></trkpt><trkpt lat="37.91061124286637" lon="13.598793274179801"><ele>339.0</ele><time>2026-04-30T13:02:01Z</time></trkpt><trkpt lat="37.91073308214484" lon="13.598701728579305"><ele>341.0</ele><time>2026-04-30T13:02:02Z</time></trkpt><trkpt lat="37.91085360541164" lon="13.598609245928207"><ele>343.0</ele><time>2026-04-30T13:02:03Z</time></trkpt><trkpt lat="37.910960239032455" lon="13.598523022730296"><ele>345.0</ele><time>2026-04-30T13:02:04Z</time></trkpt><trkpt lat="37.91106162030714" lon="13.598453123616439"><ele>347.0</ele><time>2026-04-30T13:02:05Z</time></trkpt><trkpt lat="37.91118931407282" lon="13.598376634203117"><ele>347.0</ele><time>2026-04-30T13:02:06Z</time></trkpt><trkpt lat="37.911329335464075" lon="13.598288036181328"><ele>347.0</ele><time>2026-04-30T13:02:07Z</time></trkpt><trkpt lat="37.91146834571651" lon="13.598189429121117"><ele>347.0</ele><time>2026-04-30T13:02:08Z</time></trkpt><trkpt lat="37.911597250393896" lon="13.59807406165779"><ele>347.0</ele><time>2026-04-30T13:02:09Z</time></trkpt><trkpt lat="37.91171583563932" lon="13.597942603569875"><ele>347.0</ele><time>2026-04-30T13:02:10Z</time></trkpt><trkpt lat="37.91182121992786" lon="13.597803978692664"><ele>347.0</ele><time>2026-04-30T13:02:11Z</time></trkpt><trkpt lat="37.91191449655896" lon="13.597668487900501"><ele>350.0</ele><time>2026-04-30T13:02:12Z</time></trkpt><trkpt lat="37.91202512360089" lon="13.597547114714374"><ele>353.0</ele><time>2026-04-30T13:02:13Z</time></trkpt><trkpt lat="37.91215664967991" lon="13.597438693972947"><ele>356.0</ele><time>2026-04-30T13:02:14Z</time></trkpt><trkpt lat="37.91229665344741" lon="13.597347337947312"><ele>356.0</ele><time>2026-04-30T13:02:15Z</time></trkpt><trkpt lat="37.91244107759745" lon="13.597275372505752"><ele>356.0</ele><time>2026-04-30T13:02:16Z</time></trkpt><trkpt lat="37.91258492943671" lon="13.59723297015885"><ele>356.0</ele><time>2026-04-30T13:02:17Z</time></trkpt><trkpt lat="37.912731469374215" lon="13.597210908326765"><ele>360.33333333333337</ele><time>2026-04-30T13:02:18Z</time></trkpt><trkpt lat="37.912879884804646" lon="13.597198205802881"><ele>364.6666666666667</ele><time>2026-04-30T13:02:19Z</time></trkpt><trkpt lat="37.91303437086546" lon="13.59718340912935"><ele>369.0</ele><time>2026-04-30T13:02:20Z</time></trkpt><trkpt lat="37.9131948934942" lon="13.597162942706113"><ele>369.0</ele><time>2026-04-30T13:02:21Z</time></trkpt><trkpt lat="37.91335467826775" lon="13.597152957902663"><ele>369.0</ele><time>2026-04-30T13:02:22Z</time></trkpt><trkpt lat="37.91351095250008" lon="13.597179045964376"><ele>369.0</ele><time>2026-04-30T13:02:23Z</time></trkpt><trkpt lat="37.91366985241842" lon="13.597228627761966"><ele>372.25</ele><time>2026-04-30T13:02:24Z</time></trkpt><trkpt lat="37.91382969946287" lon="13.59727023576065"><ele>375.5</ele><time>2026-04-30T13:02:24.999Z</time></trkpt><trkpt lat="37.91396645340035" lon="13.597296299301725"><ele>378.75</ele><time>2026-04-30T13:02:25.999Z</time></trkpt><trkpt lat="37.91407798253513" lon="13.597317248906121"><ele>382.0</ele><time>2026-04-30T13:02:26.999Z</time></trkpt><trkpt lat="37.91418001402281" lon="13.597343368052462"><ele>384.75</ele><time>2026-04-30T13:02:27.999Z</time></trkpt><trkpt lat="37.91428527801464" lon="13.597369415811682"><ele>387.5</ele><time>2026-04-30T13:02:28.999Z</time></trkpt><trkpt lat="37.91439468199913" lon="13.597403523190808"><ele>390.25</ele><time>2026-04-30T13:02:29.999Z</time></trkpt><trkpt lat="37.9145052764213" lon="13.597458133734099"><ele>393.0</ele><time>2026-04-30T13:02:30.999Z</time></trkpt><trkpt lat="37.9146150746162" lon="13.597495589170599"><ele>393.0</ele><time>2026-04-30T13:02:31.999Z</time></trkpt><trkpt lat="37.914743925014754" lon="13.597483708954083"><ele>393.0</ele><time>2026-04-30T13:02:32.999Z</time></trkpt><trkpt lat="37.91487630103487" lon="13.597458320189899"><ele>393.0</ele><time>2026-04-30T13:02:33.999Z</time></trkpt><trkpt lat="37.91501626513125" lon="13.597439894606502"><ele>393.0</ele><time>2026-04-30T13:02:34.999Z</time></trkpt><trkpt lat="37.91516400389761" lon="13.59743345872157"><ele>395.79999999999995</ele><time>2026-04-30T13:02:35.999Z</time></trkpt><trkpt lat="37.91530907008037" lon="13.597417445810207"><ele>398.6</ele><time>2026-04-30T13:02:36.999Z</time></trkpt><trkpt lat="37.91543055178706" lon="13.59739173517313"><ele>401.4</ele><time>2026-04-30T13:02:37.999Z</time></trkpt><trkpt lat="37.91552088884291" lon="13.597381747118275"><ele>404.20000000000005</ele><time>2026-04-30T13:02:38.999Z</time></trkpt><trkpt lat="37.91558984904317" lon="13.597419037201936"><ele>407.0</ele><time>2026-04-30T13:02:39.999Z</time></trkpt><trkpt lat="37.91564136323817" lon="13.597508933553991"><ele>407.0</ele><time>2026-04-30T13:02:40.999Z</time></trkpt><trkpt lat="37.91568251091802" lon="13.597640757079255"><ele>407.0</ele><time>2026-04-30T13:02:41.999Z</time></trkpt><trkpt lat="37.915718572897646" lon="13.597788949989752"><ele>407.0</ele><time>2026-04-30T13:02:42.999Z</time></trkpt><trkpt lat="37.915768647713314" lon="13.597938351259142"><ele>407.0</ele><time>2026-04-30T13:02:43.999Z</time></trkpt><trkpt lat="37.915835392432676" lon="13.598087678473128"><ele>408.0</ele><time>2026-04-30T13:02:44.999Z</time></trkpt><trkpt lat="37.915902811377514" lon="13.598227967813562"><ele>409.0</ele><time>2026-04-30T13:02:45.999Z</time></trkpt><trkpt lat="37.91596187327108" lon="13.59837160314112"><ele>410.0</ele><time>2026-04-30T13:02:46.999Z</time></trkpt><trkpt lat="37.91601206531643" lon="13.598511637686574"><ele>411.0</ele><time>2026-04-30T13:02:47.999Z</time></trkpt><trkpt lat="37.916054048443655" lon="13.598653155785078"><ele>413.25</ele><time>2026-04-30T13:02:48.999Z</time></trkpt><trkpt lat="37.91608892544436" lon="13.598798479015917"><ele>415.5</ele><time>2026-04-30T13:02:49.999Z</time></trkpt><trkpt lat="37.9161270380512" lon="13.598937344836434"><ele>417.75</ele><time>2026-04-30T13:02:50.999Z</time></trkpt><trkpt lat="37.91617522371059" lon="13.599075255548776"><ele>420.0</ele><time>2026-04-30T13:02:51.999Z</time></trkpt><trkpt lat="37.91624688798738" lon="13.599215663663902"><ele>420.0</ele><time>2026-04-30T13:02:52.999Z</time></trkpt><trkpt lat="37.91632665284577" lon="13.59934119793588"><ele>420.0</ele><time>2026-04-30T13:02:53.999Z</time></trkpt><trkpt lat="37.91640220772353" lon="13.599453720847531"><ele>420.0</ele><time>2026-04-30T13:02:54.999Z</time></trkpt><trkpt lat="37.91646646395483" lon="13.599550559724584"><ele>420.0</ele><time>2026-04-30T13:02:55.999Z</time></trkpt><trkpt lat="37.916514162967836" lon="13.599621917440567"><ele>420.0</ele><time>2026-04-30T13:02:56.999Z</time></trkpt><trkpt lat="37.916595044430174" lon="13.599662685913989"><ele>420.0</ele><time>2026-04-30T13:02:58.999Z</time></trkpt><trkpt lat="37.91664523400677" lon="13.59961034383399"><ele>420.0</ele><time>2026-04-30T13:03:00.999Z</time></trkpt><trkpt lat="37.91666622862754" lon="13.59952196682684"><ele>420.0</ele><time>2026-04-30T13:03:02.999Z</time></trkpt><trkpt lat="37.91668169083854" lon="13.599437741664945"><ele>420.0</ele><time>2026-04-30T13:03:04.999Z</time></trkpt><trkpt lat="37.91671434123777" lon="13.599317330956904"><ele>420.0</ele><time>2026-04-30T13:03:07.999Z</time></trkpt><trkpt lat="37.91674803941671" lon="13.599164520112748"><ele>420.0</ele><time>2026-04-30T13:03:09.999Z</time></trkpt><trkpt lat="37.91677443271788" lon="13.599062951427397"><ele>422.6</ele><time>2026-04-30T13:03:10.999Z</time></trkpt><trkpt lat="37.91679804795377" lon="13.59894227362349"><ele>425.2</ele><time>2026-04-30T13:03:11.999Z</time></trkpt><trkpt lat="37.91680893418612" lon="13.59882086182684"><ele>427.79999999999995</ele><time>2026-04-30T13:03:12.999Z</time></trkpt><trkpt lat="37.916806238582794" lon="13.598683747739992"><ele>430.4</ele><time>2026-04-30T13:03:13.999Z</time></trkpt><trkpt lat="37.91681135109257" lon="13.598535559183295"><ele>433.0</ele><time>2026-04-30T13:03:14.999Z</time></trkpt><trkpt lat="37.91683161642513" lon="13.598375933980329"><ele>434.25</ele><time>2026-04-30T13:03:15.999Z</time></trkpt><trkpt lat="37.916855564013034" lon="13.598206224754534"><ele>435.5</ele><time>2026-04-30T13:03:16.999Z</time></trkpt><trkpt lat="37.91686853736038" lon="13.598037811279978"><ele>436.75</ele><time>2026-04-30T13:03:17.999Z</time></trkpt><trkpt lat="37.91688086724406" lon="13.59786031000614"><ele>438.0</ele><time>2026-04-30T13:03:18.999Z</time></trkpt><trkpt lat="37.9169007830845" lon="13.597678544910304"><ele>438.0</ele><time>2026-04-30T13:03:19.999Z</time></trkpt><trkpt lat="37.916924827581255" lon="13.597493487346146"><ele>438.0</ele><time>2026-04-30T13:03:20.999Z</time></trkpt><trkpt lat="37.91694612871904" lon="13.597321651263389"><ele>438.0</ele><time>2026-04-30T13:03:21.999Z</time></trkpt><trkpt lat="37.91697385417163" lon="13.597165062677181"><ele>438.0</ele><time>2026-04-30T13:03:22.999Z</time></trkpt><trkpt lat="37.91703847930433" lon="13.597022735217532"><ele>437.0</ele><time>2026-04-30T13:03:23.999Z</time></trkpt><trkpt lat="37.917136512802685" lon="13.596908625401298"><ele>436.0</ele><time>2026-04-30T13:03:24.999Z</time></trkpt><trkpt lat="37.91725697033752" lon="13.596839560568842"><ele>435.0</ele><time>2026-04-30T13:03:25.999Z</time></trkpt><trkpt lat="37.91739293996928" lon="13.59681413346825"><ele>434.0</ele><time>2026-04-30T13:03:26.999Z</time></trkpt><trkpt lat="37.91752885347658" lon="13.596792934952171"><ele>440.25</ele><time>2026-04-30T13:03:27.999Z</time></trkpt><trkpt lat="37.91765261230626" lon="13.596725501900531"><ele>446.5</ele><time>2026-04-30T13:03:28.999Z</time></trkpt><trkpt lat="37.91775826963034" lon="13.596608140829888"><ele>452.75</ele><time>2026-04-30T13:03:29.999Z</time></trkpt><trkpt lat="37.917850798580595" lon="13.59647078191155"><ele>459.0</ele><time>2026-04-30T13:03:30.999Z</time></trkpt><trkpt lat="37.91793987821746" lon="13.596325538910856"><ele>459.0</ele><time>2026-04-30T13:03:31.999Z</time></trkpt><trkpt lat="37.91801065308857" lon="13.59617778204488"><ele>459.0</ele><time>2026-04-30T13:03:32.999Z</time></trkpt><trkpt lat="37.91803341179316" lon="13.59601698654892"><ele>459.0</ele><time>2026-04-30T13:03:33.999Z</time></trkpt><trkpt lat="37.918014747410226" lon="13.59584950748243"><ele>459.0</ele><time>2026-04-30T13:03:34.999Z</time></trkpt><trkpt lat="37.917968981779616" lon="13.595674562105645"><ele>458.75</ele><time>2026-04-30T13:03:35.999Z</time></trkpt><trkpt lat="37.91792322178977" lon="13.595495687235742"><ele>458.5</ele><time>2026-04-30T13:03:36.999Z</time></trkpt><trkpt lat="37.917892247859626" lon="13.595313533701141"><ele>458.25</ele><time>2026-04-30T13:03:37.999Z</time></trkpt><trkpt lat="37.91787027638835" lon="13.595127111010793"><ele>458.0</ele><time>2026-04-30T13:03:38.999Z</time></trkpt><trkpt lat="37.91786216477931" lon="13.594939244074208"><ele>458.0</ele><time>2026-04-30T13:03:40Z</time></trkpt><trkpt lat="37.91787752822945" lon="13.59475286527811"><ele>458.0</ele><time>2026-04-30T13:03:41Z</time></trkpt><trkpt lat="37.917912591436675" lon="13.594571910066959"><ele>458.0</ele><time>2026-04-30T13:03:42Z</time></trkpt><trkpt lat="37.91795215328637" lon="13.594386216379846"><ele>458.0</ele><time>2026-04-30T13:03:43Z</time></trkpt><trkpt lat="37.91799129082356" lon="13.594192960757885"><ele>457.3333333333333</ele><time>2026-04-30T13:03:44Z</time></trkpt><trkpt lat="37.91802997717223" lon="13.593989866375049"><ele>456.66666666666663</ele><time>2026-04-30T13:03:45Z</time></trkpt><trkpt lat="37.91807287389441" lon="13.593775309496724"><ele>456.0</ele><time>2026-04-30T13:03:46Z</time></trkpt><trkpt lat="37.91811586351874" lon="13.593564808896751"><ele>454.66666666666663</ele><time>2026-04-30T13:03:47Z</time></trkpt><trkpt lat="37.91815076596212" lon="13.593357459583546"><ele>453.3333333333333</ele><time>2026-04-30T13:03:48Z</time></trkpt><trkpt lat="37.918170605880256" lon="13.593141464332769"><ele>452.0</ele><time>2026-04-30T13:03:49Z</time></trkpt><trkpt lat="37.91815903656858" lon="13.592923706499445"><ele>454.3333333333333</ele><time>2026-04-30T13:03:50Z</time></trkpt><trkpt lat="37.91811360457101" lon="13.592710465123776"><ele>456.66666666666663</ele><time>2026-04-30T13:03:51Z</time></trkpt><trkpt lat="37.918063267166055" lon="13.592511598642592"><ele>459.0</ele><time>2026-04-30T13:03:52Z</time></trkpt><trkpt lat="37.91803218910866" lon="13.592326511363956"><ele>459.0</ele><time>2026-04-30T13:03:53Z</time></trkpt><trkpt lat="37.91802191957051" lon="13.59214805494579"><ele>459.0</ele><time>2026-04-30T13:03:54Z</time></trkpt><trkpt lat="37.91804616880593" lon="13.591977018002932"><ele>459.0</ele><time>2026-04-30T13:03:55Z</time></trkpt><trkpt lat="37.918106026896126" lon="13.59180502600532"><ele>459.0</ele><time>2026-04-30T13:03:56Z</time></trkpt><trkpt lat="37.91817452997699" lon="13.591629952718213"><ele>460.0</ele><time>2026-04-30T13:03:57Z</time></trkpt><trkpt lat="37.918226345014" lon="13.591438229229322"><ele>461.0</ele><time>2026-04-30T13:03:58Z</time></trkpt><trkpt lat="37.918272344994634" lon="13.591233852876693"><ele>462.0</ele><time>2026-04-30T13:03:59Z</time></trkpt><trkpt lat="37.91831901912396" lon="13.591019236184794"><ele>460.0</ele><time>2026-04-30T13:04:00Z</time></trkpt><trkpt lat="37.91838241722842" lon="13.590805434384835"><ele>458.0</ele><time>2026-04-30T13:04:01Z</time></trkpt><trkpt lat="37.91845696231138" lon="13.590598828449737"><ele>456.0</ele><time>2026-04-30T13:04:02Z</time></trkpt><trkpt lat="37.91851961742806" lon="13.590416559944343"><ele>466.0</ele><time>2026-04-30T13:04:03Z</time></trkpt><trkpt lat="37.91856832496825" lon="13.59024754556468"><ele>476.0</ele><time>2026-04-30T13:04:04Z</time></trkpt><trkpt lat="37.91857749357561" lon="13.590076828929249"><ele>486.0</ele><time>2026-04-30T13:04:05Z</time></trkpt><trkpt lat="37.91853784799623" lon="13.589896330060444"><ele>496.0</ele><time>2026-04-30T13:04:06Z</time></trkpt><trkpt lat="37.918455330144845" lon="13.589723764128463"><ele>487.5</ele><time>2026-04-30T13:04:07Z</time></trkpt><trkpt lat="37.9183633150117" lon="13.589566054962146"><ele>479.0</ele><time>2026-04-30T13:04:08Z</time></trkpt><trkpt lat="37.91830336984699" lon="13.589414470085083"><ele>470.5</ele><time>2026-04-30T13:04:09Z</time></trkpt><trkpt lat="37.918278053165295" lon="13.589262478549047"><ele>462.0</ele><time>2026-04-30T13:04:10Z</time></trkpt><trkpt lat="37.91829550138722" lon="13.589114931757559"><ele>462.0</ele><time>2026-04-30T13:04:11Z</time></trkpt><trkpt lat="37.91835689653481" lon="13.588975089368107"><ele>462.0</ele><time>2026-04-30T13:04:12Z</time></trkpt><trkpt lat="37.91846282662895" lon="13.588843538677503"><ele>462.0</ele><time>2026-04-30T13:04:13Z</time></trkpt><trkpt lat="37.918581160809175" lon="13.588718221523894"><ele>462.0</ele><time>2026-04-30T13:04:14Z</time></trkpt><trkpt lat="37.918682833315295" lon="13.58859897654767"><ele>466.5</ele><time>2026-04-30T13:04:15Z</time></trkpt><trkpt lat="37.91874054566394" lon="13.588464786344415"><ele>471.0</ele><time>2026-04-30T13:04:16Z</time></trkpt><trkpt lat="37.91875010597084" lon="13.58831156614616"><ele>475.5</ele><time>2026-04-30T13:04:17Z</time></trkpt><trkpt lat="37.91871155596169" lon="13.588172786434354"><ele>480.0</ele><time>2026-04-30T13:04:18Z</time></trkpt><trkpt lat="37.91864778970289" lon="13.588041631396248"><ele>480.0</ele><time>2026-04-30T13:04:19Z</time></trkpt><trkpt lat="37.91862875901813" lon="13.587903914501274"><ele>480.0</ele><time>2026-04-30T13:04:20Z</time></trkpt><trkpt lat="37.91867644821185" lon="13.58777187243636"><ele>480.0</ele><time>2026-04-30T13:04:21Z</time></trkpt><trkpt lat="37.91876545918948" lon="13.587664389105917"><ele>480.0</ele><time>2026-04-30T13:04:22Z</time></trkpt><trkpt lat="37.918890146859496" lon="13.587583948091728"><ele>479.25</ele><time>2026-04-30T13:04:23Z</time></trkpt><trkpt lat="37.91900123452829" lon="13.587475895360082"><ele>478.5</ele><time>2026-04-30T13:04:24Z</time></trkpt><trkpt lat="37.91908451009717" lon="13.587324327697694"><ele>477.75</ele><time>2026-04-30T13:04:25Z</time></trkpt><trkpt lat="37.91914555708826" lon="13.58715837241438"><ele>477.0</ele><time>2026-04-30T13:04:26Z</time></trkpt><trkpt lat="37.919203114367065" lon="13.58699497587452"><ele>481.75</ele><time>2026-04-30T13:04:27Z</time></trkpt><trkpt lat="37.9192597740112" lon="13.586837086871101"><ele>486.5</ele><time>2026-04-30T13:04:28Z</time></trkpt><trkpt lat="37.919308765688896" lon="13.586679990530063"><ele>491.25</ele><time>2026-04-30T13:04:28.999Z</time></trkpt><trkpt lat="37.919337465454106" lon="13.586519905690063"><ele>496.0</ele><time>2026-04-30T13:04:29.999Z</time></trkpt><trkpt lat="37.91935000786004" lon="13.586350524339304"><ele>495.25</ele><time>2026-04-30T13:04:30.999Z</time></trkpt><trkpt lat="37.919347000668616" lon="13.586176444095203"><ele>494.5</ele><time>2026-04-30T13:04:31.999Z</time></trkpt><trkpt lat="37.91931687888712" lon="13.585993672008847"><ele>493.75</ele><time>2026-04-30T13:04:32.999Z</time></trkpt><trkpt lat="37.91927406936257" lon="13.585799834395791"><ele>493.0</ele><time>2026-04-30T13:04:33.999Z</time></trkpt><trkpt lat="37.91923184246424" lon="13.585596602198065"><ele>490.33333333333337</ele><time>2026-04-30T13:04:34.999Z</time></trkpt><trkpt lat="37.91919858585701" lon="13.58538628606905"><ele>487.66666666666663</ele><time>2026-04-30T13:04:35.999Z</time></trkpt><trkpt lat="37.91916645825314" lon="13.585170355368996"><ele>485.0</ele><time>2026-04-30T13:04:36.999Z</time></trkpt><trkpt lat="37.91913305691819" lon="13.5849705173611"><ele>485.0</ele><time>2026-04-30T13:04:37.999Z</time></trkpt><trkpt lat="37.91909524845923" lon="13.584792267655269"><ele>485.0</ele><time>2026-04-30T13:04:38.999Z</time></trkpt><trkpt lat="37.91906676745363" lon="13.584633988612607"><ele>485.0</ele><time>2026-04-30T13:04:39.999Z</time></trkpt><trkpt lat="37.91907541025484" lon="13.58447442426143"><ele>485.0</ele><time>2026-04-30T13:04:40.999Z</time></trkpt><trkpt lat="37.91913193032815" lon="13.584376305059235"><ele>484.75</ele><time>2026-04-30T13:04:41.999Z</time></trkpt><trkpt lat="37.91922767941239" lon="13.584273434832324"><ele>484.5</ele><time>2026-04-30T13:04:42.999Z</time></trkpt><trkpt lat="37.91935200283592" lon="13.584180462895127"><ele>484.25</ele><time>2026-04-30T13:04:43.999Z</time></trkpt><trkpt lat="37.919484999122204" lon="13.584089948317738"><ele>484.0</ele><time>2026-04-30T13:04:44.999Z</time></trkpt><trkpt lat="37.91960770403772" lon="13.583980859015627"><ele>487.75</ele><time>2026-04-30T13:04:45.999Z</time></trkpt><trkpt lat="37.91969236704504" lon="13.583844612795616"><ele>491.5</ele><time>2026-04-30T13:04:46.999Z</time></trkpt><trkpt lat="37.919735718140885" lon="13.583684550671403"><ele>495.25</ele><time>2026-04-30T13:04:47.999Z</time></trkpt><trkpt lat="37.91974189786736" lon="13.583496530209276"><ele>499.0</ele><time>2026-04-30T13:04:48.999Z</time></trkpt><trkpt lat="37.919734697622" lon="13.583289012990374"><ele>499.6666666666667</ele><time>2026-04-30T13:04:49.999Z</time></trkpt><trkpt lat="37.919746339075935" lon="13.583076037376292"><ele>500.33333333333337</ele><time>2026-04-30T13:04:50.999Z</time></trkpt><trkpt lat="37.9197826633559" lon="13.582853498777192"><ele>501.0</ele><time>2026-04-30T13:04:51.999Z</time></trkpt><trkpt lat="37.91983190588254" lon="13.582629629248762"><ele>501.0</ele><time>2026-04-30T13:04:52.999Z</time></trkpt><trkpt lat="37.919887782451205" lon="13.582400992864"><ele>501.0</ele><time>2026-04-30T13:04:53.999Z</time></trkpt><trkpt lat="37.91994898932292" lon="13.582173681095487"><ele>501.0</ele><time>2026-04-30T13:04:54.999Z</time></trkpt><trkpt lat="37.92000811067604" lon="13.581958743866885"><ele>507.66666666666663</ele><time>2026-04-30T13:04:55.999Z</time></trkpt><trkpt lat="37.920070277624255" lon="13.581757410354529"><ele>514.3333333333333</ele><time>2026-04-30T13:04:56.999Z</time></trkpt><trkpt lat="37.92013711573818" lon="13.581563125430161"><ele>521.0</ele><time>2026-04-30T13:04:57.999Z</time></trkpt><trkpt lat="37.92020470523963" lon="13.581374799329646"><ele>521.0</ele><time>2026-04-30T13:04:58.999Z</time></trkpt><trkpt lat="37.92026244111506" lon="13.581191875448232"><ele>521.0</ele><time>2026-04-30T13:04:59.999Z</time></trkpt><trkpt lat="37.92030051942876" lon="13.581004248168671"><ele>521.0</ele><time>2026-04-30T13:05:00.999Z</time></trkpt><trkpt lat="37.92029218617711" lon="13.580794189105099"><ele>521.3333333333333</ele><time>2026-04-30T13:05:01.999Z</time></trkpt><trkpt lat="37.92023951820955" lon="13.580589651686065"><ele>521.6666666666666</ele><time>2026-04-30T13:05:02.999Z</time></trkpt><trkpt lat="37.920153701137174" lon="13.580399483730883"><ele>522.0</ele><time>2026-04-30T13:05:03.999Z</time></trkpt><trkpt lat="37.920084918621754" lon="13.580217884248338"><ele>522.0</ele><time>2026-04-30T13:05:04.999Z</time></trkpt><trkpt lat="37.920047188470214" lon="13.580045003711149"><ele>522.0</ele><time>2026-04-30T13:05:05.999Z</time></trkpt><trkpt lat="37.92004525502962" lon="13.57986858508277"><ele>522.0</ele><time>2026-04-30T13:05:06.999Z</time></trkpt><trkpt lat="37.92008547890985" lon="13.57969029086491"><ele>522.0</ele><time>2026-04-30T13:05:07.999Z</time></trkpt><trkpt lat="37.920160315231946" lon="13.579513427208427"><ele>522.6666666666666</ele><time>2026-04-30T13:05:08.999Z</time></trkpt><trkpt lat="37.920231550214325" lon="13.579327825323276"><ele>523.3333333333333</ele><time>2026-04-30T13:05:09.999Z</time></trkpt><trkpt lat="37.92029178879882" lon="13.579137034719169"><ele>524.0</ele><time>2026-04-30T13:05:10.999Z</time></trkpt><trkpt lat="37.92035127255706" lon="13.578943070963339"><ele>524.0</ele><time>2026-04-30T13:05:11.999Z</time></trkpt><trkpt lat="37.920413599262055" lon="13.578751297546248"><ele>524.0</ele><time>2026-04-30T13:05:12.999Z</time></trkpt><trkpt lat="37.920474686388886" lon="13.57855271699184"><ele>524.0</ele><time>2026-04-30T13:05:13.999Z</time></trkpt><trkpt lat="37.9205386847912" lon="13.578359831591088"><ele>523.0</ele><time>2026-04-30T13:05:14.999Z</time></trkpt><trkpt lat="37.92059700969722" lon="13.578175350611518"><ele>522.0</ele><time>2026-04-30T13:05:15.999Z</time></trkpt><trkpt lat="37.92065432366965" lon="13.577990558738568"><ele>521.0</ele><time>2026-04-30T13:05:16.999Z</time></trkpt><trkpt lat="37.92070735736909" lon="13.57780041604305"><ele>520.6666666666666</ele><time>2026-04-30T13:05:17.999Z</time></trkpt><trkpt lat="37.920747738050856" lon="13.577596023575746"><ele>520.3333333333334</ele><time>2026-04-30T13:05:18.999Z</time></trkpt><trkpt lat="37.92076512785645" lon="13.577384489444878"><ele>520.0</ele><time>2026-04-30T13:05:19.999Z</time></trkpt><trkpt lat="37.920775990666726" lon="13.57718983124241"><ele>520.0</ele><time>2026-04-30T13:05:20.999Z</time></trkpt><trkpt lat="37.92079454141226" lon="13.577009940569377"><ele>520.0</ele><time>2026-04-30T13:05:21.999Z</time></trkpt><trkpt lat="37.920824439700326" lon="13.576829562147648"><ele>520.0</ele><time>2026-04-30T13:05:22.999Z</time></trkpt><trkpt lat="37.920869728109196" lon="13.576640737167775"><ele>520.0</ele><time>2026-04-30T13:05:23.999Z</time></trkpt><trkpt lat="37.920941409819136" lon="13.576452371626212"><ele>524.0</ele><time>2026-04-30T13:05:24.999Z</time></trkpt><trkpt lat="37.92103595284945" lon="13.576275374889676"><ele>528.0</ele><time>2026-04-30T13:05:25.999Z</time></trkpt><trkpt lat="37.92114640396208" lon="13.576108480575883"><ele>532.0</ele><time>2026-04-30T13:05:26.999Z</time></trkpt><trkpt lat="37.921249888088816" lon="13.575950027202923"><ele>532.0</ele><time>2026-04-30T13:05:27.999Z</time></trkpt><trkpt lat="37.92134211535939" lon="13.575802607166674"><ele>532.0</ele><time>2026-04-30T13:05:28.999Z</time></trkpt><trkpt lat="37.92144751169095" lon="13.57566955187516"><ele>532.0</ele><time>2026-04-30T13:05:29.999Z</time></trkpt><trkpt lat="37.921578268068124" lon="13.575579357520729"><ele>532.0</ele><time>2026-04-30T13:05:30.999Z</time></trkpt><trkpt lat="37.92172335866714" lon="13.575518706621406"><ele>533.25</ele><time>2026-04-30T13:05:31.999Z</time></trkpt><trkpt lat="37.92185139556533" lon="13.575461204642263"><ele>534.5</ele><time>2026-04-30T13:05:32.999Z</time></trkpt><trkpt lat="37.92195643264687" lon="13.575382434223725"><ele>535.75</ele><time>2026-04-30T13:05:33.999Z</time></trkpt><trkpt lat="37.922041892732345" lon="13.575294530373952"><ele>537.0</ele><time>2026-04-30T13:05:34.999Z</time></trkpt><trkpt lat="37.92210969329537" lon="13.575192378641015"><ele>537.0</ele><time>2026-04-30T13:05:35.999Z</time></trkpt><trkpt lat="37.92216477474731" lon="13.575081848060751"><ele>537.0</ele><time>2026-04-30T13:05:36.999Z</time></trkpt><trkpt lat="37.922204230810216" lon="13.574966492457765"><ele>537.0</ele><time>2026-04-30T13:05:37.999Z</time></trkpt><trkpt lat="37.92224245306886" lon="13.57485543054824"><ele>537.0</ele><time>2026-04-30T13:05:38.999Z</time></trkpt><trkpt lat="37.92228124640359" lon="13.574744977940062"><ele>537.0</ele><time>2026-04-30T13:05:39.999Z</time></trkpt><trkpt lat="37.92231810312653" lon="13.574640516994474"><ele>537.0</ele><time>2026-04-30T13:05:40.999Z</time></trkpt><trkpt lat="37.92235267016063" lon="13.574544237477696"><ele>537.0</ele><time>2026-04-30T13:05:41.999Z</time></trkpt><trkpt lat="37.9223872974771" lon="13.574453792540538"><ele>537.0</ele><time>2026-04-30T13:05:42.999Z</time></trkpt><trkpt lat="37.92241572815418" lon="13.574356821198839"><ele>537.0</ele><time>2026-04-30T13:05:43.999Z</time></trkpt><trkpt lat="37.92243811397521" lon="13.574247284089981"><ele>537.0</ele><time>2026-04-30T13:05:44.999Z</time></trkpt><trkpt lat="37.92246579715033" lon="13.57412391418616"><ele>537.0</ele><time>2026-04-30T13:05:46Z</time></trkpt><trkpt lat="37.92249016825098" lon="13.573990161336232"><ele>537.2</ele><time>2026-04-30T13:05:47Z</time></trkpt><trkpt lat="37.922517546841604" lon="13.573859494462644"><ele>537.4000000000001</ele><time>2026-04-30T13:05:48Z</time></trkpt><trkpt lat="37.92253600234117" lon="13.573735690889968"><ele>537.5999999999999</ele><time>2026-04-30T13:05:49Z</time></trkpt><trkpt lat="37.92255139615735" lon="13.573617672100541"><ele>537.8</ele><time>2026-04-30T13:05:50Z</time></trkpt><trkpt lat="37.92256697966001" lon="13.573498885872738"><ele>538.0</ele><time>2026-04-30T13:05:51Z</time></trkpt><trkpt lat="37.922584872611075" lon="13.573387678772452"><ele>538.0</ele><time>2026-04-30T13:05:52Z</time></trkpt><trkpt lat="37.92260316949573" lon="13.57327817557163"><ele>538.0</ele><time>2026-04-30T13:05:53Z</time></trkpt><trkpt lat="37.92262027109568" lon="13.573170079201455"><ele>538.0</ele><time>2026-04-30T13:05:54Z</time></trkpt><trkpt lat="37.922639448212664" lon="13.57305273666342"><ele>538.0</ele><time>2026-04-30T13:05:55Z</time></trkpt><trkpt lat="37.92265363551337" lon="13.572922151421606"><ele>538.0</ele><time>2026-04-30T13:05:56Z</time></trkpt><trkpt lat="37.92266878889205" lon="13.572789566111684"><ele>537.8</ele><time>2026-04-30T13:05:57Z</time></trkpt><trkpt lat="37.9227008529678" lon="13.572672547798305"><ele>537.5999999999999</ele><time>2026-04-30T13:05:58Z</time></trkpt><trkpt lat="37.92269796000618" lon="13.572546885626162"><ele>537.4000000000001</ele><time>2026-04-30T13:05:59Z</time></trkpt><trkpt lat="37.92271719039482" lon="13.572427727932176"><ele>537.2</ele><time>2026-04-30T13:06:00Z</time></trkpt><trkpt lat="37.922735883888336" lon="13.572292687599022"><ele>537.0</ele><time>2026-04-30T13:06:01Z</time></trkpt><trkpt lat="37.92275082696275" lon="13.572139278568441"><ele>536.5</ele><time>2026-04-30T13:06:02Z</time></trkpt><trkpt lat="37.92276631351608" lon="13.571977079686548"><ele>536.0</ele><time>2026-04-30T13:06:03Z</time></trkpt><trkpt lat="37.9227957216355" lon="13.571811943311484"><ele>535.5</ele><time>2026-04-30T13:06:04Z</time></trkpt><trkpt lat="37.922826203598675" lon="13.57165182939653"><ele>535.0</ele><time>2026-04-30T13:06:05Z</time></trkpt><trkpt lat="37.922854345014514" lon="13.571500290649933"><ele>535.0</ele><time>2026-04-30T13:06:06Z</time></trkpt><trkpt lat="37.92288356094024" lon="13.571356898784641"><ele>535.0</ele><time>2026-04-30T13:06:07Z</time></trkpt><trkpt lat="37.922896505184475" lon="13.571212329540238"><ele>535.0</ele><time>2026-04-30T13:06:08Z</time></trkpt><trkpt lat="37.92288838302121" lon="13.571072927342883"><ele>535.0</ele><time>2026-04-30T13:06:09Z</time></trkpt><trkpt lat="37.92286038847078" lon="13.570937244244982"><ele>534.8</ele><time>2026-04-30T13:06:10Z</time></trkpt><trkpt lat="37.92282301271815" lon="13.570802377546835"><ele>534.6</ele><time>2026-04-30T13:06:11Z</time></trkpt><trkpt lat="37.9227906568748" lon="13.570674200370119"><ele>534.4</ele><time>2026-04-30T13:06:12Z</time></trkpt><trkpt lat="37.92276286820408" lon="13.570547075291573"><ele>534.2</ele><time>2026-04-30T13:06:13Z</time></trkpt><trkpt lat="37.92273078529723" lon="13.570420213155337"><ele>534.0</ele><time>2026-04-30T13:06:14Z</time></trkpt><trkpt lat="37.9227013764435" lon="13.570286098244027"><ele>533.8333333333334</ele><time>2026-04-30T13:06:15Z</time></trkpt><trkpt lat="37.92267258388827" lon="13.570157039986087"><ele>533.6666666666666</ele><time>2026-04-30T13:06:16Z</time></trkpt><trkpt lat="37.922644729677295" lon="13.570032556928549"><ele>533.5</ele><time>2026-04-30T13:06:17Z</time></trkpt><trkpt lat="37.922620048718954" lon="13.569926900964884"><ele>533.3333333333333</ele><time>2026-04-30T13:06:18Z</time></trkpt><trkpt lat="37.92259998623465" lon="13.569839313982765"><ele>533.1666666666666</ele><time>2026-04-30T13:06:19Z</time></trkpt><trkpt lat="37.92258586384108" lon="13.569754191383845"><ele>533.0</ele><time>2026-04-30T13:06:20Z</time></trkpt><trkpt lat="37.92257050027686" lon="13.569675303439626"><ele>531.1999999999999</ele><time>2026-04-30T13:06:21Z</time></trkpt><trkpt lat="37.922538112614305" lon="13.569551195150684"><ele>529.4</ele><time>2026-04-30T13:06:23Z</time></trkpt><trkpt lat="37.922517258217106" lon="13.56944320121475"><ele>527.5999999999999</ele><time>2026-04-30T13:06:25Z</time></trkpt><trkpt lat="37.92248818310343" lon="13.569316295093438"><ele>525.8</ele><time>2026-04-30T13:06:27Z</time></trkpt><trkpt lat="37.92245876612623" lon="13.569169158208954"><ele>524.0</ele><time>2026-04-30T13:06:29Z</time></trkpt><trkpt lat="37.92244029714023" lon="13.569090472510569"><ele>524.0</ele><time>2026-04-30T13:06:30Z</time></trkpt><trkpt lat="37.92242141301483" lon="13.569010411801642"><ele>524.0</ele><time>2026-04-30T13:06:31Z</time></trkpt><trkpt lat="37.92239567377598" lon="13.568931585012267"><ele>524.0</ele><time>2026-04-30T13:06:32Z</time></trkpt><trkpt lat="37.92236733020729" lon="13.56885917927986"><ele>524.0</ele><time>2026-04-30T13:06:33Z</time></trkpt><trkpt lat="37.922277359790236" lon="13.56872804686105"><ele>524.0</ele><time>2026-04-30T13:06:35Z</time></trkpt><trkpt lat="37.92223735865126" lon="13.568647103682052"><ele>524.0</ele><time>2026-04-30T13:06:36Z</time></trkpt><trkpt lat="37.92220665913662" lon="13.568551829961978"><ele>523.6</ele><time>2026-04-30T13:06:37Z</time></trkpt><trkpt lat="37.922193956432245" lon="13.568437739626429"><ele>523.2</ele><time>2026-04-30T13:06:38Z</time></trkpt><trkpt lat="37.92214453025101" lon="13.568315257596344"><ele>522.8000000000001</ele><time>2026-04-30T13:06:39Z</time></trkpt><trkpt lat="37.92210315197878" lon="13.568185976685234"><ele>522.4</ele><time>2026-04-30T13:06:40Z</time></trkpt><trkpt lat="37.92206581759439" lon="13.568051515461047"><ele>522.0</ele><time>2026-04-30T13:06:41Z</time></trkpt><trkpt lat="37.92202984576084" lon="13.567917236966784"><ele>520.0</ele><time>2026-04-30T13:06:42Z</time></trkpt><trkpt lat="37.92199894031601" lon="13.567778958873912"><ele>518.0</ele><time>2026-04-30T13:06:42.999Z</time></trkpt><trkpt lat="37.92196562221033" lon="13.567637352600592"><ele>516.0</ele><time>2026-04-30T13:06:43.999Z</time></trkpt><trkpt lat="37.92193245291248" lon="13.567495960534924"><ele>514.0</ele><time>2026-04-30T13:06:44.999Z</time></trkpt><trkpt lat="37.92189779668977" lon="13.567351563702298"><ele>514.0</ele><time>2026-04-30T13:06:45.999Z</time></trkpt><trkpt lat="37.921861940934875" lon="13.567212112858547"><ele>514.0</ele><time>2026-04-30T13:06:46.999Z</time></trkpt><trkpt lat="37.92182460796485" lon="13.567072581668835"><ele>514.0</ele><time>2026-04-30T13:06:47.999Z</time></trkpt><trkpt lat="37.921787612156464" lon="13.566932998346367"><ele>514.0</ele><time>2026-04-30T13:06:48.999Z</time></trkpt><trkpt lat="37.92173886171537" lon="13.56679478554742"><ele>513.25</ele><time>2026-04-30T13:06:49.999Z</time></trkpt><trkpt lat="37.92167555395554" lon="13.566662383174352"><ele>512.5</ele><time>2026-04-30T13:06:50.999Z</time></trkpt><trkpt lat="37.92159756389208" lon="13.566534196027744"><ele>511.75</ele><time>2026-04-30T13:06:51.999Z</time></trkpt><trkpt lat="37.921520750206206" lon="13.566403905705245"><ele>511.0</ele><time>2026-04-30T13:06:52.999Z</time></trkpt><trkpt lat="37.921440780326556" lon="13.56630199999099"><ele>511.0</ele><time>2026-04-30T13:06:53.999Z</time></trkpt><trkpt lat="37.921365715760615" lon="13.566211243868457"><ele>511.0</ele><time>2026-04-30T13:06:54.999Z</time></trkpt><trkpt lat="37.921286024390476" lon="13.566135783420508"><ele>511.0</ele><time>2026-04-30T13:06:55.999Z</time></trkpt><trkpt lat="37.921213848013835" lon="13.566063172630841"><ele>511.0</ele><time>2026-04-30T13:06:56.999Z</time></trkpt><trkpt lat="37.92113565579012" lon="13.565991831684181"><ele>511.0</ele><time>2026-04-30T13:06:57.999Z</time></trkpt><trkpt lat="37.92104066440386" lon="13.56590913907389"><ele>512.0</ele><time>2026-04-30T13:06:58.999Z</time></trkpt><trkpt lat="37.92093163745392" lon="13.565825362246812"><ele>513.0</ele><time>2026-04-30T13:06:59.999Z</time></trkpt><trkpt lat="37.92081703817462" lon="13.565728067816071"><ele>514.0</ele><time>2026-04-30T13:07:00.999Z</time></trkpt><trkpt lat="37.920708448170934" lon="13.565626987162245"><ele>515.0</ele><time>2026-04-30T13:07:01.999Z</time></trkpt><trkpt lat="37.920616023946714" lon="13.565531970738835"><ele>515.0</ele><time>2026-04-30T13:07:02.999Z</time></trkpt><trkpt lat="37.920531637852505" lon="13.565444154520076"><ele>515.0</ele><time>2026-04-30T13:07:03.999Z</time></trkpt><trkpt lat="37.92045399080702" lon="13.565361157929347"><ele>515.0</ele><time>2026-04-30T13:07:04.999Z</time></trkpt><trkpt lat="37.92038329879295" lon="13.56528643466527"><ele>515.0</ele><time>2026-04-30T13:07:05.999Z</time></trkpt><trkpt lat="37.9203191771851" lon="13.565225558522068"><ele>515.0</ele><time>2026-04-30T13:07:06.999Z</time></trkpt><trkpt lat="37.92026187964858" lon="13.565177388188323"><ele>515.8</ele><time>2026-04-30T13:07:07.999Z</time></trkpt><trkpt lat="37.92018235872448" lon="13.565129292561014"><ele>516.6</ele><time>2026-04-30T13:07:09.999Z</time></trkpt><trkpt lat="37.920092166559236" lon="13.564983556073827"><ele>517.4</ele><time>2026-04-30T13:07:41.999Z</time></trkpt><trkpt lat="37.92005288022728" lon="13.564910422067019"><ele>518.2</ele><time>2026-04-30T13:07:42.999Z</time></trkpt><trkpt lat="37.91999509061222" lon="13.564838029853975"><ele>519.0</ele><time>2026-04-30T13:07:43.999Z</time></trkpt><trkpt lat="37.91992968956135" lon="13.56476530448252"><ele>519.0</ele><time>2026-04-30T13:07:44.999Z</time></trkpt><trkpt lat="37.919861782748235" lon="13.564683952744433"><ele>519.0</ele><time>2026-04-30T13:07:45.999Z</time></trkpt><trkpt lat="37.91979101786821" lon="13.564590255196528"><ele>519.0</ele><time>2026-04-30T13:07:46.999Z</time></trkpt><trkpt lat="37.919713265964916" lon="13.564481971996976"><ele>519.0</ele><time>2026-04-30T13:07:47.999Z</time></trkpt><trkpt lat="37.91962928264439" lon="13.56436734975994"><ele>519.0</ele><time>2026-04-30T13:07:48.999Z</time></trkpt><trkpt lat="37.91953575568694" lon="13.564236169793146"><ele>520.3333333333334</ele><time>2026-04-30T13:07:49.999Z</time></trkpt><trkpt lat="37.91942956283832" lon="13.564122128221857"><ele>521.6666666666667</ele><time>2026-04-30T13:07:50.999Z</time></trkpt><trkpt lat="37.9192774583274" lon="13.56404164774013"><ele>523.0</ele><time>2026-04-30T13:07:52Z</time></trkpt><trkpt lat="37.9190937440033" lon="13.563984448735404"><ele>523.0</ele><time>2026-04-30T13:07:53Z</time></trkpt><trkpt lat="37.918916438229004" lon="13.563931669895512"><ele>523.0</ele><time>2026-04-30T13:07:54Z</time></trkpt><trkpt lat="37.91875354402176" lon="13.563878280169172"><ele>523.0</ele><time>2026-04-30T13:07:55Z</time></trkpt><trkpt lat="37.91859407614675" lon="13.563811546296186"><ele>523.0</ele><time>2026-04-30T13:07:56Z</time></trkpt><trkpt lat="37.9184309772478" lon="13.563749755657629"><ele>523.0</ele><time>2026-04-30T13:07:57Z</time></trkpt><trkpt lat="37.91826139230219" lon="13.563692257210155"><ele>523.0</ele><time>2026-04-30T13:07:58Z</time></trkpt><trkpt lat="37.91808709291843" lon="13.563642331888863"><ele>528.0</ele><time>2026-04-30T13:07:59Z</time></trkpt><trkpt lat="37.917919399587035" lon="13.56361518186453"><ele>533.0</ele><time>2026-04-30T13:08:00Z</time></trkpt><trkpt lat="37.917755882882304" lon="13.563623724164927"><ele>538.0</ele><time>2026-04-30T13:08:01Z</time></trkpt><trkpt lat="37.9175947835148" lon="13.563655678524176"><ele>540.3333333333334</ele><time>2026-04-30T13:08:02Z</time></trkpt><trkpt lat="37.917437648558106" lon="13.563696888120512"><ele>542.6666666666666</ele><time>2026-04-30T13:08:03Z</time></trkpt><trkpt lat="37.91728706064939" lon="13.563753435605728"><ele>545.0</ele><time>2026-04-30T13:08:04Z</time></trkpt><trkpt lat="37.91714446838987" lon="13.563825766566884"><ele>540.6666666666666</ele><time>2026-04-30T13:08:05Z</time></trkpt><trkpt lat="37.91700472526089" lon="13.563913683032723"><ele>536.3333333333334</ele><time>2026-04-30T13:08:06Z</time></trkpt><trkpt lat="37.91686570271697" lon="13.563996361214556"><ele>532.0</ele><time>2026-04-30T13:08:07Z</time></trkpt><trkpt lat="37.91672338362851" lon="13.564069325056591"><ele>532.0</ele><time>2026-04-30T13:08:08Z</time></trkpt><trkpt lat="37.91658483744859" lon="13.564120912370676"><ele>532.0</ele><time>2026-04-30T13:08:09Z</time></trkpt><trkpt lat="37.91644960721187" lon="13.564128088759906"><ele>532.0</ele><time>2026-04-30T13:08:10Z</time></trkpt><trkpt lat="37.91633051416279" lon="13.564079842977302"><ele>532.0</ele><time>2026-04-30T13:08:11Z</time></trkpt><trkpt lat="37.91622975669147" lon="13.563986759938297"><ele>532.0</ele><time>2026-04-30T13:08:12Z</time></trkpt><trkpt lat="37.91614267064108" lon="13.56386479433464"><ele>532.0</ele><time>2026-04-30T13:08:13Z</time></trkpt><trkpt lat="37.916064708124495" lon="13.563745118021368"><ele>532.0</ele><time>2026-04-30T13:08:14Z</time></trkpt><trkpt lat="37.915983682350216" lon="13.563633960050156"><ele>532.0</ele><time>2026-04-30T13:08:15Z</time></trkpt><trkpt lat="37.91590838764026" lon="13.563519569336208"><ele>534.75</ele><time>2026-04-30T13:08:16Z</time></trkpt><trkpt lat="37.9158529429791" lon="13.563391940451382"><ele>537.5</ele><time>2026-04-30T13:08:17Z</time></trkpt><trkpt lat="37.91581112855618" lon="13.563248591437134"><ele>540.25</ele><time>2026-04-30T13:08:18Z</time></trkpt><trkpt lat="37.91576723771298" lon="13.563102696368874"><ele>543.0</ele><time>2026-04-30T13:08:19Z</time></trkpt><trkpt lat="37.91572306719315" lon="13.562953567564483"><ele>546.5</ele><time>2026-04-30T13:08:20Z</time></trkpt><trkpt lat="37.91567556581177" lon="13.562800568712097"><ele>550.0</ele><time>2026-04-30T13:08:21Z</time></trkpt><trkpt lat="37.91562448780077" lon="13.56264189170997"><ele>553.5</ele><time>2026-04-30T13:08:22Z</time></trkpt><trkpt lat="37.915571769358095" lon="13.562476147224153"><ele>557.0</ele><time>2026-04-30T13:08:23Z</time></trkpt><trkpt lat="37.91552183465968" lon="13.562305923597611"><ele>557.0</ele><time>2026-04-30T13:08:24Z</time></trkpt><trkpt lat="37.915472538731805" lon="13.562127866243314"><ele>557.0</ele><time>2026-04-30T13:08:25Z</time></trkpt><trkpt lat="37.915420585548915" lon="13.561946263051073"><ele>557.0</ele><time>2026-04-30T13:08:26Z</time></trkpt><trkpt lat="37.915357733913595" lon="13.561768052125815"><ele>556.0</ele><time>2026-04-30T13:08:27Z</time></trkpt><trkpt lat="37.91527240527035" lon="13.56162120088971"><ele>555.0</ele><time>2026-04-30T13:08:28Z</time></trkpt><trkpt lat="37.915160510043826" lon="13.561522088184379"><ele>554.0</ele><time>2026-04-30T13:08:29Z</time></trkpt><trkpt lat="37.9150253990382" lon="13.56145432963089"><ele>553.0</ele><time>2026-04-30T13:08:30Z</time></trkpt><trkpt lat="37.91488192013785" lon="13.561382260503333"><ele>553.0</ele><time>2026-04-30T13:08:31Z</time></trkpt><trkpt lat="37.91473968867562" lon="13.561284091722941"><ele>553.0</ele><time>2026-04-30T13:08:32Z</time></trkpt><trkpt lat="37.9145947352667" lon="13.561168680002558"><ele>553.0</ele><time>2026-04-30T13:08:33Z</time></trkpt><trkpt lat="37.91444541745529" lon="13.561043313230984"><ele>555.3333333333334</ele><time>2026-04-30T13:08:34Z</time></trkpt><trkpt lat="37.91429082154395" lon="13.560918596755839"><ele>557.6666666666666</ele><time>2026-04-30T13:08:35Z</time></trkpt><trkpt lat="37.91413853660561" lon="13.560799983884644"><ele>560.0</ele><time>2026-04-30T13:08:36Z</time></trkpt><trkpt lat="37.913979157826795" lon="13.560683780177838"><ele>560.0</ele><time>2026-04-30T13:08:37Z</time></trkpt><trkpt lat="37.91381415601415" lon="13.560557743277627"><ele>560.0</ele><time>2026-04-30T13:08:38Z</time></trkpt><trkpt lat="37.913649855163996" lon="13.56042827715939"><ele>560.0</ele><time>2026-04-30T13:08:39Z</time></trkpt><trkpt lat="37.9134865400138" lon="13.560301826990703"><ele>562.0</ele><time>2026-04-30T13:08:40Z</time></trkpt><trkpt lat="37.91333207809585" lon="13.560184424256342"><ele>564.0</ele><time>2026-04-30T13:08:41Z</time></trkpt><trkpt lat="37.91318328524499" lon="13.560076622609616"><ele>566.0</ele><time>2026-04-30T13:08:41.999Z</time></trkpt><trkpt lat="37.913033190370705" lon="13.559990268375309"><ele>566.0</ele><time>2026-04-30T13:08:42.999Z</time></trkpt><trkpt lat="37.91287398231715" lon="13.559940600379049"><ele>566.0</ele><time>2026-04-30T13:08:43.999Z</time></trkpt><trkpt lat="37.912708757918736" lon="13.559918037291983"><ele>566.0</ele><time>2026-04-30T13:08:44.999Z</time></trkpt><trkpt lat="37.91254713110657" lon="13.559893210513215"><ele>565.3333333333333</ele><time>2026-04-30T13:08:45.999Z</time></trkpt><trkpt lat="37.91239526923061" lon="13.559829628037324"><ele>564.6666666666666</ele><time>2026-04-30T13:08:46.999Z</time></trkpt><trkpt lat="37.91224673163172" lon="13.559733317087465"><ele>564.0</ele><time>2026-04-30T13:08:47.999Z</time></trkpt><trkpt lat="37.91209877241571" lon="13.55962911302131"><ele>564.0</ele><time>2026-04-30T13:08:48.999Z</time></trkpt><trkpt lat="37.911952272204616" lon="13.55953810143672"><ele>564.0</ele><time>2026-04-30T13:08:49.999Z</time></trkpt><trkpt lat="37.91180980527768" lon="13.559451823206267"><ele>564.0</ele><time>2026-04-30T13:08:50.999Z</time></trkpt><trkpt lat="37.911679166124024" lon="13.559377912740912"><ele>566.0</ele><time>2026-04-30T13:08:51.999Z</time></trkpt><trkpt lat="37.9115583679859" lon="13.559306724576818"><ele>568.0</ele><time>2026-04-30T13:08:52.999Z</time></trkpt><trkpt lat="37.911456208765685" lon="13.559242293546754"><ele>570.0</ele><time>2026-04-30T13:08:53.999Z</time></trkpt><trkpt lat="37.91137338223172" lon="13.559166433882119"><ele>572.0</ele><time>2026-04-30T13:08:54.999Z</time></trkpt><trkpt lat="37.911317708498544" lon="13.559064175185512"><ele>574.0</ele><time>2026-04-30T13:08:55.999Z</time></trkpt><trkpt lat="37.9113035918215" lon="13.55893958308068"><ele>574.0</ele><time>2026-04-30T13:08:56.999Z</time></trkpt><trkpt lat="37.91133523499574" lon="13.55880774025907"><ele>574.0</ele><time>2026-04-30T13:08:57.999Z</time></trkpt><trkpt lat="37.91140661765617" lon="13.558676785604417"><ele>574.0</ele><time>2026-04-30T13:08:58.999Z</time></trkpt><trkpt lat="37.91150514524047" lon="13.558556764759008"><ele>574.0</ele><time>2026-04-30T13:08:59.999Z</time></trkpt><trkpt lat="37.911608940944255" lon="13.558441118058258"><ele>575.0</ele><time>2026-04-30T13:09:00.999Z</time></trkpt><trkpt lat="37.91170788549665" lon="13.558313466125115"><ele>576.0</ele><time>2026-04-30T13:09:01.999Z</time></trkpt><trkpt lat="37.911804638156994" lon="13.558151763367896"><ele>577.0</ele><time>2026-04-30T13:09:02.999Z</time></trkpt><trkpt lat="37.911892322667065" lon="13.557976894738138"><ele>583.3333333333334</ele><time>2026-04-30T13:09:03.999Z</time></trkpt><trkpt lat="37.9119822432527" lon="13.557782198055097"><ele>589.6666666666666</ele><time>2026-04-30T13:09:04.999Z</time></trkpt><trkpt lat="37.91207080755496" lon="13.5575820030849"><ele>596.0</ele><time>2026-04-30T13:09:05.999Z</time></trkpt><trkpt lat="37.912149931317224" lon="13.557391379415007"><ele>596.0</ele><time>2026-04-30T13:09:06.999Z</time></trkpt><trkpt lat="37.91223096182286" lon="13.557201940660788"><ele>596.0</ele><time>2026-04-30T13:09:07.999Z</time></trkpt><trkpt lat="37.91230105176663" lon="13.557023504947633"><ele>596.0</ele><time>2026-04-30T13:09:08.999Z</time></trkpt><trkpt lat="37.91235231788686" lon="13.556841668808374"><ele>595.6666666666666</ele><time>2026-04-30T13:09:09.999Z</time></trkpt><trkpt lat="37.912378741306945" lon="13.556648177371438"><ele>595.3333333333334</ele><time>2026-04-30T13:09:10.999Z</time></trkpt><trkpt lat="37.91239075769087" lon="13.556448893238349"><ele>595.0</ele><time>2026-04-30T13:09:11.999Z</time></trkpt><trkpt lat="37.91239636750188" lon="13.556250028740825"><ele>594.25</ele><time>2026-04-30T13:09:12.999Z</time></trkpt><trkpt lat="37.9124105803079" lon="13.55605964008118"><ele>593.5</ele><time>2026-04-30T13:09:13.999Z</time></trkpt><trkpt lat="37.91243282136272" lon="13.55587991394586"><ele>592.75</ele><time>2026-04-30T13:09:14.999Z</time></trkpt><trkpt lat="37.91246439438418" lon="13.555704451171005"><ele>592.0</ele><time>2026-04-30T13:09:15.999Z</time></trkpt><trkpt lat="37.91250511764902" lon="13.555534628639755"><ele>592.0</ele><time>2026-04-30T13:09:16.999Z</time></trkpt><trkpt lat="37.912570680460405" lon="13.555376677879934"><ele>592.0</ele><time>2026-04-30T13:09:17.999Z</time></trkpt><trkpt lat="37.912658145799554" lon="13.555228239809143"><ele>592.0</ele><time>2026-04-30T13:09:18.999Z</time></trkpt><trkpt lat="37.91275610883173" lon="13.555084888198262"><ele>592.0</ele><time>2026-04-30T13:09:19.999Z</time></trkpt><trkpt lat="37.912846013124785" lon="13.554940582224624"><ele>591.5</ele><time>2026-04-30T13:09:20.999Z</time></trkpt><trkpt lat="37.91292820281033" lon="13.554796911435105"><ele>591.0</ele><time>2026-04-30T13:09:21.999Z</time></trkpt><trkpt lat="37.91301226480388" lon="13.554659483636499"><ele>590.5</ele><time>2026-04-30T13:09:22.999Z</time></trkpt><trkpt lat="37.913107435444324" lon="13.554550140776284"><ele>590.0</ele><time>2026-04-30T13:09:23.999Z</time></trkpt><trkpt lat="37.91322489773828" lon="13.554485132861153"><ele>590.0</ele><time>2026-04-30T13:09:24.999Z</time></trkpt><trkpt lat="37.913359303842114" lon="13.554445334264049"><ele>590.0</ele><time>2026-04-30T13:09:25.999Z</time></trkpt><trkpt lat="37.913498008158356" lon="13.554415155645424"><ele>590.0</ele><time>2026-04-30T13:09:26.999Z</time></trkpt><trkpt lat="37.91362916319251" lon="13.554380006779501"><ele>590.0</ele><time>2026-04-30T13:09:27.999Z</time></trkpt><trkpt lat="37.91376201867143" lon="13.554368173072554"><ele>593.0</ele><time>2026-04-30T13:09:28.999Z</time></trkpt><trkpt lat="37.91390626064508" lon="13.554385687407786"><ele>596.0</ele><time>2026-04-30T13:09:29.999Z</time></trkpt><trkpt lat="37.91405010668945" lon="13.554423624322796"><ele>599.0</ele><time>2026-04-30T13:09:30.999Z</time></trkpt><trkpt lat="37.91419478429744" lon="13.554464770332173"><ele>602.0</ele><time>2026-04-30T13:09:31.999Z</time></trkpt><trkpt lat="37.91433898066076" lon="13.554498814674695"><ele>604.25</ele><time>2026-04-30T13:09:32.999Z</time></trkpt><trkpt lat="37.914481812848464" lon="13.554530784852679"><ele>606.5</ele><time>2026-04-30T13:09:33.999Z</time></trkpt><trkpt lat="37.914624275333395" lon="13.55456522890444"><ele>608.75</ele><time>2026-04-30T13:09:34.999Z</time></trkpt><trkpt lat="37.914770930255436" lon="13.554602931591743"><ele>611.0</ele><time>2026-04-30T13:09:35.999Z</time></trkpt><trkpt lat="37.9149181507191" lon="13.554649233989032"><ele>612.25</ele><time>2026-04-30T13:09:36.999Z</time></trkpt><trkpt lat="37.91505704954091" lon="13.55470752907327"><ele>613.5</ele><time>2026-04-30T13:09:37.999Z</time></trkpt><trkpt lat="37.91518363820225" lon="13.554774786592144"><ele>614.75</ele><time>2026-04-30T13:09:38.999Z</time></trkpt><trkpt lat="37.91530311875343" lon="13.554819879592435"><ele>616.0</ele><time>2026-04-30T13:09:39.999Z</time></trkpt><trkpt lat="37.915427651434086" lon="13.554823530941844"><ele>616.0</ele><time>2026-04-30T13:09:40.999Z</time></trkpt><trkpt lat="37.91554740456553" lon="13.554775357608259"><ele>616.0</ele><time>2026-04-30T13:09:41.999Z</time></trkpt><trkpt lat="37.915670644815954" lon="13.554704141150983"><ele>616.0</ele><time>2026-04-30T13:09:42.999Z</time></trkpt><trkpt lat="37.91579701481361" lon="13.554668162009262"><ele>616.0</ele><time>2026-04-30T13:09:43.999Z</time></trkpt><trkpt lat="37.915922436192695" lon="13.55468200807309"><ele>617.5</ele><time>2026-04-30T13:09:44.999Z</time></trkpt><trkpt lat="37.91604362444193" lon="13.554741916581966"><ele>619.0</ele><time>2026-04-30T13:09:45.999Z</time></trkpt><trkpt lat="37.91615970538393" lon="13.554818968293992"><ele>620.5</ele><time>2026-04-30T13:09:46.999Z</time></trkpt><trkpt lat="37.91627760344009" lon="13.554888697362802"><ele>622.0</ele><time>2026-04-30T13:09:47.999Z</time></trkpt><trkpt lat="37.91639011909783" lon="13.554942064743733"><ele>622.0</ele><time>2026-04-30T13:09:48.999Z</time></trkpt><trkpt lat="37.91649998554762" lon="13.554976810392347"><ele>622.0</ele><time>2026-04-30T13:09:49.999Z</time></trkpt><trkpt lat="37.91661060946146" lon="13.554986161080592"><ele>622.0</ele><time>2026-04-30T13:09:50.999Z</time></trkpt><trkpt lat="37.91672849315076" lon="13.554984002459488"><ele>622.0</ele><time>2026-04-30T13:09:51.999Z</time></trkpt><trkpt lat="37.916848589489014" lon="13.554968766389754"><ele>622.75</ele><time>2026-04-30T13:09:52.999Z</time></trkpt><trkpt lat="37.91696980511011" lon="13.554931947489068"><ele>623.5</ele><time>2026-04-30T13:09:53.999Z</time></trkpt><trkpt lat="37.91708943521228" lon="13.554879215587388"><ele>624.25</ele><time>2026-04-30T13:09:54.999Z</time></trkpt><trkpt lat="37.91719536149314" lon="13.554823414359234"><ele>625.0</ele><time>2026-04-30T13:09:55.999Z</time></trkpt><trkpt lat="37.91729054330281" lon="13.554768768858837"><ele>625.0</ele><time>2026-04-30T13:09:56.999Z</time></trkpt><trkpt lat="37.917380404138456" lon="13.554716346886995"><ele>625.0</ele><time>2026-04-30T13:09:58Z</time></trkpt><trkpt lat="37.917475005697604" lon="13.554659525638844"><ele>625.0</ele><time>2026-04-30T13:09:59Z</time></trkpt><trkpt lat="37.91757715897959" lon="13.554601648502466"><ele>625.0</ele><time>2026-04-30T13:10:00Z</time></trkpt><trkpt lat="37.91768208793529" lon="13.554545507054378"><ele>625.0</ele><time>2026-04-30T13:10:01Z</time></trkpt><trkpt lat="37.91777482796305" lon="13.554490424831124"><ele>625.4</ele><time>2026-04-30T13:10:02Z</time></trkpt><trkpt lat="37.91786198973816" lon="13.55443439633187"><ele>625.8</ele><time>2026-04-30T13:10:03Z</time></trkpt><trkpt lat="37.9179539040193" lon="13.554369732857364"><ele>626.2</ele><time>2026-04-30T13:10:04Z</time></trkpt><trkpt lat="37.91805307260468" lon="13.554297710036415"><ele>626.6</ele><time>2026-04-30T13:10:05Z</time></trkpt><trkpt lat="37.918156999120946" lon="13.55421846991203"><ele>627.0</ele><time>2026-04-30T13:10:06Z</time></trkpt><trkpt lat="37.9182672881643" lon="13.554125742409248"><ele>627.0</ele><time>2026-04-30T13:10:07Z</time></trkpt><trkpt lat="37.91837802516666" lon="13.554031745760376"><ele>627.0</ele><time>2026-04-30T13:10:08Z</time></trkpt><trkpt lat="37.91849807733339" lon="13.553934621257314"><ele>627.0</ele><time>2026-04-30T13:10:09Z</time></trkpt><trkpt lat="37.918625022067395" lon="13.553834985232815"><ele>627.0</ele><time>2026-04-30T13:10:10Z</time></trkpt><trkpt lat="37.91875668475624" lon="13.553727186686515"><ele>627.6666666666666</ele><time>2026-04-30T13:10:11Z</time></trkpt><trkpt lat="37.91890451343308" lon="13.553597706296827"><ele>628.3333333333333</ele><time>2026-04-30T13:10:12Z</time></trkpt><trkpt lat="37.919052990799145" lon="13.553468775419427"><ele>629.0</ele><time>2026-04-30T13:10:13Z</time></trkpt><trkpt lat="37.91918625723308" lon="13.553368928680799"><ele>632.0</ele><time>2026-04-30T13:10:14Z</time></trkpt><trkpt lat="37.91929675859732" lon="13.553281116149703"><ele>635.0</ele><time>2026-04-30T13:10:15Z</time></trkpt><trkpt lat="37.91938805476897" lon="13.553199965699115"><ele>638.0</ele><time>2026-04-30T13:10:16Z</time></trkpt><trkpt lat="37.919461233423455" lon="13.5531219455301"><ele>641.0</ele><time>2026-04-30T13:10:17Z</time></trkpt><trkpt lat="37.91951435058554" lon="13.553024996516479"><ele>644.0</ele><time>2026-04-30T13:10:18Z</time></trkpt><trkpt lat="37.91955103777193" lon="13.552909812585288"><ele>644.75</ele><time>2026-04-30T13:10:19Z</time></trkpt><trkpt lat="37.91956382396013" lon="13.552785945636844"><ele>645.5</ele><time>2026-04-30T13:10:20Z</time></trkpt><trkpt lat="37.91954329410956" lon="13.552629284618577"><ele>646.25</ele><time>2026-04-30T13:10:21Z</time></trkpt><trkpt lat="37.91951861211341" lon="13.552424256373072"><ele>647.0</ele><time>2026-04-30T13:10:22Z</time></trkpt><trkpt lat="37.91951247700615" lon="13.552186112884883"><ele>646.6666666666666</ele><time>2026-04-30T13:10:23Z</time></trkpt><trkpt lat="37.91953165169044" lon="13.551929829947158"><ele>646.3333333333334</ele><time>2026-04-30T13:10:24Z</time></trkpt><trkpt lat="37.9195661858604" lon="13.55170291902215"><ele>646.0</ele><time>2026-04-30T13:10:25Z</time></trkpt><trkpt lat="37.91959656348203" lon="13.55150152068264"><ele>646.0</ele><time>2026-04-30T13:10:26Z</time></trkpt><trkpt lat="37.9196003292523" lon="13.551311007594764"><ele>646.0</ele><time>2026-04-30T13:10:27Z</time></trkpt><trkpt lat="37.91956317997012" lon="13.551120495368261"><ele>646.0</ele><time>2026-04-30T13:10:28Z</time></trkpt><trkpt lat="37.91949317779997" lon="13.550922585685134"><ele>646.25</ele><time>2026-04-30T13:10:29Z</time></trkpt><trkpt lat="37.91943491203656" lon="13.550738373080899"><ele>646.5</ele><time>2026-04-30T13:10:30Z</time></trkpt><trkpt lat="37.91938085113306" lon="13.550570652318862"><ele>646.75</ele><time>2026-04-30T13:10:31Z</time></trkpt><trkpt lat="37.919299265505536" lon="13.550447214408408"><ele>647.0</ele><time>2026-04-30T13:10:32Z</time></trkpt><trkpt lat="37.91917967391245" lon="13.550367709718548"><ele>647.0</ele><time>2026-04-30T13:10:33Z</time></trkpt><trkpt lat="37.919039174488766" lon="13.550318376893236"><ele>647.0</ele><time>2026-04-30T13:10:34Z</time></trkpt><trkpt lat="37.91889767411179" lon="13.55027372263004"><ele>647.0</ele><time>2026-04-30T13:10:35Z</time></trkpt><trkpt lat="37.918778356078185" lon="13.55020656617305"><ele>647.0</ele><time>2026-04-30T13:10:36Z</time></trkpt><trkpt lat="37.91868966606462" lon="13.5501081198908"><ele>647.0</ele><time>2026-04-30T13:10:37Z</time></trkpt><trkpt lat="37.91862689179463" lon="13.549979714745641"><ele>647.0</ele><time>2026-04-30T13:10:38Z</time></trkpt><trkpt lat="37.9185885947441" lon="13.549824300484893"><ele>647.0</ele><time>2026-04-30T13:10:39Z</time></trkpt><trkpt lat="37.91855911666624" lon="13.54964095009517"><ele>647.0</ele><time>2026-04-30T13:10:40Z</time></trkpt><trkpt lat="37.91854188644353" lon="13.549464900429857"><ele>649.5</ele><time>2026-04-30T13:10:41Z</time></trkpt><trkpt lat="37.918514049045406" lon="13.549304082324138"><ele>652.0</ele><time>2026-04-30T13:10:42Z</time></trkpt><trkpt lat="37.9184797443682" lon="13.549148404320887"><ele>654.5</ele><time>2026-04-30T13:10:43Z</time></trkpt><trkpt lat="37.91844777938448" lon="13.548983214032182"><ele>657.0</ele><time>2026-04-30T13:10:44Z</time></trkpt><trkpt lat="37.918420077766854" lon="13.548794359131923"><ele>651.6666666666666</ele><time>2026-04-30T13:10:44.999Z</time></trkpt><trkpt lat="37.91838621842349" lon="13.548582007541832"><ele>646.3333333333333</ele><time>2026-04-30T13:10:45.999Z</time></trkpt><trkpt lat="37.91834933177266" lon="13.54835136215283"><ele>641.0</ele><time>2026-04-30T13:10:46.999Z</time></trkpt><trkpt lat="37.91831511402413" lon="13.548127406079415"><ele>641.0</ele><time>2026-04-30T13:10:47.999Z</time></trkpt><trkpt lat="37.918277454414664" lon="13.547914477341958"><ele>641.0</ele><time>2026-04-30T13:10:48.999Z</time></trkpt><trkpt lat="37.91823312615332" lon="13.547707128740157"><ele>641.0</ele><time>2026-04-30T13:10:49.999Z</time></trkpt><trkpt lat="37.9181745723" lon="13.547513302273245"><ele>641.25</ele><time>2026-04-30T13:10:50.999Z</time></trkpt><trkpt lat="37.918107821702364" lon="13.547337393955393"><ele>641.5</ele><time>2026-04-30T13:10:51.999Z</time></trkpt><trkpt lat="37.91805154506532" lon="13.547168230990314"><ele>641.75</ele><time>2026-04-30T13:10:52.999Z</time></trkpt><trkpt lat="37.918035664444744" lon="13.547006407536132"><ele>642.0</ele><time>2026-04-30T13:10:53.999Z</time></trkpt><trkpt lat="37.918064309310665" lon="13.546853300622116"><ele>640.75</ele><time>2026-04-30T13:10:54.999Z</time></trkpt><trkpt lat="37.91813465225932" lon="13.546716363235655"><ele>639.5</ele><time>2026-04-30T13:10:55.999Z</time></trkpt><trkpt lat="37.91820886364941" lon="13.546588040309892"><ele>638.25</ele><time>2026-04-30T13:10:56.999Z</time></trkpt><trkpt lat="37.918258240568775" lon="13.546452615892225"><ele>637.0</ele><time>2026-04-30T13:10:57.999Z</time></trkpt><trkpt lat="37.91826202483858" lon="13.546301669043608"><ele>635.75</ele><time>2026-04-30T13:10:58.999Z</time></trkpt><trkpt lat="37.91821761630809" lon="13.54615975865094"><ele>634.5</ele><time>2026-04-30T13:10:59.999Z</time></trkpt><trkpt lat="37.91813136994307" lon="13.546052494040893"><ele>633.25</ele><time>2026-04-30T13:11:00.999Z</time></trkpt><trkpt lat="37.918026931088605" lon="13.545966253949466"><ele>632.0</ele><time>2026-04-30T13:11:01.999Z</time></trkpt><trkpt lat="37.917925239191874" lon="13.545863412303712"><ele>632.0</ele><time>2026-04-30T13:11:02.999Z</time></trkpt><trkpt lat="37.91783519053463" lon="13.545730885432043"><ele>632.0</ele><time>2026-04-30T13:11:03.999Z</time></trkpt><trkpt lat="37.917755625049395" lon="13.545578254317412"><ele>632.0</ele><time>2026-04-30T13:11:04.999Z</time></trkpt><trkpt lat="37.917678398891084" lon="13.545416522613257"><ele>632.0</ele><time>2026-04-30T13:11:05.999Z</time></trkpt><trkpt lat="37.91759945573823" lon="13.545261168782199"><ele>629.0</ele><time>2026-04-30T13:11:06.999Z</time></trkpt><trkpt lat="37.91752150507367" lon="13.545111060255618"><ele>626.0</ele><time>2026-04-30T13:11:07.999Z</time></trkpt><trkpt lat="37.917442023764266" lon="13.54496760409514"><ele>623.0</ele><time>2026-04-30T13:11:08.999Z</time></trkpt><trkpt lat="37.917358504499816" lon="13.544832410657577"><ele>620.0</ele><time>2026-04-30T13:11:09.999Z</time></trkpt><trkpt lat="37.91726651479943" lon="13.544709911695742"><ele>620.0</ele><time>2026-04-30T13:11:10.999Z</time></trkpt><trkpt lat="37.91716913028745" lon="13.544594331559297"><ele>620.0</ele><time>2026-04-30T13:11:11.999Z</time></trkpt><trkpt lat="37.917071830325376" lon="13.544484614387116"><ele>620.0</ele><time>2026-04-30T13:11:12.999Z</time></trkpt><trkpt lat="37.91697947209144" lon="13.54436801873769"><ele>620.0</ele><time>2026-04-30T13:11:13.999Z</time></trkpt><trkpt lat="37.916905751753696" lon="13.544235706311673"><ele>621.75</ele><time>2026-04-30T13:11:14.999Z</time></trkpt><trkpt lat="37.916857835191635" lon="13.544084818561021"><ele>623.5</ele><time>2026-04-30T13:11:15.999Z</time></trkpt><trkpt lat="37.91683785057214" lon="13.543925721737864"><ele>625.25</ele><time>2026-04-30T13:11:16.999Z</time></trkpt><trkpt lat="37.91682419843093" lon="13.543759432365201"><ele>627.0</ele><time>2026-04-30T13:11:17.999Z</time></trkpt><trkpt lat="37.916800852134294" lon="13.543579477971642"><ele>627.75</ele><time>2026-04-30T13:11:18.999Z</time></trkpt><trkpt lat="37.916770490351986" lon="13.54339065743847"><ele>628.5</ele><time>2026-04-30T13:11:19.999Z</time></trkpt><trkpt lat="37.91674038536238" lon="13.543202918893918"><ele>629.25</ele><time>2026-04-30T13:11:20.999Z</time></trkpt><trkpt lat="37.916708661701435" lon="13.543023020272056"><ele>630.0</ele><time>2026-04-30T13:11:21.999Z</time></trkpt><trkpt lat="37.91667684056115" lon="13.542845887505973"><ele>623.75</ele><time>2026-04-30T13:11:22.999Z</time></trkpt><trkpt lat="37.91665026788987" lon="13.542671152130131"><ele>617.5</ele><time>2026-04-30T13:11:23.999Z</time></trkpt><trkpt lat="37.91661539640903" lon="13.54250010640338"><ele>611.25</ele><time>2026-04-30T13:11:24.999Z</time></trkpt><trkpt lat="37.91656445408396" lon="13.542335069842101"><ele>605.0</ele><time>2026-04-30T13:11:25.999Z</time></trkpt><trkpt lat="37.91649518191365" lon="13.542181634506576"><ele>607.25</ele><time>2026-04-30T13:11:26.999Z</time></trkpt><trkpt lat="37.91640669933503" lon="13.542047187927537"><ele>609.5</ele><time>2026-04-30T13:11:27.999Z</time></trkpt><trkpt lat="37.91630313383298" lon="13.541933539557556"><ele>611.75</ele><time>2026-04-30T13:11:28.999Z</time></trkpt><trkpt lat="37.91618587962035" lon="13.54185269852748"><ele>614.0</ele><time>2026-04-30T13:11:29.999Z</time></trkpt><trkpt lat="37.91605804614501" lon="13.541806694458822"><ele>614.0</ele><time>2026-04-30T13:11:30.999Z</time></trkpt><trkpt lat="37.915933453345104" lon="13.541768518140808"><ele>614.0</ele><time>2026-04-30T13:11:31.999Z</time></trkpt><trkpt lat="37.91582075835207" lon="13.541702167414597"><ele>614.0</ele><time>2026-04-30T13:11:32.999Z</time></trkpt><trkpt lat="37.915730433114135" lon="13.541589689935066"><ele>614.0</ele><time>2026-04-30T13:11:33.999Z</time></trkpt><trkpt lat="37.915657690427125" lon="13.541455711690087"><ele>611.75</ele><time>2026-04-30T13:11:34.999Z</time></trkpt><trkpt lat="37.91558610124973" lon="13.541312843963485"><ele>609.5</ele><time>2026-04-30T13:11:35.999Z</time></trkpt><trkpt lat="37.91550350306965" lon="13.54116514744483"><ele>607.25</ele><time>2026-04-30T13:11:36.999Z</time></trkpt><trkpt lat="37.91541077176538" lon="13.541019033318525"><ele>605.0</ele><time>2026-04-30T13:11:37.999Z</time></trkpt><trkpt lat="37.91533118001885" lon="13.540869126547507"><ele>605.0</ele><time>2026-04-30T13:11:38.999Z</time></trkpt><trkpt lat="37.91528188275501" lon="13.540704932399368"><ele>605.0</ele><time>2026-04-30T13:11:39.999Z</time></trkpt><trkpt lat="37.9152613631263" lon="13.540533478010115"><ele>605.0</ele><time>2026-04-30T13:11:40.999Z</time></trkpt><trkpt lat="37.91525521993224" lon="13.540362712177792"><ele>605.0</ele><time>2026-04-30T13:11:41.999Z</time></trkpt><trkpt lat="37.915246601216616" lon="13.540198089860258"><ele>604.75</ele><time>2026-04-30T13:11:42.999Z</time></trkpt><trkpt lat="37.91521528352225" lon="13.540045207332708"><ele>604.5</ele><time>2026-04-30T13:11:43.999Z</time></trkpt><trkpt lat="37.91514921521617" lon="13.539902053080533"><ele>604.25</ele><time>2026-04-30T13:11:44.999Z</time></trkpt><trkpt lat="37.91506003307932" lon="13.539757307557798"><ele>604.0</ele><time>2026-04-30T13:11:45.999Z</time></trkpt><trkpt lat="37.91495479285804" lon="13.539607216057716"><ele>600.0</ele><time>2026-04-30T13:11:46.999Z</time></trkpt><trkpt lat="37.914844378914154" lon="13.539451042700943"><ele>596.0</ele><time>2026-04-30T13:11:47.999Z</time></trkpt><trkpt lat="37.91473672134228" lon="13.539305458139689"><ele>592.0</ele><time>2026-04-30T13:11:48.999Z</time></trkpt><trkpt lat="37.91462336954815" lon="13.539179916474659"><ele>592.0</ele><time>2026-04-30T13:11:49.999Z</time></trkpt><trkpt lat="37.914496337240955" lon="13.539083431240782"><ele>592.0</ele><time>2026-04-30T13:11:50.999Z</time></trkpt><trkpt lat="37.91436037881205" lon="13.539013435259827"><ele>592.0</ele><time>2026-04-30T13:11:51.999Z</time></trkpt><trkpt lat="37.914214078476085" lon="13.5389462824292"><ele>590.3333333333334</ele><time>2026-04-30T13:11:52.999Z</time></trkpt><trkpt lat="37.91405788342859" lon="13.538881471211107"><ele>588.6666666666666</ele><time>2026-04-30T13:11:53.999Z</time></trkpt><trkpt lat="37.913910379882395" lon="13.538808610477572"><ele>587.0</ele><time>2026-04-30T13:11:54.999Z</time></trkpt><trkpt lat="37.91378118826479" lon="13.53871558117159"><ele>587.0</ele><time>2026-04-30T13:11:55.999Z</time></trkpt><trkpt lat="37.913696245672135" lon="13.538608379469194"><ele>587.0</ele><time>2026-04-30T13:11:56.999Z</time></trkpt><trkpt lat="37.913629892759786" lon="13.53850419885052"><ele>587.0</ele><time>2026-04-30T13:11:57.999Z</time></trkpt><trkpt lat="37.91359267228996" lon="13.538400642958695"><ele>587.0</ele><time>2026-04-30T13:11:58.999Z</time></trkpt><trkpt lat="37.913568638288055" lon="13.53831443283634"><ele>587.0</ele><time>2026-04-30T13:11:59.999Z</time></trkpt><trkpt lat="37.91351522595687" lon="13.538213029026606"><ele>587.0</ele><time>2026-04-30T13:12:01.999Z</time></trkpt><trkpt lat="37.9134367492579" lon="13.538189790670781"><ele>587.0</ele><time>2026-04-30T13:12:05Z</time></trkpt><trkpt lat="37.913366040319055" lon="13.538193834597077"><ele>587.0</ele><time>2026-04-30T13:12:52.999Z</time></trkpt><trkpt lat="37.91328909795589" lon="13.538246065722197"><ele>587.0</ele><time>2026-04-30T13:12:57.999Z</time></trkpt><trkpt lat="37.91318272668657" lon="13.538274055266017"><ele>587.0</ele><time>2026-04-30T13:12:59.999Z</time></trkpt><trkpt lat="37.91306752225827" lon="13.538289280430805"><ele>585.0</ele><time>2026-04-30T13:13:01.999Z</time></trkpt><trkpt lat="37.91299037775394" lon="13.53828899704956"><ele>583.0</ele><time>2026-04-30T13:13:02.999Z</time></trkpt><trkpt lat="37.912905371839244" lon="13.538277287117323"><ele>581.0</ele><time>2026-04-30T13:13:03.999Z</time></trkpt><trkpt lat="37.9128165828008" lon="13.538254410706566"><ele>579.0</ele><time>2026-04-30T13:13:04.999Z</time></trkpt><trkpt lat="37.91273766491489" lon="13.538216954576159"><ele>577.0</ele><time>2026-04-30T13:13:05.999Z</time></trkpt><trkpt lat="37.912668852476735" lon="13.538160132285368"><ele>575.0</ele><time>2026-04-30T13:13:06.999Z</time></trkpt><trkpt lat="37.91260472311359" lon="13.53808548404304"><ele>575.0</ele><time>2026-04-30T13:13:07.999Z</time></trkpt><trkpt lat="37.91254231621744" lon="13.537998783327723"><ele>575.0</ele><time>2026-04-30T13:13:08.999Z</time></trkpt><trkpt lat="37.91247507593805" lon="13.537919165755632"><ele>575.0</ele><time>2026-04-30T13:13:09.999Z</time></trkpt><trkpt lat="37.91239960860333" lon="13.537852206106757"><ele>575.0</ele><time>2026-04-30T13:13:10.999Z</time></trkpt><trkpt lat="37.91231286248256" lon="13.537793948793501"><ele>575.0</ele><time>2026-04-30T13:13:11.999Z</time></trkpt><trkpt lat="37.912221321558945" lon="13.537745105293064"><ele>575.0</ele><time>2026-04-30T13:13:12.999Z</time></trkpt><trkpt lat="37.91213840486176" lon="13.537703961470996"><ele>575.0</ele><time>2026-04-30T13:13:13.999Z</time></trkpt><trkpt lat="37.91205612602363" lon="13.537666637093796"><ele>575.0</ele><time>2026-04-30T13:13:14.999Z</time></trkpt><trkpt lat="37.91196958537878" lon="13.537624846465597"><ele>575.0</ele><time>2026-04-30T13:13:15.999Z</time></trkpt><trkpt lat="37.911880890223436" lon="13.53758515284017"><ele>575.0</ele><time>2026-04-30T13:13:16.999Z</time></trkpt><trkpt lat="37.911799982479536" lon="13.53756132741047"><ele>575.0</ele><time>2026-04-30T13:13:17.999Z</time></trkpt><trkpt lat="37.91172064407146" lon="13.537555259142945"><ele>575.0</ele><time>2026-04-30T13:13:18.999Z</time></trkpt><trkpt lat="37.911637823307096" lon="13.537564866102661"><ele>575.0</ele><time>2026-04-30T13:13:19.999Z</time></trkpt><trkpt lat="37.91155431146328" lon="13.537587611088249"><ele>575.0</ele><time>2026-04-30T13:13:20.999Z</time></trkpt><trkpt lat="37.91147864554727" lon="13.537630790238266"><ele>575.0</ele><time>2026-04-30T13:13:21.999Z</time></trkpt><trkpt lat="37.91141405460634" lon="13.537694632044513"><ele>575.0</ele><time>2026-04-30T13:13:22.999Z</time></trkpt><trkpt lat="37.91136649124014" lon="13.537771383893793"><ele>575.0</ele><time>2026-04-30T13:13:23.999Z</time></trkpt><trkpt lat="37.911327323194236" lon="13.537850724887072"><ele>576.8333333333333</ele><time>2026-04-30T13:13:24.999Z</time></trkpt><trkpt lat="37.91124925976968" lon="13.537973106500951"><ele>578.6666666666666</ele><time>2026-04-30T13:13:26.999Z</time></trkpt><trkpt lat="37.911197338864895" lon="13.538034786440289"><ele>580.5</ele><time>2026-04-30T13:13:27.999Z</time></trkpt><trkpt lat="37.91113602630566" lon="13.538076258503231"><ele>582.3333333333334</ele><time>2026-04-30T13:13:28.999Z</time></trkpt><trkpt lat="37.91106925973214" lon="13.538086466738266"><ele>584.1666666666667</ele><time>2026-04-30T13:13:29.999Z</time></trkpt><trkpt lat="37.910993494026144" lon="13.53806080270341"><ele>586.0</ele><time>2026-04-30T13:13:30.999Z</time></trkpt><trkpt lat="37.91091606654721" lon="13.5380027578296"><ele>587.6</ele><time>2026-04-30T13:13:31.999Z</time></trkpt><trkpt lat="37.91084864363874" lon="13.537912597236893"><ele>589.2</ele><time>2026-04-30T13:13:32.999Z</time></trkpt><trkpt lat="37.91079099295505" lon="13.537809388285755"><ele>590.8</ele><time>2026-04-30T13:13:33.999Z</time></trkpt><trkpt lat="37.91073649507395" lon="13.537720281373366"><ele>592.4</ele><time>2026-04-30T13:13:34.999Z</time></trkpt><trkpt lat="37.91067239687229" lon="13.537652114882064"><ele>594.0</ele><time>2026-04-30T13:13:35.999Z</time></trkpt><trkpt lat="37.910598410208934" lon="13.537603932023792"><ele>594.0</ele><time>2026-04-30T13:13:36.999Z</time></trkpt><trkpt lat="37.91051246706624" lon="13.537582937030908"><ele>594.0</ele><time>2026-04-30T13:13:37.999Z</time></trkpt><trkpt lat="37.91042671653845" lon="13.537592385841085"><ele>594.0</ele><time>2026-04-30T13:13:38.999Z</time></trkpt><trkpt lat="37.9103465586724" lon="13.537633171980902"><ele>594.0</ele><time>2026-04-30T13:13:39.999Z</time></trkpt><trkpt lat="37.910281869892124" lon="13.537703200882733"><ele>594.0</ele><time>2026-04-30T13:13:40.999Z</time></trkpt><trkpt lat="37.9102273566579" lon="13.53780600927845"><ele>594.0</ele><time>2026-04-30T13:13:41.999Z</time></trkpt><trkpt lat="37.91018133924513" lon="13.537923014816565"><ele>594.0</ele><time>2026-04-30T13:13:42.999Z</time></trkpt><trkpt lat="37.91013232359383" lon="13.538038616811573"><ele>594.0</ele><time>2026-04-30T13:13:43.999Z</time></trkpt><trkpt lat="37.91008318557951" lon="13.538144052542373"><ele>594.0</ele><time>2026-04-30T13:13:44.999Z</time></trkpt><trkpt lat="37.910035634669704" lon="13.538239751111119"><ele>594.0</ele><time>2026-04-30T13:13:45.999Z</time></trkpt><trkpt lat="37.90998832897537" lon="13.538333080865566"><ele>594.0</ele><time>2026-04-30T13:13:46.999Z</time></trkpt><trkpt lat="37.90994169238301" lon="13.538427521019495"><ele>594.4</ele><time>2026-04-30T13:13:47.999Z</time></trkpt><trkpt lat="37.90988837851427" lon="13.538518135052486"><ele>594.8</ele><time>2026-04-30T13:13:48.999Z</time></trkpt><trkpt lat="37.909823418124105" lon="13.538596318428938"><ele>595.2</ele><time>2026-04-30T13:13:49.999Z</time></trkpt><trkpt lat="37.90974660451114" lon="13.538660390041837"><ele>595.6</ele><time>2026-04-30T13:13:50.999Z</time></trkpt><trkpt lat="37.90965555030288" lon="13.538709009026192"><ele>596.0</ele><time>2026-04-30T13:13:51.999Z</time></trkpt><trkpt lat="37.90955035195093" lon="13.538741503640106"><ele>596.6</ele><time>2026-04-30T13:13:52.999Z</time></trkpt><trkpt lat="37.90944386069342" lon="13.538761882053786"><ele>597.2</ele><time>2026-04-30T13:13:53.999Z</time></trkpt><trkpt lat="37.90934204151135" lon="13.538763120445665"><ele>597.8</ele><time>2026-04-30T13:13:54.999Z</time></trkpt><trkpt lat="37.909244610027585" lon="13.538745686347815"><ele>598.4</ele><time>2026-04-30T13:13:55.999Z</time></trkpt><trkpt lat="37.90914859981391" lon="13.538708345446322"><ele>599.0</ele><time>2026-04-30T13:13:56.999Z</time></trkpt><trkpt lat="37.90905124699115" lon="13.5386639115972"><ele>597.0</ele><time>2026-04-30T13:13:57.999Z</time></trkpt><trkpt lat="37.908957242831136" lon="13.538624036101439"><ele>595.0</ele><time>2026-04-30T13:13:58.999Z</time></trkpt><trkpt lat="37.90886766978422" lon="13.538589931971925"><ele>593.0</ele><time>2026-04-30T13:13:59.999Z</time></trkpt><trkpt lat="37.90878198391124" lon="13.53856258149117"><ele>591.0</ele><time>2026-04-30T13:14:00.999Z</time></trkpt><trkpt lat="37.90869046164589" lon="13.538553906316645"><ele>589.0</ele><time>2026-04-30T13:14:01.999Z</time></trkpt><trkpt lat="37.908592392581866" lon="13.53857153396136"><ele>589.0</ele><time>2026-04-30T13:14:02.999Z</time></trkpt><trkpt lat="37.90850847207604" lon="13.538627767504394"><ele>589.0</ele><time>2026-04-30T13:14:03.999Z</time></trkpt><trkpt lat="37.908437460696" lon="13.5386607873617"><ele>589.0</ele><time>2026-04-30T13:14:04.999Z</time></trkpt><trkpt lat="37.90837223906329" lon="13.53870236888627"><ele>589.0</ele><time>2026-04-30T13:14:05.999Z</time></trkpt><trkpt lat="37.90826932700424" lon="13.538753330037842"><ele>589.0</ele><time>2026-04-30T13:14:07.999Z</time></trkpt><trkpt lat="37.908178694356664" lon="13.538775034334279"><ele>589.0</ele><time>2026-04-30T13:14:10Z</time></trkpt><trkpt lat="37.90810846517694" lon="13.53875249217731"><ele>590.8</ele><time>2026-04-30T13:14:13Z</time></trkpt><trkpt lat="37.90811433283738" lon="13.538618147628483"><ele>592.5999999999999</ele><time>2026-04-30T13:14:15Z</time></trkpt><trkpt lat="37.90813122195546" lon="13.538495282867755"><ele>594.4</ele><time>2026-04-30T13:14:16Z</time></trkpt><trkpt lat="37.90815051356314" lon="13.538382733607914"><ele>596.1999999999999</ele><time>2026-04-30T13:14:17Z</time></trkpt><trkpt lat="37.90816017635614" lon="13.538291361478752"><ele>598.0</ele><time>2026-04-30T13:14:18Z</time></trkpt><trkpt lat="37.90817048588676" lon="13.538187345113819"><ele>598.0</ele><time>2026-04-30T13:14:19Z</time></trkpt><trkpt lat="37.90818970039882" lon="13.538083401616007"><ele>598.0</ele><time>2026-04-30T13:14:20Z</time></trkpt><trkpt lat="37.90821980273002" lon="13.537978948141937"><ele>598.0</ele><time>2026-04-30T13:14:21Z</time></trkpt><trkpt lat="37.90825673892076" lon="13.537882440456126"><ele>598.0</ele><time>2026-04-30T13:14:22Z</time></trkpt><trkpt lat="37.90829559264883" lon="13.537775232211592"><ele>598.0</ele><time>2026-04-30T13:14:23Z</time></trkpt><trkpt lat="37.90832137693519" lon="13.537651153372463"><ele>597.1666666666667</ele><time>2026-04-30T13:14:24Z</time></trkpt><trkpt lat="37.90834396705411" lon="13.537526349529442"><ele>596.3333333333334</ele><time>2026-04-30T13:14:25Z</time></trkpt><trkpt lat="37.90836845207198" lon="13.537427584750796"><ele>595.5</ele><time>2026-04-30T13:14:26Z</time></trkpt><trkpt lat="37.908402090420175" lon="13.53734000566949"><ele>594.6666666666666</ele><time>2026-04-30T13:14:27Z</time></trkpt><trkpt lat="37.908444925934475" lon="13.537264460877246"><ele>593.8333333333333</ele><time>2026-04-30T13:14:28Z</time></trkpt><trkpt lat="37.90849395803639" lon="13.537187696854511"><ele>593.0</ele><time>2026-04-30T13:14:29Z</time></trkpt><trkpt lat="37.90853862853446" lon="13.537089383425775"><ele>589.0</ele><time>2026-04-30T13:14:30Z</time></trkpt><trkpt lat="37.90856770595521" lon="13.536968829070842"><ele>585.0</ele><time>2026-04-30T13:14:31Z</time></trkpt><trkpt lat="37.90858547314923" lon="13.536844448955197"><ele>581.0</ele><time>2026-04-30T13:14:32Z</time></trkpt><trkpt lat="37.90860576158993" lon="13.536736318211856"><ele>577.0</ele><time>2026-04-30T13:14:33Z</time></trkpt><trkpt lat="37.908647205074665" lon="13.53663702937197"><ele>573.0</ele><time>2026-04-30T13:14:34Z</time></trkpt><trkpt lat="37.908704058765494" lon="13.536543957748615"><ele>573.0</ele><time>2026-04-30T13:14:35Z</time></trkpt><trkpt lat="37.90876415103532" lon="13.536451791527783"><ele>573.0</ele><time>2026-04-30T13:14:36Z</time></trkpt><trkpt lat="37.908818361762556" lon="13.536353165987467"><ele>573.0</ele><time>2026-04-30T13:14:37Z</time></trkpt><trkpt lat="37.9088693907915" lon="13.536252689304298"><ele>573.0</ele><time>2026-04-30T13:14:38Z</time></trkpt><trkpt lat="37.90891488865066" lon="13.53618318445299"><ele>573.0</ele><time>2026-04-30T13:14:39Z</time></trkpt><trkpt lat="37.90899755024002" lon="13.536113829547485"><ele>573.0</ele><time>2026-04-30T13:14:41Z</time></trkpt><trkpt lat="37.90905091354715" lon="13.536069295448044"><ele>573.0</ele><time>2026-04-30T13:14:42Z</time></trkpt><trkpt lat="37.909101072560254" lon="13.536015410296871"><ele>573.0</ele><time>2026-04-30T13:14:43Z</time></trkpt><trkpt lat="37.90914469996126" lon="13.535949707646251"><ele>573.0</ele><time>2026-04-30T13:14:44Z</time></trkpt><trkpt lat="37.90918360583619" lon="13.53587892687689"><ele>573.0</ele><time>2026-04-30T13:14:45Z</time></trkpt><trkpt lat="37.9092060709204" lon="13.535800553485169"><ele>573.0</ele><time>2026-04-30T13:14:46Z</time></trkpt><trkpt lat="37.909222701376144" lon="13.535718758774175"><ele>573.0</ele><time>2026-04-30T13:14:47Z</time></trkpt><trkpt lat="37.90923940256251" lon="13.535633294247361"><ele>570.6</ele><time>2026-04-30T13:14:47.999Z</time></trkpt><trkpt lat="37.90925048721067" lon="13.535501842002228"><ele>568.1999999999999</ele><time>2026-04-30T13:14:49.999Z</time></trkpt><trkpt lat="37.90924913545102" lon="13.535357924517447"><ele>565.8</ele><time>2026-04-30T13:14:51.999Z</time></trkpt><trkpt lat="37.90925108836323" lon="13.535262768135508"><ele>563.4</ele><time>2026-04-30T13:14:52.999Z</time></trkpt><trkpt lat="37.90926908684832" lon="13.535103461683478"><ele>561.0</ele><time>2026-04-30T13:14:54.999Z</time></trkpt><trkpt lat="37.90926633346406" lon="13.534992065004399"><ele>561.0</ele><time>2026-04-30T13:14:55.999Z</time></trkpt><trkpt lat="37.90926624726996" lon="13.53488071324606"><ele>561.0</ele><time>2026-04-30T13:14:56.999Z</time></trkpt><trkpt lat="37.90927890462172" lon="13.53479522630874"><ele>561.0</ele><time>2026-04-30T13:14:57.999Z</time></trkpt><trkpt lat="37.90930593596345" lon="13.534657219912793"><ele>561.0</ele><time>2026-04-30T13:14:59.999Z</time></trkpt><trkpt lat="37.90929748161692" lon="13.534570860405298"><ele>561.0</ele><time>2026-04-30T13:15:00.999Z</time></trkpt><trkpt lat="37.90928807138633" lon="13.534474025626238"><ele>561.0</ele><time>2026-04-30T13:15:01.999Z</time></trkpt><trkpt lat="37.909286279925155" lon="13.534382569552065"><ele>560.4</ele><time>2026-04-30T13:15:02.999Z</time></trkpt><trkpt lat="37.90928174230174" lon="13.534293577231178"><ele>559.8</ele><time>2026-04-30T13:15:03.999Z</time></trkpt><trkpt lat="37.909275948103826" lon="13.534210654334435"><ele>559.1999999999999</ele><time>2026-04-30T13:15:04.999Z</time></trkpt><trkpt lat="37.909265532991974" lon="13.534058235489608"><ele>558.6</ele><time>2026-04-30T13:15:06.999Z</time></trkpt><trkpt lat="37.90923717466023" lon="13.533914469466257"><ele>558.0</ele><time>2026-04-30T13:15:08.999Z</time></trkpt><trkpt lat="37.90920093889734" lon="13.533765750095233"><ele>557.75</ele><time>2026-04-30T13:15:10.999Z</time></trkpt><trkpt lat="37.90918042576203" lon="13.533616392061578"><ele>557.5</ele><time>2026-04-30T13:15:12.999Z</time></trkpt><trkpt lat="37.909223848697295" lon="13.533475670696008"><ele>557.25</ele><time>2026-04-30T13:15:14.999Z</time></trkpt><trkpt lat="37.90922905699295" lon="13.533320933859272"><ele>557.0</ele><time>2026-04-30T13:15:16.999Z</time></trkpt><trkpt lat="37.90919809371634" lon="13.533173173472015"><ele>557.0</ele><time>2026-04-30T13:15:18.999Z</time></trkpt><trkpt lat="37.90916856764663" lon="13.5330193220002"><ele>557.0</ele><time>2026-04-30T13:15:20.999Z</time></trkpt><trkpt lat="37.909148493449614" lon="13.532939537957283"><ele>557.0</ele><time>2026-04-30T13:15:21.999Z</time></trkpt><trkpt lat="37.909126509697806" lon="13.532863670814082"><ele>557.0</ele><time>2026-04-30T13:15:22.999Z</time></trkpt><trkpt lat="37.909079441213166" lon="13.532718849692825"><ele>557.0</ele><time>2026-04-30T13:15:24.999Z</time></trkpt><trkpt lat="37.90905057452933" lon="13.532637676993755"><ele>557.0</ele><time>2026-04-30T13:15:25.999Z</time></trkpt><trkpt lat="37.90902281786024" lon="13.532563245261064"><ele>556.8333333333333</ele><time>2026-04-30T13:15:26.999Z</time></trkpt><trkpt lat="37.90898544824352" lon="13.53242767718304"><ele>556.6666666666666</ele><time>2026-04-30T13:15:28.999Z</time></trkpt><trkpt lat="37.9089692070006" lon="13.53232970346536"><ele>556.5</ele><time>2026-04-30T13:15:29.999Z</time></trkpt><trkpt lat="37.90894894681283" lon="13.532236712416834"><ele>556.3333333333334</ele><time>2026-04-30T13:15:30.999Z</time></trkpt><trkpt lat="37.908930571721115" lon="13.532148763412449"><ele>556.1666666666667</ele><time>2026-04-30T13:15:31.999Z</time></trkpt><trkpt lat="37.90890812563198" lon="13.532058699617002"><ele>556.0</ele><time>2026-04-30T13:15:32.999Z</time></trkpt><trkpt lat="37.90888258378758" lon="13.531969126945556"><ele>554.5</ele><time>2026-04-30T13:15:33.999Z</time></trkpt><trkpt lat="37.90885958703554" lon="13.531882599556623"><ele>553.0</ele><time>2026-04-30T13:15:34.999Z</time></trkpt><trkpt lat="37.90883045080488" lon="13.53178010120079"><ele>551.5</ele><time>2026-04-30T13:15:35.999Z</time></trkpt><trkpt lat="37.908807760081636" lon="13.531680646017113"><ele>550.0</ele><time>2026-04-30T13:15:36.999Z</time></trkpt><trkpt lat="37.908793353378584" lon="13.531579221307624"><ele>548.5</ele><time>2026-04-30T13:15:37.999Z</time></trkpt><trkpt lat="37.90877815311612" lon="13.531480790814529"><ele>547.0</ele><time>2026-04-30T13:15:38.999Z</time></trkpt><trkpt lat="37.908765369435564" lon="13.5313866643087"><ele>547.0</ele><time>2026-04-30T13:15:39.999Z</time></trkpt><trkpt lat="37.90875906380959" lon="13.531292351868489"><ele>547.0</ele><time>2026-04-30T13:15:40.999Z</time></trkpt><trkpt lat="37.90875799802062" lon="13.53120475050597"><ele>547.0</ele><time>2026-04-30T13:15:41.999Z</time></trkpt><trkpt lat="37.90875584827598" lon="13.531124655892171"><ele>547.0</ele><time>2026-04-30T13:15:42.999Z</time></trkpt><trkpt lat="37.90874833513134" lon="13.531037176923826"><ele>547.0</ele><time>2026-04-30T13:15:43.999Z</time></trkpt><trkpt lat="37.9087281491247" lon="13.530956612561722"><ele>547.0</ele><time>2026-04-30T13:15:44.999Z</time></trkpt><trkpt lat="37.90869614723782" lon="13.530877883853703"><ele>547.0</ele><time>2026-04-30T13:15:45.999Z</time></trkpt><trkpt lat="37.90865065322672" lon="13.53079572055922"><ele>546.3333333333334</ele><time>2026-04-30T13:15:46.999Z</time></trkpt><trkpt lat="37.90859869913039" lon="13.530713938614088"><ele>545.6666666666667</ele><time>2026-04-30T13:15:47.999Z</time></trkpt><trkpt lat="37.90855248558537" lon="13.53062968282023"><ele>545.0</ele><time>2026-04-30T13:15:48.999Z</time></trkpt><trkpt lat="37.908510653677766" lon="13.530550408251932"><ele>544.3333333333334</ele><time>2026-04-30T13:15:49.999Z</time></trkpt><trkpt lat="37.90847515186157" lon="13.530469755937427"><ele>543.6666666666666</ele><time>2026-04-30T13:15:50.999Z</time></trkpt><trkpt lat="37.90843650376734" lon="13.53040365449404"><ele>543.0</ele><time>2026-04-30T13:15:51.999Z</time></trkpt><trkpt lat="37.90836010501741" lon="13.530281653322"><ele>543.0</ele><time>2026-04-30T13:15:53.999Z</time></trkpt><trkpt lat="37.90831370349844" lon="13.530208341914797"><ele>543.0</ele><time>2026-04-30T13:15:54.999Z</time></trkpt><trkpt lat="37.908252412276795" lon="13.53013746277863"><ele>543.0</ele><time>2026-04-30T13:15:55.999Z</time></trkpt><trkpt lat="37.90819773052765" lon="13.53007215514888"><ele>543.0</ele><time>2026-04-30T13:15:56.999Z</time></trkpt><trkpt lat="37.90814915649608" lon="13.530004299428466"><ele>543.0</ele><time>2026-04-30T13:15:57.999Z</time></trkpt><trkpt lat="37.908103182037046" lon="13.529925485502972"><ele>543.0</ele><time>2026-04-30T13:15:58.999Z</time></trkpt><trkpt lat="37.90804874533175" lon="13.52983495826227"><ele>543.0</ele><time>2026-04-30T13:15:59.999Z</time></trkpt><trkpt lat="37.90798181927832" lon="13.529734771814192"><ele>543.0</ele><time>2026-04-30T13:16:00.999Z</time></trkpt><trkpt lat="37.90792041990925" lon="13.529645185024172"><ele>543.0</ele><time>2026-04-30T13:16:01.999Z</time></trkpt><trkpt lat="37.90786284163309" lon="13.529573248292099"><ele>543.0</ele><time>2026-04-30T13:16:02.999Z</time></trkpt><trkpt lat="37.907808591395806" lon="13.529501159066893"><ele>543.0</ele><time>2026-04-30T13:16:03.999Z</time></trkpt><trkpt lat="37.907763326215886" lon="13.529423535533079"><ele>543.0</ele><time>2026-04-30T13:16:04.999Z</time></trkpt><trkpt lat="37.90772846716757" lon="13.529342221456961"><ele>542.3333333333334</ele><time>2026-04-30T13:16:05.999Z</time></trkpt><trkpt lat="37.90770377247237" lon="13.5292518377571"><ele>541.6666666666666</ele><time>2026-04-30T13:16:06.999Z</time></trkpt><trkpt lat="37.90768858564424" lon="13.529156387187049"><ele>541.0</ele><time>2026-04-30T13:16:07.999Z</time></trkpt><trkpt lat="37.90767522109244" lon="13.529060209735855"><ele>540.3333333333333</ele><time>2026-04-30T13:16:08.999Z</time></trkpt><trkpt lat="37.9076658908618" lon="13.528961337357108"><ele>539.6666666666666</ele><time>2026-04-30T13:16:09.999Z</time></trkpt><trkpt lat="37.90765707032287" lon="13.528844392247231"><ele>539.0</ele><time>2026-04-30T13:16:10.999Z</time></trkpt><trkpt lat="37.90764075327995" lon="13.528736748674831"><ele>539.7142857142857</ele><time>2026-04-30T13:16:11.999Z</time></trkpt><trkpt lat="37.90761431895202" lon="13.528651621565693"><ele>540.4285714285714</ele><time>2026-04-30T13:16:12.999Z</time></trkpt><trkpt lat="37.90757540249637" lon="13.528585118863708"><ele>541.1428571428571</ele><time>2026-04-30T13:16:13.999Z</time></trkpt><trkpt lat="37.90752251766273" lon="13.528505694175337"><ele>541.8571428571429</ele><time>2026-04-30T13:16:14.999Z</time></trkpt><trkpt lat="37.90748493653246" lon="13.528414344908532"><ele>542.5714285714286</ele><time>2026-04-30T13:16:16Z</time></trkpt><trkpt lat="37.90746368913346" lon="13.528327953955053"><ele>543.2857142857142</ele><time>2026-04-30T13:16:17Z</time></trkpt><trkpt lat="37.907448635413004" lon="13.528243217633298"><ele>544.0</ele><time>2026-04-30T13:16:18Z</time></trkpt><trkpt lat="37.90742904476764" lon="13.528150421597944"><ele>545.0</ele><time>2026-04-30T13:16:19Z</time></trkpt><trkpt lat="37.90740745902753" lon="13.528061031077394"><ele>546.0</ele><time>2026-04-30T13:16:20Z</time></trkpt><trkpt lat="37.907385834760525" lon="13.527973195669029"><ele>547.0</ele><time>2026-04-30T13:16:21Z</time></trkpt><trkpt lat="37.907360324238354" lon="13.527881442162569"><ele>548.0</ele><time>2026-04-30T13:16:22Z</time></trkpt><trkpt lat="37.907335157406266" lon="13.527790852054041"><ele>549.0</ele><time>2026-04-30T13:16:23Z</time></trkpt><trkpt lat="37.90730824997223" lon="13.527701153750698"><ele>550.0</ele><time>2026-04-30T13:16:24Z</time></trkpt><trkpt lat="37.90728324485028" lon="13.52761092860491"><ele>550.6666666666667</ele><time>2026-04-30T13:16:25Z</time></trkpt><trkpt lat="37.907263608069854" lon="13.527524143786188"><ele>551.3333333333334</ele><time>2026-04-30T13:16:26Z</time></trkpt><trkpt lat="37.90723819769774" lon="13.527369569158738"><ele>552.0</ele><time>2026-04-30T13:16:28Z</time></trkpt><trkpt lat="37.907238411436595" lon="13.527288863831613"><ele>552.6666666666666</ele><time>2026-04-30T13:16:29Z</time></trkpt><trkpt lat="37.907214464429366" lon="13.527191910319312"><ele>553.3333333333333</ele><time>2026-04-30T13:16:30Z</time></trkpt><trkpt lat="37.90717577528039" lon="13.527081589969068"><ele>554.0</ele><time>2026-04-30T13:16:31Z</time></trkpt><trkpt lat="37.90714712021379" lon="13.526962069355513"><ele>556.0</ele><time>2026-04-30T13:16:32Z</time></trkpt><trkpt lat="37.907128589574384" lon="13.52684341206927"><ele>558.0</ele><time>2026-04-30T13:16:33Z</time></trkpt><trkpt lat="37.907123295813534" lon="13.5267340223807"><ele>560.0</ele><time>2026-04-30T13:16:34Z</time></trkpt><trkpt lat="37.90712167318929" lon="13.52664155788217"><ele>562.0</ele><time>2026-04-30T13:16:35Z</time></trkpt><trkpt lat="37.9071195776346" lon="13.526532559075724"><ele>564.0</ele><time>2026-04-30T13:16:36Z</time></trkpt><trkpt lat="37.907120630715454" lon="13.526407424688527"><ele>566.0</ele><time>2026-04-30T13:16:37Z</time></trkpt><trkpt lat="37.907130292059065" lon="13.526278977225763"><ele>567.4</ele><time>2026-04-30T13:16:38Z</time></trkpt><trkpt lat="37.9071587068225" lon="13.526153000141736"><ele>568.8</ele><time>2026-04-30T13:16:39Z</time></trkpt><trkpt lat="37.90719878868582" lon="13.52602837296923"><ele>570.1999999999999</ele><time>2026-04-30T13:16:40Z</time></trkpt><trkpt lat="37.907236832030094" lon="13.525902791866427"><ele>571.6</ele><time>2026-04-30T13:16:41Z</time></trkpt><trkpt lat="37.90726535241906" lon="13.525787322664883"><ele>573.0</ele><time>2026-04-30T13:16:42Z</time></trkpt><trkpt lat="37.907290077849254" lon="13.525684187451969"><ele>573.0</ele><time>2026-04-30T13:16:43Z</time></trkpt><trkpt lat="37.907317524154834" lon="13.525604633764312"><ele>573.0</ele><time>2026-04-30T13:16:44Z</time></trkpt><trkpt lat="37.90734303403079" lon="13.525514774848942"><ele>573.0</ele><time>2026-04-30T13:16:46Z</time></trkpt><trkpt lat="37.90737313458551" lon="13.525415730359803"><ele>573.0</ele><time>2026-04-30T13:16:49Z</time></trkpt><trkpt lat="37.90739552566402" lon="13.52532693844331"><ele>573.0</ele><time>2026-04-30T13:16:51Z</time></trkpt><trkpt lat="37.90741023276161" lon="13.525235866103172"><ele>573.0</ele><time>2026-04-30T13:16:54Z</time></trkpt><trkpt lat="37.90745956205541" lon="13.52503999297649"><ele>572.1999999999999</ele><time>2026-04-30T13:16:58.999Z</time></trkpt><trkpt lat="37.90749563362598" lon="13.524924705577678"><ele>571.4</ele><time>2026-04-30T13:16:59.999Z</time></trkpt><trkpt lat="37.90752995001063" lon="13.524815958373017"><ele>570.5999999999999</ele><time>2026-04-30T13:17:00.999Z</time></trkpt><trkpt lat="37.90756398288053" lon="13.524686633758083"><ele>569.8</ele><time>2026-04-30T13:17:01.999Z</time></trkpt><trkpt lat="37.90760826793509" lon="13.524551825476411"><ele>569.0</ele><time>2026-04-30T13:17:02.999Z</time></trkpt><trkpt lat="37.90765199295755" lon="13.524420820361952"><ele>569.0</ele><time>2026-04-30T13:17:03.999Z</time></trkpt><trkpt lat="37.90768803344356" lon="13.524305346767772"><ele>569.0</ele><time>2026-04-30T13:17:04.999Z</time></trkpt><trkpt lat="37.907721695558706" lon="13.524194951203143"><ele>569.0</ele><time>2026-04-30T13:17:05.999Z</time></trkpt><trkpt lat="37.90774878665968" lon="13.524105402286315"><ele>569.0</ele><time>2026-04-30T13:17:06.999Z</time></trkpt><trkpt lat="37.90777988212364" lon="13.52402405682984"><ele>569.0</ele><time>2026-04-30T13:17:07.999Z</time></trkpt><trkpt lat="37.907817080649416" lon="13.52393397859642"><ele>569.0</ele><time>2026-04-30T13:17:08.999Z</time></trkpt><trkpt lat="37.90785511601574" lon="13.523836833334911"><ele>569.0</ele><time>2026-04-30T13:17:09.999Z</time></trkpt><trkpt lat="37.90789332741439" lon="13.52373603807151"><ele>569.0</ele><time>2026-04-30T13:17:10.999Z</time></trkpt><trkpt lat="37.907919054050666" lon="13.523628972092228"><ele>569.0</ele><time>2026-04-30T13:17:11.999Z</time></trkpt><trkpt lat="37.9079388676797" lon="13.523518636266749"><ele>569.0</ele><time>2026-04-30T13:17:12.999Z</time></trkpt><trkpt lat="37.90795560914594" lon="13.523412331831524"><ele>569.0</ele><time>2026-04-30T13:17:13.999Z</time></trkpt><trkpt lat="37.907955559488585" lon="13.52331107644511"><ele>569.0</ele><time>2026-04-30T13:17:14.999Z</time></trkpt><trkpt lat="37.90794791314205" lon="13.523208407116135"><ele>567.0</ele><time>2026-04-30T13:17:15.999Z</time></trkpt><trkpt lat="37.907933181470106" lon="13.523094822860093"><ele>565.0</ele><time>2026-04-30T13:17:16.999Z</time></trkpt><trkpt lat="37.90792746140208" lon="13.522981480354355"><ele>563.0</ele><time>2026-04-30T13:17:17.999Z</time></trkpt><trkpt lat="37.907934133444044" lon="13.522866353603392"><ele>561.0</ele><time>2026-04-30T13:17:18.999Z</time></trkpt><trkpt lat="37.907941763123745" lon="13.522755110344166"><ele>559.0</ele><time>2026-04-30T13:17:19.999Z</time></trkpt><trkpt lat="37.90795521822074" lon="13.52263471193564"><ele>557.8</ele><time>2026-04-30T13:17:20.999Z</time></trkpt><trkpt lat="37.90796807077528" lon="13.522513603692692"><ele>556.5999999999999</ele><time>2026-04-30T13:17:21.999Z</time></trkpt><trkpt lat="37.90797989746796" lon="13.522387345000306"><ele>555.4</ele><time>2026-04-30T13:17:22.999Z</time></trkpt><trkpt lat="37.907991524895536" lon="13.522263142319286"><ele>554.1999999999999</ele><time>2026-04-30T13:17:23.999Z</time></trkpt><trkpt lat="37.90800735672499" lon="13.522142833954216"><ele>553.0</ele><time>2026-04-30T13:17:24.999Z</time></trkpt><trkpt lat="37.908033053804104" lon="13.52200109892846"><ele>552.0</ele><time>2026-04-30T13:17:25.999Z</time></trkpt><trkpt lat="37.908059007285615" lon="13.521863156483297"><ele>551.0</ele><time>2026-04-30T13:17:26.999Z</time></trkpt><trkpt lat="37.908074877521116" lon="13.521735417144509"><ele>550.0</ele><time>2026-04-30T13:17:27.999Z</time></trkpt><trkpt lat="37.90807547075909" lon="13.521637406334342"><ele>549.0</ele><time>2026-04-30T13:17:28.999Z</time></trkpt><trkpt lat="37.908060734982" lon="13.521535039210889"><ele>548.0</ele><time>2026-04-30T13:17:29.999Z</time></trkpt><trkpt lat="37.90804169703273" lon="13.521413907544034"><ele>548.0</ele><time>2026-04-30T13:17:30.999Z</time></trkpt><trkpt lat="37.908034934780254" lon="13.52129629793284"><ele>548.0</ele><time>2026-04-30T13:17:31.999Z</time></trkpt><trkpt lat="37.90803411025477" lon="13.521175277270931"><ele>548.0</ele><time>2026-04-30T13:17:32.999Z</time></trkpt><trkpt lat="37.90803610233599" lon="13.521054445411508"><ele>548.0</ele><time>2026-04-30T13:17:33.999Z</time></trkpt><trkpt lat="37.908034383454776" lon="13.520930383324833"><ele>548.0</ele><time>2026-04-30T13:17:34.999Z</time></trkpt><trkpt lat="37.90803315159772" lon="13.520802087620094"><ele>547.6</ele><time>2026-04-30T13:17:35.999Z</time></trkpt><trkpt lat="37.90803990133664" lon="13.520678472241993"><ele>547.1999999999999</ele><time>2026-04-30T13:17:36.999Z</time></trkpt><trkpt lat="37.908047827827765" lon="13.520557169604196"><ele>546.8</ele><time>2026-04-30T13:17:37.999Z</time></trkpt><trkpt lat="37.90805600710649" lon="13.520441493834403"><ele>546.4</ele><time>2026-04-30T13:17:38.999Z</time></trkpt><trkpt lat="37.908068627504214" lon="13.5203151079074"><ele>546.0</ele><time>2026-04-30T13:17:39.999Z</time></trkpt><trkpt lat="37.90808333007136" lon="13.520195902160289"><ele>546.0</ele><time>2026-04-30T13:17:40.999Z</time></trkpt><trkpt lat="37.90807807929517" lon="13.520086258089428"><ele>546.0</ele><time>2026-04-30T13:17:41.999Z</time></trkpt><trkpt lat="37.90806142084889" lon="13.519986298976097"><ele>546.0</ele><time>2026-04-30T13:17:42.999Z</time></trkpt><trkpt lat="37.908069062564124" lon="13.519854685407058"><ele>546.0</ele><time>2026-04-30T13:17:43.999Z</time></trkpt><trkpt lat="37.90809688610934" lon="13.519696181858498"><ele>546.0</ele><time>2026-04-30T13:17:44.999Z</time></trkpt><trkpt lat="37.90812396300284" lon="13.519536266786243"><ele>545.5</ele><time>2026-04-30T13:17:45.999Z</time></trkpt><trkpt lat="37.908145482431976" lon="13.519375603686411"><ele>545.0</ele><time>2026-04-30T13:17:46.999Z</time></trkpt><trkpt lat="37.90816302311755" lon="13.519219000812503"><ele>544.5</ele><time>2026-04-30T13:17:47.999Z</time></trkpt><trkpt lat="37.90817335129254" lon="13.519081917482609"><ele>544.0</ele><time>2026-04-30T13:17:48.999Z</time></trkpt><trkpt lat="37.908191820365325" lon="13.518948214639256"><ele>543.9999999999999</ele><time>2026-04-30T13:17:49.999Z</time></trkpt><trkpt lat="37.90821553140253" lon="13.518831589437497"><ele>544.0</ele><time>2026-04-30T13:17:50.999Z</time></trkpt><trkpt lat="37.90824032975092" lon="13.518737221580935"><ele>544.0</ele><time>2026-04-30T13:17:51.999Z</time></trkpt><trkpt lat="37.90826665202771" lon="13.518652323956095"><ele>544.0</ele><time>2026-04-30T13:17:52.999Z</time></trkpt><trkpt lat="37.9082868301448" lon="13.518575169540496"><ele>544.0</ele><time>2026-04-30T13:17:53.999Z</time></trkpt><trkpt lat="37.90830068436693" lon="13.51849383602924"><ele>543.9999999999999</ele><time>2026-04-30T13:17:54.999Z</time></trkpt><trkpt lat="37.90831866748822" lon="13.518404523919983"><ele>544.0</ele><time>2026-04-30T13:17:55.999Z</time></trkpt><trkpt lat="37.90833406322753" lon="13.51830707528124"><ele>543.8</ele><time>2026-04-30T13:17:56.999Z</time></trkpt><trkpt lat="37.90834905666534" lon="13.51819816214335"><ele>543.5999999999999</ele><time>2026-04-30T13:17:57.999Z</time></trkpt><trkpt lat="37.90836477905267" lon="13.518079208252134"><ele>543.4</ele><time>2026-04-30T13:17:58.999Z</time></trkpt><trkpt lat="37.90837647028151" lon="13.517966438405729"><ele>543.1999999999999</ele><time>2026-04-30T13:17:59.999Z</time></trkpt><trkpt lat="37.908385129982946" lon="13.51788595736897"><ele>543.0</ele><time>2026-04-30T13:18:00.999Z</time></trkpt><trkpt lat="37.90846670366893" lon="13.517768631833846"><ele>540.6</ele><time>2026-04-30T13:18:02.999Z</time></trkpt><trkpt lat="37.908556344757706" lon="13.517724614858103"><ele>538.1999999999999</ele><time>2026-04-30T13:18:03.999Z</time></trkpt><trkpt lat="37.908648513373" lon="13.517673691500413"><ele>535.8</ele><time>2026-04-30T13:18:04.999Z</time></trkpt><trkpt lat="37.908733353652174" lon="13.51760457203504"><ele>533.4</ele><time>2026-04-30T13:18:05.999Z</time></trkpt><trkpt lat="37.90880747901172" lon="13.517535031865648"><ele>531.0</ele><time>2026-04-30T13:18:06.999Z</time></trkpt><trkpt lat="37.90885784743787" lon="13.51747129114753"><ele>531.0</ele><time>2026-04-30T13:18:07.999Z</time></trkpt><trkpt lat="37.908911264289486" lon="13.51733169030059"><ele>531.0</ele><time>2026-04-30T13:18:09.999Z</time></trkpt><trkpt lat="37.90893530101843" lon="13.517239420247645"><ele>531.0</ele><time>2026-04-30T13:18:10.999Z</time></trkpt><trkpt lat="37.90895150481508" lon="13.517129871268661"><ele>531.0</ele><time>2026-04-30T13:18:11.999Z</time></trkpt><trkpt lat="37.908961066363226" lon="13.517006636076557"><ele>531.0</ele><time>2026-04-30T13:18:12.999Z</time></trkpt><trkpt lat="37.90897351375012" lon="13.51686993256392"><ele>528.0</ele><time>2026-04-30T13:18:13.999Z</time></trkpt><trkpt lat="37.908997451091004" lon="13.516728921331392"><ele>525.0</ele><time>2026-04-30T13:18:14.999Z</time></trkpt><trkpt lat="37.90903502037429" lon="13.516601123967975"><ele>522.0</ele><time>2026-04-30T13:18:15.999Z</time></trkpt><trkpt lat="37.909084771663146" lon="13.516484891313157"><ele>519.0</ele><time>2026-04-30T13:18:16.999Z</time></trkpt><trkpt lat="37.90914130514778" lon="13.516385747947547"><ele>516.0</ele><time>2026-04-30T13:18:17.999Z</time></trkpt><trkpt lat="37.90920049091028" lon="13.516303759929983"><ele>515.3333333333334</ele><time>2026-04-30T13:18:18.999Z</time></trkpt><trkpt lat="37.909261108580665" lon="13.51624743953823"><ele>514.6666666666666</ele><time>2026-04-30T13:18:19.999Z</time></trkpt><trkpt lat="37.90932117452864" lon="13.516199765702666"><ele>514.0</ele><time>2026-04-30T13:18:20.999Z</time></trkpt><trkpt lat="37.909379656116656" lon="13.516132403213366"><ele>513.3333333333333</ele><time>2026-04-30T13:18:22Z</time></trkpt><trkpt lat="37.90944231773241" lon="13.516055917723316"><ele>512.6666666666666</ele><time>2026-04-30T13:18:23Z</time></trkpt><trkpt lat="37.909489905687714" lon="13.51598828483991"><ele>512.0</ele><time>2026-04-30T13:18:24Z</time></trkpt><trkpt lat="37.90953825568143" lon="13.515912449427704"><ele>510.3333333333333</ele><time>2026-04-30T13:18:25Z</time></trkpt><trkpt lat="37.90959436144199" lon="13.515833751826822"><ele>508.66666666666663</ele><time>2026-04-30T13:18:26Z</time></trkpt><trkpt lat="37.909664674833486" lon="13.515760315476538"><ele>507.0</ele><time>2026-04-30T13:18:27Z</time></trkpt><trkpt lat="37.909741013379" lon="13.515689739539187"><ele>505.33333333333337</ele><time>2026-04-30T13:18:28Z</time></trkpt><trkpt lat="37.90980462623902" lon="13.51562793576957"><ele>503.6666666666667</ele><time>2026-04-30T13:18:29Z</time></trkpt><trkpt lat="37.909852356282386" lon="13.515570065578578"><ele>502.0</ele><time>2026-04-30T13:18:30Z</time></trkpt><trkpt lat="37.909900557454165" lon="13.51550757023525"><ele>502.00000000000006</ele><time>2026-04-30T13:18:31Z</time></trkpt><trkpt lat="37.90995750799955" lon="13.515435102264563"><ele>502.0</ele><time>2026-04-30T13:18:32Z</time></trkpt><trkpt lat="37.91002059273195" lon="13.515366553393093"><ele>502.0</ele><time>2026-04-30T13:18:33Z</time></trkpt><trkpt lat="37.91008293831116" lon="13.515291902385222"><ele>502.0</ele><time>2026-04-30T13:18:34Z</time></trkpt><trkpt lat="37.91013460371289" lon="13.515211832924434"><ele>502.00000000000006</ele><time>2026-04-30T13:18:35Z</time></trkpt><trkpt lat="37.91017344785232" lon="13.51512099214261"><ele>502.0</ele><time>2026-04-30T13:18:36Z</time></trkpt><trkpt lat="37.91020127300236" lon="13.515023068354418"><ele>501.8571428571428</ele><time>2026-04-30T13:18:37Z</time></trkpt><trkpt lat="37.910234220835434" lon="13.514934927239635"><ele>501.71428571428567</ele><time>2026-04-30T13:18:38Z</time></trkpt><trkpt lat="37.910268383380405" lon="13.514849481545413"><ele>501.57142857142856</ele><time>2026-04-30T13:18:39Z</time></trkpt><trkpt lat="37.910294028049144" lon="13.514762047153463"><ele>501.4285714285714</ele><time>2026-04-30T13:18:40Z</time></trkpt><trkpt lat="37.91031928847695" lon="13.514678367466972"><ele>501.2857142857142</ele><time>2026-04-30T13:18:41Z</time></trkpt><trkpt lat="37.91034613651559" lon="13.51459426660382"><ele>501.14285714285717</ele><time>2026-04-30T13:18:42Z</time></trkpt><trkpt lat="37.910372736961534" lon="13.514508766008385"><ele>501.0</ele><time>2026-04-30T13:18:43Z</time></trkpt><trkpt lat="37.91040520852157" lon="13.514421689576912"><ele>499.28571428571433</ele><time>2026-04-30T13:18:44Z</time></trkpt><trkpt lat="37.910451914340875" lon="13.514340377150287"><ele>497.57142857142856</ele><time>2026-04-30T13:18:45Z</time></trkpt><trkpt lat="37.91050023460018" lon="13.514266626045005"><ele>495.8571428571429</ele><time>2026-04-30T13:18:46Z</time></trkpt><trkpt lat="37.91054028801089" lon="13.514193258175572"><ele>494.14285714285717</ele><time>2026-04-30T13:18:47Z</time></trkpt><trkpt lat="37.910577565627314" lon="13.51412140531685"><ele>492.42857142857144</ele><time>2026-04-30T13:18:48Z</time></trkpt><trkpt lat="37.910611786003074" lon="13.514049055454835"><ele>490.7142857142857</ele><time>2026-04-30T13:18:49Z</time></trkpt><trkpt lat="37.91064628981625" lon="13.513972803029581"><ele>489.0</ele><time>2026-04-30T13:18:50Z</time></trkpt><trkpt lat="37.910682745849265" lon="13.513891524722055"><ele>489.0</ele><time>2026-04-30T13:18:51Z</time></trkpt><trkpt lat="37.91071750076569" lon="13.513812187489577"><ele>489.00000000000006</ele><time>2026-04-30T13:18:52Z</time></trkpt><trkpt lat="37.91075506110522" lon="13.51373816261965"><ele>489.0</ele><time>2026-04-30T13:18:53Z</time></trkpt><trkpt lat="37.910784676579446" lon="13.513663534224275"><ele>489.0</ele><time>2026-04-30T13:18:54Z</time></trkpt><trkpt lat="37.91081657345896" lon="13.51358815012275"><ele>489.00000000000006</ele><time>2026-04-30T13:18:55Z</time></trkpt><trkpt lat="37.91086493576609" lon="13.513517719257669"><ele>489.0</ele><time>2026-04-30T13:18:56Z</time></trkpt><trkpt lat="37.910916495585" lon="13.513444633138818"><ele>489.0</ele><time>2026-04-30T13:18:57Z</time></trkpt><trkpt lat="37.91095897088747" lon="13.5133651474499"><ele>489.0</ele><time>2026-04-30T13:18:58Z</time></trkpt><trkpt lat="37.910993120212424" lon="13.513274140954332"><ele>489.0</ele><time>2026-04-30T13:18:59Z</time></trkpt><trkpt lat="37.91101993010732" lon="13.513174166447515"><ele>489.0</ele><time>2026-04-30T13:19:00Z</time></trkpt><trkpt lat="37.911041446991554" lon="13.51307314699191"><ele>489.0</ele><time>2026-04-30T13:19:01Z</time></trkpt><trkpt lat="37.91106274032067" lon="13.512981654080797"><ele>489.0</ele><time>2026-04-30T13:19:01.999Z</time></trkpt><trkpt lat="37.91108455643299" lon="13.51289452889108"><ele>489.0</ele><time>2026-04-30T13:19:02.999Z</time></trkpt><trkpt lat="37.91110541653959" lon="13.512808354514672"><ele>487.8333333333333</ele><time>2026-04-30T13:19:03.999Z</time></trkpt><trkpt lat="37.9111152900484" lon="13.51271746027449"><ele>486.66666666666663</ele><time>2026-04-30T13:19:04.999Z</time></trkpt><trkpt lat="37.91112377569665" lon="13.512619993023828"><ele>485.5</ele><time>2026-04-30T13:19:05.999Z</time></trkpt><trkpt lat="37.91115042034001" lon="13.512510990141672"><ele>484.3333333333333</ele><time>2026-04-30T13:19:06.999Z</time></trkpt><trkpt lat="37.91118118243345" lon="13.512400080175997"><ele>483.16666666666663</ele><time>2026-04-30T13:19:07.999Z</time></trkpt><trkpt lat="37.91121058031101" lon="13.512296962905703"><ele>482.0</ele><time>2026-04-30T13:19:08.999Z</time></trkpt><trkpt lat="37.91123571608857" lon="13.512192640930957"><ele>481.99999999999994</ele><time>2026-04-30T13:19:09.999Z</time></trkpt><trkpt lat="37.911264579118246" lon="13.512095023948271"><ele>482.0</ele><time>2026-04-30T13:19:10.999Z</time></trkpt><trkpt lat="37.91129452387834" lon="13.512004557688526"><ele>482.0</ele><time>2026-04-30T13:19:11.999Z</time></trkpt><trkpt lat="37.91131158456739" lon="13.511915606569442"><ele>482.0</ele><time>2026-04-30T13:19:12.999Z</time></trkpt><trkpt lat="37.91131265880037" lon="13.511826725667147"><ele>481.99999999999994</ele><time>2026-04-30T13:19:13.999Z</time></trkpt><trkpt lat="37.911308490016914" lon="13.511684659160455"><ele>482.0</ele><time>2026-04-30T13:19:15.999Z</time></trkpt><trkpt lat="37.91127629593001" lon="13.511581588223434"><ele>480.8333333333333</ele><time>2026-04-30T13:19:17.999Z</time></trkpt><trkpt lat="37.91122111405177" lon="13.511535649767138"><ele>479.66666666666663</ele><time>2026-04-30T13:19:18.999Z</time></trkpt><trkpt lat="37.911156138113526" lon="13.51146623065149"><ele>478.5</ele><time>2026-04-30T13:19:19.999Z</time></trkpt><trkpt lat="37.9111088068393" lon="13.51136684888288"><ele>477.33333333333337</ele><time>2026-04-30T13:19:20.999Z</time></trkpt><trkpt lat="37.91108574356312" lon="13.511269794350103"><ele>476.1666666666667</ele><time>2026-04-30T13:19:21.999Z</time></trkpt><trkpt lat="37.911061817791015" lon="13.511175502165797"><ele>475.0</ele><time>2026-04-30T13:19:22.999Z</time></trkpt><trkpt lat="37.91103520280652" lon="13.51108729423796"><ele>474.6666666666667</ele><time>2026-04-30T13:19:23.999Z</time></trkpt><trkpt lat="37.91100599054085" lon="13.511000557892016"><ele>474.33333333333337</ele><time>2026-04-30T13:19:24.999Z</time></trkpt><trkpt lat="37.91097250968257" lon="13.51092682678201"><ele>474.0</ele><time>2026-04-30T13:19:25.999Z</time></trkpt><trkpt lat="37.910895019073656" lon="13.510808962568172"><ele>473.66666666666663</ele><time>2026-04-30T13:19:27.999Z</time></trkpt><trkpt lat="37.910875548856104" lon="13.510728546595237"><ele>473.3333333333333</ele><time>2026-04-30T13:19:28.999Z</time></trkpt><trkpt lat="37.91087926270248" lon="13.510633490613708"><ele>473.0</ele><time>2026-04-30T13:19:29.999Z</time></trkpt><trkpt lat="37.910886551537295" lon="13.51053299452705"><ele>472.99999999999994</ele><time>2026-04-30T13:19:30.999Z</time></trkpt><trkpt lat="37.91088994347733" lon="13.510438665601264"><ele>473.0</ele><time>2026-04-30T13:19:31.999Z</time></trkpt><trkpt lat="37.910892941266376" lon="13.51034039516001"><ele>473.0</ele><time>2026-04-30T13:19:32.999Z</time></trkpt><trkpt lat="37.910896806135504" lon="13.51024604006116"><ele>473.0</ele><time>2026-04-30T13:19:33.999Z</time></trkpt><trkpt lat="37.91089815535492" lon="13.510150421159675"><ele>472.99999999999994</ele><time>2026-04-30T13:19:34.999Z</time></trkpt><trkpt lat="37.910903151244234" lon="13.510052365439998"><ele>473.0</ele><time>2026-04-30T13:19:35.999Z</time></trkpt><trkpt lat="37.91091214710325" lon="13.509956527052188"><ele>470.8333333333333</ele><time>2026-04-30T13:19:36.999Z</time></trkpt><trkpt lat="37.91093539856068" lon="13.509823615604352"><ele>468.66666666666663</ele><time>2026-04-30T13:19:38.999Z</time></trkpt><trkpt lat="37.9109436618203" lon="13.509737639142601"><ele>466.5</ele><time>2026-04-30T13:19:40.999Z</time></trkpt><trkpt lat="37.910956037498664" lon="13.509640004641698"><ele>464.33333333333337</ele><time>2026-04-30T13:19:43.999Z</time></trkpt><trkpt lat="37.91103036517516" lon="13.509581961753305"><ele>462.1666666666667</ele><time>2026-04-30T13:19:46.999Z</time></trkpt><trkpt lat="37.91106889360285" lon="13.509517391468911"><ele>460.0</ele><time>2026-04-30T13:19:48.999Z</time></trkpt><trkpt lat="37.91110177390359" lon="13.509416875636967"><ele>460.00000000000006</ele><time>2026-04-30T13:20:04.999Z</time></trkpt><trkpt lat="37.91114894825638" lon="13.509289528002613"><ele>460.0</ele><time>2026-04-30T13:20:07.999Z</time></trkpt><trkpt lat="37.911176798257365" lon="13.509211264922605"><ele>460.0</ele><time>2026-04-30T13:20:08.999Z</time></trkpt><trkpt lat="37.91120646138335" lon="13.509134090889976"><ele>460.0</ele><time>2026-04-30T13:20:09.999Z</time></trkpt><trkpt lat="37.91125984896054" lon="13.509024557100775"><ele>460.00000000000006</ele><time>2026-04-30T13:20:11.999Z</time></trkpt><trkpt lat="37.911299354820216" lon="13.508928976307045"><ele>460.0</ele><time>2026-04-30T13:20:13.999Z</time></trkpt><trkpt lat="37.91133439405104" lon="13.508815242497626"><ele>460.6</ele><time>2026-04-30T13:20:15.999Z</time></trkpt><trkpt lat="37.91136084947695" lon="13.508680545254387"><ele>461.2</ele><time>2026-04-30T13:20:17.999Z</time></trkpt><trkpt lat="37.9113574942168" lon="13.5085224165974"><ele>461.79999999999995</ele><time>2026-04-30T13:20:19.999Z</time></trkpt><trkpt lat="37.9113409771077" lon="13.508443700947252"><ele>462.4</ele><time>2026-04-30T13:20:20.999Z</time></trkpt><trkpt lat="37.911293093539726" lon="13.508313739780382"><ele>463.0</ele><time>2026-04-30T13:20:22.999Z</time></trkpt><trkpt lat="37.91122181011355" lon="13.508197312745885"><ele>463.00000000000006</ele><time>2026-04-30T13:20:24.999Z</time></trkpt><trkpt lat="37.91118218503209" lon="13.508128999623644"><ele>463.0</ele><time>2026-04-30T13:20:25.999Z</time></trkpt><trkpt lat="37.91114307273311" lon="13.508042251318997"><ele>463.0</ele><time>2026-04-30T13:20:26.999Z</time></trkpt><trkpt lat="37.91109044423486" lon="13.507954830336846"><ele>463.0</ele><time>2026-04-30T13:20:28Z</time></trkpt><trkpt lat="37.91102452519783" lon="13.507879142889596"><ele>463.00000000000006</ele><time>2026-04-30T13:20:29Z</time></trkpt><trkpt lat="37.910950014708334" lon="13.507814574393903"><ele>463.0</ele><time>2026-04-30T13:20:30Z</time></trkpt><trkpt lat="37.910874439243905" lon="13.507760400919093"><ele>464.6666666666667</ele><time>2026-04-30T13:20:31Z</time></trkpt><trkpt lat="37.910802113375276" lon="13.50771273351786"><ele>466.33333333333337</ele><time>2026-04-30T13:20:32Z</time></trkpt><trkpt lat="37.91074611356037" lon="13.507660812755754"><ele>468.0</ele><time>2026-04-30T13:20:33Z</time></trkpt><trkpt lat="37.910657700477365" lon="13.507541766371835"><ele>469.66666666666663</ele><time>2026-04-30T13:20:35Z</time></trkpt><trkpt lat="37.91061037176595" lon="13.50745867274386"><ele>471.3333333333333</ele><time>2026-04-30T13:20:36Z</time></trkpt><trkpt lat="37.9105697537007" lon="13.50738339418864"><ele>473.0</ele><time>2026-04-30T13:20:37Z</time></trkpt><trkpt lat="37.9105255228842" lon="13.50732080124559"><ele>472.99999999999994</ele><time>2026-04-30T13:20:38Z</time></trkpt><trkpt lat="37.91041462319089" lon="13.507247783842592"><ele>473.0</ele><time>2026-04-30T13:20:40Z</time></trkpt><trkpt lat="37.910349954024014" lon="13.507222648124774"><ele>473.0</ele><time>2026-04-30T13:20:41Z</time></trkpt><trkpt lat="37.91025126504007" lon="13.50716060973317"><ele>473.0</ele><time>2026-04-30T13:20:43Z</time></trkpt><trkpt lat="37.91018781327849" lon="13.507139264503405"><ele>472.99999999999994</ele><time>2026-04-30T13:20:44Z</time></trkpt><trkpt lat="37.91012004714009" lon="13.507121583195289"><ele>473.0</ele><time>2026-04-30T13:20:45Z</time></trkpt><trkpt lat="37.910057161188355" lon="13.507089177687313"><ele>473.99999999999994</ele><time>2026-04-30T13:20:46Z</time></trkpt><trkpt lat="37.90995305470755" lon="13.507000024932273"><ele>475.0</ele><time>2026-04-30T13:20:48Z</time></trkpt><trkpt lat="37.90990409798507" lon="13.50693581754705"><ele>476.0</ele><time>2026-04-30T13:20:49Z</time></trkpt><trkpt lat="37.90984175518689" lon="13.506875779012681"><ele>477.0</ele><time>2026-04-30T13:20:50Z</time></trkpt><trkpt lat="37.909778870078505" lon="13.506823277326646"><ele>477.99999999999994</ele><time>2026-04-30T13:20:51Z</time></trkpt><trkpt lat="37.90971462880383" lon="13.50677679644557"><ele>479.0</ele><time>2026-04-30T13:20:52Z</time></trkpt><trkpt lat="37.90965139061816" lon="13.506731192911554"><ele>478.99999999999994</ele><time>2026-04-30T13:20:53Z</time></trkpt><trkpt lat="37.90959101433528" lon="13.506680659905063"><ele>479.0</ele><time>2026-04-30T13:20:54Z</time></trkpt><trkpt lat="37.90953855545864" lon="13.506633230096904"><ele>479.0</ele><time>2026-04-30T13:20:55Z</time></trkpt><trkpt lat="37.90946074345558" lon="13.506565338207642"><ele>479.0</ele><time>2026-04-30T13:20:57Z</time></trkpt><trkpt lat="37.9093786429739" lon="13.506494613288323"><ele>478.99999999999994</ele><time>2026-04-30T13:20:59Z</time></trkpt><trkpt lat="37.90931279886611" lon="13.506395142914881"><ele>479.0</ele><time>2026-04-30T13:21:01Z</time></trkpt><trkpt lat="37.90933736876744" lon="13.506271765786861"><ele>480.2</ele><time>2026-04-30T13:21:03Z</time></trkpt><trkpt lat="37.90938504713675" lon="13.506174404399106"><ele>481.4</ele><time>2026-04-30T13:21:05Z</time></trkpt><trkpt lat="37.90948358199054" lon="13.50613719335733"><ele>482.6</ele><time>2026-04-30T13:21:06.999Z</time></trkpt><trkpt lat="37.9095473116629" lon="13.506110232143737"><ele>483.8</ele><time>2026-04-30T13:21:07.999Z</time></trkpt><trkpt lat="37.90964345706543" lon="13.506053914548994"><ele>485.0</ele><time>2026-04-30T13:21:09.999Z</time></trkpt><trkpt lat="37.90972806493842" lon="13.50590576568369"><ele>484.99999999999994</ele><time>2026-04-30T13:21:29.999Z</time></trkpt><trkpt lat="37.909754885844364" lon="13.505800833441482"><ele>485.0</ele><time>2026-04-30T13:21:30.999Z</time></trkpt><trkpt lat="37.909778736562885" lon="13.505694439481152"><ele>485.0</ele><time>2026-04-30T13:21:31.999Z</time></trkpt><trkpt lat="37.909801517694476" lon="13.50560276375982"><ele>485.0</ele><time>2026-04-30T13:21:32.999Z</time></trkpt><trkpt lat="37.90982094355223" lon="13.505518819329044"><ele>484.99999999999994</ele><time>2026-04-30T13:21:33.999Z</time></trkpt><trkpt lat="37.90984540114879" lon="13.505380475966493"><ele>485.0</ele><time>2026-04-30T13:21:35.999Z</time></trkpt><trkpt lat="37.90986267557453" lon="13.50529192820971"><ele>486.49999999999994</ele><time>2026-04-30T13:21:36.999Z</time></trkpt><trkpt lat="37.90986306964047" lon="13.50519501212977"><ele>488.0</ele><time>2026-04-30T13:21:37.999Z</time></trkpt><trkpt lat="37.909873032672934" lon="13.505056439946392"><ele>489.5</ele><time>2026-04-30T13:21:39.999Z</time></trkpt><trkpt lat="37.90996197215589" lon="13.505002036578663"><ele>491.0</ele><time>2026-04-30T13:21:41.999Z</time></trkpt><trkpt lat="37.910035293465285" lon="13.504999504543758"><ele>492.49999999999994</ele><time>2026-04-30T13:21:42.999Z</time></trkpt><trkpt lat="37.910098350627955" lon="13.504946419092292"><ele>494.0</ele><time>2026-04-30T13:21:43.999Z</time></trkpt><trkpt lat="37.91013750506167" lon="13.50485000956381"><ele>493.99999999999994</ele><time>2026-04-30T13:21:44.999Z</time></trkpt><trkpt lat="37.91015711299679" lon="13.504725222109206"><ele>494.0</ele><time>2026-04-30T13:21:45.999Z</time></trkpt><trkpt lat="37.91016967030732" lon="13.504610382610293"><ele>494.0</ele><time>2026-04-30T13:21:46.999Z</time></trkpt><trkpt lat="37.9101676327692" lon="13.50450408740398"><ele>494.0</ele><time>2026-04-30T13:21:47.999Z</time></trkpt><trkpt lat="37.9101656296951" lon="13.504403460001273"><ele>493.99999999999994</ele><time>2026-04-30T13:21:48.999Z</time></trkpt><trkpt lat="37.91015944113696" lon="13.50429427597486"><ele>494.0</ele><time>2026-04-30T13:21:49.999Z</time></trkpt><trkpt lat="37.91014781403755" lon="13.504170263929938"><ele>496.4</ele><time>2026-04-30T13:21:50.999Z</time></trkpt><trkpt lat="37.91014059766209" lon="13.504048845068107"><ele>498.79999999999995</ele><time>2026-04-30T13:21:51.999Z</time></trkpt><trkpt lat="37.91014871565992" lon="13.503934655665484"><ele>501.20000000000005</ele><time>2026-04-30T13:21:52.999Z</time></trkpt><trkpt lat="37.91018002740952" lon="13.503822820025611"><ele>503.6</ele><time>2026-04-30T13:21:53.999Z</time></trkpt><trkpt lat="37.910221951386454" lon="13.503707343471337"><ele>506.0</ele><time>2026-04-30T13:21:54.999Z</time></trkpt><trkpt lat="37.91025639739236" lon="13.503599098207793"><ele>507.8333333333333</ele><time>2026-04-30T13:21:55.999Z</time></trkpt><trkpt lat="37.910284609720144" lon="13.503516195745052"><ele>509.66666666666663</ele><time>2026-04-30T13:21:56.999Z</time></trkpt><trkpt lat="37.91031010156041" lon="13.503436266301149"><ele>511.5</ele><time>2026-04-30T13:21:57.999Z</time></trkpt><trkpt lat="37.91034737765393" lon="13.503351826451972"><ele>513.3333333333334</ele><time>2026-04-30T13:21:59.999Z</time></trkpt><trkpt lat="37.910460454153636" lon="13.503303676261652"><ele>515.1666666666667</ele><time>2026-04-30T13:22:01.999Z</time></trkpt><trkpt lat="37.910564913417275" lon="13.503293752913843"><ele>517.0</ele><time>2026-04-30T13:22:02.999Z</time></trkpt><trkpt lat="37.91068732211857" lon="13.503283762065283"><ele>517.0</ele><time>2026-04-30T13:22:03.999Z</time></trkpt><trkpt lat="37.91081580617051" lon="13.503272618888785"><ele>517.0</ele><time>2026-04-30T13:22:04.999Z</time></trkpt><trkpt lat="37.91094702121246" lon="13.50325975635649"><ele>517.0</ele><time>2026-04-30T13:22:05.999Z</time></trkpt><trkpt lat="37.91107304859939" lon="13.503246831404624"><ele>517.0</ele><time>2026-04-30T13:22:06.999Z</time></trkpt><trkpt lat="37.91118857005055" lon="13.50323379828957"><ele>516.25</ele><time>2026-04-30T13:22:07.999Z</time></trkpt><trkpt lat="37.91130008540408" lon="13.503215595968788"><ele>515.5</ele><time>2026-04-30T13:22:08.999Z</time></trkpt><trkpt lat="37.911410348283" lon="13.503181315093716"><ele>514.75</ele><time>2026-04-30T13:22:09.999Z</time></trkpt><trkpt lat="37.91151643215273" lon="13.503117889735377"><ele>514.0</ele><time>2026-04-30T13:22:10.999Z</time></trkpt><trkpt lat="37.91161841094821" lon="13.503035478041113"><ele>514.0</ele><time>2026-04-30T13:22:11.999Z</time></trkpt><trkpt lat="37.911706715217946" lon="13.502974886849833"><ele>514.0</ele><time>2026-04-30T13:22:12.999Z</time></trkpt><trkpt lat="37.91178521254931" lon="13.502933234031739"><ele>514.0</ele><time>2026-04-30T13:22:13.999Z</time></trkpt><trkpt lat="37.91184495527724" lon="13.502898354210368"><ele>514.0</ele><time>2026-04-30T13:22:14.999Z</time></trkpt><trkpt lat="37.91192529864533" lon="13.502849223084576"><ele>514.0</ele><time>2026-04-30T13:22:16.999Z</time></trkpt><trkpt lat="37.91199485702581" lon="13.502816929049985"><ele>514.0</ele><time>2026-04-30T13:22:18.999Z</time></trkpt><trkpt lat="37.91207756953757" lon="13.502758506053594"><ele>514.6</ele><time>2026-04-30T13:22:21.999Z</time></trkpt><trkpt lat="37.91225539393802" lon="13.502795345108618"><ele>515.2</ele><time>2026-04-30T13:24:12.999Z</time></trkpt><trkpt lat="37.9123177289242" lon="13.502825352976805"><ele>515.8000000000001</ele><time>2026-04-30T13:24:13.999Z</time></trkpt><trkpt lat="37.91237472713474" lon="13.502859302018758"><ele>516.4</ele><time>2026-04-30T13:24:14.999Z</time></trkpt><trkpt lat="37.912480258640095" lon="13.502877087025096"><ele>517.0</ele><time>2026-04-30T13:24:16.999Z</time></trkpt><trkpt lat="37.91256077597834" lon="13.502745253194956"><ele>513.6</ele><time>2026-04-30T13:24:18.999Z</time></trkpt><trkpt lat="37.912585093367774" lon="13.502634282062086"><ele>510.20000000000005</ele><time>2026-04-30T13:24:19.999Z</time></trkpt><trkpt lat="37.91261000625431" lon="13.502515689024246"><ele>506.8</ele><time>2026-04-30T13:24:20.999Z</time></trkpt><trkpt lat="37.912654932407506" lon="13.502375857794785"><ele>503.4</ele><time>2026-04-30T13:24:21.999Z</time></trkpt><trkpt lat="37.9127027393058" lon="13.50222889164945"><ele>500.0</ele><time>2026-04-30T13:24:22.999Z</time></trkpt><trkpt lat="37.91274837644602" lon="13.502086083695776"><ele>501.6</ele><time>2026-04-30T13:24:23.999Z</time></trkpt><trkpt lat="37.91278636198891" lon="13.501967959593202"><ele>503.2</ele><time>2026-04-30T13:24:24.999Z</time></trkpt><trkpt lat="37.9128195136453" lon="13.501865562990622"><ele>504.79999999999995</ele><time>2026-04-30T13:24:25.999Z</time></trkpt><trkpt lat="37.91284706490008" lon="13.501778363900877"><ele>506.4</ele><time>2026-04-30T13:24:26.999Z</time></trkpt><trkpt lat="37.91287461027921" lon="13.501639609399614"><ele>508.0</ele><time>2026-04-30T13:24:28.999Z</time></trkpt><trkpt lat="37.91287560528372" lon="13.501487453664517"><ele>508.0</ele><time>2026-04-30T13:24:30.999Z</time></trkpt><trkpt lat="37.912856960184804" lon="13.501350262327664"><ele>508.0</ele><time>2026-04-30T13:24:31.999Z</time></trkpt><trkpt lat="37.91282862637784" lon="13.50118534451736"><ele>508.0</ele><time>2026-04-30T13:24:32.999Z</time></trkpt><trkpt lat="37.91278954542698" lon="13.501025480816944"><ele>508.0</ele><time>2026-04-30T13:24:33.999Z</time></trkpt><trkpt lat="37.912734824575296" lon="13.500863273187077"><ele>508.0</ele><time>2026-04-30T13:24:34.999Z</time></trkpt><trkpt lat="37.91265572051963" lon="13.500711888469414"><ele>508.0</ele><time>2026-04-30T13:24:35.999Z</time></trkpt><trkpt lat="37.9125643107393" lon="13.500589163946419"><ele>508.0</ele><time>2026-04-30T13:24:36.999Z</time></trkpt><trkpt lat="37.91248674387514" lon="13.50047809323951"><ele>508.0</ele><time>2026-04-30T13:24:37.999Z</time></trkpt><trkpt lat="37.912439503042" lon="13.50036333969878"><ele>508.0</ele><time>2026-04-30T13:24:38.999Z</time></trkpt><trkpt lat="37.91241535170535" lon="13.500209482196126"><ele>508.0</ele><time>2026-04-30T13:24:40Z</time></trkpt><trkpt lat="37.912392358790726" lon="13.500062538616003"><ele>508.0</ele><time>2026-04-30T13:24:41Z</time></trkpt><trkpt lat="37.91234384545163" lon="13.499933084244333"><ele>508.0</ele><time>2026-04-30T13:24:42Z</time></trkpt><trkpt lat="37.91226858507596" lon="13.499831247004487"><ele>508.0</ele><time>2026-04-30T13:24:43Z</time></trkpt><trkpt lat="37.9121980246014" lon="13.499744082354729"><ele>507.99999999999994</ele><time>2026-04-30T13:24:44Z</time></trkpt><trkpt lat="37.91213925983367" lon="13.4996509743093"><ele>507.99999999999994</ele><time>2026-04-30T13:24:45Z</time></trkpt><trkpt lat="37.91209270081782" lon="13.499549497245697"><ele>508.0</ele><time>2026-04-30T13:24:46Z</time></trkpt><trkpt lat="37.91206468206158" lon="13.499435782714718"><ele>508.0</ele><time>2026-04-30T13:24:47Z</time></trkpt><trkpt lat="37.91204295448936" lon="13.499313163777732"><ele>505.2</ele><time>2026-04-30T13:24:48Z</time></trkpt><trkpt lat="37.91201445995989" lon="13.499185380477428"><ele>502.4</ele><time>2026-04-30T13:24:49Z</time></trkpt><trkpt lat="37.91198431531112" lon="13.499048018149473"><ele>499.59999999999997</ele><time>2026-04-30T13:24:50Z</time></trkpt><trkpt lat="37.911960716436894" lon="13.498904889037387"><ele>496.79999999999995</ele><time>2026-04-30T13:24:51Z</time></trkpt><trkpt lat="37.9119396715977" lon="13.498760786502583"><ele>494.0</ele><time>2026-04-30T13:24:52Z</time></trkpt><trkpt lat="37.911910120436275" lon="13.498614326103937"><ele>492.4</ele><time>2026-04-30T13:24:53Z</time></trkpt><trkpt lat="37.911876534756715" lon="13.498481626751449"><ele>490.79999999999995</ele><time>2026-04-30T13:24:54Z</time></trkpt><trkpt lat="37.91184392461558" lon="13.498361302667298"><ele>489.20000000000005</ele><time>2026-04-30T13:24:55Z</time></trkpt><trkpt lat="37.91182281203102" lon="13.49822885994062"><ele>487.6</ele><time>2026-04-30T13:24:56Z</time></trkpt><trkpt lat="37.911816790977895" lon="13.498081449289424"><ele>486.0</ele><time>2026-04-30T13:24:57Z</time></trkpt><trkpt lat="37.91181819151874" lon="13.497925887278447"><ele>486.5</ele><time>2026-04-30T13:24:58Z</time></trkpt><trkpt lat="37.911826947098625" lon="13.497760298881122"><ele>487.0</ele><time>2026-04-30T13:24:59Z</time></trkpt><trkpt lat="37.91183184241793" lon="13.497591310853805"><ele>487.5</ele><time>2026-04-30T13:25:00Z</time></trkpt><trkpt lat="37.91184838686284" lon="13.497429756306117"><ele>488.0</ele><time>2026-04-30T13:25:01Z</time></trkpt><trkpt lat="37.91187987411493" lon="13.497288416636422"><ele>488.0</ele><time>2026-04-30T13:25:02Z</time></trkpt><trkpt lat="37.9119399112025" lon="13.497159265695647"><ele>488.0</ele><time>2026-04-30T13:25:03Z</time></trkpt><trkpt lat="37.91203284059612" lon="13.497038728831281"><ele>488.0</ele><time>2026-04-30T13:25:04Z</time></trkpt><trkpt lat="37.912116894075" lon="13.496917757885136"><ele>488.0</ele><time>2026-04-30T13:25:05Z</time></trkpt><trkpt lat="37.91217353287876" lon="13.49678465870122"><ele>491.25</ele><time>2026-04-30T13:25:06Z</time></trkpt><trkpt lat="37.912227933968175" lon="13.496631211191492"><ele>494.5</ele><time>2026-04-30T13:25:07Z</time></trkpt><trkpt lat="37.91228411970545" lon="13.496471466598251"><ele>497.75</ele><time>2026-04-30T13:25:08Z</time></trkpt><trkpt lat="37.912327816789926" lon="13.49630580531101"><ele>501.0</ele><time>2026-04-30T13:25:08.999Z</time></trkpt><trkpt lat="37.9123608499533" lon="13.49615294440137"><ele>503.0</ele><time>2026-04-30T13:25:09.999Z</time></trkpt><trkpt lat="37.91238535956683" lon="13.495998528122191"><ele>505.0</ele><time>2026-04-30T13:25:10.999Z</time></trkpt><trkpt lat="37.91239485761939" lon="13.495824489793215"><ele>507.0</ele><time>2026-04-30T13:25:11.999Z</time></trkpt><trkpt lat="37.91239674489576" lon="13.495663280005472"><ele>509.0</ele><time>2026-04-30T13:25:12.999Z</time></trkpt><trkpt lat="37.912420165090396" lon="13.495517180141304"><ele>509.75</ele><time>2026-04-30T13:25:13.999Z</time></trkpt><trkpt lat="37.91246997140954" lon="13.495381618954418"><ele>510.5</ele><time>2026-04-30T13:25:14.999Z</time></trkpt><trkpt lat="37.912516976457205" lon="13.495245495025692"><ele>511.25</ele><time>2026-04-30T13:25:15.999Z</time></trkpt><trkpt lat="37.91254063581045" lon="13.49509883542873"><ele>512.0</ele><time>2026-04-30T13:25:16.999Z</time></trkpt><trkpt lat="37.912553068060404" lon="13.494951416902271"><ele>512.0</ele><time>2026-04-30T13:25:17.999Z</time></trkpt><trkpt lat="37.91256161666745" lon="13.494828941404773"><ele>512.0</ele><time>2026-04-30T13:25:18.999Z</time></trkpt><trkpt lat="37.912553618891316" lon="13.494697395895944"><ele>512.0</ele><time>2026-04-30T13:25:19.999Z</time></trkpt><trkpt lat="37.91251173544389" lon="13.494556414848546"><ele>512.0</ele><time>2026-04-30T13:25:20.999Z</time></trkpt><trkpt lat="37.91245112862237" lon="13.494417922163661"><ele>512.0</ele><time>2026-04-30T13:25:21.999Z</time></trkpt><trkpt lat="37.9124043657972" lon="13.494282154197306"><ele>510.6</ele><time>2026-04-30T13:25:22.999Z</time></trkpt><trkpt lat="37.91237367025137" lon="13.494150089035934"><ele>509.20000000000005</ele><time>2026-04-30T13:25:23.999Z</time></trkpt><trkpt lat="37.91235443214399" lon="13.494024436746944"><ele>507.8</ele><time>2026-04-30T13:25:24.999Z</time></trkpt><trkpt lat="37.91234208281948" lon="13.493900201071172"><ele>506.4</ele><time>2026-04-30T13:25:25.999Z</time></trkpt><trkpt lat="37.91232235636023" lon="13.493773057019746"><ele>505.0</ele><time>2026-04-30T13:25:26.999Z</time></trkpt><trkpt lat="37.91230995724944" lon="13.49363569873433"><ele>501.8</ele><time>2026-04-30T13:25:27.999Z</time></trkpt><trkpt lat="37.912318854029806" lon="13.493504676130701"><ele>498.6</ele><time>2026-04-30T13:25:28.999Z</time></trkpt><trkpt lat="37.91233149082393" lon="13.493376066090926"><ele>495.4</ele><time>2026-04-30T13:25:29.999Z</time></trkpt><trkpt lat="37.91232148451254" lon="13.493254800342147"><ele>492.2</ele><time>2026-04-30T13:25:30.999Z</time></trkpt><trkpt lat="37.91228260669048" lon="13.493134535621307"><ele>489.0</ele><time>2026-04-30T13:25:31.999Z</time></trkpt><trkpt lat="37.91221187576159" lon="13.493023907427578"><ele>489.0</ele><time>2026-04-30T13:25:32.999Z</time></trkpt><trkpt lat="37.912111199384654" lon="13.492938736993647"><ele>489.0</ele><time>2026-04-30T13:25:33.999Z</time></trkpt><trkpt lat="37.912000195276455" lon="13.492890841058003"><ele>489.0</ele><time>2026-04-30T13:25:34.999Z</time></trkpt><trkpt lat="37.91189724007157" lon="13.492904581277664"><ele>489.0</ele><time>2026-04-30T13:25:35.999Z</time></trkpt><trkpt lat="37.91182493200326" lon="13.492915939932592"><ele>489.0</ele><time>2026-04-30T13:25:36.999Z</time></trkpt><trkpt lat="37.911741270683855" lon="13.492802761836316"><ele>490.0</ele><time>2026-04-30T13:25:38.999Z</time></trkpt><trkpt lat="37.911738675224505" lon="13.492691632138502"><ele>491.0</ele><time>2026-04-30T13:25:39.999Z</time></trkpt><trkpt lat="37.91174117498011" lon="13.492565169967781"><ele>492.0</ele><time>2026-04-30T13:25:40.999Z</time></trkpt><trkpt lat="37.91170921615478" lon="13.492426514120474"><ele>493.0</ele><time>2026-04-30T13:25:41.999Z</time></trkpt><trkpt lat="37.91164587217739" lon="13.492281410558641"><ele>494.0</ele><time>2026-04-30T13:25:42.999Z</time></trkpt><trkpt lat="37.911574547606065" lon="13.492132062445814"><ele>491.25</ele><time>2026-04-30T13:25:43.999Z</time></trkpt><trkpt lat="37.911516156719266" lon="13.491972778364975"><ele>488.5</ele><time>2026-04-30T13:25:44.999Z</time></trkpt><trkpt lat="37.911480424164985" lon="13.49180306896149"><ele>485.75</ele><time>2026-04-30T13:25:45.999Z</time></trkpt><trkpt lat="37.911453385465286" lon="13.491620062786936"><ele>483.0</ele><time>2026-04-30T13:25:46.999Z</time></trkpt><trkpt lat="37.911426502527476" lon="13.491445262636757"><ele>483.0</ele><time>2026-04-30T13:25:47.999Z</time></trkpt><trkpt lat="37.91139856510732" lon="13.491279639682004"><ele>483.0</ele><time>2026-04-30T13:25:48.999Z</time></trkpt><trkpt lat="37.91138335800777" lon="13.491124531411193"><ele>483.0</ele><time>2026-04-30T13:25:49.999Z</time></trkpt><trkpt lat="37.91140226690244" lon="13.49096518713592"><ele>483.0</ele><time>2026-04-30T13:25:50.999Z</time></trkpt><trkpt lat="37.9114420989978" lon="13.490799989965227"><ele>483.0</ele><time>2026-04-30T13:25:51.999Z</time></trkpt><trkpt lat="37.9114517949114" lon="13.490606884787711"><ele>483.0</ele><time>2026-04-30T13:25:52.999Z</time></trkpt><trkpt lat="37.911436449687386" lon="13.490382729430822"><ele>483.0</ele><time>2026-04-30T13:25:53.999Z</time></trkpt><trkpt lat="37.91143102066378" lon="13.490157307932106"><ele>484.25</ele><time>2026-04-30T13:25:54.999Z</time></trkpt><trkpt lat="37.91144164051639" lon="13.48996838584157"><ele>485.5</ele><time>2026-04-30T13:25:55.999Z</time></trkpt><trkpt lat="37.91145596009761" lon="13.489804838821467"><ele>486.75</ele><time>2026-04-30T13:25:56.999Z</time></trkpt><trkpt lat="37.911489390392624" lon="13.489665206478474"><ele>488.0</ele><time>2026-04-30T13:25:57.999Z</time></trkpt><trkpt lat="37.911508175115365" lon="13.489535470979549"><ele>488.0</ele><time>2026-04-30T13:25:58.999Z</time></trkpt><trkpt lat="37.911513076783685" lon="13.48942370395054"><ele>487.99999999999994</ele><time>2026-04-30T13:25:59.999Z</time></trkpt><trkpt lat="37.9115056904219" lon="13.489306219194765"><ele>487.99999999999994</ele><time>2026-04-30T13:26:00.999Z</time></trkpt><trkpt lat="37.911485546539645" lon="13.489178578987287"><ele>488.0</ele><time>2026-04-30T13:26:01.999Z</time></trkpt><trkpt lat="37.91145970975446" lon="13.489051325313637"><ele>488.0</ele><time>2026-04-30T13:26:02.999Z</time></trkpt><trkpt lat="37.91143277126682" lon="13.48892046065207"><ele>488.0</ele><time>2026-04-30T13:26:03.999Z</time></trkpt><trkpt lat="37.91139125844086" lon="13.488803120008242"><ele>487.99999999999994</ele><time>2026-04-30T13:26:04.999Z</time></trkpt><trkpt lat="37.91132537403066" lon="13.488703068443927"><ele>487.99999999999994</ele><time>2026-04-30T13:26:05.999Z</time></trkpt><trkpt lat="37.91123836112876" lon="13.48863709798649"><ele>488.0</ele><time>2026-04-30T13:26:06.999Z</time></trkpt><trkpt lat="37.91113887265616" lon="13.488605280529889"><ele>488.0</ele><time>2026-04-30T13:26:07.999Z</time></trkpt><trkpt lat="37.91103898625091" lon="13.488577349110008"><ele>489.4</ele><time>2026-04-30T13:26:08.999Z</time></trkpt><trkpt lat="37.910941849991495" lon="13.48854159960155"><ele>490.79999999999995</ele><time>2026-04-30T13:26:09.999Z</time></trkpt><trkpt lat="37.91084774152289" lon="13.48849230814383"><ele>492.2</ele><time>2026-04-30T13:26:10.999Z</time></trkpt><trkpt lat="37.91076108158454" lon="13.488420861707056"><ele>493.6</ele><time>2026-04-30T13:26:11.999Z</time></trkpt><trkpt lat="37.91067895829469" lon="13.488341768856547"><ele>495.0</ele><time>2026-04-30T13:26:12.999Z</time></trkpt><trkpt lat="37.91058288797295" lon="13.488263280771111"><ele>495.0</ele><time>2026-04-30T13:26:13.999Z</time></trkpt><trkpt lat="37.91049260541952" lon="13.488216008358693"><ele>495.0</ele><time>2026-04-30T13:26:14.999Z</time></trkpt><trkpt lat="37.91042126318954" lon="13.48816703019147"><ele>495.0</ele><time>2026-04-30T13:26:15.999Z</time></trkpt><trkpt lat="37.91037512615822" lon="13.488102414107107"><ele>495.0</ele><time>2026-04-30T13:26:16.999Z</time></trkpt><trkpt lat="37.91035651697051" lon="13.488005964576873"><ele>495.0</ele><time>2026-04-30T13:26:17.999Z</time></trkpt><trkpt lat="37.910353909284936" lon="13.487900580813005"><ele>495.0</ele><time>2026-04-30T13:26:18.999Z</time></trkpt><trkpt lat="37.91037262181963" lon="13.487802837292572"><ele>495.1666666666667</ele><time>2026-04-30T13:26:19.999Z</time></trkpt><trkpt lat="37.91041112462027" lon="13.487697095017081"><ele>495.33333333333337</ele><time>2026-04-30T13:26:20.999Z</time></trkpt><trkpt lat="37.91043674540163" lon="13.487609823049143"><ele>495.5</ele><time>2026-04-30T13:26:21.999Z</time></trkpt><trkpt lat="37.91043828291651" lon="13.487526386280964"><ele>495.6666666666667</ele><time>2026-04-30T13:26:22.999Z</time></trkpt><trkpt lat="37.910431407281386" lon="13.487434879342585"><ele>495.83333333333337</ele><time>2026-04-30T13:26:23.999Z</time></trkpt><trkpt lat="37.91041378486299" lon="13.487342786074521"><ele>496.0</ele><time>2026-04-30T13:26:24.999Z</time></trkpt><trkpt lat="37.91038661770249" lon="13.487247810795377"><ele>496.00000000000006</ele><time>2026-04-30T13:26:25.999Z</time></trkpt><trkpt lat="37.91035333535533" lon="13.487153712211377"><ele>496.0</ele><time>2026-04-30T13:26:26.999Z</time></trkpt><trkpt lat="37.9103068480827" lon="13.487061270318343"><ele>496.0</ele><time>2026-04-30T13:26:27.999Z</time></trkpt><trkpt lat="37.91024340578376" lon="13.486981506809874"><ele>496.0</ele><time>2026-04-30T13:26:28.999Z</time></trkpt><trkpt lat="37.91016718492917" lon="13.486917152881485"><ele>496.00000000000006</ele><time>2026-04-30T13:26:29.999Z</time></trkpt><trkpt lat="37.910077542635456" lon="13.486876343560299"><ele>496.0</ele><time>2026-04-30T13:26:30.999Z</time></trkpt><trkpt lat="37.90998509454478" lon="13.486863985829402"><ele>499.0</ele><time>2026-04-30T13:26:31.999Z</time></trkpt><trkpt lat="37.909885919952536" lon="13.486844034488138"><ele>502.0</ele><time>2026-04-30T13:26:32.999Z</time></trkpt><trkpt lat="37.909793054131285" lon="13.486806483477347"><ele>505.0</ele><time>2026-04-30T13:26:33.999Z</time></trkpt><trkpt lat="37.909709105569384" lon="13.486774945934224"><ele>508.0</ele><time>2026-04-30T13:26:34.999Z</time></trkpt><trkpt lat="37.909632977637834" lon="13.486716519937946"><ele>511.0</ele><time>2026-04-30T13:26:35.999Z</time></trkpt><trkpt lat="37.90955727283553" lon="13.48667464567946"><ele>511.00000000000006</ele><time>2026-04-30T13:26:37.999Z</time></trkpt><trkpt lat="37.909525600202805" lon="13.486602901460325"><ele>511.0</ele><time>2026-04-30T13:26:44.999Z</time></trkpt><trkpt lat="37.90957403082858" lon="13.4865049369049"><ele>511.0</ele><time>2026-04-30T13:26:47Z</time></trkpt><trkpt lat="37.909648493899475" lon="13.486386394157556"><ele>511.0</ele><time>2026-04-30T13:26:49Z</time></trkpt><trkpt lat="37.90967602617566" lon="13.486302138114278"><ele>511.00000000000006</ele><time>2026-04-30T13:26:50Z</time></trkpt><trkpt lat="37.90971049582498" lon="13.486212679400921"><ele>511.0</ele><time>2026-04-30T13:26:51Z</time></trkpt><trkpt lat="37.90974657111957" lon="13.486129092007355"><ele>509.00000000000006</ele><time>2026-04-30T13:26:52Z</time></trkpt><trkpt lat="37.90978710113989" lon="13.486046276519124"><ele>507.0</ele><time>2026-04-30T13:26:53Z</time></trkpt><trkpt lat="37.90983107422986" lon="13.485961858774441"><ele>505.0</ele><time>2026-04-30T13:26:54Z</time></trkpt><trkpt lat="37.9098828439015" lon="13.485886414595997"><ele>503.0</ele><time>2026-04-30T13:26:55Z</time></trkpt><trkpt lat="37.909946743966294" lon="13.485797203117917"><ele>501.00000000000006</ele><time>2026-04-30T13:26:56Z</time></trkpt><trkpt lat="37.90999460405225" lon="13.485683081883726"><ele>499.0</ele><time>2026-04-30T13:26:57Z</time></trkpt><trkpt lat="37.9100352575849" lon="13.485570085678052"><ele>496.79999999999995</ele><time>2026-04-30T13:26:58Z</time></trkpt><trkpt lat="37.91009062384334" lon="13.48545488126616"><ele>494.59999999999997</ele><time>2026-04-30T13:26:59Z</time></trkpt><trkpt lat="37.910142620385976" lon="13.48533601305271"><ele>492.4</ele><time>2026-04-30T13:27:00Z</time></trkpt><trkpt lat="37.91020064620856" lon="13.485223031252227"><ele>490.2</ele><time>2026-04-30T13:27:01Z</time></trkpt><trkpt lat="37.910251432375894" lon="13.485099267549247"><ele>488.0</ele><time>2026-04-30T13:27:02Z</time></trkpt><trkpt lat="37.910302566731666" lon="13.484972381474517"><ele>485.0</ele><time>2026-04-30T13:27:03Z</time></trkpt><trkpt lat="37.910361423481596" lon="13.484849710214666"><ele>482.0</ele><time>2026-04-30T13:27:04Z</time></trkpt><trkpt lat="37.91042706151816" lon="13.484726885293119"><ele>479.0</ele><time>2026-04-30T13:27:05Z</time></trkpt><trkpt lat="37.910486371360534" lon="13.484600613095417"><ele>476.0</ele><time>2026-04-30T13:27:06Z</time></trkpt><trkpt lat="37.910542129301895" lon="13.48446924267795"><ele>473.5</ele><time>2026-04-30T13:27:07Z</time></trkpt><trkpt lat="37.91059799413736" lon="13.484340491156889"><ele>471.0</ele><time>2026-04-30T13:27:08Z</time></trkpt><trkpt lat="37.91066099614875" lon="13.484215623187481"><ele>468.5</ele><time>2026-04-30T13:27:09Z</time></trkpt><trkpt lat="37.91072712581659" lon="13.484103426619209"><ele>466.0</ele><time>2026-04-30T13:27:10Z</time></trkpt><trkpt lat="37.91079861991483" lon="13.48399546822512"><ele>466.0</ele><time>2026-04-30T13:27:11Z</time></trkpt><trkpt lat="37.91087943666441" lon="13.48391177191958"><ele>466.0</ele><time>2026-04-30T13:27:12Z</time></trkpt><trkpt lat="37.91096491507394" lon="13.483839239202375"><ele>466.0</ele><time>2026-04-30T13:27:13Z</time></trkpt><trkpt lat="37.911039577298425" lon="13.48377434672817"><ele>466.0</ele><time>2026-04-30T13:27:14Z</time></trkpt><trkpt lat="37.91111391221396" lon="13.483712109648334"><ele>466.0</ele><time>2026-04-30T13:27:15Z</time></trkpt><trkpt lat="37.91118764386322" lon="13.483655193655055"><ele>462.0</ele><time>2026-04-30T13:27:16Z</time></trkpt><trkpt lat="37.91126810352285" lon="13.483600149988657"><ele>458.0</ele><time>2026-04-30T13:27:17Z</time></trkpt><trkpt lat="37.91135294957042" lon="13.483541071328302"><ele>454.0</ele><time>2026-04-30T13:27:18Z</time></trkpt><trkpt lat="37.91143766223467" lon="13.483477775803681"><ele>450.0</ele><time>2026-04-30T13:27:19Z</time></trkpt><trkpt lat="37.911516733959324" lon="13.483430708817698"><ele>446.0</ele><time>2026-04-30T13:27:19.999Z</time></trkpt><trkpt lat="37.911611643154224" lon="13.483394960187859"><ele>446.0</ele><time>2026-04-30T13:27:20.999Z</time></trkpt><trkpt lat="37.9117063976632" lon="13.48332094198155"><ele>446.0</ele><time>2026-04-30T13:27:21.999Z</time></trkpt><trkpt lat="37.91179581786938" lon="13.483263173223111"><ele>446.0</ele><time>2026-04-30T13:27:22.999Z</time></trkpt><trkpt lat="37.91188400520743" lon="13.483214321623638"><ele>446.0</ele><time>2026-04-30T13:27:23.999Z</time></trkpt><trkpt lat="37.9119696620851" lon="13.483169867192997"><ele>446.0</ele><time>2026-04-30T13:27:24.999Z</time></trkpt><trkpt lat="37.91206489174899" lon="13.483137409191343"><ele>445.0</ele><time>2026-04-30T13:27:25.999Z</time></trkpt><trkpt lat="37.91216695580538" lon="13.483107170155163"><ele>444.0</ele><time>2026-04-30T13:27:26.999Z</time></trkpt><trkpt lat="37.91227550160697" lon="13.483065640899884"><ele>443.0</ele><time>2026-04-30T13:27:27.999Z</time></trkpt><trkpt lat="37.91239621756563" lon="13.483011981358645"><ele>442.0</ele><time>2026-04-30T13:27:28.999Z</time></trkpt><trkpt lat="37.91251850263243" lon="13.482954666943979"><ele>444.20000000000005</ele><time>2026-04-30T13:27:29.999Z</time></trkpt><trkpt lat="37.912640586535694" lon="13.482921365930142"><ele>446.40000000000003</ele><time>2026-04-30T13:27:30.999Z</time></trkpt><trkpt lat="37.91273937573464" lon="13.48289473997765"><ele>448.59999999999997</ele><time>2026-04-30T13:27:31.999Z</time></trkpt><trkpt lat="37.912811383661236" lon="13.482865275974033"><ele>450.79999999999995</ele><time>2026-04-30T13:27:32.999Z</time></trkpt><trkpt lat="37.912836460902795" lon="13.482790055810652"><ele>453.0</ele><time>2026-04-30T13:27:34.999Z</time></trkpt><trkpt lat="37.91278319790142" lon="13.482692810624"><ele>453.0</ele><time>2026-04-30T13:27:36.999Z</time></trkpt><trkpt lat="37.9127130593223" lon="13.482623979354805"><ele>453.0</ele><time>2026-04-30T13:27:37.999Z</time></trkpt><trkpt lat="37.912616280987194" lon="13.482547181290272"><ele>453.0</ele><time>2026-04-30T13:27:38.999Z</time></trkpt><trkpt lat="37.912503618516375" lon="13.482453407967718"><ele>453.0</ele><time>2026-04-30T13:27:39.999Z</time></trkpt><trkpt lat="37.91238319750245" lon="13.482338502760278"><ele>451.0</ele><time>2026-04-30T13:27:40.999Z</time></trkpt><trkpt lat="37.912256492312345" lon="13.482216675472577"><ele>449.0</ele><time>2026-04-30T13:27:41.999Z</time></trkpt><trkpt lat="37.91211642425209" lon="13.482082942410642"><ele>447.0</ele><time>2026-04-30T13:27:42.999Z</time></trkpt><trkpt lat="37.91196947991069" lon="13.481945063878095"><ele>448.0</ele><time>2026-04-30T13:27:43.999Z</time></trkpt><trkpt lat="37.91182534552729" lon="13.481808816609998"><ele>449.0</ele><time>2026-04-30T13:27:44.999Z</time></trkpt><trkpt lat="37.91167897675972" lon="13.481668362490343"><ele>450.0</ele><time>2026-04-30T13:27:45.999Z</time></trkpt><trkpt lat="37.91153835913455" lon="13.481531397261902"><ele>450.0</ele><time>2026-04-30T13:27:46.999Z</time></trkpt><trkpt lat="37.911409372457875" lon="13.481404293680235"><ele>450.0</ele><time>2026-04-30T13:27:47.999Z</time></trkpt><trkpt lat="37.9112954382021" lon="13.48130070064465"><ele>450.0</ele><time>2026-04-30T13:27:48.999Z</time></trkpt><trkpt lat="37.9111975312703" lon="13.481224402547472"><ele>450.0</ele><time>2026-04-30T13:27:49.999Z</time></trkpt><trkpt lat="37.91110670997917" lon="13.481187570035491"><ele>451.5</ele><time>2026-04-30T13:27:50.999Z</time></trkpt><trkpt lat="37.91103673222563" lon="13.481177597659547"><ele>453.0</ele><time>2026-04-30T13:27:51.999Z</time></trkpt><trkpt lat="37.91095968586584" lon="13.481172619282425"><ele>454.5</ele><time>2026-04-30T13:27:53.999Z</time></trkpt><trkpt lat="37.91073578624967" lon="13.48114554581748"><ele>456.0</ele><time>2026-04-30T13:28:54Z</time></trkpt><trkpt lat="37.91064484591895" lon="13.481130912710734"><ele>456.0</ele><time>2026-04-30T13:28:55Z</time></trkpt><trkpt lat="37.91053908247229" lon="13.481116587488907"><ele>456.0</ele><time>2026-04-30T13:28:56Z</time></trkpt><trkpt lat="37.9104158361892" lon="13.481094291385386"><ele>456.0</ele><time>2026-04-30T13:28:57Z</time></trkpt><trkpt lat="37.91028118996349" lon="13.481067283133493"><ele>456.0</ele><time>2026-04-30T13:28:58Z</time></trkpt><trkpt lat="37.9101383268411" lon="13.481020175487867"><ele>455.5</ele><time>2026-04-30T13:28:59Z</time></trkpt><trkpt lat="37.91001630982008" lon="13.480957200638333"><ele>455.0</ele><time>2026-04-30T13:29:00Z</time></trkpt><trkpt lat="37.90988313047766" lon="13.480862164330036"><ele>454.5</ele><time>2026-04-30T13:29:01Z</time></trkpt><trkpt lat="37.90975429282888" lon="13.480745712423222"><ele>454.0</ele><time>2026-04-30T13:29:02Z</time></trkpt><trkpt lat="37.9096220382073" lon="13.480626198987368"><ele>454.0</ele><time>2026-04-30T13:29:03Z</time></trkpt><trkpt lat="37.909488171346126" lon="13.48050895083494"><ele>454.0</ele><time>2026-04-30T13:29:04Z</time></trkpt><trkpt lat="37.909361107009154" lon="13.480416579898844"><ele>454.0</ele><time>2026-04-30T13:29:05Z</time></trkpt><trkpt lat="37.90923408034104" lon="13.480344698865562"><ele>454.0</ele><time>2026-04-30T13:29:06Z</time></trkpt><trkpt lat="37.909102759539394" lon="13.480309278458359"><ele>454.75</ele><time>2026-04-30T13:29:07Z</time></trkpt><trkpt lat="37.908967285352574" lon="13.480310969421323"><ele>455.5</ele><time>2026-04-30T13:29:08Z</time></trkpt><trkpt lat="37.90882694413877" lon="13.480348097163299"><ele>456.25</ele><time>2026-04-30T13:29:09Z</time></trkpt><trkpt lat="37.908684002422476" lon="13.480410738160003"><ele>457.0</ele><time>2026-04-30T13:29:10Z</time></trkpt><trkpt lat="37.90854055723501" lon="13.480476154545384"><ele>456.0</ele><time>2026-04-30T13:29:11Z</time></trkpt><trkpt lat="37.90839561777714" lon="13.48053679004642"><ele>455.0</ele><time>2026-04-30T13:29:12Z</time></trkpt><trkpt lat="37.90825289697193" lon="13.480591222101031"><ele>454.0</ele><time>2026-04-30T13:29:13Z</time></trkpt><trkpt lat="37.90811658532312" lon="13.480640830601555"><ele>453.0</ele><time>2026-04-30T13:29:14Z</time></trkpt><trkpt lat="37.907982388297654" lon="13.480686535894126"><ele>453.0</ele><time>2026-04-30T13:29:15Z</time></trkpt><trkpt lat="37.90785968629995" lon="13.480730353480668"><ele>452.99999999999994</ele><time>2026-04-30T13:29:16Z</time></trkpt><trkpt lat="37.907771016070704" lon="13.48076806151063"><ele>452.99999999999994</ele><time>2026-04-30T13:29:17Z</time></trkpt><trkpt lat="37.907704343814984" lon="13.480848479744415"><ele>453.0</ele><time>2026-04-30T13:29:19Z</time></trkpt><trkpt lat="37.90771482914831" lon="13.480940173306767"><ele>453.0</ele><time>2026-04-30T13:29:21Z</time></trkpt><trkpt lat="37.907764809746" lon="13.480999109315855"><ele>453.0</ele><time>2026-04-30T13:29:23Z</time></trkpt><trkpt lat="37.90787212689605" lon="13.48108152896373"><ele>452.99999999999994</ele><time>2026-04-30T13:29:25Z</time></trkpt><trkpt lat="37.907940358430466" lon="13.481136922066584"><ele>452.99999999999994</ele><time>2026-04-30T13:29:26Z</time></trkpt><trkpt lat="37.908016067160055" lon="13.4811945802356"><ele>453.0</ele><time>2026-04-30T13:29:27Z</time></trkpt><trkpt lat="37.90809278075999" lon="13.481252637430913"><ele>453.0</ele><time>2026-04-30T13:29:28Z</time></trkpt><trkpt lat="37.90817531158679" lon="13.481312947409988"><ele>452.79999999999995</ele><time>2026-04-30T13:29:29Z</time></trkpt><trkpt lat="37.90826275682906" lon="13.481379673527654"><ele>452.59999999999997</ele><time>2026-04-30T13:29:30Z</time></trkpt><trkpt lat="37.90835734291397" lon="13.481446817007473"><ele>452.40000000000003</ele><time>2026-04-30T13:29:31Z</time></trkpt><trkpt lat="37.9084533612176" lon="13.481522619636992"><ele>452.20000000000005</ele><time>2026-04-30T13:29:32Z</time></trkpt><trkpt lat="37.908543172410816" lon="13.481598743183389"><ele>452.0</ele><time>2026-04-30T13:29:32.999Z</time></trkpt><trkpt lat="37.908625931279566" lon="13.481677075621844"><ele>452.0</ele><time>2026-04-30T13:29:33.999Z</time></trkpt><trkpt lat="37.90871230425409" lon="13.481765900532546"><ele>452.0</ele><time>2026-04-30T13:29:34.999Z</time></trkpt><trkpt lat="37.908808031334914" lon="13.481854724225034"><ele>452.0</ele><time>2026-04-30T13:29:35.999Z</time></trkpt><trkpt lat="37.90890979422736" lon="13.481942482049105"><ele>452.0</ele><time>2026-04-30T13:29:36.999Z</time></trkpt><trkpt lat="37.909012833831376" lon="13.482027048613961"><ele>452.5</ele><time>2026-04-30T13:29:37.999Z</time></trkpt><trkpt lat="37.909112869122" lon="13.482107642571524"><ele>453.0</ele><time>2026-04-30T13:29:38.999Z</time></trkpt><trkpt lat="37.909215011529035" lon="13.482176386567465"><ele>453.5</ele><time>2026-04-30T13:29:39.999Z</time></trkpt><trkpt lat="37.90932515165397" lon="13.482235334311914"><ele>454.0</ele><time>2026-04-30T13:29:40.999Z</time></trkpt><trkpt lat="37.90944911704639" lon="13.482278952921915"><ele>454.0</ele><time>2026-04-30T13:29:41.999Z</time></trkpt><trkpt lat="37.90957145874763" lon="13.482306849593725"><ele>454.0</ele><time>2026-04-30T13:29:42.999Z</time></trkpt><trkpt lat="37.90970515198446" lon="13.482312820310915"><ele>454.0</ele><time>2026-04-30T13:29:43.999Z</time></trkpt><trkpt lat="37.909856321108634" lon="13.482325950548077"><ele>454.0</ele><time>2026-04-30T13:29:44.999Z</time></trkpt><trkpt lat="37.91000366413558" lon="13.482333229723281"><ele>453.75</ele><time>2026-04-30T13:29:45.999Z</time></trkpt><trkpt lat="37.91014591796633" lon="13.482339767316908"><ele>453.5</ele><time>2026-04-30T13:29:46.999Z</time></trkpt><trkpt lat="37.91027959609226" lon="13.48233498031342"><ele>453.25</ele><time>2026-04-30T13:29:47.999Z</time></trkpt><trkpt lat="37.91040245421813" lon="13.482364318612273"><ele>453.0</ele><time>2026-04-30T13:29:48.999Z</time></trkpt><trkpt lat="37.910519597402896" lon="13.482367861375144"><ele>453.0</ele><time>2026-04-30T13:29:49.999Z</time></trkpt><trkpt lat="37.91063080891022" lon="13.482363837754953"><ele>452.99999999999994</ele><time>2026-04-30T13:29:50.999Z</time></trkpt><trkpt lat="37.910732467623895" lon="13.482361958840716"><ele>452.99999999999994</ele><time>2026-04-30T13:29:51.999Z</time></trkpt><trkpt lat="37.910815522691536" lon="13.482369925809024"><ele>453.0</ele><time>2026-04-30T13:29:52.999Z</time></trkpt><trkpt lat="37.91091672007987" lon="13.482427760922052"><ele>453.0</ele><time>2026-04-30T13:29:54.999Z</time></trkpt><trkpt lat="37.910946646084284" lon="13.482508000806604"><ele>451.25</ele><time>2026-04-30T13:29:55.999Z</time></trkpt><trkpt lat="37.91098489317376" lon="13.48262345088705"><ele>449.5</ele><time>2026-04-30T13:29:56.999Z</time></trkpt><trkpt lat="37.91104696526012" lon="13.482754785633103"><ele>447.75</ele><time>2026-04-30T13:29:57.999Z</time></trkpt><trkpt lat="37.91111130750565" lon="13.482904103585371"><ele>446.0</ele><time>2026-04-30T13:29:58.999Z</time></trkpt><trkpt lat="37.911183912194886" lon="13.48306848982462"><ele>446.0</ele><time>2026-04-30T13:29:59.999Z</time></trkpt><trkpt lat="37.911261151015054" lon="13.4832444163298"><ele>446.0</ele><time>2026-04-30T13:30:00.999Z</time></trkpt><trkpt lat="37.91134256832014" lon="13.483434404304539"><ele>446.0</ele><time>2026-04-30T13:30:01.999Z</time></trkpt><trkpt lat="37.91142819654144" lon="13.483634115133892"><ele>447.3333333333333</ele><time>2026-04-30T13:30:02.999Z</time></trkpt><trkpt lat="37.91151916475914" lon="13.48384597138974"><ele>448.66666666666663</ele><time>2026-04-30T13:30:03.999Z</time></trkpt><trkpt lat="37.911609709997954" lon="13.484061985686203"><ele>450.0</ele><time>2026-04-30T13:30:04.999Z</time></trkpt><trkpt lat="37.91170695210336" lon="13.484282977388215"><ele>448.0</ele><time>2026-04-30T13:30:05.999Z</time></trkpt><trkpt lat="37.91180467738531" lon="13.48450943740406"><ele>446.0</ele><time>2026-04-30T13:30:06.999Z</time></trkpt><trkpt lat="37.91189908585483" lon="13.484730107556944"><ele>444.0</ele><time>2026-04-30T13:30:07.999Z</time></trkpt><trkpt lat="37.91199613157997" lon="13.484950210565335"><ele>444.0</ele><time>2026-04-30T13:30:08.999Z</time></trkpt><trkpt lat="37.91209086496372" lon="13.48517031524422"><ele>444.0</ele><time>2026-04-30T13:30:09.999Z</time></trkpt><trkpt lat="37.91218592311091" lon="13.485389338424126"><ele>444.0</ele><time>2026-04-30T13:30:10.999Z</time></trkpt><trkpt lat="37.91227883417923" lon="13.485605081522891"><ele>444.33333333333337</ele><time>2026-04-30T13:30:11.999Z</time></trkpt><trkpt lat="37.912370047120646" lon="13.485819301107512"><ele>444.6666666666667</ele><time>2026-04-30T13:30:12.999Z</time></trkpt><trkpt lat="37.912460814117765" lon="13.486034321296433"><ele>445.0</ele><time>2026-04-30T13:30:13.999Z</time></trkpt><trkpt lat="37.91255190853726" lon="13.486249188136705"><ele>445.0</ele><time>2026-04-30T13:30:14.999Z</time></trkpt><trkpt lat="37.912645311339325" lon="13.486464334664026"><ele>445.0</ele><time>2026-04-30T13:30:15.999Z</time></trkpt><trkpt lat="37.912739227124085" lon="13.486681546440055"><ele>445.0</ele><time>2026-04-30T13:30:16.999Z</time></trkpt><trkpt lat="37.912831501358575" lon="13.486899549639347"><ele>444.0</ele><time>2026-04-30T13:30:17.999Z</time></trkpt><trkpt lat="37.91292562217411" lon="13.487116945440208"><ele>443.0</ele><time>2026-04-30T13:30:18.999Z</time></trkpt><trkpt lat="37.91302246394182" lon="13.48733649309183"><ele>442.0</ele><time>2026-04-30T13:30:19.999Z</time></trkpt><trkpt lat="37.913118036415796" lon="13.487558403771798"><ele>442.0</ele><time>2026-04-30T13:30:20.999Z</time></trkpt><trkpt lat="37.91321495168382" lon="13.48778268655728"><ele>442.0</ele><time>2026-04-30T13:30:21.999Z</time></trkpt><trkpt lat="37.91330874243152" lon="13.488006491693092"><ele>442.0</ele><time>2026-04-30T13:30:22.999Z</time></trkpt><trkpt lat="37.913399016100065" lon="13.488231381464008"><ele>446.33333333333337</ele><time>2026-04-30T13:30:23.999Z</time></trkpt><trkpt lat="37.91348454038321" lon="13.488457716723941"><ele>450.66666666666663</ele><time>2026-04-30T13:30:24.999Z</time></trkpt><trkpt lat="37.91355780019634" lon="13.488696366465472"><ele>455.0</ele><time>2026-04-30T13:30:25.999Z</time></trkpt><trkpt lat="37.913626156717314" lon="13.488942191200293"><ele>455.0</ele><time>2026-04-30T13:30:26.999Z</time></trkpt><trkpt lat="37.913683973642385" lon="13.4891960265939"><ele>455.0</ele><time>2026-04-30T13:30:27.999Z</time></trkpt><trkpt lat="37.91372924589715" lon="13.489454796663031"><ele>455.0</ele><time>2026-04-30T13:30:28.999Z</time></trkpt><trkpt lat="37.91376316530626" lon="13.48971975119365"><ele>453.3333333333333</ele><time>2026-04-30T13:30:29.999Z</time></trkpt><trkpt lat="37.91378524871804" lon="13.489987240222758"><ele>451.66666666666663</ele><time>2026-04-30T13:30:30.999Z</time></trkpt><trkpt lat="37.91379757461619" lon="13.490260049276351"><ele>450.0</ele><time>2026-04-30T13:30:31.999Z</time></trkpt><trkpt lat="37.91380599170451" lon="13.490533112822526"><ele>449.33333333333337</ele><time>2026-04-30T13:30:32.999Z</time></trkpt><trkpt lat="37.91380895421416" lon="13.490810770206384"><ele>448.6666666666667</ele><time>2026-04-30T13:30:33.999Z</time></trkpt><trkpt lat="37.91381630713465" lon="13.491084390225508"><ele>448.0</ele><time>2026-04-30T13:30:34.999Z</time></trkpt><trkpt lat="37.91382403302859" lon="13.49134909170272"><ele>446.33333333333337</ele><time>2026-04-30T13:30:35.999Z</time></trkpt><trkpt lat="37.91383914074624" lon="13.491611241726918"><ele>444.66666666666663</ele><time>2026-04-30T13:30:36.999Z</time></trkpt><trkpt lat="37.91385860696263" lon="13.491874517550649"><ele>443.0</ele><time>2026-04-30T13:30:37.999Z</time></trkpt><trkpt lat="37.91388803368358" lon="13.492130222198039"><ele>440.0</ele><time>2026-04-30T13:30:38.999Z</time></trkpt><trkpt lat="37.913923180794335" lon="13.492377169370052"><ele>437.0</ele><time>2026-04-30T13:30:39.999Z</time></trkpt><trkpt lat="37.91396800794679" lon="13.492621707685835"><ele>434.0</ele><time>2026-04-30T13:30:40.999Z</time></trkpt><trkpt lat="37.91402091319765" lon="13.492869027154523"><ele>431.66666666666663</ele><time>2026-04-30T13:30:41.999Z</time></trkpt><trkpt lat="37.914077281804026" lon="13.4931243168103"><ele>429.33333333333337</ele><time>2026-04-30T13:30:42.999Z</time></trkpt><trkpt lat="37.91413736184752" lon="13.493381903600488"><ele>427.0</ele><time>2026-04-30T13:30:43.999Z</time></trkpt><trkpt lat="37.914199531968485" lon="13.493637817219104"><ele>429.33333333333337</ele><time>2026-04-30T13:30:44.999Z</time></trkpt><trkpt lat="37.9142615156024" lon="13.493891734427601"><ele>431.66666666666663</ele><time>2026-04-30T13:30:45.999Z</time></trkpt><trkpt lat="37.91432541446332" lon="13.494150087377307"><ele>434.0</ele><time>2026-04-30T13:30:46.999Z</time></trkpt><trkpt lat="37.91438990117645" lon="13.494410944370886"><ele>433.0</ele><time>2026-04-30T13:30:47.999Z</time></trkpt><trkpt lat="37.914453276359296" lon="13.494675388699642"><ele>432.0</ele><time>2026-04-30T13:30:48.999Z</time></trkpt><trkpt lat="37.91451624498612" lon="13.494938765007973"><ele>431.0</ele><time>2026-04-30T13:30:49.999Z</time></trkpt><trkpt lat="37.914579634195505" lon="13.495201776052275"><ele>428.3333333333333</ele><time>2026-04-30T13:30:50.999Z</time></trkpt><trkpt lat="37.91464258981266" lon="13.49546761147995"><ele>425.66666666666663</ele><time>2026-04-30T13:30:51.999Z</time></trkpt><trkpt lat="37.91470589665948" lon="13.495731264779375"><ele>423.0</ele><time>2026-04-30T13:30:52.999Z</time></trkpt><trkpt lat="37.91477006781198" lon="13.495990863001031"><ele>423.0</ele><time>2026-04-30T13:30:53.999Z</time></trkpt><trkpt lat="37.91482985805767" lon="13.496238902450072"><ele>423.0</ele><time>2026-04-30T13:30:54.999Z</time></trkpt><trkpt lat="37.91488736070584" lon="13.496479042297619"><ele>423.0</ele><time>2026-04-30T13:30:55.999Z</time></trkpt><trkpt lat="37.91494190895443" lon="13.496704069908967"><ele>422.0</ele><time>2026-04-30T13:30:56.999Z</time></trkpt><trkpt lat="37.91499840264103" lon="13.496930011043466"><ele>421.0</ele><time>2026-04-30T13:30:58Z</time></trkpt><trkpt lat="37.91505441328864" lon="13.497153673314509"><ele>420.0</ele><time>2026-04-30T13:30:59Z</time></trkpt><trkpt lat="37.915113209442076" lon="13.497373106668633"><ele>417.66666666666663</ele><time>2026-04-30T13:31:00Z</time></trkpt><trkpt lat="37.915176450286104" lon="13.497591652262358"><ele>415.3333333333333</ele><time>2026-04-30T13:31:01Z</time></trkpt><trkpt lat="37.91524906450864" lon="13.49780767700674"><ele>413.0</ele><time>2026-04-30T13:31:02Z</time></trkpt><trkpt lat="37.915330562176024" lon="13.498007000494582"><ele>412.3333333333333</ele><time>2026-04-30T13:31:03Z</time></trkpt><trkpt lat="37.915423905154285" lon="13.498184120689825"><ele>411.66666666666663</ele><time>2026-04-30T13:31:04Z</time></trkpt><trkpt lat="37.91553713641545" lon="13.498359874926132"><ele>411.0</ele><time>2026-04-30T13:31:05Z</time></trkpt><trkpt lat="37.91566470596601" lon="13.498532718522677"><ele>411.0</ele><time>2026-04-30T13:31:06Z</time></trkpt><trkpt lat="37.91580681330146" lon="13.49870514598814"><ele>411.0</ele><time>2026-04-30T13:31:07Z</time></trkpt><trkpt lat="37.91596644855065" lon="13.49886451100378"><ele>411.0</ele><time>2026-04-30T13:31:08Z</time></trkpt><trkpt lat="37.91613571386241" lon="13.499000781434148"><ele>410.0</ele><time>2026-04-30T13:31:09Z</time></trkpt><trkpt lat="37.9163117503327" lon="13.49911385756825"><ele>409.0</ele><time>2026-04-30T13:31:10Z</time></trkpt><trkpt lat="37.916500499206926" lon="13.49920726357129"><ele>408.0</ele><time>2026-04-30T13:31:11Z</time></trkpt><trkpt lat="37.91669624583031" lon="13.49928198323837"><ele>406.0</ele><time>2026-04-30T13:31:12Z</time></trkpt><trkpt lat="37.91689808897942" lon="13.499335830498401"><ele>404.0</ele><time>2026-04-30T13:31:13Z</time></trkpt><trkpt lat="37.917102967831475" lon="13.499378854802522"><ele>402.0</ele><time>2026-04-30T13:31:14Z</time></trkpt><trkpt lat="37.91731014878346" lon="13.499419814400106"><ele>402.0</ele><time>2026-04-30T13:31:15Z</time></trkpt><trkpt lat="37.91751909122781" lon="13.499460073642027"><ele>402.0</ele><time>2026-04-30T13:31:16Z</time></trkpt><trkpt lat="37.91772814878686" lon="13.499503801031048"><ele>402.0</ele><time>2026-04-30T13:31:17Z</time></trkpt><trkpt lat="37.917938933240556" lon="13.49954477522081"><ele>402.0</ele><time>2026-04-30T13:31:18Z</time></trkpt><trkpt lat="37.91815049409615" lon="13.49958335409012"><ele>402.0</ele><time>2026-04-30T13:31:19Z</time></trkpt><trkpt lat="37.91835908379566" lon="13.499622147976394"><ele>402.0</ele><time>2026-04-30T13:31:20Z</time></trkpt><trkpt lat="37.91856674973947" lon="13.499661990160313"><ele>405.66666666666663</ele><time>2026-04-30T13:31:21Z</time></trkpt><trkpt lat="37.91876898201369" lon="13.49970094848946"><ele>409.3333333333333</ele><time>2026-04-30T13:31:22Z</time></trkpt><trkpt lat="37.918969112356194" lon="13.499737113205125"><ele>413.0</ele><time>2026-04-30T13:31:23Z</time></trkpt><trkpt lat="37.919168773604845" lon="13.49977418849734"><ele>411.0</ele><time>2026-04-30T13:31:24Z</time></trkpt><trkpt lat="37.919366715150396" lon="13.499813716185894"><ele>409.0</ele><time>2026-04-30T13:31:25Z</time></trkpt><trkpt lat="37.91956716079249" lon="13.499857384826736"><ele>407.0</ele><time>2026-04-30T13:31:26Z</time></trkpt><trkpt lat="37.91976975746979" lon="13.499898073196027"><ele>407.0</ele><time>2026-04-30T13:31:27Z</time></trkpt><trkpt lat="37.919971504171116" lon="13.49993839448648"><ele>407.0</ele><time>2026-04-30T13:31:28Z</time></trkpt><trkpt lat="37.92017372684582" lon="13.499979406985595"><ele>407.0</ele><time>2026-04-30T13:31:29Z</time></trkpt><trkpt lat="37.92037814974358" lon="13.500020692964664"><ele>405.3333333333333</ele><time>2026-04-30T13:31:30Z</time></trkpt><trkpt lat="37.92058382788584" lon="13.500064839331454"><ele>403.66666666666663</ele><time>2026-04-30T13:31:31Z</time></trkpt><trkpt lat="37.920787572658774" lon="13.500109738372172"><ele>402.0</ele><time>2026-04-30T13:31:32Z</time></trkpt><trkpt lat="37.92098600587162" lon="13.500155224841109"><ele>401.0</ele><time>2026-04-30T13:31:33Z</time></trkpt><trkpt lat="37.92118582766241" lon="13.500202123344614"><ele>400.0</ele><time>2026-04-30T13:31:34Z</time></trkpt><trkpt lat="37.92138684926742" lon="13.500249774195343"><ele>399.0</ele><time>2026-04-30T13:31:35Z</time></trkpt><trkpt lat="37.92158753113984" lon="13.50029576837804"><ele>400.33333333333337</ele><time>2026-04-30T13:31:36Z</time></trkpt><trkpt lat="37.921788172468354" lon="13.500340266745354"><ele>401.6666666666667</ele><time>2026-04-30T13:31:37Z</time></trkpt><trkpt lat="37.921989580469834" lon="13.500387772632108"><ele>403.0</ele><time>2026-04-30T13:31:38Z</time></trkpt><trkpt lat="37.92219008407397" lon="13.500434595153553"><ele>403.0</ele><time>2026-04-30T13:31:39Z</time></trkpt><trkpt lat="37.92239070341101" lon="13.500477798920482"><ele>403.0</ele><time>2026-04-30T13:31:40Z</time></trkpt><trkpt lat="37.922591090102145" lon="13.500509457260673"><ele>403.0</ele><time>2026-04-30T13:31:40.999Z</time></trkpt><trkpt lat="37.922795418973266" lon="13.500528416865146"><ele>402.6666666666667</ele><time>2026-04-30T13:31:41.999Z</time></trkpt><trkpt lat="37.9230033839148" lon="13.500538853925557"><ele>402.33333333333337</ele><time>2026-04-30T13:31:42.999Z</time></trkpt><trkpt lat="37.923215751163404" lon="13.50053793656373"><ele>402.0</ele><time>2026-04-30T13:31:43.999Z</time></trkpt><trkpt lat="37.92342934889552" lon="13.50053364563788"><ele>400.66666666666663</ele><time>2026-04-30T13:31:44.999Z</time></trkpt><trkpt lat="37.92364413824038" lon="13.500527779207806"><ele>399.3333333333333</ele><time>2026-04-30T13:31:45.999Z</time></trkpt><trkpt lat="37.92385929728641" lon="13.500521113558415"><ele>398.0</ele><time>2026-04-30T13:31:46.999Z</time></trkpt><trkpt lat="37.92407422656297" lon="13.500513528056105"><ele>396.66666666666663</ele><time>2026-04-30T13:31:47.999Z</time></trkpt><trkpt lat="37.924287403483994" lon="13.50050313815299"><ele>395.33333333333337</ele><time>2026-04-30T13:31:48.999Z</time></trkpt><trkpt lat="37.92450030238716" lon="13.50049141047719"><ele>394.0</ele><time>2026-04-30T13:31:49.999Z</time></trkpt><trkpt lat="37.92471055963917" lon="13.500480760254076"><ele>394.0</ele><time>2026-04-30T13:31:50.999Z</time></trkpt><trkpt lat="37.92491989263383" lon="13.500468103183877"><ele>394.0</ele><time>2026-04-30T13:31:51.999Z</time></trkpt><trkpt lat="37.92512749312498" lon="13.500447679054924"><ele>394.0</ele><time>2026-04-30T13:31:52.999Z</time></trkpt><trkpt lat="37.92533571460201" lon="13.500421193886826"><ele>390.33333333333337</ele><time>2026-04-30T13:31:53.999Z</time></trkpt><trkpt lat="37.925542722579166" lon="13.50039056673163"><ele>386.6666666666667</ele><time>2026-04-30T13:31:54.999Z</time></trkpt><trkpt lat="37.925749852173325" lon="13.500356557484231"><ele>383.0</ele><time>2026-04-30T13:31:55.999Z</time></trkpt><trkpt lat="37.92595532663518" lon="13.500311601995154"><ele>382.33333333333337</ele><time>2026-04-30T13:31:56.999Z</time></trkpt><trkpt lat="37.92616169375788" lon="13.500258748023883"><ele>381.6666666666667</ele><time>2026-04-30T13:31:57.999Z</time></trkpt><trkpt lat="37.92636655404682" lon="13.500198967921637"><ele>381.0</ele><time>2026-04-30T13:31:58.999Z</time></trkpt><trkpt lat="37.926568780152344" lon="13.500134160228646"><ele>381.3333333333333</ele><time>2026-04-30T13:31:59.999Z</time></trkpt><trkpt lat="37.926768759572596" lon="13.50006095741355"><ele>381.66666666666663</ele><time>2026-04-30T13:32:00.999Z</time></trkpt><trkpt lat="37.92696808341201" lon="13.499981752639826"><ele>382.0</ele><time>2026-04-30T13:32:01.999Z</time></trkpt><trkpt lat="37.92716567030356" lon="13.499894242116222"><ele>382.0</ele><time>2026-04-30T13:32:02.999Z</time></trkpt><trkpt lat="37.92736164508271" lon="13.499801255421975"><ele>382.0</ele><time>2026-04-30T13:32:03.999Z</time></trkpt><trkpt lat="37.92755662745517" lon="13.499707739837854"><ele>382.0</ele><time>2026-04-30T13:32:04.999Z</time></trkpt><trkpt lat="37.92774396955876" lon="13.499618961708078"><ele>381.0</ele><time>2026-04-30T13:32:05.999Z</time></trkpt><trkpt lat="37.927924139429486" lon="13.499528956288614"><ele>380.0</ele><time>2026-04-30T13:32:06.999Z</time></trkpt><trkpt lat="37.928101341378394" lon="13.499439944759201"><ele>379.0</ele><time>2026-04-30T13:32:07.999Z</time></trkpt><trkpt lat="37.92827607859639" lon="13.49935085458481"><ele>379.3333333333333</ele><time>2026-04-30T13:32:08.999Z</time></trkpt><trkpt lat="37.92844829326563" lon="13.499263917165054"><ele>379.6666666666667</ele><time>2026-04-30T13:32:09.999Z</time></trkpt><trkpt lat="37.928622537835416" lon="13.499177600476582"><ele>380.0</ele><time>2026-04-30T13:32:10.999Z</time></trkpt><trkpt lat="37.928800211409566" lon="13.49909168646934"><ele>380.0</ele><time>2026-04-30T13:32:11.999Z</time></trkpt><trkpt lat="37.92898150134737" lon="13.499003853809977"><ele>380.0</ele><time>2026-04-30T13:32:12.999Z</time></trkpt><trkpt lat="37.929164262894744" lon="13.498910392847531"><ele>380.0</ele><time>2026-04-30T13:32:13.999Z</time></trkpt><trkpt lat="37.92934963743098" lon="13.498821778098543"><ele>376.6666666666667</ele><time>2026-04-30T13:32:14.999Z</time></trkpt><trkpt lat="37.92953622409728" lon="13.498729325382198"><ele>373.3333333333333</ele><time>2026-04-30T13:32:15.999Z</time></trkpt><trkpt lat="37.92972356555094" lon="13.498636287069811"><ele>370.0</ele><time>2026-04-30T13:32:16.999Z</time></trkpt><trkpt lat="37.92991273712344" lon="13.498542660852252"><ele>369.3333333333333</ele><time>2026-04-30T13:32:17.999Z</time></trkpt><trkpt lat="37.930101034516305" lon="13.498447648092315"><ele>368.6666666666667</ele><time>2026-04-30T13:32:18.999Z</time></trkpt><trkpt lat="37.93029055192556" lon="13.498350451005853"><ele>368.0</ele><time>2026-04-30T13:32:19.999Z</time></trkpt><trkpt lat="37.93047878297636" lon="13.498253442822032"><ele>368.0</ele><time>2026-04-30T13:32:20.999Z</time></trkpt><trkpt lat="37.93066591297224" lon="13.498155173527556"><ele>368.0</ele><time>2026-04-30T13:32:21.999Z</time></trkpt><trkpt lat="37.93085023404226" lon="13.498060952028938"><ele>368.0</ele><time>2026-04-30T13:32:22.999Z</time></trkpt><trkpt lat="37.93103075173439" lon="13.497960212337492"><ele>367.0</ele><time>2026-04-30T13:32:23.999Z</time></trkpt><trkpt lat="37.931208602253044" lon="13.497856514576139"><ele>366.0</ele><time>2026-04-30T13:32:24.999Z</time></trkpt><trkpt lat="37.9313840085206" lon="13.497741193256717"><ele>365.0</ele><time>2026-04-30T13:32:25.999Z</time></trkpt><trkpt lat="37.931555314616915" lon="13.49761005987679"><ele>365.0</ele><time>2026-04-30T13:32:26.999Z</time></trkpt><trkpt lat="37.93171390642729" lon="13.497459288980176"><ele>365.0</ele><time>2026-04-30T13:32:27.999Z</time></trkpt><trkpt lat="37.931864357958176" lon="13.497288681155977"><ele>365.0</ele><time>2026-04-30T13:32:28.999Z</time></trkpt><trkpt lat="37.93200832852693" lon="13.497097516132031"><ele>366.6666666666667</ele><time>2026-04-30T13:32:29.999Z</time></trkpt><trkpt lat="37.93213633297182" lon="13.496880165622727"><ele>368.3333333333333</ele><time>2026-04-30T13:32:30.999Z</time></trkpt><trkpt lat="37.93224985959924" lon="13.496641627820813"><ele>370.0</ele><time>2026-04-30T13:32:31.999Z</time></trkpt><trkpt lat="37.9323503611664" lon="13.49639112492385"><ele>368.66666666666663</ele><time>2026-04-30T13:32:32.999Z</time></trkpt><trkpt lat="37.93243445798823" lon="13.496141973868816"><ele>367.3333333333333</ele><time>2026-04-30T13:32:33.999Z</time></trkpt><trkpt lat="37.93251828867493" lon="13.495895541929725"><ele>366.0</ele><time>2026-04-30T13:32:34.999Z</time></trkpt><trkpt lat="37.932599163504" lon="13.495649433756054"><ele>368.3333333333333</ele><time>2026-04-30T13:32:35.999Z</time></trkpt><trkpt lat="37.93267966830477" lon="13.495405340166615"><ele>370.66666666666663</ele><time>2026-04-30T13:32:36.999Z</time></trkpt><trkpt lat="37.932763346445405" lon="13.495166659275736"><ele>373.0</ele><time>2026-04-30T13:32:37.999Z</time></trkpt><trkpt lat="37.93285579593976" lon="13.494934696430446"><ele>373.0</ele><time>2026-04-30T13:32:38.999Z</time></trkpt><trkpt lat="37.932959083733245" lon="13.494713395498623"><ele>373.0</ele><time>2026-04-30T13:32:39.999Z</time></trkpt><trkpt lat="37.93307308950299" lon="13.494500260192533"><ele>373.0</ele><time>2026-04-30T13:32:40.999Z</time></trkpt><trkpt lat="37.93320224320364" lon="13.494299405504492"><ele>372.66666666666663</ele><time>2026-04-30T13:32:41.999Z</time></trkpt><trkpt lat="37.93334722988244" lon="13.494109684174536"><ele>372.3333333333333</ele><time>2026-04-30T13:32:42.999Z</time></trkpt><trkpt lat="37.933506495491336" lon="13.493931283030477"><ele>372.0</ele><time>2026-04-30T13:32:43.999Z</time></trkpt><trkpt lat="37.933672149939696" lon="13.4937667084814"><ele>367.6666666666667</ele><time>2026-04-30T13:32:44.999Z</time></trkpt><trkpt lat="37.93383617259093" lon="13.493613102074809"><ele>363.33333333333337</ele><time>2026-04-30T13:32:45.999Z</time></trkpt><trkpt lat="37.93400123217961" lon="13.49346651384419"><ele>359.0</ele><time>2026-04-30T13:32:46.999Z</time></trkpt><trkpt lat="37.93415932568204" lon="13.493328816986915"><ele>362.33333333333337</ele><time>2026-04-30T13:32:47.999Z</time></trkpt><trkpt lat="37.93431143194114" lon="13.49319828794102"><ele>365.6666666666667</ele><time>2026-04-30T13:32:48.999Z</time></trkpt><trkpt lat="37.934465453957685" lon="13.493069589864024"><ele>369.0</ele><time>2026-04-30T13:32:49.999Z</time></trkpt><trkpt lat="37.93461823869819" lon="13.49293706605272"><ele>368.0</ele><time>2026-04-30T13:32:50.999Z</time></trkpt><trkpt lat="37.934770188530614" lon="13.492802810378588"><ele>367.0</ele><time>2026-04-30T13:32:51.999Z</time></trkpt><trkpt lat="37.93491939329383" lon="13.492651989232215"><ele>366.0</ele><time>2026-04-30T13:32:52.999Z</time></trkpt><trkpt lat="37.9350620303672" lon="13.492491437203864"><ele>366.0</ele><time>2026-04-30T13:32:53.999Z</time></trkpt><trkpt lat="37.93520662187476" lon="13.492319355444609"><ele>366.0</ele><time>2026-04-30T13:32:54.999Z</time></trkpt><trkpt lat="37.93533984227944" lon="13.4921370409257"><ele>366.0</ele><time>2026-04-30T13:32:55.999Z</time></trkpt><trkpt lat="37.935471138963024" lon="13.49194253119603"><ele>363.3333333333333</ele><time>2026-04-30T13:32:56.999Z</time></trkpt><trkpt lat="37.93559741486385" lon="13.491737632598054"><ele>360.66666666666663</ele><time>2026-04-30T13:32:57.999Z</time></trkpt><trkpt lat="37.93571713523791" lon="13.491530421766866"><ele>358.0</ele><time>2026-04-30T13:32:58.999Z</time></trkpt><trkpt lat="37.93582917510775" lon="13.491320728860712"><ele>359.3333333333333</ele><time>2026-04-30T13:32:59.999Z</time></trkpt><trkpt lat="37.9359367559246" lon="13.491122567507132"><ele>360.6666666666667</ele><time>2026-04-30T13:33:00.999Z</time></trkpt><trkpt lat="37.936042264096876" lon="13.490928836034154"><ele>362.0</ele><time>2026-04-30T13:33:01.999Z</time></trkpt><trkpt lat="37.93615369739048" lon="13.490733534364548"><ele>362.0</ele><time>2026-04-30T13:33:02.999Z</time></trkpt><trkpt lat="37.93627136936347" lon="13.490541780747861"><ele>362.0</ele><time>2026-04-30T13:33:04Z</time></trkpt><trkpt lat="37.936396142165144" lon="13.490360030454642"><ele>362.0</ele><time>2026-04-30T13:33:05Z</time></trkpt><trkpt lat="37.93652870774271" lon="13.49018916439278"><ele>358.6666666666667</ele><time>2026-04-30T13:33:06Z</time></trkpt><trkpt lat="37.93667308773195" lon="13.490030254832037"><ele>355.3333333333333</ele><time>2026-04-30T13:33:07Z</time></trkpt><trkpt lat="37.936827452949146" lon="13.489886588670199"><ele>352.0</ele><time>2026-04-30T13:33:08Z</time></trkpt><trkpt lat="37.93699468817228" lon="13.489759742690325"><ele>352.0</ele><time>2026-04-30T13:33:09Z</time></trkpt><trkpt lat="37.93717248056258" lon="13.489647513245531"><ele>352.0</ele><time>2026-04-30T13:33:10Z</time></trkpt><trkpt lat="37.93736233144257" lon="13.489555885945808"><ele>352.0</ele><time>2026-04-30T13:33:11Z</time></trkpt><trkpt lat="37.937563237079466" lon="13.489486224762189"><ele>349.3333333333333</ele><time>2026-04-30T13:33:12Z</time></trkpt><trkpt lat="37.93777503693671" lon="13.489443349245779"><ele>346.6666666666667</ele><time>2026-04-30T13:33:13Z</time></trkpt><trkpt lat="37.937990436751" lon="13.489426332834686"><ele>344.0</ele><time>2026-04-30T13:33:14Z</time></trkpt><trkpt lat="37.93821127045844" lon="13.48942925699737"><ele>342.0</ele><time>2026-04-30T13:33:15Z</time></trkpt><trkpt lat="37.93843461971927" lon="13.489444893433825"><ele>340.0</ele><time>2026-04-30T13:33:16Z</time></trkpt><trkpt lat="37.938662929187046" lon="13.489466506885812"><ele>340.0</ele><time>2026-04-30T13:33:17Z</time></trkpt><trkpt lat="37.938895176890334" lon="13.489483282937778"><ele>340.0</ele><time>2026-04-30T13:33:18Z</time></trkpt><trkpt lat="37.93913090923318" lon="13.489496041768156"><ele>338.0</ele><time>2026-04-30T13:33:19Z</time></trkpt><trkpt lat="37.93936733486107" lon="13.489507999889529"><ele>336.0</ele><time>2026-04-30T13:33:20Z</time></trkpt><trkpt lat="37.93961036746074" lon="13.489523095725287"><ele>336.0</ele><time>2026-04-30T13:33:21Z</time></trkpt><trkpt lat="37.93984834220365" lon="13.489539480150906"><ele>336.0</ele><time>2026-04-30T13:33:22Z</time></trkpt><trkpt lat="37.940089339127105" lon="13.489554157023813"><ele>335.0</ele><time>2026-04-30T13:33:23Z</time></trkpt><trkpt lat="37.940329725906174" lon="13.489569866933632"><ele>334.0</ele><time>2026-04-30T13:33:24Z</time></trkpt><trkpt lat="37.94056930295438" lon="13.48958503731959"><ele>335.0</ele><time>2026-04-30T13:33:25Z</time></trkpt><trkpt lat="37.94080389797429" lon="13.489601321813788"><ele>336.0</ele><time>2026-04-30T13:33:26Z</time></trkpt><trkpt lat="37.94103340500617" lon="13.489617567326345"><ele>336.0</ele><time>2026-04-30T13:33:27Z</time></trkpt><trkpt lat="37.94125536638805" lon="13.489632745807468"><ele>336.0</ele><time>2026-04-30T13:33:28Z</time></trkpt><trkpt lat="37.941478115979244" lon="13.489644898867333"><ele>336.0</ele><time>2026-04-30T13:33:29Z</time></trkpt><trkpt lat="37.941697550084974" lon="13.489654762319011"><ele>336.6666666666667</ele><time>2026-04-30T13:33:30Z</time></trkpt><trkpt lat="37.94191663939771" lon="13.489663036270617"><ele>337.33333333333337</ele><time>2026-04-30T13:33:31Z</time></trkpt><trkpt lat="37.94213640712278" lon="13.48967653707212"><ele>338.0</ele><time>2026-04-30T13:33:32Z</time></trkpt><trkpt lat="37.94235680884685" lon="13.48969379224712"><ele>339.33333333333337</ele><time>2026-04-30T13:33:33Z</time></trkpt><trkpt lat="37.94257585726319" lon="13.489708116116862"><ele>340.6666666666667</ele><time>2026-04-30T13:33:34Z</time></trkpt><trkpt lat="37.94278972780935" lon="13.48972107747822"><ele>342.0</ele><time>2026-04-30T13:33:35Z</time></trkpt><trkpt lat="37.94299606696222" lon="13.48973648424532"><ele>342.0</ele><time>2026-04-30T13:33:36Z</time></trkpt><trkpt lat="37.94320525931512" lon="13.489748463990043"><ele>342.0</ele><time>2026-04-30T13:33:37Z</time></trkpt><trkpt lat="37.94341322077842" lon="13.489758509480774"><ele>342.0</ele><time>2026-04-30T13:33:38Z</time></trkpt><trkpt lat="37.94362098844127" lon="13.489775338892217"><ele>342.0</ele><time>2026-04-30T13:33:39Z</time></trkpt><trkpt lat="37.943827227399666" lon="13.48979444480011"><ele>342.0</ele><time>2026-04-30T13:33:40Z</time></trkpt><trkpt lat="37.94403091856367" lon="13.489806248042346"><ele>342.0</ele><time>2026-04-30T13:33:41Z</time></trkpt><trkpt lat="37.94422911167173" lon="13.489815641161846"><ele>341.6666666666667</ele><time>2026-04-30T13:33:42Z</time></trkpt><trkpt lat="37.94442882175988" lon="13.489822440321765"><ele>341.33333333333337</ele><time>2026-04-30T13:33:43Z</time></trkpt><trkpt lat="37.94463105914688" lon="13.489833927900225"><ele>341.0</ele><time>2026-04-30T13:33:43.999Z</time></trkpt><trkpt lat="37.94483570038354" lon="13.489848447451905"><ele>341.0</ele><time>2026-04-30T13:33:44.999Z</time></trkpt><trkpt lat="37.94503378077975" lon="13.489863157203485"><ele>341.0</ele><time>2026-04-30T13:33:45.999Z</time></trkpt><trkpt lat="37.94522486422668" lon="13.489875949974934"><ele>341.0</ele><time>2026-04-30T13:33:46.999Z</time></trkpt><trkpt lat="37.945403296987585" lon="13.489883266170988"><ele>340.33333333333337</ele><time>2026-04-30T13:33:47.999Z</time></trkpt><trkpt lat="37.94557805315552" lon="13.48988260395544"><ele>339.6666666666667</ele><time>2026-04-30T13:33:48.999Z</time></trkpt><trkpt lat="37.94575381652972" lon="13.489873018020253"><ele>339.0</ele><time>2026-04-30T13:33:49.999Z</time></trkpt><trkpt lat="37.94593241608036" lon="13.489856971059458"><ele>339.0</ele><time>2026-04-30T13:33:50.999Z</time></trkpt><trkpt lat="37.946116229951954" lon="13.489834780288033"><ele>339.0</ele><time>2026-04-30T13:33:51.999Z</time></trkpt><trkpt lat="37.94630494492231" lon="13.489802303850263"><ele>339.0</ele><time>2026-04-30T13:33:52.999Z</time></trkpt><trkpt lat="37.94649779159704" lon="13.48976506174208"><ele>339.0</ele><time>2026-04-30T13:33:53.999Z</time></trkpt><trkpt lat="37.94668937753067" lon="13.489725499499032"><ele>339.0</ele><time>2026-04-30T13:33:54.999Z</time></trkpt><trkpt lat="37.94687857845266" lon="13.489685228472949"><ele>339.0</ele><time>2026-04-30T13:33:55.999Z</time></trkpt><trkpt lat="37.947064698422786" lon="13.489643552679203"><ele>339.0</ele><time>2026-04-30T13:33:56.999Z</time></trkpt><trkpt lat="37.94724995149194" lon="13.489602460500645"><ele>339.0</ele><time>2026-04-30T13:33:57.999Z</time></trkpt><trkpt lat="37.94743293795283" lon="13.489566534623654"><ele>339.0</ele><time>2026-04-30T13:33:58.999Z</time></trkpt><trkpt lat="37.94761546900535" lon="13.48953836344565"><ele>334.3333333333333</ele><time>2026-04-30T13:33:59.999Z</time></trkpt><trkpt lat="37.94780086110325" lon="13.489516052621955"><ele>329.66666666666663</ele><time>2026-04-30T13:34:00.999Z</time></trkpt><trkpt lat="37.947990384059146" lon="13.489501865465014"><ele>325.0</ele><time>2026-04-30T13:34:01.999Z</time></trkpt><trkpt lat="37.948183811792845" lon="13.48950072021799"><ele>324.0</ele><time>2026-04-30T13:34:02.999Z</time></trkpt><trkpt lat="37.94838038157024" lon="13.489514638227893"><ele>323.0</ele><time>2026-04-30T13:34:03.999Z</time></trkpt><trkpt lat="37.94857565037528" lon="13.489540514843931"><ele>322.0</ele><time>2026-04-30T13:34:04.999Z</time></trkpt><trkpt lat="37.94877084338663" lon="13.489583057658981"><ele>323.66666666666663</ele><time>2026-04-30T13:34:05.999Z</time></trkpt><trkpt lat="37.94896814784766" lon="13.489635197839654"><ele>325.3333333333333</ele><time>2026-04-30T13:34:06.999Z</time></trkpt><trkpt lat="37.94916316824831" lon="13.489697813378719"><ele>327.0</ele><time>2026-04-30T13:34:07.999Z</time></trkpt><trkpt lat="37.94935694733711" lon="13.489770600677769"><ele>327.0</ele><time>2026-04-30T13:34:08.999Z</time></trkpt><trkpt lat="37.94954550678477" lon="13.489850561336445"><ele>327.0</ele><time>2026-04-30T13:34:09.999Z</time></trkpt><trkpt lat="37.94973036438626" lon="13.489930618621344"><ele>327.0</ele><time>2026-04-30T13:34:10.999Z</time></trkpt><trkpt lat="37.94991236133322" lon="13.490007302346793"><ele>325.3333333333333</ele><time>2026-04-30T13:34:11.999Z</time></trkpt><trkpt lat="37.95009558543646" lon="13.490081797554396"><ele>323.66666666666663</ele><time>2026-04-30T13:34:12.999Z</time></trkpt><trkpt lat="37.95027521121787" lon="13.490151255229543"><ele>322.0</ele><time>2026-04-30T13:34:13.999Z</time></trkpt><trkpt lat="37.95045360763586" lon="13.490205759156062"><ele>322.0</ele><time>2026-04-30T13:34:14.999Z</time></trkpt><trkpt lat="37.950632216638425" lon="13.49023964314794"><ele>322.0</ele><time>2026-04-30T13:34:15.999Z</time></trkpt><trkpt lat="37.95081174863456" lon="13.49025165844573"><ele>322.0</ele><time>2026-04-30T13:34:16.999Z</time></trkpt><trkpt lat="37.950991673868" lon="13.490231117603999"><ele>322.3333333333333</ele><time>2026-04-30T13:34:17.999Z</time></trkpt><trkpt lat="37.95117099827348" lon="13.490186875678173"><ele>322.6666666666667</ele><time>2026-04-30T13:34:18.999Z</time></trkpt><trkpt lat="37.95135172622894" lon="13.49012714319592"><ele>323.0</ele><time>2026-04-30T13:34:19.999Z</time></trkpt><trkpt lat="37.95152350576339" lon="13.490040953791084"><ele>323.0</ele><time>2026-04-30T13:34:20.999Z</time></trkpt><trkpt lat="37.9516857726617" lon="13.489926008912507"><ele>323.0</ele><time>2026-04-30T13:34:21.999Z</time></trkpt><trkpt lat="37.95184323037793" lon="13.489786652548116"><ele>323.0</ele><time>2026-04-30T13:34:22.999Z</time></trkpt><trkpt lat="37.951994655788994" lon="13.489626993506864"><ele>324.6666666666667</ele><time>2026-04-30T13:34:23.999Z</time></trkpt><trkpt lat="37.95213617509527" lon="13.48945064908174"><ele>326.3333333333333</ele><time>2026-04-30T13:34:24.999Z</time></trkpt><trkpt lat="37.95227305551012" lon="13.489276327360857"><ele>328.0</ele><time>2026-04-30T13:34:25.999Z</time></trkpt><trkpt lat="37.952405203550356" lon="13.489098628535764"><ele>328.0</ele><time>2026-04-30T13:34:26.999Z</time></trkpt><trkpt lat="37.95254174167469" lon="13.488922497100203"><ele>328.0</ele><time>2026-04-30T13:34:27.999Z</time></trkpt><trkpt lat="37.952673751078436" lon="13.488746738986865"><ele>328.0</ele><time>2026-04-30T13:34:28.999Z</time></trkpt><trkpt lat="37.952807241308435" lon="13.4885713407538"><ele>328.0</ele><time>2026-04-30T13:34:29.999Z</time></trkpt><trkpt lat="37.95294051140602" lon="13.48839218861724"><ele>328.0</ele><time>2026-04-30T13:34:30.999Z</time></trkpt><trkpt lat="37.95307090032466" lon="13.488212136498689"><ele>328.0</ele><time>2026-04-30T13:34:31.999Z</time></trkpt><trkpt lat="37.95319804637081" lon="13.488026558183506"><ele>325.0</ele><time>2026-04-30T13:34:32.999Z</time></trkpt><trkpt lat="37.95332233749384" lon="13.487828030530897"><ele>322.0</ele><time>2026-04-30T13:34:33.999Z</time></trkpt><trkpt lat="37.95343914497335" lon="13.48761941746789"><ele>319.0</ele><time>2026-04-30T13:34:34.999Z</time></trkpt><trkpt lat="37.95354761906768" lon="13.487399291247081"><ele>323.0</ele><time>2026-04-30T13:34:35.999Z</time></trkpt><trkpt lat="37.953644376276884" lon="13.487169169254576"><ele>327.0</ele><time>2026-04-30T13:34:36.999Z</time></trkpt><trkpt lat="37.9537283043384" lon="13.486938482806144"><ele>331.0</ele><time>2026-04-30T13:34:37.999Z</time></trkpt><trkpt lat="37.95381177792858" lon="13.486708027633666"><ele>331.0</ele><time>2026-04-30T13:34:38.999Z</time></trkpt><trkpt lat="37.95389106840237" lon="13.486479910047313"><ele>331.0</ele><time>2026-04-30T13:34:39.999Z</time></trkpt><trkpt lat="37.95396807052555" lon="13.486256834994395"><ele>331.0</ele><time>2026-04-30T13:34:40.999Z</time></trkpt><trkpt lat="37.95404633091876" lon="13.486036521374078"><ele>331.0</ele><time>2026-04-30T13:34:41.999Z</time></trkpt><trkpt lat="37.95412840847355" lon="13.485823601194259"><ele>331.0</ele><time>2026-04-30T13:34:42.999Z</time></trkpt><trkpt lat="37.9542235634289" lon="13.485614204937612"><ele>331.0</ele><time>2026-04-30T13:34:43.999Z</time></trkpt><trkpt lat="37.95432482709675" lon="13.48540929000531"><ele>331.0</ele><time>2026-04-30T13:34:44.999Z</time></trkpt><trkpt lat="37.95443102222913" lon="13.485205915165267"><ele>331.0</ele><time>2026-04-30T13:34:45.999Z</time></trkpt><trkpt lat="37.95454602891779" lon="13.485010693123938"><ele>331.0</ele><time>2026-04-30T13:34:46.999Z</time></trkpt><trkpt lat="37.95466717288436" lon="13.484824127425435"><ele>331.0</ele><time>2026-04-30T13:34:47.999Z</time></trkpt><trkpt lat="37.95479210447546" lon="13.484644064007457"><ele>331.0</ele><time>2026-04-30T13:34:48.999Z</time></trkpt><trkpt lat="37.954913442676684" lon="13.484466424484125"><ele>331.0</ele><time>2026-04-30T13:34:49.999Z</time></trkpt><trkpt lat="37.955036779883784" lon="13.484287923546898"><ele>329.3333333333333</ele><time>2026-04-30T13:34:50.999Z</time></trkpt><trkpt lat="37.95516281326661" lon="13.484112737811161"><ele>327.6666666666667</ele><time>2026-04-30T13:34:51.999Z</time></trkpt><trkpt lat="37.95528511936817" lon="13.483937575369758"><ele>326.0</ele><time>2026-04-30T13:34:52.999Z</time></trkpt><trkpt lat="37.95540019453869" lon="13.4837574770965"><ele>326.0</ele><time>2026-04-30T13:34:53.999Z</time></trkpt><trkpt lat="37.95550603241715" lon="13.483567417368143"><ele>326.0</ele><time>2026-04-30T13:34:54.999Z</time></trkpt><trkpt lat="37.9556050621598" lon="13.483362395253353"><ele>326.0</ele><time>2026-04-30T13:34:55.999Z</time></trkpt><trkpt lat="37.95570079031021" lon="13.48314923617455"><ele>326.0</ele><time>2026-04-30T13:34:56.999Z</time></trkpt><trkpt lat="37.9557908960144" lon="13.482934836000156"><ele>326.0</ele><time>2026-04-30T13:34:57.999Z</time></trkpt><trkpt lat="37.9558781892429" lon="13.482714200426937"><ele>326.0</ele><time>2026-04-30T13:34:58.999Z</time></trkpt><trkpt lat="37.955966417741834" lon="13.482490321585658"><ele>326.33333333333337</ele><time>2026-04-30T13:34:59.999Z</time></trkpt><trkpt lat="37.9560477257216" lon="13.482271923161738"><ele>326.6666666666667</ele><time>2026-04-30T13:35:00.999Z</time></trkpt><trkpt lat="37.95612629031431" lon="13.482054133185043"><ele>327.0</ele><time>2026-04-30T13:35:01.999Z</time></trkpt><trkpt lat="37.95620703124735" lon="13.48182076240336"><ele>327.0</ele><time>2026-04-30T13:35:02.999Z</time></trkpt><trkpt lat="37.95629101249917" lon="13.481576544502978"><ele>327.0</ele><time>2026-04-30T13:35:03.999Z</time></trkpt><trkpt lat="37.95637749293908" lon="13.481318778420412"><ele>327.0</ele><time>2026-04-30T13:35:04.999Z</time></trkpt><trkpt lat="37.95647146245525" lon="13.481054100093502"><ele>325.3333333333333</ele><time>2026-04-30T13:35:05.999Z</time></trkpt><trkpt lat="37.95656538280956" lon="13.480800523319587"><ele>323.66666666666663</ele><time>2026-04-30T13:35:06.999Z</time></trkpt><trkpt lat="37.95665723090323" lon="13.480558912379664"><ele>322.0</ele><time>2026-04-30T13:35:07.999Z</time></trkpt><trkpt lat="37.95674240820026" lon="13.480333133263187"><ele>322.0</ele><time>2026-04-30T13:35:08.999Z</time></trkpt><trkpt lat="37.956826304240465" lon="13.480107757904051"><ele>322.0</ele><time>2026-04-30T13:35:10Z</time></trkpt><trkpt lat="37.95690805057444" lon="13.479883391241652"><ele>322.0</ele><time>2026-04-30T13:35:11Z</time></trkpt><trkpt lat="37.95698916490876" lon="13.479660016382896"><ele>319.0</ele><time>2026-04-30T13:35:12Z</time></trkpt><trkpt lat="37.957068946050754" lon="13.479434350402137"><ele>316.0</ele><time>2026-04-30T13:35:13Z</time></trkpt><trkpt lat="37.9571458643207" lon="13.47920341945729"><ele>313.0</ele><time>2026-04-30T13:35:14Z</time></trkpt><trkpt lat="37.95722049401186" lon="13.478965743964627"><ele>312.0</ele><time>2026-04-30T13:35:15Z</time></trkpt><trkpt lat="37.957290047244165" lon="13.478728614127514"><ele>311.0</ele><time>2026-04-30T13:35:16Z</time></trkpt><trkpt lat="37.95734785725056" lon="13.478496816257195"><ele>310.0</ele><time>2026-04-30T13:35:17Z</time></trkpt><trkpt lat="37.957394733595116" lon="13.478268069600784"><ele>310.0</ele><time>2026-04-30T13:35:18Z</time></trkpt><trkpt lat="37.95743142446855" lon="13.478047543956205"><ele>310.0</ele><time>2026-04-30T13:35:19Z</time></trkpt><trkpt lat="37.95745335201259" lon="13.477831258029711"><ele>310.0</ele><time>2026-04-30T13:35:20Z</time></trkpt><trkpt lat="37.95746877628176" lon="13.477620411015218"><ele>309.66666666666663</ele><time>2026-04-30T13:35:21Z</time></trkpt><trkpt lat="37.95747917435364" lon="13.477419285456197"><ele>309.3333333333333</ele><time>2026-04-30T13:35:22Z</time></trkpt><trkpt lat="37.957479239391944" lon="13.477220303617646"><ele>309.0</ele><time>2026-04-30T13:35:23Z</time></trkpt><trkpt lat="37.95747312351833" lon="13.477022597960758"><ele>309.0</ele><time>2026-04-30T13:35:24Z</time></trkpt><trkpt lat="37.957460998820245" lon="13.476822012703044"><ele>309.0</ele><time>2026-04-30T13:35:25Z</time></trkpt><trkpt lat="37.95743331746509" lon="13.476620142959812"><ele>309.0</ele><time>2026-04-30T13:35:26Z</time></trkpt><trkpt lat="37.95739102614235" lon="13.476415295265522"><ele>309.3333333333333</ele><time>2026-04-30T13:35:27Z</time></trkpt><trkpt lat="37.95734147570977" lon="13.476191386357648"><ele>309.66666666666663</ele><time>2026-04-30T13:35:28Z</time></trkpt><trkpt lat="37.95729748155961" lon="13.475965496314487"><ele>310.0</ele><time>2026-04-30T13:35:29Z</time></trkpt><trkpt lat="37.95725519528694" lon="13.4757612776718"><ele>310.0</ele><time>2026-04-30T13:35:30Z</time></trkpt><trkpt lat="37.95721322036609" lon="13.475578477477992"><ele>310.0</ele><time>2026-04-30T13:35:31Z</time></trkpt><trkpt lat="37.957169141508565" lon="13.475414348274168"><ele>310.0</ele><time>2026-04-30T13:35:32Z</time></trkpt><trkpt lat="37.95712137073968" lon="13.47524183776548"><ele>310.0</ele><time>2026-04-30T13:35:33Z</time></trkpt><trkpt lat="37.95706727415524" lon="13.475035729273436"><ele>314.0</ele><time>2026-04-30T13:35:34Z</time></trkpt><trkpt lat="37.9570090207648" lon="13.474799817662852"><ele>318.0</ele><time>2026-04-30T13:35:35Z</time></trkpt><trkpt lat="37.956958233923054" lon="13.474546257935106"><ele>322.0</ele><time>2026-04-30T13:35:36Z</time></trkpt><trkpt lat="37.95691257292953" lon="13.474289974276479"><ele>322.66666666666663</ele><time>2026-04-30T13:35:37Z</time></trkpt><trkpt lat="37.95688170225361" lon="13.474023421670134"><ele>323.3333333333333</ele><time>2026-04-30T13:35:38Z</time></trkpt><trkpt lat="37.95687476386072" lon="13.47374218854094"><ele>324.0</ele><time>2026-04-30T13:35:39Z</time></trkpt><trkpt lat="37.95688431486389" lon="13.473444237090321"><ele>324.0</ele><time>2026-04-30T13:35:40Z</time></trkpt><trkpt lat="37.95690483598309" lon="13.473140188620189"><ele>324.0</ele><time>2026-04-30T13:35:41Z</time></trkpt><trkpt lat="37.9569346254305" lon="13.472869485450428"><ele>321.0</ele><time>2026-04-30T13:35:42Z</time></trkpt><trkpt lat="37.95697583122588" lon="13.472602582977345"><ele>318.0</ele><time>2026-04-30T13:35:43Z</time></trkpt><trkpt lat="37.95703516067229" lon="13.472339682221527"><ele>315.0</ele><time>2026-04-30T13:35:44Z</time></trkpt><trkpt lat="37.95710791145334" lon="13.472076870727852"><ele>311.6666666666667</ele><time>2026-04-30T13:35:45Z</time></trkpt><trkpt lat="37.957192712686485" lon="13.471817362919198"><ele>308.33333333333337</ele><time>2026-04-30T13:35:46Z</time></trkpt><trkpt lat="37.95729991674602" lon="13.471567571662945"><ele>305.0</ele><time>2026-04-30T13:35:47Z</time></trkpt><trkpt lat="37.95742787231119" lon="13.471321131597648"><ele>304.5</ele><time>2026-04-30T13:35:48Z</time></trkpt><trkpt lat="37.95756999949037" lon="13.471076112668849"><ele>304.0</ele><time>2026-04-30T13:35:49Z</time></trkpt><trkpt lat="37.95772702473572" lon="13.470836638925178"><ele>304.0</ele><time>2026-04-30T13:35:50Z</time></trkpt><trkpt lat="37.95789870979887" lon="13.4706011262542"><ele>304.0</ele><time>2026-04-30T13:35:51Z</time></trkpt><trkpt lat="37.958079741866165" lon="13.470368606902447"><ele>303.5</ele><time>2026-04-30T13:35:51.999Z</time></trkpt><trkpt lat="37.95826781187927" lon="13.470135761507754"><ele>303.0</ele><time>2026-04-30T13:35:52.999Z</time></trkpt><trkpt lat="37.95844942036277" lon="13.469914928495884"><ele>303.0</ele><time>2026-04-30T13:35:53.999Z</time></trkpt><trkpt lat="37.95863102057109" lon="13.469691234847105"><ele>303.0</ele><time>2026-04-30T13:35:54.999Z</time></trkpt><trkpt lat="37.958815357102225" lon="13.46946683058373"><ele>299.5</ele><time>2026-04-30T13:35:55.999Z</time></trkpt><trkpt lat="37.95900269045876" lon="13.469241717392745"><ele>296.0</ele><time>2026-04-30T13:35:56.999Z</time></trkpt><trkpt lat="37.95919017397013" lon="13.469014710495426"><ele>296.5</ele><time>2026-04-30T13:35:57.999Z</time></trkpt><trkpt lat="37.959375591091074" lon="13.468790239042571"><ele>297.0</ele><time>2026-04-30T13:35:58.999Z</time></trkpt><trkpt lat="37.95956144174507" lon="13.46856536183486"><ele>297.0</ele><time>2026-04-30T13:35:59.999Z</time></trkpt><trkpt lat="37.959745994526685" lon="13.468338639923514"><ele>297.0</ele><time>2026-04-30T13:36:00.999Z</time></trkpt><trkpt lat="37.9599309268183" lon="13.468112896706954"><ele>295.5</ele><time>2026-04-30T13:36:01.999Z</time></trkpt><trkpt lat="37.96011298816159" lon="13.467887740034195"><ele>294.0</ele><time>2026-04-30T13:36:02.999Z</time></trkpt><trkpt lat="37.96029573095304" lon="13.467668957021754"><ele>294.0</ele><time>2026-04-30T13:36:03.999Z</time></trkpt><trkpt lat="37.96047928242799" lon="13.46745620084092"><ele>294.0</ele><time>2026-04-30T13:36:04.999Z</time></trkpt><trkpt lat="37.96066103829241" lon="13.467246653964672"><ele>291.0</ele><time>2026-04-30T13:36:05.999Z</time></trkpt><trkpt lat="37.960840255387" lon="13.467040903560532"><ele>288.0</ele><time>2026-04-30T13:36:06.999Z</time></trkpt><trkpt lat="37.961017130635426" lon="13.466837615868023"><ele>287.5</ele><time>2026-04-30T13:36:07.999Z</time></trkpt><trkpt lat="37.96119075836199" lon="13.466635312554068"><ele>287.0</ele><time>2026-04-30T13:36:08.999Z</time></trkpt><trkpt lat="37.96136146259285" lon="13.466434000969143"><ele>287.5</ele><time>2026-04-30T13:36:09.999Z</time></trkpt><trkpt lat="37.961531936788546" lon="13.466232833143016"><ele>288.0</ele><time>2026-04-30T13:36:10.999Z</time></trkpt><trkpt lat="37.96169896224721" lon="13.466029450371657"><ele>286.5</ele><time>2026-04-30T13:36:11.999Z</time></trkpt><trkpt lat="37.961863528018114" lon="13.46582822055927"><ele>285.0</ele><time>2026-04-30T13:36:12.999Z</time></trkpt><trkpt lat="37.96202839280104" lon="13.465627604443323"><ele>286.5</ele><time>2026-04-30T13:36:13.999Z</time></trkpt><trkpt lat="37.96219330064002" lon="13.465429044875131"><ele>288.0</ele><time>2026-04-30T13:36:14.999Z</time></trkpt><trkpt lat="37.96235737232119" lon="13.465231384360605"><ele>288.0</ele><time>2026-04-30T13:36:15.999Z</time></trkpt><trkpt lat="37.96251671005287" lon="13.46503609224311"><ele>288.0</ele><time>2026-04-30T13:36:16.999Z</time></trkpt><trkpt lat="37.96267581430891" lon="13.464843547173622"><ele>288.0</ele><time>2026-04-30T13:36:17.999Z</time></trkpt><trkpt lat="37.96283487373882" lon="13.4646529175147"><ele>288.3333333333333</ele><time>2026-04-30T13:36:18.999Z</time></trkpt><trkpt lat="37.96299478686296" lon="13.464458915755815"><ele>288.66666666666663</ele><time>2026-04-30T13:36:19.999Z</time></trkpt><trkpt lat="37.963154024887764" lon="13.464262164973428"><ele>289.0</ele><time>2026-04-30T13:36:20.999Z</time></trkpt><trkpt lat="37.96330918656042" lon="13.464067962808558"><ele>289.66666666666663</ele><time>2026-04-30T13:36:21.999Z</time></trkpt><trkpt lat="37.96345638862163" lon="13.463877751942734"><ele>290.3333333333333</ele><time>2026-04-30T13:36:22.999Z</time></trkpt><trkpt lat="37.96360001289453" lon="13.463690282563013"><ele>291.0</ele><time>2026-04-30T13:36:23.999Z</time></trkpt><trkpt lat="37.96374511269016" lon="13.46350630880325"><ele>291.0</ele><time>2026-04-30T13:36:24.999Z</time></trkpt><trkpt lat="37.963892960940676" lon="13.463324906404473"><ele>291.0</ele><time>2026-04-30T13:36:25.999Z</time></trkpt><trkpt lat="37.96404532533458" lon="13.463147537949169"><ele>291.0</ele><time>2026-04-30T13:36:26.999Z</time></trkpt><trkpt lat="37.96419458957043" lon="13.462979110620028"><ele>290.3333333333333</ele><time>2026-04-30T13:36:27.999Z</time></trkpt><trkpt lat="37.96435430989767" lon="13.462823437751146"><ele>289.66666666666663</ele><time>2026-04-30T13:36:28.999Z</time></trkpt><trkpt lat="37.96452778457108" lon="13.462727081666134"><ele>289.0</ele><time>2026-04-30T13:36:29.999Z</time></trkpt><trkpt lat="37.96471459625489" lon="13.462617505995707"><ele>289.0</ele><time>2026-04-30T13:36:30.999Z</time></trkpt><trkpt lat="37.964915016285985" lon="13.462515173798824"><ele>289.0</ele><time>2026-04-30T13:36:31.999Z</time></trkpt><trkpt lat="37.965121998847685" lon="13.462419566328444"><ele>289.0</ele><time>2026-04-30T13:36:32.999Z</time></trkpt><trkpt lat="37.96532412429065" lon="13.462326030335367"><ele>289.0</ele><time>2026-04-30T13:36:33.999Z</time></trkpt><trkpt lat="37.96552107482323" lon="13.462230779776915"><ele>289.0</ele><time>2026-04-30T13:36:34.999Z</time></trkpt><trkpt lat="37.96571875349672" lon="13.462130836517469"><ele>289.0</ele><time>2026-04-30T13:36:35.999Z</time></trkpt><trkpt lat="37.96591472363536" lon="13.462028890106843"><ele>289.0</ele><time>2026-04-30T13:36:36.999Z</time></trkpt><trkpt lat="37.9661057809259" lon="13.461914947094675"><ele>289.0</ele><time>2026-04-30T13:36:37.999Z</time></trkpt><trkpt lat="37.966296665130876" lon="13.461791818732795"><ele>289.0</ele><time>2026-04-30T13:36:38.999Z</time></trkpt><trkpt lat="37.96648551754551" lon="13.461661636808804"><ele>289.0</ele><time>2026-04-30T13:36:39.999Z</time></trkpt><trkpt lat="37.9666621940142" lon="13.461521355738277"><ele>289.0</ele><time>2026-04-30T13:36:40.999Z</time></trkpt><trkpt lat="37.966820449439794" lon="13.461363703266292"><ele>289.0</ele><time>2026-04-30T13:36:41.999Z</time></trkpt><trkpt lat="37.96696346106224" lon="13.461179047610042"><ele>288.0</ele><time>2026-04-30T13:36:42.999Z</time></trkpt><trkpt lat="37.96708668153907" lon="13.460973941484708"><ele>287.0</ele><time>2026-04-30T13:36:43.999Z</time></trkpt><trkpt lat="37.96718562490542" lon="13.46075363330464"><ele>286.0</ele><time>2026-04-30T13:36:44.999Z</time></trkpt><trkpt lat="37.96726081715204" lon="13.460524113350209"><ele>288.0</ele><time>2026-04-30T13:36:45.999Z</time></trkpt><trkpt lat="37.967333690752646" lon="13.460295503523733"><ele>290.0</ele><time>2026-04-30T13:36:46.999Z</time></trkpt><trkpt lat="37.96742050280071" lon="13.460071239027869"><ele>292.0</ele><time>2026-04-30T13:36:47.999Z</time></trkpt><trkpt lat="37.967524286261586" lon="13.459850118113563"><ele>291.66666666666663</ele><time>2026-04-30T13:36:48.999Z</time></trkpt><trkpt lat="37.96764492113729" lon="13.459634792669371"><ele>291.3333333333333</ele><time>2026-04-30T13:36:49.999Z</time></trkpt><trkpt lat="37.96777868523444" lon="13.459424941632015"><ele>291.0</ele><time>2026-04-30T13:36:50.999Z</time></trkpt><trkpt lat="37.96792526364284" lon="13.459232613359807"><ele>291.0</ele><time>2026-04-30T13:36:51.999Z</time></trkpt><trkpt lat="37.96809173713205" lon="13.459062050112422"><ele>291.0</ele><time>2026-04-30T13:36:52.999Z</time></trkpt><trkpt lat="37.96826965628522" lon="13.458907093314878"><ele>291.0</ele><time>2026-04-30T13:36:53.999Z</time></trkpt><trkpt lat="37.968462010782495" lon="13.458782013961143"><ele>296.3333333333333</ele><time>2026-04-30T13:36:54.999Z</time></trkpt><trkpt lat="37.96867359164302" lon="13.458707427152655"><ele>301.66666666666663</ele><time>2026-04-30T13:36:55.999Z</time></trkpt><trkpt lat="37.968887726066285" lon="13.458644033484001"><ele>307.0</ele><time>2026-04-30T13:36:56.999Z</time></trkpt><trkpt lat="37.96910853288535" lon="13.458624533338531"><ele>307.0</ele><time>2026-04-30T13:36:57.999Z</time></trkpt><trkpt lat="37.96932243763017" lon="13.458619008615925"><ele>307.0</ele><time>2026-04-30T13:36:58.999Z</time></trkpt><trkpt lat="37.96953482347152" lon="13.458614152369277"><ele>307.0</ele><time>2026-04-30T13:36:59.999Z</time></trkpt><trkpt lat="37.969737573641396" lon="13.458583728367584"><ele>307.0</ele><time>2026-04-30T13:37:00.999Z</time></trkpt><trkpt lat="37.969931157110814" lon="13.458524478525034"><ele>307.0</ele><time>2026-04-30T13:37:01.999Z</time></trkpt><trkpt lat="37.970120611462406" lon="13.458437109412626"><ele>307.0</ele><time>2026-04-30T13:37:02.999Z</time></trkpt><trkpt lat="37.97030594958082" lon="13.458326934324674"><ele>307.66666666666663</ele><time>2026-04-30T13:37:03.999Z</time></trkpt><trkpt lat="37.97048598740373" lon="13.458202713758421"><ele>308.3333333333333</ele><time>2026-04-30T13:37:04.999Z</time></trkpt><trkpt lat="37.97065020980865" lon="13.458059090130845"><ele>309.0</ele><time>2026-04-30T13:37:05.999Z</time></trkpt><trkpt lat="37.97080569894132" lon="13.457902320351"><ele>306.6666666666667</ele><time>2026-04-30T13:37:06.999Z</time></trkpt><trkpt lat="37.97095535136343" lon="13.457733434843538"><ele>304.33333333333337</ele><time>2026-04-30T13:37:07.999Z</time></trkpt><trkpt lat="37.97110906479395" lon="13.457565696152594"><ele>302.0</ele><time>2026-04-30T13:37:08.999Z</time></trkpt><trkpt lat="37.9712739126555" lon="13.457410315680903"><ele>302.0</ele><time>2026-04-30T13:37:09.999Z</time></trkpt><trkpt lat="37.97145182869863" lon="13.45726413520599"><ele>302.0</ele><time>2026-04-30T13:37:10.999Z</time></trkpt><trkpt lat="37.97164769959832" lon="13.457137455509635"><ele>302.0</ele><time>2026-04-30T13:37:11.999Z</time></trkpt><trkpt lat="37.97183742496272" lon="13.457015265985495"><ele>299.6666666666667</ele><time>2026-04-30T13:37:12.999Z</time></trkpt><trkpt lat="37.97203621525174" lon="13.456925567556025"><ele>297.3333333333333</ele><time>2026-04-30T13:37:13.999Z</time></trkpt><trkpt lat="37.97224613776972" lon="13.456857187185651"><ele>295.0</ele><time>2026-04-30T13:37:14.999Z</time></trkpt><trkpt lat="37.9724533525269" lon="13.456805294106184"><ele>294.66666666666663</ele><time>2026-04-30T13:37:16Z</time></trkpt><trkpt lat="37.97264882115866" lon="13.456761384939059"><ele>294.3333333333333</ele><time>2026-04-30T13:37:17Z</time></trkpt><trkpt lat="37.97284451211067" lon="13.456710826450355"><ele>294.0</ele><time>2026-04-30T13:37:18Z</time></trkpt><trkpt lat="37.97303933942491" lon="13.456652440053084"><ele>294.0</ele><time>2026-04-30T13:37:19Z</time></trkpt><trkpt lat="37.973231193549154" lon="13.456591044459843"><ele>294.0</ele><time>2026-04-30T13:37:20Z</time></trkpt><trkpt lat="37.97342554762045" lon="13.456530884318756"><ele>294.0</ele><time>2026-04-30T13:37:21Z</time></trkpt><trkpt lat="37.9736185483823" lon="13.456480765891895"><ele>293.3333333333333</ele><time>2026-04-30T13:37:22Z</time></trkpt><trkpt lat="37.97381168087395" lon="13.456438909029"><ele>292.66666666666663</ele><time>2026-04-30T13:37:23Z</time></trkpt><trkpt lat="37.974005108941704" lon="13.456405424815046"><ele>292.0</ele><time>2026-04-30T13:37:24Z</time></trkpt><trkpt lat="37.97419963528209" lon="13.456382679849488"><ele>291.0</ele><time>2026-04-30T13:37:25Z</time></trkpt><trkpt lat="37.97439727305263" lon="13.456375349834074"><ele>290.0</ele><time>2026-04-30T13:37:26Z</time></trkpt><trkpt lat="37.97459127506726" lon="13.456381654290865"><ele>289.0</ele><time>2026-04-30T13:37:27Z</time></trkpt><trkpt lat="37.974786044829244" lon="13.456387179739545"><ele>289.0</ele><time>2026-04-30T13:37:28Z</time></trkpt><trkpt lat="37.97498213095457" lon="13.456382531763806"><ele>289.0</ele><time>2026-04-30T13:37:29Z</time></trkpt><trkpt lat="37.975176620633405" lon="13.456371197165874"><ele>289.0</ele><time>2026-04-30T13:37:30Z</time></trkpt><trkpt lat="37.97537042147406" lon="13.456350752187992"><ele>288.66666666666663</ele><time>2026-04-30T13:37:31Z</time></trkpt><trkpt lat="37.975562864631634" lon="13.456308380277289"><ele>288.3333333333333</ele><time>2026-04-30T13:37:32Z</time></trkpt><trkpt lat="37.97574709005513" lon="13.456237597361108"><ele>288.0</ele><time>2026-04-30T13:37:33Z</time></trkpt><trkpt lat="37.97592415140798" lon="13.45614021119168"><ele>288.6666666666667</ele><time>2026-04-30T13:37:34Z</time></trkpt><trkpt lat="37.976094292731595" lon="13.456013743131853"><ele>289.33333333333337</ele><time>2026-04-30T13:37:35Z</time></trkpt><trkpt lat="37.97626125311422" lon="13.45586933275337"><ele>290.0</ele><time>2026-04-30T13:37:36Z</time></trkpt><trkpt lat="37.97642593056193" lon="13.455707150644889"><ele>290.0</ele><time>2026-04-30T13:37:37Z</time></trkpt><trkpt lat="37.97658482791834" lon="13.455537709810846"><ele>290.0</ele><time>2026-04-30T13:37:38Z</time></trkpt><trkpt lat="37.97674085994728" lon="13.455375683222584"><ele>290.0</ele><time>2026-04-30T13:37:39Z</time></trkpt><trkpt lat="37.97689225813286" lon="13.455231117273668"><ele>286.33333333333337</ele><time>2026-04-30T13:37:40Z</time></trkpt><trkpt lat="37.97705148704529" lon="13.455087703427127"><ele>282.6666666666667</ele><time>2026-04-30T13:37:41Z</time></trkpt><trkpt lat="37.97721473313276" lon="13.45494877026812"><ele>279.0</ele><time>2026-04-30T13:37:42Z</time></trkpt><trkpt lat="37.97738778633708" lon="13.454815665632864"><ele>279.6666666666667</ele><time>2026-04-30T13:37:43Z</time></trkpt><trkpt lat="37.97757442012237" lon="13.454698582921539"><ele>280.33333333333337</ele><time>2026-04-30T13:37:44Z</time></trkpt><trkpt lat="37.9777735160676" lon="13.454592614045078"><ele>281.0</ele><time>2026-04-30T13:37:45Z</time></trkpt><trkpt lat="37.97798665246181" lon="13.45449469758179"><ele>276.33333333333337</ele><time>2026-04-30T13:37:46Z</time></trkpt><trkpt lat="37.9781958304811" lon="13.45439351175527"><ele>271.6666666666667</ele><time>2026-04-30T13:37:47Z</time></trkpt><trkpt lat="37.97840251730549" lon="13.45428637942726"><ele>267.0</ele><time>2026-04-30T13:37:48Z</time></trkpt><trkpt lat="37.97860806615586" lon="13.454175717669191"><ele>266.6666666666667</ele><time>2026-04-30T13:37:49Z</time></trkpt><trkpt lat="37.978814449367114" lon="13.454068520623121"><ele>266.33333333333337</ele><time>2026-04-30T13:37:50Z</time></trkpt><trkpt lat="37.97901461836508" lon="13.453970456709138"><ele>266.0</ele><time>2026-04-30T13:37:51Z</time></trkpt><trkpt lat="37.9792077313159" lon="13.453870115886891"><ele>262.6666666666667</ele><time>2026-04-30T13:37:52Z</time></trkpt><trkpt lat="37.97940070281991" lon="13.453763301610078"><ele>259.3333333333333</ele><time>2026-04-30T13:37:53Z</time></trkpt><trkpt lat="37.97959570565303" lon="13.45366037727286"><ele>256.0</ele><time>2026-04-30T13:37:54Z</time></trkpt><trkpt lat="37.97978967435677" lon="13.45355843131717"><ele>256.0</ele><time>2026-04-30T13:37:55Z</time></trkpt><trkpt lat="37.979980129929615" lon="13.45346173651198"><ele>256.0</ele><time>2026-04-30T13:37:56Z</time></trkpt><trkpt lat="37.98016073333625" lon="13.45337131470789"><ele>256.0</ele><time>2026-04-30T13:37:57Z</time></trkpt><trkpt lat="37.9803314671739" lon="13.453285114926448"><ele>258.0</ele><time>2026-04-30T13:37:57.999Z</time></trkpt><trkpt lat="37.98049339575405" lon="13.453197265772992"><ele>260.0</ele><time>2026-04-30T13:37:58.999Z</time></trkpt><trkpt lat="37.980650463080494" lon="13.453113609195103"><ele>262.0</ele><time>2026-04-30T13:37:59.999Z</time></trkpt><trkpt lat="37.980810851721024" lon="13.453031478579518"><ele>260.0</ele><time>2026-04-30T13:38:00.999Z</time></trkpt><trkpt lat="37.98097956370707" lon="13.452947132889488"><ele>258.0</ele><time>2026-04-30T13:38:01.999Z</time></trkpt><trkpt lat="37.98115109563872" lon="13.452858847210834"><ele>256.0</ele><time>2026-04-30T13:38:02.999Z</time></trkpt><trkpt lat="37.98132513787832" lon="13.45276745859647"><ele>256.0</ele><time>2026-04-30T13:38:03.999Z</time></trkpt><trkpt lat="37.981499933481146" lon="13.452669419291713"><ele>256.0</ele><time>2026-04-30T13:38:04.999Z</time></trkpt><trkpt lat="37.981675273616105" lon="13.452566314395023"><ele>256.0</ele><time>2026-04-30T13:38:05.999Z</time></trkpt><trkpt lat="37.98185031317565" lon="13.452452348997975"><ele>254.33333333333331</ele><time>2026-04-30T13:38:06.999Z</time></trkpt><trkpt lat="37.98201898438195" lon="13.452328348433428"><ele>252.66666666666669</ele><time>2026-04-30T13:38:07.999Z</time></trkpt><trkpt lat="37.98218684061461" lon="13.45219839158029"><ele>251.0</ele><time>2026-04-30T13:38:08.999Z</time></trkpt><trkpt lat="37.98235467034294" lon="13.452064748293264"><ele>251.33333333333334</ele><time>2026-04-30T13:38:09.999Z</time></trkpt><trkpt lat="37.9825217346356" lon="13.451929868002168"><ele>251.66666666666669</ele><time>2026-04-30T13:38:10.999Z</time></trkpt><trkpt lat="37.982687352792595" lon="13.451799550794142"><ele>252.0</ele><time>2026-04-30T13:38:11.999Z</time></trkpt><trkpt lat="37.98285157954635" lon="13.451682817427232"><ele>252.0</ele><time>2026-04-30T13:38:12.999Z</time></trkpt><trkpt lat="37.98301217094883" lon="13.451585123685133"><ele>252.0</ele><time>2026-04-30T13:38:13.999Z</time></trkpt><trkpt lat="37.983179725289034" lon="13.451500977448426"><ele>252.0</ele><time>2026-04-30T13:38:14.999Z</time></trkpt><trkpt lat="37.98335520964542" lon="13.45142974124702"><ele>252.0</ele><time>2026-04-30T13:38:15.999Z</time></trkpt><trkpt lat="37.983538218663504" lon="13.451382243396502"><ele>252.0</ele><time>2026-04-30T13:38:16.999Z</time></trkpt><trkpt lat="37.983721691179234" lon="13.451355897752796"><ele>252.0</ele><time>2026-04-30T13:38:17.999Z</time></trkpt><trkpt lat="37.983909981276156" lon="13.45134811726232"><ele>252.0</ele><time>2026-04-30T13:38:18.999Z</time></trkpt><trkpt lat="37.98409967465682" lon="13.45136221254201"><ele>252.0</ele><time>2026-04-30T13:38:19.999Z</time></trkpt><trkpt lat="37.98429052660544" lon="13.451383639694205"><ele>252.0</ele><time>2026-04-30T13:38:20.999Z</time></trkpt><trkpt lat="37.98448501473442" lon="13.451400237571365"><ele>250.33333333333331</ele><time>2026-04-30T13:38:21.999Z</time></trkpt><trkpt lat="37.98467676464032" lon="13.451421081883334"><ele>248.66666666666666</ele><time>2026-04-30T13:38:22.999Z</time></trkpt><trkpt lat="37.98486788805394" lon="13.45144797419746"><ele>247.0</ele><time>2026-04-30T13:38:23.999Z</time></trkpt><trkpt lat="37.985062495674086" lon="13.45147322113728"><ele>244.33333333333331</ele><time>2026-04-30T13:38:24.999Z</time></trkpt><trkpt lat="37.98525646990058" lon="13.451497249918916"><ele>241.66666666666669</ele><time>2026-04-30T13:38:25.999Z</time></trkpt><trkpt lat="37.98545470689158" lon="13.451522724769156"><ele>239.0</ele><time>2026-04-30T13:38:26.999Z</time></trkpt><trkpt lat="37.98565419470532" lon="13.451548230684235"><ele>236.0</ele><time>2026-04-30T13:38:27.999Z</time></trkpt><trkpt lat="37.985854351180826" lon="13.451569495842778"><ele>233.0</ele><time>2026-04-30T13:38:28.999Z</time></trkpt><trkpt lat="37.98605445174634" lon="13.451590707984467"><ele>230.0</ele><time>2026-04-30T13:38:29.999Z</time></trkpt><trkpt lat="37.986245941031946" lon="13.451612481704585"><ele>230.0</ele><time>2026-04-30T13:38:30.999Z</time></trkpt><trkpt lat="37.986429284366615" lon="13.451637499022075"><ele>230.0</ele><time>2026-04-30T13:38:31.999Z</time></trkpt><trkpt lat="37.98661403646191" lon="13.451670820443233"><ele>230.0</ele><time>2026-04-30T13:38:32.999Z</time></trkpt><trkpt lat="37.9867989212444" lon="13.451721873552454"><ele>229.0</ele><time>2026-04-30T13:38:33.999Z</time></trkpt><trkpt lat="37.986983487527965" lon="13.45179630552844"><ele>228.0</ele><time>2026-04-30T13:38:34.999Z</time></trkpt><trkpt lat="37.98716605498857" lon="13.451890594716767"><ele>227.0</ele><time>2026-04-30T13:38:35.999Z</time></trkpt><trkpt lat="37.98733890785299" lon="13.452005331885598"><ele>229.0</ele><time>2026-04-30T13:38:36.999Z</time></trkpt><trkpt lat="37.98749790407814" lon="13.452144920661055"><ele>231.0</ele><time>2026-04-30T13:38:37.999Z</time></trkpt><trkpt lat="37.98764338573278" lon="13.452299150981002"><ele>233.0</ele><time>2026-04-30T13:38:38.999Z</time></trkpt><trkpt lat="37.98776974166764" lon="13.452461249587683"><ele>228.25</ele><time>2026-04-30T13:38:39.999Z</time></trkpt><trkpt lat="37.987859680537866" lon="13.452608510618571"><ele>223.5</ele><time>2026-04-30T13:38:40.999Z</time></trkpt><trkpt lat="37.98793181806185" lon="13.45277257794405"><ele>218.75</ele><time>2026-04-30T13:38:41.999Z</time></trkpt><trkpt lat="37.98797644083901" lon="13.452951496349304"><ele>214.0</ele><time>2026-04-30T13:38:42.999Z</time></trkpt><trkpt lat="37.98799712416455" lon="13.453135005197902"><ele>214.0</ele><time>2026-04-30T13:38:43.999Z</time></trkpt><trkpt lat="37.98802742837554" lon="13.453311772094056"><ele>214.0</ele><time>2026-04-30T13:38:44.999Z</time></trkpt><trkpt lat="37.98807524664676" lon="13.453482564693562"><ele>214.0</ele><time>2026-04-30T13:38:45.999Z</time></trkpt><trkpt lat="37.98813107224461" lon="13.453642952556805"><ele>214.0</ele><time>2026-04-30T13:38:46.999Z</time></trkpt><trkpt lat="37.988193384597814" lon="13.453796387360994"><ele>215.0</ele><time>2026-04-30T13:38:47.999Z</time></trkpt><trkpt lat="37.988256492575566" lon="13.453937391545123"><ele>216.0</ele><time>2026-04-30T13:38:48.999Z</time></trkpt><trkpt lat="37.98832353918069" lon="13.454060256410438"><ele>217.0</ele><time>2026-04-30T13:38:49.999Z</time></trkpt><trkpt lat="37.98839678131569" lon="13.454186243317839"><ele>218.0</ele><time>2026-04-30T13:38:50.999Z</time></trkpt><trkpt lat="37.988490777581895" lon="13.45428658242606"><ele>215.5</ele><time>2026-04-30T13:38:51.999Z</time></trkpt><trkpt lat="37.98860830095258" lon="13.45433966552391"><ele>213.0</ele><time>2026-04-30T13:38:52.999Z</time></trkpt><trkpt lat="37.98874256612212" lon="13.454360986433908"><ele>210.5</ele><time>2026-04-30T13:38:53.999Z</time></trkpt><trkpt lat="37.9888795022743" lon="13.454381726567725"><ele>208.0</ele><time>2026-04-30T13:38:54.999Z</time></trkpt><trkpt lat="37.98901728876387" lon="13.454414078525122"><ele>208.0</ele><time>2026-04-30T13:38:55.999Z</time></trkpt><trkpt lat="37.989159013155685" lon="13.454452076704968"><ele>208.0</ele><time>2026-04-30T13:38:56.999Z</time></trkpt><trkpt lat="37.98930524377363" lon="13.454488295367366"><ele>208.0</ele><time>2026-04-30T13:38:57.999Z</time></trkpt><trkpt lat="37.98944729875183" lon="13.454508236843088"><ele>208.0</ele><time>2026-04-30T13:38:58.999Z</time></trkpt><trkpt lat="37.98958272969316" lon="13.454493792280612"><ele>210.0</ele><time>2026-04-30T13:38:59.999Z</time></trkpt><trkpt lat="37.989703318844725" lon="13.454429021552674"><ele>212.0</ele><time>2026-04-30T13:39:00.999Z</time></trkpt><trkpt lat="37.989799046443224" lon="13.454327516519186"><ele>214.0</ele><time>2026-04-30T13:39:01.999Z</time></trkpt><trkpt lat="37.98988280650025" lon="13.4542219637342"><ele>216.0</ele><time>2026-04-30T13:39:02.999Z</time></trkpt><trkpt lat="37.989968512339644" lon="13.454105165020339"><ele>217.0</ele><time>2026-04-30T13:39:03.999Z</time></trkpt><trkpt lat="37.99006090876748" lon="13.453983968726137"><ele>218.0</ele><time>2026-04-30T13:39:04.999Z</time></trkpt><trkpt lat="37.990151539557836" lon="13.453846192860116"><ele>219.0</ele><time>2026-04-30T13:39:05.999Z</time></trkpt><trkpt lat="37.99023815208625" lon="13.453686606643755"><ele>220.0</ele><time>2026-04-30T13:39:06.999Z</time></trkpt><trkpt lat="37.990316032487556" lon="13.453518559367975"><ele>220.0</ele><time>2026-04-30T13:39:07.999Z</time></trkpt><trkpt lat="37.990382597213525" lon="13.453351109920435"><ele>220.0</ele><time>2026-04-30T13:39:08.999Z</time></trkpt><trkpt lat="37.990445714569155" lon="13.453187423538587"><ele>220.0</ele><time>2026-04-30T13:39:09.999Z</time></trkpt><trkpt lat="37.99051643134458" lon="13.453029795617615"><ele>220.0</ele><time>2026-04-30T13:39:10.999Z</time></trkpt><trkpt lat="37.990602306403005" lon="13.452866675669858"><ele>220.0</ele><time>2026-04-30T13:39:11.999Z</time></trkpt><trkpt lat="37.990704143453904" lon="13.452713593657537"><ele>220.0</ele><time>2026-04-30T13:39:12.999Z</time></trkpt><trkpt lat="37.99081601145442" lon="13.45257186069595"><ele>220.0</ele><time>2026-04-30T13:39:13.999Z</time></trkpt><trkpt lat="37.99092138230504" lon="13.452436159787137"><ele>220.0</ele><time>2026-04-30T13:39:14.999Z</time></trkpt><trkpt lat="37.991017638321466" lon="13.452286821254184"><ele>220.0</ele><time>2026-04-30T13:39:15.999Z</time></trkpt><trkpt lat="37.99111125089159" lon="13.452138133834609"><ele>220.0</ele><time>2026-04-30T13:39:16.999Z</time></trkpt><trkpt lat="37.99119763034314" lon="13.451989637439482"><ele>220.0</ele><time>2026-04-30T13:39:17.999Z</time></trkpt><trkpt lat="37.991281694749375" lon="13.451840645480498"><ele>215.75</ele><time>2026-04-30T13:39:18.999Z</time></trkpt><trkpt lat="37.99136627649366" lon="13.451693194912533"><ele>211.5</ele><time>2026-04-30T13:39:19.999Z</time></trkpt><trkpt lat="37.991457064317295" lon="13.451546678855804"><ele>207.25</ele><time>2026-04-30T13:39:20.999Z</time></trkpt><trkpt lat="37.991553112964596" lon="13.451401278019697"><ele>203.0</ele><time>2026-04-30T13:39:22Z</time></trkpt><trkpt lat="37.991653439773444" lon="13.451259385982631"><ele>201.5</ele><time>2026-04-30T13:39:23Z</time></trkpt><trkpt lat="37.99175576793584" lon="13.45112641061191"><ele>200.0</ele><time>2026-04-30T13:39:24Z</time></trkpt><trkpt lat="37.991862239509224" lon="13.450997497995353"><ele>198.5</ele><time>2026-04-30T13:39:25Z</time></trkpt><trkpt lat="37.99197592389495" lon="13.450867031667451"><ele>197.0</ele><time>2026-04-30T13:39:26Z</time></trkpt><trkpt lat="37.99209775767298" lon="13.45073568087721"><ele>197.0</ele><time>2026-04-30T13:39:27Z</time></trkpt><trkpt lat="37.99222775305564" lon="13.450608573145974"><ele>197.0</ele><time>2026-04-30T13:39:28Z</time></trkpt><trkpt lat="37.99236628784869" lon="13.450483770521345"><ele>197.0</ele><time>2026-04-30T13:39:29Z</time></trkpt><trkpt lat="37.99250790682709" lon="13.450374527142019"><ele>194.66666666666669</ele><time>2026-04-30T13:39:30Z</time></trkpt><trkpt lat="37.99265860753052" lon="13.450274798538912"><ele>192.33333333333334</ele><time>2026-04-30T13:39:31Z</time></trkpt><trkpt lat="37.992817936537165" lon="13.450179874035387"><ele>190.0</ele><time>2026-04-30T13:39:32Z</time></trkpt><trkpt lat="37.99298058481657" lon="13.450095207681713"><ele>190.0</ele><time>2026-04-30T13:39:33Z</time></trkpt><trkpt lat="37.9931460724952" lon="13.45001411189138"><ele>190.0</ele><time>2026-04-30T13:39:34Z</time></trkpt><trkpt lat="37.993316035724895" lon="13.44994059079645"><ele>190.0</ele><time>2026-04-30T13:39:35Z</time></trkpt><trkpt lat="37.9934894230827" lon="13.449878307159734"><ele>189.33333333333334</ele><time>2026-04-30T13:39:36Z</time></trkpt><trkpt lat="37.99366265404389" lon="13.449825781905197"><ele>188.66666666666666</ele><time>2026-04-30T13:39:37Z</time></trkpt><trkpt lat="37.993838212531486" lon="13.449782548660126"><ele>188.0</ele><time>2026-04-30T13:39:38Z</time></trkpt><trkpt lat="37.99401020865106" lon="13.449753666229212"><ele>186.66666666666666</ele><time>2026-04-30T13:39:39Z</time></trkpt><trkpt lat="37.99418542341747" lon="13.449737016787697"><ele>185.33333333333334</ele><time>2026-04-30T13:39:40Z</time></trkpt><trkpt lat="37.99436274717381" lon="13.449727937704012"><ele>184.0</ele><time>2026-04-30T13:39:41Z</time></trkpt><trkpt lat="37.99454411808744" lon="13.449735160356125"><ele>184.0</ele><time>2026-04-30T13:39:42Z</time></trkpt><trkpt lat="37.99472588131712" lon="13.449745936288258"><ele>184.0</ele><time>2026-04-30T13:39:43Z</time></trkpt><trkpt lat="37.994908966669044" lon="13.449764836359854"><ele>184.0</ele><time>2026-04-30T13:39:44Z</time></trkpt><trkpt lat="37.995098618354454" lon="13.449786733382627"><ele>181.0</ele><time>2026-04-30T13:39:45Z</time></trkpt><trkpt lat="37.99528889869495" lon="13.449815109027913"><ele>178.0</ele><time>2026-04-30T13:39:46Z</time></trkpt><trkpt lat="37.995481552432565" lon="13.44984431366817"><ele>175.0</ele><time>2026-04-30T13:39:47Z</time></trkpt><trkpt lat="37.995677163139334" lon="13.449869455896748"><ele>173.0</ele><time>2026-04-30T13:39:48Z</time></trkpt><trkpt lat="37.995873890674275" lon="13.449895858061794"><ele>171.0</ele><time>2026-04-30T13:39:49Z</time></trkpt><trkpt lat="37.99607296090675" lon="13.449922549017144"><ele>169.0</ele><time>2026-04-30T13:39:50Z</time></trkpt><trkpt lat="37.99627222954318" lon="13.449949902725248"><ele>169.0</ele><time>2026-04-30T13:39:51Z</time></trkpt><trkpt lat="37.99647257445443" lon="13.449979118534321"><ele>169.0</ele><time>2026-04-30T13:39:52Z</time></trkpt><trkpt lat="37.99667027556151" lon="13.450004527717255"><ele>169.0</ele><time>2026-04-30T13:39:53Z</time></trkpt><trkpt lat="37.99685730304462" lon="13.45003443995755"><ele>166.66666666666669</ele><time>2026-04-30T13:39:54Z</time></trkpt><trkpt lat="37.99703649161131" lon="13.450061764281608"><ele>164.33333333333334</ele><time>2026-04-30T13:39:55Z</time></trkpt><trkpt lat="37.99721610428846" lon="13.450090537048549"><ele>162.0</ele><time>2026-04-30T13:39:56Z</time></trkpt><trkpt lat="37.99739238971792" lon="13.450122658911233"><ele>159.66666666666666</ele><time>2026-04-30T13:39:57Z</time></trkpt><trkpt lat="37.99756718315313" lon="13.450165613342975"><ele>157.33333333333331</ele><time>2026-04-30T13:39:58Z</time></trkpt><trkpt lat="37.99774020478126" lon="13.450221903388519"><ele>155.0</ele><time>2026-04-30T13:39:59Z</time></trkpt><trkpt lat="37.99790984452309" lon="13.450292591451605"><ele>155.0</ele><time>2026-04-30T13:40:00Z</time></trkpt><trkpt lat="37.99807733788637" lon="13.450375855226262"><ele>155.0</ele><time>2026-04-30T13:40:00.999Z</time></trkpt><trkpt lat="37.99824966128394" lon="13.450463584207535"><ele>155.0</ele><time>2026-04-30T13:40:01.999Z</time></trkpt><trkpt lat="37.998427278152214" lon="13.45055114485814"><ele>155.33333333333331</ele><time>2026-04-30T13:40:02.999Z</time></trkpt><trkpt lat="37.99860438670178" lon="13.450638282248597"><ele>155.66666666666666</ele><time>2026-04-30T13:40:03.999Z</time></trkpt><trkpt lat="37.99877443476807" lon="13.450725990449861"><ele>156.0</ele><time>2026-04-30T13:40:04.999Z</time></trkpt><trkpt lat="37.99893962342327" lon="13.450815982736888"><ele>156.0</ele><time>2026-04-30T13:40:05.999Z</time></trkpt><trkpt lat="37.99910781054212" lon="13.450906529314025"><ele>156.0</ele><time>2026-04-30T13:40:06.999Z</time></trkpt><trkpt lat="37.99928149568698" lon="13.45100436265449"><ele>156.0</ele><time>2026-04-30T13:40:07.999Z</time></trkpt><trkpt lat="37.99945063702111" lon="13.451123909285693"><ele>153.66666666666666</ele><time>2026-04-30T13:40:08.999Z</time></trkpt><trkpt lat="37.9996112906783" lon="13.451263003948851"><ele>151.33333333333331</ele><time>2026-04-30T13:40:09.999Z</time></trkpt><trkpt lat="37.99976377360492" lon="13.451418891393917"><ele>149.0</ele><time>2026-04-30T13:40:10.999Z</time></trkpt><trkpt lat="37.99991694837825" lon="13.451595587948525"><ele>149.0</ele><time>2026-04-30T13:40:11.999Z</time></trkpt><trkpt lat="38.00006842460065" lon="13.45179584102846"><ele>149.0</ele><time>2026-04-30T13:40:12.999Z</time></trkpt><trkpt lat="38.00022425394861" lon="13.452003791072844"><ele>149.0</ele><time>2026-04-30T13:40:13.999Z</time></trkpt><trkpt lat="38.00037542345566" lon="13.45221131079546"><ele>147.33333333333331</ele><time>2026-04-30T13:40:14.999Z</time></trkpt><trkpt lat="38.00052710089598" lon="13.45241302705952"><ele>145.66666666666666</ele><time>2026-04-30T13:40:15.999Z</time></trkpt><trkpt lat="38.00068615024953" lon="13.452607747313266"><ele>144.0</ele><time>2026-04-30T13:40:16.999Z</time></trkpt><trkpt lat="38.00085195537662" lon="13.452790771204821"><ele>147.0</ele><time>2026-04-30T13:40:17.999Z</time></trkpt><trkpt lat="38.00102686947455" lon="13.452956082526828"><ele>150.0</ele><time>2026-04-30T13:40:18.999Z</time></trkpt><trkpt lat="38.00121512286287" lon="13.453098698068976"><ele>153.0</ele><time>2026-04-30T13:40:19.999Z</time></trkpt><trkpt lat="38.00141251405484" lon="13.45322363024728"><ele>153.0</ele><time>2026-04-30T13:40:20.999Z</time></trkpt><trkpt lat="38.00161908954824" lon="13.453342007923643"><ele>153.0</ele><time>2026-04-30T13:40:21.999Z</time></trkpt><trkpt lat="38.0018263634108" lon="13.453462074757255"><ele>146.5</ele><time>2026-04-30T13:40:22.999Z</time></trkpt><trkpt lat="38.00203383035767" lon="13.453582118184167"><ele>140.0</ele><time>2026-04-30T13:40:23.999Z</time></trkpt><trkpt lat="38.00224033574061" lon="13.453707912609724"><ele>140.0</ele><time>2026-04-30T13:40:24.999Z</time></trkpt><trkpt lat="38.002440857891976" lon="13.453845207898292"><ele>140.0</ele><time>2026-04-30T13:40:25.999Z</time></trkpt><trkpt lat="38.002641735893754" lon="13.453993613439385"><ele>140.0</ele><time>2026-04-30T13:40:26.999Z</time></trkpt><trkpt lat="38.00283793704739" lon="13.454147870445487"><ele>140.0</ele><time>2026-04-30T13:40:27.999Z</time></trkpt><trkpt lat="38.003038046225996" lon="13.454303137152916"><ele>140.0</ele><time>2026-04-30T13:40:28.999Z</time></trkpt><trkpt lat="38.00323775227793" lon="13.454457123862104"><ele>140.0</ele><time>2026-04-30T13:40:29.999Z</time></trkpt><trkpt lat="38.00343838244804" lon="13.454605706899187"><ele>134.0</ele><time>2026-04-30T13:40:30.999Z</time></trkpt><trkpt lat="38.00363199783536" lon="13.454764745288601"><ele>128.0</ele><time>2026-04-30T13:40:31.999Z</time></trkpt><trkpt lat="38.00382751196864" lon="13.45492232732352"><ele>128.0</ele><time>2026-04-30T13:40:32.999Z</time></trkpt><trkpt lat="38.00402221213583" lon="13.45507549101069"><ele>128.0</ele><time>2026-04-30T13:40:33.999Z</time></trkpt><trkpt lat="38.00421740155642" lon="13.455226959898686"><ele>126.0</ele><time>2026-04-30T13:40:34.999Z</time></trkpt><trkpt lat="38.00441057984919" lon="13.455378699310913"><ele>124.0</ele><time>2026-04-30T13:40:35.999Z</time></trkpt><trkpt lat="38.0046010502476" lon="13.455528506414652"><ele>124.0</ele><time>2026-04-30T13:40:36.999Z</time></trkpt><trkpt lat="38.004780921399494" lon="13.455671484179"><ele>124.0</ele><time>2026-04-30T13:40:37.999Z</time></trkpt><trkpt lat="38.00495293470642" lon="13.45580545891033"><ele>124.0</ele><time>2026-04-30T13:40:38.999Z</time></trkpt><trkpt lat="38.005119158723886" lon="13.455929242081748"><ele>123.0</ele><time>2026-04-30T13:40:39.999Z</time></trkpt><trkpt lat="38.00528379161458" lon="13.456046341496819"><ele>122.0</ele><time>2026-04-30T13:40:40.999Z</time></trkpt><trkpt lat="38.00545029723074" lon="13.456158626255608"><ele>121.0</ele><time>2026-04-30T13:40:41.999Z</time></trkpt><trkpt lat="38.005623185055214" lon="13.456249198204633"><ele>121.33333333333334</ele><time>2026-04-30T13:40:42.999Z</time></trkpt><trkpt lat="38.00580354827202" lon="13.456311424450167"><ele>121.66666666666666</ele><time>2026-04-30T13:40:43.999Z</time></trkpt><trkpt lat="38.00598583723435" lon="13.45635115400077"><ele>122.0</ele><time>2026-04-30T13:40:44.999Z</time></trkpt><trkpt lat="38.00617155875296" lon="13.456371357728942"><ele>122.0</ele><time>2026-04-30T13:40:45.999Z</time></trkpt><trkpt lat="38.00635580895532" lon="13.456380510708685"><ele>122.0</ele><time>2026-04-30T13:40:46.999Z</time></trkpt><trkpt lat="38.006539558966" lon="13.45635366397909"><ele>122.0</ele><time>2026-04-30T13:40:47.999Z</time></trkpt><trkpt lat="38.006723820120634" lon="13.456302472583367"><ele>120.66666666666666</ele><time>2026-04-30T13:40:48.999Z</time></trkpt><trkpt lat="38.00690966548993" lon="13.456230455225533"><ele>119.33333333333334</ele><time>2026-04-30T13:40:49.999Z</time></trkpt><trkpt lat="38.0070958815959" lon="13.456136669261417"><ele>118.0</ele><time>2026-04-30T13:40:50.999Z</time></trkpt><trkpt lat="38.00728304619737" lon="13.456034867822524"><ele>118.0</ele><time>2026-04-30T13:40:51.999Z</time></trkpt><trkpt lat="38.007477821487946" lon="13.455931319070297"><ele>118.0</ele><time>2026-04-30T13:40:52.999Z</time></trkpt><trkpt lat="38.00767657668593" lon="13.455831352003987"><ele>118.0</ele><time>2026-04-30T13:40:53.999Z</time></trkpt><trkpt lat="38.00787701009465" lon="13.455733836605706"><ele>117.66666666666667</ele><time>2026-04-30T13:40:54.999Z</time></trkpt><trkpt lat="38.00807223059799" lon="13.455630314932371"><ele>117.33333333333334</ele><time>2026-04-30T13:40:55.999Z</time></trkpt><trkpt lat="38.00826406264494" lon="13.455523521395156"><ele>117.0</ele><time>2026-04-30T13:40:56.999Z</time></trkpt><trkpt lat="38.00845744808483" lon="13.455424113671143"><ele>116.33333333333334</ele><time>2026-04-30T13:40:57.999Z</time></trkpt><trkpt lat="38.008650493665854" lon="13.455331662071343"><ele>115.66666666666667</ele><time>2026-04-30T13:40:58.999Z</time></trkpt><trkpt lat="38.00884338224076" lon="13.45523311258232"><ele>115.0</ele><time>2026-04-30T13:40:59.999Z</time></trkpt><trkpt lat="38.00903484596229" lon="13.455131847000782"><ele>114.33333333333334</ele><time>2026-04-30T13:41:00.999Z</time></trkpt><trkpt lat="38.00922686451342" lon="13.45503200472784"><ele>113.66666666666666</ele><time>2026-04-30T13:41:01.999Z</time></trkpt><trkpt lat="38.00941704538442" lon="13.454934784842218"><ele>113.0</ele><time>2026-04-30T13:41:02.999Z</time></trkpt><trkpt lat="38.0096080014587" lon="13.454833311982402"><ele>113.0</ele><time>2026-04-30T13:41:03.999Z</time></trkpt><trkpt lat="38.00979802573273" lon="13.454730474361329"><ele>113.0</ele><time>2026-04-30T13:41:04.999Z</time></trkpt><trkpt lat="38.00999062345708" lon="13.454631108648472"><ele>113.0</ele><time>2026-04-30T13:41:05.999Z</time></trkpt><trkpt lat="38.01018020019826" lon="13.454528185623742"><ele>113.0</ele><time>2026-04-30T13:41:06.999Z</time></trkpt><trkpt lat="38.010374684680976" lon="13.454426813569944"><ele>113.0</ele><time>2026-04-30T13:41:07.999Z</time></trkpt><trkpt lat="38.01056568039751" lon="13.454327304487268"><ele>113.0</ele><time>2026-04-30T13:41:08.999Z</time></trkpt><trkpt lat="38.01076014079204" lon="13.454228480276452"><ele>112.0</ele><time>2026-04-30T13:41:09.999Z</time></trkpt><trkpt lat="38.01095575395552" lon="13.454128609490718"><ele>111.0</ele><time>2026-04-30T13:41:10.999Z</time></trkpt><trkpt lat="38.011154984355606" lon="13.454025531023795"><ele>110.0</ele><time>2026-04-30T13:41:11.999Z</time></trkpt><trkpt lat="38.01135605526822" lon="13.453922660128736"><ele>110.0</ele><time>2026-04-30T13:41:12.999Z</time></trkpt><trkpt lat="38.011559702858676" lon="13.453817587838902"><ele>110.0</ele><time>2026-04-30T13:41:13.999Z</time></trkpt><trkpt lat="38.01176170832683" lon="13.453711592793946"><ele>110.0</ele><time>2026-04-30T13:41:14.999Z</time></trkpt><trkpt lat="38.01196289234781" lon="13.453606123282835"><ele>111.0</ele><time>2026-04-30T13:41:15.999Z</time></trkpt><trkpt lat="38.0121608848028" lon="13.453504386336723"><ele>112.0</ele><time>2026-04-30T13:41:16.999Z</time></trkpt><trkpt lat="38.01235625452979" lon="13.453403251609254"><ele>113.0</ele><time>2026-04-30T13:41:17.999Z</time></trkpt><trkpt lat="38.012548573756796" lon="13.453310341598497"><ele>113.33333333333333</ele><time>2026-04-30T13:41:18.999Z</time></trkpt><trkpt lat="38.01274029496057" lon="13.45323712937684"><ele>113.66666666666666</ele><time>2026-04-30T13:41:19.999Z</time></trkpt><trkpt lat="38.012935897220494" lon="13.453193671543021"><ele>114.0</ele><time>2026-04-30T13:41:20.999Z</time></trkpt><trkpt lat="38.01313103605529" lon="13.453182791800502"><ele>114.0</ele><time>2026-04-30T13:41:21.999Z</time></trkpt><trkpt lat="38.013321209428156" lon="13.453209072413484"><ele>114.0</ele><time>2026-04-30T13:41:22.999Z</time></trkpt><trkpt lat="38.013510386691685" lon="13.453263821010905"><ele>114.0</ele><time>2026-04-30T13:41:23.999Z</time></trkpt><trkpt lat="38.013696049200306" lon="13.453328605666664"><ele>113.33333333333334</ele><time>2026-04-30T13:41:24.999Z</time></trkpt><trkpt lat="38.013887108917636" lon="13.453387319928655"><ele>112.66666666666667</ele><time>2026-04-30T13:41:25.999Z</time></trkpt><trkpt lat="38.01407848413861" lon="13.45344265371273"><ele>112.0</ele><time>2026-04-30T13:41:26.999Z</time></trkpt><trkpt lat="38.01427005929637" lon="13.453498035024545"><ele>111.66666666666667</ele><time>2026-04-30T13:41:28Z</time></trkpt><trkpt lat="38.014460460523225" lon="13.453555737708072"><ele>111.33333333333334</ele><time>2026-04-30T13:41:29Z</time></trkpt><trkpt lat="38.014652116117986" lon="13.453612113996224"><ele>111.0</ele><time>2026-04-30T13:41:30Z</time></trkpt><trkpt lat="38.014844464177585" lon="13.453666495844073"><ele>110.66666666666666</ele><time>2026-04-30T13:41:31Z</time></trkpt><trkpt lat="38.015033333491964" lon="13.45372084879746"><ele>110.33333333333333</ele><time>2026-04-30T13:41:32Z</time></trkpt><trkpt lat="38.01521930473478" lon="13.453775154199855"><ele>110.0</ele><time>2026-04-30T13:41:33Z</time></trkpt><trkpt lat="38.01540482586248" lon="13.45383376909989"><ele>109.33333333333333</ele><time>2026-04-30T13:41:34Z</time></trkpt><trkpt lat="38.0155896620028" lon="13.4538917530021"><ele>108.66666666666666</ele><time>2026-04-30T13:41:35Z</time></trkpt><trkpt lat="38.015772591425126" lon="13.453946545721054"><ele>108.0</ele><time>2026-04-30T13:41:36Z</time></trkpt><trkpt lat="38.01595593646743" lon="13.453998884117084"><ele>107.66666666666666</ele><time>2026-04-30T13:41:37Z</time></trkpt><trkpt lat="38.01614188348407" lon="13.454052310439682"><ele>107.33333333333333</ele><time>2026-04-30T13:41:38Z</time></trkpt><trkpt lat="38.0163292378787" lon="13.45411117391488"><ele>107.0</ele><time>2026-04-30T13:41:39Z</time></trkpt><trkpt lat="38.01651581777582" lon="13.454169169416502"><ele>107.0</ele><time>2026-04-30T13:41:40Z</time></trkpt><trkpt lat="38.01670316010594" lon="13.454225875409312"><ele>107.0</ele><time>2026-04-30T13:41:41Z</time></trkpt><trkpt lat="38.01689033270271" lon="13.454279154483645"><ele>107.0</ele><time>2026-04-30T13:41:42Z</time></trkpt><trkpt lat="38.01708050252242" lon="13.45433595970139"><ele>107.0</ele><time>2026-04-30T13:41:43Z</time></trkpt><trkpt lat="38.01727338729994" lon="13.454398176025535"><ele>107.0</ele><time>2026-04-30T13:41:44Z</time></trkpt><trkpt lat="38.01746912793227" lon="13.454460964350064"><ele>107.0</ele><time>2026-04-30T13:41:45Z</time></trkpt><trkpt lat="38.017664018051846" lon="13.454520214347587"><ele>106.66666666666666</ele><time>2026-04-30T13:41:46Z</time></trkpt><trkpt lat="38.01786138898833" lon="13.454579261743966"><ele>106.33333333333334</ele><time>2026-04-30T13:41:47Z</time></trkpt><trkpt lat="38.01806210855478" lon="13.45463743289071"><ele>106.0</ele><time>2026-04-30T13:41:48Z</time></trkpt><trkpt lat="38.01826369675511" lon="13.454691384073405"><ele>104.33333333333334</ele><time>2026-04-30T13:41:49Z</time></trkpt><trkpt lat="38.01846405473458" lon="13.454741955057347"><ele>102.66666666666666</ele><time>2026-04-30T13:41:50Z</time></trkpt><trkpt lat="38.01866622656266" lon="13.45478635943945"><ele>101.0</ele><time>2026-04-30T13:41:51Z</time></trkpt><trkpt lat="38.018870776215174" lon="13.454826485176435"><ele>101.0</ele><time>2026-04-30T13:41:52Z</time></trkpt><trkpt lat="38.0190754457846" lon="13.45486328902978"><ele>101.0</ele><time>2026-04-30T13:41:53Z</time></trkpt><trkpt lat="38.019281072167395" lon="13.454895465683885"><ele>101.0</ele><time>2026-04-30T13:41:54Z</time></trkpt><trkpt lat="38.01948686260898" lon="13.454930054550964"><ele>101.33333333333333</ele><time>2026-04-30T13:41:55Z</time></trkpt><trkpt lat="38.01969360954845" lon="13.454969372448414"><ele>101.66666666666666</ele><time>2026-04-30T13:41:56Z</time></trkpt><trkpt lat="38.019899040326585" lon="13.455008023778623"><ele>102.0</ele><time>2026-04-30T13:41:57Z</time></trkpt><trkpt lat="38.02010525158423" lon="13.455046033991277"><ele>102.66666666666666</ele><time>2026-04-30T13:41:58Z</time></trkpt><trkpt lat="38.020309768416894" lon="13.455082962928843"><ele>103.33333333333333</ele><time>2026-04-30T13:41:59Z</time></trkpt><trkpt lat="38.02051354247537" lon="13.45511736096733"><ele>104.0</ele><time>2026-04-30T13:42:00Z</time></trkpt><trkpt lat="38.0207050445038" lon="13.455148608715156"><ele>104.33333333333333</ele><time>2026-04-30T13:42:01Z</time></trkpt><trkpt lat="38.02088791930437" lon="13.455177198494782"><ele>104.66666666666666</ele><time>2026-04-30T13:42:01.999Z</time></trkpt><trkpt lat="38.02107582046487" lon="13.455203710861175"><ele>105.0</ele><time>2026-04-30T13:42:02.999Z</time></trkpt><trkpt lat="38.021268141911854" lon="13.455227342048154"><ele>105.0</ele><time>2026-04-30T13:42:03.999Z</time></trkpt><trkpt lat="38.02146286865278" lon="13.455252472365821"><ele>105.0</ele><time>2026-04-30T13:42:04.999Z</time></trkpt><trkpt lat="38.02166049223994" lon="13.455282588380282"><ele>105.0</ele><time>2026-04-30T13:42:05.999Z</time></trkpt><trkpt lat="38.02185909349556" lon="13.455315387837777"><ele>106.33333333333334</ele><time>2026-04-30T13:42:06.999Z</time></trkpt><trkpt lat="38.02205860598238" lon="13.455349099070109"><ele>107.66666666666667</ele><time>2026-04-30T13:42:07.999Z</time></trkpt><trkpt lat="38.022259792971134" lon="13.455383574327778"><ele>109.0</ele><time>2026-04-30T13:42:08.999Z</time></trkpt><trkpt lat="38.022463753410044" lon="13.455417305112062"><ele>109.0</ele><time>2026-04-30T13:42:09.999Z</time></trkpt><trkpt lat="38.022670905955266" lon="13.455449929059796"><ele>109.0</ele><time>2026-04-30T13:42:10.999Z</time></trkpt><trkpt lat="38.022882329381844" lon="13.455474253281093"><ele>109.0</ele><time>2026-04-30T13:42:11.999Z</time></trkpt><trkpt lat="38.02309742068376" lon="13.455483925070293"><ele>107.0</ele><time>2026-04-30T13:42:12.999Z</time></trkpt><trkpt lat="38.02331658188754" lon="13.455476605053546"><ele>105.0</ele><time>2026-04-30T13:42:13.999Z</time></trkpt><trkpt lat="38.023538093168746" lon="13.455463090832456"><ele>103.0</ele><time>2026-04-30T13:42:14.999Z</time></trkpt><trkpt lat="38.02375595849026" lon="13.455447553019303"><ele>103.0</ele><time>2026-04-30T13:42:15.999Z</time></trkpt><trkpt lat="38.02395619617949" lon="13.455431065559704"><ele>103.0</ele><time>2026-04-30T13:42:16.999Z</time></trkpt><trkpt lat="38.02414541936474" lon="13.455414710736315"><ele>103.0</ele><time>2026-04-30T13:42:17.999Z</time></trkpt><trkpt lat="38.02432478730845" lon="13.455396377278733"><ele>104.0</ele><time>2026-04-30T13:42:18.999Z</time></trkpt><trkpt lat="38.02449650722598" lon="13.455383173895264"><ele>105.0</ele><time>2026-04-30T13:42:19.999Z</time></trkpt><trkpt lat="38.02466718463539" lon="13.455371025135557"><ele>106.0</ele><time>2026-04-30T13:42:20.999Z</time></trkpt><trkpt lat="38.024837534977166" lon="13.455356310751656"><ele>106.33333333333334</ele><time>2026-04-30T13:42:21.999Z</time></trkpt><trkpt lat="38.02500855009306" lon="13.45533666934501"><ele>106.66666666666666</ele><time>2026-04-30T13:42:22.999Z</time></trkpt><trkpt lat="38.0251787596675" lon="13.455315744298453"><ele>107.0</ele><time>2026-04-30T13:42:23.999Z</time></trkpt><trkpt lat="38.02534856827274" lon="13.455298623585255"><ele>107.0</ele><time>2026-04-30T13:42:24.999Z</time></trkpt><trkpt lat="38.02552194034947" lon="13.455282186682508"><ele>107.0</ele><time>2026-04-30T13:42:25.999Z</time></trkpt><trkpt lat="38.02569656062367" lon="13.455263715036155"><ele>107.0</ele><time>2026-04-30T13:42:26.999Z</time></trkpt><trkpt lat="38.025876011747464" lon="13.455239257107117"><ele>107.0</ele><time>2026-04-30T13:42:27.999Z</time></trkpt><trkpt lat="38.02606620659389" lon="13.455216630810853"><ele>107.0</ele><time>2026-04-30T13:42:28.999Z</time></trkpt><trkpt lat="38.026260805383686" lon="13.455199503274303"><ele>107.0</ele><time>2026-04-30T13:42:29.999Z</time></trkpt><trkpt lat="38.026448262095485" lon="13.455187070684957"><ele>107.0</ele><time>2026-04-30T13:42:30.999Z</time></trkpt><trkpt lat="38.02662305474828" lon="13.455174132236419"><ele>107.0</ele><time>2026-04-30T13:42:31.999Z</time></trkpt><trkpt lat="38.026791550993316" lon="13.455163789042855"><ele>107.0</ele><time>2026-04-30T13:42:32.999Z</time></trkpt><trkpt lat="38.02695941207488" lon="13.455150308583091"><ele>107.33333333333333</ele><time>2026-04-30T13:42:33.999Z</time></trkpt><trkpt lat="38.02712876146934" lon="13.455144856642091"><ele>107.66666666666666</ele><time>2026-04-30T13:42:34.999Z</time></trkpt><trkpt lat="38.0272959616989" lon="13.455153055985964"><ele>108.0</ele><time>2026-04-30T13:42:35.999Z</time></trkpt><trkpt lat="38.02746943808709" lon="13.455168755556329"><ele>108.66666666666666</ele><time>2026-04-30T13:42:36.999Z</time></trkpt><trkpt lat="38.027652050897096" lon="13.455195854954543"><ele>109.33333333333333</ele><time>2026-04-30T13:42:37.999Z</time></trkpt><trkpt lat="38.027836344151005" lon="13.45524302938402"><ele>110.0</ele><time>2026-04-30T13:42:38.999Z</time></trkpt><trkpt lat="38.02801931392396" lon="13.455302566262597"><ele>110.0</ele><time>2026-04-30T13:42:39.999Z</time></trkpt><trkpt lat="38.02818810860127" lon="13.45536494370765"><ele>110.0</ele><time>2026-04-30T13:42:40.999Z</time></trkpt><trkpt lat="38.02835069452552" lon="13.455434744318472"><ele>110.0</ele><time>2026-04-30T13:42:41.999Z</time></trkpt><trkpt lat="38.0285110462216" lon="13.455510766766277"><ele>108.66666666666666</ele><time>2026-04-30T13:42:42.999Z</time></trkpt><trkpt lat="38.028667138476564" lon="13.455590413391072"><ele>107.33333333333334</ele><time>2026-04-30T13:42:43.999Z</time></trkpt><trkpt lat="38.02881939944474" lon="13.45567806316342"><ele>106.0</ele><time>2026-04-30T13:42:44.999Z</time></trkpt><trkpt lat="38.028971274493216" lon="13.455766346026266"><ele>106.0</ele><time>2026-04-30T13:42:45.999Z</time></trkpt><trkpt lat="38.029127623247106" lon="13.455849301491659"><ele>106.0</ele><time>2026-04-30T13:42:46.999Z</time></trkpt><trkpt lat="38.029280330557796" lon="13.455930073204291"><ele>106.0</ele><time>2026-04-30T13:42:47.999Z</time></trkpt><trkpt lat="38.02942515872628" lon="13.456005697354794"><ele>106.0</ele><time>2026-04-30T13:42:48.999Z</time></trkpt><trkpt lat="38.0295622925059" lon="13.456081424092213"><ele>106.0</ele><time>2026-04-30T13:42:49.999Z</time></trkpt><trkpt lat="38.0296934335341" lon="13.456152921042172"><ele>106.0</ele><time>2026-04-30T13:42:50.999Z</time></trkpt><trkpt lat="38.029817305169075" lon="13.456217117047311"><ele>106.0</ele><time>2026-04-30T13:42:51.999Z</time></trkpt><trkpt lat="38.02992900184437" lon="13.456276818940736"><ele>105.4</ele><time>2026-04-30T13:42:52.999Z</time></trkpt><trkpt lat="38.030037067023656" lon="13.456332402784776"><ele>104.8</ele><time>2026-04-30T13:42:53.999Z</time></trkpt><trkpt lat="38.03013876074444" lon="13.456392196753194"><ele>104.2</ele><time>2026-04-30T13:42:54.999Z</time></trkpt><trkpt lat="38.03023530287053" lon="13.456445091754798"><ele>103.60000000000001</ele><time>2026-04-30T13:42:55.999Z</time></trkpt><trkpt lat="38.03033077383794" lon="13.456491362538484"><ele>103.0</ele><time>2026-04-30T13:42:56.999Z</time></trkpt><trkpt lat="38.03043003195607" lon="13.456540402446047"><ele>103.0</ele><time>2026-04-30T13:42:57.999Z</time></trkpt><trkpt lat="38.03052827863517" lon="13.456595121379541"><ele>103.0</ele><time>2026-04-30T13:42:58.999Z</time></trkpt><trkpt lat="38.03062228667302" lon="13.456647681640105"><ele>103.0</ele><time>2026-04-30T13:42:59.999Z</time></trkpt><trkpt lat="38.030712226510246" lon="13.456694292861567"><ele>103.0</ele><time>2026-04-30T13:43:00.999Z</time></trkpt><trkpt lat="38.03079108150935" lon="13.45673401280602"><ele>103.0</ele><time>2026-04-30T13:43:01.999Z</time></trkpt><trkpt lat="38.03086427509419" lon="13.456773640785261"><ele>102.66666666666667</ele><time>2026-04-30T13:43:02.999Z</time></trkpt><trkpt lat="38.030937077035205" lon="13.456811233450235"><ele>102.33333333333334</ele><time>2026-04-30T13:43:03.999Z</time></trkpt><trkpt lat="38.03100390363861" lon="13.456847633463285"><ele>102.0</ele><time>2026-04-30T13:43:04.999Z</time></trkpt><trkpt lat="38.03107082956546" lon="13.456882028449986"><ele>101.66666666666666</ele><time>2026-04-30T13:43:05.999Z</time></trkpt><trkpt lat="38.03114708259879" lon="13.4569212012821"><ele>101.33333333333333</ele><time>2026-04-30T13:43:06.999Z</time></trkpt><trkpt lat="38.031225606354646" lon="13.456961501693307"><ele>101.0</ele><time>2026-04-30T13:43:07.999Z</time></trkpt><trkpt lat="38.03130501806478" lon="13.457009470816937"><ele>101.0</ele><time>2026-04-30T13:43:08.999Z</time></trkpt><trkpt lat="38.031391642011485" lon="13.45705428243642"><ele>101.0</ele><time>2026-04-30T13:43:09.999Z</time></trkpt><trkpt lat="38.031477021107456" lon="13.457099683143326"><ele>101.0</ele><time>2026-04-30T13:43:10.999Z</time></trkpt><trkpt lat="38.03156292545215" lon="13.457142481736762"><ele>101.0</ele><time>2026-04-30T13:43:11.999Z</time></trkpt><trkpt lat="38.031646991563555" lon="13.457183135923101"><ele>101.0</ele><time>2026-04-30T13:43:12.999Z</time></trkpt><trkpt lat="38.031731293506226" lon="13.45722434151277"><ele>101.4</ele><time>2026-04-30T13:43:13.999Z</time></trkpt><trkpt lat="38.0318113996358" lon="13.457261904576212"><ele>101.8</ele><time>2026-04-30T13:43:14.999Z</time></trkpt><trkpt lat="38.03189215391034" lon="13.457300913728451"><ele>102.2</ele><time>2026-04-30T13:43:15.999Z</time></trkpt><trkpt lat="38.03198450346648" lon="13.457347101767782"><ele>102.60000000000001</ele><time>2026-04-30T13:43:16.999Z</time></trkpt><trkpt lat="38.03208332619486" lon="13.457394683875156"><ele>103.0</ele><time>2026-04-30T13:43:17.999Z</time></trkpt><trkpt lat="38.03218529357408" lon="13.457442459808972"><ele>103.0</ele><time>2026-04-30T13:43:18.999Z</time></trkpt><trkpt lat="38.0322996669679" lon="13.457499280916924"><ele>103.0</ele><time>2026-04-30T13:43:19.999Z</time></trkpt><trkpt lat="38.03242032010944" lon="13.457556794141729"><ele>103.0</ele><time>2026-04-30T13:43:20.999Z</time></trkpt><trkpt lat="38.03254375570301" lon="13.457615686889236"><ele>103.0</ele><time>2026-04-30T13:43:21.999Z</time></trkpt><trkpt lat="38.0326579075097" lon="13.457676987986087"><ele>103.25</ele><time>2026-04-30T13:43:22.999Z</time></trkpt><trkpt lat="38.03276574525128" lon="13.457731834740633"><ele>103.5</ele><time>2026-04-30T13:43:23.999Z</time></trkpt><trkpt lat="38.03287618841021" lon="13.457788910822288"><ele>103.75</ele><time>2026-04-30T13:43:24.999Z</time></trkpt><trkpt lat="38.03299025158828" lon="13.457853215889347"><ele>104.0</ele><time>2026-04-30T13:43:25.999Z</time></trkpt><trkpt lat="38.03311044668551" lon="13.45792051247709"><ele>103.75</ele><time>2026-04-30T13:43:26.999Z</time></trkpt><trkpt lat="38.033226576056755" lon="13.457986517758203"><ele>103.5</ele><time>2026-04-30T13:43:27.999Z</time></trkpt><trkpt lat="38.03334742362193" lon="13.45805014775658"><ele>103.25</ele><time>2026-04-30T13:43:28.999Z</time></trkpt><trkpt lat="38.03347416928267" lon="13.458111870628846"><ele>103.0</ele><time>2026-04-30T13:43:29.999Z</time></trkpt><trkpt lat="38.033611703956474" lon="13.45817378731739"><ele>103.0</ele><time>2026-04-30T13:43:30.999Z</time></trkpt><trkpt lat="38.03376823852208" lon="13.458249803759397"><ele>103.0</ele><time>2026-04-30T13:43:31.999Z</time></trkpt><trkpt lat="38.033931535894844" lon="13.458327005036175"><ele>103.0</ele><time>2026-04-30T13:43:32.999Z</time></trkpt><trkpt lat="38.034096689345496" lon="13.458409170948023"><ele>104.0</ele><time>2026-04-30T13:43:34Z</time></trkpt><trkpt lat="38.03425475557829" lon="13.458483827103413"><ele>105.0</ele><time>2026-04-30T13:43:35Z</time></trkpt><trkpt lat="38.0343986318031" lon="13.458557534507596"><ele>106.0</ele><time>2026-04-30T13:43:36Z</time></trkpt><trkpt lat="38.03453016927536" lon="13.458626971149899"><ele>106.0</ele><time>2026-04-30T13:43:37Z</time></trkpt><trkpt lat="38.034655098165" lon="13.458687370116008"><ele>106.0</ele><time>2026-04-30T13:43:38Z</time></trkpt><trkpt lat="38.03477727975301" lon="13.458747136897218"><ele>106.0</ele><time>2026-04-30T13:43:39Z</time></trkpt><trkpt lat="38.03490253800013" lon="13.458810948724272"><ele>106.0</ele><time>2026-04-30T13:43:40Z</time></trkpt><trkpt lat="38.035027595127616" lon="13.458875367505371"><ele>105.0</ele><time>2026-04-30T13:43:41Z</time></trkpt><trkpt lat="38.035149276139094" lon="13.458935098835678"><ele>104.0</ele><time>2026-04-30T13:43:42Z</time></trkpt><trkpt lat="38.035267040286" lon="13.458992086536306"><ele>103.0</ele><time>2026-04-30T13:43:43Z</time></trkpt><trkpt lat="38.03538974633771" lon="13.459057523274007"><ele>102.0</ele><time>2026-04-30T13:43:44Z</time></trkpt><trkpt lat="38.035522673420225" lon="13.459120925387461"><ele>102.0</ele><time>2026-04-30T13:43:45Z</time></trkpt><trkpt lat="38.03568806828197" lon="13.459191152394503"><ele>102.0</ele><time>2026-04-30T13:43:46Z</time></trkpt><trkpt lat="38.03588499574044" lon="13.45928070914827"><ele>102.0</ele><time>2026-04-30T13:43:47Z</time></trkpt><trkpt lat="38.03611242606109" lon="13.45939853062817"><ele>102.0</ele><time>2026-04-30T13:43:48Z</time></trkpt><trkpt lat="38.03634875436093" lon="13.459533165057906"><ele>102.0</ele><time>2026-04-30T13:43:49Z</time></trkpt><trkpt lat="38.03655727972414" lon="13.459650322768372"><ele>104.0</ele><time>2026-04-30T13:43:50Z</time></trkpt><trkpt lat="38.03674499484054" lon="13.459745780899507"><ele>106.0</ele><time>2026-04-30T13:43:51Z</time></trkpt><trkpt lat="38.03691937879222" lon="13.459824468289543"><ele>108.0</ele><time>2026-04-30T13:43:52Z</time></trkpt><trkpt lat="38.037080441226465" lon="13.459902169735368"><ele>108.0</ele><time>2026-04-30T13:43:53Z</time></trkpt><trkpt lat="38.03723008616164" lon="13.459975754867163"><ele>108.0</ele><time>2026-04-30T13:43:54Z</time></trkpt><trkpt lat="38.03737278058293" lon="13.460050243048975"><ele>108.0</ele><time>2026-04-30T13:43:55Z</time></trkpt><trkpt lat="38.03750573804046" lon="13.460113202058048"><ele>109.0</ele><time>2026-04-30T13:43:56Z</time></trkpt><trkpt lat="38.03763844652758" lon="13.46017840099748"><ele>110.0</ele><time>2026-04-30T13:43:57Z</time></trkpt><trkpt lat="38.0377768227724" lon="13.460246341741362"><ele>111.0</ele><time>2026-04-30T13:43:58Z</time></trkpt><trkpt lat="38.03791041122008" lon="13.460313307841139"><ele>112.0</ele><time>2026-04-30T13:43:59Z</time></trkpt><trkpt lat="38.03804023625616" lon="13.460374540329171"><ele>112.0</ele><time>2026-04-30T13:44:00Z</time></trkpt><trkpt lat="38.038183914362584" lon="13.46044357990373"><ele>112.0</ele><time>2026-04-30T13:44:01Z</time></trkpt><trkpt lat="38.03833688500626" lon="13.460521824579594"><ele>112.0</ele><time>2026-04-30T13:44:02Z</time></trkpt><trkpt lat="38.03847162299482" lon="13.46059797988394"><ele>110.66666666666667</ele><time>2026-04-30T13:44:03Z</time></trkpt><trkpt lat="38.03860999636191" lon="13.46067068579773"><ele>109.33333333333334</ele><time>2026-04-30T13:44:04Z</time></trkpt><trkpt lat="38.03877525030314" lon="13.460747475521847"><ele>108.0</ele><time>2026-04-30T13:44:05Z</time></trkpt><trkpt lat="38.038950445837266" lon="13.460840020542944"><ele>109.66666666666666</ele><time>2026-04-30T13:44:05.999Z</time></trkpt><trkpt lat="38.03913782628743" lon="13.460932367227906"><ele>111.33333333333333</ele><time>2026-04-30T13:44:06.999Z</time></trkpt><trkpt lat="38.039320877498156" lon="13.461004200376172"><ele>113.0</ele><time>2026-04-30T13:44:07.999Z</time></trkpt><trkpt lat="38.03951094280487" lon="13.461062724378147"><ele>113.0</ele><time>2026-04-30T13:44:08.999Z</time></trkpt><trkpt lat="38.03970098684631" lon="13.461099147218405"><ele>113.0</ele><time>2026-04-30T13:44:09.999Z</time></trkpt><trkpt lat="38.039896355697635" lon="13.461110933704088"><ele>113.0</ele><time>2026-04-30T13:44:10.999Z</time></trkpt><trkpt lat="38.040087991279464" lon="13.461107753339851"><ele>113.66666666666666</ele><time>2026-04-30T13:44:11.999Z</time></trkpt><trkpt lat="38.04027261344817" lon="13.461084549731922"><ele>114.33333333333334</ele><time>2026-04-30T13:44:12.999Z</time></trkpt><trkpt lat="38.0404446121459" lon="13.46105534421995"><ele>115.0</ele><time>2026-04-30T13:44:13.999Z</time></trkpt><trkpt lat="38.04060569711621" lon="13.461030986810588"><ele>115.0</ele><time>2026-04-30T13:44:14.999Z</time></trkpt><trkpt lat="38.04076729515937" lon="13.461006638351243"><ele>115.0</ele><time>2026-04-30T13:44:15.999Z</time></trkpt><trkpt lat="38.040953828691855" lon="13.46097639407144"><ele>115.0</ele><time>2026-04-30T13:44:16.999Z</time></trkpt><trkpt lat="38.04115053502154" lon="13.460955637102852"><ele>116.33333333333334</ele><time>2026-04-30T13:44:17.999Z</time></trkpt><trkpt lat="38.04136719287167" lon="13.460926982324672"><ele>117.66666666666666</ele><time>2026-04-30T13:44:18.999Z</time></trkpt><trkpt lat="38.04159523617538" lon="13.4608955854547"><ele>119.0</ele><time>2026-04-30T13:44:19.999Z</time></trkpt><trkpt lat="38.04181266129732" lon="13.460864577034183"><ele>119.66666666666666</ele><time>2026-04-30T13:44:20.999Z</time></trkpt><trkpt lat="38.04201519305322" lon="13.460832161198494"><ele>120.33333333333334</ele><time>2026-04-30T13:44:21.999Z</time></trkpt><trkpt lat="38.04221504865852" lon="13.460802427305014"><ele>121.0</ele><time>2026-04-30T13:44:22.999Z</time></trkpt><trkpt lat="38.04241937972301" lon="13.460774555562915"><ele>120.0</ele><time>2026-04-30T13:44:23.999Z</time></trkpt><trkpt lat="38.04263076167348" lon="13.460744024457371"><ele>119.0</ele><time>2026-04-30T13:44:24.999Z</time></trkpt><trkpt lat="38.042848097889014" lon="13.460713856289209"><ele>118.0</ele><time>2026-04-30T13:44:25.999Z</time></trkpt><trkpt lat="38.04307193990325" lon="13.46068792845474"><ele>118.0</ele><time>2026-04-30T13:44:26.999Z</time></trkpt><trkpt lat="38.043295813050506" lon="13.460661077021879"><ele>118.0</ele><time>2026-04-30T13:44:27.999Z</time></trkpt><trkpt lat="38.04351860561978" lon="13.460630896486396"><ele>118.0</ele><time>2026-04-30T13:44:28.999Z</time></trkpt><trkpt lat="38.04373805060364" lon="13.460606442326412"><ele>117.66666666666667</ele><time>2026-04-30T13:44:29.999Z</time></trkpt><trkpt lat="38.04395541448314" lon="13.460579461138165"><ele>117.33333333333334</ele><time>2026-04-30T13:44:30.999Z</time></trkpt><trkpt lat="38.04417019525932" lon="13.460548048862233"><ele>117.0</ele><time>2026-04-30T13:44:31.999Z</time></trkpt><trkpt lat="38.04438837804594" lon="13.460517623141016"><ele>117.0</ele><time>2026-04-30T13:44:32.999Z</time></trkpt><trkpt lat="38.04459305666974" lon="13.460494027556829"><ele>117.0</ele><time>2026-04-30T13:44:33.999Z</time></trkpt><trkpt lat="38.04479245524925" lon="13.460466567803484"><ele>117.0</ele><time>2026-04-30T13:44:34.999Z</time></trkpt><trkpt lat="38.044992233366685" lon="13.460437775562662"><ele>122.33333333333334</ele><time>2026-04-30T13:44:35.999Z</time></trkpt><trkpt lat="38.04519295070468" lon="13.460410923173832"><ele>127.66666666666667</ele><time>2026-04-30T13:44:36.999Z</time></trkpt><trkpt lat="38.04539207812369" lon="13.460386107894594"><ele>133.0</ele><time>2026-04-30T13:44:37.999Z</time></trkpt><trkpt lat="38.04559156830492" lon="13.46036096241216"><ele>133.0</ele><time>2026-04-30T13:44:38.999Z</time></trkpt><trkpt lat="38.045792468258256" lon="13.460332696853117"><ele>133.0</ele><time>2026-04-30T13:44:39.999Z</time></trkpt><trkpt lat="38.045991860688616" lon="13.460305543684218"><ele>133.0</ele><time>2026-04-30T13:44:40.999Z</time></trkpt><trkpt lat="38.046187455257645" lon="13.460281593212647"><ele>134.33333333333334</ele><time>2026-04-30T13:44:41.999Z</time></trkpt><trkpt lat="38.046376799424294" lon="13.46026017902183"><ele>135.66666666666666</ele><time>2026-04-30T13:44:42.999Z</time></trkpt><trkpt lat="38.04657000948103" lon="13.460247927843351"><ele>137.0</ele><time>2026-04-30T13:44:43.999Z</time></trkpt><trkpt lat="38.04676299528345" lon="13.460246541176442"><ele>139.0</ele><time>2026-04-30T13:44:44.999Z</time></trkpt><trkpt lat="38.04695492034433" lon="13.460255553019165"><ele>141.0</ele><time>2026-04-30T13:44:45.999Z</time></trkpt><trkpt lat="38.04714326913826" lon="13.460272624365768"><ele>143.0</ele><time>2026-04-30T13:44:46.999Z</time></trkpt><trkpt lat="38.0473307048129" lon="13.460301196416928"><ele>141.0</ele><time>2026-04-30T13:44:47.999Z</time></trkpt><trkpt lat="38.047517257592844" lon="13.460342497344731"><ele>139.0</ele><time>2026-04-30T13:44:48.999Z</time></trkpt><trkpt lat="38.0477055641041" lon="13.46039375169894"><ele>137.0</ele><time>2026-04-30T13:44:49.999Z</time></trkpt><trkpt lat="38.04788930314562" lon="13.460451094221037"><ele>133.33333333333331</ele><time>2026-04-30T13:44:50.999Z</time></trkpt><trkpt lat="38.04807387154479" lon="13.460507772168176"><ele>129.66666666666666</ele><time>2026-04-30T13:44:51.999Z</time></trkpt><trkpt lat="38.04826045789902" lon="13.460567736031933"><ele>126.0</ele><time>2026-04-30T13:44:52.999Z</time></trkpt><trkpt lat="38.04845243508837" lon="13.460637484958733"><ele>124.66666666666666</ele><time>2026-04-30T13:44:53.999Z</time></trkpt><trkpt lat="38.04865022509366" lon="13.4607232503609"><ele>123.33333333333333</ele><time>2026-04-30T13:44:54.999Z</time></trkpt><trkpt lat="38.04885991444713" lon="13.460823182704914"><ele>122.0</ele><time>2026-04-30T13:44:55.999Z</time></trkpt><trkpt lat="38.049079229633236" lon="13.460921824503735"><ele>124.5</ele><time>2026-04-30T13:44:56.999Z</time></trkpt><trkpt lat="38.04929458463792" lon="13.461024459293169"><ele>127.0</ele><time>2026-04-30T13:44:57.999Z</time></trkpt><trkpt lat="38.049505545875434" lon="13.461125947656772"><ele>127.0</ele><time>2026-04-30T13:44:58.999Z</time></trkpt><trkpt lat="38.04971370164562" lon="13.461217937002404"><ele>127.0</ele><time>2026-04-30T13:44:59.999Z</time></trkpt><trkpt lat="38.04992846390356" lon="13.461297646102242"><ele>127.0</ele><time>2026-04-30T13:45:00.999Z</time></trkpt><trkpt lat="38.050145857752305" lon="13.461368246890595"><ele>124.66666666666667</ele><time>2026-04-30T13:45:01.999Z</time></trkpt><trkpt lat="38.05036087370458" lon="13.461431983689105"><ele>122.33333333333334</ele><time>2026-04-30T13:45:02.999Z</time></trkpt><trkpt lat="38.05057537203119" lon="13.461480442668762"><ele>120.0</ele><time>2026-04-30T13:45:03.999Z</time></trkpt><trkpt lat="38.05078452881964" lon="13.461511168271679"><ele>121.66666666666666</ele><time>2026-04-30T13:45:04.999Z</time></trkpt><trkpt lat="38.05099039749844" lon="13.461533882641062"><ele>123.33333333333333</ele><time>2026-04-30T13:45:05.999Z</time></trkpt><trkpt lat="38.051195582381524" lon="13.461557818852466"><ele>125.0</ele><time>2026-04-30T13:45:06.999Z</time></trkpt><trkpt lat="38.051400803790536" lon="13.461582758420302"><ele>125.0</ele><time>2026-04-30T13:45:07.999Z</time></trkpt><trkpt lat="38.05160756722617" lon="13.461611353818723"><ele>125.0</ele><time>2026-04-30T13:45:08.999Z</time></trkpt><trkpt lat="38.051812129015254" lon="13.461641425126126"><ele>125.0</ele><time>2026-04-30T13:45:09.999Z</time></trkpt><trkpt lat="38.052016033073215" lon="13.461672460720838"><ele>126.0</ele><time>2026-04-30T13:45:10.999Z</time></trkpt><trkpt lat="38.052213775727644" lon="13.461702637489815"><ele>127.0</ele><time>2026-04-30T13:45:11.999Z</time></trkpt><trkpt lat="38.052412785631056" lon="13.461729594237523"><ele>128.0</ele><time>2026-04-30T13:45:12.999Z</time></trkpt><trkpt lat="38.052608496848904" lon="13.461759048640577"><ele>129.66666666666666</ele><time>2026-04-30T13:45:13.999Z</time></trkpt><trkpt lat="38.052804569229174" lon="13.461787020478763"><ele>131.33333333333334</ele><time>2026-04-30T13:45:14.999Z</time></trkpt><trkpt lat="38.05300336541442" lon="13.461815913034057"><ele>133.0</ele><time>2026-04-30T13:45:15.999Z</time></trkpt><trkpt lat="38.05320236796007" lon="13.461846035926671"><ele>134.0</ele><time>2026-04-30T13:45:16.999Z</time></trkpt><trkpt lat="38.05340512623894" lon="13.461879564726525"><ele>135.0</ele><time>2026-04-30T13:45:17.999Z</time></trkpt><trkpt lat="38.053612895337736" lon="13.46190972839222"><ele>136.0</ele><time>2026-04-30T13:45:18.999Z</time></trkpt><trkpt lat="38.05382519369409" lon="13.461939170161447"><ele>136.0</ele><time>2026-04-30T13:45:19.999Z</time></trkpt><trkpt lat="38.05403633363533" lon="13.461968780542541"><ele>136.0</ele><time>2026-04-30T13:45:20.999Z</time></trkpt><trkpt lat="38.0542429552345" lon="13.461999784856252"><ele>136.0</ele><time>2026-04-30T13:45:21.999Z</time></trkpt><trkpt lat="38.054447692995616" lon="13.46203302474018"><ele>138.0</ele><time>2026-04-30T13:45:22.999Z</time></trkpt><trkpt lat="38.05464957254619" lon="13.46206622399977"><ele>140.0</ele><time>2026-04-30T13:45:23.999Z</time></trkpt><trkpt lat="38.05485069038186" lon="13.462094431649124"><ele>142.0</ele><time>2026-04-30T13:45:24.999Z</time></trkpt><trkpt lat="38.05504753720357" lon="13.462108278118523"><ele>141.33333333333334</ele><time>2026-04-30T13:45:25.999Z</time></trkpt><trkpt lat="38.055247361711906" lon="13.46212331516113"><ele>140.66666666666666</ele><time>2026-04-30T13:45:26.999Z</time></trkpt><trkpt lat="38.055449182644494" lon="13.462130144117438"><ele>140.0</ele><time>2026-04-30T13:45:27.999Z</time></trkpt><trkpt lat="38.055657354202" lon="13.462130973323404"><ele>139.33333333333331</ele><time>2026-04-30T13:45:28.999Z</time></trkpt><trkpt lat="38.05586460796751" lon="13.4621247676861"><ele>138.66666666666666</ele><time>2026-04-30T13:45:29.999Z</time></trkpt><trkpt lat="38.05607188455551" lon="13.46212049636204"><ele>138.0</ele><time>2026-04-30T13:45:30.999Z</time></trkpt><trkpt lat="38.056281572747416" lon="13.462117192116944"><ele>138.0</ele><time>2026-04-30T13:45:31.999Z</time></trkpt><trkpt lat="38.05648626021189" lon="13.462125419437466"><ele>138.0</ele><time>2026-04-30T13:45:32.999Z</time></trkpt><trkpt lat="38.05669461800134" lon="13.462128780920251"><ele>138.0</ele><time>2026-04-30T13:45:33.999Z</time></trkpt><trkpt lat="38.05690461092972" lon="13.46212105399731"><ele>139.0</ele><time>2026-04-30T13:45:34.999Z</time></trkpt><trkpt lat="38.05711521927499" lon="13.462116972787197"><ele>140.0</ele><time>2026-04-30T13:45:35.999Z</time></trkpt><trkpt lat="38.05732599096425" lon="13.462114948706784"><ele>141.0</ele><time>2026-04-30T13:45:36.999Z</time></trkpt><trkpt lat="38.05753697348563" lon="13.46211476765129"><ele>142.0</ele><time>2026-04-30T13:45:37.999Z</time></trkpt><trkpt lat="38.05774811560058" lon="13.462107690164865"><ele>143.0</ele><time>2026-04-30T13:45:38.999Z</time></trkpt><trkpt lat="38.057958223762014" lon="13.462097953563134"><ele>144.0</ele><time>2026-04-30T13:45:40Z</time></trkpt><trkpt lat="38.05816396174493" lon="13.462089636675746"><ele>146.33333333333334</ele><time>2026-04-30T13:45:41Z</time></trkpt><trkpt lat="38.058370120575994" lon="13.462082678220945"><ele>148.66666666666669</ele><time>2026-04-30T13:45:42Z</time></trkpt><trkpt lat="38.05857736908419" lon="13.46208366335147"><ele>151.0</ele><time>2026-04-30T13:45:43Z</time></trkpt><trkpt lat="38.058779138145994" lon="13.462085917197369"><ele>151.0</ele><time>2026-04-30T13:45:44Z</time></trkpt><trkpt lat="38.05896943168124" lon="13.462085396801308"><ele>151.0</ele><time>2026-04-30T13:45:45Z</time></trkpt><trkpt lat="38.059156895022134" lon="13.462083384003888"><ele>151.0</ele><time>2026-04-30T13:45:46Z</time></trkpt><trkpt lat="38.05934764064473" lon="13.462083010211"><ele>151.0</ele><time>2026-04-30T13:45:47Z</time></trkpt><trkpt lat="38.05954319224287" lon="13.462080985850507"><ele>151.0</ele><time>2026-04-30T13:45:48Z</time></trkpt><trkpt lat="38.05974120382563" lon="13.462081957704392"><ele>151.0</ele><time>2026-04-30T13:45:49Z</time></trkpt><trkpt lat="38.05994070347009" lon="13.46208771491501"><ele>152.66666666666669</ele><time>2026-04-30T13:45:50Z</time></trkpt><trkpt lat="38.06014064074669" lon="13.462086526656966"><ele>154.33333333333334</ele><time>2026-04-30T13:45:51Z</time></trkpt><trkpt lat="38.06033695536147" lon="13.462081306763434"><ele>156.0</ele><time>2026-04-30T13:45:52Z</time></trkpt><trkpt lat="38.0605316596298" lon="13.46207788698899"><ele>156.0</ele><time>2026-04-30T13:45:53Z</time></trkpt><trkpt lat="38.06072492784998" lon="13.46207423475855"><ele>156.0</ele><time>2026-04-30T13:45:54Z</time></trkpt><trkpt lat="38.060917199201704" lon="13.4620678132425"><ele>156.0</ele><time>2026-04-30T13:45:55Z</time></trkpt><trkpt lat="38.06110650980616" lon="13.462056810176282"><ele>156.33333333333334</ele><time>2026-04-30T13:45:56Z</time></trkpt><trkpt lat="38.061297516056456" lon="13.462042463273818"><ele>156.66666666666669</ele><time>2026-04-30T13:45:57Z</time></trkpt><trkpt lat="38.06148937270154" lon="13.462027222032676"><ele>157.0</ele><time>2026-04-30T13:45:58Z</time></trkpt><trkpt lat="38.061678570398186" lon="13.46201764153438"><ele>156.33333333333334</ele><time>2026-04-30T13:45:59Z</time></trkpt><trkpt lat="38.061867806479505" lon="13.462002091473805"><ele>155.66666666666666</ele><time>2026-04-30T13:46:00Z</time></trkpt><trkpt lat="38.06205648608192" lon="13.461977494917297"><ele>155.0</ele><time>2026-04-30T13:46:01Z</time></trkpt><trkpt lat="38.06224750557996" lon="13.461948603256094"><ele>155.0</ele><time>2026-04-30T13:46:02Z</time></trkpt><trkpt lat="38.06243734161448" lon="13.461915395151097"><ele>155.0</ele><time>2026-04-30T13:46:03Z</time></trkpt><trkpt lat="38.06262802626595" lon="13.461877474296708"><ele>155.0</ele><time>2026-04-30T13:46:04Z</time></trkpt><trkpt lat="38.062818829227304" lon="13.461837158460632"><ele>153.66666666666666</ele><time>2026-04-30T13:46:05Z</time></trkpt><trkpt lat="38.06301155888228" lon="13.461795380612367"><ele>152.33333333333334</ele><time>2026-04-30T13:46:06Z</time></trkpt><trkpt lat="38.06320238201007" lon="13.461746700330387"><ele>151.0</ele><time>2026-04-30T13:46:07Z</time></trkpt><trkpt lat="38.06339305307649" lon="13.461698830421911"><ele>149.33333333333334</ele><time>2026-04-30T13:46:08Z</time></trkpt><trkpt lat="38.06358518043642" lon="13.461647492241042"><ele>147.66666666666666</ele><time>2026-04-30T13:46:09Z</time></trkpt><trkpt lat="38.063778110127934" lon="13.461591446401526"><ele>146.0</ele><time>2026-04-30T13:46:09.999Z</time></trkpt><trkpt lat="38.06397218884775" lon="13.46152969691745"><ele>144.0</ele><time>2026-04-30T13:46:10.999Z</time></trkpt><trkpt lat="38.0641678212214" lon="13.46146466777431"><ele>142.0</ele><time>2026-04-30T13:46:11.999Z</time></trkpt><trkpt lat="38.06436684785303" lon="13.461398807791314"><ele>140.0</ele><time>2026-04-30T13:46:12.999Z</time></trkpt><trkpt lat="38.064567903857615" lon="13.461331412586642"><ele>140.66666666666666</ele><time>2026-04-30T13:46:13.999Z</time></trkpt><trkpt lat="38.06477112474259" lon="13.461263484351372"><ele>141.33333333333334</ele><time>2026-04-30T13:46:14.999Z</time></trkpt><trkpt lat="38.06497512315481" lon="13.4611983785724"><ele>142.0</ele><time>2026-04-30T13:46:15.999Z</time></trkpt><trkpt lat="38.06517942105407" lon="13.461132800069906"><ele>139.33333333333334</ele><time>2026-04-30T13:46:16.999Z</time></trkpt><trkpt lat="38.06538217641322" lon="13.46106428393662"><ele>136.66666666666666</ele><time>2026-04-30T13:46:17.999Z</time></trkpt><trkpt lat="38.065581806686296" lon="13.460995460182799"><ele>134.0</ele><time>2026-04-30T13:46:18.999Z</time></trkpt><trkpt lat="38.06577170715108" lon="13.460927731320872"><ele>131.66666666666666</ele><time>2026-04-30T13:46:19.999Z</time></trkpt><trkpt lat="38.06595224578668" lon="13.460863089977279"><ele>129.33333333333334</ele><time>2026-04-30T13:46:20.999Z</time></trkpt><trkpt lat="38.06612586975269" lon="13.460800047998276"><ele>127.0</ele><time>2026-04-30T13:46:21.999Z</time></trkpt><trkpt lat="38.066295412511664" lon="13.46074310682734"><ele>127.0</ele><time>2026-04-30T13:46:22.999Z</time></trkpt><trkpt lat="38.06646949698772" lon="13.460693645699337"><ele>127.0</ele><time>2026-04-30T13:46:23.999Z</time></trkpt><trkpt lat="38.06664368809405" lon="13.460638049199751"><ele>127.0</ele><time>2026-04-30T13:46:24.999Z</time></trkpt><trkpt lat="38.06682019021147" lon="13.460573390717428"><ele>125.33333333333334</ele><time>2026-04-30T13:46:25.999Z</time></trkpt><trkpt lat="38.06699916396044" lon="13.460507651578098"><ele>123.66666666666666</ele><time>2026-04-30T13:46:26.999Z</time></trkpt><trkpt lat="38.06718335849821" lon="13.460442780034839"><ele>122.0</ele><time>2026-04-30T13:46:27.999Z</time></trkpt><trkpt lat="38.06737153183246" lon="13.46037757526693"><ele>120.0</ele><time>2026-04-30T13:46:28.999Z</time></trkpt><trkpt lat="38.06755981871683" lon="13.460312315770112"><ele>118.0</ele><time>2026-04-30T13:46:29.999Z</time></trkpt><trkpt lat="38.06774773640526" lon="13.460244729263575"><ele>116.0</ele><time>2026-04-30T13:46:30.999Z</time></trkpt><trkpt lat="38.06793552850841" lon="13.460173240778206"><ele>116.0</ele><time>2026-04-30T13:46:31.999Z</time></trkpt><trkpt lat="38.06812421032749" lon="13.460096090279151"><ele>116.0</ele><time>2026-04-30T13:46:32.999Z</time></trkpt><trkpt lat="38.06831268318379" lon="13.460015258648427"><ele>116.0</ele><time>2026-04-30T13:46:33.999Z</time></trkpt><trkpt lat="38.06850165171414" lon="13.459931113827325"><ele>114.0</ele><time>2026-04-30T13:46:34.999Z</time></trkpt><trkpt lat="38.068689920215014" lon="13.45984714569318"><ele>112.0</ele><time>2026-04-30T13:46:35.999Z</time></trkpt><trkpt lat="38.06887777882856" lon="13.45975840867157"><ele>110.0</ele><time>2026-04-30T13:46:36.999Z</time></trkpt><trkpt lat="38.06906435259225" lon="13.459666419474598"><ele>108.66666666666666</ele><time>2026-04-30T13:46:37.999Z</time></trkpt><trkpt lat="38.06924799021" lon="13.45956874647177"><ele>107.33333333333334</ele><time>2026-04-30T13:46:38.999Z</time></trkpt><trkpt lat="38.06943136733866" lon="13.459469861025335"><ele>106.0</ele><time>2026-04-30T13:46:39.999Z</time></trkpt><trkpt lat="38.069615140109136" lon="13.459368218528025"><ele>106.0</ele><time>2026-04-30T13:46:40.999Z</time></trkpt><trkpt lat="38.06980472309963" lon="13.459263794557472"><ele>106.0</ele><time>2026-04-30T13:46:41.999Z</time></trkpt><trkpt lat="38.0699930203322" lon="13.45915691676628"><ele>106.0</ele><time>2026-04-30T13:46:42.999Z</time></trkpt><trkpt lat="38.070178709198906" lon="13.459047828925613"><ele>104.0</ele><time>2026-04-30T13:46:43.999Z</time></trkpt><trkpt lat="38.07036022923953" lon="13.458935115656745"><ele>102.0</ele><time>2026-04-30T13:46:44.999Z</time></trkpt><trkpt lat="38.07053757222829" lon="13.458822213703675"><ele>100.0</ele><time>2026-04-30T13:46:45.999Z</time></trkpt><trkpt lat="38.070712616801295" lon="13.458707042234442"><ele>97.66666666666667</ele><time>2026-04-30T13:46:46.999Z</time></trkpt><trkpt lat="38.07088522021859" lon="13.45858885144277"><ele>95.33333333333334</ele><time>2026-04-30T13:46:47.999Z</time></trkpt><trkpt lat="38.07105639371363" lon="13.458467624943951"><ele>93.0</ele><time>2026-04-30T13:46:48.999Z</time></trkpt><trkpt lat="38.071230486295434" lon="13.458345883236756"><ele>93.0</ele><time>2026-04-30T13:46:49.999Z</time></trkpt><trkpt lat="38.071404154059465" lon="13.45822156965179"><ele>93.0</ele><time>2026-04-30T13:46:50.999Z</time></trkpt><trkpt lat="38.07157640053473" lon="13.458090283196793"><ele>93.0</ele><time>2026-04-30T13:46:51.999Z</time></trkpt><trkpt lat="38.071746883663494" lon="13.457954984017292"><ele>91.33333333333333</ele><time>2026-04-30T13:46:52.999Z</time></trkpt><trkpt lat="38.07191776792721" lon="13.457820718911155"><ele>89.66666666666666</ele><time>2026-04-30T13:46:53.999Z</time></trkpt><trkpt lat="38.07208553763393" lon="13.457685231586852"><ele>88.0</ele><time>2026-04-30T13:46:54.999Z</time></trkpt><trkpt lat="38.07225103623883" lon="13.457549981822403"><ele>88.0</ele><time>2026-04-30T13:46:55.999Z</time></trkpt><trkpt lat="38.072416004249774" lon="13.457411957224954"><ele>88.0</ele><time>2026-04-30T13:46:56.999Z</time></trkpt><trkpt lat="38.072580267100896" lon="13.457273991333343"><ele>88.0</ele><time>2026-04-30T13:46:57.999Z</time></trkpt><trkpt lat="38.07274649622975" lon="13.457136980436273"><ele>85.66666666666666</ele><time>2026-04-30T13:46:58.999Z</time></trkpt><trkpt lat="38.072912559243676" lon="13.456998616457316"><ele>83.33333333333333</ele><time>2026-04-30T13:46:59.999Z</time></trkpt><trkpt lat="38.07307713430882" lon="13.456858917412433"><ele>81.0</ele><time>2026-04-30T13:47:00.999Z</time></trkpt><trkpt lat="38.07323935082765" lon="13.456717302679193"><ele>79.66666666666667</ele><time>2026-04-30T13:47:01.999Z</time></trkpt><trkpt lat="38.07340190992138" lon="13.456583215537146"><ele>78.33333333333334</ele><time>2026-04-30T13:47:02.999Z</time></trkpt><trkpt lat="38.07356291505895" lon="13.45645352389348"><ele>77.0</ele><time>2026-04-30T13:47:03.999Z</time></trkpt><trkpt lat="38.07372285806672" lon="13.456321995364998"><ele>77.0</ele><time>2026-04-30T13:47:04.999Z</time></trkpt><trkpt lat="38.073883002643825" lon="13.456192016894757"><ele>77.0</ele><time>2026-04-30T13:47:05.999Z</time></trkpt><trkpt lat="38.074043399414045" lon="13.456061594827663"><ele>77.0</ele><time>2026-04-30T13:47:06.999Z</time></trkpt><trkpt lat="38.074202959809774" lon="13.45593104265941"><ele>75.33333333333334</ele><time>2026-04-30T13:47:07.999Z</time></trkpt><trkpt lat="38.07436332030851" lon="13.455792958812951"><ele>73.66666666666667</ele><time>2026-04-30T13:47:08.999Z</time></trkpt><trkpt lat="38.07452444445322" lon="13.455654315171776"><ele>72.0</ele><time>2026-04-30T13:47:09.999Z</time></trkpt><trkpt lat="38.07468936745532" lon="13.455517554840014"><ele>71.0</ele><time>2026-04-30T13:47:10.999Z</time></trkpt><trkpt lat="38.07485321795943" lon="13.455383031671271"><ele>70.0</ele><time>2026-04-30T13:47:11.999Z</time></trkpt><trkpt lat="38.07501587287398" lon="13.455251228786462"><ele>69.0</ele><time>2026-04-30T13:47:12.999Z</time></trkpt><trkpt lat="38.075180824013316" lon="13.45511816929984"><ele>67.33333333333333</ele><time>2026-04-30T13:47:13.999Z</time></trkpt><trkpt lat="38.07534606291762" lon="13.454983261746028"><ele>65.66666666666666</ele><time>2026-04-30T13:47:14.999Z</time></trkpt><trkpt lat="38.075511789699824" lon="13.454846037683902"><ele>64.0</ele><time>2026-04-30T13:47:15.999Z</time></trkpt><trkpt lat="38.075676270118876" lon="13.454705659679078"><ele>64.0</ele><time>2026-04-30T13:47:16.999Z</time></trkpt><trkpt lat="38.0758447065061" lon="13.454564659553615"><ele>64.0</ele><time>2026-04-30T13:47:17.999Z</time></trkpt><trkpt lat="38.076014280508424" lon="13.454427973787066"><ele>64.0</ele><time>2026-04-30T13:47:18.999Z</time></trkpt><trkpt lat="38.07618643196889" lon="13.454291960940456"><ele>64.0</ele><time>2026-04-30T13:47:19.999Z</time></trkpt><trkpt lat="38.076357848189076" lon="13.454147138418788"><ele>64.0</ele><time>2026-04-30T13:47:20.999Z</time></trkpt><trkpt lat="38.07653103657919" lon="13.454001330834984"><ele>64.0</ele><time>2026-04-30T13:47:21.999Z</time></trkpt><trkpt lat="38.07670552687354" lon="13.453858436834523"><ele>63.666666666666664</ele><time>2026-04-30T13:47:22.999Z</time></trkpt><trkpt lat="38.07688175340736" lon="13.453713638556948"><ele>63.33333333333333</ele><time>2026-04-30T13:47:23.999Z</time></trkpt><trkpt lat="38.077056713003586" lon="13.453567599967194"><ele>63.0</ele><time>2026-04-30T13:47:24.999Z</time></trkpt><trkpt lat="38.077233486871684" lon="13.453418370750938"><ele>63.0</ele><time>2026-04-30T13:47:25.999Z</time></trkpt><trkpt lat="38.07740870486231" lon="13.453266542640312"><ele>63.0</ele><time>2026-04-30T13:47:26.999Z</time></trkpt><trkpt lat="38.077581247085135" lon="13.453111499702292"><ele>63.0</ele><time>2026-04-30T13:47:27.999Z</time></trkpt><trkpt lat="38.077747463900934" lon="13.45294842122193"><ele>61.0</ele><time>2026-04-30T13:47:28.999Z</time></trkpt><trkpt lat="38.077907953600445" lon="13.452775953823798"><ele>59.0</ele><time>2026-04-30T13:47:29.999Z</time></trkpt><trkpt lat="38.07806011471778" lon="13.452597243013805"><ele>57.0</ele><time>2026-04-30T13:47:30.999Z</time></trkpt><trkpt lat="38.07820894425353" lon="13.452413038750496"><ele>55.66666666666667</ele><time>2026-04-30T13:47:31.999Z</time></trkpt><trkpt lat="38.078354771224866" lon="13.452220216994345"><ele>54.333333333333336</ele><time>2026-04-30T13:47:32.999Z</time></trkpt><trkpt lat="38.07849292413157" lon="13.452025461191333"><ele>53.0</ele><time>2026-04-30T13:47:33.999Z</time></trkpt><trkpt lat="38.07862435493626" lon="13.45182333095877"><ele>53.0</ele><time>2026-04-30T13:47:34.999Z</time></trkpt><trkpt lat="38.07875017421373" lon="13.4516149166934"><ele>53.0</ele><time>2026-04-30T13:47:35.999Z</time></trkpt><trkpt lat="38.078870432985234" lon="13.45140168961923"><ele>53.0</ele><time>2026-04-30T13:47:36.999Z</time></trkpt><trkpt lat="38.078982305099935" lon="13.451182149979715"><ele>52.66666666666667</ele><time>2026-04-30T13:47:37.999Z</time></trkpt><trkpt lat="38.079087499056406" lon="13.450955348333217"><ele>52.33333333333333</ele><time>2026-04-30T13:47:38.999Z</time></trkpt><trkpt lat="38.07918811865516" lon="13.450723082337978"><ele>52.0</ele><time>2026-04-30T13:47:39.999Z</time></trkpt><trkpt lat="38.07928503099923" lon="13.45048920736145"><ele>50.666666666666664</ele><time>2026-04-30T13:47:40.999Z</time></trkpt><trkpt lat="38.07936660546122" lon="13.450259846796751"><ele>49.33333333333333</ele><time>2026-04-30T13:47:41.999Z</time></trkpt><trkpt lat="38.07943934229059" lon="13.450022201606462"><ele>48.0</ele><time>2026-04-30T13:47:42.999Z</time></trkpt><trkpt lat="38.07950884899904" lon="13.4497827415528"><ele>47.666666666666664</ele><time>2026-04-30T13:47:43.999Z</time></trkpt><trkpt lat="38.07957626248184" lon="13.44954623557328"><ele>47.33333333333333</ele><time>2026-04-30T13:47:44.999Z</time></trkpt><trkpt lat="38.07963880485338" lon="13.44931736674663"><ele>47.0</ele><time>2026-04-30T13:47:46Z</time></trkpt><trkpt lat="38.07969464426915" lon="13.449094215756276"><ele>47.0</ele><time>2026-04-30T13:47:47Z</time></trkpt><trkpt lat="38.07974725449067" lon="13.448874440407083"><ele>47.0</ele><time>2026-04-30T13:47:48Z</time></trkpt><trkpt lat="38.07979910062638" lon="13.448662916055588"><ele>47.0</ele><time>2026-04-30T13:47:49Z</time></trkpt><trkpt lat="38.079853572824526" lon="13.44846671499049"><ele>47.0</ele><time>2026-04-30T13:47:50Z</time></trkpt><trkpt lat="38.079905976670915" lon="13.448278058589636"><ele>47.0</ele><time>2026-04-30T13:47:51Z</time></trkpt><trkpt lat="38.079957070932956" lon="13.448094930355623"><ele>47.0</ele><time>2026-04-30T13:47:52Z</time></trkpt><trkpt lat="38.08000915100421" lon="13.447919751281429"><ele>46.5</ele><time>2026-04-30T13:47:53Z</time></trkpt><trkpt lat="38.08005528359738" lon="13.447743705955554"><ele>46.0</ele><time>2026-04-30T13:47:54Z</time></trkpt><trkpt lat="38.080096116344386" lon="13.447563739092347"><ele>45.5</ele><time>2026-04-30T13:47:55Z</time></trkpt><trkpt lat="38.080141067334225" lon="13.447382660918812"><ele>45.0</ele><time>2026-04-30T13:47:56Z</time></trkpt><trkpt lat="38.080194935551226" lon="13.44719867489944"><ele>44.333333333333336</ele><time>2026-04-30T13:47:57Z</time></trkpt><trkpt lat="38.08024723851319" lon="13.447007302624582"><ele>43.66666666666667</ele><time>2026-04-30T13:47:58Z</time></trkpt><trkpt lat="38.08029119319828" lon="13.44681334047693"><ele>43.0</ele><time>2026-04-30T13:47:59Z</time></trkpt><trkpt lat="38.08032718482015" lon="13.446619484040031"><ele>43.0</ele><time>2026-04-30T13:48:00Z</time></trkpt><trkpt lat="38.08035969357474" lon="13.446422192560208"><ele>43.0</ele><time>2026-04-30T13:48:01Z</time></trkpt><trkpt lat="38.08038491708478" lon="13.446220226642238"><ele>43.0</ele><time>2026-04-30T13:48:02Z</time></trkpt><trkpt lat="38.08040903966103" lon="13.446015543002291"><ele>43.0</ele><time>2026-04-30T13:48:03Z</time></trkpt><trkpt lat="38.080436094170615" lon="13.445805845197874"><ele>43.0</ele><time>2026-04-30T13:48:04Z</time></trkpt><trkpt lat="38.08046000802382" lon="13.445597287066807"><ele>43.0</ele><time>2026-04-30T13:48:05Z</time></trkpt><trkpt lat="38.080469774966645" lon="13.445385077260774"><ele>43.0</ele><time>2026-04-30T13:48:06Z</time></trkpt><trkpt lat="38.08047260715687" lon="13.445168762977552"><ele>43.0</ele><time>2026-04-30T13:48:07Z</time></trkpt><trkpt lat="38.080474219767964" lon="13.444960133123407"><ele>43.0</ele><time>2026-04-30T13:48:08Z</time></trkpt><trkpt lat="38.08047146271149" lon="13.444756364599646"><ele>42.66666666666667</ele><time>2026-04-30T13:48:09Z</time></trkpt><trkpt lat="38.08046339443384" lon="13.444556629226872"><ele>42.333333333333336</ele><time>2026-04-30T13:48:10Z</time></trkpt><trkpt lat="38.08045087640941" lon="13.44435747902501"><ele>42.0</ele><time>2026-04-30T13:48:11Z</time></trkpt><trkpt lat="38.080434184467535" lon="13.444158523414"><ele>42.0</ele><time>2026-04-30T13:48:12Z</time></trkpt><trkpt lat="38.08042376668246" lon="13.443957889595666"><ele>42.0</ele><time>2026-04-30T13:48:13Z</time></trkpt><trkpt lat="38.08041137952139" lon="13.443759955475983"><ele>42.0</ele><time>2026-04-30T13:48:14Z</time></trkpt><trkpt lat="38.080398647998614" lon="13.443570948535367"><ele>42.333333333333336</ele><time>2026-04-30T13:48:14.999Z</time></trkpt><trkpt lat="38.08038087697191" lon="13.443375667275903"><ele>42.66666666666667</ele><time>2026-04-30T13:48:15.999Z</time></trkpt><trkpt lat="38.08036297173908" lon="13.443190287165962"><ele>43.0</ele><time>2026-04-30T13:48:16.999Z</time></trkpt><trkpt lat="38.08035091670519" lon="13.443003170862987"><ele>42.5</ele><time>2026-04-30T13:48:17.999Z</time></trkpt><trkpt lat="38.0803416722531" lon="13.442824844720592"><ele>42.0</ele><time>2026-04-30T13:48:18.999Z</time></trkpt><trkpt lat="38.08032988196978" lon="13.442654815010176"><ele>41.5</ele><time>2026-04-30T13:48:19.999Z</time></trkpt><trkpt lat="38.08032021494633" lon="13.442487528062816"><ele>41.0</ele><time>2026-04-30T13:48:20.999Z</time></trkpt><trkpt lat="38.08030761408447" lon="13.442320357763256"><ele>41.0</ele><time>2026-04-30T13:48:21.999Z</time></trkpt><trkpt lat="38.080293203283084" lon="13.44215194227615"><ele>41.0</ele><time>2026-04-30T13:48:22.999Z</time></trkpt><trkpt lat="38.08028186273162" lon="13.441981061691704"><ele>41.0</ele><time>2026-04-30T13:48:23.999Z</time></trkpt><trkpt lat="38.08027223091229" lon="13.441814481804585"><ele>41.0</ele><time>2026-04-30T13:48:24.999Z</time></trkpt><trkpt lat="38.08026250838271" lon="13.44165134759743"><ele>41.25</ele><time>2026-04-30T13:48:25.999Z</time></trkpt><trkpt lat="38.08025534618679" lon="13.441492266213901"><ele>41.5</ele><time>2026-04-30T13:48:26.999Z</time></trkpt><trkpt lat="38.080247133799" lon="13.441331395099162"><ele>41.75</ele><time>2026-04-30T13:48:27.999Z</time></trkpt><trkpt lat="38.08023950981111" lon="13.441173901783012"><ele>42.0</ele><time>2026-04-30T13:48:28.999Z</time></trkpt><trkpt lat="38.08023843100799" lon="13.441023293024358"><ele>42.25</ele><time>2026-04-30T13:48:29.999Z</time></trkpt><trkpt lat="38.080242516001725" lon="13.440877341874796"><ele>42.5</ele><time>2026-04-30T13:48:30.999Z</time></trkpt><trkpt lat="38.080253025370524" lon="13.440737669476004"><ele>42.75</ele><time>2026-04-30T13:48:31.999Z</time></trkpt><trkpt lat="38.08027011859431" lon="13.44059715671811"><ele>43.0</ele><time>2026-04-30T13:48:32.999Z</time></trkpt><trkpt lat="38.080295274823676" lon="13.440445391840521"><ele>43.25</ele><time>2026-04-30T13:48:33.999Z</time></trkpt><trkpt lat="38.08033249017287" lon="13.44028408228117"><ele>43.5</ele><time>2026-04-30T13:48:34.999Z</time></trkpt><trkpt lat="38.080382982242085" lon="13.440111232331837"><ele>43.75</ele><time>2026-04-30T13:48:35.999Z</time></trkpt><trkpt lat="38.0804483416" lon="13.439935675037356"><ele>44.0</ele><time>2026-04-30T13:48:36.999Z</time></trkpt><trkpt lat="38.080531862664806" lon="13.439758726154917"><ele>45.0</ele><time>2026-04-30T13:48:37.999Z</time></trkpt><trkpt lat="38.08062945175372" lon="13.439588597855938"><ele>46.0</ele><time>2026-04-30T13:48:38.999Z</time></trkpt><trkpt lat="38.08073826857891" lon="13.439427307049193"><ele>47.0</ele><time>2026-04-30T13:48:39.999Z</time></trkpt><trkpt lat="38.08086215387707" lon="13.439276650374815"><ele>44.666666666666664</ele><time>2026-04-30T13:48:40.999Z</time></trkpt><trkpt lat="38.080995778933136" lon="13.439147436656897"><ele>42.333333333333336</ele><time>2026-04-30T13:48:41.999Z</time></trkpt><trkpt lat="38.08114153036456" lon="13.439044352100781"><ele>40.0</ele><time>2026-04-30T13:48:42.999Z</time></trkpt><trkpt lat="38.08128565886439" lon="13.438955357954335"><ele>40.0</ele><time>2026-04-30T13:48:43.999Z</time></trkpt><trkpt lat="38.08143184032165" lon="13.43887198145288"><ele>40.0</ele><time>2026-04-30T13:48:44.999Z</time></trkpt><trkpt lat="38.08157964225131" lon="13.438803255409244"><ele>40.0</ele><time>2026-04-30T13:48:45.999Z</time></trkpt><trkpt lat="38.081726774840966" lon="13.43875025156691"><ele>39.75</ele><time>2026-04-30T13:48:46.999Z</time></trkpt><trkpt lat="38.081870144091454" lon="13.438699416338189"><ele>39.5</ele><time>2026-04-30T13:48:47.999Z</time></trkpt><trkpt lat="38.082007774228906" lon="13.438645468130037"><ele>39.25</ele><time>2026-04-30T13:48:48.999Z</time></trkpt><trkpt lat="38.08213732584935" lon="13.438592084888535"><ele>39.0</ele><time>2026-04-30T13:48:49.999Z</time></trkpt><trkpt lat="38.082264541708874" lon="13.438543194975201"><ele>39.0</ele><time>2026-04-30T13:48:50.999Z</time></trkpt><trkpt lat="38.082387417671896" lon="13.438500930817709"><ele>39.0</ele><time>2026-04-30T13:48:51.999Z</time></trkpt><trkpt lat="38.08250512619453" lon="13.438460592651134"><ele>39.0</ele><time>2026-04-30T13:48:52.999Z</time></trkpt><trkpt lat="38.08263254796114" lon="13.438415056610875"><ele>39.0</ele><time>2026-04-30T13:48:53.999Z</time></trkpt><trkpt lat="38.08276368411773" lon="13.438371502142008"><ele>38.75</ele><time>2026-04-30T13:48:54.999Z</time></trkpt><trkpt lat="38.0828971528136" lon="13.438324289455148"><ele>38.5</ele><time>2026-04-30T13:48:55.999Z</time></trkpt><trkpt lat="38.08302856284505" lon="13.43827460933301"><ele>38.25</ele><time>2026-04-30T13:48:56.999Z</time></trkpt><trkpt lat="38.083154104236186" lon="13.438225351503624"><ele>38.0</ele><time>2026-04-30T13:48:57.999Z</time></trkpt><trkpt lat="38.08328291698022" lon="13.43817431680258"><ele>37.25</ele><time>2026-04-30T13:48:58.999Z</time></trkpt><trkpt lat="38.083412315905235" lon="13.438115906922466"><ele>36.5</ele><time>2026-04-30T13:48:59.999Z</time></trkpt><trkpt lat="38.083541874527555" lon="13.438053078279598"><ele>35.75</ele><time>2026-04-30T13:49:00.999Z</time></trkpt><trkpt lat="38.08367197927827" lon="13.437986305972473"><ele>35.0</ele><time>2026-04-30T13:49:01.999Z</time></trkpt><trkpt lat="38.083800945980855" lon="13.437906772304855"><ele>35.0</ele><time>2026-04-30T13:49:02.999Z</time></trkpt><trkpt lat="38.083924857935116" lon="13.43780975550313"><ele>35.0</ele><time>2026-04-30T13:49:03.999Z</time></trkpt><trkpt lat="38.084055618681056" lon="13.437693782402517"><ele>35.0</ele><time>2026-04-30T13:49:04.999Z</time></trkpt><trkpt lat="38.08419363389453" lon="13.437563385810035"><ele>35.0</ele><time>2026-04-30T13:49:05.999Z</time></trkpt><trkpt lat="38.08433627459651" lon="13.437420775464942"><ele>35.0</ele><time>2026-04-30T13:49:06.999Z</time></trkpt><trkpt lat="38.08448050068913" lon="13.43726306374847"><ele>35.0</ele><time>2026-04-30T13:49:07.999Z</time></trkpt><trkpt lat="38.08462222191008" lon="13.437089108552069"><ele>35.0</ele><time>2026-04-30T13:49:08.999Z</time></trkpt><trkpt lat="38.08475274473281" lon="13.436905163569559"><ele>35.0</ele><time>2026-04-30T13:49:09.999Z</time></trkpt><trkpt lat="38.084894429980615" lon="13.436738463416074"><ele>35.0</ele><time>2026-04-30T13:49:10.999Z</time></trkpt><trkpt lat="38.085023709834545" lon="13.436586896298522"><ele>35.33333333333333</ele><time>2026-04-30T13:49:11.999Z</time></trkpt><trkpt lat="38.08514483278795" lon="13.436440270572767"><ele>35.666666666666664</ele><time>2026-04-30T13:49:12.999Z</time></trkpt><trkpt lat="38.085262252683066" lon="13.436298858024646"><ele>36.0</ele><time>2026-04-30T13:49:13.999Z</time></trkpt><trkpt lat="38.085376384905985" lon="13.436162666551619"><ele>35.5</ele><time>2026-04-30T13:49:14.999Z</time></trkpt><trkpt lat="38.085482388047154" lon="13.436025499956044"><ele>35.0</ele><time>2026-04-30T13:49:15.999Z</time></trkpt><trkpt lat="38.085579985363445" lon="13.435881690307008"><ele>34.5</ele><time>2026-04-30T13:49:16.999Z</time></trkpt><trkpt lat="38.08567081915828" lon="13.435733742357083"><ele>34.0</ele><time>2026-04-30T13:49:17.999Z</time></trkpt><trkpt lat="38.085759702201" lon="13.435582662989288"><ele>34.0</ele><time>2026-04-30T13:49:18.999Z</time></trkpt><trkpt lat="38.08584404806615" lon="13.435423226064927"><ele>34.0</ele><time>2026-04-30T13:49:19.999Z</time></trkpt><trkpt lat="38.085920888789744" lon="13.435253796094484"><ele>34.0</ele><time>2026-04-30T13:49:20.999Z</time></trkpt><trkpt lat="38.08599076115735" lon="13.435078599536148"><ele>34.0</ele><time>2026-04-30T13:49:21.999Z</time></trkpt><trkpt lat="38.086051487533005" lon="13.434907273812723"><ele>34.0</ele><time>2026-04-30T13:49:22.999Z</time></trkpt><trkpt lat="38.08610139528175" lon="13.4347378963203"><ele>34.0</ele><time>2026-04-30T13:49:23.999Z</time></trkpt><trkpt lat="38.08614731635628" lon="13.434571824790629"><ele>34.0</ele><time>2026-04-30T13:49:24.999Z</time></trkpt><trkpt lat="38.08617534354364" lon="13.434401643638154"><ele>34.75</ele><time>2026-04-30T13:49:25.999Z</time></trkpt><trkpt lat="38.08619177411873" lon="13.434231773482454"><ele>35.5</ele><time>2026-04-30T13:49:26.999Z</time></trkpt><trkpt lat="38.08620708054603" lon="13.434058924351346"><ele>36.25</ele><time>2026-04-30T13:49:27.999Z</time></trkpt><trkpt lat="38.086220885700236" lon="13.433875562856155"><ele>37.0</ele><time>2026-04-30T13:49:28.999Z</time></trkpt><trkpt lat="38.086229835216876" lon="13.433685767490992"><ele>37.66666666666667</ele><time>2026-04-30T13:49:29.999Z</time></trkpt><trkpt lat="38.086237333632" lon="13.433485895916276"><ele>38.333333333333336</ele><time>2026-04-30T13:49:30.999Z</time></trkpt><trkpt lat="38.086242278872994" lon="13.433275372080827"><ele>39.0</ele><time>2026-04-30T13:49:31.999Z</time></trkpt><trkpt lat="38.086245410390895" lon="13.43304735917457"><ele>38.333333333333336</ele><time>2026-04-30T13:49:32.999Z</time></trkpt><trkpt lat="38.08624404506383" lon="13.432812086061062"><ele>37.66666666666667</ele><time>2026-04-30T13:49:33.999Z</time></trkpt><trkpt lat="38.086242937223275" lon="13.432563023388653"><ele>37.0</ele><time>2026-04-30T13:49:34.999Z</time></trkpt><trkpt lat="38.086236374483775" lon="13.43230137452313"><ele>36.0</ele><time>2026-04-30T13:49:35.999Z</time></trkpt><trkpt lat="38.08622931062664" lon="13.432039314262113"><ele>35.0</ele><time>2026-04-30T13:49:36.999Z</time></trkpt><trkpt lat="38.08621794634302" lon="13.43178348125037"><ele>34.0</ele><time>2026-04-30T13:49:37.999Z</time></trkpt><trkpt lat="38.08620699213406" lon="13.431528037114752"><ele>34.0</ele><time>2026-04-30T13:49:38.999Z</time></trkpt><trkpt lat="38.08619432420286" lon="13.431272922255681"><ele>34.0</ele><time>2026-04-30T13:49:39.999Z</time></trkpt><trkpt lat="38.08618316859113" lon="13.431014741489703"><ele>34.0</ele><time>2026-04-30T13:49:40.999Z</time></trkpt><trkpt lat="38.086171471727326" lon="13.430756342370703"><ele>34.0</ele><time>2026-04-30T13:49:41.999Z</time></trkpt><trkpt lat="38.086156886071166" lon="13.430497343723601"><ele>34.0</ele><time>2026-04-30T13:49:42.999Z</time></trkpt><trkpt lat="38.0861482106569" lon="13.430243148863484"><ele>34.0</ele><time>2026-04-30T13:49:43.999Z</time></trkpt><trkpt lat="38.08613766782516" lon="13.42998672760884"><ele>33.66666666666667</ele><time>2026-04-30T13:49:44.999Z</time></trkpt><trkpt lat="38.086125832448275" lon="13.429732539538948"><ele>33.333333333333336</ele><time>2026-04-30T13:49:45.999Z</time></trkpt><trkpt lat="38.08611550416098" lon="13.429472464049693"><ele>33.0</ele><time>2026-04-30T13:49:46.999Z</time></trkpt><trkpt lat="38.08610435983319" lon="13.42919272518324"><ele>32.5</ele><time>2026-04-30T13:49:47.999Z</time></trkpt><trkpt lat="38.08609432870336" lon="13.428905742610793"><ele>32.0</ele><time>2026-04-30T13:49:48.999Z</time></trkpt><trkpt lat="38.0860839747897" lon="13.428614399146598"><ele>32.0</ele><time>2026-04-30T13:49:49.999Z</time></trkpt><trkpt lat="38.086075324681225" lon="13.428324861827951"><ele>32.0</ele><time>2026-04-30T13:49:50.999Z</time></trkpt><trkpt lat="38.086069891152476" lon="13.42804082687885"><ele>31.333333333333332</ele><time>2026-04-30T13:49:52Z</time></trkpt><trkpt lat="38.08606358831825" lon="13.427758414713061"><ele>30.666666666666664</ele><time>2026-04-30T13:49:53Z</time></trkpt><trkpt lat="38.086057540537254" lon="13.42747209036432"><ele>30.0</ele><time>2026-04-30T13:49:54Z</time></trkpt><trkpt lat="38.08605395334681" lon="13.427188142667928"><ele>29.0</ele><time>2026-04-30T13:49:55Z</time></trkpt><trkpt lat="38.086049952522906" lon="13.42690471514973"><ele>28.0</ele><time>2026-04-30T13:49:56Z</time></trkpt><trkpt lat="38.08604532148882" lon="13.426621268945699"><ele>27.0</ele><time>2026-04-30T13:49:57Z</time></trkpt><trkpt lat="38.08604352878419" lon="13.42634353378213"><ele>26.666666666666664</ele><time>2026-04-30T13:49:58Z</time></trkpt><trkpt lat="38.08604039519346" lon="13.426073940107196"><ele>26.333333333333332</ele><time>2026-04-30T13:49:59Z</time></trkpt><trkpt lat="38.08603820466694" lon="13.425805171231271"><ele>26.0</ele><time>2026-04-30T13:50:00Z</time></trkpt><trkpt lat="38.08603514850284" lon="13.425538498398758"><ele>26.333333333333332</ele><time>2026-04-30T13:50:01Z</time></trkpt><trkpt lat="38.08603271078166" lon="13.425275611040382"><ele>26.666666666666664</ele><time>2026-04-30T13:50:02Z</time></trkpt><trkpt lat="38.086030586289446" lon="13.425012140853376"><ele>27.0</ele><time>2026-04-30T13:50:03Z</time></trkpt><trkpt lat="38.08602433273101" lon="13.424742830003948"><ele>27.666666666666664</ele><time>2026-04-30T13:50:04Z</time></trkpt><trkpt lat="38.08601823791481" lon="13.424472089591026"><ele>28.333333333333332</ele><time>2026-04-30T13:50:05Z</time></trkpt><trkpt lat="38.0860156396317" lon="13.424200560050222"><ele>29.0</ele><time>2026-04-30T13:50:06Z</time></trkpt><trkpt lat="38.08601408206697" lon="13.423926853979257"><ele>29.333333333333332</ele><time>2026-04-30T13:50:07Z</time></trkpt><trkpt lat="38.086014485338055" lon="13.423651611699915"><ele>29.666666666666664</ele><time>2026-04-30T13:50:08Z</time></trkpt><trkpt lat="38.08601479386482" lon="13.423373769624742"><ele>30.0</ele><time>2026-04-30T13:50:09Z</time></trkpt><trkpt lat="38.08601357908275" lon="13.423096200456696"><ele>30.0</ele><time>2026-04-30T13:50:10Z</time></trkpt><trkpt lat="38.08600926092057" lon="13.422816604196532"><ele>30.0</ele><time>2026-04-30T13:50:11Z</time></trkpt><trkpt lat="38.086007107911314" lon="13.42253837400309"><ele>30.0</ele><time>2026-04-30T13:50:12Z</time></trkpt><trkpt lat="38.08600798133859" lon="13.4222625627446"><ele>29.666666666666664</ele><time>2026-04-30T13:50:13Z</time></trkpt><trkpt lat="38.086006801904674" lon="13.421989465465845"><ele>29.333333333333332</ele><time>2026-04-30T13:50:14Z</time></trkpt><trkpt lat="38.08600479403035" lon="13.421719218207189"><ele>29.0</ele><time>2026-04-30T13:50:15Z</time></trkpt><trkpt lat="38.08600178022605" lon="13.421450525616963"><ele>29.333333333333332</ele><time>2026-04-30T13:50:16Z</time></trkpt><trkpt lat="38.08600024651461" lon="13.421177518545573"><ele>29.666666666666664</ele><time>2026-04-30T13:50:16.999Z</time></trkpt><trkpt lat="38.085998414586214" lon="13.420900601740435"><ele>30.0</ele><time>2026-04-30T13:50:17.999Z</time></trkpt><trkpt lat="38.085998026107546" lon="13.420631365662032"><ele>29.666666666666664</ele><time>2026-04-30T13:50:18.999Z</time></trkpt><trkpt lat="38.08599699603102" lon="13.42036769892561"><ele>29.333333333333332</ele><time>2026-04-30T13:50:19.999Z</time></trkpt><trkpt lat="38.08599637446977" lon="13.42011144896626"><ele>29.0</ele><time>2026-04-30T13:50:20.999Z</time></trkpt><trkpt lat="38.085994770505955" lon="13.419852532814376"><ele>29.333333333333332</ele><time>2026-04-30T13:50:21.999Z</time></trkpt><trkpt lat="38.08599396421679" lon="13.419590575190014"><ele>29.666666666666664</ele><time>2026-04-30T13:50:22.999Z</time></trkpt><trkpt lat="38.08599141392374" lon="13.419326071725497"><ele>30.0</ele><time>2026-04-30T13:50:23.999Z</time></trkpt><trkpt lat="38.085987708118516" lon="13.419058334892906"><ele>30.666666666666664</ele><time>2026-04-30T13:50:24.999Z</time></trkpt><trkpt lat="38.085987156601064" lon="13.418792810063637"><ele>31.333333333333332</ele><time>2026-04-30T13:50:25.999Z</time></trkpt><trkpt lat="38.08598409123351" lon="13.418528122263655"><ele>32.0</ele><time>2026-04-30T13:50:26.999Z</time></trkpt><trkpt lat="38.08598232800767" lon="13.418262713963124"><ele>32.0</ele><time>2026-04-30T13:50:27.999Z</time></trkpt><trkpt lat="38.08598271158423" lon="13.417993595396123"><ele>32.0</ele><time>2026-04-30T13:50:28.999Z</time></trkpt><trkpt lat="38.08598105266497" lon="13.417717384449631"><ele>32.0</ele><time>2026-04-30T13:50:29.999Z</time></trkpt><trkpt lat="38.08597702799068" lon="13.417435546555994"><ele>31.333333333333332</ele><time>2026-04-30T13:50:30.999Z</time></trkpt><trkpt lat="38.085971791230016" lon="13.417150743826346"><ele>30.666666666666664</ele><time>2026-04-30T13:50:31.999Z</time></trkpt><trkpt lat="38.08596765276237" lon="13.416866412279953"><ele>30.0</ele><time>2026-04-30T13:50:32.999Z</time></trkpt><trkpt lat="38.085966599962106" lon="13.416586485477428"><ele>30.666666666666664</ele><time>2026-04-30T13:50:33.999Z</time></trkpt><trkpt lat="38.08596543720411" lon="13.416309719825724"><ele>31.333333333333332</ele><time>2026-04-30T13:50:34.999Z</time></trkpt><trkpt lat="38.085965344259556" lon="13.416030481299986"><ele>32.0</ele><time>2026-04-30T13:50:35.999Z</time></trkpt><trkpt lat="38.085971213076625" lon="13.415753623137865"><ele>32.0</ele><time>2026-04-30T13:50:36.999Z</time></trkpt><trkpt lat="38.08597412309358" lon="13.415484775195099"><ele>32.0</ele><time>2026-04-30T13:50:37.999Z</time></trkpt><trkpt lat="38.085973804440215" lon="13.415223677266177"><ele>32.0</ele><time>2026-04-30T13:50:38.999Z</time></trkpt><trkpt lat="38.08597821375821" lon="13.414961220622805"><ele>32.0</ele><time>2026-04-30T13:50:39.999Z</time></trkpt><trkpt lat="38.085982321986855" lon="13.41469624708976"><ele>32.0</ele><time>2026-04-30T13:50:40.999Z</time></trkpt><trkpt lat="38.0859840683404" lon="13.414436081438364"><ele>32.0</ele><time>2026-04-30T13:50:41.999Z</time></trkpt><trkpt lat="38.08598642287399" lon="13.41417709242643"><ele>31.666666666666664</ele><time>2026-04-30T13:50:42.999Z</time></trkpt><trkpt lat="38.085989368481705" lon="13.413928493041587"><ele>31.333333333333336</ele><time>2026-04-30T13:50:43.999Z</time></trkpt><trkpt lat="38.08599386276579" lon="13.413685342603532"><ele>31.0</ele><time>2026-04-30T13:50:44.999Z</time></trkpt><trkpt lat="38.085997845470004" lon="13.413445509936572"><ele>31.0</ele><time>2026-04-30T13:50:45.999Z</time></trkpt><trkpt lat="38.08599980925307" lon="13.413208100890227"><ele>31.0</ele><time>2026-04-30T13:50:46.999Z</time></trkpt><trkpt lat="38.08600224404756" lon="13.412971946686293"><ele>31.0</ele><time>2026-04-30T13:50:47.999Z</time></trkpt><trkpt lat="38.08600940631757" lon="13.412739742570789"><ele>31.0</ele><time>2026-04-30T13:50:48.999Z</time></trkpt><trkpt lat="38.086024751526395" lon="13.412520004263264"><ele>31.0</ele><time>2026-04-30T13:50:49.999Z</time></trkpt><trkpt lat="38.086045259581525" lon="13.412298102110087"><ele>31.0</ele><time>2026-04-30T13:50:50.999Z</time></trkpt><trkpt lat="38.08607068271783" lon="13.412074962984537"><ele>31.0</ele><time>2026-04-30T13:50:51.999Z</time></trkpt><trkpt lat="38.08610295519754" lon="13.411848103139988"><ele>31.0</ele><time>2026-04-30T13:50:52.999Z</time></trkpt><trkpt lat="38.086140985755826" lon="13.411620646708474"><ele>31.0</ele><time>2026-04-30T13:50:53.999Z</time></trkpt><trkpt lat="38.08617805845556" lon="13.41139012367235"><ele>30.333333333333336</ele><time>2026-04-30T13:50:54.999Z</time></trkpt><trkpt lat="38.08621272287028" lon="13.411157412966869"><ele>29.666666666666664</ele><time>2026-04-30T13:50:55.999Z</time></trkpt><trkpt lat="38.08624345524938" lon="13.410920467290211"><ele>29.0</ele><time>2026-04-30T13:50:56.999Z</time></trkpt><trkpt lat="38.086273758831084" lon="13.41067665511454"><ele>29.333333333333332</ele><time>2026-04-30T13:50:57.999Z</time></trkpt><trkpt lat="38.0863037723252" lon="13.410431665156786"><ele>29.666666666666664</ele><time>2026-04-30T13:50:58.999Z</time></trkpt><trkpt lat="38.086328785798486" lon="13.410181270014697"><ele>30.0</ele><time>2026-04-30T13:50:59.999Z</time></trkpt><trkpt lat="38.08634804240348" lon="13.409926371804008"><ele>30.0</ele><time>2026-04-30T13:51:00.999Z</time></trkpt><trkpt lat="38.08636786784094" lon="13.4096749672745"><ele>30.0</ele><time>2026-04-30T13:51:01.999Z</time></trkpt><trkpt lat="38.086388517541955" lon="13.409435395585382"><ele>30.0</ele><time>2026-04-30T13:51:02.999Z</time></trkpt><trkpt lat="38.08640960301461" lon="13.409201524804141"><ele>30.333333333333336</ele><time>2026-04-30T13:51:03.999Z</time></trkpt><trkpt lat="38.086430094628334" lon="13.408968061813495"><ele>30.666666666666668</ele><time>2026-04-30T13:51:04.999Z</time></trkpt><trkpt lat="38.086450056985726" lon="13.408736158830417"><ele>31.0</ele><time>2026-04-30T13:51:05.999Z</time></trkpt><trkpt lat="38.08647228931281" lon="13.408506883177775"><ele>31.0</ele><time>2026-04-30T13:51:06.999Z</time></trkpt><trkpt lat="38.0864992029343" lon="13.408279351316782"><ele>31.0</ele><time>2026-04-30T13:51:07.999Z</time></trkpt><trkpt lat="38.08652978553788" lon="13.408055882320003"><ele>31.0</ele><time>2026-04-30T13:51:08.999Z</time></trkpt><trkpt lat="38.08655566050714" lon="13.407846147890433"><ele>31.0</ele><time>2026-04-30T13:51:09.999Z</time></trkpt><trkpt lat="38.08659121249831" lon="13.407624604724134"><ele>31.0</ele><time>2026-04-30T13:51:10.999Z</time></trkpt><trkpt lat="38.086632748228304" lon="13.407403493802924"><ele>31.0</ele><time>2026-04-30T13:51:11.999Z</time></trkpt><trkpt lat="38.086669891940225" lon="13.40717515485547"><ele>31.0</ele><time>2026-04-30T13:51:12.999Z</time></trkpt><trkpt lat="38.086703969344995" lon="13.406939828835183"><ele>31.0</ele><time>2026-04-30T13:51:13.999Z</time></trkpt><trkpt lat="38.08673670039663" lon="13.406712279801994"><ele>31.0</ele><time>2026-04-30T13:51:14.999Z</time></trkpt><trkpt lat="38.08677120347579" lon="13.406505458903395"><ele>30.666666666666668</ele><time>2026-04-30T13:51:15.999Z</time></trkpt><trkpt lat="38.08681179245828" lon="13.406289753628467"><ele>30.333333333333336</ele><time>2026-04-30T13:51:16.999Z</time></trkpt><trkpt lat="38.08687464697273" lon="13.406090509603287"><ele>30.0</ele><time>2026-04-30T13:51:17.999Z</time></trkpt><trkpt lat="38.08696322150071" lon="13.405936868778749"><ele>30.0</ele><time>2026-04-30T13:51:18.999Z</time></trkpt><trkpt lat="38.08707139405972" lon="13.405826173663971"><ele>30.0</ele><time>2026-04-30T13:51:19.999Z</time></trkpt><trkpt lat="38.087199737519576" lon="13.405750920926275"><ele>30.0</ele><time>2026-04-30T13:51:20.999Z</time></trkpt><trkpt lat="38.08733930810081" lon="13.405711537769514"><ele>30.0</ele><time>2026-04-30T13:51:21.999Z</time></trkpt><trkpt lat="38.087473651538524" lon="13.405714357290572"><ele>30.0</ele><time>2026-04-30T13:51:22.999Z</time></trkpt><trkpt lat="38.08757507712245" lon="13.405752513350778"><ele>30.0</ele><time>2026-04-30T13:51:23.999Z</time></trkpt><trkpt lat="38.08766406572748" lon="13.405805379623699"><ele>30.0</ele><time>2026-04-30T13:51:24.999Z</time></trkpt><trkpt lat="38.08774976423013" lon="13.405886615637268"><ele>30.0</ele><time>2026-04-30T13:51:25.999Z</time></trkpt><trkpt lat="38.08785561751685" lon="13.405980640806586"><ele>30.0</ele><time>2026-04-30T13:51:26.999Z</time></trkpt><trkpt lat="38.087981066621424" lon="13.406074013219369"><ele>30.0</ele><time>2026-04-30T13:51:27.999Z</time></trkpt><trkpt lat="38.08811682296784" lon="13.406175539407371"><ele>30.0</ele><time>2026-04-30T13:51:28.999Z</time></trkpt><trkpt lat="38.0882521052708" lon="13.406277158001945"><ele>30.0</ele><time>2026-04-30T13:51:29.999Z</time></trkpt><trkpt lat="38.0883939720346" lon="13.406382780227405"><ele>29.666666666666664</ele><time>2026-04-30T13:51:30.999Z</time></trkpt><trkpt lat="38.088546519459655" lon="13.406494314983975"><ele>29.333333333333332</ele><time>2026-04-30T13:51:31.999Z</time></trkpt><trkpt lat="38.088697041984545" lon="13.406608190120785"><ele>29.0</ele><time>2026-04-30T13:51:32.999Z</time></trkpt><trkpt lat="38.08884912355118" lon="13.406725101700191"><ele>29.0</ele><time>2026-04-30T13:51:33.999Z</time></trkpt><trkpt lat="38.08900754929878" lon="13.406845654633834"><ele>29.0</ele><time>2026-04-30T13:51:34.999Z</time></trkpt><trkpt lat="38.08916856684923" lon="13.406966902873943"><ele>29.0</ele><time>2026-04-30T13:51:35.999Z</time></trkpt><trkpt lat="38.08932656229393" lon="13.407085811608566"><ele>28.0</ele><time>2026-04-30T13:51:36.999Z</time></trkpt><trkpt lat="38.089483390879316" lon="13.40720989864512"><ele>27.0</ele><time>2026-04-30T13:51:37.999Z</time></trkpt><trkpt lat="38.08963624954673" lon="13.407331820556449"><ele>26.0</ele><time>2026-04-30T13:51:38.999Z</time></trkpt><trkpt lat="38.089784084201135" lon="13.40744605852694"><ele>25.666666666666664</ele><time>2026-04-30T13:51:39.999Z</time></trkpt><trkpt lat="38.089928193666495" lon="13.40755891868431"><ele>25.333333333333336</ele><time>2026-04-30T13:51:40.999Z</time></trkpt><trkpt lat="38.09006428988282" lon="13.407672808386767"><ele>25.0</ele><time>2026-04-30T13:51:41.999Z</time></trkpt><trkpt lat="38.09019668244757" lon="13.407788779197862"><ele>25.0</ele><time>2026-04-30T13:51:42.999Z</time></trkpt><trkpt lat="38.09032885203999" lon="13.40790631990175"><ele>25.0</ele><time>2026-04-30T13:51:43.999Z</time></trkpt><trkpt lat="38.09045049968912" lon="13.408022540159553"><ele>25.0</ele><time>2026-04-30T13:51:44.999Z</time></trkpt><trkpt lat="38.09057346884521" lon="13.408137205238322"><ele>24.75</ele><time>2026-04-30T13:51:45.999Z</time></trkpt><trkpt lat="38.09068862854618" lon="13.408247183919807"><ele>24.5</ele><time>2026-04-30T13:51:46.999Z</time></trkpt><trkpt lat="38.0907951906984" lon="13.408351647848622"><ele>24.25</ele><time>2026-04-30T13:51:47.999Z</time></trkpt><trkpt lat="38.09089749038916" lon="13.408452984730861"><ele>24.0</ele><time>2026-04-30T13:51:48.999Z</time></trkpt><trkpt lat="38.0909913298025" lon="13.408552619834234"><ele>24.0</ele><time>2026-04-30T13:51:49.999Z</time></trkpt><trkpt lat="38.091080463830004" lon="13.408645217044894"><ele>24.0</ele><time>2026-04-30T13:51:50.999Z</time></trkpt><trkpt lat="38.09115471910492" lon="13.40872799576585"><ele>24.0</ele><time>2026-04-30T13:51:51.999Z</time></trkpt><trkpt lat="38.09121201391343" lon="13.408795557555296"><ele>24.0</ele><time>2026-04-30T13:51:52.999Z</time></trkpt><trkpt lat="38.091262574644205" lon="13.40885402798612"><ele>24.0</ele><time>2026-04-30T13:51:53.999Z</time></trkpt><trkpt lat="38.09133791270167" lon="13.40893956841349"><ele>24.0</ele><time>2026-04-30T13:51:55.999Z</time></trkpt><trkpt lat="38.0914036758184" lon="13.409006066838826"><ele>24.0</ele><time>2026-04-30T13:51:58Z</time></trkpt><trkpt lat="38.09146504779407" lon="13.409056720267165"><ele>24.0</ele><time>2026-04-30T13:52:00Z</time></trkpt><trkpt lat="38.09152438462156" lon="13.409104055297828"><ele>24.0</ele><time>2026-04-30T13:52:02Z</time></trkpt><trkpt lat="38.091564051420754" lon="13.409171479137198"><ele>24.0</ele><time>2026-04-30T13:52:04Z</time></trkpt><trkpt lat="38.09156305720964" lon="13.409299883964938"><ele>24.0</ele><time>2026-04-30T13:52:07Z</time></trkpt><trkpt lat="38.09159116204169" lon="13.409454245190071"><ele>23.857142857142854</ele><time>2026-04-30T13:52:09Z</time></trkpt><trkpt lat="38.09162802132187" lon="13.409519223900457"><ele>23.714285714285715</ele><time>2026-04-30T13:52:10Z</time></trkpt><trkpt lat="38.09171014711019" lon="13.409558915124814"><ele>23.57142857142857</ele><time>2026-04-30T13:52:12Z</time></trkpt><trkpt lat="38.09178083892088" lon="13.409537225022435"><ele>23.428571428571427</ele><time>2026-04-30T13:52:14Z</time></trkpt><trkpt lat="38.0918360269623" lon="13.40949409872449"><ele>23.285714285714285</ele><time>2026-04-30T13:52:16Z</time></trkpt><trkpt lat="38.09186973928728" lon="13.409416148863917"><ele>23.142857142857142</ele><time>2026-04-30T13:52:18Z</time></trkpt><trkpt lat="38.09193464114254" lon="13.4093450303841"><ele>23.0</ele><time>2026-04-30T13:52:19Z</time></trkpt><trkpt lat="38.09199404395041" lon="13.409230408104728"><ele>23.0</ele><time>2026-04-30T13:52:20Z</time></trkpt><trkpt lat="38.0920471223888" lon="13.409083311351296"><ele>23.0</ele><time>2026-04-30T13:52:21Z</time></trkpt><trkpt lat="38.092103338037425" lon="13.408908839720349"><ele>23.0</ele><time>2026-04-30T13:52:22Z</time></trkpt><trkpt lat="38.09216851178518" lon="13.40870240342444"><ele>23.666666666666668</ele><time>2026-04-30T13:52:22.999Z</time></trkpt><trkpt lat="38.09224288979879" lon="13.408457319435621"><ele>24.333333333333336</ele><time>2026-04-30T13:52:23.999Z</time></trkpt><trkpt lat="38.09232824617722" lon="13.40817736456783"><ele>25.0</ele><time>2026-04-30T13:52:24.999Z</time></trkpt><trkpt lat="38.09241751908129" lon="13.407881435210099"><ele>22.5</ele><time>2026-04-30T13:52:25.999Z</time></trkpt><trkpt lat="38.092509747647476" lon="13.407586689820993"><ele>20.0</ele><time>2026-04-30T13:52:26.999Z</time></trkpt><trkpt lat="38.092609549380576" lon="13.40726333204263"><ele>20.0</ele><time>2026-04-30T13:52:27.999Z</time></trkpt><trkpt lat="38.0927189776931" lon="13.406916382175604"><ele>20.0</ele><time>2026-04-30T13:52:28.999Z</time></trkpt><trkpt lat="38.09281086391637" lon="13.406638193601504"><ele>20.0</ele><time>2026-04-30T13:52:29.999Z</time></trkpt><trkpt lat="38.092890739301815" lon="13.40641597120342"><ele>20.0</ele><time>2026-04-30T13:52:30.999Z</time></trkpt><trkpt lat="38.092964612640635" lon="13.406182672691138"><ele>20.0</ele><time>2026-04-30T13:52:31.999Z</time></trkpt><trkpt lat="38.093047500824824" lon="13.405907099675433"><ele>20.5</ele><time>2026-04-30T13:52:32.999Z</time></trkpt><trkpt lat="38.09313755590704" lon="13.405613352825634"><ele>21.0</ele><time>2026-04-30T13:52:33.999Z</time></trkpt><trkpt lat="38.093220797147914" lon="13.405343670582264"><ele>20.666666666666668</ele><time>2026-04-30T13:52:34.999Z</time></trkpt><trkpt lat="38.093297270185346" lon="13.40508467457163"><ele>20.333333333333336</ele><time>2026-04-30T13:52:35.999Z</time></trkpt><trkpt lat="38.093374813784" lon="13.404833704178035"><ele>20.0</ele><time>2026-04-30T13:52:36.999Z</time></trkpt><trkpt lat="38.09344942990989" lon="13.404600598481366"><ele>20.666666666666668</ele><time>2026-04-30T13:52:37.999Z</time></trkpt><trkpt lat="38.09351896045539" lon="13.404382983832217"><ele>21.333333333333332</ele><time>2026-04-30T13:52:38.999Z</time></trkpt><trkpt lat="38.093579307109735" lon="13.404184361694657"><ele>22.0</ele><time>2026-04-30T13:52:39.999Z</time></trkpt><trkpt lat="38.09363868672626" lon="13.403993250302948"><ele>21.5</ele><time>2026-04-30T13:52:40.999Z</time></trkpt><trkpt lat="38.09369716311473" lon="13.403817303217751"><ele>21.0</ele><time>2026-04-30T13:52:41.999Z</time></trkpt><trkpt lat="38.093749253402756" lon="13.403650169493531"><ele>20.5</ele><time>2026-04-30T13:52:42.999Z</time></trkpt><trkpt lat="38.09379354739419" lon="13.403495672385656"><ele>20.0</ele><time>2026-04-30T13:52:43.999Z</time></trkpt><trkpt lat="38.09383454026855" lon="13.4033746995625"><ele>20.0</ele><time>2026-04-30T13:52:44.999Z</time></trkpt><trkpt lat="38.09387242822249" lon="13.403277329025492"><ele>20.0</ele><time>2026-04-30T13:52:45.999Z</time></trkpt><trkpt lat="38.0939047117261" lon="13.403181757189138"><ele>20.0</ele><time>2026-04-30T13:52:46.999Z</time></trkpt><trkpt lat="38.09393779700969" lon="13.403086281548756"><ele>20.0</ele><time>2026-04-30T13:52:47.999Z</time></trkpt><trkpt lat="38.0939826266138" lon="13.402990939397352"><ele>20.0</ele><time>2026-04-30T13:52:48.999Z</time></trkpt><trkpt lat="38.09403595001667" lon="13.402891364041647"><ele>20.0</ele><time>2026-04-30T13:52:49.999Z</time></trkpt><trkpt lat="38.094085924186906" lon="13.402779838926127"><ele>20.25</ele><time>2026-04-30T13:52:50.999Z</time></trkpt><trkpt lat="38.09410938155357" lon="13.402630851894502"><ele>20.5</ele><time>2026-04-30T13:52:51.999Z</time></trkpt><trkpt lat="38.094120152650724" lon="13.402447542446229"><ele>20.75</ele><time>2026-04-30T13:52:52.999Z</time></trkpt><trkpt lat="38.094162497246245" lon="13.402250393984225"><ele>21.0</ele><time>2026-04-30T13:52:53.999Z</time></trkpt><trkpt lat="38.094220126291304" lon="13.402065915674367"><ele>21.0</ele><time>2026-04-30T13:52:54.999Z</time></trkpt><trkpt lat="38.0942800761853" lon="13.401878694564232"><ele>21.0</ele><time>2026-04-30T13:52:55.999Z</time></trkpt><trkpt lat="38.09433927797535" lon="13.401700583912593"><ele>21.0</ele><time>2026-04-30T13:52:56.999Z</time></trkpt><trkpt lat="38.094391048454256" lon="13.401531354291585"><ele>21.0</ele><time>2026-04-30T13:52:57.999Z</time></trkpt><trkpt lat="38.09443917101555" lon="13.401368126169027"><ele>21.0</ele><time>2026-04-30T13:52:58.999Z</time></trkpt><trkpt lat="38.09449873617137" lon="13.401195841330878"><ele>21.0</ele><time>2026-04-30T13:52:59.999Z</time></trkpt><trkpt lat="38.09456223021347" lon="13.401013958764306"><ele>21.0</ele><time>2026-04-30T13:53:00.999Z</time></trkpt><trkpt lat="38.09462075732144" lon="13.400823768448795"><ele>21.0</ele><time>2026-04-30T13:53:01.999Z</time></trkpt><trkpt lat="38.09467453602615" lon="13.40062658420195"><ele>21.0</ele><time>2026-04-30T13:53:02.999Z</time></trkpt><trkpt lat="38.09472748022978" lon="13.400428081037514"><ele>21.0</ele><time>2026-04-30T13:53:03.999Z</time></trkpt><trkpt lat="38.094784562530045" lon="13.400233722823476"><ele>21.0</ele><time>2026-04-30T13:53:04.999Z</time></trkpt><trkpt lat="38.09483988234789" lon="13.400042506152776"><ele>21.0</ele><time>2026-04-30T13:53:05.999Z</time></trkpt><trkpt lat="38.09489603937778" lon="13.399863750686231"><ele>21.0</ele><time>2026-04-30T13:53:06.999Z</time></trkpt><trkpt lat="38.09495101018756" lon="13.399700901378308"><ele>21.25</ele><time>2026-04-30T13:53:07.999Z</time></trkpt><trkpt lat="38.095004457852575" lon="13.399538009097874"><ele>21.5</ele><time>2026-04-30T13:53:08.999Z</time></trkpt><trkpt lat="38.09505607079617" lon="13.399375536139424"><ele>21.75</ele><time>2026-04-30T13:53:09.999Z</time></trkpt><trkpt lat="38.09510679068266" lon="13.39922125990483"><ele>22.0</ele><time>2026-04-30T13:53:10.999Z</time></trkpt><trkpt lat="38.095162449212076" lon="13.399059082574428"><ele>22.0</ele><time>2026-04-30T13:53:11.999Z</time></trkpt><trkpt lat="38.095219098846805" lon="13.398894907617288"><ele>22.0</ele><time>2026-04-30T13:53:12.999Z</time></trkpt><trkpt lat="38.095271538594474" lon="13.398733526365016"><ele>22.0</ele><time>2026-04-30T13:53:13.999Z</time></trkpt><trkpt lat="38.09531701403749" lon="13.398587110179262"><ele>22.0</ele><time>2026-04-30T13:53:14.999Z</time></trkpt><trkpt lat="38.09535398328904" lon="13.398450351567826"><ele>21.833333333333332</ele><time>2026-04-30T13:53:15.999Z</time></trkpt><trkpt lat="38.09539175323855" lon="13.398339032260703"><ele>21.666666666666664</ele><time>2026-04-30T13:53:16.999Z</time></trkpt><trkpt lat="38.095422790866444" lon="13.398240868751076"><ele>21.5</ele><time>2026-04-30T13:53:17.999Z</time></trkpt><trkpt lat="38.09544340831933" lon="13.398144269978346"><ele>21.333333333333332</ele><time>2026-04-30T13:53:18.999Z</time></trkpt><trkpt lat="38.095460620133686" lon="13.398052547833181"><ele>21.166666666666668</ele><time>2026-04-30T13:53:19.999Z</time></trkpt><trkpt lat="38.09547872591985" lon="13.397953113087757"><ele>21.0</ele><time>2026-04-30T13:53:20.999Z</time></trkpt><trkpt lat="38.09551288675151" lon="13.397833830739884"><ele>21.0</ele><time>2026-04-30T13:53:21.999Z</time></trkpt><trkpt lat="38.09554714010834" lon="13.397701172104552"><ele>21.0</ele><time>2026-04-30T13:53:22.999Z</time></trkpt><trkpt lat="38.095584935796076" lon="13.397586904346499"><ele>21.0</ele><time>2026-04-30T13:53:23.999Z</time></trkpt><trkpt lat="38.09561695745501" lon="13.397497657073458"><ele>21.0</ele><time>2026-04-30T13:53:24.999Z</time></trkpt><trkpt lat="38.09565679527625" lon="13.397417635275481"><ele>21.0</ele><time>2026-04-30T13:53:25.999Z</time></trkpt><trkpt lat="38.095700687022074" lon="13.39733500372265"><ele>21.0</ele><time>2026-04-30T13:53:26.999Z</time></trkpt><trkpt lat="38.09573505581037" lon="13.39723634807022"><ele>21.0</ele><time>2026-04-30T13:53:27.999Z</time></trkpt><trkpt lat="38.09575232616555" lon="13.397138880885747"><ele>21.0</ele><time>2026-04-30T13:53:28.999Z</time></trkpt><trkpt lat="38.0957765688913" lon="13.397054341708527"><ele>21.0</ele><time>2026-04-30T13:53:29.999Z</time></trkpt><trkpt lat="38.09580613728607" lon="13.396963062993489"><ele>21.0</ele><time>2026-04-30T13:53:30.999Z</time></trkpt><trkpt lat="38.09583907773396" lon="13.396851177667607"><ele>21.0</ele><time>2026-04-30T13:53:31.999Z</time></trkpt><trkpt lat="38.095873766128854" lon="13.396723144171267"><ele>21.0</ele><time>2026-04-30T13:53:32.999Z</time></trkpt><trkpt lat="38.09591907551779" lon="13.396584878417055"><ele>21.0</ele><time>2026-04-30T13:53:33.999Z</time></trkpt><trkpt lat="38.09597779182716" lon="13.396416917408327"><ele>21.0</ele><time>2026-04-30T13:53:34.999Z</time></trkpt><trkpt lat="38.09604393328068" lon="13.396224505493171"><ele>21.0</ele><time>2026-04-30T13:53:35.999Z</time></trkpt><trkpt lat="38.09610774557179" lon="13.396026225077257"><ele>21.0</ele><time>2026-04-30T13:53:36.999Z</time></trkpt><trkpt lat="38.09616340242734" lon="13.395845321025018"><ele>21.0</ele><time>2026-04-30T13:53:37.999Z</time></trkpt><trkpt lat="38.096216562316044" lon="13.395681102659532"><ele>21.0</ele><time>2026-04-30T13:53:38.999Z</time></trkpt><trkpt lat="38.09626695951103" lon="13.395519407829854"><ele>21.0</ele><time>2026-04-30T13:53:39.999Z</time></trkpt><trkpt lat="38.096318262439034" lon="13.395359723625845"><ele>21.75</ele><time>2026-04-30T13:53:40.999Z</time></trkpt><trkpt lat="38.096372269678035" lon="13.395205394044636"><ele>22.5</ele><time>2026-04-30T13:53:41.999Z</time></trkpt><trkpt lat="38.096421184645195" lon="13.395054518203716"><ele>23.25</ele><time>2026-04-30T13:53:42.999Z</time></trkpt><trkpt lat="38.096466123045914" lon="13.394912840472868"><ele>24.0</ele><time>2026-04-30T13:53:43.999Z</time></trkpt><trkpt lat="38.0965066022243" lon="13.394775745126049"><ele>24.0</ele><time>2026-04-30T13:53:44.999Z</time></trkpt><trkpt lat="38.09654628101193" lon="13.394644969204261"><ele>24.0</ele><time>2026-04-30T13:53:45.999Z</time></trkpt><trkpt lat="38.09658430585695" lon="13.394525560056017"><ele>24.0</ele><time>2026-04-30T13:53:46.999Z</time></trkpt><trkpt lat="38.09661744143767" lon="13.394421824574572"><ele>24.0</ele><time>2026-04-30T13:53:47.999Z</time></trkpt><trkpt lat="38.09663855877751" lon="13.394344131772778"><ele>24.0</ele><time>2026-04-30T13:53:48.999Z</time></trkpt><trkpt lat="38.09666488353369" lon="13.394220607977985"><ele>23.799999999999997</ele><time>2026-04-30T13:53:51.999Z</time></trkpt><trkpt lat="38.0967035083369" lon="13.39409713471809"><ele>23.599999999999998</ele><time>2026-04-30T13:53:53.999Z</time></trkpt><trkpt lat="38.096735533160086" lon="13.39399042867739"><ele>23.4</ele><time>2026-04-30T13:53:55.999Z</time></trkpt><trkpt lat="38.096788440219875" lon="13.393831327679596"><ele>23.2</ele><time>2026-04-30T13:53:57.999Z</time></trkpt><trkpt lat="38.096824610333" lon="13.393719493576452"><ele>23.0</ele><time>2026-04-30T13:53:58.999Z</time></trkpt><trkpt lat="38.09686160407669" lon="13.393590322655417"><ele>23.0</ele><time>2026-04-30T13:53:59.999Z</time></trkpt><trkpt lat="38.09689342243022" lon="13.393435377209551"><ele>23.0</ele><time>2026-04-30T13:54:00.999Z</time></trkpt><trkpt lat="38.09692637791529" lon="13.393263860239124"><ele>23.0</ele><time>2026-04-30T13:54:01.999Z</time></trkpt><trkpt lat="38.096952761897434" lon="13.39308272268216"><ele>23.0</ele><time>2026-04-30T13:54:03Z</time></trkpt><trkpt lat="38.09697504016646" lon="13.392910490600448"><ele>23.25</ele><time>2026-04-30T13:54:04Z</time></trkpt><trkpt lat="38.096993064705266" lon="13.392743164166493"><ele>23.5</ele><time>2026-04-30T13:54:05Z</time></trkpt><trkpt lat="38.09700837446743" lon="13.392584843237538"><ele>23.75</ele><time>2026-04-30T13:54:06Z</time></trkpt><trkpt lat="38.097016194083025" lon="13.392439363438916"><ele>24.0</ele><time>2026-04-30T13:54:07Z</time></trkpt><trkpt lat="38.097019845662736" lon="13.392314922429547"><ele>24.0</ele><time>2026-04-30T13:54:08Z</time></trkpt><trkpt lat="38.09702204210434" lon="13.39220468689597"><ele>24.0</ele><time>2026-04-30T13:54:09Z</time></trkpt><trkpt lat="38.09702661011843" lon="13.392092864901224"><ele>24.0</ele><time>2026-04-30T13:54:10Z</time></trkpt><trkpt lat="38.09704293942601" lon="13.39197182985082"><ele>24.0</ele><time>2026-04-30T13:54:11Z</time></trkpt><trkpt lat="38.0970772239948" lon="13.391858977221077"><ele>24.0</ele><time>2026-04-30T13:54:12Z</time></trkpt><trkpt lat="38.097129481521165" lon="13.391765814378116"><ele>24.0</ele><time>2026-04-30T13:54:13Z</time></trkpt><trkpt lat="38.097187369099814" lon="13.391676428639657"><ele>24.0</ele><time>2026-04-30T13:54:14Z</time></trkpt><trkpt lat="38.09724484612108" lon="13.391573779773363"><ele>24.0</ele><time>2026-04-30T13:54:15Z</time></trkpt><trkpt lat="38.09731619535122" lon="13.391469663472424"><ele>24.0</ele><time>2026-04-30T13:54:16Z</time></trkpt><trkpt lat="38.09740280671896" lon="13.391334626978189"><ele>24.0</ele><time>2026-04-30T13:54:17Z</time></trkpt><trkpt lat="38.097481576510255" lon="13.391204214627782"><ele>23.4</ele><time>2026-04-30T13:54:18Z</time></trkpt><trkpt lat="38.0975508451987" lon="13.391090271300246"><ele>22.799999999999997</ele><time>2026-04-30T13:54:19Z</time></trkpt><trkpt lat="38.097609516046305" lon="13.390981145701415"><ele>22.200000000000003</ele><time>2026-04-30T13:54:20Z</time></trkpt><trkpt lat="38.097655447813985" lon="13.390891064148121"><ele>21.6</ele><time>2026-04-30T13:54:21Z</time></trkpt><trkpt lat="38.097712362998806" lon="13.39081900689894"><ele>21.0</ele><time>2026-04-30T13:54:23Z</time></trkpt><trkpt lat="38.09778358296264" lon="13.390858387181966"><ele>21.0</ele><time>2026-04-30T13:54:26Z</time></trkpt><trkpt lat="38.097854590768485" lon="13.390918193990903"><ele>21.0</ele><time>2026-04-30T13:54:36.999Z</time></trkpt><trkpt lat="38.09793373312232" lon="13.390953640317246"><ele>21.0</ele><time>2026-04-30T13:54:37.999Z</time></trkpt><trkpt lat="38.09799880218723" lon="13.390998781802132"><ele>21.0</ele><time>2026-04-30T13:54:38.999Z</time></trkpt><trkpt lat="38.09807384698021" lon="13.391055941832898"><ele>21.0</ele><time>2026-04-30T13:54:39.999Z</time></trkpt><trkpt lat="38.09816598042694" lon="13.391130169499569"><ele>21.0</ele><time>2026-04-30T13:54:40.999Z</time></trkpt><trkpt lat="38.09828703114886" lon="13.391226866191772"><ele>21.0</ele><time>2026-04-30T13:54:41.999Z</time></trkpt><trkpt lat="38.09839495492761" lon="13.391307908615353"><ele>21.0</ele><time>2026-04-30T13:54:42.999Z</time></trkpt><trkpt lat="38.09848763829319" lon="13.391394738806957"><ele>21.0</ele><time>2026-04-30T13:54:43.999Z</time></trkpt><trkpt lat="38.09857416330551" lon="13.391450452961521"><ele>21.0</ele><time>2026-04-30T13:54:44.999Z</time></trkpt><trkpt lat="38.09865298221394" lon="13.39150497572748"><ele>21.0</ele><time>2026-04-30T13:54:45.999Z</time></trkpt><trkpt lat="38.09870863799466" lon="13.391558530846007"><ele>21.833333333333332</ele><time>2026-04-30T13:54:46.999Z</time></trkpt><trkpt lat="38.09876576794047" lon="13.391607820216475"><ele>22.666666666666664</ele><time>2026-04-30T13:54:47.999Z</time></trkpt><trkpt lat="38.09883337660288" lon="13.391672372727026"><ele>23.5</ele><time>2026-04-30T13:54:49.999Z</time></trkpt><trkpt lat="38.09890411824806" lon="13.391769297655063"><ele>24.333333333333332</ele><time>2026-04-30T13:54:52.999Z</time></trkpt><trkpt lat="38.09895963474845" lon="13.391817080273679"><ele>25.166666666666664</ele><time>2026-04-30T13:54:53.999Z</time></trkpt><trkpt lat="38.09904146870158" lon="13.391898277783701"><ele>26.0</ele><time>2026-04-30T13:54:55.999Z</time></trkpt><trkpt lat="38.09911346683325" lon="13.391950529323987"><ele>26.333333333333332</ele><time>2026-04-30T13:54:57.999Z</time></trkpt><trkpt lat="38.09922532731082" lon="13.392008593497685"><ele>26.666666666666664</ele><time>2026-04-30T13:54:59.999Z</time></trkpt><trkpt lat="38.09929766134426" lon="13.392046819153073"><ele>27.0</ele><time>2026-04-30T13:55:00.999Z</time></trkpt><trkpt lat="38.09936724590574" lon="13.392086962045477"><ele>27.333333333333336</ele><time>2026-04-30T13:55:01.999Z</time></trkpt><trkpt lat="38.099431044188485" lon="13.39212196589832"><ele>27.666666666666668</ele><time>2026-04-30T13:55:02.999Z</time></trkpt><trkpt lat="38.09948621334348" lon="13.392166469656402"><ele>28.0</ele><time>2026-04-30T13:55:03.999Z</time></trkpt><trkpt lat="38.09954076924735" lon="13.392213604176805"><ele>28.2</ele><time>2026-04-30T13:55:04.999Z</time></trkpt><trkpt lat="38.09961123535596" lon="13.39226742353978"><ele>28.4</ele><time>2026-04-30T13:55:06.999Z</time></trkpt><trkpt lat="38.09970563221056" lon="13.392321561455997"><ele>28.599999999999998</ele><time>2026-04-30T13:55:08.999Z</time></trkpt><trkpt lat="38.099821136425014" lon="13.39240025584105"><ele>28.799999999999997</ele><time>2026-04-30T13:55:10.999Z</time></trkpt><trkpt lat="38.099884011636014" lon="13.392445316440995"><ele>29.0</ele><time>2026-04-30T13:55:11.999Z</time></trkpt><trkpt lat="38.099936337228705" lon="13.392510883943178"><ele>28.0</ele><time>2026-04-30T13:55:12.999Z</time></trkpt><trkpt lat="38.099979181484365" lon="13.392576921766222"><ele>27.0</ele><time>2026-04-30T13:55:13.999Z</time></trkpt><trkpt lat="38.10003927444303" lon="13.392681574262445"><ele>26.0</ele><time>2026-04-30T13:55:15.999Z</time></trkpt><trkpt lat="38.1001204960601" lon="13.392767417060638"><ele>25.0</ele><time>2026-04-30T13:55:17.999Z</time></trkpt><trkpt lat="38.10018509766604" lon="13.392763182627958"><ele>24.0</ele><time>2026-04-30T13:55:24.999Z</time></trkpt><trkpt lat="38.100305116884236" lon="13.392764119688314"><ele>24.0</ele><time>2026-04-30T13:57:13.999Z</time></trkpt><trkpt lat="38.10036690530442" lon="13.392831734811752"><ele>24.0</ele><time>2026-04-30T13:57:15.999Z</time></trkpt><trkpt lat="38.100418856050666" lon="13.392884239168302"><ele>24.0</ele><time>2026-04-30T13:57:17.999Z</time></trkpt><trkpt lat="38.10047571173881" lon="13.392937770859833"><ele>24.0</ele><time>2026-04-30T13:57:19.999Z</time></trkpt><trkpt lat="38.10055168175579" lon="13.39299852106101"><ele>24.0</ele><time>2026-04-30T13:57:21.999Z</time></trkpt><trkpt lat="38.100637457622895" lon="13.393060894978598"><ele>24.0</ele><time>2026-04-30T13:57:23.999Z</time></trkpt><trkpt lat="38.10073667342249" lon="13.393140228170157"><ele>22.8</ele><time>2026-04-30T13:57:25.999Z</time></trkpt><trkpt lat="38.100816478538626" lon="13.39319980429876"><ele>21.599999999999998</ele><time>2026-04-30T13:57:27.999Z</time></trkpt><trkpt lat="38.10080039791267" lon="13.393314506374494"><ele>20.4</ele><time>2026-04-30T13:57:29.999Z</time></trkpt><trkpt lat="38.1008523019898" lon="13.39336404485927"><ele>19.2</ele><time>2026-04-30T13:57:31.999Z</time></trkpt><trkpt lat="38.10095892126643" lon="13.393443571940967"><ele>18.0</ele><time>2026-04-30T13:57:33.999Z</time></trkpt><trkpt lat="38.10105270711378" lon="13.393514547165218"><ele>18.0</ele><time>2026-04-30T13:57:35.999Z</time></trkpt><trkpt lat="38.10112548656329" lon="13.393584805950518"><ele>18.0</ele><time>2026-04-30T13:57:37.999Z</time></trkpt><trkpt lat="38.1012056645736" lon="13.393650794968082"><ele>18.0</ele><time>2026-04-30T13:57:39.999Z</time></trkpt><trkpt lat="38.101275276011584" lon="13.393713392361528"><ele>18.0</ele><time>2026-04-30T13:57:41.999Z</time></trkpt><trkpt lat="38.101367931045075" lon="13.393785054070554"><ele>18.0</ele><time>2026-04-30T13:57:43.999Z</time></trkpt><trkpt lat="38.10142283819053" lon="13.393828006591715"><ele>18.0</ele><time>2026-04-30T13:57:44.999Z</time></trkpt><trkpt lat="38.101491372945304" lon="13.393883751200267"><ele>17.4</ele><time>2026-04-30T13:57:45.999Z</time></trkpt><trkpt lat="38.101567073776984" lon="13.393948786135574"><ele>16.8</ele><time>2026-04-30T13:57:46.999Z</time></trkpt><trkpt lat="38.101655362819" lon="13.394029799416689"><ele>16.2</ele><time>2026-04-30T13:57:47.999Z</time></trkpt><trkpt lat="38.10178682932797" lon="13.394004556281988"><ele>15.6</ele><time>2026-04-30T13:57:48.999Z</time></trkpt><trkpt lat="38.101857468365985" lon="13.39407394603954"><ele>15.0</ele><time>2026-04-30T13:57:49.999Z</time></trkpt><trkpt lat="38.101928207388355" lon="13.39414148739095"><ele>14.2</ele><time>2026-04-30T13:57:50.999Z</time></trkpt><trkpt lat="38.10199537254464" lon="13.39420659029418"><ele>13.4</ele><time>2026-04-30T13:57:51.999Z</time></trkpt><trkpt lat="38.102060308113295" lon="13.394282157361602"><ele>12.600000000000001</ele><time>2026-04-30T13:57:52.999Z</time></trkpt><trkpt lat="38.10213307311643" lon="13.39435163588979"><ele>11.8</ele><time>2026-04-30T13:57:53.999Z</time></trkpt><trkpt lat="38.10221850218711" lon="13.394428617873185"><ele>11.0</ele><time>2026-04-30T13:57:54.999Z</time></trkpt><trkpt lat="38.10231123907259" lon="13.394499483542429"><ele>11.0</ele><time>2026-04-30T13:57:55.999Z</time></trkpt><trkpt lat="38.10239064550392" lon="13.394565463484325"><ele>11.0</ele><time>2026-04-30T13:57:56.999Z</time></trkpt><trkpt lat="38.10246083204145" lon="13.394622100213276"><ele>11.0</ele><time>2026-04-30T13:57:57.999Z</time></trkpt><trkpt lat="38.10253569918087" lon="13.394677131586567"><ele>11.0</ele><time>2026-04-30T13:57:58.999Z</time></trkpt><trkpt lat="38.10268142496641" lon="13.394759663314176"><ele>11.0</ele><time>2026-04-30T13:57:59.999Z</time></trkpt><trkpt lat="38.10273621052986" lon="13.394807792185173"><ele>11.0</ele><time>2026-04-30T13:58:00.999Z</time></trkpt><trkpt lat="38.10279785849062" lon="13.394858032388274"><ele>11.0</ele><time>2026-04-30T13:58:02.999Z</time></trkpt><trkpt lat="38.10291567305772" lon="13.394734525875615"><ele>11.0</ele><time>2026-04-30T13:58:20Z</time></trkpt><trkpt lat="38.10294859128485" lon="13.394609702441947"><ele>11.0</ele><time>2026-04-30T13:58:21Z</time></trkpt><trkpt lat="38.10299213243971" lon="13.394505136324959"><ele>11.0</ele><time>2026-04-30T13:58:22Z</time></trkpt><trkpt lat="38.10303259670432" lon="13.394424200496129"><ele>11.0</ele><time>2026-04-30T13:58:23Z</time></trkpt><trkpt lat="38.10306512510351" lon="13.394346137321362"><ele>11.0</ele><time>2026-04-30T13:58:24Z</time></trkpt><trkpt lat="38.10312283054976" lon="13.394194164488935"><ele>11.0</ele><time>2026-04-30T13:58:26Z</time></trkpt><trkpt lat="38.10315093793838" lon="13.394064570846664"><ele>11.0</ele><time>2026-04-30T13:58:27Z</time></trkpt><trkpt lat="38.10319967998787" lon="13.393910410761638"><ele>11.0</ele><time>2026-04-30T13:58:28Z</time></trkpt><trkpt lat="38.103254486434274" lon="13.393774577137988"><ele>10.0</ele><time>2026-04-30T13:58:29Z</time></trkpt><trkpt lat="38.103302991757936" lon="13.393655943293293"><ele>9.0</ele><time>2026-04-30T13:58:30Z</time></trkpt><trkpt lat="38.10335041829852" lon="13.393553327504678"><ele>8.0</ele><time>2026-04-30T13:58:31Z</time></trkpt><trkpt lat="38.10339749284278" lon="13.393459440111158"><ele>7.0</ele><time>2026-04-30T13:58:32Z</time></trkpt><trkpt lat="38.10343655369708" lon="13.393384021014224"><ele>6.0</ele><time>2026-04-30T13:58:33Z</time></trkpt><trkpt lat="38.103487817420984" lon="13.393240863545456"><ele>5.999999999999999</ele><time>2026-04-30T13:58:35Z</time></trkpt><trkpt lat="38.103517772698304" lon="13.393168317625769"><ele>6.0</ele><time>2026-04-30T13:58:36Z</time></trkpt><trkpt lat="38.103555038345974" lon="13.393095775908307"><ele>6.0</ele><time>2026-04-30T13:58:37Z</time></trkpt><trkpt lat="38.10359294885896" lon="13.393014808261464"><ele>6.0</ele><time>2026-04-30T13:58:37.999Z</time></trkpt><trkpt lat="38.10362452724707" lon="13.392942905779037"><ele>6.0</ele><time>2026-04-30T13:58:38.999Z</time></trkpt><trkpt lat="38.10365490417591" lon="13.39286867640549"><ele>5.999999999999999</ele><time>2026-04-30T13:58:39.999Z</time></trkpt><trkpt lat="38.10368530714808" lon="13.392787520777834"><ele>6.0</ele><time>2026-04-30T13:58:40.999Z</time></trkpt><trkpt lat="38.10371797268476" lon="13.392711730320675"><ele>6.666666666666667</ele><time>2026-04-30T13:58:41.999Z</time></trkpt><trkpt lat="38.103756352276065" lon="13.392635914170983"><ele>7.333333333333334</ele><time>2026-04-30T13:58:42.999Z</time></trkpt><trkpt lat="38.10379048996468" lon="13.39256413718228"><ele>8.0</ele><time>2026-04-30T13:58:43.999Z</time></trkpt><trkpt lat="38.10382294373806" lon="13.392492852183224"><ele>8.666666666666668</ele><time>2026-04-30T13:58:44.999Z</time></trkpt><trkpt lat="38.10388682109201" lon="13.392341484851425"><ele>9.333333333333334</ele><time>2026-04-30T13:58:46.999Z</time></trkpt><trkpt lat="38.10392215388011" lon="13.392257641562102"><ele>10.0</ele><time>2026-04-30T13:58:47.999Z</time></trkpt><trkpt lat="38.103977006846556" lon="13.392136892481767"><ele>10.4</ele><time>2026-04-30T13:58:49.999Z</time></trkpt><trkpt lat="38.104029064373144" lon="13.391995016749506"><ele>10.8</ele><time>2026-04-30T13:58:51.999Z</time></trkpt><trkpt lat="38.104052284082066" lon="13.391918219143301"><ele>11.2</ele><time>2026-04-30T13:58:52.999Z</time></trkpt><trkpt lat="38.10410121066136" lon="13.391789785331282"><ele>11.6</ele><time>2026-04-30T13:58:54.999Z</time></trkpt><trkpt lat="38.104159879994235" lon="13.391660994354975"><ele>12.0</ele><time>2026-04-30T13:58:56.999Z</time></trkpt><trkpt lat="38.10420480959184" lon="13.391506788422907"><ele>12.0</ele><time>2026-04-30T13:58:58.999Z</time></trkpt><trkpt lat="38.10423198214649" lon="13.391424920382223"><ele>12.0</ele><time>2026-04-30T13:58:59.999Z</time></trkpt><trkpt lat="38.10426415132176" lon="13.391353603096796"><ele>12.0</ele><time>2026-04-30T13:59:00.999Z</time></trkpt><trkpt lat="38.10432864338439" lon="13.391231801313774"><ele>12.0</ele><time>2026-04-30T13:59:02.999Z</time></trkpt><trkpt lat="38.10438411721266" lon="13.391110740094362"><ele>12.0</ele><time>2026-04-30T13:59:04.999Z</time></trkpt><trkpt lat="38.104449033138394" lon="13.390986109686738"><ele>12.166666666666666</ele><time>2026-04-30T13:59:06.999Z</time></trkpt><trkpt lat="38.104512974889346" lon="13.390855911568703"><ele>12.333333333333332</ele><time>2026-04-30T13:59:08.999Z</time></trkpt><trkpt lat="38.10454668574271" lon="13.390784873738772"><ele>12.5</ele><time>2026-04-30T13:59:09.999Z</time></trkpt><trkpt lat="38.10458171631033" lon="13.390710531360686"><ele>12.666666666666666</ele><time>2026-04-30T13:59:10.999Z</time></trkpt><trkpt lat="38.10461747609034" lon="13.390638711857694"><ele>12.833333333333332</ele><time>2026-04-30T13:59:11.999Z</time></trkpt><trkpt lat="38.104653630484044" lon="13.39056930043799"><ele>13.0</ele><time>2026-04-30T13:59:12.999Z</time></trkpt><trkpt lat="38.10469239150159" lon="13.39049384393855"><ele>13.285714285714285</ele><time>2026-04-30T13:59:13.999Z</time></trkpt><trkpt lat="38.10472812798953" lon="13.390416323381297"><ele>13.571428571428573</ele><time>2026-04-30T13:59:14.999Z</time></trkpt><trkpt lat="38.10476220206067" lon="13.390342626604"><ele>13.857142857142858</ele><time>2026-04-30T13:59:15.999Z</time></trkpt><trkpt lat="38.10479922869511" lon="13.390270599301118"><ele>14.142857142857142</ele><time>2026-04-30T13:59:16.999Z</time></trkpt><trkpt lat="38.10484003398869" lon="13.390193016815257"><ele>14.428571428571427</ele><time>2026-04-30T13:59:17.999Z</time></trkpt><trkpt lat="38.10487902015984" lon="13.39011702260819"><ele>14.714285714285715</ele><time>2026-04-30T13:59:18.999Z</time></trkpt><trkpt lat="38.1049149025753" lon="13.390043469852104"><ele>15.0</ele><time>2026-04-30T13:59:19.999Z</time></trkpt><trkpt lat="38.104950318799155" lon="13.389967618286787"><ele>14.333333333333334</ele><time>2026-04-30T13:59:20.999Z</time></trkpt><trkpt lat="38.10498327454519" lon="13.389896885666055"><ele>13.666666666666666</ele><time>2026-04-30T13:59:21.999Z</time></trkpt><trkpt lat="38.10504354674971" lon="13.389762823059144"><ele>13.0</ele><time>2026-04-30T13:59:23.999Z</time></trkpt><trkpt lat="38.10508001260136" lon="13.389691748274176"><ele>12.333333333333332</ele><time>2026-04-30T13:59:24.999Z</time></trkpt><trkpt lat="38.10512022732729" lon="13.389612653346418"><ele>11.666666666666666</ele><time>2026-04-30T13:59:25.999Z</time></trkpt><trkpt lat="38.10516272398035" lon="13.38952845201746"><ele>11.0</ele><time>2026-04-30T13:59:26.999Z</time></trkpt><trkpt lat="38.10520021602368" lon="13.389441242802102"><ele>11.0</ele><time>2026-04-30T13:59:27.999Z</time></trkpt><trkpt lat="38.1052411457201" lon="13.389352403728603"><ele>11.0</ele><time>2026-04-30T13:59:28.999Z</time></trkpt><trkpt lat="38.105288761909414" lon="13.389252881561081"><ele>11.0</ele><time>2026-04-30T13:59:29.999Z</time></trkpt><trkpt lat="38.105338325355675" lon="13.389145346655441"><ele>11.0</ele><time>2026-04-30T13:59:30.999Z</time></trkpt><trkpt lat="38.10540457308307" lon="13.389004954105792"><ele>11.0</ele><time>2026-04-30T13:59:31.999Z</time></trkpt><trkpt lat="38.105492586952835" lon="13.388837284142486"><ele>11.666666666666666</ele><time>2026-04-30T13:59:32.999Z</time></trkpt><trkpt lat="38.10559269076871" lon="13.388652650200948"><ele>12.333333333333332</ele><time>2026-04-30T13:59:33.999Z</time></trkpt><trkpt lat="38.1056867128419" lon="13.388470704598046"><ele>13.0</ele><time>2026-04-30T13:59:34.999Z</time></trkpt><trkpt lat="38.10576868975844" lon="13.388304159788452"><ele>12.0</ele><time>2026-04-30T13:59:35.999Z</time></trkpt><trkpt lat="38.10584234709436" lon="13.388131704239228"><ele>11.0</ele><time>2026-04-30T13:59:36.999Z</time></trkpt><trkpt lat="38.1059043862271" lon="13.387964391675881"><ele>10.0</ele><time>2026-04-30T13:59:37.999Z</time></trkpt><trkpt lat="38.10596398009187" lon="13.387783103405225"><ele>10.0</ele><time>2026-04-30T13:59:38.999Z</time></trkpt><trkpt lat="38.10602485956046" lon="13.387576551050735"><ele>10.0</ele><time>2026-04-30T13:59:39.999Z</time></trkpt><trkpt lat="38.10608082793141" lon="13.387375782970256"><ele>10.0</ele><time>2026-04-30T13:59:40.999Z</time></trkpt><trkpt lat="38.1061291800503" lon="13.387209000659613"><ele>10.4</ele><time>2026-04-30T13:59:41.999Z</time></trkpt><trkpt lat="38.10617368450469" lon="13.387060725149722"><ele>10.8</ele><time>2026-04-30T13:59:42.999Z</time></trkpt><trkpt lat="38.10621215856021" lon="13.386933099492394"><ele>11.2</ele><time>2026-04-30T13:59:43.999Z</time></trkpt><trkpt lat="38.10624411503319" lon="13.386830214064343"><ele>11.6</ele><time>2026-04-30T13:59:44.999Z</time></trkpt><trkpt lat="38.106271728134764" lon="13.38674148121038"><ele>12.0</ele><time>2026-04-30T13:59:45.999Z</time></trkpt><trkpt lat="38.106291584331615" lon="13.386656627352465"><ele>12.0</ele><time>2026-04-30T13:59:46.999Z</time></trkpt><trkpt lat="38.106325983618675" lon="13.38650657963913"><ele>12.0</ele><time>2026-04-30T13:59:48.999Z</time></trkpt><trkpt lat="38.10635166503549" lon="13.386423028682396"><ele>12.0</ele><time>2026-04-30T13:59:49.999Z</time></trkpt><trkpt lat="38.10638661100871" lon="13.386329457375918"><ele>12.0</ele><time>2026-04-30T13:59:50.999Z</time></trkpt><trkpt lat="38.10641538262644" lon="13.38623469321969"><ele>12.0</ele><time>2026-04-30T13:59:51.999Z</time></trkpt><trkpt lat="38.106440655203464" lon="13.386143088749899"><ele>12.0</ele><time>2026-04-30T13:59:52.999Z</time></trkpt><trkpt lat="38.106466866670154" lon="13.386035298101373"><ele>11.5</ele><time>2026-04-30T13:59:53.999Z</time></trkpt><trkpt lat="38.106500778875784" lon="13.385910521492024"><ele>11.0</ele><time>2026-04-30T13:59:54.999Z</time></trkpt><trkpt lat="38.10653466817259" lon="13.385777371039767"><ele>10.5</ele><time>2026-04-30T13:59:55.999Z</time></trkpt><trkpt lat="38.10657271370366" lon="13.385608079138414"><ele>10.0</ele><time>2026-04-30T13:59:56.999Z</time></trkpt><trkpt lat="38.106617474143555" lon="13.385424098995722"><ele>9.0</ele><time>2026-04-30T13:59:57.999Z</time></trkpt><trkpt lat="38.106672691969" lon="13.385219978935764"><ele>8.0</ele><time>2026-04-30T13:59:58.999Z</time></trkpt><trkpt lat="38.106736444866165" lon="13.384999646007623"><ele>7.0</ele><time>2026-04-30T13:59:59.999Z</time></trkpt><trkpt lat="38.106801049634996" lon="13.384752091507849"><ele>7.333333333333334</ele><time>2026-04-30T14:00:00.999Z</time></trkpt><trkpt lat="38.10684918918147" lon="13.384500126708348"><ele>7.666666666666666</ele><time>2026-04-30T14:00:01.999Z</time></trkpt><trkpt lat="38.10687920928337" lon="13.384241055357197"><ele>8.0</ele><time>2026-04-30T14:00:02.999Z</time></trkpt><trkpt lat="38.10690057935469" lon="13.383985236825982"><ele>8.333333333333332</ele><time>2026-04-30T14:00:03.999Z</time></trkpt><trkpt lat="38.106922394264195" lon="13.38376290243608"><ele>8.666666666666666</ele><time>2026-04-30T14:00:04.999Z</time></trkpt><trkpt lat="38.10694336058191" lon="13.383559832681959"><ele>9.0</ele><time>2026-04-30T14:00:05.999Z</time></trkpt><trkpt lat="38.10696216239472" lon="13.383379384262684"><ele>9.0</ele><time>2026-04-30T14:00:06.999Z</time></trkpt><trkpt lat="38.106989511548804" lon="13.383224887190385"><ele>9.0</ele><time>2026-04-30T14:00:07.999Z</time></trkpt><trkpt lat="38.10702260545361" lon="13.383061363016438"><ele>9.0</ele><time>2026-04-30T14:00:08.999Z</time></trkpt><trkpt lat="38.10706961884633" lon="13.382904046191733"><ele>9.0</ele><time>2026-04-30T14:00:09.999Z</time></trkpt><trkpt lat="38.10713373487596" lon="13.382756847200453"><ele>8.75</ele><time>2026-04-30T14:00:10.999Z</time></trkpt><trkpt lat="38.10720652021475" lon="13.382619118710947"><ele>8.5</ele><time>2026-04-30T14:00:11.999Z</time></trkpt><trkpt lat="38.107295119681375" lon="13.382482688546718"><ele>8.25</ele><time>2026-04-30T14:00:12.999Z</time></trkpt><trkpt lat="38.10740474330964" lon="13.38235186335458"><ele>8.0</ele><time>2026-04-30T14:00:13.999Z</time></trkpt><trkpt lat="38.10751256606198" lon="13.38223699733725"><ele>8.75</ele><time>2026-04-30T14:00:14.999Z</time></trkpt><trkpt lat="38.1076089164594" lon="13.382125893191928"><ele>9.5</ele><time>2026-04-30T14:00:15.999Z</time></trkpt><trkpt lat="38.10769773658481" lon="13.382017226468662"><ele>10.25</ele><time>2026-04-30T14:00:16.999Z</time></trkpt><trkpt lat="38.10780198785721" lon="13.381890210207223"><ele>11.0</ele><time>2026-04-30T14:00:17.999Z</time></trkpt><trkpt lat="38.10792564506757" lon="13.381748539230708"><ele>11.0</ele><time>2026-04-30T14:00:18.999Z</time></trkpt><trkpt lat="38.1080555486493" lon="13.381603807942069"><ele>11.0</ele><time>2026-04-30T14:00:19.999Z</time></trkpt><trkpt lat="38.108178440648935" lon="13.381458861763257"><ele>11.0</ele><time>2026-04-30T14:00:20.999Z</time></trkpt><trkpt lat="38.108292137878735" lon="13.381317400878741"><ele>10.333333333333332</ele><time>2026-04-30T14:00:21.999Z</time></trkpt><trkpt lat="38.108413006128345" lon="13.38115316041708"><ele>9.666666666666666</ele><time>2026-04-30T14:00:22.999Z</time></trkpt><trkpt lat="38.10854885085097" lon="13.380980050041712"><ele>9.0</ele><time>2026-04-30T14:00:23.999Z</time></trkpt><trkpt lat="38.10869388775516" lon="13.38081950946321"><ele>9.0</ele><time>2026-04-30T14:00:24.999Z</time></trkpt><trkpt lat="38.10883242210316" lon="13.380675819829472"><ele>9.0</ele><time>2026-04-30T14:00:25.999Z</time></trkpt><trkpt lat="38.10895691860779" lon="13.380538762989787"><ele>9.0</ele><time>2026-04-30T14:00:26.999Z</time></trkpt><trkpt lat="38.10906766117213" lon="13.380406461272171"><ele>9.25</ele><time>2026-04-30T14:00:27.999Z</time></trkpt><trkpt lat="38.10917198638561" lon="13.380273916408171"><ele>9.5</ele><time>2026-04-30T14:00:28.999Z</time></trkpt><trkpt lat="38.109270700233246" lon="13.380147063243296"><ele>9.75</ele><time>2026-04-30T14:00:29.999Z</time></trkpt><trkpt lat="38.10936423286096" lon="13.380030669103409"><ele>10.0</ele><time>2026-04-30T14:00:30.999Z</time></trkpt><trkpt lat="38.109461038981486" lon="13.379905621195324"><ele>10.0</ele><time>2026-04-30T14:00:31.999Z</time></trkpt><trkpt lat="38.10956332244847" lon="13.379784973939472"><ele>10.0</ele><time>2026-04-30T14:00:32.999Z</time></trkpt><trkpt lat="38.10965762073901" lon="13.379677329852168"><ele>10.0</ele><time>2026-04-30T14:00:33.999Z</time></trkpt><trkpt lat="38.10975001684665" lon="13.379563977220084"><ele>10.0</ele><time>2026-04-30T14:00:34.999Z</time></trkpt><trkpt lat="38.10983823069127" lon="13.379453884893747"><ele>9.75</ele><time>2026-04-30T14:00:35.999Z</time></trkpt><trkpt lat="38.109924082269856" lon="13.379356409906968"><ele>9.5</ele><time>2026-04-30T14:00:36.999Z</time></trkpt><trkpt lat="38.110005433206474" lon="13.379263346162697"><ele>9.25</ele><time>2026-04-30T14:00:37.999Z</time></trkpt><trkpt lat="38.110092695412334" lon="13.379173389066471"><ele>9.0</ele><time>2026-04-30T14:00:38.999Z</time></trkpt><trkpt lat="38.11018369791778" lon="13.379086151158253"><ele>9.0</ele><time>2026-04-30T14:00:39.999Z</time></trkpt><trkpt lat="38.11028542188818" lon="13.378999819288467"><ele>9.0</ele><time>2026-04-30T14:00:40.999Z</time></trkpt><trkpt lat="38.11039417104352" lon="13.378918808829711"><ele>9.0</ele><time>2026-04-30T14:00:41.999Z</time></trkpt><trkpt lat="38.1105026634052" lon="13.378838413191296"><ele>9.0</ele><time>2026-04-30T14:00:42.999Z</time></trkpt><trkpt lat="38.11061674807392" lon="13.378757347295188"><ele>9.0</ele><time>2026-04-30T14:00:43.999Z</time></trkpt><trkpt lat="38.110735213713504" lon="13.378683036820103"><ele>9.0</ele><time>2026-04-30T14:00:44.999Z</time></trkpt><trkpt lat="38.110854315845316" lon="13.378617600290344"><ele>9.0</ele><time>2026-04-30T14:00:45.999Z</time></trkpt><trkpt lat="38.11096315449118" lon="13.37856820487764"><ele>9.0</ele><time>2026-04-30T14:00:46.999Z</time></trkpt><trkpt lat="38.11106507664578" lon="13.378526537944719"><ele>9.2</ele><time>2026-04-30T14:00:47.999Z</time></trkpt><trkpt lat="38.1111675150012" lon="13.378513324435055"><ele>9.4</ele><time>2026-04-30T14:00:48.999Z</time></trkpt><trkpt lat="38.11127157846511" lon="13.378507580880378"><ele>9.6</ele><time>2026-04-30T14:00:49.999Z</time></trkpt><trkpt lat="38.111368847796" lon="13.378504236864845"><ele>9.8</ele><time>2026-04-30T14:00:50.999Z</time></trkpt><trkpt lat="38.111459394986554" lon="13.378500462693248"><ele>10.0</ele><time>2026-04-30T14:00:51.999Z</time></trkpt><trkpt lat="38.11155669571612" lon="13.378496342007415"><ele>10.4</ele><time>2026-04-30T14:00:52.999Z</time></trkpt><trkpt lat="38.11165878720232" lon="13.378483393694712"><ele>10.8</ele><time>2026-04-30T14:00:53.999Z</time></trkpt><trkpt lat="38.11176017101882" lon="13.378472780202818"><ele>11.2</ele><time>2026-04-30T14:00:54.999Z</time></trkpt><trkpt lat="38.11186044416163" lon="13.378463297490882"><ele>11.6</ele><time>2026-04-30T14:00:55.999Z</time></trkpt><trkpt lat="38.11194792080022" lon="13.378451741001705"><ele>12.0</ele><time>2026-04-30T14:00:56.999Z</time></trkpt><trkpt lat="38.11201455982653" lon="13.378438073702032"><ele>12.0</ele><time>2026-04-30T14:00:57.999Z</time></trkpt><trkpt lat="38.112100119317276" lon="13.378418394201473"><ele>12.0</ele><time>2026-04-30T14:00:58.999Z</time></trkpt><trkpt lat="38.1122118147821" lon="13.378386570447692"><ele>12.0</ele><time>2026-04-30T14:00:59.999Z</time></trkpt><trkpt lat="38.11234801283787" lon="13.37833308327179"><ele>12.0</ele><time>2026-04-30T14:01:00.999Z</time></trkpt><trkpt lat="38.11248873339347" lon="13.378285936319115"><ele>11.0</ele><time>2026-04-30T14:01:01.999Z</time></trkpt><trkpt lat="38.11260835989259" lon="13.378242216409811"><ele>10.0</ele><time>2026-04-30T14:01:02.999Z</time></trkpt><trkpt lat="38.11271597272048" lon="13.378196058982882"><ele>9.0</ele><time>2026-04-30T14:01:03.999Z</time></trkpt><trkpt lat="38.112807884537496" lon="13.378154420850588"><ele>8.0</ele><time>2026-04-30T14:01:04.999Z</time></trkpt><trkpt lat="38.11289934276315" lon="13.378107178008268"><ele>7.0</ele><time>2026-04-30T14:01:05.999Z</time></trkpt><trkpt lat="38.113018633776264" lon="13.378039834645183"><ele>7.0</ele><time>2026-04-30T14:01:06.999Z</time></trkpt><trkpt lat="38.113152149556676" lon="13.377970587452538"><ele>7.0</ele><time>2026-04-30T14:01:07.999Z</time></trkpt><trkpt lat="38.11328294135284" lon="13.37789843841946"><ele>7.0</ele><time>2026-04-30T14:01:08.999Z</time></trkpt><trkpt lat="38.113412274836556" lon="13.377821197457342"><ele>7.0</ele><time>2026-04-30T14:01:09.999Z</time></trkpt><trkpt lat="38.1135401034826" lon="13.377730668014543"><ele>7.0</ele><time>2026-04-30T14:01:10.999Z</time></trkpt><trkpt lat="38.11367400076106" lon="13.37763427505546"><ele>7.0</ele><time>2026-04-30T14:01:11.999Z</time></trkpt><trkpt lat="38.11380980808037" lon="13.377532885283898"><ele>7.0</ele><time>2026-04-30T14:01:12.999Z</time></trkpt><trkpt lat="38.113943437079236" lon="13.377434424534137"><ele>7.0</ele><time>2026-04-30T14:01:13.999Z</time></trkpt><trkpt lat="38.114065697099285" lon="13.377337768673474"><ele>7.0</ele><time>2026-04-30T14:01:14.999Z</time></trkpt><trkpt lat="38.11418129520774" lon="13.377248840309663"><ele>7.0</ele><time>2026-04-30T14:01:15.999Z</time></trkpt><trkpt lat="38.11430344521643" lon="13.377160878110729"><ele>7.0</ele><time>2026-04-30T14:01:16.999Z</time></trkpt><trkpt lat="38.114425635408715" lon="13.377071300035984"><ele>7.5</ele><time>2026-04-30T14:01:17.999Z</time></trkpt><trkpt lat="38.11454760923581" lon="13.37698746571625"><ele>8.0</ele><time>2026-04-30T14:01:18.999Z</time></trkpt><trkpt lat="38.114657327991395" lon="13.376900831575824"><ele>8.5</ele><time>2026-04-30T14:01:19.999Z</time></trkpt><trkpt lat="38.11477327355523" lon="13.376817787748903"><ele>9.0</ele><time>2026-04-30T14:01:20.999Z</time></trkpt><trkpt lat="38.11489026649142" lon="13.376732869996331"><ele>8.5</ele><time>2026-04-30T14:01:21.999Z</time></trkpt><trkpt lat="38.11500082566543" lon="13.376649422672712"><ele>8.0</ele><time>2026-04-30T14:01:22.999Z</time></trkpt><trkpt lat="38.11510788029179" lon="13.376568129246404"><ele>7.5</ele><time>2026-04-30T14:01:23.999Z</time></trkpt><trkpt lat="38.11521009700962" lon="13.376486701475274"><ele>7.0</ele><time>2026-04-30T14:01:24.999Z</time></trkpt><trkpt lat="38.11530794101693" lon="13.376405476917"><ele>7.199999999999999</ele><time>2026-04-30T14:01:25.999Z</time></trkpt><trkpt lat="38.115397757569085" lon="13.37632175467897"><ele>7.3999999999999995</ele><time>2026-04-30T14:01:26.999Z</time></trkpt><trkpt lat="38.11547796165897" lon="13.3762318621605"><ele>7.6000000000000005</ele><time>2026-04-30T14:01:27.999Z</time></trkpt><trkpt lat="38.115548034806494" lon="13.37614589290881"><ele>7.800000000000001</ele><time>2026-04-30T14:01:28.999Z</time></trkpt><trkpt lat="38.115597794763275" lon="13.376078164574546"><ele>8.0</ele><time>2026-04-30T14:01:29.999Z</time></trkpt><trkpt lat="38.1156735283275" lon="13.375977018242022"><ele>8.0</ele><time>2026-04-30T14:01:31.999Z</time></trkpt><trkpt lat="38.1157287744565" lon="13.37591334539148"><ele>8.0</ele><time>2026-04-30T14:01:33.999Z</time></trkpt><trkpt lat="38.11578979856789" lon="13.375831264960881"><ele>8.0</ele><time>2026-04-30T14:01:36.999Z</time></trkpt><trkpt lat="38.115875149401624" lon="13.37573606700031"><ele>8.0</ele><time>2026-04-30T14:01:38.999Z</time></trkpt><trkpt lat="38.115934194454056" lon="13.37565544263141"><ele>8.0</ele><time>2026-04-30T14:01:39.999Z</time></trkpt><trkpt lat="38.115988493671296" lon="13.375561216609379"><ele>7.833333333333333</ele><time>2026-04-30T14:01:40.999Z</time></trkpt><trkpt lat="38.11604960196801" lon="13.37546559093718"><ele>7.666666666666666</ele><time>2026-04-30T14:01:41.999Z</time></trkpt><trkpt lat="38.116105146618686" lon="13.375378446958985"><ele>7.5</ele><time>2026-04-30T14:01:42.999Z</time></trkpt><trkpt lat="38.11616039458369" lon="13.375294428050893"><ele>7.333333333333334</ele><time>2026-04-30T14:01:43.999Z</time></trkpt><trkpt lat="38.116211677182285" lon="13.375216915711706"><ele>7.166666666666667</ele><time>2026-04-30T14:01:44.999Z</time></trkpt><trkpt lat="38.11626051752369" lon="13.37514083241054"><ele>7.0</ele><time>2026-04-30T14:01:45.999Z</time></trkpt><trkpt lat="38.116301690410246" lon="13.37507259473625"><ele>7.0</ele><time>2026-04-30T14:01:46.999Z</time></trkpt><trkpt lat="38.11637134547426" lon="13.374971484431235"><ele>6.999999999999999</ele><time>2026-04-30T14:01:48.999Z</time></trkpt><trkpt lat="38.116415191291416" lon="13.374875890143487"><ele>6.999999999999999</ele><time>2026-04-30T14:01:51.999Z</time></trkpt><trkpt lat="38.116481758090096" lon="13.374788612758977"><ele>7.0</ele><time>2026-04-30T14:01:53.999Z</time></trkpt><trkpt lat="38.1165418732817" lon="13.374713901973662"><ele>7.0</ele><time>2026-04-30T14:01:54.999Z</time></trkpt><trkpt lat="38.11661274574936" lon="13.37462281468056"><ele>6.5</ele><time>2026-04-30T14:01:55.999Z</time></trkpt><trkpt lat="38.11671216669094" lon="13.374507192758399"><ele>6.0</ele><time>2026-04-30T14:01:56.999Z</time></trkpt><trkpt lat="38.11682011289085" lon="13.37438056167957"><ele>5.5</ele><time>2026-04-30T14:01:57.999Z</time></trkpt><trkpt lat="38.11689891531791" lon="13.374268001740521"><ele>5.0</ele><time>2026-04-30T14:01:58.999Z</time></trkpt><trkpt lat="38.11696128746733" lon="13.374167667305414"><ele>5.0</ele><time>2026-04-30T14:01:59.999Z</time></trkpt><trkpt lat="38.11701701236356" lon="13.374083589673832"><ele>5.0</ele><time>2026-04-30T14:02:00.999Z</time></trkpt><trkpt lat="38.117073464385" lon="13.37400206400694"><ele>5.0</ele><time>2026-04-30T14:02:01.999Z</time></trkpt><trkpt lat="38.11713149300145" lon="13.373919660185289"><ele>5.0</ele><time>2026-04-30T14:02:02.999Z</time></trkpt><trkpt lat="38.11718798843665" lon="13.373842489183295"><ele>5.0</ele><time>2026-04-30T14:02:03.999Z</time></trkpt><trkpt lat="38.117242394305634" lon="13.373783054744948"><ele>5.0</ele><time>2026-04-30T14:02:04.999Z</time></trkpt><trkpt lat="38.1173049952828" lon="13.373716784810373"><ele>5.2</ele><time>2026-04-30T14:02:05.999Z</time></trkpt><trkpt lat="38.117370558631656" lon="13.37364761023262"><ele>5.4</ele><time>2026-04-30T14:02:06.999Z</time></trkpt><trkpt lat="38.117429078956505" lon="13.373584178387576"><ele>5.6</ele><time>2026-04-30T14:02:07.999Z</time></trkpt><trkpt lat="38.11749970102795" lon="13.373521432925065"><ele>5.8</ele><time>2026-04-30T14:02:08.999Z</time></trkpt><trkpt lat="38.11757106508015" lon="13.37344662123172"><ele>6.0</ele><time>2026-04-30T14:02:09.999Z</time></trkpt><trkpt lat="38.11765556158054" lon="13.373347604168702"><ele>6.0</ele><time>2026-04-30T14:02:10.999Z</time></trkpt><trkpt lat="38.117734247233585" lon="13.373273224669257"><ele>6.0</ele><time>2026-04-30T14:02:11.999Z</time></trkpt><trkpt lat="38.1177961441558" lon="13.37322836687757"><ele>6.0</ele><time>2026-04-30T14:02:12.999Z</time></trkpt><trkpt lat="38.11785751128045" lon="13.373178624480476"><ele>6.0</ele><time>2026-04-30T14:02:13.999Z</time></trkpt><trkpt lat="38.117921423127584" lon="13.373121121866925"><ele>6.0</ele><time>2026-04-30T14:02:14.999Z</time></trkpt><trkpt lat="38.11799016805423" lon="13.373054941266552"><ele>6.0</ele><time>2026-04-30T14:02:15.999Z</time></trkpt><trkpt lat="38.11806854549045" lon="13.372987397712336"><ele>6.5</ele><time>2026-04-30T14:02:16.999Z</time></trkpt><trkpt lat="38.11816730755483" lon="13.372893793092741"><ele>7.0</ele><time>2026-04-30T14:02:17.999Z</time></trkpt><trkpt lat="38.11829523332588" lon="13.372786571407667"><ele>7.5</ele><time>2026-04-30T14:02:18.999Z</time></trkpt><trkpt lat="38.11842587492045" lon="13.372686926577115"><ele>8.0</ele><time>2026-04-30T14:02:19.999Z</time></trkpt><trkpt lat="38.118545047643856" lon="13.372595685989804"><ele>8.0</ele><time>2026-04-30T14:02:20.999Z</time></trkpt><trkpt lat="38.118672445179776" lon="13.372499575200143"><ele>8.0</ele><time>2026-04-30T14:02:21.999Z</time></trkpt><trkpt lat="38.11879690676425" lon="13.372408439297455"><ele>8.0</ele><time>2026-04-30T14:02:22.999Z</time></trkpt><trkpt lat="38.11891765875523" lon="13.372321200007569"><ele>8.0</ele><time>2026-04-30T14:02:23.999Z</time></trkpt><trkpt lat="38.11903463091572" lon="13.37224017939173"><ele>8.4</ele><time>2026-04-30T14:02:24.999Z</time></trkpt><trkpt lat="38.11914092724266" lon="13.372160689741282"><ele>8.8</ele><time>2026-04-30T14:02:26Z</time></trkpt><trkpt lat="38.1192410749708" lon="13.372094773724962"><ele>9.2</ele><time>2026-04-30T14:02:27Z</time></trkpt><trkpt lat="38.11933611187205" lon="13.372031391312628"><ele>9.6</ele><time>2026-04-30T14:02:28Z</time></trkpt><trkpt lat="38.11942409022691" lon="13.371969301176776"><ele>10.0</ele><time>2026-04-30T14:02:29Z</time></trkpt><trkpt lat="38.119506466740404" lon="13.371917084362495"><ele>10.0</ele><time>2026-04-30T14:02:30Z</time></trkpt><trkpt lat="38.11959365408889" lon="13.371871328362774"><ele>10.0</ele><time>2026-04-30T14:02:31Z</time></trkpt><trkpt lat="38.11967991757203" lon="13.371819005836407"><ele>10.0</ele><time>2026-04-30T14:02:32Z</time></trkpt><trkpt lat="38.11976688778422" lon="13.371758312770163"><ele>10.0</ele><time>2026-04-30T14:02:33Z</time></trkpt><trkpt lat="38.11986141804622" lon="13.371687232795118"><ele>10.0</ele><time>2026-04-30T14:02:34Z</time></trkpt><trkpt lat="38.11996103029563" lon="13.37160977889156"><ele>9.666666666666668</ele><time>2026-04-30T14:02:35Z</time></trkpt><trkpt lat="38.12005168650383" lon="13.371543701685887"><ele>9.333333333333334</ele><time>2026-04-30T14:02:36Z</time></trkpt><trkpt lat="38.120112341523715" lon="13.371496894100146"><ele>9.0</ele><time>2026-04-30T14:02:37Z</time></trkpt><trkpt lat="38.120165718241736" lon="13.371439499636612"><ele>8.666666666666666</ele><time>2026-04-30T14:02:38Z</time></trkpt><trkpt lat="38.12021379641007" lon="13.37137352297689"><ele>8.333333333333332</ele><time>2026-04-30T14:02:39Z</time></trkpt><trkpt lat="38.12025087238958" lon="13.371297620502325"><ele>8.0</ele><time>2026-04-30T14:02:40Z</time></trkpt><trkpt lat="38.120283927944065" lon="13.371200675518208"><ele>7.800000000000001</ele><time>2026-04-30T14:02:41Z</time></trkpt><trkpt lat="38.120308385071105" lon="13.371096404007059"><ele>7.6000000000000005</ele><time>2026-04-30T14:02:42Z</time></trkpt><trkpt lat="38.1203062697381" lon="13.37098908944984"><ele>7.3999999999999995</ele><time>2026-04-30T14:02:43Z</time></trkpt><trkpt lat="38.12028895565326" lon="13.37087569747439"><ele>7.199999999999999</ele><time>2026-04-30T14:02:44Z</time></trkpt><trkpt lat="38.120258292265554" lon="13.370751367590522"><ele>7.0</ele><time>2026-04-30T14:02:44.999Z</time></trkpt><trkpt lat="38.120205008106716" lon="13.370620604023973"><ele>6.75</ele><time>2026-04-30T14:02:45.999Z</time></trkpt><trkpt lat="38.12014721325748" lon="13.37047022743438"><ele>6.5</ele><time>2026-04-30T14:02:46.999Z</time></trkpt><trkpt lat="38.12009235773056" lon="13.37029772761298"><ele>6.25</ele><time>2026-04-30T14:02:47.999Z</time></trkpt><trkpt lat="38.120037652740756" lon="13.370146245214821"><ele>6.0</ele><time>2026-04-30T14:02:48.999Z</time></trkpt><trkpt lat="38.11998430100959" lon="13.37001131130034"><ele>6.0</ele><time>2026-04-30T14:02:49.999Z</time></trkpt><trkpt lat="38.11993655670916" lon="13.36988380756198"><ele>6.0</ele><time>2026-04-30T14:02:50.999Z</time></trkpt><trkpt lat="38.119891197090595" lon="13.369760927448594"><ele>6.0</ele><time>2026-04-30T14:02:51.999Z</time></trkpt><trkpt lat="38.11984896652389" lon="13.369641636437276"><ele>6.0</ele><time>2026-04-30T14:02:52.999Z</time></trkpt><trkpt lat="38.11980390409719" lon="13.369526963996147"><ele>6.0</ele><time>2026-04-30T14:02:53.999Z</time></trkpt><trkpt lat="38.119750096477524" lon="13.369412905958859"><ele>6.8</ele><time>2026-04-30T14:02:54.999Z</time></trkpt><trkpt lat="38.11969140017861" lon="13.369300071758417"><ele>7.6</ele><time>2026-04-30T14:02:55.999Z</time></trkpt><trkpt lat="38.11962795066862" lon="13.369192758031247"><ele>8.4</ele><time>2026-04-30T14:02:56.999Z</time></trkpt><trkpt lat="38.119545181396575" lon="13.369096816575603"><ele>9.2</ele><time>2026-04-30T14:02:57.999Z</time></trkpt><trkpt lat="38.11946131276081" lon="13.369019621895234"><ele>10.0</ele><time>2026-04-30T14:02:58.999Z</time></trkpt><trkpt lat="38.119389631184724" lon="13.368945822100494"><ele>10.0</ele><time>2026-04-30T14:02:59.999Z</time></trkpt><trkpt lat="38.11933177022646" lon="13.36886130583835"><ele>10.0</ele><time>2026-04-30T14:03:00.999Z</time></trkpt><trkpt lat="38.11927399623914" lon="13.368768085558173"><ele>10.0</ele><time>2026-04-30T14:03:01.999Z</time></trkpt><trkpt lat="38.119206544101566" lon="13.368691743909702"><ele>10.0</ele><time>2026-04-30T14:03:02.999Z</time></trkpt><trkpt lat="38.11913160262615" lon="13.36861345551661"><ele>10.0</ele><time>2026-04-30T14:03:03.999Z</time></trkpt><trkpt lat="38.119061850760595" lon="13.368498445738304"><ele>10.0</ele><time>2026-04-30T14:03:04.999Z</time></trkpt><trkpt lat="38.1189885772292" lon="13.3683342651864"><ele>10.0</ele><time>2026-04-30T14:03:05.999Z</time></trkpt><trkpt lat="38.11892953487274" lon="13.368157015106853"><ele>10.0</ele><time>2026-04-30T14:03:06.999Z</time></trkpt><trkpt lat="38.11889823524403" lon="13.367989056432585"><ele>10.0</ele><time>2026-04-30T14:03:07.999Z</time></trkpt><trkpt lat="38.11888991958572" lon="13.36781632459671"><ele>10.0</ele><time>2026-04-30T14:03:08.999Z</time></trkpt><trkpt lat="38.11890963249378" lon="13.367641689399989"><ele>10.0</ele><time>2026-04-30T14:03:09.999Z</time></trkpt><trkpt lat="38.11895595820857" lon="13.367469850100251"><ele>10.0</ele><time>2026-04-30T14:03:10.999Z</time></trkpt><trkpt lat="38.11902138802995" lon="13.36731506353329"><ele>10.0</ele><time>2026-04-30T14:03:11.999Z</time></trkpt><trkpt lat="38.119100099065534" lon="13.367183915091516"><ele>9.6</ele><time>2026-04-30T14:03:12.999Z</time></trkpt><trkpt lat="38.119192496066404" lon="13.36709003840823"><ele>9.2</ele><time>2026-04-30T14:03:13.999Z</time></trkpt><trkpt lat="38.119264370253" lon="13.367035267446981"><ele>8.8</ele><time>2026-04-30T14:03:14.999Z</time></trkpt><trkpt lat="38.11932107001359" lon="13.366978670697181"><ele>8.4</ele><time>2026-04-30T14:03:18.999Z</time></trkpt><trkpt lat="38.11937337819682" lon="13.366918327040787"><ele>8.0</ele><time>2026-04-30T14:03:21.999Z</time></trkpt><trkpt lat="38.119558602616344" lon="13.366818485167522"><ele>8.0</ele><time>2026-04-30T14:03:26.999Z</time></trkpt><trkpt lat="38.11969591848257" lon="13.366766571024954"><ele>8.0</ele><time>2026-04-30T14:03:27.999Z</time></trkpt><trkpt lat="38.119858077763936" lon="13.366722221713212"><ele>8.0</ele><time>2026-04-30T14:03:28.999Z</time></trkpt><trkpt lat="38.12005552553664" lon="13.366683567426637"><ele>8.333333333333332</ele><time>2026-04-30T14:03:29.999Z</time></trkpt><trkpt lat="38.1202678533616" lon="13.366643214353777"><ele>8.666666666666666</ele><time>2026-04-30T14:03:30.999Z</time></trkpt><trkpt lat="38.120480796697315" lon="13.366590982554323"><ele>9.0</ele><time>2026-04-30T14:03:31.999Z</time></trkpt><trkpt lat="38.12068719541554" lon="13.366513690980526"><ele>9.333333333333334</ele><time>2026-04-30T14:03:32.999Z</time></trkpt><trkpt lat="38.120887045782474" lon="13.366418185154519"><ele>9.666666666666668</ele><time>2026-04-30T14:03:33.999Z</time></trkpt><trkpt lat="38.12106478737992" lon="13.36630713822717"><ele>10.0</ele><time>2026-04-30T14:03:34.999Z</time></trkpt><trkpt lat="38.12121550551965" lon="13.366213451881622"><ele>10.0</ele><time>2026-04-30T14:03:35.999Z</time></trkpt><trkpt lat="38.12134759840496" lon="13.366129011298943"><ele>10.0</ele><time>2026-04-30T14:03:36.999Z</time></trkpt><trkpt lat="38.12147303396474" lon="13.366031123531243"><ele>10.0</ele><time>2026-04-30T14:03:37.999Z</time></trkpt><trkpt lat="38.12162247000294" lon="13.365915401777574"><ele>10.333333333333334</ele><time>2026-04-30T14:03:38.999Z</time></trkpt><trkpt lat="38.12178994512935" lon="13.365801592321207"><ele>10.666666666666666</ele><time>2026-04-30T14:03:39.999Z</time></trkpt><trkpt lat="38.12197325545914" lon="13.365688573307391"><ele>11.0</ele><time>2026-04-30T14:03:40.999Z</time></trkpt><trkpt lat="38.12216651786027" lon="13.365567823116193"><ele>11.333333333333332</ele><time>2026-04-30T14:03:41.999Z</time></trkpt><trkpt lat="38.122360850432415" lon="13.365440617849824"><ele>11.666666666666666</ele><time>2026-04-30T14:03:42.999Z</time></trkpt><trkpt lat="38.122560448225414" lon="13.365311044840436"><ele>12.0</ele><time>2026-04-30T14:03:43.999Z</time></trkpt><trkpt lat="38.12277232003508" lon="13.365182319139038"><ele>11.0</ele><time>2026-04-30T14:03:44.999Z</time></trkpt><trkpt lat="38.12299027622672" lon="13.365050514449667"><ele>10.0</ele><time>2026-04-30T14:03:45.999Z</time></trkpt><trkpt lat="38.12321586209153" lon="13.364928349632432"><ele>12.0</ele><time>2026-04-30T14:03:46.999Z</time></trkpt><trkpt lat="38.12343033751452" lon="13.364807447548747"><ele>14.0</ele><time>2026-04-30T14:03:47.999Z</time></trkpt><trkpt lat="38.123640341305595" lon="13.364689580451502"><ele>15.5</ele><time>2026-04-30T14:03:48.999Z</time></trkpt><trkpt lat="38.12385214607875" lon="13.364564682444808"><ele>17.0</ele><time>2026-04-30T14:03:49.999Z</time></trkpt><trkpt lat="38.12404459036805" lon="13.364438054786902"><ele>17.333333333333336</ele><time>2026-04-30T14:03:50.999Z</time></trkpt><trkpt lat="38.12422286281441" lon="13.364328844803303"><ele>17.666666666666668</ele><time>2026-04-30T14:03:51.999Z</time></trkpt><trkpt lat="38.124381116389884" lon="13.364224691589742"><ele>18.0</ele><time>2026-04-30T14:03:52.999Z</time></trkpt><trkpt lat="38.12451543741399" lon="13.364140727247475"><ele>18.0</ele><time>2026-04-30T14:03:53.999Z</time></trkpt><trkpt lat="38.124633940419066" lon="13.364072581502375"><ele>18.0</ele><time>2026-04-30T14:03:54.999Z</time></trkpt><trkpt lat="38.124731217197215" lon="13.364028174806576"><ele>18.0</ele><time>2026-04-30T14:03:55.999Z</time></trkpt><trkpt lat="38.12482853863439" lon="13.364001203506705"><ele>18.0</ele><time>2026-04-30T14:03:56.999Z</time></trkpt><trkpt lat="38.12492335543711" lon="13.363977153645374"><ele>18.0</ele><time>2026-04-30T14:03:57.999Z</time></trkpt><trkpt lat="38.12502576768502" lon="13.363918052394258"><ele>18.166666666666668</ele><time>2026-04-30T14:03:58.999Z</time></trkpt><trkpt lat="38.12512771441489" lon="13.363849691809323"><ele>18.333333333333332</ele><time>2026-04-30T14:03:59.999Z</time></trkpt><trkpt lat="38.12520584082427" lon="13.363790604794815"><ele>18.5</ele><time>2026-04-30T14:04:00.999Z</time></trkpt><trkpt lat="38.125284243181625" lon="13.363736815022234"><ele>18.666666666666664</ele><time>2026-04-30T14:04:01.999Z</time></trkpt><trkpt lat="38.12535458940651" lon="13.3636978650732"><ele>18.833333333333332</ele><time>2026-04-30T14:04:02.999Z</time></trkpt><trkpt lat="38.12541759345184" lon="13.363676153348598"><ele>19.0</ele><time>2026-04-30T14:04:03.999Z</time></trkpt><trkpt lat="38.12549892561757" lon="13.363725012001419"><ele>18.0</ele><time>2026-04-30T14:04:05.999Z</time></trkpt><trkpt lat="38.1255563107143" lon="13.363898182230983"><ele>17.0</ele><time>2026-04-30T14:04:07.999Z</time></trkpt><trkpt lat="38.125595832756645" lon="13.36401937264813"><ele>15.999999999999998</ele><time>2026-04-30T14:04:08.999Z</time></trkpt><trkpt lat="38.12562336746253" lon="13.364116597675933"><ele>15.0</ele><time>2026-04-30T14:04:09.999Z</time></trkpt><trkpt lat="38.125648489148155" lon="13.364206481202036"><ele>14.0</ele><time>2026-04-30T14:04:11.999Z</time></trkpt><trkpt lat="38.12567734395672" lon="13.364284613067873"><ele>14.0</ele><time>2026-04-30T14:04:14.999Z</time></trkpt><trkpt lat="38.12562053565008" lon="13.364088199947"><ele>14.0</ele><time>2026-04-30T14:04:36Z</time></trkpt><trkpt lat="38.12558927131588" lon="13.363929982530756"><ele>14.0</ele><time>2026-04-30T14:04:37Z</time></trkpt><trkpt lat="38.125547100738956" lon="13.363815248116678"><ele>14.0</ele><time>2026-04-30T14:04:38Z</time></trkpt><trkpt lat="38.125539055881724" lon="13.363724666968155"><ele>13.2</ele><time>2026-04-30T14:04:41.999Z</time></trkpt><trkpt lat="38.12557445814975" lon="13.363642577048445"><ele>12.399999999999999</ele><time>2026-04-30T14:04:43.999Z</time></trkpt><trkpt lat="38.125633500299834" lon="13.363592044473416"><ele>11.6</ele><time>2026-04-30T14:04:44.999Z</time></trkpt><trkpt lat="38.12572627933162" lon="13.363540813595694"><ele>10.8</ele><time>2026-04-30T14:04:45.999Z</time></trkpt><trkpt lat="38.125848742437064" lon="13.363466124534941"><ele>10.0</ele><time>2026-04-30T14:04:46.999Z</time></trkpt><trkpt lat="38.125990892653576" lon="13.363371114834697"><ele>10.0</ele><time>2026-04-30T14:04:47.999Z</time></trkpt><trkpt lat="38.12617138869418" lon="13.363253779719619"><ele>10.0</ele><time>2026-04-30T14:04:48.999Z</time></trkpt><trkpt lat="38.12634703498902" lon="13.36314723533106"><ele>10.0</ele><time>2026-04-30T14:04:49.999Z</time></trkpt><trkpt lat="38.12648002380579" lon="13.36304203821083"><ele>11.5</ele><time>2026-04-30T14:04:50.999Z</time></trkpt><trkpt lat="38.1266104423902" lon="13.362950305497517"><ele>13.0</ele><time>2026-04-30T14:04:51.999Z</time></trkpt><trkpt lat="38.12673035681782" lon="13.362861971973022"><ele>14.5</ele><time>2026-04-30T14:04:52.999Z</time></trkpt><trkpt lat="38.126835646949445" lon="13.36278902121967"><ele>16.0</ele><time>2026-04-30T14:04:53.999Z</time></trkpt><trkpt lat="38.126921851856586" lon="13.362734035783355"><ele>16.0</ele><time>2026-04-30T14:04:54.999Z</time></trkpt><trkpt lat="38.12700124184813" lon="13.362723174681603"><ele>16.0</ele><time>2026-04-30T14:04:55.999Z</time></trkpt><trkpt lat="38.12707324357077" lon="13.362714681217607"><ele>16.0</ele><time>2026-04-30T14:04:56.999Z</time></trkpt><trkpt lat="38.126899483436766" lon="13.362590152682857"><ele>16.0</ele><time>2026-04-30T14:04:57.999Z</time></trkpt><trkpt lat="38.127076656649194" lon="13.362525673860501"><ele>16.0</ele><time>2026-04-30T14:05:20.999Z</time></trkpt><trkpt lat="38.12715938169159" lon="13.362471906090997"><ele>16.0</ele><time>2026-04-30T14:05:21.999Z</time></trkpt><trkpt lat="38.127249890899904" lon="13.362424921742186"><ele>16.0</ele><time>2026-04-30T14:05:22.999Z</time></trkpt><trkpt lat="38.127352325732616" lon="13.362373885724502"><ele>16.0</ele><time>2026-04-30T14:05:23.999Z</time></trkpt><trkpt lat="38.12746446828036" lon="13.36231126993093"><ele>16.0</ele><time>2026-04-30T14:05:24.999Z</time></trkpt><trkpt lat="38.12759251499844" lon="13.362236035454336"><ele>15.333333333333332</ele><time>2026-04-30T14:05:25.999Z</time></trkpt><trkpt lat="38.12775875384494" lon="13.362134269911174"><ele>14.666666666666668</ele><time>2026-04-30T14:05:26.999Z</time></trkpt><trkpt lat="38.12794445354273" lon="13.362024319321057"><ele>14.0</ele><time>2026-04-30T14:05:27.999Z</time></trkpt><trkpt lat="38.12812996452477" lon="13.361915142838638"><ele>13.0</ele><time>2026-04-30T14:05:28.999Z</time></trkpt><trkpt lat="38.12828888067542" lon="13.361823931022482"><ele>12.0</ele><time>2026-04-30T14:05:29.999Z</time></trkpt><trkpt lat="38.12843028522896" lon="13.361744417712222"><ele>11.0</ele><time>2026-04-30T14:05:30.999Z</time></trkpt><trkpt lat="38.12856527351903" lon="13.361663817765772"><ele>11.0</ele><time>2026-04-30T14:05:31.999Z</time></trkpt><trkpt lat="38.12869596672137" lon="13.361575961809184"><ele>11.0</ele><time>2026-04-30T14:05:32.999Z</time></trkpt><trkpt lat="38.128824157699704" lon="13.36149446469564"><ele>11.0</ele><time>2026-04-30T14:05:33.999Z</time></trkpt><trkpt lat="38.12895570559469" lon="13.361413378693156"><ele>11.0</ele><time>2026-04-30T14:05:34.999Z</time></trkpt><trkpt lat="38.12909383947342" lon="13.361333097995784"><ele>10.75</ele><time>2026-04-30T14:05:35.999Z</time></trkpt><trkpt lat="38.12923433118563" lon="13.361251827521635"><ele>10.5</ele><time>2026-04-30T14:05:36.999Z</time></trkpt><trkpt lat="38.12937394323355" lon="13.361172224542733"><ele>10.25</ele><time>2026-04-30T14:05:37.999Z</time></trkpt><trkpt lat="38.12949349084204" lon="13.361106670529052"><ele>10.0</ele><time>2026-04-30T14:05:38.999Z</time></trkpt><trkpt lat="38.129572798266665" lon="13.361068784277908"><ele>10.0</ele><time>2026-04-30T14:05:39.999Z</time></trkpt><trkpt lat="38.12967420077082" lon="13.361041102614823"><ele>10.0</ele><time>2026-04-30T14:05:41.999Z</time></trkpt><trkpt lat="38.129737356409414" lon="13.361095416331194"><ele>10.0</ele><time>2026-04-30T14:05:45.999Z</time></trkpt><trkpt lat="38.12976749262519" lon="13.361206664324545"><ele>10.0</ele><time>2026-04-30T14:05:48.999Z</time></trkpt><trkpt lat="38.12980071854442" lon="13.361301882745963"><ele>10.0</ele><time>2026-04-30T14:05:51.999Z</time></trkpt><trkpt lat="38.12988637713272" lon="13.361569207986305"><ele>10.0</ele><time>2026-04-30T14:06:22.999Z</time></trkpt><trkpt lat="38.129915210084455" lon="13.361654903662275"><ele>10.0</ele><time>2026-04-30T14:06:24.999Z</time></trkpt><trkpt lat="38.129864335615636" lon="13.361712654099872"><ele>10.0</ele><time>2026-04-30T14:08:25.999Z</time></trkpt><trkpt lat="38.12988343430729" lon="13.361632769512754"><ele>10.0</ele><time>2026-04-30T14:08:30.999Z</time></trkpt><trkpt lat="38.129823247455086" lon="13.361542452859837"><ele>10.0</ele><time>2026-04-30T14:08:31.999Z</time></trkpt><trkpt lat="38.12978330833361" lon="13.361439365340479"><ele>10.0</ele><time>2026-04-30T14:08:32.999Z</time></trkpt><trkpt lat="38.12976047155792" lon="13.361343420711608"><ele>10.0</ele><time>2026-04-30T14:08:33.999Z</time></trkpt><trkpt lat="38.12972789757395" lon="13.361269967234469"><ele>10.0</ele><time>2026-04-30T14:08:34.999Z</time></trkpt><trkpt lat="38.12970348722825" lon="13.361132969098545"><ele>10.0</ele><time>2026-04-30T14:08:36.999Z</time></trkpt><trkpt lat="38.129734400384415" lon="13.361044319729125"><ele>10.0</ele><time>2026-04-30T14:08:39.999Z</time></trkpt><trkpt lat="38.1297521468621" lon="13.360949101580998"><ele>10.0</ele><time>2026-04-30T14:08:50.999Z</time></trkpt><trkpt lat="38.12971094263136" lon="13.36086532414757"><ele>10.0</ele><time>2026-04-30T14:08:52.999Z</time></trkpt><trkpt lat="38.12961858548039" lon="13.360861240211042"><ele>10.0</ele><time>2026-04-30T14:08:58.999Z</time></trkpt><trkpt lat="38.12953988186369" lon="13.36090069255958"><ele>10.0</ele><time>2026-04-30T14:09:01.999Z</time></trkpt><trkpt lat="38.129435703662686" lon="13.360946400281836"><ele>10.0</ele><time>2026-04-30T14:09:03.999Z</time></trkpt><trkpt lat="38.1293314107787" lon="13.36099151536394"><ele>10.0</ele><time>2026-04-30T14:09:05.999Z</time></trkpt><trkpt lat="38.12924105899176" lon="13.361052738267453"><ele>10.0</ele><time>2026-04-30T14:09:06.999Z</time></trkpt><trkpt lat="38.129120138595574" lon="13.36111846065396"><ele>10.2</ele><time>2026-04-30T14:09:07.999Z</time></trkpt><trkpt lat="38.12900532171158" lon="13.361189970718966"><ele>10.4</ele><time>2026-04-30T14:09:08.999Z</time></trkpt><trkpt lat="38.12890720132589" lon="13.361242010539966"><ele>10.600000000000001</ele><time>2026-04-30T14:09:09.999Z</time></trkpt><trkpt lat="38.128826027811876" lon="13.361284286879727"><ele>10.8</ele><time>2026-04-30T14:09:10.999Z</time></trkpt><trkpt lat="38.12875287804557" lon="13.361346603329325"><ele>11.0</ele><time>2026-04-30T14:09:11.999Z</time></trkpt><trkpt lat="38.12866270226237" lon="13.361379775964023"><ele>11.0</ele><time>2026-04-30T14:09:12.999Z</time></trkpt><trkpt lat="38.12858026867207" lon="13.361419902539701"><ele>11.0</ele><time>2026-04-30T14:09:13.999Z</time></trkpt><trkpt lat="38.12847526556384" lon="13.361472147693362"><ele>11.0</ele><time>2026-04-30T14:09:14.999Z</time></trkpt><trkpt lat="38.12836784631721" lon="13.361523556657078"><ele>11.0</ele><time>2026-04-30T14:09:15.999Z</time></trkpt><trkpt lat="38.12825571748613" lon="13.36158292880413"><ele>11.0</ele><time>2026-04-30T14:09:16.999Z</time></trkpt><trkpt lat="38.128144705263765" lon="13.36164204154275"><ele>11.600000000000001</ele><time>2026-04-30T14:09:17.999Z</time></trkpt><trkpt lat="38.12805367868715" lon="13.361683657660787"><ele>12.2</ele><time>2026-04-30T14:09:18.999Z</time></trkpt><trkpt lat="38.127941202528035" lon="13.36173002947017"><ele>12.799999999999999</ele><time>2026-04-30T14:09:20.999Z</time></trkpt><trkpt lat="38.127857890401636" lon="13.361794588418338"><ele>13.399999999999999</ele><time>2026-04-30T14:09:21.999Z</time></trkpt><trkpt lat="38.12775434723237" lon="13.361843721742572"><ele>14.0</ele><time>2026-04-30T14:09:22.999Z</time></trkpt><trkpt lat="38.127655970034084" lon="13.361914017003146"><ele>14.000000000000002</ele><time>2026-04-30T14:09:23.999Z</time></trkpt><trkpt lat="38.12757224359711" lon="13.361969732923889"><ele>14.0</ele><time>2026-04-30T14:09:24.999Z</time></trkpt><trkpt lat="38.12749450405233" lon="13.361989455612354"><ele>14.0</ele><time>2026-04-30T14:09:25.999Z</time></trkpt><trkpt lat="38.12743145296615" lon="13.362009612561529"><ele>14.0</ele><time>2026-04-30T14:09:26.999Z</time></trkpt><trkpt lat="38.12735111208121" lon="13.362048916148675"><ele>14.000000000000002</ele><time>2026-04-30T14:09:28.999Z</time></trkpt><trkpt lat="38.12729256823146" lon="13.362010690665844"><ele>14.0</ele><time>2026-04-30T14:09:30.999Z</time></trkpt><trkpt lat="38.127307475298515" lon="13.361903547241875"><ele>16.166666666666668</ele><time>2026-04-30T14:09:32.999Z</time></trkpt><trkpt lat="38.127290682880734" lon="13.361810774008292"><ele>18.333333333333336</ele><time>2026-04-30T14:09:33.999Z</time></trkpt><trkpt lat="38.1272293152054" lon="13.36169810007571"><ele>20.5</ele><time>2026-04-30T14:09:34.999Z</time></trkpt><trkpt lat="38.12720637627795" lon="13.361602230611886"><ele>22.666666666666668</ele><time>2026-04-30T14:09:35.999Z</time></trkpt><trkpt lat="38.12718641613204" lon="13.361525290449517"><ele>24.833333333333332</ele><time>2026-04-30T14:09:36.999Z</time></trkpt><trkpt lat="38.12711970018492" lon="13.36149836522884"><ele>27.0</ele><time>2026-04-30T14:09:45.999Z</time></trkpt><trkpt lat="38.12701971360785" lon="13.36148515265231"><ele>27.0</ele><time>2026-04-30T14:09:47.999Z</time></trkpt><trkpt lat="38.126943902804605" lon="13.361465202067548"><ele>27.0</ele><time>2026-04-30T14:09:48.999Z</time></trkpt><trkpt lat="38.12687588229902" lon="13.36146324692139"><ele>27.0</ele><time>2026-04-30T14:10:06.999Z</time></trkpt><trkpt lat="38.12688563517422" lon="13.361542566860196"><ele>27.0</ele><time>2026-04-30T14:11:12.999Z</time></trkpt><trkpt lat="38.12697467964826" lon="13.361521031972478"><ele>27.0</ele><time>2026-04-30T14:12:20.999Z</time></trkpt><trkpt lat="38.126953452172046" lon="13.361438791692196"><ele>27.0</ele><time>2026-04-30T14:12:36.999Z</time></trkpt></trkseg></trk></gpx>